<?xml version="1.0" encoding="UTF-8" standalone="no" ?>
<gpx xmlns="http://www.topografix.com/GPX/1/1" xmlns:xsi="http://www.w3.org/2001/XMLSchema-instance" xsi:schemaLocation="http://www.topografix.com/GPX/1/1 http://www.topografix.com/GPX/1/1/gpx.xsd" version="1.1" creator="VisuGPX - https://www.visugpx.com">
  <metadata>
    <name>Sortie club 1er mai </name>
  </metadata>
  <trk>
    <name><![CDATA[Sortie club 1er mai _1]]></name>
    <trkseg>
      <trkpt lat="49.0211" lon="7.84526">
        <ele>351.2</ele>
        <time>2022-05-01T06:33:56Z</time>
      </trkpt>
      <trkpt lat="49.0211" lon="7.84526">
        <ele>351</ele>
        <time>2022-05-01T06:33:59Z</time>
      </trkpt>
      <trkpt lat="49.0211" lon="7.84526">
        <ele>351.4</ele>
        <time>2022-05-01T06:34:01Z</time>
      </trkpt>
      <trkpt lat="49.0211" lon="7.84526">
        <ele>351.4</ele>
        <time>2022-05-01T06:34:02Z</time>
      </trkpt>
      <trkpt lat="49.02102" lon="7.8453">
        <ele>351.4</ele>
        <time>2022-05-01T06:34:03Z</time>
      </trkpt>
      <trkpt lat="49.02103" lon="7.84532">
        <ele>351.6</ele>
        <time>2022-05-01T06:34:04Z</time>
      </trkpt>
      <trkpt lat="49.02104" lon="7.84535">
        <ele>351.6</ele>
        <time>2022-05-01T06:34:05Z</time>
      </trkpt>
      <trkpt lat="49.02107" lon="7.84536">
        <ele>351.8</ele>
        <time>2022-05-01T06:34:06Z</time>
      </trkpt>
      <trkpt lat="49.02108" lon="7.84538">
        <ele>351.8</ele>
        <time>2022-05-01T06:34:07Z</time>
      </trkpt>
      <trkpt lat="49.0211" lon="7.8454">
        <ele>352</ele>
        <time>2022-05-01T06:34:08Z</time>
      </trkpt>
      <trkpt lat="49.02112" lon="7.84542">
        <ele>352.2</ele>
        <time>2022-05-01T06:34:09Z</time>
      </trkpt>
      <trkpt lat="49.02114" lon="7.84545">
        <ele>352.4</ele>
        <time>2022-05-01T06:34:10Z</time>
      </trkpt>
      <trkpt lat="49.02119" lon="7.84555">
        <ele>353.2</ele>
        <time>2022-05-01T06:34:14Z</time>
      </trkpt>
      <trkpt lat="49.0212" lon="7.84558">
        <ele>353.4</ele>
        <time>2022-05-01T06:34:15Z</time>
      </trkpt>
      <trkpt lat="49.02121" lon="7.84561">
        <ele>353.6</ele>
        <time>2022-05-01T06:34:16Z</time>
      </trkpt>
      <trkpt lat="49.02123" lon="7.84563">
        <ele>353.8</ele>
        <time>2022-05-01T06:34:17Z</time>
      </trkpt>
      <trkpt lat="49.02129" lon="7.84572">
        <ele>353.2</ele>
        <time>2022-05-01T06:34:21Z</time>
      </trkpt>
      <trkpt lat="49.02133" lon="7.8458">
        <ele>353.4</ele>
        <time>2022-05-01T06:34:24Z</time>
      </trkpt>
      <trkpt lat="49.02135" lon="7.84582">
        <ele>353.6</ele>
        <time>2022-05-01T06:34:25Z</time>
      </trkpt>
      <trkpt lat="49.02137" lon="7.84583">
        <ele>353.8</ele>
        <time>2022-05-01T06:34:26Z</time>
      </trkpt>
      <trkpt lat="49.02138" lon="7.84581">
        <ele>354</ele>
        <time>2022-05-01T06:34:27Z</time>
      </trkpt>
      <trkpt lat="49.02142" lon="7.84575">
        <ele>354.4</ele>
        <time>2022-05-01T06:34:29Z</time>
      </trkpt>
      <trkpt lat="49.02144" lon="7.84573">
        <ele>354.6</ele>
        <time>2022-05-01T06:34:30Z</time>
      </trkpt>
      <trkpt lat="49.02147" lon="7.8457">
        <ele>354.8</ele>
        <time>2022-05-01T06:34:31Z</time>
      </trkpt>
      <trkpt lat="49.02149" lon="7.84567">
        <ele>355</ele>
        <time>2022-05-01T06:34:32Z</time>
      </trkpt>
      <trkpt lat="49.02152" lon="7.84564">
        <ele>355</ele>
        <time>2022-05-01T06:34:33Z</time>
      </trkpt>
      <trkpt lat="49.02157" lon="7.84557">
        <ele>355</ele>
        <time>2022-05-01T06:34:35Z</time>
      </trkpt>
      <trkpt lat="49.02164" lon="7.84547">
        <ele>355</ele>
        <time>2022-05-01T06:34:38Z</time>
      </trkpt>
      <trkpt lat="49.02174" lon="7.84532">
        <ele>355</ele>
        <time>2022-05-01T06:34:42Z</time>
      </trkpt>
      <trkpt lat="49.02179" lon="7.84525">
        <ele>355</ele>
        <time>2022-05-01T06:34:44Z</time>
      </trkpt>
      <trkpt lat="49.02181" lon="7.84522">
        <ele>355</ele>
        <time>2022-05-01T06:34:45Z</time>
      </trkpt>
      <trkpt lat="49.02184" lon="7.8452">
        <ele>355</ele>
        <time>2022-05-01T06:34:46Z</time>
      </trkpt>
      <trkpt lat="49.02186" lon="7.84517">
        <ele>355</ele>
        <time>2022-05-01T06:34:47Z</time>
      </trkpt>
      <trkpt lat="49.02189" lon="7.84514">
        <ele>355</ele>
        <time>2022-05-01T06:34:48Z</time>
      </trkpt>
      <trkpt lat="49.02191" lon="7.84512">
        <ele>355</ele>
        <time>2022-05-01T06:34:49Z</time>
      </trkpt>
      <trkpt lat="49.02192" lon="7.8451">
        <ele>355</ele>
        <time>2022-05-01T06:34:50Z</time>
      </trkpt>
      <trkpt lat="49.02193" lon="7.84508">
        <ele>355</ele>
        <time>2022-05-01T06:34:51Z</time>
      </trkpt>
      <trkpt lat="49.02195" lon="7.84505">
        <ele>355</ele>
        <time>2022-05-01T06:34:52Z</time>
      </trkpt>
      <trkpt lat="49.02196" lon="7.84503">
        <ele>355</ele>
        <time>2022-05-01T06:34:53Z</time>
      </trkpt>
      <trkpt lat="49.02198" lon="7.845">
        <ele>355</ele>
        <time>2022-05-01T06:34:54Z</time>
      </trkpt>
      <trkpt lat="49.02206" lon="7.8449">
        <ele>355.8</ele>
        <time>2022-05-01T06:34:59Z</time>
      </trkpt>
      <trkpt lat="49.02207" lon="7.8449">
        <ele>355.8</ele>
        <time>2022-05-01T06:35:00Z</time>
      </trkpt>
      <trkpt lat="49.02207" lon="7.84489">
        <ele>356</ele>
        <time>2022-05-01T06:35:01Z</time>
      </trkpt>
      <trkpt lat="49.02212" lon="7.84484">
        <ele>356.4</ele>
        <time>2022-05-01T06:35:04Z</time>
      </trkpt>
      <trkpt lat="49.02214" lon="7.84482">
        <ele>356.8</ele>
        <time>2022-05-01T06:35:05Z</time>
      </trkpt>
      <trkpt lat="49.02215" lon="7.84479">
        <ele>357</ele>
        <time>2022-05-01T06:35:06Z</time>
      </trkpt>
      <trkpt lat="49.02216" lon="7.84476">
        <ele>357.2</ele>
        <time>2022-05-01T06:35:07Z</time>
      </trkpt>
      <trkpt lat="49.02218" lon="7.84474">
        <ele>357.6</ele>
        <time>2022-05-01T06:35:08Z</time>
      </trkpt>
      <trkpt lat="49.02219" lon="7.84471">
        <ele>358</ele>
        <time>2022-05-01T06:35:09Z</time>
      </trkpt>
      <trkpt lat="49.0222" lon="7.84469">
        <ele>358.2</ele>
        <time>2022-05-01T06:35:10Z</time>
      </trkpt>
      <trkpt lat="49.02221" lon="7.84467">
        <ele>358.6</ele>
        <time>2022-05-01T06:35:11Z</time>
      </trkpt>
      <trkpt lat="49.02222" lon="7.84464">
        <ele>358.8</ele>
        <time>2022-05-01T06:35:12Z</time>
      </trkpt>
      <trkpt lat="49.02224" lon="7.84461">
        <ele>359</ele>
        <time>2022-05-01T06:35:13Z</time>
      </trkpt>
      <trkpt lat="49.02226" lon="7.84458">
        <ele>359.2</ele>
        <time>2022-05-01T06:35:14Z</time>
      </trkpt>
      <trkpt lat="49.02228" lon="7.84454">
        <ele>359.6</ele>
        <time>2022-05-01T06:35:15Z</time>
      </trkpt>
      <trkpt lat="49.02229" lon="7.84451">
        <ele>360</ele>
        <time>2022-05-01T06:35:16Z</time>
      </trkpt>
      <trkpt lat="49.02231" lon="7.84448">
        <ele>360.2</ele>
        <time>2022-05-01T06:35:17Z</time>
      </trkpt>
      <trkpt lat="49.02232" lon="7.84445">
        <ele>360.6</ele>
        <time>2022-05-01T06:35:18Z</time>
      </trkpt>
      <trkpt lat="49.02233" lon="7.84443">
        <ele>360.8</ele>
        <time>2022-05-01T06:35:19Z</time>
      </trkpt>
      <trkpt lat="49.02234" lon="7.84439">
        <ele>360.8</ele>
        <time>2022-05-01T06:35:20Z</time>
      </trkpt>
      <trkpt lat="49.02236" lon="7.84435">
        <ele>360.8</ele>
        <time>2022-05-01T06:35:21Z</time>
      </trkpt>
      <trkpt lat="49.02238" lon="7.84431">
        <ele>360.8</ele>
        <time>2022-05-01T06:35:22Z</time>
      </trkpt>
      <trkpt lat="49.02241" lon="7.84426">
        <ele>361</ele>
        <time>2022-05-01T06:35:23Z</time>
      </trkpt>
      <trkpt lat="49.02243" lon="7.84423">
        <ele>361</ele>
        <time>2022-05-01T06:35:24Z</time>
      </trkpt>
      <trkpt lat="49.02244" lon="7.84421">
        <ele>361.2</ele>
        <time>2022-05-01T06:35:25Z</time>
      </trkpt>
      <trkpt lat="49.02246" lon="7.84419">
        <ele>361.4</ele>
        <time>2022-05-01T06:35:26Z</time>
      </trkpt>
      <trkpt lat="49.02248" lon="7.84416">
        <ele>361.6</ele>
        <time>2022-05-01T06:35:27Z</time>
      </trkpt>
      <trkpt lat="49.0225" lon="7.84413">
        <ele>361.8</ele>
        <time>2022-05-01T06:35:28Z</time>
      </trkpt>
      <trkpt lat="49.02252" lon="7.8441">
        <ele>361.8</ele>
        <time>2022-05-01T06:35:29Z</time>
      </trkpt>
      <trkpt lat="49.02254" lon="7.84404">
        <ele>362</ele>
        <time>2022-05-01T06:35:30Z</time>
      </trkpt>
      <trkpt lat="49.02256" lon="7.844">
        <ele>362</ele>
        <time>2022-05-01T06:35:31Z</time>
      </trkpt>
      <trkpt lat="49.02257" lon="7.84397">
        <ele>362</ele>
        <time>2022-05-01T06:35:32Z</time>
      </trkpt>
      <trkpt lat="49.02258" lon="7.84394">
        <ele>362.2</ele>
        <time>2022-05-01T06:35:33Z</time>
      </trkpt>
      <trkpt lat="49.02259" lon="7.84392">
        <ele>362.2</ele>
        <time>2022-05-01T06:35:34Z</time>
      </trkpt>
      <trkpt lat="49.02261" lon="7.84389">
        <ele>362.4</ele>
        <time>2022-05-01T06:35:35Z</time>
      </trkpt>
      <trkpt lat="49.02262" lon="7.84387">
        <ele>362.4</ele>
        <time>2022-05-01T06:35:36Z</time>
      </trkpt>
      <trkpt lat="49.02264" lon="7.84384">
        <ele>362.4</ele>
        <time>2022-05-01T06:35:37Z</time>
      </trkpt>
      <trkpt lat="49.02265" lon="7.84381">
        <ele>362.6</ele>
        <time>2022-05-01T06:35:38Z</time>
      </trkpt>
      <trkpt lat="49.02267" lon="7.84376">
        <ele>362.6</ele>
        <time>2022-05-01T06:35:39Z</time>
      </trkpt>
      <trkpt lat="49.02269" lon="7.84373">
        <ele>362.6</ele>
        <time>2022-05-01T06:35:40Z</time>
      </trkpt>
      <trkpt lat="49.0227" lon="7.8437">
        <ele>362.8</ele>
        <time>2022-05-01T06:35:41Z</time>
      </trkpt>
      <trkpt lat="49.02271" lon="7.84368">
        <ele>362.8</ele>
        <time>2022-05-01T06:35:42Z</time>
      </trkpt>
      <trkpt lat="49.02273" lon="7.84366">
        <ele>362.8</ele>
        <time>2022-05-01T06:35:43Z</time>
      </trkpt>
      <trkpt lat="49.02275" lon="7.84363">
        <ele>363</ele>
        <time>2022-05-01T06:35:44Z</time>
      </trkpt>
      <trkpt lat="49.02277" lon="7.84361">
        <ele>363</ele>
        <time>2022-05-01T06:35:45Z</time>
      </trkpt>
      <trkpt lat="49.0228" lon="7.84359">
        <ele>363</ele>
        <time>2022-05-01T06:35:46Z</time>
      </trkpt>
      <trkpt lat="49.02282" lon="7.84358">
        <ele>363.2</ele>
        <time>2022-05-01T06:35:47Z</time>
      </trkpt>
      <trkpt lat="49.02283" lon="7.84355">
        <ele>363.2</ele>
        <time>2022-05-01T06:35:48Z</time>
      </trkpt>
      <trkpt lat="49.02284" lon="7.84351">
        <ele>363.2</ele>
        <time>2022-05-01T06:35:49Z</time>
      </trkpt>
      <trkpt lat="49.02285" lon="7.84346">
        <ele>363.4</ele>
        <time>2022-05-01T06:35:50Z</time>
      </trkpt>
      <trkpt lat="49.02286" lon="7.84341">
        <ele>363.4</ele>
        <time>2022-05-01T06:35:51Z</time>
      </trkpt>
      <trkpt lat="49.02287" lon="7.84337">
        <ele>363.4</ele>
        <time>2022-05-01T06:35:52Z</time>
      </trkpt>
      <trkpt lat="49.02289" lon="7.84316">
        <ele>363.6</ele>
        <time>2022-05-01T06:35:56Z</time>
      </trkpt>
      <trkpt lat="49.02287" lon="7.84306">
        <ele>363.6</ele>
        <time>2022-05-01T06:35:58Z</time>
      </trkpt>
      <trkpt lat="49.02286" lon="7.84303">
        <ele>363.6</ele>
        <time>2022-05-01T06:35:59Z</time>
      </trkpt>
      <trkpt lat="49.02287" lon="7.84288">
        <ele>363.8</ele>
        <time>2022-05-01T06:36:02Z</time>
      </trkpt>
      <trkpt lat="49.02287" lon="7.84286">
        <ele>363.8</ele>
        <time>2022-05-01T06:36:03Z</time>
      </trkpt>
      <trkpt lat="49.02288" lon="7.84281">
        <ele>364</ele>
        <time>2022-05-01T06:36:04Z</time>
      </trkpt>
      <trkpt lat="49.02289" lon="7.84271">
        <ele>363.8</ele>
        <time>2022-05-01T06:36:06Z</time>
      </trkpt>
      <trkpt lat="49.02288" lon="7.84267">
        <ele>364</ele>
        <time>2022-05-01T06:36:07Z</time>
      </trkpt>
      <trkpt lat="49.02287" lon="7.8426">
        <ele>363.8</ele>
        <time>2022-05-01T06:36:08Z</time>
      </trkpt>
      <trkpt lat="49.02285" lon="7.84256">
        <ele>363.8</ele>
        <time>2022-05-01T06:36:09Z</time>
      </trkpt>
      <trkpt lat="49.02286" lon="7.84246">
        <ele>364</ele>
        <time>2022-05-01T06:36:11Z</time>
      </trkpt>
      <trkpt lat="49.02287" lon="7.84242">
        <ele>364.2</ele>
        <time>2022-05-01T06:36:12Z</time>
      </trkpt>
      <trkpt lat="49.02288" lon="7.84238">
        <ele>364.2</ele>
        <time>2022-05-01T06:36:13Z</time>
      </trkpt>
      <trkpt lat="49.02289" lon="7.84233">
        <ele>364.2</ele>
        <time>2022-05-01T06:36:14Z</time>
      </trkpt>
      <trkpt lat="49.02289" lon="7.84224">
        <ele>364.2</ele>
        <time>2022-05-01T06:36:16Z</time>
      </trkpt>
      <trkpt lat="49.02288" lon="7.84217">
        <ele>364.4</ele>
        <time>2022-05-01T06:36:17Z</time>
      </trkpt>
      <trkpt lat="49.02289" lon="7.84198">
        <ele>364.6</ele>
        <time>2022-05-01T06:36:20Z</time>
      </trkpt>
      <trkpt lat="49.0229" lon="7.84195">
        <ele>364.6</ele>
        <time>2022-05-01T06:36:21Z</time>
      </trkpt>
      <trkpt lat="49.02291" lon="7.84191">
        <ele>364.6</ele>
        <time>2022-05-01T06:36:22Z</time>
      </trkpt>
      <trkpt lat="49.02293" lon="7.84183">
        <ele>364.8</ele>
        <time>2022-05-01T06:36:24Z</time>
      </trkpt>
      <trkpt lat="49.02295" lon="7.84178">
        <ele>364.8</ele>
        <time>2022-05-01T06:36:25Z</time>
      </trkpt>
      <trkpt lat="49.02296" lon="7.84172">
        <ele>364.8</ele>
        <time>2022-05-01T06:36:26Z</time>
      </trkpt>
      <trkpt lat="49.02295" lon="7.8417">
        <ele>365</ele>
        <time>2022-05-01T06:36:27Z</time>
      </trkpt>
      <trkpt lat="49.02294" lon="7.84167">
        <ele>365</ele>
        <time>2022-05-01T06:36:28Z</time>
      </trkpt>
      <trkpt lat="49.02294" lon="7.84162">
        <ele>365.2</ele>
        <time>2022-05-01T06:36:29Z</time>
      </trkpt>
      <trkpt lat="49.02292" lon="7.84159">
        <ele>365.2</ele>
        <time>2022-05-01T06:36:30Z</time>
      </trkpt>
      <trkpt lat="49.02291" lon="7.84155">
        <ele>365.4</ele>
        <time>2022-05-01T06:36:31Z</time>
      </trkpt>
      <trkpt lat="49.02292" lon="7.84143">
        <ele>366</ele>
        <time>2022-05-01T06:36:34Z</time>
      </trkpt>
      <trkpt lat="49.02292" lon="7.8414">
        <ele>366.2</ele>
        <time>2022-05-01T06:36:35Z</time>
      </trkpt>
      <trkpt lat="49.02293" lon="7.84137">
        <ele>366.4</ele>
        <time>2022-05-01T06:36:36Z</time>
      </trkpt>
      <trkpt lat="49.02293" lon="7.84134">
        <ele>366.6</ele>
        <time>2022-05-01T06:36:37Z</time>
      </trkpt>
      <trkpt lat="49.02295" lon="7.84123">
        <ele>367</ele>
        <time>2022-05-01T06:36:40Z</time>
      </trkpt>
      <trkpt lat="49.02296" lon="7.84122">
        <ele>367.2</ele>
        <time>2022-05-01T06:36:41Z</time>
      </trkpt>
      <trkpt lat="49.02296" lon="7.8412">
        <ele>367.4</ele>
        <time>2022-05-01T06:36:42Z</time>
      </trkpt>
      <trkpt lat="49.02297" lon="7.84118">
        <ele>367.6</ele>
        <time>2022-05-01T06:36:43Z</time>
      </trkpt>
      <trkpt lat="49.02297" lon="7.84118">
        <ele>367.8</ele>
        <time>2022-05-01T06:36:44Z</time>
      </trkpt>
      <trkpt lat="49.02297" lon="7.84117">
        <ele>368</ele>
        <time>2022-05-01T06:36:45Z</time>
      </trkpt>
      <trkpt lat="49.02298" lon="7.84117">
        <ele>368.2</ele>
        <time>2022-05-01T06:36:46Z</time>
      </trkpt>
      <trkpt lat="49.02299" lon="7.84116">
        <ele>368.4</ele>
        <time>2022-05-01T06:36:48Z</time>
      </trkpt>
      <trkpt lat="49.02299" lon="7.84115">
        <ele>368.8</ele>
        <time>2022-05-01T06:36:49Z</time>
      </trkpt>
      <trkpt lat="49.02299" lon="7.84114">
        <ele>369</ele>
        <time>2022-05-01T06:36:51Z</time>
      </trkpt>
      <trkpt lat="49.02299" lon="7.84113">
        <ele>369</ele>
        <time>2022-05-01T06:36:52Z</time>
      </trkpt>
      <trkpt lat="49.02299" lon="7.84112">
        <ele>369.2</ele>
        <time>2022-05-01T06:36:53Z</time>
      </trkpt>
      <trkpt lat="49.02299" lon="7.84112">
        <ele>369.2</ele>
        <time>2022-05-01T06:36:54Z</time>
      </trkpt>
      <trkpt lat="49.023" lon="7.84112">
        <ele>369.2</ele>
        <time>2022-05-01T06:36:55Z</time>
      </trkpt>
      <trkpt lat="49.02301" lon="7.8411">
        <ele>369.2</ele>
        <time>2022-05-01T06:36:57Z</time>
      </trkpt>
      <trkpt lat="49.02302" lon="7.8411">
        <ele>369.2</ele>
        <time>2022-05-01T06:36:58Z</time>
      </trkpt>
      <trkpt lat="49.02304" lon="7.84108">
        <ele>369.4</ele>
        <time>2022-05-01T06:37:00Z</time>
      </trkpt>
      <trkpt lat="49.02306" lon="7.84104">
        <ele>369.4</ele>
        <time>2022-05-01T06:37:01Z</time>
      </trkpt>
      <trkpt lat="49.02306" lon="7.84103">
        <ele>369.4</ele>
        <time>2022-05-01T06:37:02Z</time>
      </trkpt>
      <trkpt lat="49.02307" lon="7.84098">
        <ele>369.4</ele>
        <time>2022-05-01T06:37:04Z</time>
      </trkpt>
      <trkpt lat="49.02308" lon="7.84095">
        <ele>369.4</ele>
        <time>2022-05-01T06:37:06Z</time>
      </trkpt>
      <trkpt lat="49.02308" lon="7.84093">
        <ele>369.6</ele>
        <time>2022-05-01T06:37:07Z</time>
      </trkpt>
      <trkpt lat="49.02309" lon="7.84091">
        <ele>369.6</ele>
        <time>2022-05-01T06:37:08Z</time>
      </trkpt>
      <trkpt lat="49.02314" lon="7.84079">
        <ele>369.6</ele>
        <time>2022-05-01T06:37:13Z</time>
      </trkpt>
      <trkpt lat="49.02314" lon="7.84078">
        <ele>370</ele>
        <time>2022-05-01T06:37:14Z</time>
      </trkpt>
      <trkpt lat="49.02314" lon="7.84076">
        <ele>370.2</ele>
        <time>2022-05-01T06:37:15Z</time>
      </trkpt>
      <trkpt lat="49.02315" lon="7.84073">
        <ele>370.2</ele>
        <time>2022-05-01T06:37:16Z</time>
      </trkpt>
      <trkpt lat="49.0232" lon="7.8406">
        <ele>370.8</ele>
        <time>2022-05-01T06:37:20Z</time>
      </trkpt>
      <trkpt lat="49.02321" lon="7.84057">
        <ele>371</ele>
        <time>2022-05-01T06:37:21Z</time>
      </trkpt>
      <trkpt lat="49.02322" lon="7.84055">
        <ele>371.2</ele>
        <time>2022-05-01T06:37:22Z</time>
      </trkpt>
      <trkpt lat="49.02323" lon="7.84053">
        <ele>371.4</ele>
        <time>2022-05-01T06:37:23Z</time>
      </trkpt>
      <trkpt lat="49.02328" lon="7.84037">
        <ele>372.4</ele>
        <time>2022-05-01T06:37:28Z</time>
      </trkpt>
      <trkpt lat="49.0233" lon="7.84033">
        <ele>372.4</ele>
        <time>2022-05-01T06:37:29Z</time>
      </trkpt>
      <trkpt lat="49.0233" lon="7.8403">
        <ele>372.8</ele>
        <time>2022-05-01T06:37:30Z</time>
      </trkpt>
      <trkpt lat="49.0233" lon="7.84027">
        <ele>373</ele>
        <time>2022-05-01T06:37:31Z</time>
      </trkpt>
      <trkpt lat="49.0233" lon="7.84024">
        <ele>373.2</ele>
        <time>2022-05-01T06:37:32Z</time>
      </trkpt>
      <trkpt lat="49.02331" lon="7.8402">
        <ele>373.2</ele>
        <time>2022-05-01T06:37:33Z</time>
      </trkpt>
      <trkpt lat="49.02331" lon="7.84017">
        <ele>373.2</ele>
        <time>2022-05-01T06:37:34Z</time>
      </trkpt>
      <trkpt lat="49.02332" lon="7.84013">
        <ele>373.4</ele>
        <time>2022-05-01T06:37:35Z</time>
      </trkpt>
      <trkpt lat="49.02333" lon="7.84009">
        <ele>373.4</ele>
        <time>2022-05-01T06:37:36Z</time>
      </trkpt>
      <trkpt lat="49.02333" lon="7.84005">
        <ele>373.4</ele>
        <time>2022-05-01T06:37:37Z</time>
      </trkpt>
      <trkpt lat="49.02333" lon="7.84001">
        <ele>373.4</ele>
        <time>2022-05-01T06:37:38Z</time>
      </trkpt>
      <trkpt lat="49.02333" lon="7.83997">
        <ele>373.6</ele>
        <time>2022-05-01T06:37:39Z</time>
      </trkpt>
      <trkpt lat="49.02333" lon="7.83993">
        <ele>373.6</ele>
        <time>2022-05-01T06:37:40Z</time>
      </trkpt>
      <trkpt lat="49.02334" lon="7.83988">
        <ele>373.8</ele>
        <time>2022-05-01T06:37:41Z</time>
      </trkpt>
      <trkpt lat="49.02333" lon="7.83983">
        <ele>373.8</ele>
        <time>2022-05-01T06:37:42Z</time>
      </trkpt>
      <trkpt lat="49.02333" lon="7.83979">
        <ele>374</ele>
        <time>2022-05-01T06:37:43Z</time>
      </trkpt>
      <trkpt lat="49.02333" lon="7.83974">
        <ele>374</ele>
        <time>2022-05-01T06:37:44Z</time>
      </trkpt>
      <trkpt lat="49.02333" lon="7.8397">
        <ele>374.2</ele>
        <time>2022-05-01T06:37:45Z</time>
      </trkpt>
      <trkpt lat="49.02333" lon="7.83966">
        <ele>374.2</ele>
        <time>2022-05-01T06:37:46Z</time>
      </trkpt>
      <trkpt lat="49.02333" lon="7.83963">
        <ele>374.2</ele>
        <time>2022-05-01T06:37:47Z</time>
      </trkpt>
      <trkpt lat="49.02333" lon="7.8396">
        <ele>374.4</ele>
        <time>2022-05-01T06:37:48Z</time>
      </trkpt>
      <trkpt lat="49.02333" lon="7.83958">
        <ele>374.6</ele>
        <time>2022-05-01T06:37:49Z</time>
      </trkpt>
      <trkpt lat="49.02333" lon="7.83955">
        <ele>374.8</ele>
        <time>2022-05-01T06:37:50Z</time>
      </trkpt>
      <trkpt lat="49.02333" lon="7.83948">
        <ele>374.8</ele>
        <time>2022-05-01T06:37:51Z</time>
      </trkpt>
      <trkpt lat="49.02333" lon="7.83942">
        <ele>375</ele>
        <time>2022-05-01T06:37:52Z</time>
      </trkpt>
      <trkpt lat="49.02333" lon="7.83937">
        <ele>375.2</ele>
        <time>2022-05-01T06:37:53Z</time>
      </trkpt>
      <trkpt lat="49.02334" lon="7.83931">
        <ele>375.4</ele>
        <time>2022-05-01T06:37:54Z</time>
      </trkpt>
      <trkpt lat="49.02335" lon="7.83926">
        <ele>375.4</ele>
        <time>2022-05-01T06:37:55Z</time>
      </trkpt>
      <trkpt lat="49.02335" lon="7.83922">
        <ele>375.6</ele>
        <time>2022-05-01T06:37:56Z</time>
      </trkpt>
      <trkpt lat="49.02337" lon="7.83917">
        <ele>375.8</ele>
        <time>2022-05-01T06:37:57Z</time>
      </trkpt>
      <trkpt lat="49.02337" lon="7.83911">
        <ele>376</ele>
        <time>2022-05-01T06:37:58Z</time>
      </trkpt>
      <trkpt lat="49.02337" lon="7.83903">
        <ele>376</ele>
        <time>2022-05-01T06:37:59Z</time>
      </trkpt>
      <trkpt lat="49.02337" lon="7.83899">
        <ele>376.2</ele>
        <time>2022-05-01T06:38:00Z</time>
      </trkpt>
      <trkpt lat="49.02337" lon="7.83896">
        <ele>376.4</ele>
        <time>2022-05-01T06:38:01Z</time>
      </trkpt>
      <trkpt lat="49.02335" lon="7.83894">
        <ele>376.6</ele>
        <time>2022-05-01T06:38:02Z</time>
      </trkpt>
      <trkpt lat="49.02333" lon="7.83891">
        <ele>376.6</ele>
        <time>2022-05-01T06:38:03Z</time>
      </trkpt>
      <trkpt lat="49.02332" lon="7.83888">
        <ele>376.6</ele>
        <time>2022-05-01T06:38:04Z</time>
      </trkpt>
      <trkpt lat="49.02332" lon="7.83882">
        <ele>376.8</ele>
        <time>2022-05-01T06:38:05Z</time>
      </trkpt>
      <trkpt lat="49.02332" lon="7.83878">
        <ele>376.8</ele>
        <time>2022-05-01T06:38:06Z</time>
      </trkpt>
      <trkpt lat="49.02332" lon="7.83873">
        <ele>376.8</ele>
        <time>2022-05-01T06:38:07Z</time>
      </trkpt>
      <trkpt lat="49.02333" lon="7.83868">
        <ele>377</ele>
        <time>2022-05-01T06:38:08Z</time>
      </trkpt>
      <trkpt lat="49.02333" lon="7.83863">
        <ele>377</ele>
        <time>2022-05-01T06:38:09Z</time>
      </trkpt>
      <trkpt lat="49.02334" lon="7.83859">
        <ele>377</ele>
        <time>2022-05-01T06:38:10Z</time>
      </trkpt>
      <trkpt lat="49.02334" lon="7.83855">
        <ele>377</ele>
        <time>2022-05-01T06:38:11Z</time>
      </trkpt>
      <trkpt lat="49.02334" lon="7.83852">
        <ele>377</ele>
        <time>2022-05-01T06:38:12Z</time>
      </trkpt>
      <trkpt lat="49.02334" lon="7.83848">
        <ele>377</ele>
        <time>2022-05-01T06:38:13Z</time>
      </trkpt>
      <trkpt lat="49.02334" lon="7.83843">
        <ele>377</ele>
        <time>2022-05-01T06:38:14Z</time>
      </trkpt>
      <trkpt lat="49.02334" lon="7.83839">
        <ele>377</ele>
        <time>2022-05-01T06:38:15Z</time>
      </trkpt>
      <trkpt lat="49.02333" lon="7.83836">
        <ele>377.2</ele>
        <time>2022-05-01T06:38:16Z</time>
      </trkpt>
      <trkpt lat="49.02333" lon="7.83832">
        <ele>377.2</ele>
        <time>2022-05-01T06:38:17Z</time>
      </trkpt>
      <trkpt lat="49.02332" lon="7.83827">
        <ele>377.2</ele>
        <time>2022-05-01T06:38:18Z</time>
      </trkpt>
      <trkpt lat="49.02329" lon="7.83813">
        <ele>377.2</ele>
        <time>2022-05-01T06:38:21Z</time>
      </trkpt>
      <trkpt lat="49.02329" lon="7.83809">
        <ele>377.2</ele>
        <time>2022-05-01T06:38:22Z</time>
      </trkpt>
      <trkpt lat="49.02328" lon="7.83804">
        <ele>377.4</ele>
        <time>2022-05-01T06:38:23Z</time>
      </trkpt>
      <trkpt lat="49.02328" lon="7.83801">
        <ele>377.4</ele>
        <time>2022-05-01T06:38:24Z</time>
      </trkpt>
      <trkpt lat="49.02328" lon="7.83797">
        <ele>377.4</ele>
        <time>2022-05-01T06:38:25Z</time>
      </trkpt>
      <trkpt lat="49.02325" lon="7.83786">
        <ele>377.6</ele>
        <time>2022-05-01T06:38:28Z</time>
      </trkpt>
      <trkpt lat="49.02325" lon="7.83782">
        <ele>377.6</ele>
        <time>2022-05-01T06:38:29Z</time>
      </trkpt>
      <trkpt lat="49.02325" lon="7.83777">
        <ele>377.6</ele>
        <time>2022-05-01T06:38:30Z</time>
      </trkpt>
      <trkpt lat="49.02324" lon="7.83765">
        <ele>377.6</ele>
        <time>2022-05-01T06:38:33Z</time>
      </trkpt>
      <trkpt lat="49.02323" lon="7.83742">
        <ele>377.6</ele>
        <time>2022-05-01T06:38:38Z</time>
      </trkpt>
      <trkpt lat="49.02322" lon="7.83737">
        <ele>377.6</ele>
        <time>2022-05-01T06:38:39Z</time>
      </trkpt>
      <trkpt lat="49.02322" lon="7.83733">
        <ele>377.6</ele>
        <time>2022-05-01T06:38:40Z</time>
      </trkpt>
      <trkpt lat="49.02322" lon="7.83714">
        <ele>377.4</ele>
        <time>2022-05-01T06:38:43Z</time>
      </trkpt>
      <trkpt lat="49.02322" lon="7.83704">
        <ele>377.2</ele>
        <time>2022-05-01T06:38:45Z</time>
      </trkpt>
      <trkpt lat="49.02323" lon="7.83699">
        <ele>377</ele>
        <time>2022-05-01T06:38:46Z</time>
      </trkpt>
      <trkpt lat="49.02325" lon="7.83692">
        <ele>377</ele>
        <time>2022-05-01T06:38:47Z</time>
      </trkpt>
      <trkpt lat="49.02328" lon="7.83675">
        <ele>376.6</ele>
        <time>2022-05-01T06:38:49Z</time>
      </trkpt>
      <trkpt lat="49.02328" lon="7.83669">
        <ele>376.4</ele>
        <time>2022-05-01T06:38:50Z</time>
      </trkpt>
      <trkpt lat="49.02327" lon="7.83663">
        <ele>376.4</ele>
        <time>2022-05-01T06:38:51Z</time>
      </trkpt>
      <trkpt lat="49.02327" lon="7.83656">
        <ele>376.2</ele>
        <time>2022-05-01T06:38:52Z</time>
      </trkpt>
      <trkpt lat="49.02327" lon="7.83647">
        <ele>376.2</ele>
        <time>2022-05-01T06:38:53Z</time>
      </trkpt>
      <trkpt lat="49.02326" lon="7.83639">
        <ele>376.2</ele>
        <time>2022-05-01T06:38:54Z</time>
      </trkpt>
      <trkpt lat="49.02321" lon="7.83618">
        <ele>375.6</ele>
        <time>2022-05-01T06:38:56Z</time>
      </trkpt>
      <trkpt lat="49.02318" lon="7.83612">
        <ele>375.2</ele>
        <time>2022-05-01T06:38:57Z</time>
      </trkpt>
      <trkpt lat="49.02315" lon="7.83608">
        <ele>375</ele>
        <time>2022-05-01T06:38:58Z</time>
      </trkpt>
      <trkpt lat="49.02311" lon="7.83603">
        <ele>374.8</ele>
        <time>2022-05-01T06:38:59Z</time>
      </trkpt>
      <trkpt lat="49.02307" lon="7.83601">
        <ele>374.6</ele>
        <time>2022-05-01T06:39:00Z</time>
      </trkpt>
      <trkpt lat="49.02302" lon="7.83599">
        <ele>374.6</ele>
        <time>2022-05-01T06:39:01Z</time>
      </trkpt>
      <trkpt lat="49.02298" lon="7.83595">
        <ele>374.4</ele>
        <time>2022-05-01T06:39:02Z</time>
      </trkpt>
      <trkpt lat="49.02277" lon="7.83571">
        <ele>374.2</ele>
        <time>2022-05-01T06:39:07Z</time>
      </trkpt>
      <trkpt lat="49.02273" lon="7.83566">
        <ele>374.2</ele>
        <time>2022-05-01T06:39:08Z</time>
      </trkpt>
      <trkpt lat="49.02269" lon="7.83563">
        <ele>374</ele>
        <time>2022-05-01T06:39:09Z</time>
      </trkpt>
      <trkpt lat="49.02264" lon="7.8356">
        <ele>374</ele>
        <time>2022-05-01T06:39:10Z</time>
      </trkpt>
      <trkpt lat="49.0226" lon="7.83556">
        <ele>373.6</ele>
        <time>2022-05-01T06:39:11Z</time>
      </trkpt>
      <trkpt lat="49.02256" lon="7.83553">
        <ele>373.4</ele>
        <time>2022-05-01T06:39:12Z</time>
      </trkpt>
      <trkpt lat="49.0225" lon="7.83551">
        <ele>373.2</ele>
        <time>2022-05-01T06:39:13Z</time>
      </trkpt>
      <trkpt lat="49.02246" lon="7.83551">
        <ele>373</ele>
        <time>2022-05-01T06:39:14Z</time>
      </trkpt>
      <trkpt lat="49.02242" lon="7.83548">
        <ele>373</ele>
        <time>2022-05-01T06:39:15Z</time>
      </trkpt>
      <trkpt lat="49.02239" lon="7.83545">
        <ele>373</ele>
        <time>2022-05-01T06:39:16Z</time>
      </trkpt>
      <trkpt lat="49.02237" lon="7.8354">
        <ele>373</ele>
        <time>2022-05-01T06:39:17Z</time>
      </trkpt>
      <trkpt lat="49.02233" lon="7.83537">
        <ele>372.8</ele>
        <time>2022-05-01T06:39:18Z</time>
      </trkpt>
      <trkpt lat="49.02221" lon="7.83525">
        <ele>372.8</ele>
        <time>2022-05-01T06:39:21Z</time>
      </trkpt>
      <trkpt lat="49.02218" lon="7.8352">
        <ele>372.6</ele>
        <time>2022-05-01T06:39:22Z</time>
      </trkpt>
      <trkpt lat="49.02215" lon="7.83517">
        <ele>372.6</ele>
        <time>2022-05-01T06:39:23Z</time>
      </trkpt>
      <trkpt lat="49.02211" lon="7.83513">
        <ele>372.4</ele>
        <time>2022-05-01T06:39:24Z</time>
      </trkpt>
      <trkpt lat="49.02207" lon="7.83509">
        <ele>372.2</ele>
        <time>2022-05-01T06:39:25Z</time>
      </trkpt>
      <trkpt lat="49.02199" lon="7.83501">
        <ele>371.8</ele>
        <time>2022-05-01T06:39:27Z</time>
      </trkpt>
      <trkpt lat="49.02189" lon="7.8349">
        <ele>371.6</ele>
        <time>2022-05-01T06:39:29Z</time>
      </trkpt>
      <trkpt lat="49.02184" lon="7.83485">
        <ele>371.4</ele>
        <time>2022-05-01T06:39:30Z</time>
      </trkpt>
      <trkpt lat="49.0218" lon="7.8348">
        <ele>371.2</ele>
        <time>2022-05-01T06:39:31Z</time>
      </trkpt>
      <trkpt lat="49.0217" lon="7.83472">
        <ele>370.2</ele>
        <time>2022-05-01T06:39:33Z</time>
      </trkpt>
      <trkpt lat="49.02165" lon="7.83467">
        <ele>369.6</ele>
        <time>2022-05-01T06:39:34Z</time>
      </trkpt>
      <trkpt lat="49.02155" lon="7.83457">
        <ele>369</ele>
        <time>2022-05-01T06:39:36Z</time>
      </trkpt>
      <trkpt lat="49.02151" lon="7.83452">
        <ele>368.6</ele>
        <time>2022-05-01T06:39:37Z</time>
      </trkpt>
      <trkpt lat="49.02146" lon="7.83448">
        <ele>368</ele>
        <time>2022-05-01T06:39:38Z</time>
      </trkpt>
      <trkpt lat="49.02143" lon="7.83445">
        <ele>368</ele>
        <time>2022-05-01T06:39:39Z</time>
      </trkpt>
      <trkpt lat="49.02139" lon="7.83442">
        <ele>367.6</ele>
        <time>2022-05-01T06:39:40Z</time>
      </trkpt>
      <trkpt lat="49.02135" lon="7.8344">
        <ele>367.2</ele>
        <time>2022-05-01T06:39:41Z</time>
      </trkpt>
      <trkpt lat="49.0212" lon="7.83433">
        <ele>365.8</ele>
        <time>2022-05-01T06:39:44Z</time>
      </trkpt>
      <trkpt lat="49.02115" lon="7.83431">
        <ele>365.4</ele>
        <time>2022-05-01T06:39:45Z</time>
      </trkpt>
      <trkpt lat="49.02109" lon="7.83429">
        <ele>365.2</ele>
        <time>2022-05-01T06:39:46Z</time>
      </trkpt>
      <trkpt lat="49.02096" lon="7.83421">
        <ele>364.8</ele>
        <time>2022-05-01T06:39:48Z</time>
      </trkpt>
      <trkpt lat="49.0209" lon="7.83419">
        <ele>364.6</ele>
        <time>2022-05-01T06:39:49Z</time>
      </trkpt>
      <trkpt lat="49.02086" lon="7.83419">
        <ele>364.6</ele>
        <time>2022-05-01T06:39:50Z</time>
      </trkpt>
      <trkpt lat="49.02083" lon="7.8342">
        <ele>364</ele>
        <time>2022-05-01T06:39:51Z</time>
      </trkpt>
      <trkpt lat="49.02081" lon="7.83418">
        <ele>363.8</ele>
        <time>2022-05-01T06:39:52Z</time>
      </trkpt>
      <trkpt lat="49.0208" lon="7.83414">
        <ele>363.6</ele>
        <time>2022-05-01T06:39:53Z</time>
      </trkpt>
      <trkpt lat="49.02078" lon="7.83412">
        <ele>363.4</ele>
        <time>2022-05-01T06:39:54Z</time>
      </trkpt>
      <trkpt lat="49.02075" lon="7.8341">
        <ele>363.4</ele>
        <time>2022-05-01T06:39:55Z</time>
      </trkpt>
      <trkpt lat="49.02071" lon="7.83407">
        <ele>363.4</ele>
        <time>2022-05-01T06:39:56Z</time>
      </trkpt>
      <trkpt lat="49.02052" lon="7.83397">
        <ele>362.8</ele>
        <time>2022-05-01T06:40:00Z</time>
      </trkpt>
      <trkpt lat="49.02046" lon="7.83396">
        <ele>362.8</ele>
        <time>2022-05-01T06:40:01Z</time>
      </trkpt>
      <trkpt lat="49.02042" lon="7.83396">
        <ele>362.6</ele>
        <time>2022-05-01T06:40:02Z</time>
      </trkpt>
      <trkpt lat="49.02037" lon="7.83397">
        <ele>362.6</ele>
        <time>2022-05-01T06:40:03Z</time>
      </trkpt>
      <trkpt lat="49.02033" lon="7.83399">
        <ele>362.6</ele>
        <time>2022-05-01T06:40:04Z</time>
      </trkpt>
      <trkpt lat="49.02028" lon="7.83402">
        <ele>362.4</ele>
        <time>2022-05-01T06:40:05Z</time>
      </trkpt>
      <trkpt lat="49.02025" lon="7.83406">
        <ele>362.4</ele>
        <time>2022-05-01T06:40:06Z</time>
      </trkpt>
      <trkpt lat="49.02023" lon="7.83406">
        <ele>362.2</ele>
        <time>2022-05-01T06:40:07Z</time>
      </trkpt>
      <trkpt lat="49.02022" lon="7.83406">
        <ele>362.2</ele>
        <time>2022-05-01T06:40:08Z</time>
      </trkpt>
      <trkpt lat="49.02019" lon="7.83408">
        <ele>362.2</ele>
        <time>2022-05-01T06:40:09Z</time>
      </trkpt>
      <trkpt lat="49.02017" lon="7.8341">
        <ele>362</ele>
        <time>2022-05-01T06:40:10Z</time>
      </trkpt>
      <trkpt lat="49.02012" lon="7.83416">
        <ele>361.6</ele>
        <time>2022-05-01T06:40:12Z</time>
      </trkpt>
      <trkpt lat="49.02009" lon="7.83418">
        <ele>361.2</ele>
        <time>2022-05-01T06:40:13Z</time>
      </trkpt>
      <trkpt lat="49.02005" lon="7.8342">
        <ele>361.2</ele>
        <time>2022-05-01T06:40:14Z</time>
      </trkpt>
      <trkpt lat="49.02003" lon="7.83418">
        <ele>361</ele>
        <time>2022-05-01T06:40:15Z</time>
      </trkpt>
      <trkpt lat="49.02002" lon="7.83414">
        <ele>361</ele>
        <time>2022-05-01T06:40:16Z</time>
      </trkpt>
      <trkpt lat="49.02003" lon="7.83401">
        <ele>360.4</ele>
        <time>2022-05-01T06:40:19Z</time>
      </trkpt>
      <trkpt lat="49.02004" lon="7.83398">
        <ele>360.2</ele>
        <time>2022-05-01T06:40:20Z</time>
      </trkpt>
      <trkpt lat="49.02004" lon="7.83395">
        <ele>360.2</ele>
        <time>2022-05-01T06:40:21Z</time>
      </trkpt>
      <trkpt lat="49.02006" lon="7.83378">
        <ele>359.6</ele>
        <time>2022-05-01T06:40:24Z</time>
      </trkpt>
      <trkpt lat="49.02011" lon="7.83342">
        <ele>359.2</ele>
        <time>2022-05-01T06:40:29Z</time>
      </trkpt>
      <trkpt lat="49.02011" lon="7.83328">
        <ele>359.2</ele>
        <time>2022-05-01T06:40:31Z</time>
      </trkpt>
      <trkpt lat="49.02011" lon="7.8332">
        <ele>359</ele>
        <time>2022-05-01T06:40:32Z</time>
      </trkpt>
      <trkpt lat="49.02015" lon="7.83297">
        <ele>358.4</ele>
        <time>2022-05-01T06:40:35Z</time>
      </trkpt>
      <trkpt lat="49.02017" lon="7.83281">
        <ele>358</ele>
        <time>2022-05-01T06:40:37Z</time>
      </trkpt>
      <trkpt lat="49.02017" lon="7.83249">
        <ele>357.2</ele>
        <time>2022-05-01T06:40:41Z</time>
      </trkpt>
      <trkpt lat="49.02016" lon="7.83241">
        <ele>357</ele>
        <time>2022-05-01T06:40:42Z</time>
      </trkpt>
      <trkpt lat="49.02015" lon="7.83233">
        <ele>356.8</ele>
        <time>2022-05-01T06:40:43Z</time>
      </trkpt>
      <trkpt lat="49.02015" lon="7.83215">
        <ele>356.2</ele>
        <time>2022-05-01T06:40:45Z</time>
      </trkpt>
      <trkpt lat="49.02015" lon="7.83196">
        <ele>355.8</ele>
        <time>2022-05-01T06:40:47Z</time>
      </trkpt>
      <trkpt lat="49.0202" lon="7.83158">
        <ele>354.6</ele>
        <time>2022-05-01T06:40:51Z</time>
      </trkpt>
      <trkpt lat="49.02022" lon="7.83146">
        <ele>354.2</ele>
        <time>2022-05-01T06:40:52Z</time>
      </trkpt>
      <trkpt lat="49.02025" lon="7.83137">
        <ele>353.8</ele>
        <time>2022-05-01T06:40:53Z</time>
      </trkpt>
      <trkpt lat="49.02028" lon="7.83129">
        <ele>353.4</ele>
        <time>2022-05-01T06:40:54Z</time>
      </trkpt>
      <trkpt lat="49.02034" lon="7.83112">
        <ele>352.2</ele>
        <time>2022-05-01T06:40:56Z</time>
      </trkpt>
      <trkpt lat="49.02044" lon="7.83085">
        <ele>351</ele>
        <time>2022-05-01T06:40:59Z</time>
      </trkpt>
      <trkpt lat="49.02053" lon="7.83058">
        <ele>349.8</ele>
        <time>2022-05-01T06:41:02Z</time>
      </trkpt>
      <trkpt lat="49.02063" lon="7.83031">
        <ele>348.8</ele>
        <time>2022-05-01T06:41:05Z</time>
      </trkpt>
      <trkpt lat="49.02066" lon="7.83012">
        <ele>348</ele>
        <time>2022-05-01T06:41:07Z</time>
      </trkpt>
      <trkpt lat="49.02067" lon="7.83001">
        <ele>347.6</ele>
        <time>2022-05-01T06:41:08Z</time>
      </trkpt>
      <trkpt lat="49.02066" lon="7.8299">
        <ele>347.2</ele>
        <time>2022-05-01T06:41:09Z</time>
      </trkpt>
      <trkpt lat="49.02064" lon="7.82979">
        <ele>347</ele>
        <time>2022-05-01T06:41:10Z</time>
      </trkpt>
      <trkpt lat="49.02064" lon="7.82955">
        <ele>346.6</ele>
        <time>2022-05-01T06:41:12Z</time>
      </trkpt>
      <trkpt lat="49.02067" lon="7.82931">
        <ele>346.4</ele>
        <time>2022-05-01T06:41:14Z</time>
      </trkpt>
      <trkpt lat="49.0207" lon="7.82919">
        <ele>345.8</ele>
        <time>2022-05-01T06:41:15Z</time>
      </trkpt>
      <trkpt lat="49.02073" lon="7.82908">
        <ele>345.2</ele>
        <time>2022-05-01T06:41:16Z</time>
      </trkpt>
      <trkpt lat="49.02081" lon="7.82886">
        <ele>343.8</ele>
        <time>2022-05-01T06:41:18Z</time>
      </trkpt>
      <trkpt lat="49.02086" lon="7.82876">
        <ele>343.4</ele>
        <time>2022-05-01T06:41:19Z</time>
      </trkpt>
      <trkpt lat="49.02091" lon="7.82865">
        <ele>342.6</ele>
        <time>2022-05-01T06:41:20Z</time>
      </trkpt>
      <trkpt lat="49.02103" lon="7.82842">
        <ele>341</ele>
        <time>2022-05-01T06:41:22Z</time>
      </trkpt>
      <trkpt lat="49.02114" lon="7.82818">
        <ele>339.6</ele>
        <time>2022-05-01T06:41:24Z</time>
      </trkpt>
      <trkpt lat="49.02119" lon="7.82804">
        <ele>338.8</ele>
        <time>2022-05-01T06:41:25Z</time>
      </trkpt>
      <trkpt lat="49.02122" lon="7.82791">
        <ele>338</ele>
        <time>2022-05-01T06:41:26Z</time>
      </trkpt>
      <trkpt lat="49.02125" lon="7.82779">
        <ele>337.2</ele>
        <time>2022-05-01T06:41:27Z</time>
      </trkpt>
      <trkpt lat="49.02127" lon="7.82767">
        <ele>336.6</ele>
        <time>2022-05-01T06:41:28Z</time>
      </trkpt>
      <trkpt lat="49.0213" lon="7.82756">
        <ele>335.4</ele>
        <time>2022-05-01T06:41:29Z</time>
      </trkpt>
      <trkpt lat="49.02132" lon="7.82747">
        <ele>334.2</ele>
        <time>2022-05-01T06:41:30Z</time>
      </trkpt>
      <trkpt lat="49.02133" lon="7.82738">
        <ele>333.2</ele>
        <time>2022-05-01T06:41:31Z</time>
      </trkpt>
      <trkpt lat="49.02133" lon="7.82728">
        <ele>332.2</ele>
        <time>2022-05-01T06:41:32Z</time>
      </trkpt>
      <trkpt lat="49.02133" lon="7.82718">
        <ele>331.8</ele>
        <time>2022-05-01T06:41:33Z</time>
      </trkpt>
      <trkpt lat="49.02134" lon="7.82707">
        <ele>331.4</ele>
        <time>2022-05-01T06:41:34Z</time>
      </trkpt>
      <trkpt lat="49.02135" lon="7.82698">
        <ele>330.8</ele>
        <time>2022-05-01T06:41:35Z</time>
      </trkpt>
      <trkpt lat="49.02137" lon="7.82691">
        <ele>330</ele>
        <time>2022-05-01T06:41:36Z</time>
      </trkpt>
      <trkpt lat="49.02137" lon="7.82687">
        <ele>329.2</ele>
        <time>2022-05-01T06:41:37Z</time>
      </trkpt>
      <trkpt lat="49.02136" lon="7.82683">
        <ele>328</ele>
        <time>2022-05-01T06:41:38Z</time>
      </trkpt>
      <trkpt lat="49.02136" lon="7.82682">
        <ele>327.2</ele>
        <time>2022-05-01T06:41:39Z</time>
      </trkpt>
      <trkpt lat="49.02134" lon="7.82681">
        <ele>325.8</ele>
        <time>2022-05-01T06:41:40Z</time>
      </trkpt>
      <trkpt lat="49.02134" lon="7.82681">
        <ele>324.6</ele>
        <time>2022-05-01T06:41:41Z</time>
      </trkpt>
      <trkpt lat="49.02134" lon="7.82681">
        <ele>323.6</ele>
        <time>2022-05-01T06:41:42Z</time>
      </trkpt>
      <trkpt lat="49.02133" lon="7.82679">
        <ele>323</ele>
        <time>2022-05-01T06:41:43Z</time>
      </trkpt>
      <trkpt lat="49.02132" lon="7.82679">
        <ele>322.4</ele>
        <time>2022-05-01T06:41:44Z</time>
      </trkpt>
      <trkpt lat="49.0213" lon="7.82679">
        <ele>322.2</ele>
        <time>2022-05-01T06:41:45Z</time>
      </trkpt>
      <trkpt lat="49.02129" lon="7.8268">
        <ele>322</ele>
        <time>2022-05-01T06:41:46Z</time>
      </trkpt>
      <trkpt lat="49.02129" lon="7.8268">
        <ele>321.8</ele>
        <time>2022-05-01T06:41:48Z</time>
      </trkpt>
      <trkpt lat="49.02125" lon="7.82677">
        <ele>321.6</ele>
        <time>2022-05-01T06:41:51Z</time>
      </trkpt>
      <trkpt lat="49.02116" lon="7.82675">
        <ele>321.6</ele>
        <time>2022-05-01T06:41:54Z</time>
      </trkpt>
      <trkpt lat="49.02112" lon="7.82675">
        <ele>321.6</ele>
        <time>2022-05-01T06:41:55Z</time>
      </trkpt>
      <trkpt lat="49.02109" lon="7.82674">
        <ele>321.4</ele>
        <time>2022-05-01T06:41:56Z</time>
      </trkpt>
      <trkpt lat="49.02105" lon="7.82674">
        <ele>321.4</ele>
        <time>2022-05-01T06:41:57Z</time>
      </trkpt>
      <trkpt lat="49.02098" lon="7.82673">
        <ele>321</ele>
        <time>2022-05-01T06:41:59Z</time>
      </trkpt>
      <trkpt lat="49.02086" lon="7.82672">
        <ele>320.4</ele>
        <time>2022-05-01T06:42:03Z</time>
      </trkpt>
      <trkpt lat="49.02086" lon="7.82672">
        <ele>320.2</ele>
        <time>2022-05-01T06:42:04Z</time>
      </trkpt>
      <trkpt lat="49.02086" lon="7.8267">
        <ele>320</ele>
        <time>2022-05-01T06:42:05Z</time>
      </trkpt>
      <trkpt lat="49.02086" lon="7.82668">
        <ele>320</ele>
        <time>2022-05-01T06:42:06Z</time>
      </trkpt>
      <trkpt lat="49.02088" lon="7.82664">
        <ele>320</ele>
        <time>2022-05-01T06:42:07Z</time>
      </trkpt>
      <trkpt lat="49.02089" lon="7.82659">
        <ele>319.8</ele>
        <time>2022-05-01T06:42:08Z</time>
      </trkpt>
      <trkpt lat="49.02091" lon="7.82655">
        <ele>319.8</ele>
        <time>2022-05-01T06:42:09Z</time>
      </trkpt>
      <trkpt lat="49.02094" lon="7.8265">
        <ele>319.8</ele>
        <time>2022-05-01T06:42:10Z</time>
      </trkpt>
      <trkpt lat="49.02103" lon="7.82638">
        <ele>319.6</ele>
        <time>2022-05-01T06:42:12Z</time>
      </trkpt>
      <trkpt lat="49.02121" lon="7.82617">
        <ele>319</ele>
        <time>2022-05-01T06:42:15Z</time>
      </trkpt>
      <trkpt lat="49.02125" lon="7.82609">
        <ele>318.6</ele>
        <time>2022-05-01T06:42:16Z</time>
      </trkpt>
      <trkpt lat="49.0213" lon="7.82601">
        <ele>318</ele>
        <time>2022-05-01T06:42:17Z</time>
      </trkpt>
      <trkpt lat="49.02138" lon="7.82592">
        <ele>317.4</ele>
        <time>2022-05-01T06:42:18Z</time>
      </trkpt>
      <trkpt lat="49.02141" lon="7.82581">
        <ele>316.8</ele>
        <time>2022-05-01T06:42:19Z</time>
      </trkpt>
      <trkpt lat="49.02147" lon="7.82571">
        <ele>316</ele>
        <time>2022-05-01T06:42:20Z</time>
      </trkpt>
      <trkpt lat="49.02151" lon="7.8256">
        <ele>314.8</ele>
        <time>2022-05-01T06:42:21Z</time>
      </trkpt>
      <trkpt lat="49.02154" lon="7.8255">
        <ele>313.6</ele>
        <time>2022-05-01T06:42:22Z</time>
      </trkpt>
      <trkpt lat="49.02158" lon="7.82541">
        <ele>312.2</ele>
        <time>2022-05-01T06:42:23Z</time>
      </trkpt>
      <trkpt lat="49.02162" lon="7.82532">
        <ele>310.8</ele>
        <time>2022-05-01T06:42:24Z</time>
      </trkpt>
      <trkpt lat="49.02168" lon="7.82526">
        <ele>309.6</ele>
        <time>2022-05-01T06:42:25Z</time>
      </trkpt>
      <trkpt lat="49.02173" lon="7.82521">
        <ele>308.6</ele>
        <time>2022-05-01T06:42:26Z</time>
      </trkpt>
      <trkpt lat="49.02178" lon="7.82516">
        <ele>307.4</ele>
        <time>2022-05-01T06:42:27Z</time>
      </trkpt>
      <trkpt lat="49.02181" lon="7.82511">
        <ele>306</ele>
        <time>2022-05-01T06:42:28Z</time>
      </trkpt>
      <trkpt lat="49.02186" lon="7.82506">
        <ele>304.4</ele>
        <time>2022-05-01T06:42:29Z</time>
      </trkpt>
      <trkpt lat="49.0219" lon="7.82504">
        <ele>303.4</ele>
        <time>2022-05-01T06:42:30Z</time>
      </trkpt>
      <trkpt lat="49.02193" lon="7.82502">
        <ele>302.2</ele>
        <time>2022-05-01T06:42:31Z</time>
      </trkpt>
      <trkpt lat="49.02196" lon="7.82501">
        <ele>301.4</ele>
        <time>2022-05-01T06:42:32Z</time>
      </trkpt>
      <trkpt lat="49.02198" lon="7.825">
        <ele>300.4</ele>
        <time>2022-05-01T06:42:33Z</time>
      </trkpt>
      <trkpt lat="49.02199" lon="7.82497">
        <ele>299.2</ele>
        <time>2022-05-01T06:42:34Z</time>
      </trkpt>
      <trkpt lat="49.02199" lon="7.82495">
        <ele>297.8</ele>
        <time>2022-05-01T06:42:35Z</time>
      </trkpt>
      <trkpt lat="49.02199" lon="7.82495">
        <ele>296.8</ele>
        <time>2022-05-01T06:42:36Z</time>
      </trkpt>
      <trkpt lat="49.02198" lon="7.82494">
        <ele>295.8</ele>
        <time>2022-05-01T06:42:37Z</time>
      </trkpt>
      <trkpt lat="49.02197" lon="7.82494">
        <ele>294.6</ele>
        <time>2022-05-01T06:42:38Z</time>
      </trkpt>
      <trkpt lat="49.02196" lon="7.82493">
        <ele>293.8</ele>
        <time>2022-05-01T06:42:39Z</time>
      </trkpt>
      <trkpt lat="49.02195" lon="7.82493">
        <ele>293</ele>
        <time>2022-05-01T06:42:40Z</time>
      </trkpt>
      <trkpt lat="49.02194" lon="7.82493">
        <ele>292.6</ele>
        <time>2022-05-01T06:42:41Z</time>
      </trkpt>
      <trkpt lat="49.02191" lon="7.82491">
        <ele>292.2</ele>
        <time>2022-05-01T06:42:43Z</time>
      </trkpt>
      <trkpt lat="49.0219" lon="7.8249">
        <ele>292</ele>
        <time>2022-05-01T06:42:44Z</time>
      </trkpt>
      <trkpt lat="49.02189" lon="7.82488">
        <ele>292</ele>
        <time>2022-05-01T06:42:45Z</time>
      </trkpt>
      <trkpt lat="49.02188" lon="7.82488">
        <ele>292</ele>
        <time>2022-05-01T06:42:46Z</time>
      </trkpt>
      <trkpt lat="49.02187" lon="7.82487">
        <ele>292</ele>
        <time>2022-05-01T06:42:47Z</time>
      </trkpt>
      <trkpt lat="49.02184" lon="7.82487">
        <ele>292</ele>
        <time>2022-05-01T06:42:48Z</time>
      </trkpt>
      <trkpt lat="49.02181" lon="7.82487">
        <ele>292</ele>
        <time>2022-05-01T06:42:49Z</time>
      </trkpt>
      <trkpt lat="49.02178" lon="7.82487">
        <ele>292</ele>
        <time>2022-05-01T06:42:50Z</time>
      </trkpt>
      <trkpt lat="49.02175" lon="7.82487">
        <ele>291.8</ele>
        <time>2022-05-01T06:42:51Z</time>
      </trkpt>
      <trkpt lat="49.02173" lon="7.82487">
        <ele>291.8</ele>
        <time>2022-05-01T06:42:52Z</time>
      </trkpt>
      <trkpt lat="49.02159" lon="7.82486">
        <ele>291.8</ele>
        <time>2022-05-01T06:42:56Z</time>
      </trkpt>
      <trkpt lat="49.02155" lon="7.82487">
        <ele>291.8</ele>
        <time>2022-05-01T06:42:57Z</time>
      </trkpt>
      <trkpt lat="49.02151" lon="7.82489">
        <ele>291.8</ele>
        <time>2022-05-01T06:42:58Z</time>
      </trkpt>
      <trkpt lat="49.02144" lon="7.82493">
        <ele>291.8</ele>
        <time>2022-05-01T06:43:00Z</time>
      </trkpt>
      <trkpt lat="49.02134" lon="7.82497">
        <ele>291.2</ele>
        <time>2022-05-01T06:43:03Z</time>
      </trkpt>
      <trkpt lat="49.0213" lon="7.82498">
        <ele>291.2</ele>
        <time>2022-05-01T06:43:04Z</time>
      </trkpt>
      <trkpt lat="49.02127" lon="7.825">
        <ele>291</ele>
        <time>2022-05-01T06:43:05Z</time>
      </trkpt>
      <trkpt lat="49.02124" lon="7.82502">
        <ele>290.8</ele>
        <time>2022-05-01T06:43:06Z</time>
      </trkpt>
      <trkpt lat="49.02105" lon="7.82505">
        <ele>290.2</ele>
        <time>2022-05-01T06:43:11Z</time>
      </trkpt>
      <trkpt lat="49.02091" lon="7.82508">
        <ele>289.8</ele>
        <time>2022-05-01T06:43:14Z</time>
      </trkpt>
      <trkpt lat="49.02076" lon="7.82512">
        <ele>289.2</ele>
        <time>2022-05-01T06:43:17Z</time>
      </trkpt>
      <trkpt lat="49.02071" lon="7.82512">
        <ele>289</ele>
        <time>2022-05-01T06:43:18Z</time>
      </trkpt>
      <trkpt lat="49.02067" lon="7.82513">
        <ele>288.8</ele>
        <time>2022-05-01T06:43:19Z</time>
      </trkpt>
      <trkpt lat="49.02062" lon="7.82515">
        <ele>288.6</ele>
        <time>2022-05-01T06:43:20Z</time>
      </trkpt>
      <trkpt lat="49.02057" lon="7.82516">
        <ele>288.4</ele>
        <time>2022-05-01T06:43:21Z</time>
      </trkpt>
      <trkpt lat="49.02052" lon="7.82516">
        <ele>287.8</ele>
        <time>2022-05-01T06:43:22Z</time>
      </trkpt>
      <trkpt lat="49.02046" lon="7.82517">
        <ele>287.6</ele>
        <time>2022-05-01T06:43:23Z</time>
      </trkpt>
      <trkpt lat="49.02041" lon="7.82519">
        <ele>287.2</ele>
        <time>2022-05-01T06:43:24Z</time>
      </trkpt>
      <trkpt lat="49.02035" lon="7.8252">
        <ele>286.8</ele>
        <time>2022-05-01T06:43:25Z</time>
      </trkpt>
      <trkpt lat="49.02029" lon="7.8252">
        <ele>286.6</ele>
        <time>2022-05-01T06:43:26Z</time>
      </trkpt>
      <trkpt lat="49.02017" lon="7.82518">
        <ele>285.8</ele>
        <time>2022-05-01T06:43:28Z</time>
      </trkpt>
      <trkpt lat="49.02012" lon="7.82518">
        <ele>285.6</ele>
        <time>2022-05-01T06:43:29Z</time>
      </trkpt>
      <trkpt lat="49.02" lon="7.82517">
        <ele>285</ele>
        <time>2022-05-01T06:43:31Z</time>
      </trkpt>
      <trkpt lat="49.01994" lon="7.82516">
        <ele>284.6</ele>
        <time>2022-05-01T06:43:32Z</time>
      </trkpt>
      <trkpt lat="49.01976" lon="7.82517">
        <ele>283.2</ele>
        <time>2022-05-01T06:43:35Z</time>
      </trkpt>
      <trkpt lat="49.0197" lon="7.82517">
        <ele>283</ele>
        <time>2022-05-01T06:43:36Z</time>
      </trkpt>
      <trkpt lat="49.01965" lon="7.82517">
        <ele>282.6</ele>
        <time>2022-05-01T06:43:37Z</time>
      </trkpt>
      <trkpt lat="49.01955" lon="7.82509">
        <ele>281.8</ele>
        <time>2022-05-01T06:43:39Z</time>
      </trkpt>
      <trkpt lat="49.01952" lon="7.82503">
        <ele>281.6</ele>
        <time>2022-05-01T06:43:40Z</time>
      </trkpt>
      <trkpt lat="49.01948" lon="7.82495">
        <ele>281.4</ele>
        <time>2022-05-01T06:43:41Z</time>
      </trkpt>
      <trkpt lat="49.01944" lon="7.82488">
        <ele>281.4</ele>
        <time>2022-05-01T06:43:42Z</time>
      </trkpt>
      <trkpt lat="49.0194" lon="7.82482">
        <ele>281.2</ele>
        <time>2022-05-01T06:43:43Z</time>
      </trkpt>
      <trkpt lat="49.01935" lon="7.82477">
        <ele>281</ele>
        <time>2022-05-01T06:43:44Z</time>
      </trkpt>
      <trkpt lat="49.0193" lon="7.82471">
        <ele>280.8</ele>
        <time>2022-05-01T06:43:45Z</time>
      </trkpt>
      <trkpt lat="49.01918" lon="7.82461">
        <ele>279.8</ele>
        <time>2022-05-01T06:43:47Z</time>
      </trkpt>
      <trkpt lat="49.01912" lon="7.82456">
        <ele>279.2</ele>
        <time>2022-05-01T06:43:48Z</time>
      </trkpt>
      <trkpt lat="49.01905" lon="7.82451">
        <ele>278.8</ele>
        <time>2022-05-01T06:43:49Z</time>
      </trkpt>
      <trkpt lat="49.01899" lon="7.82446">
        <ele>278.4</ele>
        <time>2022-05-01T06:43:50Z</time>
      </trkpt>
      <trkpt lat="49.01888" lon="7.82438">
        <ele>277.6</ele>
        <time>2022-05-01T06:43:52Z</time>
      </trkpt>
      <trkpt lat="49.01883" lon="7.82434">
        <ele>277</ele>
        <time>2022-05-01T06:43:53Z</time>
      </trkpt>
      <trkpt lat="49.01879" lon="7.8243">
        <ele>276.6</ele>
        <time>2022-05-01T06:43:54Z</time>
      </trkpt>
      <trkpt lat="49.01875" lon="7.82427">
        <ele>276.2</ele>
        <time>2022-05-01T06:43:55Z</time>
      </trkpt>
      <trkpt lat="49.01871" lon="7.82421">
        <ele>275.6</ele>
        <time>2022-05-01T06:43:56Z</time>
      </trkpt>
      <trkpt lat="49.01867" lon="7.82414">
        <ele>275.4</ele>
        <time>2022-05-01T06:43:57Z</time>
      </trkpt>
      <trkpt lat="49.01864" lon="7.82408">
        <ele>275.2</ele>
        <time>2022-05-01T06:43:58Z</time>
      </trkpt>
      <trkpt lat="49.0186" lon="7.82402">
        <ele>275</ele>
        <time>2022-05-01T06:43:59Z</time>
      </trkpt>
      <trkpt lat="49.01856" lon="7.82399">
        <ele>274.8</ele>
        <time>2022-05-01T06:44:00Z</time>
      </trkpt>
      <trkpt lat="49.01846" lon="7.82391">
        <ele>274.6</ele>
        <time>2022-05-01T06:44:02Z</time>
      </trkpt>
      <trkpt lat="49.01832" lon="7.82374">
        <ele>274.2</ele>
        <time>2022-05-01T06:44:05Z</time>
      </trkpt>
      <trkpt lat="49.0183" lon="7.82369">
        <ele>274.2</ele>
        <time>2022-05-01T06:44:06Z</time>
      </trkpt>
      <trkpt lat="49.01828" lon="7.82366">
        <ele>274</ele>
        <time>2022-05-01T06:44:07Z</time>
      </trkpt>
      <trkpt lat="49.01826" lon="7.82365">
        <ele>273.8</ele>
        <time>2022-05-01T06:44:08Z</time>
      </trkpt>
      <trkpt lat="49.01825" lon="7.82362">
        <ele>273.6</ele>
        <time>2022-05-01T06:44:09Z</time>
      </trkpt>
      <trkpt lat="49.01822" lon="7.82359">
        <ele>273.4</ele>
        <time>2022-05-01T06:44:10Z</time>
      </trkpt>
      <trkpt lat="49.01814" lon="7.82345">
        <ele>273</ele>
        <time>2022-05-01T06:44:13Z</time>
      </trkpt>
      <trkpt lat="49.01809" lon="7.82331">
        <ele>272.8</ele>
        <time>2022-05-01T06:44:15Z</time>
      </trkpt>
      <trkpt lat="49.01805" lon="7.82324">
        <ele>272.8</ele>
        <time>2022-05-01T06:44:16Z</time>
      </trkpt>
      <trkpt lat="49.01802" lon="7.82319">
        <ele>272.6</ele>
        <time>2022-05-01T06:44:17Z</time>
      </trkpt>
      <trkpt lat="49.01796" lon="7.82311">
        <ele>272.2</ele>
        <time>2022-05-01T06:44:19Z</time>
      </trkpt>
      <trkpt lat="49.01792" lon="7.82303">
        <ele>272</ele>
        <time>2022-05-01T06:44:20Z</time>
      </trkpt>
      <trkpt lat="49.01788" lon="7.82296">
        <ele>271.8</ele>
        <time>2022-05-01T06:44:21Z</time>
      </trkpt>
      <trkpt lat="49.01786" lon="7.82292">
        <ele>271.6</ele>
        <time>2022-05-01T06:44:22Z</time>
      </trkpt>
      <trkpt lat="49.01781" lon="7.82284">
        <ele>271</ele>
        <time>2022-05-01T06:44:24Z</time>
      </trkpt>
      <trkpt lat="49.01775" lon="7.82274">
        <ele>270.8</ele>
        <time>2022-05-01T06:44:26Z</time>
      </trkpt>
      <trkpt lat="49.01769" lon="7.82265">
        <ele>270.4</ele>
        <time>2022-05-01T06:44:28Z</time>
      </trkpt>
      <trkpt lat="49.01762" lon="7.82258">
        <ele>269.8</ele>
        <time>2022-05-01T06:44:30Z</time>
      </trkpt>
      <trkpt lat="49.01759" lon="7.82254">
        <ele>269.6</ele>
        <time>2022-05-01T06:44:31Z</time>
      </trkpt>
      <trkpt lat="49.01756" lon="7.82251">
        <ele>269.6</ele>
        <time>2022-05-01T06:44:32Z</time>
      </trkpt>
      <trkpt lat="49.01753" lon="7.82249">
        <ele>269.4</ele>
        <time>2022-05-01T06:44:33Z</time>
      </trkpt>
      <trkpt lat="49.01751" lon="7.82246">
        <ele>269.4</ele>
        <time>2022-05-01T06:44:34Z</time>
      </trkpt>
      <trkpt lat="49.01749" lon="7.82243">
        <ele>269.4</ele>
        <time>2022-05-01T06:44:35Z</time>
      </trkpt>
      <trkpt lat="49.01747" lon="7.8224">
        <ele>269.4</ele>
        <time>2022-05-01T06:44:36Z</time>
      </trkpt>
      <trkpt lat="49.01746" lon="7.82237">
        <ele>269.4</ele>
        <time>2022-05-01T06:44:37Z</time>
      </trkpt>
      <trkpt lat="49.01745" lon="7.82233">
        <ele>269.4</ele>
        <time>2022-05-01T06:44:38Z</time>
      </trkpt>
      <trkpt lat="49.01743" lon="7.82227">
        <ele>269.4</ele>
        <time>2022-05-01T06:44:39Z</time>
      </trkpt>
      <trkpt lat="49.0174" lon="7.82222">
        <ele>269.2</ele>
        <time>2022-05-01T06:44:40Z</time>
      </trkpt>
      <trkpt lat="49.01737" lon="7.82217">
        <ele>269.2</ele>
        <time>2022-05-01T06:44:41Z</time>
      </trkpt>
      <trkpt lat="49.01735" lon="7.82211">
        <ele>269.2</ele>
        <time>2022-05-01T06:44:42Z</time>
      </trkpt>
      <trkpt lat="49.0173" lon="7.82197">
        <ele>269</ele>
        <time>2022-05-01T06:44:45Z</time>
      </trkpt>
      <trkpt lat="49.01729" lon="7.82186">
        <ele>268.6</ele>
        <time>2022-05-01T06:44:47Z</time>
      </trkpt>
      <trkpt lat="49.01727" lon="7.82172">
        <ele>267.8</ele>
        <time>2022-05-01T06:44:49Z</time>
      </trkpt>
      <trkpt lat="49.01726" lon="7.82165">
        <ele>267.4</ele>
        <time>2022-05-01T06:44:50Z</time>
      </trkpt>
      <trkpt lat="49.01724" lon="7.82158">
        <ele>267.2</ele>
        <time>2022-05-01T06:44:51Z</time>
      </trkpt>
      <trkpt lat="49.01723" lon="7.82152">
        <ele>267</ele>
        <time>2022-05-01T06:44:52Z</time>
      </trkpt>
      <trkpt lat="49.01722" lon="7.82146">
        <ele>266.8</ele>
        <time>2022-05-01T06:44:53Z</time>
      </trkpt>
      <trkpt lat="49.01721" lon="7.82139">
        <ele>266.4</ele>
        <time>2022-05-01T06:44:54Z</time>
      </trkpt>
      <trkpt lat="49.01721" lon="7.8213">
        <ele>266.2</ele>
        <time>2022-05-01T06:44:55Z</time>
      </trkpt>
      <trkpt lat="49.0172" lon="7.82119">
        <ele>266</ele>
        <time>2022-05-01T06:44:56Z</time>
      </trkpt>
      <trkpt lat="49.01717" lon="7.82089">
        <ele>265.4</ele>
        <time>2022-05-01T06:44:59Z</time>
      </trkpt>
      <trkpt lat="49.01717" lon="7.82082">
        <ele>265.2</ele>
        <time>2022-05-01T06:45:00Z</time>
      </trkpt>
      <trkpt lat="49.01717" lon="7.82074">
        <ele>265</ele>
        <time>2022-05-01T06:45:01Z</time>
      </trkpt>
      <trkpt lat="49.0171" lon="7.82046">
        <ele>264.4</ele>
        <time>2022-05-01T06:45:04Z</time>
      </trkpt>
      <trkpt lat="49.01708" lon="7.82037">
        <ele>264.2</ele>
        <time>2022-05-01T06:45:05Z</time>
      </trkpt>
      <trkpt lat="49.01705" lon="7.82028">
        <ele>264</ele>
        <time>2022-05-01T06:45:06Z</time>
      </trkpt>
      <trkpt lat="49.01699" lon="7.8201">
        <ele>263.6</ele>
        <time>2022-05-01T06:45:08Z</time>
      </trkpt>
      <trkpt lat="49.01698" lon="7.82">
        <ele>263.4</ele>
        <time>2022-05-01T06:45:09Z</time>
      </trkpt>
      <trkpt lat="49.01696" lon="7.81989">
        <ele>262.8</ele>
        <time>2022-05-01T06:45:10Z</time>
      </trkpt>
      <trkpt lat="49.01684" lon="7.81961">
        <ele>262.2</ele>
        <time>2022-05-01T06:45:13Z</time>
      </trkpt>
      <trkpt lat="49.0168" lon="7.81951">
        <ele>262</ele>
        <time>2022-05-01T06:45:14Z</time>
      </trkpt>
      <trkpt lat="49.01676" lon="7.81946">
        <ele>261.8</ele>
        <time>2022-05-01T06:45:15Z</time>
      </trkpt>
      <trkpt lat="49.01668" lon="7.81931">
        <ele>260.8</ele>
        <time>2022-05-01T06:45:17Z</time>
      </trkpt>
      <trkpt lat="49.01664" lon="7.81924">
        <ele>260.2</ele>
        <time>2022-05-01T06:45:18Z</time>
      </trkpt>
      <trkpt lat="49.01661" lon="7.81919">
        <ele>260.2</ele>
        <time>2022-05-01T06:45:19Z</time>
      </trkpt>
      <trkpt lat="49.01657" lon="7.81912">
        <ele>260</ele>
        <time>2022-05-01T06:45:20Z</time>
      </trkpt>
      <trkpt lat="49.01652" lon="7.81904">
        <ele>259.8</ele>
        <time>2022-05-01T06:45:21Z</time>
      </trkpt>
      <trkpt lat="49.01647" lon="7.81896">
        <ele>259.6</ele>
        <time>2022-05-01T06:45:22Z</time>
      </trkpt>
      <trkpt lat="49.01643" lon="7.81891">
        <ele>259.4</ele>
        <time>2022-05-01T06:45:23Z</time>
      </trkpt>
      <trkpt lat="49.0164" lon="7.81885">
        <ele>259.2</ele>
        <time>2022-05-01T06:45:24Z</time>
      </trkpt>
      <trkpt lat="49.01635" lon="7.81877">
        <ele>259</ele>
        <time>2022-05-01T06:45:26Z</time>
      </trkpt>
      <trkpt lat="49.01633" lon="7.8187">
        <ele>259</ele>
        <time>2022-05-01T06:45:27Z</time>
      </trkpt>
      <trkpt lat="49.01631" lon="7.81864">
        <ele>258.8</ele>
        <time>2022-05-01T06:45:28Z</time>
      </trkpt>
      <trkpt lat="49.01625" lon="7.81848">
        <ele>258.4</ele>
        <time>2022-05-01T06:45:30Z</time>
      </trkpt>
      <trkpt lat="49.01622" lon="7.81839">
        <ele>258.4</ele>
        <time>2022-05-01T06:45:31Z</time>
      </trkpt>
      <trkpt lat="49.01618" lon="7.81816">
        <ele>257.6</ele>
        <time>2022-05-01T06:45:33Z</time>
      </trkpt>
      <trkpt lat="49.01613" lon="7.81799">
        <ele>257.4</ele>
        <time>2022-05-01T06:45:35Z</time>
      </trkpt>
      <trkpt lat="49.01611" lon="7.81793">
        <ele>257</ele>
        <time>2022-05-01T06:45:36Z</time>
      </trkpt>
      <trkpt lat="49.01609" lon="7.81785">
        <ele>256.8</ele>
        <time>2022-05-01T06:45:37Z</time>
      </trkpt>
      <trkpt lat="49.01601" lon="7.81763">
        <ele>255.8</ele>
        <time>2022-05-01T06:45:40Z</time>
      </trkpt>
      <trkpt lat="49.01597" lon="7.81759">
        <ele>255.6</ele>
        <time>2022-05-01T06:45:41Z</time>
      </trkpt>
      <trkpt lat="49.01593" lon="7.81753">
        <ele>255.4</ele>
        <time>2022-05-01T06:45:42Z</time>
      </trkpt>
      <trkpt lat="49.01586" lon="7.81741">
        <ele>255.2</ele>
        <time>2022-05-01T06:45:44Z</time>
      </trkpt>
      <trkpt lat="49.01583" lon="7.81738">
        <ele>254.8</ele>
        <time>2022-05-01T06:45:45Z</time>
      </trkpt>
      <trkpt lat="49.0158" lon="7.81734">
        <ele>254.8</ele>
        <time>2022-05-01T06:45:46Z</time>
      </trkpt>
      <trkpt lat="49.01577" lon="7.81728">
        <ele>254.4</ele>
        <time>2022-05-01T06:45:47Z</time>
      </trkpt>
      <trkpt lat="49.01574" lon="7.81718">
        <ele>254.2</ele>
        <time>2022-05-01T06:45:48Z</time>
      </trkpt>
      <trkpt lat="49.01568" lon="7.81708">
        <ele>253.8</ele>
        <time>2022-05-01T06:45:50Z</time>
      </trkpt>
      <trkpt lat="49.01565" lon="7.81704">
        <ele>253.6</ele>
        <time>2022-05-01T06:45:51Z</time>
      </trkpt>
      <trkpt lat="49.01559" lon="7.81696">
        <ele>253.2</ele>
        <time>2022-05-01T06:45:53Z</time>
      </trkpt>
      <trkpt lat="49.01555" lon="7.8169">
        <ele>253</ele>
        <time>2022-05-01T06:45:54Z</time>
      </trkpt>
      <trkpt lat="49.01547" lon="7.81678">
        <ele>252.6</ele>
        <time>2022-05-01T06:45:56Z</time>
      </trkpt>
      <trkpt lat="49.01542" lon="7.81673">
        <ele>252.4</ele>
        <time>2022-05-01T06:45:57Z</time>
      </trkpt>
      <trkpt lat="49.01539" lon="7.81664">
        <ele>252.2</ele>
        <time>2022-05-01T06:45:58Z</time>
      </trkpt>
      <trkpt lat="49.01535" lon="7.81656">
        <ele>251.8</ele>
        <time>2022-05-01T06:45:59Z</time>
      </trkpt>
      <trkpt lat="49.01531" lon="7.81646">
        <ele>251.6</ele>
        <time>2022-05-01T06:46:00Z</time>
      </trkpt>
      <trkpt lat="49.01527" lon="7.81644">
        <ele>251.2</ele>
        <time>2022-05-01T06:46:01Z</time>
      </trkpt>
      <trkpt lat="49.01525" lon="7.81644">
        <ele>251.2</ele>
        <time>2022-05-01T06:46:02Z</time>
      </trkpt>
      <trkpt lat="49.01524" lon="7.81643">
        <ele>251</ele>
        <time>2022-05-01T06:46:03Z</time>
      </trkpt>
      <trkpt lat="49.01523" lon="7.81643">
        <ele>250.6</ele>
        <time>2022-05-01T06:46:04Z</time>
      </trkpt>
      <trkpt lat="49.01523" lon="7.81642">
        <ele>250.4</ele>
        <time>2022-05-01T06:46:05Z</time>
      </trkpt>
      <trkpt lat="49.01523" lon="7.81639">
        <ele>250.4</ele>
        <time>2022-05-01T06:46:06Z</time>
      </trkpt>
      <trkpt lat="49.01523" lon="7.81637">
        <ele>250.2</ele>
        <time>2022-05-01T06:46:07Z</time>
      </trkpt>
      <trkpt lat="49.01522" lon="7.81634">
        <ele>250.2</ele>
        <time>2022-05-01T06:46:08Z</time>
      </trkpt>
      <trkpt lat="49.01519" lon="7.81631">
        <ele>250.2</ele>
        <time>2022-05-01T06:46:09Z</time>
      </trkpt>
      <trkpt lat="49.01518" lon="7.81621">
        <ele>250.2</ele>
        <time>2022-05-01T06:46:10Z</time>
      </trkpt>
      <trkpt lat="49.01515" lon="7.81614">
        <ele>250</ele>
        <time>2022-05-01T06:46:11Z</time>
      </trkpt>
      <trkpt lat="49.01512" lon="7.81608">
        <ele>249.8</ele>
        <time>2022-05-01T06:46:12Z</time>
      </trkpt>
      <trkpt lat="49.01506" lon="7.81596">
        <ele>249.6</ele>
        <time>2022-05-01T06:46:14Z</time>
      </trkpt>
      <trkpt lat="49.01503" lon="7.81589">
        <ele>249.6</ele>
        <time>2022-05-01T06:46:15Z</time>
      </trkpt>
      <trkpt lat="49.01498" lon="7.81569">
        <ele>248.8</ele>
        <time>2022-05-01T06:46:17Z</time>
      </trkpt>
      <trkpt lat="49.01497" lon="7.81561">
        <ele>248.8</ele>
        <time>2022-05-01T06:46:18Z</time>
      </trkpt>
      <trkpt lat="49.01497" lon="7.81556">
        <ele>248.4</ele>
        <time>2022-05-01T06:46:19Z</time>
      </trkpt>
      <trkpt lat="49.01496" lon="7.8155">
        <ele>248.2</ele>
        <time>2022-05-01T06:46:20Z</time>
      </trkpt>
      <trkpt lat="49.01494" lon="7.81537">
        <ele>247.8</ele>
        <time>2022-05-01T06:46:22Z</time>
      </trkpt>
      <trkpt lat="49.01493" lon="7.81532">
        <ele>247.6</ele>
        <time>2022-05-01T06:46:23Z</time>
      </trkpt>
      <trkpt lat="49.01492" lon="7.81521">
        <ele>247.4</ele>
        <time>2022-05-01T06:46:25Z</time>
      </trkpt>
      <trkpt lat="49.0149" lon="7.81517">
        <ele>247</ele>
        <time>2022-05-01T06:46:26Z</time>
      </trkpt>
      <trkpt lat="49.01481" lon="7.81489">
        <ele>247</ele>
        <time>2022-05-01T06:46:30Z</time>
      </trkpt>
      <trkpt lat="49.01479" lon="7.81482">
        <ele>247</ele>
        <time>2022-05-01T06:46:31Z</time>
      </trkpt>
      <trkpt lat="49.01477" lon="7.81476">
        <ele>246.8</ele>
        <time>2022-05-01T06:46:32Z</time>
      </trkpt>
      <trkpt lat="49.01476" lon="7.81469">
        <ele>246.4</ele>
        <time>2022-05-01T06:46:33Z</time>
      </trkpt>
      <trkpt lat="49.01475" lon="7.81463">
        <ele>246.2</ele>
        <time>2022-05-01T06:46:34Z</time>
      </trkpt>
      <trkpt lat="49.01471" lon="7.81445">
        <ele>245.6</ele>
        <time>2022-05-01T06:46:37Z</time>
      </trkpt>
      <trkpt lat="49.0147" lon="7.8144">
        <ele>245.4</ele>
        <time>2022-05-01T06:46:38Z</time>
      </trkpt>
      <trkpt lat="49.01467" lon="7.81428">
        <ele>245.4</ele>
        <time>2022-05-01T06:46:40Z</time>
      </trkpt>
      <trkpt lat="49.01464" lon="7.81422">
        <ele>245.2</ele>
        <time>2022-05-01T06:46:41Z</time>
      </trkpt>
      <trkpt lat="49.01457" lon="7.81407">
        <ele>244.8</ele>
        <time>2022-05-01T06:46:43Z</time>
      </trkpt>
      <trkpt lat="49.01452" lon="7.81393">
        <ele>244.6</ele>
        <time>2022-05-01T06:46:45Z</time>
      </trkpt>
      <trkpt lat="49.01449" lon="7.81388">
        <ele>244.4</ele>
        <time>2022-05-01T06:46:46Z</time>
      </trkpt>
      <trkpt lat="49.01447" lon="7.8138">
        <ele>244.2</ele>
        <time>2022-05-01T06:46:47Z</time>
      </trkpt>
      <trkpt lat="49.01445" lon="7.81374">
        <ele>244</ele>
        <time>2022-05-01T06:46:48Z</time>
      </trkpt>
      <trkpt lat="49.01444" lon="7.81368">
        <ele>243.8</ele>
        <time>2022-05-01T06:46:49Z</time>
      </trkpt>
      <trkpt lat="49.01442" lon="7.81362">
        <ele>243.6</ele>
        <time>2022-05-01T06:46:50Z</time>
      </trkpt>
      <trkpt lat="49.01441" lon="7.81356">
        <ele>243.4</ele>
        <time>2022-05-01T06:46:51Z</time>
      </trkpt>
      <trkpt lat="49.01439" lon="7.81348">
        <ele>243.4</ele>
        <time>2022-05-01T06:46:52Z</time>
      </trkpt>
      <trkpt lat="49.01436" lon="7.81341">
        <ele>243.2</ele>
        <time>2022-05-01T06:46:53Z</time>
      </trkpt>
      <trkpt lat="49.01433" lon="7.81334">
        <ele>243</ele>
        <time>2022-05-01T06:46:54Z</time>
      </trkpt>
      <trkpt lat="49.01426" lon="7.81314">
        <ele>242.6</ele>
        <time>2022-05-01T06:46:57Z</time>
      </trkpt>
      <trkpt lat="49.01423" lon="7.81307">
        <ele>242.4</ele>
        <time>2022-05-01T06:46:58Z</time>
      </trkpt>
      <trkpt lat="49.01415" lon="7.81284">
        <ele>242.2</ele>
        <time>2022-05-01T06:47:01Z</time>
      </trkpt>
      <trkpt lat="49.01406" lon="7.8125">
        <ele>241.6</ele>
        <time>2022-05-01T06:47:05Z</time>
      </trkpt>
      <trkpt lat="49.01406" lon="7.81244">
        <ele>241.4</ele>
        <time>2022-05-01T06:47:06Z</time>
      </trkpt>
      <trkpt lat="49.01404" lon="7.81237">
        <ele>241.2</ele>
        <time>2022-05-01T06:47:07Z</time>
      </trkpt>
      <trkpt lat="49.01399" lon="7.8122">
        <ele>241</ele>
        <time>2022-05-01T06:47:09Z</time>
      </trkpt>
      <trkpt lat="49.01397" lon="7.81214">
        <ele>241</ele>
        <time>2022-05-01T06:47:10Z</time>
      </trkpt>
      <trkpt lat="49.01396" lon="7.81205">
        <ele>240.8</ele>
        <time>2022-05-01T06:47:11Z</time>
      </trkpt>
      <trkpt lat="49.01397" lon="7.8119">
        <ele>240.4</ele>
        <time>2022-05-01T06:47:13Z</time>
      </trkpt>
      <trkpt lat="49.01396" lon="7.81183">
        <ele>240.2</ele>
        <time>2022-05-01T06:47:14Z</time>
      </trkpt>
      <trkpt lat="49.01397" lon="7.81176">
        <ele>240</ele>
        <time>2022-05-01T06:47:15Z</time>
      </trkpt>
      <trkpt lat="49.01398" lon="7.81169">
        <ele>239.8</ele>
        <time>2022-05-01T06:47:16Z</time>
      </trkpt>
      <trkpt lat="49.01397" lon="7.81162">
        <ele>239.8</ele>
        <time>2022-05-01T06:47:17Z</time>
      </trkpt>
      <trkpt lat="49.01396" lon="7.81155">
        <ele>239.6</ele>
        <time>2022-05-01T06:47:18Z</time>
      </trkpt>
      <trkpt lat="49.01395" lon="7.81147">
        <ele>239.6</ele>
        <time>2022-05-01T06:47:19Z</time>
      </trkpt>
      <trkpt lat="49.01395" lon="7.8114">
        <ele>239.6</ele>
        <time>2022-05-01T06:47:20Z</time>
      </trkpt>
      <trkpt lat="49.01389" lon="7.81123">
        <ele>239.4</ele>
        <time>2022-05-01T06:47:22Z</time>
      </trkpt>
      <trkpt lat="49.01387" lon="7.81114">
        <ele>239</ele>
        <time>2022-05-01T06:47:23Z</time>
      </trkpt>
      <trkpt lat="49.01386" lon="7.811">
        <ele>238.8</ele>
        <time>2022-05-01T06:47:25Z</time>
      </trkpt>
      <trkpt lat="49.01385" lon="7.81092">
        <ele>238.6</ele>
        <time>2022-05-01T06:47:26Z</time>
      </trkpt>
      <trkpt lat="49.01384" lon="7.81084">
        <ele>238.6</ele>
        <time>2022-05-01T06:47:27Z</time>
      </trkpt>
      <trkpt lat="49.01382" lon="7.81076">
        <ele>238.4</ele>
        <time>2022-05-01T06:47:28Z</time>
      </trkpt>
      <trkpt lat="49.01377" lon="7.81048">
        <ele>238</ele>
        <time>2022-05-01T06:47:31Z</time>
      </trkpt>
      <trkpt lat="49.01377" lon="7.81042">
        <ele>237.8</ele>
        <time>2022-05-01T06:47:32Z</time>
      </trkpt>
      <trkpt lat="49.01377" lon="7.81037">
        <ele>237.6</ele>
        <time>2022-05-01T06:47:33Z</time>
      </trkpt>
      <trkpt lat="49.01374" lon="7.81028">
        <ele>237.4</ele>
        <time>2022-05-01T06:47:34Z</time>
      </trkpt>
      <trkpt lat="49.01369" lon="7.81018">
        <ele>237.2</ele>
        <time>2022-05-01T06:47:35Z</time>
      </trkpt>
      <trkpt lat="49.01364" lon="7.81008">
        <ele>237.2</ele>
        <time>2022-05-01T06:47:36Z</time>
      </trkpt>
      <trkpt lat="49.0136" lon="7.81001">
        <ele>237</ele>
        <time>2022-05-01T06:47:37Z</time>
      </trkpt>
      <trkpt lat="49.0136" lon="7.80994">
        <ele>237</ele>
        <time>2022-05-01T06:47:38Z</time>
      </trkpt>
      <trkpt lat="49.01354" lon="7.80984">
        <ele>236.8</ele>
        <time>2022-05-01T06:47:40Z</time>
      </trkpt>
      <trkpt lat="49.0135" lon="7.80979">
        <ele>236.6</ele>
        <time>2022-05-01T06:47:41Z</time>
      </trkpt>
      <trkpt lat="49.01347" lon="7.80975">
        <ele>236.4</ele>
        <time>2022-05-01T06:47:42Z</time>
      </trkpt>
      <trkpt lat="49.01337" lon="7.80957">
        <ele>235.8</ele>
        <time>2022-05-01T06:47:45Z</time>
      </trkpt>
      <trkpt lat="49.01332" lon="7.80951">
        <ele>235.8</ele>
        <time>2022-05-01T06:47:46Z</time>
      </trkpt>
      <trkpt lat="49.01321" lon="7.80941">
        <ele>235.2</ele>
        <time>2022-05-01T06:47:48Z</time>
      </trkpt>
      <trkpt lat="49.01317" lon="7.80936">
        <ele>235.2</ele>
        <time>2022-05-01T06:47:49Z</time>
      </trkpt>
      <trkpt lat="49.01314" lon="7.80932">
        <ele>235</ele>
        <time>2022-05-01T06:47:50Z</time>
      </trkpt>
      <trkpt lat="49.01312" lon="7.8093">
        <ele>234.8</ele>
        <time>2022-05-01T06:47:51Z</time>
      </trkpt>
      <trkpt lat="49.01309" lon="7.80928">
        <ele>234.6</ele>
        <time>2022-05-01T06:47:52Z</time>
      </trkpt>
      <trkpt lat="49.01304" lon="7.80925">
        <ele>234.6</ele>
        <time>2022-05-01T06:47:53Z</time>
      </trkpt>
      <trkpt lat="49.01296" lon="7.80918">
        <ele>234.4</ele>
        <time>2022-05-01T06:47:55Z</time>
      </trkpt>
      <trkpt lat="49.01292" lon="7.80914">
        <ele>234.4</ele>
        <time>2022-05-01T06:47:56Z</time>
      </trkpt>
      <trkpt lat="49.01289" lon="7.80912">
        <ele>234.2</ele>
        <time>2022-05-01T06:47:57Z</time>
      </trkpt>
      <trkpt lat="49.01286" lon="7.80909">
        <ele>234.2</ele>
        <time>2022-05-01T06:47:58Z</time>
      </trkpt>
      <trkpt lat="49.01283" lon="7.80907">
        <ele>234</ele>
        <time>2022-05-01T06:47:59Z</time>
      </trkpt>
      <trkpt lat="49.01279" lon="7.80904">
        <ele>234</ele>
        <time>2022-05-01T06:48:00Z</time>
      </trkpt>
      <trkpt lat="49.01275" lon="7.80901">
        <ele>233.8</ele>
        <time>2022-05-01T06:48:01Z</time>
      </trkpt>
      <trkpt lat="49.01257" lon="7.80886">
        <ele>233.4</ele>
        <time>2022-05-01T06:48:04Z</time>
      </trkpt>
      <trkpt lat="49.01252" lon="7.80884">
        <ele>233.2</ele>
        <time>2022-05-01T06:48:05Z</time>
      </trkpt>
      <trkpt lat="49.0124" lon="7.80879">
        <ele>233</ele>
        <time>2022-05-01T06:48:07Z</time>
      </trkpt>
      <trkpt lat="49.01234" lon="7.80874">
        <ele>232.8</ele>
        <time>2022-05-01T06:48:08Z</time>
      </trkpt>
      <trkpt lat="49.01229" lon="7.8087">
        <ele>232.6</ele>
        <time>2022-05-01T06:48:09Z</time>
      </trkpt>
      <trkpt lat="49.01219" lon="7.80864">
        <ele>232</ele>
        <time>2022-05-01T06:48:11Z</time>
      </trkpt>
      <trkpt lat="49.01214" lon="7.80861">
        <ele>231.8</ele>
        <time>2022-05-01T06:48:12Z</time>
      </trkpt>
      <trkpt lat="49.01209" lon="7.80856">
        <ele>231.6</ele>
        <time>2022-05-01T06:48:13Z</time>
      </trkpt>
      <trkpt lat="49.01193" lon="7.80843">
        <ele>231.2</ele>
        <time>2022-05-01T06:48:16Z</time>
      </trkpt>
      <trkpt lat="49.01188" lon="7.8084">
        <ele>231</ele>
        <time>2022-05-01T06:48:17Z</time>
      </trkpt>
      <trkpt lat="49.01184" lon="7.80835">
        <ele>231</ele>
        <time>2022-05-01T06:48:18Z</time>
      </trkpt>
      <trkpt lat="49.01175" lon="7.80824">
        <ele>230.4</ele>
        <time>2022-05-01T06:48:20Z</time>
      </trkpt>
      <trkpt lat="49.01171" lon="7.80818">
        <ele>230.4</ele>
        <time>2022-05-01T06:48:21Z</time>
      </trkpt>
      <trkpt lat="49.01159" lon="7.80799">
        <ele>229.8</ele>
        <time>2022-05-01T06:48:24Z</time>
      </trkpt>
      <trkpt lat="49.01152" lon="7.80786">
        <ele>229.6</ele>
        <time>2022-05-01T06:48:26Z</time>
      </trkpt>
      <trkpt lat="49.01143" lon="7.80777">
        <ele>229.2</ele>
        <time>2022-05-01T06:48:28Z</time>
      </trkpt>
      <trkpt lat="49.01139" lon="7.80772">
        <ele>229.2</ele>
        <time>2022-05-01T06:48:29Z</time>
      </trkpt>
      <trkpt lat="49.01135" lon="7.80766">
        <ele>229</ele>
        <time>2022-05-01T06:48:30Z</time>
      </trkpt>
      <trkpt lat="49.01129" lon="7.80756">
        <ele>229</ele>
        <time>2022-05-01T06:48:32Z</time>
      </trkpt>
      <trkpt lat="49.01126" lon="7.80752">
        <ele>228.6</ele>
        <time>2022-05-01T06:48:33Z</time>
      </trkpt>
      <trkpt lat="49.01123" lon="7.80747">
        <ele>228.6</ele>
        <time>2022-05-01T06:48:34Z</time>
      </trkpt>
      <trkpt lat="49.01119" lon="7.80742">
        <ele>228.4</ele>
        <time>2022-05-01T06:48:35Z</time>
      </trkpt>
      <trkpt lat="49.01116" lon="7.80736">
        <ele>227.8</ele>
        <time>2022-05-01T06:48:36Z</time>
      </trkpt>
      <trkpt lat="49.01112" lon="7.80733">
        <ele>227.8</ele>
        <time>2022-05-01T06:48:37Z</time>
      </trkpt>
      <trkpt lat="49.01109" lon="7.8073">
        <ele>227.6</ele>
        <time>2022-05-01T06:48:38Z</time>
      </trkpt>
      <trkpt lat="49.01104" lon="7.80725">
        <ele>227.6</ele>
        <time>2022-05-01T06:48:39Z</time>
      </trkpt>
      <trkpt lat="49.01099" lon="7.80722">
        <ele>227.2</ele>
        <time>2022-05-01T06:48:40Z</time>
      </trkpt>
      <trkpt lat="49.01095" lon="7.80718">
        <ele>227.2</ele>
        <time>2022-05-01T06:48:41Z</time>
      </trkpt>
      <trkpt lat="49.01091" lon="7.80713">
        <ele>227.2</ele>
        <time>2022-05-01T06:48:42Z</time>
      </trkpt>
      <trkpt lat="49.01088" lon="7.80712">
        <ele>227</ele>
        <time>2022-05-01T06:48:43Z</time>
      </trkpt>
      <trkpt lat="49.01085" lon="7.80712">
        <ele>226.6</ele>
        <time>2022-05-01T06:48:44Z</time>
      </trkpt>
      <trkpt lat="49.01082" lon="7.80712">
        <ele>226.6</ele>
        <time>2022-05-01T06:48:45Z</time>
      </trkpt>
      <trkpt lat="49.01081" lon="7.80714">
        <ele>226.4</ele>
        <time>2022-05-01T06:48:46Z</time>
      </trkpt>
      <trkpt lat="49.01079" lon="7.80715">
        <ele>225.8</ele>
        <time>2022-05-01T06:48:47Z</time>
      </trkpt>
      <trkpt lat="49.01078" lon="7.80717">
        <ele>225</ele>
        <time>2022-05-01T06:48:48Z</time>
      </trkpt>
      <trkpt lat="49.01077" lon="7.80719">
        <ele>224.6</ele>
        <time>2022-05-01T06:48:49Z</time>
      </trkpt>
      <trkpt lat="49.01076" lon="7.8072">
        <ele>224.4</ele>
        <time>2022-05-01T06:48:50Z</time>
      </trkpt>
      <trkpt lat="49.01075" lon="7.80721">
        <ele>224.4</ele>
        <time>2022-05-01T06:48:51Z</time>
      </trkpt>
      <trkpt lat="49.01074" lon="7.80722">
        <ele>224</ele>
        <time>2022-05-01T06:48:52Z</time>
      </trkpt>
      <trkpt lat="49.01073" lon="7.80722">
        <ele>224</ele>
        <time>2022-05-01T06:48:53Z</time>
      </trkpt>
      <trkpt lat="49.01072" lon="7.80722">
        <ele>224</ele>
        <time>2022-05-01T06:48:54Z</time>
      </trkpt>
      <trkpt lat="49.01071" lon="7.80722">
        <ele>224</ele>
        <time>2022-05-01T06:48:55Z</time>
      </trkpt>
      <trkpt lat="49.0107" lon="7.80723">
        <ele>224</ele>
        <time>2022-05-01T06:48:56Z</time>
      </trkpt>
      <trkpt lat="49.01069" lon="7.80724">
        <ele>224</ele>
        <time>2022-05-01T06:48:57Z</time>
      </trkpt>
      <trkpt lat="49.01067" lon="7.80725">
        <ele>224</ele>
        <time>2022-05-01T06:48:58Z</time>
      </trkpt>
      <trkpt lat="49.01066" lon="7.80726">
        <ele>224</ele>
        <time>2022-05-01T06:48:59Z</time>
      </trkpt>
      <trkpt lat="49.01065" lon="7.80727">
        <ele>224</ele>
        <time>2022-05-01T06:49:00Z</time>
      </trkpt>
      <trkpt lat="49.01064" lon="7.80728">
        <ele>224</ele>
        <time>2022-05-01T06:49:01Z</time>
      </trkpt>
      <trkpt lat="49.01063" lon="7.80729">
        <ele>224</ele>
        <time>2022-05-01T06:49:02Z</time>
      </trkpt>
      <trkpt lat="49.01062" lon="7.8073">
        <ele>224</ele>
        <time>2022-05-01T06:49:03Z</time>
      </trkpt>
      <trkpt lat="49.01061" lon="7.80731">
        <ele>224</ele>
        <time>2022-05-01T06:49:04Z</time>
      </trkpt>
      <trkpt lat="49.01061" lon="7.80731">
        <ele>224.4</ele>
        <time>2022-05-01T06:49:05Z</time>
      </trkpt>
      <trkpt lat="49.0106" lon="7.80731">
        <ele>224.4</ele>
        <time>2022-05-01T06:49:06Z</time>
      </trkpt>
      <trkpt lat="49.01059" lon="7.80732">
        <ele>224.4</ele>
        <time>2022-05-01T06:49:07Z</time>
      </trkpt>
      <trkpt lat="49.01057" lon="7.80733">
        <ele>224.4</ele>
        <time>2022-05-01T06:49:09Z</time>
      </trkpt>
      <trkpt lat="49.01057" lon="7.80733">
        <ele>224.4</ele>
        <time>2022-05-01T06:49:10Z</time>
      </trkpt>
      <trkpt lat="49.01057" lon="7.80734">
        <ele>224.4</ele>
        <time>2022-05-01T06:49:11Z</time>
      </trkpt>
      <trkpt lat="49.01057" lon="7.80734">
        <ele>224.4</ele>
        <time>2022-05-01T06:49:13Z</time>
      </trkpt>
      <trkpt lat="49.01055" lon="7.80733">
        <ele>224.2</ele>
        <time>2022-05-01T06:49:15Z</time>
      </trkpt>
      <trkpt lat="49.01051" lon="7.80734">
        <ele>224.2</ele>
        <time>2022-05-01T06:49:17Z</time>
      </trkpt>
      <trkpt lat="49.0105" lon="7.80734">
        <ele>224.2</ele>
        <time>2022-05-01T06:49:18Z</time>
      </trkpt>
      <trkpt lat="49.01049" lon="7.80735">
        <ele>224.2</ele>
        <time>2022-05-01T06:49:19Z</time>
      </trkpt>
      <trkpt lat="49.01047" lon="7.80737">
        <ele>224.2</ele>
        <time>2022-05-01T06:49:21Z</time>
      </trkpt>
      <trkpt lat="49.01045" lon="7.80737">
        <ele>224.2</ele>
        <time>2022-05-01T06:49:22Z</time>
      </trkpt>
      <trkpt lat="49.01043" lon="7.80737">
        <ele>224.2</ele>
        <time>2022-05-01T06:49:23Z</time>
      </trkpt>
      <trkpt lat="49.01042" lon="7.80737">
        <ele>224.2</ele>
        <time>2022-05-01T06:49:24Z</time>
      </trkpt>
      <trkpt lat="49.01042" lon="7.80737">
        <ele>224.2</ele>
        <time>2022-05-01T06:49:25Z</time>
      </trkpt>
      <trkpt lat="49.01042" lon="7.80737">
        <ele>224.2</ele>
        <time>2022-05-01T06:49:26Z</time>
      </trkpt>
      <trkpt lat="49.01041" lon="7.80737">
        <ele>224.2</ele>
        <time>2022-05-01T06:49:27Z</time>
      </trkpt>
      <trkpt lat="49.0104" lon="7.80739">
        <ele>224.2</ele>
        <time>2022-05-01T06:49:28Z</time>
      </trkpt>
      <trkpt lat="49.01039" lon="7.8074">
        <ele>224.4</ele>
        <time>2022-05-01T06:49:29Z</time>
      </trkpt>
      <trkpt lat="49.01031" lon="7.80742">
        <ele>224.4</ele>
        <time>2022-05-01T06:49:31Z</time>
      </trkpt>
      <trkpt lat="49.01027" lon="7.80737">
        <ele>224.8</ele>
        <time>2022-05-01T06:49:35Z</time>
      </trkpt>
      <trkpt lat="49.01026" lon="7.80737">
        <ele>224.8</ele>
        <time>2022-05-01T06:49:36Z</time>
      </trkpt>
      <trkpt lat="49.01024" lon="7.80736">
        <ele>225</ele>
        <time>2022-05-01T06:49:37Z</time>
      </trkpt>
      <trkpt lat="49.01021" lon="7.80737">
        <ele>225</ele>
        <time>2022-05-01T06:49:38Z</time>
      </trkpt>
      <trkpt lat="49.0102" lon="7.80735">
        <ele>225</ele>
        <time>2022-05-01T06:49:39Z</time>
      </trkpt>
      <trkpt lat="49.01018" lon="7.8073">
        <ele>225.2</ele>
        <time>2022-05-01T06:49:40Z</time>
      </trkpt>
      <trkpt lat="49.01016" lon="7.80726">
        <ele>225.2</ele>
        <time>2022-05-01T06:49:41Z</time>
      </trkpt>
      <trkpt lat="49.01013" lon="7.80725">
        <ele>225.2</ele>
        <time>2022-05-01T06:49:42Z</time>
      </trkpt>
      <trkpt lat="49.01008" lon="7.80724">
        <ele>225.4</ele>
        <time>2022-05-01T06:49:45Z</time>
      </trkpt>
      <trkpt lat="49.01007" lon="7.80723">
        <ele>225.6</ele>
        <time>2022-05-01T06:49:46Z</time>
      </trkpt>
      <trkpt lat="49.01005" lon="7.80722">
        <ele>225.8</ele>
        <time>2022-05-01T06:49:48Z</time>
      </trkpt>
      <trkpt lat="49.01001" lon="7.8072">
        <ele>225.8</ele>
        <time>2022-05-01T06:49:50Z</time>
      </trkpt>
      <trkpt lat="49.00999" lon="7.80719">
        <ele>225.8</ele>
        <time>2022-05-01T06:49:51Z</time>
      </trkpt>
      <trkpt lat="49.00997" lon="7.80718">
        <ele>226</ele>
        <time>2022-05-01T06:49:52Z</time>
      </trkpt>
      <trkpt lat="49.00993" lon="7.80718">
        <ele>226</ele>
        <time>2022-05-01T06:49:54Z</time>
      </trkpt>
      <trkpt lat="49.00991" lon="7.80718">
        <ele>226.2</ele>
        <time>2022-05-01T06:49:55Z</time>
      </trkpt>
      <trkpt lat="49.00988" lon="7.80717">
        <ele>226.2</ele>
        <time>2022-05-01T06:49:56Z</time>
      </trkpt>
      <trkpt lat="49.00977" lon="7.80715">
        <ele>226.4</ele>
        <time>2022-05-01T06:50:00Z</time>
      </trkpt>
      <trkpt lat="49.00972" lon="7.80715">
        <ele>226.6</ele>
        <time>2022-05-01T06:50:02Z</time>
      </trkpt>
      <trkpt lat="49.0096" lon="7.80715">
        <ele>226.8</ele>
        <time>2022-05-01T06:50:06Z</time>
      </trkpt>
      <trkpt lat="49.00941" lon="7.80714">
        <ele>227.2</ele>
        <time>2022-05-01T06:50:12Z</time>
      </trkpt>
      <trkpt lat="49.00918" lon="7.80717">
        <ele>227.6</ele>
        <time>2022-05-01T06:50:19Z</time>
      </trkpt>
      <trkpt lat="49.00912" lon="7.80719">
        <ele>227.8</ele>
        <time>2022-05-01T06:50:21Z</time>
      </trkpt>
      <trkpt lat="49.00898" lon="7.80718">
        <ele>228.4</ele>
        <time>2022-05-01T06:50:26Z</time>
      </trkpt>
      <trkpt lat="49.00874" lon="7.80702">
        <ele>228.8</ele>
        <time>2022-05-01T06:50:33Z</time>
      </trkpt>
      <trkpt lat="49.00868" lon="7.80696">
        <ele>228.8</ele>
        <time>2022-05-01T06:50:35Z</time>
      </trkpt>
      <trkpt lat="49.00847" lon="7.80681">
        <ele>228.8</ele>
        <time>2022-05-01T06:50:42Z</time>
      </trkpt>
      <trkpt lat="49.00842" lon="7.80678">
        <ele>228.8</ele>
        <time>2022-05-01T06:50:44Z</time>
      </trkpt>
      <trkpt lat="49.00839" lon="7.80676">
        <ele>228.8</ele>
        <time>2022-05-01T06:50:45Z</time>
      </trkpt>
      <trkpt lat="49.00836" lon="7.80674">
        <ele>228.8</ele>
        <time>2022-05-01T06:50:46Z</time>
      </trkpt>
      <trkpt lat="49.00813" lon="7.80653">
        <ele>228.4</ele>
        <time>2022-05-01T06:50:53Z</time>
      </trkpt>
      <trkpt lat="49.00797" lon="7.80638">
        <ele>228</ele>
        <time>2022-05-01T06:50:58Z</time>
      </trkpt>
      <trkpt lat="49.00782" lon="7.80623">
        <ele>227.6</ele>
        <time>2022-05-01T06:51:03Z</time>
      </trkpt>
      <trkpt lat="49.00778" lon="7.80619">
        <ele>227.4</ele>
        <time>2022-05-01T06:51:04Z</time>
      </trkpt>
      <trkpt lat="49.00774" lon="7.80614">
        <ele>227.2</ele>
        <time>2022-05-01T06:51:05Z</time>
      </trkpt>
      <trkpt lat="49.00757" lon="7.80599">
        <ele>226.8</ele>
        <time>2022-05-01T06:51:09Z</time>
      </trkpt>
      <trkpt lat="49.0075" lon="7.80592">
        <ele>226.4</ele>
        <time>2022-05-01T06:51:11Z</time>
      </trkpt>
      <trkpt lat="49.00736" lon="7.80581">
        <ele>225.8</ele>
        <time>2022-05-01T06:51:14Z</time>
      </trkpt>
      <trkpt lat="49.00725" lon="7.80572">
        <ele>225.4</ele>
        <time>2022-05-01T06:51:16Z</time>
      </trkpt>
      <trkpt lat="49.00713" lon="7.80563">
        <ele>224.6</ele>
        <time>2022-05-01T06:51:19Z</time>
      </trkpt>
      <trkpt lat="49.00704" lon="7.80558">
        <ele>224</ele>
        <time>2022-05-01T06:51:20Z</time>
      </trkpt>
      <trkpt lat="49.00679" lon="7.80542">
        <ele>223</ele>
        <time>2022-05-01T06:51:23Z</time>
      </trkpt>
      <trkpt lat="49.00672" lon="7.80535">
        <ele>222.6</ele>
        <time>2022-05-01T06:51:24Z</time>
      </trkpt>
      <trkpt lat="49.00665" lon="7.80529">
        <ele>222.2</ele>
        <time>2022-05-01T06:51:25Z</time>
      </trkpt>
      <trkpt lat="49.00658" lon="7.80523">
        <ele>221.6</ele>
        <time>2022-05-01T06:51:26Z</time>
      </trkpt>
      <trkpt lat="49.00643" lon="7.80512">
        <ele>221</ele>
        <time>2022-05-01T06:51:28Z</time>
      </trkpt>
      <trkpt lat="49.00626" lon="7.805">
        <ele>220.4</ele>
        <time>2022-05-01T06:51:30Z</time>
      </trkpt>
      <trkpt lat="49.00607" lon="7.8049">
        <ele>219.2</ele>
        <time>2022-05-01T06:51:32Z</time>
      </trkpt>
      <trkpt lat="49.00598" lon="7.80485">
        <ele>218.4</ele>
        <time>2022-05-01T06:51:33Z</time>
      </trkpt>
      <trkpt lat="49.00589" lon="7.8048">
        <ele>217.6</ele>
        <time>2022-05-01T06:51:34Z</time>
      </trkpt>
      <trkpt lat="49.00582" lon="7.80477">
        <ele>216.2</ele>
        <time>2022-05-01T06:51:35Z</time>
      </trkpt>
      <trkpt lat="49.00575" lon="7.80474">
        <ele>214.8</ele>
        <time>2022-05-01T06:51:36Z</time>
      </trkpt>
      <trkpt lat="49.00549" lon="7.80463">
        <ele>213.2</ele>
        <time>2022-05-01T06:51:38Z</time>
      </trkpt>
      <trkpt lat="49.00539" lon="7.80459">
        <ele>211.8</ele>
        <time>2022-05-01T06:51:39Z</time>
      </trkpt>
      <trkpt lat="49.0053" lon="7.80454">
        <ele>210.4</ele>
        <time>2022-05-01T06:51:40Z</time>
      </trkpt>
      <trkpt lat="49.00521" lon="7.8045">
        <ele>209.4</ele>
        <time>2022-05-01T06:51:41Z</time>
      </trkpt>
      <trkpt lat="49.00502" lon="7.80441">
        <ele>208</ele>
        <time>2022-05-01T06:51:43Z</time>
      </trkpt>
      <trkpt lat="49.00497" lon="7.80436">
        <ele>207.4</ele>
        <time>2022-05-01T06:51:44Z</time>
      </trkpt>
      <trkpt lat="49.00491" lon="7.80431">
        <ele>206.8</ele>
        <time>2022-05-01T06:51:45Z</time>
      </trkpt>
      <trkpt lat="49.00481" lon="7.80421">
        <ele>206</ele>
        <time>2022-05-01T06:51:46Z</time>
      </trkpt>
      <trkpt lat="49.00478" lon="7.8041">
        <ele>205.4</ele>
        <time>2022-05-01T06:51:47Z</time>
      </trkpt>
      <trkpt lat="49.00476" lon="7.80397">
        <ele>204.6</ele>
        <time>2022-05-01T06:51:48Z</time>
      </trkpt>
      <trkpt lat="49.00473" lon="7.80384">
        <ele>203.8</ele>
        <time>2022-05-01T06:51:49Z</time>
      </trkpt>
      <trkpt lat="49.00471" lon="7.80371">
        <ele>203.4</ele>
        <time>2022-05-01T06:51:50Z</time>
      </trkpt>
      <trkpt lat="49.00469" lon="7.80358">
        <ele>203</ele>
        <time>2022-05-01T06:51:51Z</time>
      </trkpt>
      <trkpt lat="49.00468" lon="7.80344">
        <ele>202.6</ele>
        <time>2022-05-01T06:51:52Z</time>
      </trkpt>
      <trkpt lat="49.00466" lon="7.80331">
        <ele>201.8</ele>
        <time>2022-05-01T06:51:53Z</time>
      </trkpt>
      <trkpt lat="49.00464" lon="7.80318">
        <ele>201.4</ele>
        <time>2022-05-01T06:51:54Z</time>
      </trkpt>
      <trkpt lat="49.00463" lon="7.80306">
        <ele>201.2</ele>
        <time>2022-05-01T06:51:55Z</time>
      </trkpt>
      <trkpt lat="49.00459" lon="7.80281">
        <ele>200.4</ele>
        <time>2022-05-01T06:51:57Z</time>
      </trkpt>
      <trkpt lat="49.00458" lon="7.80269">
        <ele>199.2</ele>
        <time>2022-05-01T06:51:58Z</time>
      </trkpt>
      <trkpt lat="49.00454" lon="7.80247">
        <ele>198.2</ele>
        <time>2022-05-01T06:52:00Z</time>
      </trkpt>
      <trkpt lat="49.00451" lon="7.8022">
        <ele>197.8</ele>
        <time>2022-05-01T06:52:02Z</time>
      </trkpt>
      <trkpt lat="49.0045" lon="7.80208">
        <ele>197.8</ele>
        <time>2022-05-01T06:52:03Z</time>
      </trkpt>
      <trkpt lat="49.00449" lon="7.80196">
        <ele>197.6</ele>
        <time>2022-05-01T06:52:04Z</time>
      </trkpt>
      <trkpt lat="49.00448" lon="7.80184">
        <ele>197.6</ele>
        <time>2022-05-01T06:52:05Z</time>
      </trkpt>
      <trkpt lat="49.00448" lon="7.80174">
        <ele>197.6</ele>
        <time>2022-05-01T06:52:06Z</time>
      </trkpt>
      <trkpt lat="49.00447" lon="7.80166">
        <ele>197.6</ele>
        <time>2022-05-01T06:52:07Z</time>
      </trkpt>
      <trkpt lat="49.00447" lon="7.80158">
        <ele>197.6</ele>
        <time>2022-05-01T06:52:08Z</time>
      </trkpt>
      <trkpt lat="49.00447" lon="7.8015">
        <ele>197.6</ele>
        <time>2022-05-01T06:52:09Z</time>
      </trkpt>
      <trkpt lat="49.00446" lon="7.80143">
        <ele>197.6</ele>
        <time>2022-05-01T06:52:10Z</time>
      </trkpt>
      <trkpt lat="49.00445" lon="7.80135">
        <ele>197.6</ele>
        <time>2022-05-01T06:52:11Z</time>
      </trkpt>
      <trkpt lat="49.00445" lon="7.80126">
        <ele>197.8</ele>
        <time>2022-05-01T06:52:12Z</time>
      </trkpt>
      <trkpt lat="49.00442" lon="7.8004">
        <ele>198.6</ele>
        <time>2022-05-01T06:52:22Z</time>
      </trkpt>
      <trkpt lat="49.00442" lon="7.80031">
        <ele>198.6</ele>
        <time>2022-05-01T06:52:23Z</time>
      </trkpt>
      <trkpt lat="49.00433" lon="7.79941">
        <ele>197.6</ele>
        <time>2022-05-01T06:52:33Z</time>
      </trkpt>
      <trkpt lat="49.00428" lon="7.79905">
        <ele>197</ele>
        <time>2022-05-01T06:52:37Z</time>
      </trkpt>
      <trkpt lat="49.00424" lon="7.79869">
        <ele>196.4</ele>
        <time>2022-05-01T06:52:41Z</time>
      </trkpt>
      <trkpt lat="49.00419" lon="7.79824">
        <ele>196</ele>
        <time>2022-05-01T06:52:46Z</time>
      </trkpt>
      <trkpt lat="49.00415" lon="7.79791">
        <ele>195.6</ele>
        <time>2022-05-01T06:52:50Z</time>
      </trkpt>
      <trkpt lat="49.00407" lon="7.79726">
        <ele>195.2</ele>
        <time>2022-05-01T06:52:57Z</time>
      </trkpt>
      <trkpt lat="49.00404" lon="7.79699">
        <ele>194.8</ele>
        <time>2022-05-01T06:53:00Z</time>
      </trkpt>
      <trkpt lat="49.00396" lon="7.79634">
        <ele>194.4</ele>
        <time>2022-05-01T06:53:07Z</time>
      </trkpt>
      <trkpt lat="49.00395" lon="7.79617">
        <ele>194.4</ele>
        <time>2022-05-01T06:53:09Z</time>
      </trkpt>
      <trkpt lat="49.00395" lon="7.79582">
        <ele>194.2</ele>
        <time>2022-05-01T06:53:13Z</time>
      </trkpt>
      <trkpt lat="49.00396" lon="7.79574">
        <ele>194.2</ele>
        <time>2022-05-01T06:53:14Z</time>
      </trkpt>
      <trkpt lat="49.00396" lon="7.79565">
        <ele>194.2</ele>
        <time>2022-05-01T06:53:15Z</time>
      </trkpt>
      <trkpt lat="49.00396" lon="7.79557">
        <ele>194.2</ele>
        <time>2022-05-01T06:53:16Z</time>
      </trkpt>
      <trkpt lat="49.00397" lon="7.79549">
        <ele>194.2</ele>
        <time>2022-05-01T06:53:17Z</time>
      </trkpt>
      <trkpt lat="49.00397" lon="7.79541">
        <ele>194.4</ele>
        <time>2022-05-01T06:53:18Z</time>
      </trkpt>
      <trkpt lat="49.00397" lon="7.79534">
        <ele>194.4</ele>
        <time>2022-05-01T06:53:19Z</time>
      </trkpt>
      <trkpt lat="49.00397" lon="7.79527">
        <ele>194.4</ele>
        <time>2022-05-01T06:53:20Z</time>
      </trkpt>
      <trkpt lat="49.00397" lon="7.7952">
        <ele>194.4</ele>
        <time>2022-05-01T06:53:21Z</time>
      </trkpt>
      <trkpt lat="49.00396" lon="7.79513">
        <ele>194.4</ele>
        <time>2022-05-01T06:53:22Z</time>
      </trkpt>
      <trkpt lat="49.00396" lon="7.79507">
        <ele>194.6</ele>
        <time>2022-05-01T06:53:23Z</time>
      </trkpt>
      <trkpt lat="49.00395" lon="7.79492">
        <ele>194.6</ele>
        <time>2022-05-01T06:53:25Z</time>
      </trkpt>
      <trkpt lat="49.00394" lon="7.79459">
        <ele>196.2</ele>
        <time>2022-05-01T06:53:29Z</time>
      </trkpt>
      <trkpt lat="49.00396" lon="7.79418">
        <ele>197.2</ele>
        <time>2022-05-01T06:53:35Z</time>
      </trkpt>
      <trkpt lat="49.00396" lon="7.79411">
        <ele>197.2</ele>
        <time>2022-05-01T06:53:36Z</time>
      </trkpt>
      <trkpt lat="49.00396" lon="7.79403">
        <ele>197.2</ele>
        <time>2022-05-01T06:53:37Z</time>
      </trkpt>
      <trkpt lat="49.00396" lon="7.79395">
        <ele>197.4</ele>
        <time>2022-05-01T06:53:38Z</time>
      </trkpt>
      <trkpt lat="49.00396" lon="7.79388">
        <ele>197.8</ele>
        <time>2022-05-01T06:53:39Z</time>
      </trkpt>
      <trkpt lat="49.00397" lon="7.79382">
        <ele>198</ele>
        <time>2022-05-01T06:53:40Z</time>
      </trkpt>
      <trkpt lat="49.00397" lon="7.79375">
        <ele>198.6</ele>
        <time>2022-05-01T06:53:41Z</time>
      </trkpt>
      <trkpt lat="49.00397" lon="7.79367">
        <ele>199</ele>
        <time>2022-05-01T06:53:42Z</time>
      </trkpt>
      <trkpt lat="49.00398" lon="7.7936">
        <ele>199.2</ele>
        <time>2022-05-01T06:53:43Z</time>
      </trkpt>
      <trkpt lat="49.00398" lon="7.79353">
        <ele>199.4</ele>
        <time>2022-05-01T06:53:44Z</time>
      </trkpt>
      <trkpt lat="49.00399" lon="7.79347">
        <ele>199.6</ele>
        <time>2022-05-01T06:53:45Z</time>
      </trkpt>
      <trkpt lat="49.00399" lon="7.7934">
        <ele>199.8</ele>
        <time>2022-05-01T06:53:46Z</time>
      </trkpt>
      <trkpt lat="49.004" lon="7.79332">
        <ele>199.8</ele>
        <time>2022-05-01T06:53:47Z</time>
      </trkpt>
      <trkpt lat="49.00401" lon="7.79325">
        <ele>199.8</ele>
        <time>2022-05-01T06:53:48Z</time>
      </trkpt>
      <trkpt lat="49.00402" lon="7.79318">
        <ele>200</ele>
        <time>2022-05-01T06:53:49Z</time>
      </trkpt>
      <trkpt lat="49.00402" lon="7.79311">
        <ele>200</ele>
        <time>2022-05-01T06:53:50Z</time>
      </trkpt>
      <trkpt lat="49.00403" lon="7.79303">
        <ele>200.2</ele>
        <time>2022-05-01T06:53:51Z</time>
      </trkpt>
      <trkpt lat="49.00404" lon="7.79296">
        <ele>200.2</ele>
        <time>2022-05-01T06:53:52Z</time>
      </trkpt>
      <trkpt lat="49.00405" lon="7.79289">
        <ele>200.4</ele>
        <time>2022-05-01T06:53:53Z</time>
      </trkpt>
      <trkpt lat="49.00406" lon="7.79282">
        <ele>200.4</ele>
        <time>2022-05-01T06:53:54Z</time>
      </trkpt>
      <trkpt lat="49.00407" lon="7.79275">
        <ele>200.4</ele>
        <time>2022-05-01T06:53:55Z</time>
      </trkpt>
      <trkpt lat="49.00409" lon="7.79268">
        <ele>200.4</ele>
        <time>2022-05-01T06:53:56Z</time>
      </trkpt>
      <trkpt lat="49.0041" lon="7.7926">
        <ele>200.4</ele>
        <time>2022-05-01T06:53:57Z</time>
      </trkpt>
      <trkpt lat="49.00412" lon="7.79253">
        <ele>200.4</ele>
        <time>2022-05-01T06:53:58Z</time>
      </trkpt>
      <trkpt lat="49.00414" lon="7.79245">
        <ele>200.4</ele>
        <time>2022-05-01T06:53:59Z</time>
      </trkpt>
      <trkpt lat="49.00415" lon="7.79238">
        <ele>200.4</ele>
        <time>2022-05-01T06:54:00Z</time>
      </trkpt>
      <trkpt lat="49.00417" lon="7.7923">
        <ele>200.4</ele>
        <time>2022-05-01T06:54:01Z</time>
      </trkpt>
      <trkpt lat="49.00419" lon="7.79221">
        <ele>200.4</ele>
        <time>2022-05-01T06:54:02Z</time>
      </trkpt>
      <trkpt lat="49.0042" lon="7.79212">
        <ele>200.4</ele>
        <time>2022-05-01T06:54:03Z</time>
      </trkpt>
      <trkpt lat="49.00422" lon="7.79204">
        <ele>200.4</ele>
        <time>2022-05-01T06:54:04Z</time>
      </trkpt>
      <trkpt lat="49.00423" lon="7.79197">
        <ele>200.2</ele>
        <time>2022-05-01T06:54:05Z</time>
      </trkpt>
      <trkpt lat="49.00424" lon="7.7919">
        <ele>200.2</ele>
        <time>2022-05-01T06:54:06Z</time>
      </trkpt>
      <trkpt lat="49.00425" lon="7.79184">
        <ele>199.8</ele>
        <time>2022-05-01T06:54:07Z</time>
      </trkpt>
      <trkpt lat="49.00427" lon="7.79177">
        <ele>199.4</ele>
        <time>2022-05-01T06:54:08Z</time>
      </trkpt>
      <trkpt lat="49.00428" lon="7.79169">
        <ele>199</ele>
        <time>2022-05-01T06:54:09Z</time>
      </trkpt>
      <trkpt lat="49.00435" lon="7.79145">
        <ele>198.4</ele>
        <time>2022-05-01T06:54:12Z</time>
      </trkpt>
      <trkpt lat="49.00443" lon="7.79121">
        <ele>197.8</ele>
        <time>2022-05-01T06:54:15Z</time>
      </trkpt>
      <trkpt lat="49.00452" lon="7.79095">
        <ele>197.4</ele>
        <time>2022-05-01T06:54:18Z</time>
      </trkpt>
      <trkpt lat="49.00458" lon="7.79077">
        <ele>196.8</ele>
        <time>2022-05-01T06:54:21Z</time>
      </trkpt>
      <trkpt lat="49.00461" lon="7.79073">
        <ele>196.4</ele>
        <time>2022-05-01T06:54:22Z</time>
      </trkpt>
      <trkpt lat="49.00464" lon="7.79075">
        <ele>196</ele>
        <time>2022-05-01T06:54:23Z</time>
      </trkpt>
      <trkpt lat="49.00465" lon="7.79077">
        <ele>195.8</ele>
        <time>2022-05-01T06:54:24Z</time>
      </trkpt>
      <trkpt lat="49.00467" lon="7.79081">
        <ele>195.6</ele>
        <time>2022-05-01T06:54:25Z</time>
      </trkpt>
      <trkpt lat="49.00469" lon="7.79085">
        <ele>195.4</ele>
        <time>2022-05-01T06:54:26Z</time>
      </trkpt>
      <trkpt lat="49.00471" lon="7.79088">
        <ele>195.4</ele>
        <time>2022-05-01T06:54:27Z</time>
      </trkpt>
      <trkpt lat="49.00478" lon="7.79097">
        <ele>195.4</ele>
        <time>2022-05-01T06:54:30Z</time>
      </trkpt>
      <trkpt lat="49.00481" lon="7.79101">
        <ele>195.4</ele>
        <time>2022-05-01T06:54:31Z</time>
      </trkpt>
      <trkpt lat="49.00492" lon="7.79105">
        <ele>195.4</ele>
        <time>2022-05-01T06:54:34Z</time>
      </trkpt>
      <trkpt lat="49.00495" lon="7.79106">
        <ele>195.4</ele>
        <time>2022-05-01T06:54:35Z</time>
      </trkpt>
      <trkpt lat="49.00504" lon="7.79109">
        <ele>196.4</ele>
        <time>2022-05-01T06:54:38Z</time>
      </trkpt>
      <trkpt lat="49.00507" lon="7.79108">
        <ele>196.6</ele>
        <time>2022-05-01T06:54:39Z</time>
      </trkpt>
      <trkpt lat="49.00516" lon="7.79107">
        <ele>197.6</ele>
        <time>2022-05-01T06:54:41Z</time>
      </trkpt>
      <trkpt lat="49.00525" lon="7.79105">
        <ele>198.8</ele>
        <time>2022-05-01T06:54:44Z</time>
      </trkpt>
      <trkpt lat="49.00528" lon="7.79104">
        <ele>199.2</ele>
        <time>2022-05-01T06:54:45Z</time>
      </trkpt>
      <trkpt lat="49.00532" lon="7.79102">
        <ele>199.6</ele>
        <time>2022-05-01T06:54:46Z</time>
      </trkpt>
      <trkpt lat="49.00537" lon="7.79099">
        <ele>200</ele>
        <time>2022-05-01T06:54:47Z</time>
      </trkpt>
      <trkpt lat="49.00552" lon="7.79094">
        <ele>201.2</ele>
        <time>2022-05-01T06:54:50Z</time>
      </trkpt>
      <trkpt lat="49.00556" lon="7.79093">
        <ele>201.6</ele>
        <time>2022-05-01T06:54:51Z</time>
      </trkpt>
      <trkpt lat="49.00559" lon="7.79092">
        <ele>201.8</ele>
        <time>2022-05-01T06:54:52Z</time>
      </trkpt>
      <trkpt lat="49.00563" lon="7.79091">
        <ele>202.2</ele>
        <time>2022-05-01T06:54:53Z</time>
      </trkpt>
      <trkpt lat="49.00566" lon="7.79091">
        <ele>202.6</ele>
        <time>2022-05-01T06:54:54Z</time>
      </trkpt>
      <trkpt lat="49.00569" lon="7.79091">
        <ele>202.8</ele>
        <time>2022-05-01T06:54:55Z</time>
      </trkpt>
      <trkpt lat="49.00571" lon="7.79091">
        <ele>203</ele>
        <time>2022-05-01T06:54:56Z</time>
      </trkpt>
      <trkpt lat="49.00574" lon="7.79089">
        <ele>203.2</ele>
        <time>2022-05-01T06:54:57Z</time>
      </trkpt>
      <trkpt lat="49.00578" lon="7.79089">
        <ele>203.4</ele>
        <time>2022-05-01T06:54:58Z</time>
      </trkpt>
      <trkpt lat="49.00581" lon="7.79088">
        <ele>203.4</ele>
        <time>2022-05-01T06:54:59Z</time>
      </trkpt>
      <trkpt lat="49.00585" lon="7.79087">
        <ele>203.4</ele>
        <time>2022-05-01T06:55:00Z</time>
      </trkpt>
      <trkpt lat="49.00588" lon="7.79086">
        <ele>203.6</ele>
        <time>2022-05-01T06:55:01Z</time>
      </trkpt>
      <trkpt lat="49.00592" lon="7.79086">
        <ele>203.6</ele>
        <time>2022-05-01T06:55:02Z</time>
      </trkpt>
      <trkpt lat="49.00596" lon="7.79086">
        <ele>203.6</ele>
        <time>2022-05-01T06:55:03Z</time>
      </trkpt>
      <trkpt lat="49.006" lon="7.79085">
        <ele>203.6</ele>
        <time>2022-05-01T06:55:04Z</time>
      </trkpt>
      <trkpt lat="49.00604" lon="7.79085">
        <ele>203.8</ele>
        <time>2022-05-01T06:55:05Z</time>
      </trkpt>
      <trkpt lat="49.00608" lon="7.79084">
        <ele>203.8</ele>
        <time>2022-05-01T06:55:06Z</time>
      </trkpt>
      <trkpt lat="49.00611" lon="7.79084">
        <ele>203.8</ele>
        <time>2022-05-01T06:55:07Z</time>
      </trkpt>
      <trkpt lat="49.00616" lon="7.79084">
        <ele>204</ele>
        <time>2022-05-01T06:55:08Z</time>
      </trkpt>
      <trkpt lat="49.00619" lon="7.79083">
        <ele>204.2</ele>
        <time>2022-05-01T06:55:09Z</time>
      </trkpt>
      <trkpt lat="49.00622" lon="7.79082">
        <ele>204.4</ele>
        <time>2022-05-01T06:55:10Z</time>
      </trkpt>
      <trkpt lat="49.00625" lon="7.79081">
        <ele>204.6</ele>
        <time>2022-05-01T06:55:11Z</time>
      </trkpt>
      <trkpt lat="49.00629" lon="7.7908">
        <ele>204.8</ele>
        <time>2022-05-01T06:55:12Z</time>
      </trkpt>
      <trkpt lat="49.00633" lon="7.79079">
        <ele>205</ele>
        <time>2022-05-01T06:55:13Z</time>
      </trkpt>
      <trkpt lat="49.00637" lon="7.79079">
        <ele>205.2</ele>
        <time>2022-05-01T06:55:14Z</time>
      </trkpt>
      <trkpt lat="49.00641" lon="7.79078">
        <ele>205.4</ele>
        <time>2022-05-01T06:55:15Z</time>
      </trkpt>
      <trkpt lat="49.00645" lon="7.79076">
        <ele>205.6</ele>
        <time>2022-05-01T06:55:16Z</time>
      </trkpt>
      <trkpt lat="49.0065" lon="7.79074">
        <ele>205.8</ele>
        <time>2022-05-01T06:55:17Z</time>
      </trkpt>
      <trkpt lat="49.00654" lon="7.79072">
        <ele>205.8</ele>
        <time>2022-05-01T06:55:18Z</time>
      </trkpt>
      <trkpt lat="49.00659" lon="7.79071">
        <ele>205.8</ele>
        <time>2022-05-01T06:55:19Z</time>
      </trkpt>
      <trkpt lat="49.00663" lon="7.7907">
        <ele>206</ele>
        <time>2022-05-01T06:55:20Z</time>
      </trkpt>
      <trkpt lat="49.00668" lon="7.79069">
        <ele>206</ele>
        <time>2022-05-01T06:55:21Z</time>
      </trkpt>
      <trkpt lat="49.00671" lon="7.79067">
        <ele>206</ele>
        <time>2022-05-01T06:55:22Z</time>
      </trkpt>
      <trkpt lat="49.00676" lon="7.79066">
        <ele>206</ele>
        <time>2022-05-01T06:55:23Z</time>
      </trkpt>
      <trkpt lat="49.00682" lon="7.79065">
        <ele>206</ele>
        <time>2022-05-01T06:55:24Z</time>
      </trkpt>
      <trkpt lat="49.00687" lon="7.79065">
        <ele>206</ele>
        <time>2022-05-01T06:55:25Z</time>
      </trkpt>
      <trkpt lat="49.00692" lon="7.79064">
        <ele>206</ele>
        <time>2022-05-01T06:55:26Z</time>
      </trkpt>
      <trkpt lat="49.00696" lon="7.79064">
        <ele>206</ele>
        <time>2022-05-01T06:55:27Z</time>
      </trkpt>
      <trkpt lat="49.00702" lon="7.79063">
        <ele>206</ele>
        <time>2022-05-01T06:55:28Z</time>
      </trkpt>
      <trkpt lat="49.00706" lon="7.79063">
        <ele>206</ele>
        <time>2022-05-01T06:55:29Z</time>
      </trkpt>
      <trkpt lat="49.00711" lon="7.79062">
        <ele>205.6</ele>
        <time>2022-05-01T06:55:30Z</time>
      </trkpt>
      <trkpt lat="49.00715" lon="7.79061">
        <ele>205.4</ele>
        <time>2022-05-01T06:55:31Z</time>
      </trkpt>
      <trkpt lat="49.0072" lon="7.7906">
        <ele>205.4</ele>
        <time>2022-05-01T06:55:32Z</time>
      </trkpt>
      <trkpt lat="49.00738" lon="7.79059">
        <ele>205</ele>
        <time>2022-05-01T06:55:36Z</time>
      </trkpt>
      <trkpt lat="49.00743" lon="7.79058">
        <ele>205</ele>
        <time>2022-05-01T06:55:37Z</time>
      </trkpt>
      <trkpt lat="49.00748" lon="7.79057">
        <ele>205</ele>
        <time>2022-05-01T06:55:38Z</time>
      </trkpt>
      <trkpt lat="49.00753" lon="7.79057">
        <ele>205</ele>
        <time>2022-05-01T06:55:39Z</time>
      </trkpt>
      <trkpt lat="49.00786" lon="7.79054">
        <ele>204.6</ele>
        <time>2022-05-01T06:55:46Z</time>
      </trkpt>
      <trkpt lat="49.00812" lon="7.79048">
        <ele>204.6</ele>
        <time>2022-05-01T06:55:51Z</time>
      </trkpt>
      <trkpt lat="49.00829" lon="7.79047">
        <ele>204</ele>
        <time>2022-05-01T06:55:54Z</time>
      </trkpt>
      <trkpt lat="49.00863" lon="7.79041">
        <ele>203.6</ele>
        <time>2022-05-01T06:56:01Z</time>
      </trkpt>
      <trkpt lat="49.00868" lon="7.79041">
        <ele>203.6</ele>
        <time>2022-05-01T06:56:02Z</time>
      </trkpt>
      <trkpt lat="49.00873" lon="7.79041">
        <ele>203.4</ele>
        <time>2022-05-01T06:56:03Z</time>
      </trkpt>
      <trkpt lat="49.00919" lon="7.79041">
        <ele>202.6</ele>
        <time>2022-05-01T06:56:12Z</time>
      </trkpt>
      <trkpt lat="49.00928" lon="7.7904">
        <ele>202.6</ele>
        <time>2022-05-01T06:56:14Z</time>
      </trkpt>
      <trkpt lat="49.00942" lon="7.7903">
        <ele>202.6</ele>
        <time>2022-05-01T06:56:17Z</time>
      </trkpt>
      <trkpt lat="49.00947" lon="7.79026">
        <ele>202.6</ele>
        <time>2022-05-01T06:56:18Z</time>
      </trkpt>
      <trkpt lat="49.00956" lon="7.79019">
        <ele>202.6</ele>
        <time>2022-05-01T06:56:20Z</time>
      </trkpt>
      <trkpt lat="49.00961" lon="7.79016">
        <ele>202.4</ele>
        <time>2022-05-01T06:56:21Z</time>
      </trkpt>
      <trkpt lat="49.0097" lon="7.7901">
        <ele>202.4</ele>
        <time>2022-05-01T06:56:23Z</time>
      </trkpt>
      <trkpt lat="49.00979" lon="7.79002">
        <ele>202</ele>
        <time>2022-05-01T06:56:25Z</time>
      </trkpt>
      <trkpt lat="49.00985" lon="7.78989">
        <ele>201.8</ele>
        <time>2022-05-01T06:56:27Z</time>
      </trkpt>
      <trkpt lat="49.00986" lon="7.78983">
        <ele>201.8</ele>
        <time>2022-05-01T06:56:28Z</time>
      </trkpt>
      <trkpt lat="49.00987" lon="7.78975">
        <ele>201.8</ele>
        <time>2022-05-01T06:56:29Z</time>
      </trkpt>
      <trkpt lat="49.00987" lon="7.78965">
        <ele>201.8</ele>
        <time>2022-05-01T06:56:30Z</time>
      </trkpt>
      <trkpt lat="49.00985" lon="7.78956">
        <ele>201.8</ele>
        <time>2022-05-01T06:56:31Z</time>
      </trkpt>
      <trkpt lat="49.00983" lon="7.78947">
        <ele>201.6</ele>
        <time>2022-05-01T06:56:32Z</time>
      </trkpt>
      <trkpt lat="49.0098" lon="7.78938">
        <ele>201.6</ele>
        <time>2022-05-01T06:56:33Z</time>
      </trkpt>
      <trkpt lat="49.00977" lon="7.78928">
        <ele>201.6</ele>
        <time>2022-05-01T06:56:34Z</time>
      </trkpt>
      <trkpt lat="49.00974" lon="7.78918">
        <ele>201.4</ele>
        <time>2022-05-01T06:56:35Z</time>
      </trkpt>
      <trkpt lat="49.00967" lon="7.78891">
        <ele>200.8</ele>
        <time>2022-05-01T06:56:38Z</time>
      </trkpt>
      <trkpt lat="49.00965" lon="7.78875">
        <ele>200</ele>
        <time>2022-05-01T06:56:40Z</time>
      </trkpt>
      <trkpt lat="49.00966" lon="7.78869">
        <ele>199.4</ele>
        <time>2022-05-01T06:56:41Z</time>
      </trkpt>
      <trkpt lat="49.00968" lon="7.78864">
        <ele>198.8</ele>
        <time>2022-05-01T06:56:42Z</time>
      </trkpt>
      <trkpt lat="49.00971" lon="7.7886">
        <ele>198.4</ele>
        <time>2022-05-01T06:56:43Z</time>
      </trkpt>
      <trkpt lat="49.00975" lon="7.78858">
        <ele>198</ele>
        <time>2022-05-01T06:56:44Z</time>
      </trkpt>
      <trkpt lat="49.00978" lon="7.78858">
        <ele>197.6</ele>
        <time>2022-05-01T06:56:45Z</time>
      </trkpt>
      <trkpt lat="49.00982" lon="7.78856">
        <ele>197.4</ele>
        <time>2022-05-01T06:56:46Z</time>
      </trkpt>
      <trkpt lat="49.00986" lon="7.78854">
        <ele>197.4</ele>
        <time>2022-05-01T06:56:47Z</time>
      </trkpt>
      <trkpt lat="49.0099" lon="7.78852">
        <ele>197.2</ele>
        <time>2022-05-01T06:56:48Z</time>
      </trkpt>
      <trkpt lat="49.00994" lon="7.78849">
        <ele>197.2</ele>
        <time>2022-05-01T06:56:49Z</time>
      </trkpt>
      <trkpt lat="49.01009" lon="7.7884">
        <ele>197.2</ele>
        <time>2022-05-01T06:56:53Z</time>
      </trkpt>
      <trkpt lat="49.0103" lon="7.78827">
        <ele>197.6</ele>
        <time>2022-05-01T06:56:58Z</time>
      </trkpt>
      <trkpt lat="49.01035" lon="7.78823">
        <ele>197.8</ele>
        <time>2022-05-01T06:56:59Z</time>
      </trkpt>
      <trkpt lat="49.01039" lon="7.78819">
        <ele>198</ele>
        <time>2022-05-01T06:57:00Z</time>
      </trkpt>
      <trkpt lat="49.01046" lon="7.78812">
        <ele>198.4</ele>
        <time>2022-05-01T06:57:02Z</time>
      </trkpt>
      <trkpt lat="49.0105" lon="7.78809">
        <ele>198.6</ele>
        <time>2022-05-01T06:57:03Z</time>
      </trkpt>
      <trkpt lat="49.01052" lon="7.78806">
        <ele>198.8</ele>
        <time>2022-05-01T06:57:04Z</time>
      </trkpt>
      <trkpt lat="49.01054" lon="7.78804">
        <ele>199.2</ele>
        <time>2022-05-01T06:57:05Z</time>
      </trkpt>
      <trkpt lat="49.01057" lon="7.78803">
        <ele>199.8</ele>
        <time>2022-05-01T06:57:06Z</time>
      </trkpt>
      <trkpt lat="49.01059" lon="7.78802">
        <ele>200.2</ele>
        <time>2022-05-01T06:57:07Z</time>
      </trkpt>
      <trkpt lat="49.01063" lon="7.788">
        <ele>200.6</ele>
        <time>2022-05-01T06:57:08Z</time>
      </trkpt>
      <trkpt lat="49.01064" lon="7.78798">
        <ele>201.2</ele>
        <time>2022-05-01T06:57:09Z</time>
      </trkpt>
      <trkpt lat="49.01066" lon="7.78795">
        <ele>201.8</ele>
        <time>2022-05-01T06:57:10Z</time>
      </trkpt>
      <trkpt lat="49.01068" lon="7.78793">
        <ele>202.4</ele>
        <time>2022-05-01T06:57:11Z</time>
      </trkpt>
      <trkpt lat="49.01069" lon="7.7879">
        <ele>203</ele>
        <time>2022-05-01T06:57:12Z</time>
      </trkpt>
      <trkpt lat="49.01071" lon="7.78788">
        <ele>203.4</ele>
        <time>2022-05-01T06:57:13Z</time>
      </trkpt>
      <trkpt lat="49.01073" lon="7.78786">
        <ele>204</ele>
        <time>2022-05-01T06:57:14Z</time>
      </trkpt>
      <trkpt lat="49.01076" lon="7.78784">
        <ele>204.4</ele>
        <time>2022-05-01T06:57:15Z</time>
      </trkpt>
      <trkpt lat="49.01078" lon="7.78783">
        <ele>204.8</ele>
        <time>2022-05-01T06:57:16Z</time>
      </trkpt>
      <trkpt lat="49.01079" lon="7.78781">
        <ele>205.2</ele>
        <time>2022-05-01T06:57:17Z</time>
      </trkpt>
      <trkpt lat="49.01081" lon="7.78778">
        <ele>205.8</ele>
        <time>2022-05-01T06:57:18Z</time>
      </trkpt>
      <trkpt lat="49.01082" lon="7.78776">
        <ele>206.2</ele>
        <time>2022-05-01T06:57:19Z</time>
      </trkpt>
      <trkpt lat="49.01083" lon="7.78774">
        <ele>206.8</ele>
        <time>2022-05-01T06:57:20Z</time>
      </trkpt>
      <trkpt lat="49.01083" lon="7.78774">
        <ele>207.2</ele>
        <time>2022-05-01T06:57:21Z</time>
      </trkpt>
      <trkpt lat="49.01083" lon="7.78774">
        <ele>208</ele>
        <time>2022-05-01T06:57:22Z</time>
      </trkpt>
      <trkpt lat="49.01084" lon="7.78772">
        <ele>208.6</ele>
        <time>2022-05-01T06:57:23Z</time>
      </trkpt>
      <trkpt lat="49.01085" lon="7.7877">
        <ele>209.2</ele>
        <time>2022-05-01T06:57:24Z</time>
      </trkpt>
      <trkpt lat="49.01087" lon="7.78769">
        <ele>209.8</ele>
        <time>2022-05-01T06:57:25Z</time>
      </trkpt>
      <trkpt lat="49.01087" lon="7.78769">
        <ele>210.2</ele>
        <time>2022-05-01T06:57:26Z</time>
      </trkpt>
      <trkpt lat="49.01088" lon="7.78768">
        <ele>210.6</ele>
        <time>2022-05-01T06:57:27Z</time>
      </trkpt>
      <trkpt lat="49.0109" lon="7.78767">
        <ele>211.2</ele>
        <time>2022-05-01T06:57:28Z</time>
      </trkpt>
      <trkpt lat="49.01091" lon="7.78767">
        <ele>211.6</ele>
        <time>2022-05-01T06:57:29Z</time>
      </trkpt>
      <trkpt lat="49.01092" lon="7.78767">
        <ele>211.8</ele>
        <time>2022-05-01T06:57:30Z</time>
      </trkpt>
      <trkpt lat="49.01093" lon="7.78769">
        <ele>212</ele>
        <time>2022-05-01T06:57:31Z</time>
      </trkpt>
      <trkpt lat="49.01094" lon="7.7877">
        <ele>212</ele>
        <time>2022-05-01T06:57:32Z</time>
      </trkpt>
      <trkpt lat="49.01094" lon="7.78771">
        <ele>212.2</ele>
        <time>2022-05-01T06:57:33Z</time>
      </trkpt>
      <trkpt lat="49.01095" lon="7.78773">
        <ele>212.2</ele>
        <time>2022-05-01T06:57:34Z</time>
      </trkpt>
      <trkpt lat="49.01096" lon="7.78774">
        <ele>212.4</ele>
        <time>2022-05-01T06:57:35Z</time>
      </trkpt>
      <trkpt lat="49.01096" lon="7.78775">
        <ele>212.4</ele>
        <time>2022-05-01T06:57:36Z</time>
      </trkpt>
      <trkpt lat="49.01097" lon="7.78775">
        <ele>212.4</ele>
        <time>2022-05-01T06:57:37Z</time>
      </trkpt>
      <trkpt lat="49.01098" lon="7.78774">
        <ele>212.4</ele>
        <time>2022-05-01T06:57:38Z</time>
      </trkpt>
      <trkpt lat="49.01099" lon="7.78773">
        <ele>212.6</ele>
        <time>2022-05-01T06:57:39Z</time>
      </trkpt>
      <trkpt lat="49.011" lon="7.78772">
        <ele>212.6</ele>
        <time>2022-05-01T06:57:40Z</time>
      </trkpt>
      <trkpt lat="49.01101" lon="7.78772">
        <ele>212.6</ele>
        <time>2022-05-01T06:57:41Z</time>
      </trkpt>
      <trkpt lat="49.01101" lon="7.78772">
        <ele>212.6</ele>
        <time>2022-05-01T06:57:42Z</time>
      </trkpt>
      <trkpt lat="49.01101" lon="7.78772">
        <ele>212.8</ele>
        <time>2022-05-01T06:57:43Z</time>
      </trkpt>
      <trkpt lat="49.01101" lon="7.78772">
        <ele>212.8</ele>
        <time>2022-05-01T06:57:44Z</time>
      </trkpt>
      <trkpt lat="49.01102" lon="7.78773">
        <ele>212.8</ele>
        <time>2022-05-01T06:57:48Z</time>
      </trkpt>
      <trkpt lat="49.01102" lon="7.78773">
        <ele>212.8</ele>
        <time>2022-05-01T06:57:49Z</time>
      </trkpt>
      <trkpt lat="49.01102" lon="7.78773">
        <ele>213</ele>
        <time>2022-05-01T06:57:50Z</time>
      </trkpt>
      <trkpt lat="49.01105" lon="7.78773">
        <ele>213.6</ele>
        <time>2022-05-01T07:24:31Z</time>
      </trkpt>
      <trkpt lat="49.01105" lon="7.78773">
        <ele>212.6</ele>
        <time>2022-05-01T07:24:32Z</time>
      </trkpt>
      <trkpt lat="49.01106" lon="7.78772">
        <ele>212.4</ele>
        <time>2022-05-01T07:24:38Z</time>
      </trkpt>
      <trkpt lat="49.01107" lon="7.7877">
        <ele>212.6</ele>
        <time>2022-05-01T07:26:34Z</time>
      </trkpt>
      <trkpt lat="49.01104" lon="7.7876">
        <ele>212.6</ele>
        <time>2022-05-01T07:26:37Z</time>
      </trkpt>
      <trkpt lat="49.01097" lon="7.78742">
        <ele>212.4</ele>
        <time>2022-05-01T07:26:41Z</time>
      </trkpt>
      <trkpt lat="49.01097" lon="7.78739">
        <ele>212.4</ele>
        <time>2022-05-01T07:26:42Z</time>
      </trkpt>
      <trkpt lat="49.01099" lon="7.78737">
        <ele>212.4</ele>
        <time>2022-05-01T07:26:43Z</time>
      </trkpt>
      <trkpt lat="49.01101" lon="7.78736">
        <ele>212.2</ele>
        <time>2022-05-01T07:26:44Z</time>
      </trkpt>
      <trkpt lat="49.01104" lon="7.78734">
        <ele>212</ele>
        <time>2022-05-01T07:26:45Z</time>
      </trkpt>
      <trkpt lat="49.01106" lon="7.78733">
        <ele>211.6</ele>
        <time>2022-05-01T07:26:46Z</time>
      </trkpt>
      <trkpt lat="49.01108" lon="7.78732">
        <ele>211.2</ele>
        <time>2022-05-01T07:26:47Z</time>
      </trkpt>
      <trkpt lat="49.01111" lon="7.78731">
        <ele>211</ele>
        <time>2022-05-01T07:26:48Z</time>
      </trkpt>
      <trkpt lat="49.01114" lon="7.7873">
        <ele>211</ele>
        <time>2022-05-01T07:26:49Z</time>
      </trkpt>
      <trkpt lat="49.01116" lon="7.78729">
        <ele>211</ele>
        <time>2022-05-01T07:26:50Z</time>
      </trkpt>
      <trkpt lat="49.01119" lon="7.78727">
        <ele>210.8</ele>
        <time>2022-05-01T07:26:51Z</time>
      </trkpt>
      <trkpt lat="49.01121" lon="7.78726">
        <ele>210.8</ele>
        <time>2022-05-01T07:26:52Z</time>
      </trkpt>
      <trkpt lat="49.01123" lon="7.78724">
        <ele>210.8</ele>
        <time>2022-05-01T07:26:53Z</time>
      </trkpt>
      <trkpt lat="49.01126" lon="7.78723">
        <ele>210.8</ele>
        <time>2022-05-01T07:26:54Z</time>
      </trkpt>
      <trkpt lat="49.01128" lon="7.78722">
        <ele>210.8</ele>
        <time>2022-05-01T07:26:55Z</time>
      </trkpt>
      <trkpt lat="49.01129" lon="7.78721">
        <ele>210.8</ele>
        <time>2022-05-01T07:26:56Z</time>
      </trkpt>
      <trkpt lat="49.01132" lon="7.78719">
        <ele>211</ele>
        <time>2022-05-01T07:26:57Z</time>
      </trkpt>
      <trkpt lat="49.01135" lon="7.78718">
        <ele>211.2</ele>
        <time>2022-05-01T07:26:58Z</time>
      </trkpt>
      <trkpt lat="49.01138" lon="7.78716">
        <ele>211.4</ele>
        <time>2022-05-01T07:26:59Z</time>
      </trkpt>
      <trkpt lat="49.01145" lon="7.78713">
        <ele>211.8</ele>
        <time>2022-05-01T07:27:01Z</time>
      </trkpt>
      <trkpt lat="49.01147" lon="7.78712">
        <ele>212</ele>
        <time>2022-05-01T07:27:02Z</time>
      </trkpt>
      <trkpt lat="49.01148" lon="7.78711">
        <ele>212.2</ele>
        <time>2022-05-01T07:27:03Z</time>
      </trkpt>
      <trkpt lat="49.01149" lon="7.78711">
        <ele>212.4</ele>
        <time>2022-05-01T07:27:04Z</time>
      </trkpt>
      <trkpt lat="49.01151" lon="7.7871">
        <ele>212.8</ele>
        <time>2022-05-01T07:27:05Z</time>
      </trkpt>
      <trkpt lat="49.01154" lon="7.78708">
        <ele>213</ele>
        <time>2022-05-01T07:27:06Z</time>
      </trkpt>
      <trkpt lat="49.01156" lon="7.78707">
        <ele>213.2</ele>
        <time>2022-05-01T07:27:07Z</time>
      </trkpt>
      <trkpt lat="49.01161" lon="7.78703">
        <ele>214</ele>
        <time>2022-05-01T07:27:10Z</time>
      </trkpt>
      <trkpt lat="49.01164" lon="7.78702">
        <ele>214.2</ele>
        <time>2022-05-01T07:27:11Z</time>
      </trkpt>
      <trkpt lat="49.01172" lon="7.78699">
        <ele>215.2</ele>
        <time>2022-05-01T07:27:15Z</time>
      </trkpt>
      <trkpt lat="49.01174" lon="7.78697">
        <ele>215.4</ele>
        <time>2022-05-01T07:27:16Z</time>
      </trkpt>
      <trkpt lat="49.01176" lon="7.78695">
        <ele>215.6</ele>
        <time>2022-05-01T07:27:17Z</time>
      </trkpt>
      <trkpt lat="49.01177" lon="7.78694">
        <ele>215.8</ele>
        <time>2022-05-01T07:27:18Z</time>
      </trkpt>
      <trkpt lat="49.01179" lon="7.78693">
        <ele>216</ele>
        <time>2022-05-01T07:27:19Z</time>
      </trkpt>
      <trkpt lat="49.01181" lon="7.78691">
        <ele>216</ele>
        <time>2022-05-01T07:27:20Z</time>
      </trkpt>
      <trkpt lat="49.01183" lon="7.7869">
        <ele>216</ele>
        <time>2022-05-01T07:27:21Z</time>
      </trkpt>
      <trkpt lat="49.01185" lon="7.78689">
        <ele>216.4</ele>
        <time>2022-05-01T07:27:22Z</time>
      </trkpt>
      <trkpt lat="49.01187" lon="7.78689">
        <ele>216.4</ele>
        <time>2022-05-01T07:27:23Z</time>
      </trkpt>
      <trkpt lat="49.01189" lon="7.78687">
        <ele>216.6</ele>
        <time>2022-05-01T07:27:24Z</time>
      </trkpt>
      <trkpt lat="49.01191" lon="7.78686">
        <ele>216.8</ele>
        <time>2022-05-01T07:27:25Z</time>
      </trkpt>
      <trkpt lat="49.01193" lon="7.78684">
        <ele>217</ele>
        <time>2022-05-01T07:27:26Z</time>
      </trkpt>
      <trkpt lat="49.01195" lon="7.78683">
        <ele>217.2</ele>
        <time>2022-05-01T07:27:27Z</time>
      </trkpt>
      <trkpt lat="49.01197" lon="7.78682">
        <ele>217.6</ele>
        <time>2022-05-01T07:27:28Z</time>
      </trkpt>
      <trkpt lat="49.01199" lon="7.7868">
        <ele>217.8</ele>
        <time>2022-05-01T07:27:29Z</time>
      </trkpt>
      <trkpt lat="49.01201" lon="7.78679">
        <ele>218</ele>
        <time>2022-05-01T07:27:30Z</time>
      </trkpt>
      <trkpt lat="49.01203" lon="7.78677">
        <ele>218.2</ele>
        <time>2022-05-01T07:27:31Z</time>
      </trkpt>
      <trkpt lat="49.01205" lon="7.78677">
        <ele>218.4</ele>
        <time>2022-05-01T07:27:32Z</time>
      </trkpt>
      <trkpt lat="49.01208" lon="7.78675">
        <ele>218.6</ele>
        <time>2022-05-01T07:27:33Z</time>
      </trkpt>
      <trkpt lat="49.0121" lon="7.78674">
        <ele>218.8</ele>
        <time>2022-05-01T07:27:34Z</time>
      </trkpt>
      <trkpt lat="49.01212" lon="7.78672">
        <ele>219</ele>
        <time>2022-05-01T07:27:35Z</time>
      </trkpt>
      <trkpt lat="49.01214" lon="7.7867">
        <ele>219.4</ele>
        <time>2022-05-01T07:27:36Z</time>
      </trkpt>
      <trkpt lat="49.01216" lon="7.78668">
        <ele>219.6</ele>
        <time>2022-05-01T07:27:37Z</time>
      </trkpt>
      <trkpt lat="49.01217" lon="7.78667">
        <ele>219.8</ele>
        <time>2022-05-01T07:27:38Z</time>
      </trkpt>
      <trkpt lat="49.01218" lon="7.78667">
        <ele>219.8</ele>
        <time>2022-05-01T07:27:39Z</time>
      </trkpt>
      <trkpt lat="49.0122" lon="7.78666">
        <ele>220.2</ele>
        <time>2022-05-01T07:27:40Z</time>
      </trkpt>
      <trkpt lat="49.01221" lon="7.78665">
        <ele>220.4</ele>
        <time>2022-05-01T07:27:41Z</time>
      </trkpt>
      <trkpt lat="49.01222" lon="7.78663">
        <ele>220.6</ele>
        <time>2022-05-01T07:27:42Z</time>
      </trkpt>
      <trkpt lat="49.01223" lon="7.78661">
        <ele>220.8</ele>
        <time>2022-05-01T07:27:43Z</time>
      </trkpt>
      <trkpt lat="49.01224" lon="7.7866">
        <ele>221</ele>
        <time>2022-05-01T07:27:44Z</time>
      </trkpt>
      <trkpt lat="49.01225" lon="7.78659">
        <ele>221.2</ele>
        <time>2022-05-01T07:27:45Z</time>
      </trkpt>
      <trkpt lat="49.01225" lon="7.78659">
        <ele>221.4</ele>
        <time>2022-05-01T07:27:46Z</time>
      </trkpt>
      <trkpt lat="49.01226" lon="7.78658">
        <ele>221.6</ele>
        <time>2022-05-01T07:27:47Z</time>
      </trkpt>
      <trkpt lat="49.01227" lon="7.78657">
        <ele>221.8</ele>
        <time>2022-05-01T07:27:48Z</time>
      </trkpt>
      <trkpt lat="49.01228" lon="7.78657">
        <ele>222</ele>
        <time>2022-05-01T07:27:49Z</time>
      </trkpt>
      <trkpt lat="49.01229" lon="7.78656">
        <ele>222.2</ele>
        <time>2022-05-01T07:27:50Z</time>
      </trkpt>
      <trkpt lat="49.0123" lon="7.78655">
        <ele>222.6</ele>
        <time>2022-05-01T07:27:51Z</time>
      </trkpt>
      <trkpt lat="49.01231" lon="7.78654">
        <ele>222.8</ele>
        <time>2022-05-01T07:27:52Z</time>
      </trkpt>
      <trkpt lat="49.01232" lon="7.78652">
        <ele>223</ele>
        <time>2022-05-01T07:27:53Z</time>
      </trkpt>
      <trkpt lat="49.01234" lon="7.78649">
        <ele>223.2</ele>
        <time>2022-05-01T07:27:54Z</time>
      </trkpt>
      <trkpt lat="49.01235" lon="7.78646">
        <ele>223.6</ele>
        <time>2022-05-01T07:27:55Z</time>
      </trkpt>
      <trkpt lat="49.01236" lon="7.78644">
        <ele>223.8</ele>
        <time>2022-05-01T07:27:56Z</time>
      </trkpt>
      <trkpt lat="49.01237" lon="7.78642">
        <ele>224</ele>
        <time>2022-05-01T07:27:57Z</time>
      </trkpt>
      <trkpt lat="49.01238" lon="7.7864">
        <ele>224.2</ele>
        <time>2022-05-01T07:27:58Z</time>
      </trkpt>
      <trkpt lat="49.01239" lon="7.78638">
        <ele>224.4</ele>
        <time>2022-05-01T07:27:59Z</time>
      </trkpt>
      <trkpt lat="49.01239" lon="7.78636">
        <ele>224.6</ele>
        <time>2022-05-01T07:28:00Z</time>
      </trkpt>
      <trkpt lat="49.0124" lon="7.78634">
        <ele>224.8</ele>
        <time>2022-05-01T07:28:01Z</time>
      </trkpt>
      <trkpt lat="49.01241" lon="7.78633">
        <ele>224.8</ele>
        <time>2022-05-01T07:28:02Z</time>
      </trkpt>
      <trkpt lat="49.01241" lon="7.78631">
        <ele>225</ele>
        <time>2022-05-01T07:28:03Z</time>
      </trkpt>
      <trkpt lat="49.01242" lon="7.7863">
        <ele>225.2</ele>
        <time>2022-05-01T07:28:04Z</time>
      </trkpt>
      <trkpt lat="49.01243" lon="7.78627">
        <ele>225.4</ele>
        <time>2022-05-01T07:28:05Z</time>
      </trkpt>
      <trkpt lat="49.01244" lon="7.78625">
        <ele>225.8</ele>
        <time>2022-05-01T07:28:06Z</time>
      </trkpt>
      <trkpt lat="49.01245" lon="7.78623">
        <ele>226.2</ele>
        <time>2022-05-01T07:28:07Z</time>
      </trkpt>
      <trkpt lat="49.01246" lon="7.78621">
        <ele>226.4</ele>
        <time>2022-05-01T07:28:08Z</time>
      </trkpt>
      <trkpt lat="49.01247" lon="7.7862">
        <ele>226.4</ele>
        <time>2022-05-01T07:28:09Z</time>
      </trkpt>
      <trkpt lat="49.01248" lon="7.78618">
        <ele>226.8</ele>
        <time>2022-05-01T07:28:10Z</time>
      </trkpt>
      <trkpt lat="49.0125" lon="7.78617">
        <ele>227.2</ele>
        <time>2022-05-01T07:28:11Z</time>
      </trkpt>
      <trkpt lat="49.01252" lon="7.78616">
        <ele>227.4</ele>
        <time>2022-05-01T07:28:12Z</time>
      </trkpt>
      <trkpt lat="49.01254" lon="7.78615">
        <ele>228</ele>
        <time>2022-05-01T07:28:13Z</time>
      </trkpt>
      <trkpt lat="49.01255" lon="7.78615">
        <ele>228.4</ele>
        <time>2022-05-01T07:28:14Z</time>
      </trkpt>
      <trkpt lat="49.01257" lon="7.78613">
        <ele>228.8</ele>
        <time>2022-05-01T07:28:15Z</time>
      </trkpt>
      <trkpt lat="49.01259" lon="7.78611">
        <ele>229.4</ele>
        <time>2022-05-01T07:28:16Z</time>
      </trkpt>
      <trkpt lat="49.0126" lon="7.7861">
        <ele>229.8</ele>
        <time>2022-05-01T07:28:17Z</time>
      </trkpt>
      <trkpt lat="49.01261" lon="7.78609">
        <ele>230.2</ele>
        <time>2022-05-01T07:28:18Z</time>
      </trkpt>
      <trkpt lat="49.01262" lon="7.78608">
        <ele>230.8</ele>
        <time>2022-05-01T07:28:19Z</time>
      </trkpt>
      <trkpt lat="49.01263" lon="7.78607">
        <ele>231</ele>
        <time>2022-05-01T07:28:20Z</time>
      </trkpt>
      <trkpt lat="49.01264" lon="7.78606">
        <ele>231.4</ele>
        <time>2022-05-01T07:28:21Z</time>
      </trkpt>
      <trkpt lat="49.01265" lon="7.78605">
        <ele>231.6</ele>
        <time>2022-05-01T07:28:22Z</time>
      </trkpt>
      <trkpt lat="49.01265" lon="7.78604">
        <ele>232</ele>
        <time>2022-05-01T07:28:23Z</time>
      </trkpt>
      <trkpt lat="49.01266" lon="7.78603">
        <ele>232.4</ele>
        <time>2022-05-01T07:28:24Z</time>
      </trkpt>
      <trkpt lat="49.01268" lon="7.78601">
        <ele>232.8</ele>
        <time>2022-05-01T07:28:25Z</time>
      </trkpt>
      <trkpt lat="49.0127" lon="7.786">
        <ele>233</ele>
        <time>2022-05-01T07:28:26Z</time>
      </trkpt>
      <trkpt lat="49.0127" lon="7.786">
        <ele>233.2</ele>
        <time>2022-05-01T07:28:27Z</time>
      </trkpt>
      <trkpt lat="49.0127" lon="7.78599">
        <ele>233.6</ele>
        <time>2022-05-01T07:28:28Z</time>
      </trkpt>
      <trkpt lat="49.01272" lon="7.78599">
        <ele>234</ele>
        <time>2022-05-01T07:28:29Z</time>
      </trkpt>
      <trkpt lat="49.01273" lon="7.78598">
        <ele>234.2</ele>
        <time>2022-05-01T07:28:30Z</time>
      </trkpt>
      <trkpt lat="49.01274" lon="7.78597">
        <ele>234.6</ele>
        <time>2022-05-01T07:28:31Z</time>
      </trkpt>
      <trkpt lat="49.01276" lon="7.78596">
        <ele>234.8</ele>
        <time>2022-05-01T07:28:32Z</time>
      </trkpt>
      <trkpt lat="49.01278" lon="7.78595">
        <ele>235</ele>
        <time>2022-05-01T07:28:33Z</time>
      </trkpt>
      <trkpt lat="49.0128" lon="7.78593">
        <ele>235.4</ele>
        <time>2022-05-01T07:28:34Z</time>
      </trkpt>
      <trkpt lat="49.01282" lon="7.78592">
        <ele>235.8</ele>
        <time>2022-05-01T07:28:35Z</time>
      </trkpt>
      <trkpt lat="49.01283" lon="7.78591">
        <ele>236</ele>
        <time>2022-05-01T07:28:36Z</time>
      </trkpt>
      <trkpt lat="49.01285" lon="7.78589">
        <ele>236.4</ele>
        <time>2022-05-01T07:28:37Z</time>
      </trkpt>
      <trkpt lat="49.01286" lon="7.78588">
        <ele>236.6</ele>
        <time>2022-05-01T07:28:38Z</time>
      </trkpt>
      <trkpt lat="49.01288" lon="7.78587">
        <ele>237</ele>
        <time>2022-05-01T07:28:39Z</time>
      </trkpt>
      <trkpt lat="49.01289" lon="7.78585">
        <ele>237.2</ele>
        <time>2022-05-01T07:28:40Z</time>
      </trkpt>
      <trkpt lat="49.0129" lon="7.78583">
        <ele>237.2</ele>
        <time>2022-05-01T07:28:41Z</time>
      </trkpt>
      <trkpt lat="49.01291" lon="7.78582">
        <ele>237.4</ele>
        <time>2022-05-01T07:28:42Z</time>
      </trkpt>
      <trkpt lat="49.01294" lon="7.78579">
        <ele>237.4</ele>
        <time>2022-05-01T07:28:43Z</time>
      </trkpt>
      <trkpt lat="49.01296" lon="7.78577">
        <ele>237.4</ele>
        <time>2022-05-01T07:28:44Z</time>
      </trkpt>
      <trkpt lat="49.01297" lon="7.78576">
        <ele>237.6</ele>
        <time>2022-05-01T07:28:45Z</time>
      </trkpt>
      <trkpt lat="49.01298" lon="7.78574">
        <ele>237.6</ele>
        <time>2022-05-01T07:28:46Z</time>
      </trkpt>
      <trkpt lat="49.01299" lon="7.78573">
        <ele>237.8</ele>
        <time>2022-05-01T07:28:47Z</time>
      </trkpt>
      <trkpt lat="49.01301" lon="7.7857">
        <ele>237.8</ele>
        <time>2022-05-01T07:28:48Z</time>
      </trkpt>
      <trkpt lat="49.01302" lon="7.78567">
        <ele>237.8</ele>
        <time>2022-05-01T07:28:49Z</time>
      </trkpt>
      <trkpt lat="49.01303" lon="7.78566">
        <ele>238</ele>
        <time>2022-05-01T07:28:50Z</time>
      </trkpt>
      <trkpt lat="49.01305" lon="7.78563">
        <ele>238.2</ele>
        <time>2022-05-01T07:28:51Z</time>
      </trkpt>
      <trkpt lat="49.01307" lon="7.78562">
        <ele>238.2</ele>
        <time>2022-05-01T07:28:52Z</time>
      </trkpt>
      <trkpt lat="49.01309" lon="7.7856">
        <ele>238.2</ele>
        <time>2022-05-01T07:28:53Z</time>
      </trkpt>
      <trkpt lat="49.01311" lon="7.78558">
        <ele>238.4</ele>
        <time>2022-05-01T07:28:54Z</time>
      </trkpt>
      <trkpt lat="49.01313" lon="7.78556">
        <ele>238.4</ele>
        <time>2022-05-01T07:28:55Z</time>
      </trkpt>
      <trkpt lat="49.01314" lon="7.78554">
        <ele>238.4</ele>
        <time>2022-05-01T07:28:56Z</time>
      </trkpt>
      <trkpt lat="49.01316" lon="7.78552">
        <ele>238.6</ele>
        <time>2022-05-01T07:28:57Z</time>
      </trkpt>
      <trkpt lat="49.01318" lon="7.7855">
        <ele>238.6</ele>
        <time>2022-05-01T07:28:58Z</time>
      </trkpt>
      <trkpt lat="49.0132" lon="7.78548">
        <ele>238.6</ele>
        <time>2022-05-01T07:28:59Z</time>
      </trkpt>
      <trkpt lat="49.01322" lon="7.78547">
        <ele>238.8</ele>
        <time>2022-05-01T07:29:00Z</time>
      </trkpt>
      <trkpt lat="49.01325" lon="7.78545">
        <ele>238.8</ele>
        <time>2022-05-01T07:29:01Z</time>
      </trkpt>
      <trkpt lat="49.01327" lon="7.78543">
        <ele>239</ele>
        <time>2022-05-01T07:29:02Z</time>
      </trkpt>
      <trkpt lat="49.01328" lon="7.78541">
        <ele>239</ele>
        <time>2022-05-01T07:29:03Z</time>
      </trkpt>
      <trkpt lat="49.0133" lon="7.78539">
        <ele>239.2</ele>
        <time>2022-05-01T07:29:04Z</time>
      </trkpt>
      <trkpt lat="49.01332" lon="7.78537">
        <ele>239.2</ele>
        <time>2022-05-01T07:29:05Z</time>
      </trkpt>
      <trkpt lat="49.01334" lon="7.78535">
        <ele>239.4</ele>
        <time>2022-05-01T07:29:06Z</time>
      </trkpt>
      <trkpt lat="49.01335" lon="7.78533">
        <ele>239.4</ele>
        <time>2022-05-01T07:29:07Z</time>
      </trkpt>
      <trkpt lat="49.01337" lon="7.78531">
        <ele>239.6</ele>
        <time>2022-05-01T07:29:08Z</time>
      </trkpt>
      <trkpt lat="49.01339" lon="7.78528">
        <ele>239.6</ele>
        <time>2022-05-01T07:29:09Z</time>
      </trkpt>
      <trkpt lat="49.01341" lon="7.78527">
        <ele>239.8</ele>
        <time>2022-05-01T07:29:10Z</time>
      </trkpt>
      <trkpt lat="49.01343" lon="7.78523">
        <ele>239.8</ele>
        <time>2022-05-01T07:29:11Z</time>
      </trkpt>
      <trkpt lat="49.01345" lon="7.7852">
        <ele>240</ele>
        <time>2022-05-01T07:29:12Z</time>
      </trkpt>
      <trkpt lat="49.01348" lon="7.78518">
        <ele>240.2</ele>
        <time>2022-05-01T07:29:13Z</time>
      </trkpt>
      <trkpt lat="49.0135" lon="7.78517">
        <ele>240.4</ele>
        <time>2022-05-01T07:29:14Z</time>
      </trkpt>
      <trkpt lat="49.01352" lon="7.78516">
        <ele>240.6</ele>
        <time>2022-05-01T07:29:15Z</time>
      </trkpt>
      <trkpt lat="49.01353" lon="7.78515">
        <ele>240.6</ele>
        <time>2022-05-01T07:29:16Z</time>
      </trkpt>
      <trkpt lat="49.01354" lon="7.78513">
        <ele>240.8</ele>
        <time>2022-05-01T07:29:17Z</time>
      </trkpt>
      <trkpt lat="49.01356" lon="7.78512">
        <ele>240.8</ele>
        <time>2022-05-01T07:29:18Z</time>
      </trkpt>
      <trkpt lat="49.01359" lon="7.7851">
        <ele>241</ele>
        <time>2022-05-01T07:29:19Z</time>
      </trkpt>
      <trkpt lat="49.0136" lon="7.78508">
        <ele>241</ele>
        <time>2022-05-01T07:29:20Z</time>
      </trkpt>
      <trkpt lat="49.01363" lon="7.78506">
        <ele>241.2</ele>
        <time>2022-05-01T07:29:21Z</time>
      </trkpt>
      <trkpt lat="49.01365" lon="7.78504">
        <ele>241.4</ele>
        <time>2022-05-01T07:29:22Z</time>
      </trkpt>
      <trkpt lat="49.01366" lon="7.78501">
        <ele>241.6</ele>
        <time>2022-05-01T07:29:23Z</time>
      </trkpt>
      <trkpt lat="49.01367" lon="7.78499">
        <ele>241.6</ele>
        <time>2022-05-01T07:29:24Z</time>
      </trkpt>
      <trkpt lat="49.01369" lon="7.78496">
        <ele>241.6</ele>
        <time>2022-05-01T07:29:25Z</time>
      </trkpt>
      <trkpt lat="49.0137" lon="7.78492">
        <ele>241.8</ele>
        <time>2022-05-01T07:29:26Z</time>
      </trkpt>
      <trkpt lat="49.01373" lon="7.78489">
        <ele>242</ele>
        <time>2022-05-01T07:29:27Z</time>
      </trkpt>
      <trkpt lat="49.01375" lon="7.78486">
        <ele>242.2</ele>
        <time>2022-05-01T07:29:28Z</time>
      </trkpt>
      <trkpt lat="49.01376" lon="7.78484">
        <ele>242.2</ele>
        <time>2022-05-01T07:29:29Z</time>
      </trkpt>
      <trkpt lat="49.01378" lon="7.78482">
        <ele>242.4</ele>
        <time>2022-05-01T07:29:30Z</time>
      </trkpt>
      <trkpt lat="49.0138" lon="7.7848">
        <ele>242.6</ele>
        <time>2022-05-01T07:29:31Z</time>
      </trkpt>
      <trkpt lat="49.01382" lon="7.78478">
        <ele>242.6</ele>
        <time>2022-05-01T07:29:32Z</time>
      </trkpt>
      <trkpt lat="49.01383" lon="7.78475">
        <ele>242.8</ele>
        <time>2022-05-01T07:29:33Z</time>
      </trkpt>
      <trkpt lat="49.01385" lon="7.78474">
        <ele>242.8</ele>
        <time>2022-05-01T07:29:34Z</time>
      </trkpt>
      <trkpt lat="49.01387" lon="7.78472">
        <ele>243</ele>
        <time>2022-05-01T07:29:35Z</time>
      </trkpt>
      <trkpt lat="49.01389" lon="7.78471">
        <ele>243</ele>
        <time>2022-05-01T07:29:36Z</time>
      </trkpt>
      <trkpt lat="49.01391" lon="7.78469">
        <ele>243.2</ele>
        <time>2022-05-01T07:29:37Z</time>
      </trkpt>
      <trkpt lat="49.01392" lon="7.78467">
        <ele>243.4</ele>
        <time>2022-05-01T07:29:38Z</time>
      </trkpt>
      <trkpt lat="49.01394" lon="7.78464">
        <ele>243.4</ele>
        <time>2022-05-01T07:29:39Z</time>
      </trkpt>
      <trkpt lat="49.01396" lon="7.78462">
        <ele>243.6</ele>
        <time>2022-05-01T07:29:40Z</time>
      </trkpt>
      <trkpt lat="49.01398" lon="7.78461">
        <ele>243.8</ele>
        <time>2022-05-01T07:29:41Z</time>
      </trkpt>
      <trkpt lat="49.01402" lon="7.7846">
        <ele>244</ele>
        <time>2022-05-01T07:29:42Z</time>
      </trkpt>
      <trkpt lat="49.01405" lon="7.78458">
        <ele>244.2</ele>
        <time>2022-05-01T07:29:43Z</time>
      </trkpt>
      <trkpt lat="49.01406" lon="7.78455">
        <ele>244.4</ele>
        <time>2022-05-01T07:29:44Z</time>
      </trkpt>
      <trkpt lat="49.01407" lon="7.78451">
        <ele>244.4</ele>
        <time>2022-05-01T07:29:45Z</time>
      </trkpt>
      <trkpt lat="49.01409" lon="7.78448">
        <ele>244.6</ele>
        <time>2022-05-01T07:29:46Z</time>
      </trkpt>
      <trkpt lat="49.01411" lon="7.78446">
        <ele>244.8</ele>
        <time>2022-05-01T07:29:47Z</time>
      </trkpt>
      <trkpt lat="49.01411" lon="7.78444">
        <ele>244.8</ele>
        <time>2022-05-01T07:29:48Z</time>
      </trkpt>
      <trkpt lat="49.01412" lon="7.78441">
        <ele>245</ele>
        <time>2022-05-01T07:29:49Z</time>
      </trkpt>
      <trkpt lat="49.01414" lon="7.78438">
        <ele>245</ele>
        <time>2022-05-01T07:29:50Z</time>
      </trkpt>
      <trkpt lat="49.01415" lon="7.78435">
        <ele>245.2</ele>
        <time>2022-05-01T07:29:51Z</time>
      </trkpt>
      <trkpt lat="49.01417" lon="7.78432">
        <ele>245.4</ele>
        <time>2022-05-01T07:29:52Z</time>
      </trkpt>
      <trkpt lat="49.01419" lon="7.78429">
        <ele>245.6</ele>
        <time>2022-05-01T07:29:53Z</time>
      </trkpt>
      <trkpt lat="49.01421" lon="7.78426">
        <ele>245.8</ele>
        <time>2022-05-01T07:29:54Z</time>
      </trkpt>
      <trkpt lat="49.01422" lon="7.78424">
        <ele>245.8</ele>
        <time>2022-05-01T07:29:55Z</time>
      </trkpt>
      <trkpt lat="49.01424" lon="7.78422">
        <ele>246</ele>
        <time>2022-05-01T07:29:56Z</time>
      </trkpt>
      <trkpt lat="49.01426" lon="7.78419">
        <ele>246.2</ele>
        <time>2022-05-01T07:29:57Z</time>
      </trkpt>
      <trkpt lat="49.01427" lon="7.78416">
        <ele>246.4</ele>
        <time>2022-05-01T07:29:58Z</time>
      </trkpt>
      <trkpt lat="49.01428" lon="7.78414">
        <ele>246.4</ele>
        <time>2022-05-01T07:29:59Z</time>
      </trkpt>
      <trkpt lat="49.0143" lon="7.78411">
        <ele>246.6</ele>
        <time>2022-05-01T07:30:00Z</time>
      </trkpt>
      <trkpt lat="49.01432" lon="7.78409">
        <ele>246.8</ele>
        <time>2022-05-01T07:30:01Z</time>
      </trkpt>
      <trkpt lat="49.01433" lon="7.78407">
        <ele>247</ele>
        <time>2022-05-01T07:30:02Z</time>
      </trkpt>
      <trkpt lat="49.01435" lon="7.78405">
        <ele>247</ele>
        <time>2022-05-01T07:30:03Z</time>
      </trkpt>
      <trkpt lat="49.01437" lon="7.78403">
        <ele>247.2</ele>
        <time>2022-05-01T07:30:04Z</time>
      </trkpt>
      <trkpt lat="49.01438" lon="7.78401">
        <ele>247.4</ele>
        <time>2022-05-01T07:30:05Z</time>
      </trkpt>
      <trkpt lat="49.0144" lon="7.78399">
        <ele>247.4</ele>
        <time>2022-05-01T07:30:06Z</time>
      </trkpt>
      <trkpt lat="49.01442" lon="7.78396">
        <ele>247.6</ele>
        <time>2022-05-01T07:30:07Z</time>
      </trkpt>
      <trkpt lat="49.01444" lon="7.78394">
        <ele>247.8</ele>
        <time>2022-05-01T07:30:08Z</time>
      </trkpt>
      <trkpt lat="49.01445" lon="7.78392">
        <ele>247.8</ele>
        <time>2022-05-01T07:30:09Z</time>
      </trkpt>
      <trkpt lat="49.01447" lon="7.78389">
        <ele>248.2</ele>
        <time>2022-05-01T07:30:10Z</time>
      </trkpt>
      <trkpt lat="49.01448" lon="7.78386">
        <ele>248.2</ele>
        <time>2022-05-01T07:30:11Z</time>
      </trkpt>
      <trkpt lat="49.0145" lon="7.78384">
        <ele>248.4</ele>
        <time>2022-05-01T07:30:12Z</time>
      </trkpt>
      <trkpt lat="49.01452" lon="7.78382">
        <ele>248.4</ele>
        <time>2022-05-01T07:30:13Z</time>
      </trkpt>
      <trkpt lat="49.01453" lon="7.78379">
        <ele>248.6</ele>
        <time>2022-05-01T07:30:14Z</time>
      </trkpt>
      <trkpt lat="49.01454" lon="7.78377">
        <ele>248.8</ele>
        <time>2022-05-01T07:30:15Z</time>
      </trkpt>
      <trkpt lat="49.01456" lon="7.78374">
        <ele>249</ele>
        <time>2022-05-01T07:30:16Z</time>
      </trkpt>
      <trkpt lat="49.01457" lon="7.78371">
        <ele>249</ele>
        <time>2022-05-01T07:30:17Z</time>
      </trkpt>
      <trkpt lat="49.01458" lon="7.78368">
        <ele>249.2</ele>
        <time>2022-05-01T07:30:18Z</time>
      </trkpt>
      <trkpt lat="49.01459" lon="7.78364">
        <ele>249.4</ele>
        <time>2022-05-01T07:30:19Z</time>
      </trkpt>
      <trkpt lat="49.01459" lon="7.78361">
        <ele>249.6</ele>
        <time>2022-05-01T07:30:20Z</time>
      </trkpt>
      <trkpt lat="49.01459" lon="7.78358">
        <ele>249.8</ele>
        <time>2022-05-01T07:30:21Z</time>
      </trkpt>
      <trkpt lat="49.01461" lon="7.78355">
        <ele>250</ele>
        <time>2022-05-01T07:30:22Z</time>
      </trkpt>
      <trkpt lat="49.01462" lon="7.78352">
        <ele>250.4</ele>
        <time>2022-05-01T07:30:23Z</time>
      </trkpt>
      <trkpt lat="49.01464" lon="7.78349">
        <ele>250.4</ele>
        <time>2022-05-01T07:30:24Z</time>
      </trkpt>
      <trkpt lat="49.01466" lon="7.78347">
        <ele>250.8</ele>
        <time>2022-05-01T07:30:25Z</time>
      </trkpt>
      <trkpt lat="49.01468" lon="7.78345">
        <ele>251</ele>
        <time>2022-05-01T07:30:26Z</time>
      </trkpt>
      <trkpt lat="49.0147" lon="7.78345">
        <ele>251.2</ele>
        <time>2022-05-01T07:30:27Z</time>
      </trkpt>
      <trkpt lat="49.01473" lon="7.78344">
        <ele>251.4</ele>
        <time>2022-05-01T07:30:28Z</time>
      </trkpt>
      <trkpt lat="49.01475" lon="7.78345">
        <ele>251.6</ele>
        <time>2022-05-01T07:30:29Z</time>
      </trkpt>
      <trkpt lat="49.01476" lon="7.78346">
        <ele>252</ele>
        <time>2022-05-01T07:30:30Z</time>
      </trkpt>
      <trkpt lat="49.01477" lon="7.78346">
        <ele>252.2</ele>
        <time>2022-05-01T07:30:31Z</time>
      </trkpt>
      <trkpt lat="49.01479" lon="7.78348">
        <ele>252.4</ele>
        <time>2022-05-01T07:30:32Z</time>
      </trkpt>
      <trkpt lat="49.01481" lon="7.7835">
        <ele>252.4</ele>
        <time>2022-05-01T07:30:33Z</time>
      </trkpt>
      <trkpt lat="49.01483" lon="7.78353">
        <ele>252.6</ele>
        <time>2022-05-01T07:30:34Z</time>
      </trkpt>
      <trkpt lat="49.01484" lon="7.78355">
        <ele>253</ele>
        <time>2022-05-01T07:30:35Z</time>
      </trkpt>
      <trkpt lat="49.01487" lon="7.78357">
        <ele>253</ele>
        <time>2022-05-01T07:30:36Z</time>
      </trkpt>
      <trkpt lat="49.01488" lon="7.78358">
        <ele>253</ele>
        <time>2022-05-01T07:30:37Z</time>
      </trkpt>
      <trkpt lat="49.01491" lon="7.78361">
        <ele>253.2</ele>
        <time>2022-05-01T07:30:38Z</time>
      </trkpt>
      <trkpt lat="49.01493" lon="7.78363">
        <ele>253.4</ele>
        <time>2022-05-01T07:30:39Z</time>
      </trkpt>
      <trkpt lat="49.01494" lon="7.78365">
        <ele>253.4</ele>
        <time>2022-05-01T07:30:40Z</time>
      </trkpt>
      <trkpt lat="49.01496" lon="7.78368">
        <ele>253.6</ele>
        <time>2022-05-01T07:30:41Z</time>
      </trkpt>
      <trkpt lat="49.01497" lon="7.78369">
        <ele>253.8</ele>
        <time>2022-05-01T07:30:42Z</time>
      </trkpt>
      <trkpt lat="49.01499" lon="7.78372">
        <ele>253.8</ele>
        <time>2022-05-01T07:30:43Z</time>
      </trkpt>
      <trkpt lat="49.01501" lon="7.78374">
        <ele>254</ele>
        <time>2022-05-01T07:30:44Z</time>
      </trkpt>
      <trkpt lat="49.01502" lon="7.78376">
        <ele>254.2</ele>
        <time>2022-05-01T07:30:45Z</time>
      </trkpt>
      <trkpt lat="49.01504" lon="7.78378">
        <ele>254.2</ele>
        <time>2022-05-01T07:30:46Z</time>
      </trkpt>
      <trkpt lat="49.01506" lon="7.78381">
        <ele>254.4</ele>
        <time>2022-05-01T07:30:47Z</time>
      </trkpt>
      <trkpt lat="49.01508" lon="7.78383">
        <ele>254.4</ele>
        <time>2022-05-01T07:30:48Z</time>
      </trkpt>
      <trkpt lat="49.0151" lon="7.78386">
        <ele>254.6</ele>
        <time>2022-05-01T07:30:49Z</time>
      </trkpt>
      <trkpt lat="49.01511" lon="7.78388">
        <ele>254.6</ele>
        <time>2022-05-01T07:30:50Z</time>
      </trkpt>
      <trkpt lat="49.01512" lon="7.78391">
        <ele>254.6</ele>
        <time>2022-05-01T07:30:51Z</time>
      </trkpt>
      <trkpt lat="49.01514" lon="7.78394">
        <ele>254.8</ele>
        <time>2022-05-01T07:30:52Z</time>
      </trkpt>
      <trkpt lat="49.01515" lon="7.78396">
        <ele>255</ele>
        <time>2022-05-01T07:30:53Z</time>
      </trkpt>
      <trkpt lat="49.01517" lon="7.78399">
        <ele>255.2</ele>
        <time>2022-05-01T07:30:54Z</time>
      </trkpt>
      <trkpt lat="49.01518" lon="7.78401">
        <ele>255.2</ele>
        <time>2022-05-01T07:30:55Z</time>
      </trkpt>
      <trkpt lat="49.0152" lon="7.78405">
        <ele>255.6</ele>
        <time>2022-05-01T07:30:56Z</time>
      </trkpt>
      <trkpt lat="49.01523" lon="7.78408">
        <ele>255.8</ele>
        <time>2022-05-01T07:30:57Z</time>
      </trkpt>
      <trkpt lat="49.01525" lon="7.7841">
        <ele>255.8</ele>
        <time>2022-05-01T07:30:58Z</time>
      </trkpt>
      <trkpt lat="49.01527" lon="7.78414">
        <ele>256</ele>
        <time>2022-05-01T07:30:59Z</time>
      </trkpt>
      <trkpt lat="49.01527" lon="7.78416">
        <ele>256</ele>
        <time>2022-05-01T07:31:00Z</time>
      </trkpt>
      <trkpt lat="49.01529" lon="7.78418">
        <ele>256.2</ele>
        <time>2022-05-01T07:31:01Z</time>
      </trkpt>
      <trkpt lat="49.01531" lon="7.78421">
        <ele>256.4</ele>
        <time>2022-05-01T07:31:02Z</time>
      </trkpt>
      <trkpt lat="49.01532" lon="7.78424">
        <ele>256.6</ele>
        <time>2022-05-01T07:31:03Z</time>
      </trkpt>
      <trkpt lat="49.01534" lon="7.78427">
        <ele>256.6</ele>
        <time>2022-05-01T07:31:04Z</time>
      </trkpt>
      <trkpt lat="49.01535" lon="7.78428">
        <ele>256.6</ele>
        <time>2022-05-01T07:31:05Z</time>
      </trkpt>
      <trkpt lat="49.01536" lon="7.78431">
        <ele>256.8</ele>
        <time>2022-05-01T07:31:06Z</time>
      </trkpt>
      <trkpt lat="49.01538" lon="7.78434">
        <ele>257</ele>
        <time>2022-05-01T07:31:07Z</time>
      </trkpt>
      <trkpt lat="49.01539" lon="7.78437">
        <ele>257</ele>
        <time>2022-05-01T07:31:08Z</time>
      </trkpt>
      <trkpt lat="49.01541" lon="7.7844">
        <ele>257.2</ele>
        <time>2022-05-01T07:31:09Z</time>
      </trkpt>
      <trkpt lat="49.01543" lon="7.78442">
        <ele>257.2</ele>
        <time>2022-05-01T07:31:10Z</time>
      </trkpt>
      <trkpt lat="49.01545" lon="7.78445">
        <ele>257.4</ele>
        <time>2022-05-01T07:31:11Z</time>
      </trkpt>
      <trkpt lat="49.01547" lon="7.78447">
        <ele>257.4</ele>
        <time>2022-05-01T07:31:12Z</time>
      </trkpt>
      <trkpt lat="49.01549" lon="7.78449">
        <ele>257.8</ele>
        <time>2022-05-01T07:31:13Z</time>
      </trkpt>
      <trkpt lat="49.01551" lon="7.78451">
        <ele>257.8</ele>
        <time>2022-05-01T07:31:14Z</time>
      </trkpt>
      <trkpt lat="49.01552" lon="7.78453">
        <ele>258</ele>
        <time>2022-05-01T07:31:15Z</time>
      </trkpt>
      <trkpt lat="49.01554" lon="7.78455">
        <ele>258.2</ele>
        <time>2022-05-01T07:31:16Z</time>
      </trkpt>
      <trkpt lat="49.01557" lon="7.78458">
        <ele>258.4</ele>
        <time>2022-05-01T07:31:17Z</time>
      </trkpt>
      <trkpt lat="49.01559" lon="7.7846">
        <ele>258.6</ele>
        <time>2022-05-01T07:31:18Z</time>
      </trkpt>
      <trkpt lat="49.01561" lon="7.78463">
        <ele>258.8</ele>
        <time>2022-05-01T07:31:19Z</time>
      </trkpt>
      <trkpt lat="49.01563" lon="7.78465">
        <ele>259</ele>
        <time>2022-05-01T07:31:20Z</time>
      </trkpt>
      <trkpt lat="49.01565" lon="7.78467">
        <ele>259.2</ele>
        <time>2022-05-01T07:31:21Z</time>
      </trkpt>
      <trkpt lat="49.01568" lon="7.7847">
        <ele>259.4</ele>
        <time>2022-05-01T07:31:22Z</time>
      </trkpt>
      <trkpt lat="49.0157" lon="7.78473">
        <ele>259.4</ele>
        <time>2022-05-01T07:31:23Z</time>
      </trkpt>
      <trkpt lat="49.01572" lon="7.78475">
        <ele>259.6</ele>
        <time>2022-05-01T07:31:24Z</time>
      </trkpt>
      <trkpt lat="49.01573" lon="7.78476">
        <ele>259.8</ele>
        <time>2022-05-01T07:31:25Z</time>
      </trkpt>
      <trkpt lat="49.01574" lon="7.78479">
        <ele>259.8</ele>
        <time>2022-05-01T07:31:26Z</time>
      </trkpt>
      <trkpt lat="49.01575" lon="7.78481">
        <ele>260</ele>
        <time>2022-05-01T07:31:27Z</time>
      </trkpt>
      <trkpt lat="49.01577" lon="7.78484">
        <ele>260</ele>
        <time>2022-05-01T07:31:28Z</time>
      </trkpt>
      <trkpt lat="49.01579" lon="7.78486">
        <ele>260.2</ele>
        <time>2022-05-01T07:31:29Z</time>
      </trkpt>
      <trkpt lat="49.01581" lon="7.78489">
        <ele>260.2</ele>
        <time>2022-05-01T07:31:30Z</time>
      </trkpt>
      <trkpt lat="49.01583" lon="7.78491">
        <ele>260.4</ele>
        <time>2022-05-01T07:31:31Z</time>
      </trkpt>
      <trkpt lat="49.01584" lon="7.78494">
        <ele>260.6</ele>
        <time>2022-05-01T07:31:32Z</time>
      </trkpt>
      <trkpt lat="49.01586" lon="7.78497">
        <ele>260.8</ele>
        <time>2022-05-01T07:31:33Z</time>
      </trkpt>
      <trkpt lat="49.01588" lon="7.78499">
        <ele>261</ele>
        <time>2022-05-01T07:31:34Z</time>
      </trkpt>
      <trkpt lat="49.0159" lon="7.78502">
        <ele>261.2</ele>
        <time>2022-05-01T07:31:35Z</time>
      </trkpt>
      <trkpt lat="49.01591" lon="7.78504">
        <ele>261.4</ele>
        <time>2022-05-01T07:31:36Z</time>
      </trkpt>
      <trkpt lat="49.01593" lon="7.78508">
        <ele>261.6</ele>
        <time>2022-05-01T07:31:37Z</time>
      </trkpt>
      <trkpt lat="49.01595" lon="7.7851">
        <ele>261.8</ele>
        <time>2022-05-01T07:31:38Z</time>
      </trkpt>
      <trkpt lat="49.01598" lon="7.78512">
        <ele>261.8</ele>
        <time>2022-05-01T07:31:39Z</time>
      </trkpt>
      <trkpt lat="49.016" lon="7.78515">
        <ele>262</ele>
        <time>2022-05-01T07:31:40Z</time>
      </trkpt>
      <trkpt lat="49.01602" lon="7.78516">
        <ele>262.2</ele>
        <time>2022-05-01T07:31:41Z</time>
      </trkpt>
      <trkpt lat="49.01604" lon="7.78518">
        <ele>262.4</ele>
        <time>2022-05-01T07:31:42Z</time>
      </trkpt>
      <trkpt lat="49.01605" lon="7.78521">
        <ele>262.6</ele>
        <time>2022-05-01T07:31:43Z</time>
      </trkpt>
      <trkpt lat="49.01606" lon="7.78524">
        <ele>262.8</ele>
        <time>2022-05-01T07:31:44Z</time>
      </trkpt>
      <trkpt lat="49.01609" lon="7.78527">
        <ele>263</ele>
        <time>2022-05-01T07:31:45Z</time>
      </trkpt>
      <trkpt lat="49.01612" lon="7.78529">
        <ele>263.2</ele>
        <time>2022-05-01T07:31:46Z</time>
      </trkpt>
      <trkpt lat="49.01614" lon="7.78532">
        <ele>263.4</ele>
        <time>2022-05-01T07:31:47Z</time>
      </trkpt>
      <trkpt lat="49.01616" lon="7.78534">
        <ele>263.4</ele>
        <time>2022-05-01T07:31:48Z</time>
      </trkpt>
      <trkpt lat="49.01618" lon="7.78536">
        <ele>263.6</ele>
        <time>2022-05-01T07:31:49Z</time>
      </trkpt>
      <trkpt lat="49.01621" lon="7.78539">
        <ele>263.6</ele>
        <time>2022-05-01T07:31:50Z</time>
      </trkpt>
      <trkpt lat="49.01623" lon="7.78542">
        <ele>263.8</ele>
        <time>2022-05-01T07:31:51Z</time>
      </trkpt>
      <trkpt lat="49.01625" lon="7.78545">
        <ele>263.8</ele>
        <time>2022-05-01T07:31:52Z</time>
      </trkpt>
      <trkpt lat="49.01626" lon="7.78547">
        <ele>264</ele>
        <time>2022-05-01T07:31:53Z</time>
      </trkpt>
      <trkpt lat="49.01629" lon="7.78552">
        <ele>264.2</ele>
        <time>2022-05-01T07:31:54Z</time>
      </trkpt>
      <trkpt lat="49.01632" lon="7.78556">
        <ele>264.4</ele>
        <time>2022-05-01T07:31:55Z</time>
      </trkpt>
      <trkpt lat="49.01635" lon="7.78557">
        <ele>264.6</ele>
        <time>2022-05-01T07:31:56Z</time>
      </trkpt>
      <trkpt lat="49.01637" lon="7.78559">
        <ele>264.6</ele>
        <time>2022-05-01T07:31:57Z</time>
      </trkpt>
      <trkpt lat="49.01639" lon="7.78561">
        <ele>264.8</ele>
        <time>2022-05-01T07:31:58Z</time>
      </trkpt>
      <trkpt lat="49.01641" lon="7.78563">
        <ele>265</ele>
        <time>2022-05-01T07:31:59Z</time>
      </trkpt>
      <trkpt lat="49.01642" lon="7.78565">
        <ele>265</ele>
        <time>2022-05-01T07:32:00Z</time>
      </trkpt>
      <trkpt lat="49.01644" lon="7.78567">
        <ele>265.2</ele>
        <time>2022-05-01T07:32:01Z</time>
      </trkpt>
      <trkpt lat="49.01645" lon="7.78569">
        <ele>265.4</ele>
        <time>2022-05-01T07:32:02Z</time>
      </trkpt>
      <trkpt lat="49.01647" lon="7.78572">
        <ele>265.6</ele>
        <time>2022-05-01T07:32:03Z</time>
      </trkpt>
      <trkpt lat="49.01651" lon="7.78576">
        <ele>265.8</ele>
        <time>2022-05-01T07:32:04Z</time>
      </trkpt>
      <trkpt lat="49.01652" lon="7.78578">
        <ele>266</ele>
        <time>2022-05-01T07:32:05Z</time>
      </trkpt>
      <trkpt lat="49.01654" lon="7.7858">
        <ele>266.2</ele>
        <time>2022-05-01T07:32:06Z</time>
      </trkpt>
      <trkpt lat="49.01657" lon="7.78582">
        <ele>266.4</ele>
        <time>2022-05-01T07:32:07Z</time>
      </trkpt>
      <trkpt lat="49.01657" lon="7.78585">
        <ele>266.4</ele>
        <time>2022-05-01T07:32:08Z</time>
      </trkpt>
      <trkpt lat="49.0166" lon="7.78588">
        <ele>266.6</ele>
        <time>2022-05-01T07:32:09Z</time>
      </trkpt>
      <trkpt lat="49.01663" lon="7.78591">
        <ele>266.8</ele>
        <time>2022-05-01T07:32:10Z</time>
      </trkpt>
      <trkpt lat="49.01665" lon="7.78593">
        <ele>266.8</ele>
        <time>2022-05-01T07:32:11Z</time>
      </trkpt>
      <trkpt lat="49.01667" lon="7.78595">
        <ele>267</ele>
        <time>2022-05-01T07:32:12Z</time>
      </trkpt>
      <trkpt lat="49.01669" lon="7.78597">
        <ele>267.2</ele>
        <time>2022-05-01T07:32:13Z</time>
      </trkpt>
      <trkpt lat="49.01672" lon="7.78601">
        <ele>267.2</ele>
        <time>2022-05-01T07:32:14Z</time>
      </trkpt>
      <trkpt lat="49.01676" lon="7.78604">
        <ele>267.4</ele>
        <time>2022-05-01T07:32:15Z</time>
      </trkpt>
      <trkpt lat="49.01678" lon="7.78606">
        <ele>267.6</ele>
        <time>2022-05-01T07:32:16Z</time>
      </trkpt>
      <trkpt lat="49.01679" lon="7.78608">
        <ele>267.6</ele>
        <time>2022-05-01T07:32:17Z</time>
      </trkpt>
      <trkpt lat="49.01681" lon="7.78611">
        <ele>267.6</ele>
        <time>2022-05-01T07:32:18Z</time>
      </trkpt>
      <trkpt lat="49.01683" lon="7.78615">
        <ele>267.8</ele>
        <time>2022-05-01T07:32:19Z</time>
      </trkpt>
      <trkpt lat="49.01686" lon="7.78617">
        <ele>268</ele>
        <time>2022-05-01T07:32:20Z</time>
      </trkpt>
      <trkpt lat="49.01688" lon="7.78619">
        <ele>268.2</ele>
        <time>2022-05-01T07:32:21Z</time>
      </trkpt>
      <trkpt lat="49.0169" lon="7.78621">
        <ele>268.4</ele>
        <time>2022-05-01T07:32:22Z</time>
      </trkpt>
      <trkpt lat="49.01692" lon="7.78623">
        <ele>268.6</ele>
        <time>2022-05-01T07:32:23Z</time>
      </trkpt>
      <trkpt lat="49.01694" lon="7.78625">
        <ele>268.8</ele>
        <time>2022-05-01T07:32:24Z</time>
      </trkpt>
      <trkpt lat="49.01695" lon="7.78626">
        <ele>269.2</ele>
        <time>2022-05-01T07:32:25Z</time>
      </trkpt>
      <trkpt lat="49.01697" lon="7.78628">
        <ele>269.4</ele>
        <time>2022-05-01T07:32:26Z</time>
      </trkpt>
      <trkpt lat="49.01698" lon="7.78629">
        <ele>269.4</ele>
        <time>2022-05-01T07:32:27Z</time>
      </trkpt>
      <trkpt lat="49.01699" lon="7.78631">
        <ele>269.6</ele>
        <time>2022-05-01T07:32:28Z</time>
      </trkpt>
      <trkpt lat="49.01701" lon="7.78633">
        <ele>269.8</ele>
        <time>2022-05-01T07:32:29Z</time>
      </trkpt>
      <trkpt lat="49.01702" lon="7.78635">
        <ele>270</ele>
        <time>2022-05-01T07:32:30Z</time>
      </trkpt>
      <trkpt lat="49.01704" lon="7.78637">
        <ele>270.2</ele>
        <time>2022-05-01T07:32:31Z</time>
      </trkpt>
      <trkpt lat="49.01706" lon="7.78639">
        <ele>270.4</ele>
        <time>2022-05-01T07:32:32Z</time>
      </trkpt>
      <trkpt lat="49.01707" lon="7.78641">
        <ele>270.6</ele>
        <time>2022-05-01T07:32:33Z</time>
      </trkpt>
      <trkpt lat="49.01709" lon="7.78643">
        <ele>270.6</ele>
        <time>2022-05-01T07:32:34Z</time>
      </trkpt>
      <trkpt lat="49.01711" lon="7.78645">
        <ele>270.8</ele>
        <time>2022-05-01T07:32:35Z</time>
      </trkpt>
      <trkpt lat="49.01714" lon="7.78646">
        <ele>271</ele>
        <time>2022-05-01T07:32:36Z</time>
      </trkpt>
      <trkpt lat="49.01716" lon="7.78648">
        <ele>271.2</ele>
        <time>2022-05-01T07:32:37Z</time>
      </trkpt>
      <trkpt lat="49.01719" lon="7.7865">
        <ele>271.2</ele>
        <time>2022-05-01T07:32:38Z</time>
      </trkpt>
      <trkpt lat="49.01721" lon="7.78652">
        <ele>271.4</ele>
        <time>2022-05-01T07:32:39Z</time>
      </trkpt>
      <trkpt lat="49.01723" lon="7.78654">
        <ele>271.6</ele>
        <time>2022-05-01T07:32:40Z</time>
      </trkpt>
      <trkpt lat="49.01725" lon="7.78656">
        <ele>271.8</ele>
        <time>2022-05-01T07:32:41Z</time>
      </trkpt>
      <trkpt lat="49.01727" lon="7.78658">
        <ele>271.8</ele>
        <time>2022-05-01T07:32:42Z</time>
      </trkpt>
      <trkpt lat="49.01729" lon="7.7866">
        <ele>272</ele>
        <time>2022-05-01T07:32:43Z</time>
      </trkpt>
      <trkpt lat="49.01731" lon="7.78661">
        <ele>272.2</ele>
        <time>2022-05-01T07:32:44Z</time>
      </trkpt>
      <trkpt lat="49.01733" lon="7.78664">
        <ele>272.4</ele>
        <time>2022-05-01T07:32:45Z</time>
      </trkpt>
      <trkpt lat="49.01736" lon="7.78666">
        <ele>272.4</ele>
        <time>2022-05-01T07:32:46Z</time>
      </trkpt>
      <trkpt lat="49.01738" lon="7.78669">
        <ele>272.6</ele>
        <time>2022-05-01T07:32:47Z</time>
      </trkpt>
      <trkpt lat="49.01741" lon="7.78671">
        <ele>273</ele>
        <time>2022-05-01T07:32:48Z</time>
      </trkpt>
      <trkpt lat="49.01743" lon="7.78673">
        <ele>273.2</ele>
        <time>2022-05-01T07:32:49Z</time>
      </trkpt>
      <trkpt lat="49.01745" lon="7.78674">
        <ele>273.4</ele>
        <time>2022-05-01T07:32:50Z</time>
      </trkpt>
      <trkpt lat="49.01746" lon="7.78676">
        <ele>273.6</ele>
        <time>2022-05-01T07:32:51Z</time>
      </trkpt>
      <trkpt lat="49.01747" lon="7.78677">
        <ele>273.8</ele>
        <time>2022-05-01T07:32:52Z</time>
      </trkpt>
      <trkpt lat="49.01747" lon="7.78678">
        <ele>274</ele>
        <time>2022-05-01T07:32:53Z</time>
      </trkpt>
      <trkpt lat="49.01749" lon="7.7868">
        <ele>274.2</ele>
        <time>2022-05-01T07:32:54Z</time>
      </trkpt>
      <trkpt lat="49.01752" lon="7.78682">
        <ele>274.4</ele>
        <time>2022-05-01T07:32:55Z</time>
      </trkpt>
      <trkpt lat="49.01755" lon="7.78685">
        <ele>274.6</ele>
        <time>2022-05-01T07:32:56Z</time>
      </trkpt>
      <trkpt lat="49.01757" lon="7.78688">
        <ele>274.8</ele>
        <time>2022-05-01T07:32:57Z</time>
      </trkpt>
      <trkpt lat="49.01759" lon="7.78691">
        <ele>274.8</ele>
        <time>2022-05-01T07:32:58Z</time>
      </trkpt>
      <trkpt lat="49.01762" lon="7.78693">
        <ele>275</ele>
        <time>2022-05-01T07:32:59Z</time>
      </trkpt>
      <trkpt lat="49.01764" lon="7.78696">
        <ele>275.2</ele>
        <time>2022-05-01T07:33:00Z</time>
      </trkpt>
      <trkpt lat="49.01766" lon="7.78699">
        <ele>275.4</ele>
        <time>2022-05-01T07:33:01Z</time>
      </trkpt>
      <trkpt lat="49.01768" lon="7.78701">
        <ele>275.6</ele>
        <time>2022-05-01T07:33:02Z</time>
      </trkpt>
      <trkpt lat="49.01771" lon="7.78704">
        <ele>275.6</ele>
        <time>2022-05-01T07:33:03Z</time>
      </trkpt>
      <trkpt lat="49.01775" lon="7.78707">
        <ele>275.8</ele>
        <time>2022-05-01T07:33:04Z</time>
      </trkpt>
      <trkpt lat="49.01777" lon="7.7871">
        <ele>275.8</ele>
        <time>2022-05-01T07:33:05Z</time>
      </trkpt>
      <trkpt lat="49.01779" lon="7.78712">
        <ele>276</ele>
        <time>2022-05-01T07:33:06Z</time>
      </trkpt>
      <trkpt lat="49.01781" lon="7.78715">
        <ele>276.2</ele>
        <time>2022-05-01T07:33:07Z</time>
      </trkpt>
      <trkpt lat="49.01785" lon="7.78718">
        <ele>276.2</ele>
        <time>2022-05-01T07:33:08Z</time>
      </trkpt>
      <trkpt lat="49.01785" lon="7.7872">
        <ele>276.4</ele>
        <time>2022-05-01T07:33:09Z</time>
      </trkpt>
      <trkpt lat="49.01787" lon="7.78723">
        <ele>276.6</ele>
        <time>2022-05-01T07:33:10Z</time>
      </trkpt>
      <trkpt lat="49.01788" lon="7.78725">
        <ele>276.8</ele>
        <time>2022-05-01T07:33:11Z</time>
      </trkpt>
      <trkpt lat="49.0179" lon="7.78727">
        <ele>277</ele>
        <time>2022-05-01T07:33:12Z</time>
      </trkpt>
      <trkpt lat="49.01792" lon="7.78731">
        <ele>277</ele>
        <time>2022-05-01T07:33:13Z</time>
      </trkpt>
      <trkpt lat="49.01795" lon="7.78734">
        <ele>277.2</ele>
        <time>2022-05-01T07:33:14Z</time>
      </trkpt>
      <trkpt lat="49.01798" lon="7.78737">
        <ele>277.4</ele>
        <time>2022-05-01T07:33:15Z</time>
      </trkpt>
      <trkpt lat="49.018" lon="7.78739">
        <ele>277.6</ele>
        <time>2022-05-01T07:33:16Z</time>
      </trkpt>
      <trkpt lat="49.01801" lon="7.7874">
        <ele>277.6</ele>
        <time>2022-05-01T07:33:17Z</time>
      </trkpt>
      <trkpt lat="49.01803" lon="7.78742">
        <ele>277.8</ele>
        <time>2022-05-01T07:33:18Z</time>
      </trkpt>
      <trkpt lat="49.01805" lon="7.78744">
        <ele>278</ele>
        <time>2022-05-01T07:33:19Z</time>
      </trkpt>
      <trkpt lat="49.01807" lon="7.78745">
        <ele>278</ele>
        <time>2022-05-01T07:33:20Z</time>
      </trkpt>
      <trkpt lat="49.01808" lon="7.78747">
        <ele>278</ele>
        <time>2022-05-01T07:33:21Z</time>
      </trkpt>
      <trkpt lat="49.0181" lon="7.78749">
        <ele>278.2</ele>
        <time>2022-05-01T07:33:22Z</time>
      </trkpt>
      <trkpt lat="49.01812" lon="7.7875">
        <ele>278.6</ele>
        <time>2022-05-01T07:33:23Z</time>
      </trkpt>
      <trkpt lat="49.01813" lon="7.78752">
        <ele>278.8</ele>
        <time>2022-05-01T07:33:24Z</time>
      </trkpt>
      <trkpt lat="49.01815" lon="7.78755">
        <ele>279</ele>
        <time>2022-05-01T07:33:25Z</time>
      </trkpt>
      <trkpt lat="49.01817" lon="7.78758">
        <ele>279.2</ele>
        <time>2022-05-01T07:33:26Z</time>
      </trkpt>
      <trkpt lat="49.0182" lon="7.7876">
        <ele>279.2</ele>
        <time>2022-05-01T07:33:27Z</time>
      </trkpt>
      <trkpt lat="49.01822" lon="7.78762">
        <ele>279.4</ele>
        <time>2022-05-01T07:33:28Z</time>
      </trkpt>
      <trkpt lat="49.01824" lon="7.78764">
        <ele>279.4</ele>
        <time>2022-05-01T07:33:29Z</time>
      </trkpt>
      <trkpt lat="49.01828" lon="7.78766">
        <ele>279.8</ele>
        <time>2022-05-01T07:33:30Z</time>
      </trkpt>
      <trkpt lat="49.01831" lon="7.78768">
        <ele>279.8</ele>
        <time>2022-05-01T07:33:31Z</time>
      </trkpt>
      <trkpt lat="49.01834" lon="7.7877">
        <ele>280</ele>
        <time>2022-05-01T07:33:32Z</time>
      </trkpt>
      <trkpt lat="49.01836" lon="7.78772">
        <ele>280</ele>
        <time>2022-05-01T07:33:33Z</time>
      </trkpt>
      <trkpt lat="49.01838" lon="7.78775">
        <ele>280.2</ele>
        <time>2022-05-01T07:33:34Z</time>
      </trkpt>
      <trkpt lat="49.01841" lon="7.78777">
        <ele>280.4</ele>
        <time>2022-05-01T07:33:35Z</time>
      </trkpt>
      <trkpt lat="49.01843" lon="7.78779">
        <ele>280.4</ele>
        <time>2022-05-01T07:33:36Z</time>
      </trkpt>
      <trkpt lat="49.01845" lon="7.78782">
        <ele>280.6</ele>
        <time>2022-05-01T07:33:37Z</time>
      </trkpt>
      <trkpt lat="49.01847" lon="7.78784">
        <ele>280.8</ele>
        <time>2022-05-01T07:33:38Z</time>
      </trkpt>
      <trkpt lat="49.01849" lon="7.78787">
        <ele>281</ele>
        <time>2022-05-01T07:33:39Z</time>
      </trkpt>
      <trkpt lat="49.0185" lon="7.78789">
        <ele>281</ele>
        <time>2022-05-01T07:33:40Z</time>
      </trkpt>
      <trkpt lat="49.01852" lon="7.78793">
        <ele>281.2</ele>
        <time>2022-05-01T07:33:41Z</time>
      </trkpt>
      <trkpt lat="49.01855" lon="7.78796">
        <ele>281.4</ele>
        <time>2022-05-01T07:33:42Z</time>
      </trkpt>
      <trkpt lat="49.01858" lon="7.788">
        <ele>281.6</ele>
        <time>2022-05-01T07:33:43Z</time>
      </trkpt>
      <trkpt lat="49.0186" lon="7.78803">
        <ele>281.8</ele>
        <time>2022-05-01T07:33:44Z</time>
      </trkpt>
      <trkpt lat="49.01863" lon="7.78806">
        <ele>281.8</ele>
        <time>2022-05-01T07:33:45Z</time>
      </trkpt>
      <trkpt lat="49.01864" lon="7.78809">
        <ele>282</ele>
        <time>2022-05-01T07:33:46Z</time>
      </trkpt>
      <trkpt lat="49.01865" lon="7.78812">
        <ele>282.2</ele>
        <time>2022-05-01T07:33:47Z</time>
      </trkpt>
      <trkpt lat="49.01868" lon="7.78814">
        <ele>282.4</ele>
        <time>2022-05-01T07:33:48Z</time>
      </trkpt>
      <trkpt lat="49.0187" lon="7.78816">
        <ele>282.4</ele>
        <time>2022-05-01T07:33:49Z</time>
      </trkpt>
      <trkpt lat="49.01872" lon="7.78817">
        <ele>282.6</ele>
        <time>2022-05-01T07:33:50Z</time>
      </trkpt>
      <trkpt lat="49.01874" lon="7.7882">
        <ele>282.8</ele>
        <time>2022-05-01T07:33:51Z</time>
      </trkpt>
      <trkpt lat="49.01879" lon="7.78824">
        <ele>283</ele>
        <time>2022-05-01T07:33:52Z</time>
      </trkpt>
      <trkpt lat="49.01883" lon="7.78826">
        <ele>283.2</ele>
        <time>2022-05-01T07:33:53Z</time>
      </trkpt>
      <trkpt lat="49.01884" lon="7.78828">
        <ele>283.2</ele>
        <time>2022-05-01T07:33:54Z</time>
      </trkpt>
      <trkpt lat="49.01885" lon="7.7883">
        <ele>283.4</ele>
        <time>2022-05-01T07:33:55Z</time>
      </trkpt>
      <trkpt lat="49.01887" lon="7.78833">
        <ele>283.6</ele>
        <time>2022-05-01T07:33:56Z</time>
      </trkpt>
      <trkpt lat="49.01887" lon="7.78836">
        <ele>283.8</ele>
        <time>2022-05-01T07:33:57Z</time>
      </trkpt>
      <trkpt lat="49.01888" lon="7.78839">
        <ele>283.8</ele>
        <time>2022-05-01T07:33:58Z</time>
      </trkpt>
      <trkpt lat="49.0189" lon="7.78842">
        <ele>284</ele>
        <time>2022-05-01T07:33:59Z</time>
      </trkpt>
      <trkpt lat="49.01893" lon="7.78844">
        <ele>284</ele>
        <time>2022-05-01T07:34:00Z</time>
      </trkpt>
      <trkpt lat="49.01895" lon="7.78847">
        <ele>284.2</ele>
        <time>2022-05-01T07:34:01Z</time>
      </trkpt>
      <trkpt lat="49.01898" lon="7.7885">
        <ele>284.4</ele>
        <time>2022-05-01T07:34:02Z</time>
      </trkpt>
      <trkpt lat="49.01903" lon="7.78852">
        <ele>284.6</ele>
        <time>2022-05-01T07:34:03Z</time>
      </trkpt>
      <trkpt lat="49.01907" lon="7.78854">
        <ele>284.8</ele>
        <time>2022-05-01T07:34:04Z</time>
      </trkpt>
      <trkpt lat="49.0191" lon="7.78857">
        <ele>284.8</ele>
        <time>2022-05-01T07:34:05Z</time>
      </trkpt>
      <trkpt lat="49.01912" lon="7.78858">
        <ele>285</ele>
        <time>2022-05-01T07:34:06Z</time>
      </trkpt>
      <trkpt lat="49.01915" lon="7.78858">
        <ele>285.2</ele>
        <time>2022-05-01T07:34:07Z</time>
      </trkpt>
      <trkpt lat="49.01914" lon="7.78861">
        <ele>285.2</ele>
        <time>2022-05-01T07:34:08Z</time>
      </trkpt>
      <trkpt lat="49.01914" lon="7.78865">
        <ele>285.4</ele>
        <time>2022-05-01T07:34:09Z</time>
      </trkpt>
      <trkpt lat="49.01916" lon="7.78868">
        <ele>285.4</ele>
        <time>2022-05-01T07:34:10Z</time>
      </trkpt>
      <trkpt lat="49.01918" lon="7.78871">
        <ele>285.6</ele>
        <time>2022-05-01T07:34:11Z</time>
      </trkpt>
      <trkpt lat="49.0192" lon="7.78872">
        <ele>285.8</ele>
        <time>2022-05-01T07:34:12Z</time>
      </trkpt>
      <trkpt lat="49.01921" lon="7.78874">
        <ele>286</ele>
        <time>2022-05-01T07:34:13Z</time>
      </trkpt>
      <trkpt lat="49.01923" lon="7.78876">
        <ele>286.2</ele>
        <time>2022-05-01T07:34:14Z</time>
      </trkpt>
      <trkpt lat="49.01925" lon="7.78878">
        <ele>286.4</ele>
        <time>2022-05-01T07:34:15Z</time>
      </trkpt>
      <trkpt lat="49.01926" lon="7.78881">
        <ele>286.6</ele>
        <time>2022-05-01T07:34:16Z</time>
      </trkpt>
      <trkpt lat="49.01928" lon="7.78883">
        <ele>286.8</ele>
        <time>2022-05-01T07:34:17Z</time>
      </trkpt>
      <trkpt lat="49.0193" lon="7.78885">
        <ele>287</ele>
        <time>2022-05-01T07:34:18Z</time>
      </trkpt>
      <trkpt lat="49.01932" lon="7.78888">
        <ele>287</ele>
        <time>2022-05-01T07:34:19Z</time>
      </trkpt>
      <trkpt lat="49.01934" lon="7.7889">
        <ele>287.4</ele>
        <time>2022-05-01T07:34:20Z</time>
      </trkpt>
      <trkpt lat="49.01936" lon="7.78893">
        <ele>287.6</ele>
        <time>2022-05-01T07:34:21Z</time>
      </trkpt>
      <trkpt lat="49.01938" lon="7.78895">
        <ele>287.6</ele>
        <time>2022-05-01T07:34:22Z</time>
      </trkpt>
      <trkpt lat="49.0194" lon="7.78897">
        <ele>287.8</ele>
        <time>2022-05-01T07:34:23Z</time>
      </trkpt>
      <trkpt lat="49.01942" lon="7.78899">
        <ele>288</ele>
        <time>2022-05-01T07:34:24Z</time>
      </trkpt>
      <trkpt lat="49.01944" lon="7.78902">
        <ele>288.2</ele>
        <time>2022-05-01T07:34:25Z</time>
      </trkpt>
      <trkpt lat="49.01946" lon="7.78904">
        <ele>288.4</ele>
        <time>2022-05-01T07:34:26Z</time>
      </trkpt>
      <trkpt lat="49.01948" lon="7.78906">
        <ele>288.6</ele>
        <time>2022-05-01T07:34:27Z</time>
      </trkpt>
      <trkpt lat="49.0195" lon="7.78908">
        <ele>288.8</ele>
        <time>2022-05-01T07:34:28Z</time>
      </trkpt>
      <trkpt lat="49.01952" lon="7.78911">
        <ele>289</ele>
        <time>2022-05-01T07:34:29Z</time>
      </trkpt>
      <trkpt lat="49.01954" lon="7.78913">
        <ele>289.2</ele>
        <time>2022-05-01T07:34:30Z</time>
      </trkpt>
      <trkpt lat="49.01955" lon="7.78916">
        <ele>289.2</ele>
        <time>2022-05-01T07:34:31Z</time>
      </trkpt>
      <trkpt lat="49.01957" lon="7.78919">
        <ele>289.4</ele>
        <time>2022-05-01T07:34:32Z</time>
      </trkpt>
      <trkpt lat="49.01959" lon="7.78921">
        <ele>289.4</ele>
        <time>2022-05-01T07:34:33Z</time>
      </trkpt>
      <trkpt lat="49.01961" lon="7.78923">
        <ele>289.8</ele>
        <time>2022-05-01T07:34:34Z</time>
      </trkpt>
      <trkpt lat="49.01962" lon="7.78924">
        <ele>290</ele>
        <time>2022-05-01T07:34:35Z</time>
      </trkpt>
      <trkpt lat="49.01963" lon="7.78928">
        <ele>290</ele>
        <time>2022-05-01T07:34:36Z</time>
      </trkpt>
      <trkpt lat="49.01966" lon="7.78933">
        <ele>290.2</ele>
        <time>2022-05-01T07:34:37Z</time>
      </trkpt>
      <trkpt lat="49.01967" lon="7.78936">
        <ele>290.6</ele>
        <time>2022-05-01T07:34:38Z</time>
      </trkpt>
      <trkpt lat="49.01969" lon="7.78939">
        <ele>290.8</ele>
        <time>2022-05-01T07:34:39Z</time>
      </trkpt>
      <trkpt lat="49.0197" lon="7.78942">
        <ele>291</ele>
        <time>2022-05-01T07:34:40Z</time>
      </trkpt>
      <trkpt lat="49.01972" lon="7.78946">
        <ele>291.2</ele>
        <time>2022-05-01T07:34:41Z</time>
      </trkpt>
      <trkpt lat="49.01972" lon="7.78947">
        <ele>291.2</ele>
        <time>2022-05-01T07:34:42Z</time>
      </trkpt>
      <trkpt lat="49.01972" lon="7.78949">
        <ele>291.6</ele>
        <time>2022-05-01T07:34:43Z</time>
      </trkpt>
      <trkpt lat="49.01972" lon="7.78951">
        <ele>291.8</ele>
        <time>2022-05-01T07:34:44Z</time>
      </trkpt>
      <trkpt lat="49.01973" lon="7.78953">
        <ele>292</ele>
        <time>2022-05-01T07:34:45Z</time>
      </trkpt>
      <trkpt lat="49.01974" lon="7.78955">
        <ele>292.2</ele>
        <time>2022-05-01T07:34:46Z</time>
      </trkpt>
      <trkpt lat="49.01974" lon="7.78956">
        <ele>292.2</ele>
        <time>2022-05-01T07:34:47Z</time>
      </trkpt>
      <trkpt lat="49.01975" lon="7.78959">
        <ele>292.4</ele>
        <time>2022-05-01T07:34:48Z</time>
      </trkpt>
      <trkpt lat="49.01976" lon="7.78961">
        <ele>292.4</ele>
        <time>2022-05-01T07:34:49Z</time>
      </trkpt>
      <trkpt lat="49.01978" lon="7.78962">
        <ele>292.8</ele>
        <time>2022-05-01T07:34:50Z</time>
      </trkpt>
      <trkpt lat="49.01978" lon="7.78962">
        <ele>292.8</ele>
        <time>2022-05-01T07:34:51Z</time>
      </trkpt>
      <trkpt lat="49.01979" lon="7.78962">
        <ele>293</ele>
        <time>2022-05-01T07:34:52Z</time>
      </trkpt>
      <trkpt lat="49.01981" lon="7.78962">
        <ele>293</ele>
        <time>2022-05-01T07:34:53Z</time>
      </trkpt>
      <trkpt lat="49.01983" lon="7.78962">
        <ele>293.2</ele>
        <time>2022-05-01T07:34:54Z</time>
      </trkpt>
      <trkpt lat="49.01986" lon="7.78962">
        <ele>293.4</ele>
        <time>2022-05-01T07:34:55Z</time>
      </trkpt>
      <trkpt lat="49.01988" lon="7.78962">
        <ele>293.6</ele>
        <time>2022-05-01T07:34:56Z</time>
      </trkpt>
      <trkpt lat="49.0199" lon="7.78962">
        <ele>293.6</ele>
        <time>2022-05-01T07:34:57Z</time>
      </trkpt>
      <trkpt lat="49.01993" lon="7.78963">
        <ele>294</ele>
        <time>2022-05-01T07:34:58Z</time>
      </trkpt>
      <trkpt lat="49.01995" lon="7.78962">
        <ele>294.2</ele>
        <time>2022-05-01T07:34:59Z</time>
      </trkpt>
      <trkpt lat="49.01998" lon="7.78961">
        <ele>294.4</ele>
        <time>2022-05-01T07:35:00Z</time>
      </trkpt>
      <trkpt lat="49.02" lon="7.78961">
        <ele>294.4</ele>
        <time>2022-05-01T07:35:01Z</time>
      </trkpt>
      <trkpt lat="49.02002" lon="7.7896">
        <ele>294.6</ele>
        <time>2022-05-01T07:35:02Z</time>
      </trkpt>
      <trkpt lat="49.02005" lon="7.7896">
        <ele>294.8</ele>
        <time>2022-05-01T07:35:03Z</time>
      </trkpt>
      <trkpt lat="49.02007" lon="7.78959">
        <ele>294.8</ele>
        <time>2022-05-01T07:35:04Z</time>
      </trkpt>
      <trkpt lat="49.0201" lon="7.78959">
        <ele>294.8</ele>
        <time>2022-05-01T07:35:05Z</time>
      </trkpt>
      <trkpt lat="49.02013" lon="7.78959">
        <ele>295</ele>
        <time>2022-05-01T07:35:06Z</time>
      </trkpt>
      <trkpt lat="49.02015" lon="7.78958">
        <ele>295.2</ele>
        <time>2022-05-01T07:35:07Z</time>
      </trkpt>
      <trkpt lat="49.02018" lon="7.78957">
        <ele>295.4</ele>
        <time>2022-05-01T07:35:08Z</time>
      </trkpt>
      <trkpt lat="49.02019" lon="7.78956">
        <ele>295.6</ele>
        <time>2022-05-01T07:35:09Z</time>
      </trkpt>
      <trkpt lat="49.02023" lon="7.78956">
        <ele>295.6</ele>
        <time>2022-05-01T07:35:10Z</time>
      </trkpt>
      <trkpt lat="49.02025" lon="7.78956">
        <ele>295.8</ele>
        <time>2022-05-01T07:35:11Z</time>
      </trkpt>
      <trkpt lat="49.02028" lon="7.78957">
        <ele>296</ele>
        <time>2022-05-01T07:35:12Z</time>
      </trkpt>
      <trkpt lat="49.02031" lon="7.78957">
        <ele>296.2</ele>
        <time>2022-05-01T07:35:13Z</time>
      </trkpt>
      <trkpt lat="49.02034" lon="7.78957">
        <ele>296.4</ele>
        <time>2022-05-01T07:35:14Z</time>
      </trkpt>
      <trkpt lat="49.02037" lon="7.78958">
        <ele>296.6</ele>
        <time>2022-05-01T07:35:15Z</time>
      </trkpt>
      <trkpt lat="49.0204" lon="7.78959">
        <ele>296.8</ele>
        <time>2022-05-01T07:35:16Z</time>
      </trkpt>
      <trkpt lat="49.02043" lon="7.78959">
        <ele>297</ele>
        <time>2022-05-01T07:35:17Z</time>
      </trkpt>
      <trkpt lat="49.02046" lon="7.7896">
        <ele>297.2</ele>
        <time>2022-05-01T07:35:18Z</time>
      </trkpt>
      <trkpt lat="49.02048" lon="7.7896">
        <ele>297.2</ele>
        <time>2022-05-01T07:35:19Z</time>
      </trkpt>
      <trkpt lat="49.0205" lon="7.78961">
        <ele>297.4</ele>
        <time>2022-05-01T07:35:20Z</time>
      </trkpt>
      <trkpt lat="49.02053" lon="7.78963">
        <ele>297.6</ele>
        <time>2022-05-01T07:35:21Z</time>
      </trkpt>
      <trkpt lat="49.02057" lon="7.78963">
        <ele>297.8</ele>
        <time>2022-05-01T07:35:22Z</time>
      </trkpt>
      <trkpt lat="49.0206" lon="7.78964">
        <ele>297.8</ele>
        <time>2022-05-01T07:35:23Z</time>
      </trkpt>
      <trkpt lat="49.02062" lon="7.78963">
        <ele>298</ele>
        <time>2022-05-01T07:35:24Z</time>
      </trkpt>
      <trkpt lat="49.02065" lon="7.78963">
        <ele>298.2</ele>
        <time>2022-05-01T07:35:25Z</time>
      </trkpt>
      <trkpt lat="49.02067" lon="7.78962">
        <ele>298.4</ele>
        <time>2022-05-01T07:35:26Z</time>
      </trkpt>
      <trkpt lat="49.02069" lon="7.78961">
        <ele>298.6</ele>
        <time>2022-05-01T07:35:27Z</time>
      </trkpt>
      <trkpt lat="49.02073" lon="7.78961">
        <ele>298.6</ele>
        <time>2022-05-01T07:35:28Z</time>
      </trkpt>
      <trkpt lat="49.02075" lon="7.78958">
        <ele>298.8</ele>
        <time>2022-05-01T07:35:29Z</time>
      </trkpt>
      <trkpt lat="49.02079" lon="7.78958">
        <ele>299</ele>
        <time>2022-05-01T07:35:30Z</time>
      </trkpt>
      <trkpt lat="49.02082" lon="7.78958">
        <ele>299.2</ele>
        <time>2022-05-01T07:35:31Z</time>
      </trkpt>
      <trkpt lat="49.02084" lon="7.78959">
        <ele>299.4</ele>
        <time>2022-05-01T07:35:32Z</time>
      </trkpt>
      <trkpt lat="49.02088" lon="7.7896">
        <ele>299.4</ele>
        <time>2022-05-01T07:35:33Z</time>
      </trkpt>
      <trkpt lat="49.02091" lon="7.78961">
        <ele>299.6</ele>
        <time>2022-05-01T07:35:34Z</time>
      </trkpt>
      <trkpt lat="49.02094" lon="7.78958">
        <ele>299.8</ele>
        <time>2022-05-01T07:35:35Z</time>
      </trkpt>
      <trkpt lat="49.02097" lon="7.78958">
        <ele>300</ele>
        <time>2022-05-01T07:35:36Z</time>
      </trkpt>
      <trkpt lat="49.021" lon="7.78958">
        <ele>300</ele>
        <time>2022-05-01T07:35:37Z</time>
      </trkpt>
      <trkpt lat="49.02104" lon="7.78957">
        <ele>300</ele>
        <time>2022-05-01T07:35:38Z</time>
      </trkpt>
      <trkpt lat="49.02107" lon="7.78956">
        <ele>300.2</ele>
        <time>2022-05-01T07:35:39Z</time>
      </trkpt>
      <trkpt lat="49.02109" lon="7.78956">
        <ele>300.4</ele>
        <time>2022-05-01T07:35:40Z</time>
      </trkpt>
      <trkpt lat="49.02112" lon="7.78955">
        <ele>300.4</ele>
        <time>2022-05-01T07:35:41Z</time>
      </trkpt>
      <trkpt lat="49.02114" lon="7.78954">
        <ele>300.4</ele>
        <time>2022-05-01T07:35:42Z</time>
      </trkpt>
      <trkpt lat="49.02116" lon="7.78955">
        <ele>300.6</ele>
        <time>2022-05-01T07:35:43Z</time>
      </trkpt>
      <trkpt lat="49.02119" lon="7.78956">
        <ele>300.8</ele>
        <time>2022-05-01T07:35:44Z</time>
      </trkpt>
      <trkpt lat="49.02122" lon="7.78956">
        <ele>301</ele>
        <time>2022-05-01T07:35:45Z</time>
      </trkpt>
      <trkpt lat="49.02124" lon="7.78957">
        <ele>301</ele>
        <time>2022-05-01T07:35:46Z</time>
      </trkpt>
      <trkpt lat="49.02126" lon="7.78958">
        <ele>301.2</ele>
        <time>2022-05-01T07:35:47Z</time>
      </trkpt>
      <trkpt lat="49.02128" lon="7.78958">
        <ele>301.4</ele>
        <time>2022-05-01T07:35:48Z</time>
      </trkpt>
      <trkpt lat="49.0213" lon="7.78958">
        <ele>301.6</ele>
        <time>2022-05-01T07:35:49Z</time>
      </trkpt>
      <trkpt lat="49.02132" lon="7.78957">
        <ele>301.8</ele>
        <time>2022-05-01T07:35:50Z</time>
      </trkpt>
      <trkpt lat="49.02134" lon="7.78956">
        <ele>301.8</ele>
        <time>2022-05-01T07:35:51Z</time>
      </trkpt>
      <trkpt lat="49.02136" lon="7.78955">
        <ele>302.2</ele>
        <time>2022-05-01T07:35:52Z</time>
      </trkpt>
      <trkpt lat="49.02139" lon="7.78955">
        <ele>302.2</ele>
        <time>2022-05-01T07:35:53Z</time>
      </trkpt>
      <trkpt lat="49.02141" lon="7.78955">
        <ele>302.4</ele>
        <time>2022-05-01T07:35:54Z</time>
      </trkpt>
      <trkpt lat="49.02144" lon="7.78954">
        <ele>302.6</ele>
        <time>2022-05-01T07:35:55Z</time>
      </trkpt>
      <trkpt lat="49.02147" lon="7.78953">
        <ele>302.8</ele>
        <time>2022-05-01T07:35:56Z</time>
      </trkpt>
      <trkpt lat="49.0215" lon="7.78952">
        <ele>303</ele>
        <time>2022-05-01T07:35:57Z</time>
      </trkpt>
      <trkpt lat="49.02152" lon="7.78951">
        <ele>303.2</ele>
        <time>2022-05-01T07:35:58Z</time>
      </trkpt>
      <trkpt lat="49.02155" lon="7.7895">
        <ele>303.4</ele>
        <time>2022-05-01T07:35:59Z</time>
      </trkpt>
      <trkpt lat="49.02157" lon="7.78949">
        <ele>303.6</ele>
        <time>2022-05-01T07:36:00Z</time>
      </trkpt>
      <trkpt lat="49.0216" lon="7.78948">
        <ele>303.8</ele>
        <time>2022-05-01T07:36:01Z</time>
      </trkpt>
      <trkpt lat="49.02163" lon="7.78947">
        <ele>304</ele>
        <time>2022-05-01T07:36:02Z</time>
      </trkpt>
      <trkpt lat="49.02167" lon="7.78947">
        <ele>304.2</ele>
        <time>2022-05-01T07:36:03Z</time>
      </trkpt>
      <trkpt lat="49.0217" lon="7.78947">
        <ele>304.4</ele>
        <time>2022-05-01T07:36:04Z</time>
      </trkpt>
      <trkpt lat="49.02172" lon="7.78947">
        <ele>304.4</ele>
        <time>2022-05-01T07:36:05Z</time>
      </trkpt>
      <trkpt lat="49.02175" lon="7.78946">
        <ele>304.6</ele>
        <time>2022-05-01T07:36:06Z</time>
      </trkpt>
      <trkpt lat="49.02179" lon="7.78945">
        <ele>304.8</ele>
        <time>2022-05-01T07:36:07Z</time>
      </trkpt>
      <trkpt lat="49.02181" lon="7.78943">
        <ele>305</ele>
        <time>2022-05-01T07:36:08Z</time>
      </trkpt>
      <trkpt lat="49.02184" lon="7.78943">
        <ele>305</ele>
        <time>2022-05-01T07:36:09Z</time>
      </trkpt>
      <trkpt lat="49.02187" lon="7.78943">
        <ele>305.2</ele>
        <time>2022-05-01T07:36:10Z</time>
      </trkpt>
      <trkpt lat="49.02189" lon="7.78943">
        <ele>305.4</ele>
        <time>2022-05-01T07:36:11Z</time>
      </trkpt>
      <trkpt lat="49.02192" lon="7.78945">
        <ele>305.4</ele>
        <time>2022-05-01T07:36:12Z</time>
      </trkpt>
      <trkpt lat="49.02194" lon="7.78945">
        <ele>305.6</ele>
        <time>2022-05-01T07:36:13Z</time>
      </trkpt>
      <trkpt lat="49.02198" lon="7.78945">
        <ele>305.8</ele>
        <time>2022-05-01T07:36:14Z</time>
      </trkpt>
      <trkpt lat="49.02201" lon="7.78945">
        <ele>305.8</ele>
        <time>2022-05-01T07:36:15Z</time>
      </trkpt>
      <trkpt lat="49.02205" lon="7.78944">
        <ele>306</ele>
        <time>2022-05-01T07:36:16Z</time>
      </trkpt>
      <trkpt lat="49.02208" lon="7.78944">
        <ele>306.2</ele>
        <time>2022-05-01T07:36:17Z</time>
      </trkpt>
      <trkpt lat="49.02209" lon="7.78944">
        <ele>306.4</ele>
        <time>2022-05-01T07:36:18Z</time>
      </trkpt>
      <trkpt lat="49.02212" lon="7.78944">
        <ele>306.4</ele>
        <time>2022-05-01T07:36:19Z</time>
      </trkpt>
      <trkpt lat="49.02214" lon="7.78945">
        <ele>306.6</ele>
        <time>2022-05-01T07:36:20Z</time>
      </trkpt>
      <trkpt lat="49.02216" lon="7.78946">
        <ele>306.8</ele>
        <time>2022-05-01T07:36:21Z</time>
      </trkpt>
      <trkpt lat="49.02218" lon="7.78947">
        <ele>307</ele>
        <time>2022-05-01T07:36:22Z</time>
      </trkpt>
      <trkpt lat="49.0222" lon="7.78946">
        <ele>307.2</ele>
        <time>2022-05-01T07:36:23Z</time>
      </trkpt>
      <trkpt lat="49.02223" lon="7.78946">
        <ele>307.4</ele>
        <time>2022-05-01T07:36:24Z</time>
      </trkpt>
      <trkpt lat="49.02225" lon="7.78946">
        <ele>307.6</ele>
        <time>2022-05-01T07:36:25Z</time>
      </trkpt>
      <trkpt lat="49.02227" lon="7.78947">
        <ele>307.8</ele>
        <time>2022-05-01T07:36:26Z</time>
      </trkpt>
      <trkpt lat="49.0223" lon="7.78947">
        <ele>307.8</ele>
        <time>2022-05-01T07:36:27Z</time>
      </trkpt>
      <trkpt lat="49.02232" lon="7.78947">
        <ele>308.2</ele>
        <time>2022-05-01T07:36:28Z</time>
      </trkpt>
      <trkpt lat="49.02234" lon="7.78946">
        <ele>308.4</ele>
        <time>2022-05-01T07:36:29Z</time>
      </trkpt>
      <trkpt lat="49.02237" lon="7.78945">
        <ele>308.4</ele>
        <time>2022-05-01T07:36:30Z</time>
      </trkpt>
      <trkpt lat="49.0224" lon="7.78946">
        <ele>308.6</ele>
        <time>2022-05-01T07:36:31Z</time>
      </trkpt>
      <trkpt lat="49.02243" lon="7.78946">
        <ele>308.8</ele>
        <time>2022-05-01T07:36:32Z</time>
      </trkpt>
      <trkpt lat="49.02246" lon="7.78946">
        <ele>309</ele>
        <time>2022-05-01T07:36:33Z</time>
      </trkpt>
      <trkpt lat="49.02248" lon="7.78946">
        <ele>309.2</ele>
        <time>2022-05-01T07:36:34Z</time>
      </trkpt>
      <trkpt lat="49.02251" lon="7.78946">
        <ele>309.4</ele>
        <time>2022-05-01T07:36:35Z</time>
      </trkpt>
      <trkpt lat="49.02254" lon="7.78946">
        <ele>309.4</ele>
        <time>2022-05-01T07:36:36Z</time>
      </trkpt>
      <trkpt lat="49.02256" lon="7.78946">
        <ele>309.6</ele>
        <time>2022-05-01T07:36:37Z</time>
      </trkpt>
      <trkpt lat="49.02258" lon="7.78947">
        <ele>309.8</ele>
        <time>2022-05-01T07:36:38Z</time>
      </trkpt>
      <trkpt lat="49.0226" lon="7.78946">
        <ele>309.8</ele>
        <time>2022-05-01T07:36:39Z</time>
      </trkpt>
      <trkpt lat="49.02263" lon="7.78947">
        <ele>310</ele>
        <time>2022-05-01T07:36:40Z</time>
      </trkpt>
      <trkpt lat="49.02266" lon="7.78946">
        <ele>310</ele>
        <time>2022-05-01T07:36:41Z</time>
      </trkpt>
      <trkpt lat="49.02268" lon="7.78946">
        <ele>310.2</ele>
        <time>2022-05-01T07:36:42Z</time>
      </trkpt>
      <trkpt lat="49.0227" lon="7.78946">
        <ele>310.4</ele>
        <time>2022-05-01T07:36:43Z</time>
      </trkpt>
      <trkpt lat="49.02273" lon="7.78946">
        <ele>310.6</ele>
        <time>2022-05-01T07:36:44Z</time>
      </trkpt>
      <trkpt lat="49.02276" lon="7.78947">
        <ele>310.8</ele>
        <time>2022-05-01T07:36:45Z</time>
      </trkpt>
      <trkpt lat="49.02279" lon="7.78947">
        <ele>311</ele>
        <time>2022-05-01T07:36:46Z</time>
      </trkpt>
      <trkpt lat="49.02281" lon="7.78948">
        <ele>311.2</ele>
        <time>2022-05-01T07:36:47Z</time>
      </trkpt>
      <trkpt lat="49.02283" lon="7.78949">
        <ele>311.2</ele>
        <time>2022-05-01T07:36:48Z</time>
      </trkpt>
      <trkpt lat="49.02285" lon="7.78949">
        <ele>311.4</ele>
        <time>2022-05-01T07:36:49Z</time>
      </trkpt>
      <trkpt lat="49.02288" lon="7.78949">
        <ele>311.8</ele>
        <time>2022-05-01T07:36:50Z</time>
      </trkpt>
      <trkpt lat="49.02291" lon="7.78949">
        <ele>312</ele>
        <time>2022-05-01T07:36:51Z</time>
      </trkpt>
      <trkpt lat="49.02294" lon="7.78949">
        <ele>312.2</ele>
        <time>2022-05-01T07:36:52Z</time>
      </trkpt>
      <trkpt lat="49.02296" lon="7.78948">
        <ele>312</ele>
        <time>2022-05-01T07:36:53Z</time>
      </trkpt>
      <trkpt lat="49.02297" lon="7.78948">
        <ele>312.4</ele>
        <time>2022-05-01T07:36:54Z</time>
      </trkpt>
      <trkpt lat="49.023" lon="7.78948">
        <ele>312.6</ele>
        <time>2022-05-01T07:36:55Z</time>
      </trkpt>
      <trkpt lat="49.02303" lon="7.78948">
        <ele>312.6</ele>
        <time>2022-05-01T07:36:56Z</time>
      </trkpt>
      <trkpt lat="49.02306" lon="7.78949">
        <ele>312.6</ele>
        <time>2022-05-01T07:36:57Z</time>
      </trkpt>
      <trkpt lat="49.02309" lon="7.78948">
        <ele>313</ele>
        <time>2022-05-01T07:36:58Z</time>
      </trkpt>
      <trkpt lat="49.02311" lon="7.78949">
        <ele>313.2</ele>
        <time>2022-05-01T07:36:59Z</time>
      </trkpt>
      <trkpt lat="49.02316" lon="7.78949">
        <ele>313.4</ele>
        <time>2022-05-01T07:37:00Z</time>
      </trkpt>
      <trkpt lat="49.02319" lon="7.7895">
        <ele>313.4</ele>
        <time>2022-05-01T07:37:01Z</time>
      </trkpt>
      <trkpt lat="49.02322" lon="7.78952">
        <ele>313.6</ele>
        <time>2022-05-01T07:37:02Z</time>
      </trkpt>
      <trkpt lat="49.02324" lon="7.78954">
        <ele>313.8</ele>
        <time>2022-05-01T07:37:03Z</time>
      </trkpt>
      <trkpt lat="49.02326" lon="7.78955">
        <ele>314</ele>
        <time>2022-05-01T07:37:04Z</time>
      </trkpt>
      <trkpt lat="49.02328" lon="7.78955">
        <ele>314</ele>
        <time>2022-05-01T07:37:05Z</time>
      </trkpt>
      <trkpt lat="49.0233" lon="7.78956">
        <ele>314.2</ele>
        <time>2022-05-01T07:37:06Z</time>
      </trkpt>
      <trkpt lat="49.02333" lon="7.78956">
        <ele>314.4</ele>
        <time>2022-05-01T07:37:07Z</time>
      </trkpt>
      <trkpt lat="49.02338" lon="7.78961">
        <ele>314.4</ele>
        <time>2022-05-01T07:37:08Z</time>
      </trkpt>
      <trkpt lat="49.0234" lon="7.78963">
        <ele>314.6</ele>
        <time>2022-05-01T07:37:09Z</time>
      </trkpt>
      <trkpt lat="49.02344" lon="7.78963">
        <ele>314.6</ele>
        <time>2022-05-01T07:37:10Z</time>
      </trkpt>
      <trkpt lat="49.02347" lon="7.7896">
        <ele>314.8</ele>
        <time>2022-05-01T07:37:11Z</time>
      </trkpt>
      <trkpt lat="49.02348" lon="7.7896">
        <ele>314.8</ele>
        <time>2022-05-01T07:37:12Z</time>
      </trkpt>
      <trkpt lat="49.02351" lon="7.78959">
        <ele>315</ele>
        <time>2022-05-01T07:37:13Z</time>
      </trkpt>
      <trkpt lat="49.02353" lon="7.78959">
        <ele>315.2</ele>
        <time>2022-05-01T07:37:14Z</time>
      </trkpt>
      <trkpt lat="49.02356" lon="7.78959">
        <ele>315.2</ele>
        <time>2022-05-01T07:37:15Z</time>
      </trkpt>
      <trkpt lat="49.02358" lon="7.7896">
        <ele>315.4</ele>
        <time>2022-05-01T07:37:16Z</time>
      </trkpt>
      <trkpt lat="49.0236" lon="7.78961">
        <ele>315.6</ele>
        <time>2022-05-01T07:37:17Z</time>
      </trkpt>
      <trkpt lat="49.02362" lon="7.78963">
        <ele>315.6</ele>
        <time>2022-05-01T07:37:18Z</time>
      </trkpt>
      <trkpt lat="49.02367" lon="7.78964">
        <ele>315.8</ele>
        <time>2022-05-01T07:37:19Z</time>
      </trkpt>
      <trkpt lat="49.02369" lon="7.78964">
        <ele>316</ele>
        <time>2022-05-01T07:37:20Z</time>
      </trkpt>
      <trkpt lat="49.02372" lon="7.78964">
        <ele>316</ele>
        <time>2022-05-01T07:37:21Z</time>
      </trkpt>
      <trkpt lat="49.02374" lon="7.78964">
        <ele>316.2</ele>
        <time>2022-05-01T07:37:22Z</time>
      </trkpt>
      <trkpt lat="49.02377" lon="7.78965">
        <ele>316.2</ele>
        <time>2022-05-01T07:37:23Z</time>
      </trkpt>
      <trkpt lat="49.0238" lon="7.78966">
        <ele>316.4</ele>
        <time>2022-05-01T07:37:24Z</time>
      </trkpt>
      <trkpt lat="49.02382" lon="7.78967">
        <ele>316.6</ele>
        <time>2022-05-01T07:37:25Z</time>
      </trkpt>
      <trkpt lat="49.02385" lon="7.78968">
        <ele>316.6</ele>
        <time>2022-05-01T07:37:26Z</time>
      </trkpt>
      <trkpt lat="49.02388" lon="7.78969">
        <ele>316.8</ele>
        <time>2022-05-01T07:37:27Z</time>
      </trkpt>
      <trkpt lat="49.0239" lon="7.78969">
        <ele>316.8</ele>
        <time>2022-05-01T07:37:28Z</time>
      </trkpt>
      <trkpt lat="49.02392" lon="7.78969">
        <ele>317</ele>
        <time>2022-05-01T07:37:29Z</time>
      </trkpt>
      <trkpt lat="49.02394" lon="7.78969">
        <ele>317.2</ele>
        <time>2022-05-01T07:37:30Z</time>
      </trkpt>
      <trkpt lat="49.02396" lon="7.7897">
        <ele>317.2</ele>
        <time>2022-05-01T07:37:31Z</time>
      </trkpt>
      <trkpt lat="49.02398" lon="7.78971">
        <ele>317.4</ele>
        <time>2022-05-01T07:37:32Z</time>
      </trkpt>
      <trkpt lat="49.024" lon="7.78973">
        <ele>317.6</ele>
        <time>2022-05-01T07:37:33Z</time>
      </trkpt>
      <trkpt lat="49.02403" lon="7.78974">
        <ele>317.6</ele>
        <time>2022-05-01T07:37:34Z</time>
      </trkpt>
      <trkpt lat="49.02405" lon="7.78974">
        <ele>317.8</ele>
        <time>2022-05-01T07:37:35Z</time>
      </trkpt>
      <trkpt lat="49.02408" lon="7.78975">
        <ele>318</ele>
        <time>2022-05-01T07:37:36Z</time>
      </trkpt>
      <trkpt lat="49.02411" lon="7.78975">
        <ele>318.2</ele>
        <time>2022-05-01T07:37:37Z</time>
      </trkpt>
      <trkpt lat="49.02413" lon="7.78976">
        <ele>318.4</ele>
        <time>2022-05-01T07:37:38Z</time>
      </trkpt>
      <trkpt lat="49.02415" lon="7.78977">
        <ele>318.6</ele>
        <time>2022-05-01T07:37:39Z</time>
      </trkpt>
      <trkpt lat="49.02418" lon="7.78978">
        <ele>318.8</ele>
        <time>2022-05-01T07:37:40Z</time>
      </trkpt>
      <trkpt lat="49.02421" lon="7.7898">
        <ele>319</ele>
        <time>2022-05-01T07:37:41Z</time>
      </trkpt>
      <trkpt lat="49.02425" lon="7.78982">
        <ele>319.2</ele>
        <time>2022-05-01T07:37:42Z</time>
      </trkpt>
      <trkpt lat="49.02429" lon="7.78985">
        <ele>319.2</ele>
        <time>2022-05-01T07:37:43Z</time>
      </trkpt>
      <trkpt lat="49.02432" lon="7.78985">
        <ele>319.4</ele>
        <time>2022-05-01T07:37:44Z</time>
      </trkpt>
      <trkpt lat="49.02434" lon="7.78987">
        <ele>319.6</ele>
        <time>2022-05-01T07:37:45Z</time>
      </trkpt>
      <trkpt lat="49.02437" lon="7.78989">
        <ele>319.6</ele>
        <time>2022-05-01T07:37:46Z</time>
      </trkpt>
      <trkpt lat="49.0244" lon="7.78991">
        <ele>319.8</ele>
        <time>2022-05-01T07:37:47Z</time>
      </trkpt>
      <trkpt lat="49.02442" lon="7.78993">
        <ele>320</ele>
        <time>2022-05-01T07:37:48Z</time>
      </trkpt>
      <trkpt lat="49.02445" lon="7.78996">
        <ele>320.2</ele>
        <time>2022-05-01T07:37:49Z</time>
      </trkpt>
      <trkpt lat="49.02448" lon="7.78998">
        <ele>320.2</ele>
        <time>2022-05-01T07:37:50Z</time>
      </trkpt>
      <trkpt lat="49.0245" lon="7.79">
        <ele>320.4</ele>
        <time>2022-05-01T07:37:51Z</time>
      </trkpt>
      <trkpt lat="49.02452" lon="7.79001">
        <ele>320.6</ele>
        <time>2022-05-01T07:37:52Z</time>
      </trkpt>
      <trkpt lat="49.02455" lon="7.79003">
        <ele>320.8</ele>
        <time>2022-05-01T07:37:53Z</time>
      </trkpt>
      <trkpt lat="49.02457" lon="7.79005">
        <ele>320.8</ele>
        <time>2022-05-01T07:37:54Z</time>
      </trkpt>
      <trkpt lat="49.02459" lon="7.79007">
        <ele>321</ele>
        <time>2022-05-01T07:37:55Z</time>
      </trkpt>
      <trkpt lat="49.02462" lon="7.7901">
        <ele>321.2</ele>
        <time>2022-05-01T07:37:56Z</time>
      </trkpt>
      <trkpt lat="49.02464" lon="7.79012">
        <ele>321.6</ele>
        <time>2022-05-01T07:37:57Z</time>
      </trkpt>
      <trkpt lat="49.02466" lon="7.79014">
        <ele>321.8</ele>
        <time>2022-05-01T07:37:58Z</time>
      </trkpt>
      <trkpt lat="49.02468" lon="7.79016">
        <ele>321.8</ele>
        <time>2022-05-01T07:37:59Z</time>
      </trkpt>
      <trkpt lat="49.0247" lon="7.79018">
        <ele>322</ele>
        <time>2022-05-01T07:38:00Z</time>
      </trkpt>
      <trkpt lat="49.02472" lon="7.79021">
        <ele>322.2</ele>
        <time>2022-05-01T07:38:01Z</time>
      </trkpt>
      <trkpt lat="49.02474" lon="7.79023">
        <ele>322.4</ele>
        <time>2022-05-01T07:38:02Z</time>
      </trkpt>
      <trkpt lat="49.02477" lon="7.79026">
        <ele>322.6</ele>
        <time>2022-05-01T07:38:03Z</time>
      </trkpt>
      <trkpt lat="49.02479" lon="7.79029">
        <ele>322.8</ele>
        <time>2022-05-01T07:38:04Z</time>
      </trkpt>
      <trkpt lat="49.02482" lon="7.79032">
        <ele>323</ele>
        <time>2022-05-01T07:38:05Z</time>
      </trkpt>
      <trkpt lat="49.02484" lon="7.79035">
        <ele>323.4</ele>
        <time>2022-05-01T07:38:06Z</time>
      </trkpt>
      <trkpt lat="49.02486" lon="7.79037">
        <ele>323.6</ele>
        <time>2022-05-01T07:38:07Z</time>
      </trkpt>
      <trkpt lat="49.02488" lon="7.7904">
        <ele>323.8</ele>
        <time>2022-05-01T07:38:08Z</time>
      </trkpt>
      <trkpt lat="49.02491" lon="7.79042">
        <ele>323.8</ele>
        <time>2022-05-01T07:38:09Z</time>
      </trkpt>
      <trkpt lat="49.02493" lon="7.79045">
        <ele>323.8</ele>
        <time>2022-05-01T07:38:10Z</time>
      </trkpt>
      <trkpt lat="49.02495" lon="7.79048">
        <ele>324</ele>
        <time>2022-05-01T07:38:11Z</time>
      </trkpt>
      <trkpt lat="49.02498" lon="7.79051">
        <ele>324.4</ele>
        <time>2022-05-01T07:38:12Z</time>
      </trkpt>
      <trkpt lat="49.025" lon="7.79054">
        <ele>324.4</ele>
        <time>2022-05-01T07:38:13Z</time>
      </trkpt>
      <trkpt lat="49.02502" lon="7.79058">
        <ele>324.4</ele>
        <time>2022-05-01T07:38:14Z</time>
      </trkpt>
      <trkpt lat="49.02504" lon="7.7906">
        <ele>324.6</ele>
        <time>2022-05-01T07:38:15Z</time>
      </trkpt>
      <trkpt lat="49.02507" lon="7.79063">
        <ele>324.8</ele>
        <time>2022-05-01T07:38:16Z</time>
      </trkpt>
      <trkpt lat="49.02509" lon="7.79067">
        <ele>325</ele>
        <time>2022-05-01T07:38:17Z</time>
      </trkpt>
      <trkpt lat="49.02511" lon="7.79069">
        <ele>325</ele>
        <time>2022-05-01T07:38:18Z</time>
      </trkpt>
      <trkpt lat="49.02513" lon="7.79072">
        <ele>325.2</ele>
        <time>2022-05-01T07:38:19Z</time>
      </trkpt>
      <trkpt lat="49.02515" lon="7.79075">
        <ele>325.4</ele>
        <time>2022-05-01T07:38:20Z</time>
      </trkpt>
      <trkpt lat="49.02517" lon="7.79077">
        <ele>325.4</ele>
        <time>2022-05-01T07:38:21Z</time>
      </trkpt>
      <trkpt lat="49.0252" lon="7.79079">
        <ele>325.6</ele>
        <time>2022-05-01T07:38:22Z</time>
      </trkpt>
      <trkpt lat="49.02522" lon="7.79081">
        <ele>325.8</ele>
        <time>2022-05-01T07:38:23Z</time>
      </trkpt>
      <trkpt lat="49.02524" lon="7.79084">
        <ele>326</ele>
        <time>2022-05-01T07:38:24Z</time>
      </trkpt>
      <trkpt lat="49.02526" lon="7.79086">
        <ele>326</ele>
        <time>2022-05-01T07:38:25Z</time>
      </trkpt>
      <trkpt lat="49.02528" lon="7.79089">
        <ele>326.2</ele>
        <time>2022-05-01T07:38:26Z</time>
      </trkpt>
      <trkpt lat="49.02529" lon="7.79091">
        <ele>326.4</ele>
        <time>2022-05-01T07:38:27Z</time>
      </trkpt>
      <trkpt lat="49.02531" lon="7.79094">
        <ele>326.6</ele>
        <time>2022-05-01T07:38:28Z</time>
      </trkpt>
      <trkpt lat="49.02533" lon="7.79097">
        <ele>326.6</ele>
        <time>2022-05-01T07:38:29Z</time>
      </trkpt>
      <trkpt lat="49.02535" lon="7.79099">
        <ele>326.8</ele>
        <time>2022-05-01T07:38:30Z</time>
      </trkpt>
      <trkpt lat="49.02537" lon="7.79102">
        <ele>327</ele>
        <time>2022-05-01T07:38:31Z</time>
      </trkpt>
      <trkpt lat="49.02539" lon="7.79105">
        <ele>327.2</ele>
        <time>2022-05-01T07:38:32Z</time>
      </trkpt>
      <trkpt lat="49.02542" lon="7.79107">
        <ele>327.2</ele>
        <time>2022-05-01T07:38:33Z</time>
      </trkpt>
      <trkpt lat="49.02543" lon="7.7911">
        <ele>327.4</ele>
        <time>2022-05-01T07:38:34Z</time>
      </trkpt>
      <trkpt lat="49.02545" lon="7.79113">
        <ele>327.6</ele>
        <time>2022-05-01T07:38:35Z</time>
      </trkpt>
      <trkpt lat="49.02548" lon="7.79116">
        <ele>327.8</ele>
        <time>2022-05-01T07:38:36Z</time>
      </trkpt>
      <trkpt lat="49.0255" lon="7.79119">
        <ele>328</ele>
        <time>2022-05-01T07:38:37Z</time>
      </trkpt>
      <trkpt lat="49.02552" lon="7.79122">
        <ele>328.2</ele>
        <time>2022-05-01T07:38:38Z</time>
      </trkpt>
      <trkpt lat="49.02554" lon="7.79124">
        <ele>328.2</ele>
        <time>2022-05-01T07:38:39Z</time>
      </trkpt>
      <trkpt lat="49.02555" lon="7.79126">
        <ele>328.4</ele>
        <time>2022-05-01T07:38:40Z</time>
      </trkpt>
      <trkpt lat="49.02557" lon="7.79129">
        <ele>328.4</ele>
        <time>2022-05-01T07:38:41Z</time>
      </trkpt>
      <trkpt lat="49.02559" lon="7.79131">
        <ele>328.8</ele>
        <time>2022-05-01T07:38:42Z</time>
      </trkpt>
      <trkpt lat="49.0256" lon="7.79133">
        <ele>329</ele>
        <time>2022-05-01T07:38:43Z</time>
      </trkpt>
      <trkpt lat="49.02561" lon="7.79135">
        <ele>329.2</ele>
        <time>2022-05-01T07:38:44Z</time>
      </trkpt>
      <trkpt lat="49.02562" lon="7.79138">
        <ele>329.4</ele>
        <time>2022-05-01T07:38:45Z</time>
      </trkpt>
      <trkpt lat="49.02564" lon="7.79141">
        <ele>329.6</ele>
        <time>2022-05-01T07:38:46Z</time>
      </trkpt>
      <trkpt lat="49.02565" lon="7.79144">
        <ele>329.6</ele>
        <time>2022-05-01T07:38:47Z</time>
      </trkpt>
      <trkpt lat="49.02567" lon="7.79148">
        <ele>329.8</ele>
        <time>2022-05-01T07:38:48Z</time>
      </trkpt>
      <trkpt lat="49.02569" lon="7.79152">
        <ele>330</ele>
        <time>2022-05-01T07:38:49Z</time>
      </trkpt>
      <trkpt lat="49.02571" lon="7.79155">
        <ele>330.2</ele>
        <time>2022-05-01T07:38:50Z</time>
      </trkpt>
      <trkpt lat="49.02574" lon="7.79159">
        <ele>330.4</ele>
        <time>2022-05-01T07:38:51Z</time>
      </trkpt>
      <trkpt lat="49.02575" lon="7.79163">
        <ele>330.6</ele>
        <time>2022-05-01T07:38:52Z</time>
      </trkpt>
      <trkpt lat="49.02576" lon="7.79165">
        <ele>330.6</ele>
        <time>2022-05-01T07:38:53Z</time>
      </trkpt>
      <trkpt lat="49.02575" lon="7.79167">
        <ele>330.8</ele>
        <time>2022-05-01T07:38:54Z</time>
      </trkpt>
      <trkpt lat="49.02576" lon="7.79171">
        <ele>331</ele>
        <time>2022-05-01T07:38:55Z</time>
      </trkpt>
      <trkpt lat="49.02577" lon="7.79174">
        <ele>331.2</ele>
        <time>2022-05-01T07:38:56Z</time>
      </trkpt>
      <trkpt lat="49.0258" lon="7.79178">
        <ele>331.2</ele>
        <time>2022-05-01T07:38:57Z</time>
      </trkpt>
      <trkpt lat="49.02584" lon="7.79183">
        <ele>331.4</ele>
        <time>2022-05-01T07:38:58Z</time>
      </trkpt>
      <trkpt lat="49.02587" lon="7.79187">
        <ele>331.6</ele>
        <time>2022-05-01T07:38:59Z</time>
      </trkpt>
      <trkpt lat="49.02589" lon="7.79189">
        <ele>331.8</ele>
        <time>2022-05-01T07:39:00Z</time>
      </trkpt>
      <trkpt lat="49.02593" lon="7.79193">
        <ele>332.2</ele>
        <time>2022-05-01T07:39:01Z</time>
      </trkpt>
      <trkpt lat="49.02596" lon="7.79197">
        <ele>332.4</ele>
        <time>2022-05-01T07:39:02Z</time>
      </trkpt>
      <trkpt lat="49.02599" lon="7.792">
        <ele>332.4</ele>
        <time>2022-05-01T07:39:03Z</time>
      </trkpt>
      <trkpt lat="49.02601" lon="7.79204">
        <ele>332.6</ele>
        <time>2022-05-01T07:39:04Z</time>
      </trkpt>
      <trkpt lat="49.02603" lon="7.79207">
        <ele>332.6</ele>
        <time>2022-05-01T07:39:05Z</time>
      </trkpt>
      <trkpt lat="49.02606" lon="7.7921">
        <ele>332.8</ele>
        <time>2022-05-01T07:39:06Z</time>
      </trkpt>
      <trkpt lat="49.02608" lon="7.79214">
        <ele>332.8</ele>
        <time>2022-05-01T07:39:07Z</time>
      </trkpt>
      <trkpt lat="49.0261" lon="7.79218">
        <ele>333</ele>
        <time>2022-05-01T07:39:08Z</time>
      </trkpt>
      <trkpt lat="49.02613" lon="7.79221">
        <ele>333.2</ele>
        <time>2022-05-01T07:39:09Z</time>
      </trkpt>
      <trkpt lat="49.02615" lon="7.79224">
        <ele>333.4</ele>
        <time>2022-05-01T07:39:10Z</time>
      </trkpt>
      <trkpt lat="49.02616" lon="7.79227">
        <ele>333.4</ele>
        <time>2022-05-01T07:39:11Z</time>
      </trkpt>
      <trkpt lat="49.02617" lon="7.79229">
        <ele>333.6</ele>
        <time>2022-05-01T07:39:12Z</time>
      </trkpt>
      <trkpt lat="49.02618" lon="7.79233">
        <ele>333.8</ele>
        <time>2022-05-01T07:39:13Z</time>
      </trkpt>
      <trkpt lat="49.02619" lon="7.79236">
        <ele>334</ele>
        <time>2022-05-01T07:39:14Z</time>
      </trkpt>
      <trkpt lat="49.0262" lon="7.79238">
        <ele>334</ele>
        <time>2022-05-01T07:39:15Z</time>
      </trkpt>
      <trkpt lat="49.02621" lon="7.79242">
        <ele>334.2</ele>
        <time>2022-05-01T07:39:16Z</time>
      </trkpt>
      <trkpt lat="49.02623" lon="7.79245">
        <ele>334.2</ele>
        <time>2022-05-01T07:39:17Z</time>
      </trkpt>
      <trkpt lat="49.02624" lon="7.79247">
        <ele>334.4</ele>
        <time>2022-05-01T07:39:18Z</time>
      </trkpt>
      <trkpt lat="49.02626" lon="7.7925">
        <ele>334.6</ele>
        <time>2022-05-01T07:39:19Z</time>
      </trkpt>
      <trkpt lat="49.02627" lon="7.79253">
        <ele>334.8</ele>
        <time>2022-05-01T07:39:20Z</time>
      </trkpt>
      <trkpt lat="49.02629" lon="7.79256">
        <ele>335</ele>
        <time>2022-05-01T07:39:21Z</time>
      </trkpt>
      <trkpt lat="49.02631" lon="7.79259">
        <ele>335</ele>
        <time>2022-05-01T07:39:22Z</time>
      </trkpt>
      <trkpt lat="49.02632" lon="7.79262">
        <ele>335.2</ele>
        <time>2022-05-01T07:39:23Z</time>
      </trkpt>
      <trkpt lat="49.02633" lon="7.79266">
        <ele>335.6</ele>
        <time>2022-05-01T07:39:24Z</time>
      </trkpt>
      <trkpt lat="49.02635" lon="7.79269">
        <ele>335.6</ele>
        <time>2022-05-01T07:39:25Z</time>
      </trkpt>
      <trkpt lat="49.02637" lon="7.79272">
        <ele>335.8</ele>
        <time>2022-05-01T07:39:26Z</time>
      </trkpt>
      <trkpt lat="49.0264" lon="7.79275">
        <ele>335.8</ele>
        <time>2022-05-01T07:39:27Z</time>
      </trkpt>
      <trkpt lat="49.02642" lon="7.79278">
        <ele>336</ele>
        <time>2022-05-01T07:39:28Z</time>
      </trkpt>
      <trkpt lat="49.02643" lon="7.79281">
        <ele>336.2</ele>
        <time>2022-05-01T07:39:29Z</time>
      </trkpt>
      <trkpt lat="49.02646" lon="7.79284">
        <ele>336.4</ele>
        <time>2022-05-01T07:39:30Z</time>
      </trkpt>
      <trkpt lat="49.02648" lon="7.79287">
        <ele>336.6</ele>
        <time>2022-05-01T07:39:31Z</time>
      </trkpt>
      <trkpt lat="49.0265" lon="7.7929">
        <ele>336.6</ele>
        <time>2022-05-01T07:39:32Z</time>
      </trkpt>
      <trkpt lat="49.02651" lon="7.79294">
        <ele>336.8</ele>
        <time>2022-05-01T07:39:33Z</time>
      </trkpt>
      <trkpt lat="49.02653" lon="7.79297">
        <ele>337</ele>
        <time>2022-05-01T07:39:34Z</time>
      </trkpt>
      <trkpt lat="49.02655" lon="7.79301">
        <ele>337.2</ele>
        <time>2022-05-01T07:39:35Z</time>
      </trkpt>
      <trkpt lat="49.02657" lon="7.79304">
        <ele>337.4</ele>
        <time>2022-05-01T07:39:36Z</time>
      </trkpt>
      <trkpt lat="49.02659" lon="7.79307">
        <ele>337.4</ele>
        <time>2022-05-01T07:39:37Z</time>
      </trkpt>
      <trkpt lat="49.0266" lon="7.7931">
        <ele>337.6</ele>
        <time>2022-05-01T07:39:38Z</time>
      </trkpt>
      <trkpt lat="49.02662" lon="7.79314">
        <ele>338</ele>
        <time>2022-05-01T07:39:39Z</time>
      </trkpt>
      <trkpt lat="49.02664" lon="7.79317">
        <ele>338.4</ele>
        <time>2022-05-01T07:39:40Z</time>
      </trkpt>
      <trkpt lat="49.02666" lon="7.7932">
        <ele>338.4</ele>
        <time>2022-05-01T07:39:41Z</time>
      </trkpt>
      <trkpt lat="49.02667" lon="7.79323">
        <ele>338.6</ele>
        <time>2022-05-01T07:39:42Z</time>
      </trkpt>
      <trkpt lat="49.02669" lon="7.79326">
        <ele>338.6</ele>
        <time>2022-05-01T07:39:43Z</time>
      </trkpt>
      <trkpt lat="49.02671" lon="7.79329">
        <ele>338.8</ele>
        <time>2022-05-01T07:39:44Z</time>
      </trkpt>
      <trkpt lat="49.02672" lon="7.79333">
        <ele>339</ele>
        <time>2022-05-01T07:39:45Z</time>
      </trkpt>
      <trkpt lat="49.02673" lon="7.79336">
        <ele>339.2</ele>
        <time>2022-05-01T07:39:46Z</time>
      </trkpt>
      <trkpt lat="49.02674" lon="7.79339">
        <ele>339.2</ele>
        <time>2022-05-01T07:39:47Z</time>
      </trkpt>
      <trkpt lat="49.02677" lon="7.79341">
        <ele>339.4</ele>
        <time>2022-05-01T07:39:48Z</time>
      </trkpt>
      <trkpt lat="49.02679" lon="7.79344">
        <ele>339.6</ele>
        <time>2022-05-01T07:39:49Z</time>
      </trkpt>
      <trkpt lat="49.02682" lon="7.79346">
        <ele>339.8</ele>
        <time>2022-05-01T07:39:50Z</time>
      </trkpt>
      <trkpt lat="49.02684" lon="7.79349">
        <ele>340</ele>
        <time>2022-05-01T07:39:51Z</time>
      </trkpt>
      <trkpt lat="49.02687" lon="7.79351">
        <ele>340.2</ele>
        <time>2022-05-01T07:39:52Z</time>
      </trkpt>
      <trkpt lat="49.02689" lon="7.79354">
        <ele>340.2</ele>
        <time>2022-05-01T07:39:53Z</time>
      </trkpt>
      <trkpt lat="49.02691" lon="7.79356">
        <ele>340.4</ele>
        <time>2022-05-01T07:39:54Z</time>
      </trkpt>
      <trkpt lat="49.02692" lon="7.79358">
        <ele>340.4</ele>
        <time>2022-05-01T07:39:55Z</time>
      </trkpt>
      <trkpt lat="49.02695" lon="7.79361">
        <ele>340.6</ele>
        <time>2022-05-01T07:39:56Z</time>
      </trkpt>
      <trkpt lat="49.02697" lon="7.79364">
        <ele>340.6</ele>
        <time>2022-05-01T07:39:57Z</time>
      </trkpt>
      <trkpt lat="49.027" lon="7.79366">
        <ele>340.8</ele>
        <time>2022-05-01T07:39:58Z</time>
      </trkpt>
      <trkpt lat="49.02701" lon="7.79368">
        <ele>341</ele>
        <time>2022-05-01T07:39:59Z</time>
      </trkpt>
      <trkpt lat="49.02703" lon="7.7937">
        <ele>341.2</ele>
        <time>2022-05-01T07:40:00Z</time>
      </trkpt>
      <trkpt lat="49.02705" lon="7.79373">
        <ele>341.4</ele>
        <time>2022-05-01T07:40:01Z</time>
      </trkpt>
      <trkpt lat="49.02707" lon="7.79375">
        <ele>341.6</ele>
        <time>2022-05-01T07:40:02Z</time>
      </trkpt>
      <trkpt lat="49.0271" lon="7.79379">
        <ele>341.8</ele>
        <time>2022-05-01T07:40:03Z</time>
      </trkpt>
      <trkpt lat="49.02712" lon="7.79381">
        <ele>342</ele>
        <time>2022-05-01T07:40:04Z</time>
      </trkpt>
      <trkpt lat="49.02714" lon="7.79383">
        <ele>342</ele>
        <time>2022-05-01T07:40:05Z</time>
      </trkpt>
      <trkpt lat="49.02716" lon="7.79385">
        <ele>342.2</ele>
        <time>2022-05-01T07:40:06Z</time>
      </trkpt>
      <trkpt lat="49.02718" lon="7.79387">
        <ele>342.2</ele>
        <time>2022-05-01T07:40:07Z</time>
      </trkpt>
      <trkpt lat="49.0272" lon="7.79389">
        <ele>342.4</ele>
        <time>2022-05-01T07:40:08Z</time>
      </trkpt>
      <trkpt lat="49.02723" lon="7.79391">
        <ele>342.4</ele>
        <time>2022-05-01T07:40:09Z</time>
      </trkpt>
      <trkpt lat="49.02725" lon="7.79392">
        <ele>342.6</ele>
        <time>2022-05-01T07:40:10Z</time>
      </trkpt>
      <trkpt lat="49.02726" lon="7.79393">
        <ele>342.8</ele>
        <time>2022-05-01T07:40:11Z</time>
      </trkpt>
      <trkpt lat="49.02728" lon="7.79395">
        <ele>343</ele>
        <time>2022-05-01T07:40:12Z</time>
      </trkpt>
      <trkpt lat="49.0273" lon="7.79397">
        <ele>343</ele>
        <time>2022-05-01T07:40:13Z</time>
      </trkpt>
      <trkpt lat="49.02732" lon="7.79397">
        <ele>343.2</ele>
        <time>2022-05-01T07:40:14Z</time>
      </trkpt>
      <trkpt lat="49.02734" lon="7.79397">
        <ele>343.4</ele>
        <time>2022-05-01T07:40:15Z</time>
      </trkpt>
      <trkpt lat="49.02737" lon="7.79397">
        <ele>343.6</ele>
        <time>2022-05-01T07:40:16Z</time>
      </trkpt>
      <trkpt lat="49.02738" lon="7.79396">
        <ele>343.8</ele>
        <time>2022-05-01T07:40:17Z</time>
      </trkpt>
      <trkpt lat="49.02741" lon="7.79395">
        <ele>344</ele>
        <time>2022-05-01T07:40:18Z</time>
      </trkpt>
      <trkpt lat="49.02742" lon="7.79394">
        <ele>344.2</ele>
        <time>2022-05-01T07:40:19Z</time>
      </trkpt>
      <trkpt lat="49.02745" lon="7.79393">
        <ele>344.4</ele>
        <time>2022-05-01T07:40:20Z</time>
      </trkpt>
      <trkpt lat="49.02748" lon="7.79392">
        <ele>344.6</ele>
        <time>2022-05-01T07:40:21Z</time>
      </trkpt>
      <trkpt lat="49.02751" lon="7.79391">
        <ele>344.8</ele>
        <time>2022-05-01T07:40:22Z</time>
      </trkpt>
      <trkpt lat="49.02754" lon="7.79389">
        <ele>344.8</ele>
        <time>2022-05-01T07:40:23Z</time>
      </trkpt>
      <trkpt lat="49.02756" lon="7.79387">
        <ele>345</ele>
        <time>2022-05-01T07:40:24Z</time>
      </trkpt>
      <trkpt lat="49.02759" lon="7.79384">
        <ele>345.2</ele>
        <time>2022-05-01T07:40:25Z</time>
      </trkpt>
      <trkpt lat="49.02761" lon="7.7938">
        <ele>345.4</ele>
        <time>2022-05-01T07:40:26Z</time>
      </trkpt>
      <trkpt lat="49.02763" lon="7.79378">
        <ele>345.6</ele>
        <time>2022-05-01T07:40:27Z</time>
      </trkpt>
      <trkpt lat="49.02766" lon="7.79375">
        <ele>345.8</ele>
        <time>2022-05-01T07:40:28Z</time>
      </trkpt>
      <trkpt lat="49.02768" lon="7.79372">
        <ele>346</ele>
        <time>2022-05-01T07:40:29Z</time>
      </trkpt>
      <trkpt lat="49.0277" lon="7.79369">
        <ele>346</ele>
        <time>2022-05-01T07:40:30Z</time>
      </trkpt>
      <trkpt lat="49.02771" lon="7.79367">
        <ele>346.2</ele>
        <time>2022-05-01T07:40:31Z</time>
      </trkpt>
      <trkpt lat="49.02773" lon="7.79362">
        <ele>346.4</ele>
        <time>2022-05-01T07:40:32Z</time>
      </trkpt>
      <trkpt lat="49.02774" lon="7.79358">
        <ele>346.4</ele>
        <time>2022-05-01T07:40:33Z</time>
      </trkpt>
      <trkpt lat="49.02774" lon="7.79354">
        <ele>346.6</ele>
        <time>2022-05-01T07:40:34Z</time>
      </trkpt>
      <trkpt lat="49.02774" lon="7.7935">
        <ele>346.8</ele>
        <time>2022-05-01T07:40:35Z</time>
      </trkpt>
      <trkpt lat="49.02774" lon="7.79345">
        <ele>346.8</ele>
        <time>2022-05-01T07:40:36Z</time>
      </trkpt>
      <trkpt lat="49.02774" lon="7.79342">
        <ele>346.8</ele>
        <time>2022-05-01T07:40:37Z</time>
      </trkpt>
      <trkpt lat="49.02775" lon="7.79337">
        <ele>347</ele>
        <time>2022-05-01T07:40:38Z</time>
      </trkpt>
      <trkpt lat="49.02775" lon="7.79333">
        <ele>347.4</ele>
        <time>2022-05-01T07:40:39Z</time>
      </trkpt>
      <trkpt lat="49.02775" lon="7.79328">
        <ele>347.6</ele>
        <time>2022-05-01T07:40:40Z</time>
      </trkpt>
      <trkpt lat="49.02775" lon="7.79324">
        <ele>347.6</ele>
        <time>2022-05-01T07:40:41Z</time>
      </trkpt>
      <trkpt lat="49.02775" lon="7.79321">
        <ele>347.8</ele>
        <time>2022-05-01T07:40:42Z</time>
      </trkpt>
      <trkpt lat="49.02775" lon="7.79316">
        <ele>348</ele>
        <time>2022-05-01T07:40:43Z</time>
      </trkpt>
      <trkpt lat="49.02775" lon="7.79312">
        <ele>348.2</ele>
        <time>2022-05-01T07:40:44Z</time>
      </trkpt>
      <trkpt lat="49.02774" lon="7.79307">
        <ele>348.4</ele>
        <time>2022-05-01T07:40:45Z</time>
      </trkpt>
      <trkpt lat="49.02773" lon="7.79304">
        <ele>348.6</ele>
        <time>2022-05-01T07:40:46Z</time>
      </trkpt>
      <trkpt lat="49.02772" lon="7.79299">
        <ele>348.8</ele>
        <time>2022-05-01T07:40:47Z</time>
      </trkpt>
      <trkpt lat="49.02772" lon="7.79295">
        <ele>349</ele>
        <time>2022-05-01T07:40:48Z</time>
      </trkpt>
      <trkpt lat="49.02771" lon="7.79291">
        <ele>349</ele>
        <time>2022-05-01T07:40:49Z</time>
      </trkpt>
      <trkpt lat="49.02771" lon="7.79287">
        <ele>349.4</ele>
        <time>2022-05-01T07:40:50Z</time>
      </trkpt>
      <trkpt lat="49.02771" lon="7.79283">
        <ele>349.6</ele>
        <time>2022-05-01T07:40:51Z</time>
      </trkpt>
      <trkpt lat="49.02771" lon="7.79279">
        <ele>349.8</ele>
        <time>2022-05-01T07:40:52Z</time>
      </trkpt>
      <trkpt lat="49.0277" lon="7.79275">
        <ele>350</ele>
        <time>2022-05-01T07:40:53Z</time>
      </trkpt>
      <trkpt lat="49.02771" lon="7.79271">
        <ele>350.2</ele>
        <time>2022-05-01T07:40:54Z</time>
      </trkpt>
      <trkpt lat="49.02771" lon="7.79267">
        <ele>350.4</ele>
        <time>2022-05-01T07:40:55Z</time>
      </trkpt>
      <trkpt lat="49.02771" lon="7.79263">
        <ele>350.6</ele>
        <time>2022-05-01T07:40:56Z</time>
      </trkpt>
      <trkpt lat="49.02773" lon="7.79259">
        <ele>350.6</ele>
        <time>2022-05-01T07:40:57Z</time>
      </trkpt>
      <trkpt lat="49.02773" lon="7.79254">
        <ele>350.8</ele>
        <time>2022-05-01T07:40:58Z</time>
      </trkpt>
      <trkpt lat="49.02774" lon="7.7925">
        <ele>350.8</ele>
        <time>2022-05-01T07:40:59Z</time>
      </trkpt>
      <trkpt lat="49.02775" lon="7.79247">
        <ele>351</ele>
        <time>2022-05-01T07:41:00Z</time>
      </trkpt>
      <trkpt lat="49.02775" lon="7.79244">
        <ele>351</ele>
        <time>2022-05-01T07:41:01Z</time>
      </trkpt>
      <trkpt lat="49.02776" lon="7.79239">
        <ele>351.2</ele>
        <time>2022-05-01T07:41:02Z</time>
      </trkpt>
      <trkpt lat="49.02777" lon="7.79236">
        <ele>351.4</ele>
        <time>2022-05-01T07:41:03Z</time>
      </trkpt>
      <trkpt lat="49.02778" lon="7.79233">
        <ele>351.4</ele>
        <time>2022-05-01T07:41:04Z</time>
      </trkpt>
      <trkpt lat="49.02779" lon="7.79231">
        <ele>351.6</ele>
        <time>2022-05-01T07:41:05Z</time>
      </trkpt>
      <trkpt lat="49.0278" lon="7.79228">
        <ele>351.8</ele>
        <time>2022-05-01T07:41:06Z</time>
      </trkpt>
      <trkpt lat="49.02782" lon="7.79225">
        <ele>352</ele>
        <time>2022-05-01T07:41:07Z</time>
      </trkpt>
      <trkpt lat="49.02784" lon="7.79222">
        <ele>352</ele>
        <time>2022-05-01T07:41:08Z</time>
      </trkpt>
      <trkpt lat="49.02785" lon="7.79218">
        <ele>352.2</ele>
        <time>2022-05-01T07:41:09Z</time>
      </trkpt>
      <trkpt lat="49.02786" lon="7.79214">
        <ele>352.4</ele>
        <time>2022-05-01T07:41:10Z</time>
      </trkpt>
      <trkpt lat="49.02788" lon="7.79211">
        <ele>352.6</ele>
        <time>2022-05-01T07:41:11Z</time>
      </trkpt>
      <trkpt lat="49.0279" lon="7.79208">
        <ele>352.6</ele>
        <time>2022-05-01T07:41:12Z</time>
      </trkpt>
      <trkpt lat="49.02791" lon="7.79205">
        <ele>352.8</ele>
        <time>2022-05-01T07:41:13Z</time>
      </trkpt>
      <trkpt lat="49.02793" lon="7.79202">
        <ele>353</ele>
        <time>2022-05-01T07:41:14Z</time>
      </trkpt>
      <trkpt lat="49.02795" lon="7.792">
        <ele>353.2</ele>
        <time>2022-05-01T07:41:15Z</time>
      </trkpt>
      <trkpt lat="49.02797" lon="7.79197">
        <ele>353.2</ele>
        <time>2022-05-01T07:41:16Z</time>
      </trkpt>
      <trkpt lat="49.02799" lon="7.79195">
        <ele>353.4</ele>
        <time>2022-05-01T07:41:17Z</time>
      </trkpt>
      <trkpt lat="49.02801" lon="7.79192">
        <ele>353.6</ele>
        <time>2022-05-01T07:41:18Z</time>
      </trkpt>
      <trkpt lat="49.02803" lon="7.79189">
        <ele>353.8</ele>
        <time>2022-05-01T07:41:19Z</time>
      </trkpt>
      <trkpt lat="49.02806" lon="7.79188">
        <ele>353.8</ele>
        <time>2022-05-01T07:41:20Z</time>
      </trkpt>
      <trkpt lat="49.02808" lon="7.79185">
        <ele>354</ele>
        <time>2022-05-01T07:41:21Z</time>
      </trkpt>
      <trkpt lat="49.0281" lon="7.79183">
        <ele>354.2</ele>
        <time>2022-05-01T07:41:22Z</time>
      </trkpt>
      <trkpt lat="49.02813" lon="7.7918">
        <ele>354.4</ele>
        <time>2022-05-01T07:41:23Z</time>
      </trkpt>
      <trkpt lat="49.02815" lon="7.79178">
        <ele>354.4</ele>
        <time>2022-05-01T07:41:24Z</time>
      </trkpt>
      <trkpt lat="49.02817" lon="7.79176">
        <ele>354.6</ele>
        <time>2022-05-01T07:41:25Z</time>
      </trkpt>
      <trkpt lat="49.02819" lon="7.79175">
        <ele>354.8</ele>
        <time>2022-05-01T07:41:26Z</time>
      </trkpt>
      <trkpt lat="49.02821" lon="7.79173">
        <ele>354.8</ele>
        <time>2022-05-01T07:41:27Z</time>
      </trkpt>
      <trkpt lat="49.02823" lon="7.79171">
        <ele>355.2</ele>
        <time>2022-05-01T07:41:28Z</time>
      </trkpt>
      <trkpt lat="49.02824" lon="7.7917">
        <ele>355.4</ele>
        <time>2022-05-01T07:41:29Z</time>
      </trkpt>
      <trkpt lat="49.02825" lon="7.79169">
        <ele>355.4</ele>
        <time>2022-05-01T07:41:30Z</time>
      </trkpt>
      <trkpt lat="49.02827" lon="7.79168">
        <ele>355.8</ele>
        <time>2022-05-01T07:41:31Z</time>
      </trkpt>
      <trkpt lat="49.0283" lon="7.79167">
        <ele>356</ele>
        <time>2022-05-01T07:41:32Z</time>
      </trkpt>
      <trkpt lat="49.02833" lon="7.79165">
        <ele>356</ele>
        <time>2022-05-01T07:41:33Z</time>
      </trkpt>
      <trkpt lat="49.02835" lon="7.79164">
        <ele>356.2</ele>
        <time>2022-05-01T07:41:34Z</time>
      </trkpt>
      <trkpt lat="49.02838" lon="7.79162">
        <ele>356.2</ele>
        <time>2022-05-01T07:41:35Z</time>
      </trkpt>
      <trkpt lat="49.0284" lon="7.79161">
        <ele>356.4</ele>
        <time>2022-05-01T07:41:36Z</time>
      </trkpt>
      <trkpt lat="49.02842" lon="7.7916">
        <ele>356.4</ele>
        <time>2022-05-01T07:41:37Z</time>
      </trkpt>
      <trkpt lat="49.02845" lon="7.7916">
        <ele>356.6</ele>
        <time>2022-05-01T07:41:38Z</time>
      </trkpt>
      <trkpt lat="49.02847" lon="7.7916">
        <ele>356.8</ele>
        <time>2022-05-01T07:41:39Z</time>
      </trkpt>
      <trkpt lat="49.0285" lon="7.79159">
        <ele>356.8</ele>
        <time>2022-05-01T07:41:40Z</time>
      </trkpt>
      <trkpt lat="49.02853" lon="7.79158">
        <ele>357</ele>
        <time>2022-05-01T07:41:41Z</time>
      </trkpt>
      <trkpt lat="49.02856" lon="7.79158">
        <ele>357.2</ele>
        <time>2022-05-01T07:41:42Z</time>
      </trkpt>
      <trkpt lat="49.0286" lon="7.79158">
        <ele>357.2</ele>
        <time>2022-05-01T07:41:43Z</time>
      </trkpt>
      <trkpt lat="49.02863" lon="7.79157">
        <ele>357.4</ele>
        <time>2022-05-01T07:41:44Z</time>
      </trkpt>
      <trkpt lat="49.02865" lon="7.79157">
        <ele>357.6</ele>
        <time>2022-05-01T07:41:45Z</time>
      </trkpt>
      <trkpt lat="49.02868" lon="7.79156">
        <ele>357.6</ele>
        <time>2022-05-01T07:41:46Z</time>
      </trkpt>
      <trkpt lat="49.0287" lon="7.79156">
        <ele>357.8</ele>
        <time>2022-05-01T07:41:47Z</time>
      </trkpt>
      <trkpt lat="49.02873" lon="7.79155">
        <ele>358</ele>
        <time>2022-05-01T07:41:48Z</time>
      </trkpt>
      <trkpt lat="49.02876" lon="7.79155">
        <ele>358.2</ele>
        <time>2022-05-01T07:41:49Z</time>
      </trkpt>
      <trkpt lat="49.02878" lon="7.79155">
        <ele>358.2</ele>
        <time>2022-05-01T07:41:50Z</time>
      </trkpt>
      <trkpt lat="49.02881" lon="7.79157">
        <ele>358.4</ele>
        <time>2022-05-01T07:41:51Z</time>
      </trkpt>
      <trkpt lat="49.02884" lon="7.79159">
        <ele>358.6</ele>
        <time>2022-05-01T07:41:52Z</time>
      </trkpt>
      <trkpt lat="49.02885" lon="7.79162">
        <ele>358.6</ele>
        <time>2022-05-01T07:41:53Z</time>
      </trkpt>
      <trkpt lat="49.02885" lon="7.79165">
        <ele>359</ele>
        <time>2022-05-01T07:41:54Z</time>
      </trkpt>
      <trkpt lat="49.02884" lon="7.79168">
        <ele>359</ele>
        <time>2022-05-01T07:41:55Z</time>
      </trkpt>
      <trkpt lat="49.02882" lon="7.7917">
        <ele>359.2</ele>
        <time>2022-05-01T07:41:56Z</time>
      </trkpt>
      <trkpt lat="49.02881" lon="7.79172">
        <ele>359.4</ele>
        <time>2022-05-01T07:41:57Z</time>
      </trkpt>
      <trkpt lat="49.02879" lon="7.79174">
        <ele>359.4</ele>
        <time>2022-05-01T07:41:58Z</time>
      </trkpt>
      <trkpt lat="49.02876" lon="7.79174">
        <ele>359.6</ele>
        <time>2022-05-01T07:41:59Z</time>
      </trkpt>
      <trkpt lat="49.02874" lon="7.79175">
        <ele>360</ele>
        <time>2022-05-01T07:42:00Z</time>
      </trkpt>
      <trkpt lat="49.02872" lon="7.79176">
        <ele>360.4</ele>
        <time>2022-05-01T07:42:01Z</time>
      </trkpt>
      <trkpt lat="49.0287" lon="7.79178">
        <ele>360.8</ele>
        <time>2022-05-01T07:42:02Z</time>
      </trkpt>
      <trkpt lat="49.02868" lon="7.79179">
        <ele>361</ele>
        <time>2022-05-01T07:42:03Z</time>
      </trkpt>
      <trkpt lat="49.02866" lon="7.79181">
        <ele>361.4</ele>
        <time>2022-05-01T07:42:04Z</time>
      </trkpt>
      <trkpt lat="49.02865" lon="7.79182">
        <ele>361.6</ele>
        <time>2022-05-01T07:42:05Z</time>
      </trkpt>
      <trkpt lat="49.02863" lon="7.79184">
        <ele>361.8</ele>
        <time>2022-05-01T07:42:06Z</time>
      </trkpt>
      <trkpt lat="49.02861" lon="7.79186">
        <ele>362</ele>
        <time>2022-05-01T07:42:07Z</time>
      </trkpt>
      <trkpt lat="49.0286" lon="7.79189">
        <ele>362.2</ele>
        <time>2022-05-01T07:42:08Z</time>
      </trkpt>
      <trkpt lat="49.02859" lon="7.79192">
        <ele>362.4</ele>
        <time>2022-05-01T07:42:09Z</time>
      </trkpt>
      <trkpt lat="49.02857" lon="7.79195">
        <ele>362.8</ele>
        <time>2022-05-01T07:42:10Z</time>
      </trkpt>
      <trkpt lat="49.02855" lon="7.79197">
        <ele>362.8</ele>
        <time>2022-05-01T07:42:11Z</time>
      </trkpt>
      <trkpt lat="49.02854" lon="7.79198">
        <ele>363</ele>
        <time>2022-05-01T07:42:12Z</time>
      </trkpt>
      <trkpt lat="49.02852" lon="7.792">
        <ele>363.2</ele>
        <time>2022-05-01T07:42:13Z</time>
      </trkpt>
      <trkpt lat="49.0285" lon="7.79202">
        <ele>363.4</ele>
        <time>2022-05-01T07:42:14Z</time>
      </trkpt>
      <trkpt lat="49.02848" lon="7.79205">
        <ele>363.6</ele>
        <time>2022-05-01T07:42:15Z</time>
      </trkpt>
      <trkpt lat="49.02846" lon="7.79208">
        <ele>363.6</ele>
        <time>2022-05-01T07:42:16Z</time>
      </trkpt>
      <trkpt lat="49.02844" lon="7.7921">
        <ele>363.8</ele>
        <time>2022-05-01T07:42:17Z</time>
      </trkpt>
      <trkpt lat="49.02842" lon="7.79213">
        <ele>364</ele>
        <time>2022-05-01T07:42:18Z</time>
      </trkpt>
      <trkpt lat="49.0284" lon="7.79215">
        <ele>364.2</ele>
        <time>2022-05-01T07:42:19Z</time>
      </trkpt>
      <trkpt lat="49.02839" lon="7.79218">
        <ele>364.4</ele>
        <time>2022-05-01T07:42:20Z</time>
      </trkpt>
      <trkpt lat="49.02837" lon="7.7922">
        <ele>364.6</ele>
        <time>2022-05-01T07:42:21Z</time>
      </trkpt>
      <trkpt lat="49.02836" lon="7.79223">
        <ele>364.8</ele>
        <time>2022-05-01T07:42:22Z</time>
      </trkpt>
      <trkpt lat="49.02836" lon="7.79227">
        <ele>365</ele>
        <time>2022-05-01T07:42:23Z</time>
      </trkpt>
      <trkpt lat="49.02836" lon="7.7923">
        <ele>365.2</ele>
        <time>2022-05-01T07:42:24Z</time>
      </trkpt>
      <trkpt lat="49.02834" lon="7.79234">
        <ele>365.6</ele>
        <time>2022-05-01T07:42:25Z</time>
      </trkpt>
      <trkpt lat="49.02833" lon="7.79237">
        <ele>365.6</ele>
        <time>2022-05-01T07:42:26Z</time>
      </trkpt>
      <trkpt lat="49.02833" lon="7.79241">
        <ele>365.8</ele>
        <time>2022-05-01T07:42:27Z</time>
      </trkpt>
      <trkpt lat="49.02831" lon="7.79245">
        <ele>366</ele>
        <time>2022-05-01T07:42:28Z</time>
      </trkpt>
      <trkpt lat="49.0283" lon="7.79249">
        <ele>366</ele>
        <time>2022-05-01T07:42:29Z</time>
      </trkpt>
      <trkpt lat="49.0283" lon="7.79253">
        <ele>366.2</ele>
        <time>2022-05-01T07:42:30Z</time>
      </trkpt>
      <trkpt lat="49.02828" lon="7.79256">
        <ele>366.4</ele>
        <time>2022-05-01T07:42:31Z</time>
      </trkpt>
      <trkpt lat="49.02827" lon="7.79258">
        <ele>366.6</ele>
        <time>2022-05-01T07:42:32Z</time>
      </trkpt>
      <trkpt lat="49.02825" lon="7.79263">
        <ele>366.6</ele>
        <time>2022-05-01T07:42:33Z</time>
      </trkpt>
      <trkpt lat="49.02826" lon="7.79267">
        <ele>367</ele>
        <time>2022-05-01T07:42:34Z</time>
      </trkpt>
      <trkpt lat="49.02825" lon="7.79272">
        <ele>367.2</ele>
        <time>2022-05-01T07:42:35Z</time>
      </trkpt>
      <trkpt lat="49.02825" lon="7.79275">
        <ele>367.4</ele>
        <time>2022-05-01T07:42:36Z</time>
      </trkpt>
      <trkpt lat="49.02824" lon="7.7928">
        <ele>367.4</ele>
        <time>2022-05-01T07:42:37Z</time>
      </trkpt>
      <trkpt lat="49.02824" lon="7.79283">
        <ele>367.8</ele>
        <time>2022-05-01T07:42:38Z</time>
      </trkpt>
      <trkpt lat="49.02823" lon="7.79286">
        <ele>367.8</ele>
        <time>2022-05-01T07:42:39Z</time>
      </trkpt>
      <trkpt lat="49.02823" lon="7.7929">
        <ele>368</ele>
        <time>2022-05-01T07:42:40Z</time>
      </trkpt>
      <trkpt lat="49.02822" lon="7.79293">
        <ele>368.2</ele>
        <time>2022-05-01T07:42:41Z</time>
      </trkpt>
      <trkpt lat="49.02822" lon="7.79296">
        <ele>368.4</ele>
        <time>2022-05-01T07:42:42Z</time>
      </trkpt>
      <trkpt lat="49.02822" lon="7.79299">
        <ele>368.6</ele>
        <time>2022-05-01T07:42:43Z</time>
      </trkpt>
      <trkpt lat="49.02822" lon="7.79305">
        <ele>368.8</ele>
        <time>2022-05-01T07:42:44Z</time>
      </trkpt>
      <trkpt lat="49.02822" lon="7.79309">
        <ele>369</ele>
        <time>2022-05-01T07:42:45Z</time>
      </trkpt>
      <trkpt lat="49.02822" lon="7.79312">
        <ele>369.2</ele>
        <time>2022-05-01T07:42:46Z</time>
      </trkpt>
      <trkpt lat="49.02822" lon="7.79316">
        <ele>369.4</ele>
        <time>2022-05-01T07:42:47Z</time>
      </trkpt>
      <trkpt lat="49.02822" lon="7.7932">
        <ele>369.6</ele>
        <time>2022-05-01T07:42:48Z</time>
      </trkpt>
      <trkpt lat="49.02823" lon="7.79323">
        <ele>370</ele>
        <time>2022-05-01T07:42:49Z</time>
      </trkpt>
      <trkpt lat="49.02823" lon="7.79327">
        <ele>370.2</ele>
        <time>2022-05-01T07:42:50Z</time>
      </trkpt>
      <trkpt lat="49.02823" lon="7.79331">
        <ele>370.4</ele>
        <time>2022-05-01T07:42:51Z</time>
      </trkpt>
      <trkpt lat="49.02823" lon="7.79334">
        <ele>370.6</ele>
        <time>2022-05-01T07:42:52Z</time>
      </trkpt>
      <trkpt lat="49.02823" lon="7.79338">
        <ele>370.8</ele>
        <time>2022-05-01T07:42:53Z</time>
      </trkpt>
      <trkpt lat="49.02823" lon="7.79341">
        <ele>370.8</ele>
        <time>2022-05-01T07:42:54Z</time>
      </trkpt>
      <trkpt lat="49.02823" lon="7.79345">
        <ele>371</ele>
        <time>2022-05-01T07:42:55Z</time>
      </trkpt>
      <trkpt lat="49.02824" lon="7.79349">
        <ele>371.2</ele>
        <time>2022-05-01T07:42:56Z</time>
      </trkpt>
      <trkpt lat="49.02825" lon="7.79352">
        <ele>371.2</ele>
        <time>2022-05-01T07:42:57Z</time>
      </trkpt>
      <trkpt lat="49.02826" lon="7.79356">
        <ele>371.6</ele>
        <time>2022-05-01T07:42:58Z</time>
      </trkpt>
      <trkpt lat="49.02826" lon="7.79359">
        <ele>371.8</ele>
        <time>2022-05-01T07:42:59Z</time>
      </trkpt>
      <trkpt lat="49.02827" lon="7.79363">
        <ele>372</ele>
        <time>2022-05-01T07:43:00Z</time>
      </trkpt>
      <trkpt lat="49.02828" lon="7.79366">
        <ele>372</ele>
        <time>2022-05-01T07:43:01Z</time>
      </trkpt>
      <trkpt lat="49.02828" lon="7.79369">
        <ele>372.4</ele>
        <time>2022-05-01T07:43:02Z</time>
      </trkpt>
      <trkpt lat="49.02829" lon="7.79373">
        <ele>372.4</ele>
        <time>2022-05-01T07:43:03Z</time>
      </trkpt>
      <trkpt lat="49.0283" lon="7.79376">
        <ele>372.8</ele>
        <time>2022-05-01T07:43:04Z</time>
      </trkpt>
      <trkpt lat="49.02831" lon="7.79379">
        <ele>373</ele>
        <time>2022-05-01T07:43:05Z</time>
      </trkpt>
      <trkpt lat="49.02832" lon="7.79383">
        <ele>373.4</ele>
        <time>2022-05-01T07:43:06Z</time>
      </trkpt>
      <trkpt lat="49.02832" lon="7.79386">
        <ele>373.6</ele>
        <time>2022-05-01T07:43:07Z</time>
      </trkpt>
      <trkpt lat="49.02832" lon="7.7939">
        <ele>373.8</ele>
        <time>2022-05-01T07:43:08Z</time>
      </trkpt>
      <trkpt lat="49.02832" lon="7.79393">
        <ele>374</ele>
        <time>2022-05-01T07:43:09Z</time>
      </trkpt>
      <trkpt lat="49.02832" lon="7.79396">
        <ele>374</ele>
        <time>2022-05-01T07:43:10Z</time>
      </trkpt>
      <trkpt lat="49.02834" lon="7.794">
        <ele>374.4</ele>
        <time>2022-05-01T07:43:11Z</time>
      </trkpt>
      <trkpt lat="49.02834" lon="7.79403">
        <ele>374.4</ele>
        <time>2022-05-01T07:43:12Z</time>
      </trkpt>
      <trkpt lat="49.02835" lon="7.79407">
        <ele>374.6</ele>
        <time>2022-05-01T07:43:13Z</time>
      </trkpt>
      <trkpt lat="49.02837" lon="7.79411">
        <ele>374.8</ele>
        <time>2022-05-01T07:43:14Z</time>
      </trkpt>
      <trkpt lat="49.02838" lon="7.79414">
        <ele>375</ele>
        <time>2022-05-01T07:43:15Z</time>
      </trkpt>
      <trkpt lat="49.02839" lon="7.79417">
        <ele>375.2</ele>
        <time>2022-05-01T07:43:16Z</time>
      </trkpt>
      <trkpt lat="49.02839" lon="7.7942">
        <ele>375.4</ele>
        <time>2022-05-01T07:43:17Z</time>
      </trkpt>
      <trkpt lat="49.02839" lon="7.79423">
        <ele>375.6</ele>
        <time>2022-05-01T07:43:18Z</time>
      </trkpt>
      <trkpt lat="49.0284" lon="7.79426">
        <ele>375.6</ele>
        <time>2022-05-01T07:43:19Z</time>
      </trkpt>
      <trkpt lat="49.02841" lon="7.79429">
        <ele>375.6</ele>
        <time>2022-05-01T07:43:20Z</time>
      </trkpt>
      <trkpt lat="49.02841" lon="7.79432">
        <ele>375.8</ele>
        <time>2022-05-01T07:43:21Z</time>
      </trkpt>
      <trkpt lat="49.02842" lon="7.79435">
        <ele>375.8</ele>
        <time>2022-05-01T07:43:22Z</time>
      </trkpt>
      <trkpt lat="49.02843" lon="7.79439">
        <ele>376</ele>
        <time>2022-05-01T07:43:23Z</time>
      </trkpt>
      <trkpt lat="49.02845" lon="7.79443">
        <ele>376.2</ele>
        <time>2022-05-01T07:43:24Z</time>
      </trkpt>
      <trkpt lat="49.02846" lon="7.79447">
        <ele>376.4</ele>
        <time>2022-05-01T07:43:25Z</time>
      </trkpt>
      <trkpt lat="49.02847" lon="7.79449">
        <ele>376.6</ele>
        <time>2022-05-01T07:43:26Z</time>
      </trkpt>
      <trkpt lat="49.02847" lon="7.79453">
        <ele>376.8</ele>
        <time>2022-05-01T07:43:27Z</time>
      </trkpt>
      <trkpt lat="49.02847" lon="7.79456">
        <ele>377</ele>
        <time>2022-05-01T07:43:28Z</time>
      </trkpt>
      <trkpt lat="49.02847" lon="7.7946">
        <ele>377.2</ele>
        <time>2022-05-01T07:43:29Z</time>
      </trkpt>
      <trkpt lat="49.02846" lon="7.79464">
        <ele>377.6</ele>
        <time>2022-05-01T07:43:30Z</time>
      </trkpt>
      <trkpt lat="49.02845" lon="7.79467">
        <ele>377.8</ele>
        <time>2022-05-01T07:43:31Z</time>
      </trkpt>
      <trkpt lat="49.02846" lon="7.7947">
        <ele>378</ele>
        <time>2022-05-01T07:43:32Z</time>
      </trkpt>
      <trkpt lat="49.02847" lon="7.79473">
        <ele>378.2</ele>
        <time>2022-05-01T07:43:33Z</time>
      </trkpt>
      <trkpt lat="49.02847" lon="7.79476">
        <ele>378.6</ele>
        <time>2022-05-01T07:43:34Z</time>
      </trkpt>
      <trkpt lat="49.02847" lon="7.79479">
        <ele>378.8</ele>
        <time>2022-05-01T07:43:35Z</time>
      </trkpt>
      <trkpt lat="49.02847" lon="7.79482">
        <ele>379</ele>
        <time>2022-05-01T07:43:36Z</time>
      </trkpt>
      <trkpt lat="49.02848" lon="7.79485">
        <ele>379.2</ele>
        <time>2022-05-01T07:43:37Z</time>
      </trkpt>
      <trkpt lat="49.02849" lon="7.79487">
        <ele>379.4</ele>
        <time>2022-05-01T07:43:38Z</time>
      </trkpt>
      <trkpt lat="49.0285" lon="7.79491">
        <ele>379.8</ele>
        <time>2022-05-01T07:43:39Z</time>
      </trkpt>
      <trkpt lat="49.02849" lon="7.79494">
        <ele>379.8</ele>
        <time>2022-05-01T07:43:40Z</time>
      </trkpt>
      <trkpt lat="49.02849" lon="7.79498">
        <ele>380</ele>
        <time>2022-05-01T07:43:41Z</time>
      </trkpt>
      <trkpt lat="49.02848" lon="7.79502">
        <ele>380.2</ele>
        <time>2022-05-01T07:43:42Z</time>
      </trkpt>
      <trkpt lat="49.02847" lon="7.79505">
        <ele>380.4</ele>
        <time>2022-05-01T07:43:43Z</time>
      </trkpt>
      <trkpt lat="49.02846" lon="7.79508">
        <ele>380.6</ele>
        <time>2022-05-01T07:43:44Z</time>
      </trkpt>
      <trkpt lat="49.02845" lon="7.79511">
        <ele>380.8</ele>
        <time>2022-05-01T07:43:45Z</time>
      </trkpt>
      <trkpt lat="49.02842" lon="7.79513">
        <ele>380.8</ele>
        <time>2022-05-01T07:43:46Z</time>
      </trkpt>
      <trkpt lat="49.02838" lon="7.79515">
        <ele>380.8</ele>
        <time>2022-05-01T07:43:47Z</time>
      </trkpt>
      <trkpt lat="49.02835" lon="7.79517">
        <ele>380.8</ele>
        <time>2022-05-01T07:43:48Z</time>
      </trkpt>
      <trkpt lat="49.02832" lon="7.79519">
        <ele>380.8</ele>
        <time>2022-05-01T07:43:49Z</time>
      </trkpt>
      <trkpt lat="49.02829" lon="7.7952">
        <ele>380.8</ele>
        <time>2022-05-01T07:43:50Z</time>
      </trkpt>
      <trkpt lat="49.02825" lon="7.79522">
        <ele>380.8</ele>
        <time>2022-05-01T07:43:51Z</time>
      </trkpt>
      <trkpt lat="49.02821" lon="7.79522">
        <ele>380.8</ele>
        <time>2022-05-01T07:43:52Z</time>
      </trkpt>
      <trkpt lat="49.02818" lon="7.79523">
        <ele>380.8</ele>
        <time>2022-05-01T07:43:53Z</time>
      </trkpt>
      <trkpt lat="49.02814" lon="7.79524">
        <ele>380.8</ele>
        <time>2022-05-01T07:43:54Z</time>
      </trkpt>
      <trkpt lat="49.02811" lon="7.79525">
        <ele>380.8</ele>
        <time>2022-05-01T07:43:55Z</time>
      </trkpt>
      <trkpt lat="49.02808" lon="7.79526">
        <ele>380.6</ele>
        <time>2022-05-01T07:43:56Z</time>
      </trkpt>
      <trkpt lat="49.02805" lon="7.79526">
        <ele>380.6</ele>
        <time>2022-05-01T07:43:57Z</time>
      </trkpt>
      <trkpt lat="49.02801" lon="7.79526">
        <ele>380.4</ele>
        <time>2022-05-01T07:43:58Z</time>
      </trkpt>
      <trkpt lat="49.02798" lon="7.79527">
        <ele>380.4</ele>
        <time>2022-05-01T07:43:59Z</time>
      </trkpt>
      <trkpt lat="49.02794" lon="7.79528">
        <ele>380.4</ele>
        <time>2022-05-01T07:44:00Z</time>
      </trkpt>
      <trkpt lat="49.02789" lon="7.79527">
        <ele>380.2</ele>
        <time>2022-05-01T07:44:01Z</time>
      </trkpt>
      <trkpt lat="49.02785" lon="7.79526">
        <ele>380</ele>
        <time>2022-05-01T07:44:02Z</time>
      </trkpt>
      <trkpt lat="49.02776" lon="7.79526">
        <ele>379.6</ele>
        <time>2022-05-01T07:44:04Z</time>
      </trkpt>
      <trkpt lat="49.02768" lon="7.79526">
        <ele>379.6</ele>
        <time>2022-05-01T07:44:06Z</time>
      </trkpt>
      <trkpt lat="49.02764" lon="7.79525">
        <ele>379.4</ele>
        <time>2022-05-01T07:44:07Z</time>
      </trkpt>
      <trkpt lat="49.0276" lon="7.79525">
        <ele>379.2</ele>
        <time>2022-05-01T07:44:08Z</time>
      </trkpt>
      <trkpt lat="49.02756" lon="7.79524">
        <ele>379</ele>
        <time>2022-05-01T07:44:09Z</time>
      </trkpt>
      <trkpt lat="49.0274" lon="7.79522">
        <ele>378.8</ele>
        <time>2022-05-01T07:44:13Z</time>
      </trkpt>
      <trkpt lat="49.02733" lon="7.79519">
        <ele>378.6</ele>
        <time>2022-05-01T07:44:15Z</time>
      </trkpt>
      <trkpt lat="49.02721" lon="7.79515">
        <ele>378.2</ele>
        <time>2022-05-01T07:44:18Z</time>
      </trkpt>
      <trkpt lat="49.02718" lon="7.79514">
        <ele>378.2</ele>
        <time>2022-05-01T07:44:19Z</time>
      </trkpt>
      <trkpt lat="49.02707" lon="7.79509">
        <ele>377.8</ele>
        <time>2022-05-01T07:44:21Z</time>
      </trkpt>
      <trkpt lat="49.02699" lon="7.79505">
        <ele>377.6</ele>
        <time>2022-05-01T07:44:23Z</time>
      </trkpt>
      <trkpt lat="49.02695" lon="7.79503">
        <ele>377.4</ele>
        <time>2022-05-01T07:44:24Z</time>
      </trkpt>
      <trkpt lat="49.02692" lon="7.79501">
        <ele>377.4</ele>
        <time>2022-05-01T07:44:25Z</time>
      </trkpt>
      <trkpt lat="49.02687" lon="7.79498">
        <ele>377.2</ele>
        <time>2022-05-01T07:44:26Z</time>
      </trkpt>
      <trkpt lat="49.02671" lon="7.79482">
        <ele>376.4</ele>
        <time>2022-05-01T07:44:30Z</time>
      </trkpt>
      <trkpt lat="49.02667" lon="7.79478">
        <ele>376.4</ele>
        <time>2022-05-01T07:44:31Z</time>
      </trkpt>
      <trkpt lat="49.02659" lon="7.79471">
        <ele>376</ele>
        <time>2022-05-01T07:44:33Z</time>
      </trkpt>
      <trkpt lat="49.02624" lon="7.79435">
        <ele>375.4</ele>
        <time>2022-05-01T07:44:41Z</time>
      </trkpt>
      <trkpt lat="49.02616" lon="7.79427">
        <ele>375</ele>
        <time>2022-05-01T07:44:43Z</time>
      </trkpt>
      <trkpt lat="49.02603" lon="7.79412">
        <ele>374.6</ele>
        <time>2022-05-01T07:44:46Z</time>
      </trkpt>
      <trkpt lat="49.02599" lon="7.79407">
        <ele>374.4</ele>
        <time>2022-05-01T07:44:47Z</time>
      </trkpt>
      <trkpt lat="49.02597" lon="7.79403">
        <ele>374.2</ele>
        <time>2022-05-01T07:44:48Z</time>
      </trkpt>
      <trkpt lat="49.02592" lon="7.79397">
        <ele>374</ele>
        <time>2022-05-01T07:44:49Z</time>
      </trkpt>
      <trkpt lat="49.02581" lon="7.79381">
        <ele>373.6</ele>
        <time>2022-05-01T07:44:52Z</time>
      </trkpt>
      <trkpt lat="49.02574" lon="7.7937">
        <ele>373.4</ele>
        <time>2022-05-01T07:44:54Z</time>
      </trkpt>
      <trkpt lat="49.0257" lon="7.79363">
        <ele>373.4</ele>
        <time>2022-05-01T07:44:55Z</time>
      </trkpt>
      <trkpt lat="49.02561" lon="7.79347">
        <ele>373</ele>
        <time>2022-05-01T07:44:58Z</time>
      </trkpt>
      <trkpt lat="49.02554" lon="7.79337">
        <ele>372.6</ele>
        <time>2022-05-01T07:45:00Z</time>
      </trkpt>
      <trkpt lat="49.02551" lon="7.79332">
        <ele>372.4</ele>
        <time>2022-05-01T07:45:01Z</time>
      </trkpt>
      <trkpt lat="49.02547" lon="7.79327">
        <ele>372</ele>
        <time>2022-05-01T07:45:02Z</time>
      </trkpt>
      <trkpt lat="49.02543" lon="7.79321">
        <ele>372</ele>
        <time>2022-05-01T07:45:03Z</time>
      </trkpt>
      <trkpt lat="49.02539" lon="7.79315">
        <ele>371.8</ele>
        <time>2022-05-01T07:45:04Z</time>
      </trkpt>
      <trkpt lat="49.02535" lon="7.7931">
        <ele>371.6</ele>
        <time>2022-05-01T07:45:05Z</time>
      </trkpt>
      <trkpt lat="49.02532" lon="7.79304">
        <ele>371.4</ele>
        <time>2022-05-01T07:45:06Z</time>
      </trkpt>
      <trkpt lat="49.02528" lon="7.79299">
        <ele>371.4</ele>
        <time>2022-05-01T07:45:07Z</time>
      </trkpt>
      <trkpt lat="49.02521" lon="7.79287">
        <ele>371</ele>
        <time>2022-05-01T07:45:09Z</time>
      </trkpt>
      <trkpt lat="49.02511" lon="7.79269">
        <ele>370.8</ele>
        <time>2022-05-01T07:45:12Z</time>
      </trkpt>
      <trkpt lat="49.02505" lon="7.79258">
        <ele>370.4</ele>
        <time>2022-05-01T07:45:14Z</time>
      </trkpt>
      <trkpt lat="49.02502" lon="7.79254">
        <ele>370.2</ele>
        <time>2022-05-01T07:45:15Z</time>
      </trkpt>
      <trkpt lat="49.02498" lon="7.79248">
        <ele>370.2</ele>
        <time>2022-05-01T07:45:16Z</time>
      </trkpt>
      <trkpt lat="49.02494" lon="7.79242">
        <ele>370</ele>
        <time>2022-05-01T07:45:17Z</time>
      </trkpt>
      <trkpt lat="49.02491" lon="7.79236">
        <ele>370</ele>
        <time>2022-05-01T07:45:18Z</time>
      </trkpt>
      <trkpt lat="49.02482" lon="7.7922">
        <ele>369.2</ele>
        <time>2022-05-01T07:45:21Z</time>
      </trkpt>
      <trkpt lat="49.0248" lon="7.79214">
        <ele>369.2</ele>
        <time>2022-05-01T07:45:22Z</time>
      </trkpt>
      <trkpt lat="49.02478" lon="7.7921">
        <ele>369</ele>
        <time>2022-05-01T07:45:23Z</time>
      </trkpt>
      <trkpt lat="49.02474" lon="7.79204">
        <ele>369</ele>
        <time>2022-05-01T07:45:24Z</time>
      </trkpt>
      <trkpt lat="49.0247" lon="7.792">
        <ele>368.8</ele>
        <time>2022-05-01T07:45:25Z</time>
      </trkpt>
      <trkpt lat="49.02462" lon="7.79192">
        <ele>368.6</ele>
        <time>2022-05-01T07:45:27Z</time>
      </trkpt>
      <trkpt lat="49.02449" lon="7.79182">
        <ele>368.4</ele>
        <time>2022-05-01T07:45:30Z</time>
      </trkpt>
      <trkpt lat="49.02445" lon="7.79179">
        <ele>368.4</ele>
        <time>2022-05-01T07:45:31Z</time>
      </trkpt>
      <trkpt lat="49.02439" lon="7.79173">
        <ele>368.4</ele>
        <time>2022-05-01T07:45:33Z</time>
      </trkpt>
      <trkpt lat="49.02436" lon="7.79171">
        <ele>368.4</ele>
        <time>2022-05-01T07:45:34Z</time>
      </trkpt>
      <trkpt lat="49.02434" lon="7.79169">
        <ele>368.4</ele>
        <time>2022-05-01T07:45:35Z</time>
      </trkpt>
      <trkpt lat="49.02431" lon="7.79167">
        <ele>368.4</ele>
        <time>2022-05-01T07:45:36Z</time>
      </trkpt>
      <trkpt lat="49.02418" lon="7.79161">
        <ele>369</ele>
        <time>2022-05-01T07:45:40Z</time>
      </trkpt>
      <trkpt lat="49.02416" lon="7.79159">
        <ele>369.2</ele>
        <time>2022-05-01T07:45:41Z</time>
      </trkpt>
      <trkpt lat="49.02412" lon="7.79157">
        <ele>369.4</ele>
        <time>2022-05-01T07:45:42Z</time>
      </trkpt>
      <trkpt lat="49.02409" lon="7.79156">
        <ele>369.6</ele>
        <time>2022-05-01T07:45:43Z</time>
      </trkpt>
      <trkpt lat="49.02406" lon="7.79154">
        <ele>369.6</ele>
        <time>2022-05-01T07:45:44Z</time>
      </trkpt>
      <trkpt lat="49.02399" lon="7.79148">
        <ele>370</ele>
        <time>2022-05-01T07:45:46Z</time>
      </trkpt>
      <trkpt lat="49.02395" lon="7.79146">
        <ele>370.2</ele>
        <time>2022-05-01T07:45:47Z</time>
      </trkpt>
      <trkpt lat="49.02374" lon="7.79143">
        <ele>370.6</ele>
        <time>2022-05-01T07:45:52Z</time>
      </trkpt>
      <trkpt lat="49.0236" lon="7.79143">
        <ele>371.2</ele>
        <time>2022-05-01T07:45:56Z</time>
      </trkpt>
      <trkpt lat="49.02351" lon="7.79143">
        <ele>371.4</ele>
        <time>2022-05-01T07:45:58Z</time>
      </trkpt>
      <trkpt lat="49.02343" lon="7.79142">
        <ele>371.8</ele>
        <time>2022-05-01T07:46:00Z</time>
      </trkpt>
      <trkpt lat="49.02331" lon="7.79142">
        <ele>372</ele>
        <time>2022-05-01T07:46:03Z</time>
      </trkpt>
      <trkpt lat="49.02327" lon="7.79142">
        <ele>372</ele>
        <time>2022-05-01T07:46:04Z</time>
      </trkpt>
      <trkpt lat="49.02323" lon="7.79142">
        <ele>372.2</ele>
        <time>2022-05-01T07:46:05Z</time>
      </trkpt>
      <trkpt lat="49.02319" lon="7.79143">
        <ele>372.2</ele>
        <time>2022-05-01T07:46:06Z</time>
      </trkpt>
      <trkpt lat="49.02316" lon="7.79143">
        <ele>372.4</ele>
        <time>2022-05-01T07:46:07Z</time>
      </trkpt>
      <trkpt lat="49.02312" lon="7.79144">
        <ele>372.6</ele>
        <time>2022-05-01T07:46:08Z</time>
      </trkpt>
      <trkpt lat="49.02308" lon="7.79144">
        <ele>372.8</ele>
        <time>2022-05-01T07:46:09Z</time>
      </trkpt>
      <trkpt lat="49.02304" lon="7.79144">
        <ele>373</ele>
        <time>2022-05-01T07:46:10Z</time>
      </trkpt>
      <trkpt lat="49.023" lon="7.79144">
        <ele>373</ele>
        <time>2022-05-01T07:46:11Z</time>
      </trkpt>
      <trkpt lat="49.02296" lon="7.79144">
        <ele>373.2</ele>
        <time>2022-05-01T07:46:12Z</time>
      </trkpt>
      <trkpt lat="49.02292" lon="7.79144">
        <ele>373.2</ele>
        <time>2022-05-01T07:46:13Z</time>
      </trkpt>
      <trkpt lat="49.02288" lon="7.79145">
        <ele>373.4</ele>
        <time>2022-05-01T07:46:14Z</time>
      </trkpt>
      <trkpt lat="49.02285" lon="7.79146">
        <ele>373.6</ele>
        <time>2022-05-01T07:46:15Z</time>
      </trkpt>
      <trkpt lat="49.02281" lon="7.79147">
        <ele>373.8</ele>
        <time>2022-05-01T07:46:16Z</time>
      </trkpt>
      <trkpt lat="49.02277" lon="7.79148">
        <ele>373.8</ele>
        <time>2022-05-01T07:46:17Z</time>
      </trkpt>
      <trkpt lat="49.02273" lon="7.79148">
        <ele>374</ele>
        <time>2022-05-01T07:46:18Z</time>
      </trkpt>
      <trkpt lat="49.02269" lon="7.79149">
        <ele>374.2</ele>
        <time>2022-05-01T07:46:19Z</time>
      </trkpt>
      <trkpt lat="49.02266" lon="7.79149">
        <ele>374.2</ele>
        <time>2022-05-01T07:46:20Z</time>
      </trkpt>
      <trkpt lat="49.02262" lon="7.7915">
        <ele>374.4</ele>
        <time>2022-05-01T07:46:21Z</time>
      </trkpt>
      <trkpt lat="49.02258" lon="7.79151">
        <ele>374.4</ele>
        <time>2022-05-01T07:46:22Z</time>
      </trkpt>
      <trkpt lat="49.02255" lon="7.79151">
        <ele>374.6</ele>
        <time>2022-05-01T07:46:23Z</time>
      </trkpt>
      <trkpt lat="49.02253" lon="7.79151">
        <ele>374.8</ele>
        <time>2022-05-01T07:46:24Z</time>
      </trkpt>
      <trkpt lat="49.02251" lon="7.79152">
        <ele>374.8</ele>
        <time>2022-05-01T07:46:25Z</time>
      </trkpt>
      <trkpt lat="49.02249" lon="7.79152">
        <ele>375</ele>
        <time>2022-05-01T07:46:26Z</time>
      </trkpt>
      <trkpt lat="49.02247" lon="7.79153">
        <ele>375.2</ele>
        <time>2022-05-01T07:46:27Z</time>
      </trkpt>
      <trkpt lat="49.02246" lon="7.79153">
        <ele>375.4</ele>
        <time>2022-05-01T07:46:28Z</time>
      </trkpt>
      <trkpt lat="49.02244" lon="7.79153">
        <ele>375.6</ele>
        <time>2022-05-01T07:46:29Z</time>
      </trkpt>
      <trkpt lat="49.02242" lon="7.79154">
        <ele>375.6</ele>
        <time>2022-05-01T07:46:30Z</time>
      </trkpt>
      <trkpt lat="49.0224" lon="7.79155">
        <ele>375.8</ele>
        <time>2022-05-01T07:46:31Z</time>
      </trkpt>
      <trkpt lat="49.02238" lon="7.79156">
        <ele>376</ele>
        <time>2022-05-01T07:46:32Z</time>
      </trkpt>
      <trkpt lat="49.02236" lon="7.79157">
        <ele>376</ele>
        <time>2022-05-01T07:46:33Z</time>
      </trkpt>
      <trkpt lat="49.02233" lon="7.79157">
        <ele>376.2</ele>
        <time>2022-05-01T07:46:34Z</time>
      </trkpt>
      <trkpt lat="49.0223" lon="7.79158">
        <ele>376.2</ele>
        <time>2022-05-01T07:46:35Z</time>
      </trkpt>
      <trkpt lat="49.02227" lon="7.79159">
        <ele>376.4</ele>
        <time>2022-05-01T07:46:36Z</time>
      </trkpt>
      <trkpt lat="49.02225" lon="7.79161">
        <ele>376.4</ele>
        <time>2022-05-01T07:46:37Z</time>
      </trkpt>
      <trkpt lat="49.02222" lon="7.79162">
        <ele>376.4</ele>
        <time>2022-05-01T07:46:38Z</time>
      </trkpt>
      <trkpt lat="49.0222" lon="7.79163">
        <ele>376.4</ele>
        <time>2022-05-01T07:46:39Z</time>
      </trkpt>
      <trkpt lat="49.02216" lon="7.79164">
        <ele>376.4</ele>
        <time>2022-05-01T07:46:40Z</time>
      </trkpt>
      <trkpt lat="49.02213" lon="7.79165">
        <ele>376.4</ele>
        <time>2022-05-01T07:46:41Z</time>
      </trkpt>
      <trkpt lat="49.02209" lon="7.79164">
        <ele>376.6</ele>
        <time>2022-05-01T07:46:42Z</time>
      </trkpt>
      <trkpt lat="49.02206" lon="7.79165">
        <ele>376.6</ele>
        <time>2022-05-01T07:46:43Z</time>
      </trkpt>
      <trkpt lat="49.02203" lon="7.79165">
        <ele>376.6</ele>
        <time>2022-05-01T07:46:44Z</time>
      </trkpt>
      <trkpt lat="49.022" lon="7.79166">
        <ele>376.6</ele>
        <time>2022-05-01T07:46:45Z</time>
      </trkpt>
      <trkpt lat="49.02197" lon="7.79168">
        <ele>376.6</ele>
        <time>2022-05-01T07:46:46Z</time>
      </trkpt>
      <trkpt lat="49.02195" lon="7.7917">
        <ele>376.8</ele>
        <time>2022-05-01T07:46:47Z</time>
      </trkpt>
      <trkpt lat="49.02191" lon="7.79169">
        <ele>376.8</ele>
        <time>2022-05-01T07:46:48Z</time>
      </trkpt>
      <trkpt lat="49.02188" lon="7.79171">
        <ele>377</ele>
        <time>2022-05-01T07:46:49Z</time>
      </trkpt>
      <trkpt lat="49.02184" lon="7.79169">
        <ele>377</ele>
        <time>2022-05-01T07:46:50Z</time>
      </trkpt>
      <trkpt lat="49.0218" lon="7.79171">
        <ele>377.2</ele>
        <time>2022-05-01T07:46:51Z</time>
      </trkpt>
      <trkpt lat="49.02176" lon="7.79172">
        <ele>377.4</ele>
        <time>2022-05-01T07:46:52Z</time>
      </trkpt>
      <trkpt lat="49.02171" lon="7.79177">
        <ele>377.6</ele>
        <time>2022-05-01T07:46:54Z</time>
      </trkpt>
      <trkpt lat="49.02169" lon="7.7918">
        <ele>377.6</ele>
        <time>2022-05-01T07:46:55Z</time>
      </trkpt>
      <trkpt lat="49.02166" lon="7.79182">
        <ele>377.8</ele>
        <time>2022-05-01T07:46:56Z</time>
      </trkpt>
      <trkpt lat="49.02162" lon="7.79183">
        <ele>377.8</ele>
        <time>2022-05-01T07:46:57Z</time>
      </trkpt>
      <trkpt lat="49.02157" lon="7.79186">
        <ele>377.8</ele>
        <time>2022-05-01T07:46:59Z</time>
      </trkpt>
      <trkpt lat="49.02154" lon="7.79188">
        <ele>378</ele>
        <time>2022-05-01T07:47:00Z</time>
      </trkpt>
      <trkpt lat="49.02146" lon="7.79192">
        <ele>378.2</ele>
        <time>2022-05-01T07:47:03Z</time>
      </trkpt>
      <trkpt lat="49.02142" lon="7.79193">
        <ele>378.2</ele>
        <time>2022-05-01T07:47:04Z</time>
      </trkpt>
      <trkpt lat="49.02138" lon="7.79194">
        <ele>378.4</ele>
        <time>2022-05-01T07:47:05Z</time>
      </trkpt>
      <trkpt lat="49.02137" lon="7.79197">
        <ele>378.4</ele>
        <time>2022-05-01T07:47:06Z</time>
      </trkpt>
      <trkpt lat="49.02134" lon="7.79199">
        <ele>378.4</ele>
        <time>2022-05-01T07:47:07Z</time>
      </trkpt>
      <trkpt lat="49.0212" lon="7.79209">
        <ele>378.8</ele>
        <time>2022-05-01T07:47:11Z</time>
      </trkpt>
      <trkpt lat="49.02119" lon="7.79213">
        <ele>379</ele>
        <time>2022-05-01T07:47:12Z</time>
      </trkpt>
      <trkpt lat="49.02117" lon="7.79215">
        <ele>379.2</ele>
        <time>2022-05-01T07:47:13Z</time>
      </trkpt>
      <trkpt lat="49.02115" lon="7.79218">
        <ele>379.4</ele>
        <time>2022-05-01T07:47:14Z</time>
      </trkpt>
      <trkpt lat="49.02113" lon="7.7922">
        <ele>379.4</ele>
        <time>2022-05-01T07:47:15Z</time>
      </trkpt>
      <trkpt lat="49.02111" lon="7.79223">
        <ele>379.6</ele>
        <time>2022-05-01T07:47:16Z</time>
      </trkpt>
      <trkpt lat="49.02108" lon="7.79225">
        <ele>379.6</ele>
        <time>2022-05-01T07:47:17Z</time>
      </trkpt>
      <trkpt lat="49.02106" lon="7.79227">
        <ele>379.6</ele>
        <time>2022-05-01T07:47:18Z</time>
      </trkpt>
      <trkpt lat="49.02103" lon="7.79229">
        <ele>379.8</ele>
        <time>2022-05-01T07:47:19Z</time>
      </trkpt>
      <trkpt lat="49.02101" lon="7.79231">
        <ele>380</ele>
        <time>2022-05-01T07:47:20Z</time>
      </trkpt>
      <trkpt lat="49.02098" lon="7.79233">
        <ele>380.2</ele>
        <time>2022-05-01T07:47:21Z</time>
      </trkpt>
      <trkpt lat="49.02095" lon="7.79235">
        <ele>380.4</ele>
        <time>2022-05-01T07:47:22Z</time>
      </trkpt>
      <trkpt lat="49.02082" lon="7.79245">
        <ele>381</ele>
        <time>2022-05-01T07:47:26Z</time>
      </trkpt>
      <trkpt lat="49.02078" lon="7.79247">
        <ele>381.4</ele>
        <time>2022-05-01T07:47:27Z</time>
      </trkpt>
      <trkpt lat="49.02075" lon="7.7925">
        <ele>381.6</ele>
        <time>2022-05-01T07:47:28Z</time>
      </trkpt>
      <trkpt lat="49.02073" lon="7.79254">
        <ele>381.8</ele>
        <time>2022-05-01T07:47:29Z</time>
      </trkpt>
      <trkpt lat="49.0207" lon="7.79258">
        <ele>382</ele>
        <time>2022-05-01T07:47:30Z</time>
      </trkpt>
      <trkpt lat="49.02068" lon="7.7926">
        <ele>382.2</ele>
        <time>2022-05-01T07:47:31Z</time>
      </trkpt>
      <trkpt lat="49.02066" lon="7.79265">
        <ele>382.4</ele>
        <time>2022-05-01T07:47:32Z</time>
      </trkpt>
      <trkpt lat="49.02065" lon="7.79269">
        <ele>382.8</ele>
        <time>2022-05-01T07:47:33Z</time>
      </trkpt>
      <trkpt lat="49.02064" lon="7.79274">
        <ele>383.2</ele>
        <time>2022-05-01T07:47:34Z</time>
      </trkpt>
      <trkpt lat="49.02063" lon="7.79277">
        <ele>383.4</ele>
        <time>2022-05-01T07:47:35Z</time>
      </trkpt>
      <trkpt lat="49.02062" lon="7.79281">
        <ele>383.4</ele>
        <time>2022-05-01T07:47:36Z</time>
      </trkpt>
      <trkpt lat="49.02063" lon="7.79284">
        <ele>383.6</ele>
        <time>2022-05-01T07:47:37Z</time>
      </trkpt>
      <trkpt lat="49.02064" lon="7.79287">
        <ele>383.6</ele>
        <time>2022-05-01T07:47:38Z</time>
      </trkpt>
      <trkpt lat="49.02065" lon="7.7929">
        <ele>383.8</ele>
        <time>2022-05-01T07:47:39Z</time>
      </trkpt>
      <trkpt lat="49.02067" lon="7.79295">
        <ele>384</ele>
        <time>2022-05-01T07:47:40Z</time>
      </trkpt>
      <trkpt lat="49.02069" lon="7.79298">
        <ele>384.2</ele>
        <time>2022-05-01T07:47:41Z</time>
      </trkpt>
      <trkpt lat="49.02071" lon="7.79302">
        <ele>384.2</ele>
        <time>2022-05-01T07:47:42Z</time>
      </trkpt>
      <trkpt lat="49.02073" lon="7.79304">
        <ele>384.6</ele>
        <time>2022-05-01T07:47:43Z</time>
      </trkpt>
      <trkpt lat="49.02075" lon="7.79306">
        <ele>385</ele>
        <time>2022-05-01T07:47:44Z</time>
      </trkpt>
      <trkpt lat="49.02077" lon="7.79306">
        <ele>385.2</ele>
        <time>2022-05-01T07:47:45Z</time>
      </trkpt>
      <trkpt lat="49.02078" lon="7.79305">
        <ele>385.4</ele>
        <time>2022-05-01T07:47:46Z</time>
      </trkpt>
      <trkpt lat="49.0208" lon="7.79305">
        <ele>385.8</ele>
        <time>2022-05-01T07:47:47Z</time>
      </trkpt>
      <trkpt lat="49.02081" lon="7.79304">
        <ele>386</ele>
        <time>2022-05-01T07:47:48Z</time>
      </trkpt>
      <trkpt lat="49.02083" lon="7.79304">
        <ele>386.2</ele>
        <time>2022-05-01T07:47:49Z</time>
      </trkpt>
      <trkpt lat="49.02085" lon="7.79303">
        <ele>386.4</ele>
        <time>2022-05-01T07:47:50Z</time>
      </trkpt>
      <trkpt lat="49.02087" lon="7.79302">
        <ele>386.6</ele>
        <time>2022-05-01T07:47:51Z</time>
      </trkpt>
      <trkpt lat="49.02089" lon="7.79301">
        <ele>386.8</ele>
        <time>2022-05-01T07:47:52Z</time>
      </trkpt>
      <trkpt lat="49.02091" lon="7.793">
        <ele>387</ele>
        <time>2022-05-01T07:47:53Z</time>
      </trkpt>
      <trkpt lat="49.02092" lon="7.79299">
        <ele>387.4</ele>
        <time>2022-05-01T07:47:54Z</time>
      </trkpt>
      <trkpt lat="49.02094" lon="7.79298">
        <ele>387.6</ele>
        <time>2022-05-01T07:47:55Z</time>
      </trkpt>
      <trkpt lat="49.02095" lon="7.79297">
        <ele>387.8</ele>
        <time>2022-05-01T07:47:56Z</time>
      </trkpt>
      <trkpt lat="49.02097" lon="7.79296">
        <ele>388.2</ele>
        <time>2022-05-01T07:47:57Z</time>
      </trkpt>
      <trkpt lat="49.02099" lon="7.79296">
        <ele>388.4</ele>
        <time>2022-05-01T07:47:58Z</time>
      </trkpt>
      <trkpt lat="49.021" lon="7.79296">
        <ele>388.8</ele>
        <time>2022-05-01T07:47:59Z</time>
      </trkpt>
      <trkpt lat="49.02102" lon="7.79296">
        <ele>389</ele>
        <time>2022-05-01T07:48:00Z</time>
      </trkpt>
      <trkpt lat="49.02104" lon="7.79296">
        <ele>389.2</ele>
        <time>2022-05-01T07:48:01Z</time>
      </trkpt>
      <trkpt lat="49.02105" lon="7.79296">
        <ele>389.6</ele>
        <time>2022-05-01T07:48:02Z</time>
      </trkpt>
      <trkpt lat="49.02107" lon="7.79295">
        <ele>389.8</ele>
        <time>2022-05-01T07:48:03Z</time>
      </trkpt>
      <trkpt lat="49.02109" lon="7.79295">
        <ele>390.2</ele>
        <time>2022-05-01T07:48:04Z</time>
      </trkpt>
      <trkpt lat="49.0211" lon="7.79295">
        <ele>390.4</ele>
        <time>2022-05-01T07:48:05Z</time>
      </trkpt>
      <trkpt lat="49.02112" lon="7.79294">
        <ele>390.8</ele>
        <time>2022-05-01T07:48:06Z</time>
      </trkpt>
      <trkpt lat="49.02113" lon="7.79294">
        <ele>391</ele>
        <time>2022-05-01T07:48:07Z</time>
      </trkpt>
      <trkpt lat="49.02115" lon="7.79294">
        <ele>391.2</ele>
        <time>2022-05-01T07:48:08Z</time>
      </trkpt>
      <trkpt lat="49.02117" lon="7.79295">
        <ele>391.6</ele>
        <time>2022-05-01T07:48:09Z</time>
      </trkpt>
      <trkpt lat="49.02118" lon="7.79296">
        <ele>391.8</ele>
        <time>2022-05-01T07:48:10Z</time>
      </trkpt>
      <trkpt lat="49.0212" lon="7.79296">
        <ele>392.2</ele>
        <time>2022-05-01T07:48:11Z</time>
      </trkpt>
      <trkpt lat="49.02121" lon="7.79296">
        <ele>392.4</ele>
        <time>2022-05-01T07:48:12Z</time>
      </trkpt>
      <trkpt lat="49.02122" lon="7.79295">
        <ele>392.6</ele>
        <time>2022-05-01T07:48:13Z</time>
      </trkpt>
      <trkpt lat="49.02123" lon="7.79295">
        <ele>392.8</ele>
        <time>2022-05-01T07:48:14Z</time>
      </trkpt>
      <trkpt lat="49.02124" lon="7.79295">
        <ele>393</ele>
        <time>2022-05-01T07:48:15Z</time>
      </trkpt>
      <trkpt lat="49.02126" lon="7.79296">
        <ele>393.2</ele>
        <time>2022-05-01T07:48:16Z</time>
      </trkpt>
      <trkpt lat="49.02127" lon="7.79296">
        <ele>393.4</ele>
        <time>2022-05-01T07:48:17Z</time>
      </trkpt>
      <trkpt lat="49.02127" lon="7.79296">
        <ele>393.6</ele>
        <time>2022-05-01T07:48:18Z</time>
      </trkpt>
      <trkpt lat="49.02129" lon="7.79296">
        <ele>393.8</ele>
        <time>2022-05-01T07:48:19Z</time>
      </trkpt>
      <trkpt lat="49.02131" lon="7.79296">
        <ele>394</ele>
        <time>2022-05-01T07:48:20Z</time>
      </trkpt>
      <trkpt lat="49.02133" lon="7.79296">
        <ele>394.2</ele>
        <time>2022-05-01T07:48:21Z</time>
      </trkpt>
      <trkpt lat="49.02135" lon="7.79296">
        <ele>394.4</ele>
        <time>2022-05-01T07:48:22Z</time>
      </trkpt>
      <trkpt lat="49.02136" lon="7.79295">
        <ele>394.6</ele>
        <time>2022-05-01T07:48:23Z</time>
      </trkpt>
      <trkpt lat="49.02137" lon="7.79295">
        <ele>394.8</ele>
        <time>2022-05-01T07:48:24Z</time>
      </trkpt>
      <trkpt lat="49.02139" lon="7.79294">
        <ele>395</ele>
        <time>2022-05-01T07:48:25Z</time>
      </trkpt>
      <trkpt lat="49.02141" lon="7.79294">
        <ele>395.4</ele>
        <time>2022-05-01T07:48:26Z</time>
      </trkpt>
      <trkpt lat="49.02143" lon="7.79294">
        <ele>395.6</ele>
        <time>2022-05-01T07:48:27Z</time>
      </trkpt>
      <trkpt lat="49.02145" lon="7.79294">
        <ele>395.6</ele>
        <time>2022-05-01T07:48:28Z</time>
      </trkpt>
      <trkpt lat="49.02147" lon="7.79293">
        <ele>395.8</ele>
        <time>2022-05-01T07:48:29Z</time>
      </trkpt>
      <trkpt lat="49.02148" lon="7.79291">
        <ele>396.2</ele>
        <time>2022-05-01T07:48:30Z</time>
      </trkpt>
      <trkpt lat="49.0215" lon="7.79291">
        <ele>396.4</ele>
        <time>2022-05-01T07:48:31Z</time>
      </trkpt>
      <trkpt lat="49.02152" lon="7.7929">
        <ele>396.6</ele>
        <time>2022-05-01T07:48:32Z</time>
      </trkpt>
      <trkpt lat="49.02154" lon="7.79288">
        <ele>397</ele>
        <time>2022-05-01T07:48:33Z</time>
      </trkpt>
      <trkpt lat="49.02156" lon="7.79287">
        <ele>397.2</ele>
        <time>2022-05-01T07:48:34Z</time>
      </trkpt>
      <trkpt lat="49.02158" lon="7.79286">
        <ele>397.4</ele>
        <time>2022-05-01T07:48:35Z</time>
      </trkpt>
      <trkpt lat="49.0216" lon="7.79286">
        <ele>397.6</ele>
        <time>2022-05-01T07:48:36Z</time>
      </trkpt>
      <trkpt lat="49.02161" lon="7.79284">
        <ele>397.8</ele>
        <time>2022-05-01T07:48:37Z</time>
      </trkpt>
      <trkpt lat="49.02163" lon="7.79283">
        <ele>398</ele>
        <time>2022-05-01T07:48:38Z</time>
      </trkpt>
      <trkpt lat="49.02164" lon="7.79282">
        <ele>398.2</ele>
        <time>2022-05-01T07:48:39Z</time>
      </trkpt>
      <trkpt lat="49.02166" lon="7.79281">
        <ele>398.4</ele>
        <time>2022-05-01T07:48:40Z</time>
      </trkpt>
      <trkpt lat="49.02168" lon="7.7928">
        <ele>398.6</ele>
        <time>2022-05-01T07:48:41Z</time>
      </trkpt>
      <trkpt lat="49.02169" lon="7.79278">
        <ele>398.8</ele>
        <time>2022-05-01T07:48:42Z</time>
      </trkpt>
      <trkpt lat="49.0217" lon="7.79277">
        <ele>399</ele>
        <time>2022-05-01T07:48:43Z</time>
      </trkpt>
      <trkpt lat="49.02173" lon="7.79277">
        <ele>399.2</ele>
        <time>2022-05-01T07:48:44Z</time>
      </trkpt>
      <trkpt lat="49.02175" lon="7.79276">
        <ele>399.4</ele>
        <time>2022-05-01T07:48:45Z</time>
      </trkpt>
      <trkpt lat="49.02177" lon="7.79275">
        <ele>399.6</ele>
        <time>2022-05-01T07:48:46Z</time>
      </trkpt>
      <trkpt lat="49.02179" lon="7.79274">
        <ele>399.8</ele>
        <time>2022-05-01T07:48:47Z</time>
      </trkpt>
      <trkpt lat="49.02181" lon="7.79274">
        <ele>400</ele>
        <time>2022-05-01T07:48:48Z</time>
      </trkpt>
      <trkpt lat="49.02183" lon="7.79272">
        <ele>400.2</ele>
        <time>2022-05-01T07:48:49Z</time>
      </trkpt>
      <trkpt lat="49.02185" lon="7.79271">
        <ele>400.6</ele>
        <time>2022-05-01T07:48:50Z</time>
      </trkpt>
      <trkpt lat="49.02187" lon="7.79269">
        <ele>400.6</ele>
        <time>2022-05-01T07:48:51Z</time>
      </trkpt>
      <trkpt lat="49.0219" lon="7.79268">
        <ele>400.8</ele>
        <time>2022-05-01T07:48:52Z</time>
      </trkpt>
      <trkpt lat="49.02192" lon="7.79267">
        <ele>401</ele>
        <time>2022-05-01T07:48:53Z</time>
      </trkpt>
      <trkpt lat="49.02194" lon="7.79265">
        <ele>401.2</ele>
        <time>2022-05-01T07:48:54Z</time>
      </trkpt>
      <trkpt lat="49.02195" lon="7.79264">
        <ele>401.4</ele>
        <time>2022-05-01T07:48:55Z</time>
      </trkpt>
      <trkpt lat="49.02196" lon="7.79262">
        <ele>401.6</ele>
        <time>2022-05-01T07:48:56Z</time>
      </trkpt>
      <trkpt lat="49.02197" lon="7.79261">
        <ele>401.8</ele>
        <time>2022-05-01T07:48:57Z</time>
      </trkpt>
      <trkpt lat="49.02199" lon="7.79261">
        <ele>402</ele>
        <time>2022-05-01T07:48:58Z</time>
      </trkpt>
      <trkpt lat="49.02201" lon="7.79261">
        <ele>402</ele>
        <time>2022-05-01T07:48:59Z</time>
      </trkpt>
      <trkpt lat="49.02204" lon="7.7926">
        <ele>402</ele>
        <time>2022-05-01T07:49:00Z</time>
      </trkpt>
      <trkpt lat="49.02207" lon="7.7926">
        <ele>402.2</ele>
        <time>2022-05-01T07:49:01Z</time>
      </trkpt>
      <trkpt lat="49.0221" lon="7.79261">
        <ele>402.4</ele>
        <time>2022-05-01T07:49:02Z</time>
      </trkpt>
      <trkpt lat="49.02211" lon="7.79259">
        <ele>402.6</ele>
        <time>2022-05-01T07:49:03Z</time>
      </trkpt>
      <trkpt lat="49.02212" lon="7.79259">
        <ele>402.8</ele>
        <time>2022-05-01T07:49:04Z</time>
      </trkpt>
      <trkpt lat="49.02214" lon="7.79258">
        <ele>402.8</ele>
        <time>2022-05-01T07:49:05Z</time>
      </trkpt>
      <trkpt lat="49.02216" lon="7.79258">
        <ele>403.2</ele>
        <time>2022-05-01T07:49:06Z</time>
      </trkpt>
      <trkpt lat="49.02218" lon="7.79257">
        <ele>403.4</ele>
        <time>2022-05-01T07:49:07Z</time>
      </trkpt>
      <trkpt lat="49.02219" lon="7.79257">
        <ele>403.6</ele>
        <time>2022-05-01T07:49:08Z</time>
      </trkpt>
      <trkpt lat="49.02221" lon="7.79257">
        <ele>403.8</ele>
        <time>2022-05-01T07:49:09Z</time>
      </trkpt>
      <trkpt lat="49.02224" lon="7.79257">
        <ele>404</ele>
        <time>2022-05-01T07:49:10Z</time>
      </trkpt>
      <trkpt lat="49.02226" lon="7.79257">
        <ele>404.2</ele>
        <time>2022-05-01T07:49:11Z</time>
      </trkpt>
      <trkpt lat="49.02228" lon="7.79257">
        <ele>404.4</ele>
        <time>2022-05-01T07:49:12Z</time>
      </trkpt>
      <trkpt lat="49.0223" lon="7.79257">
        <ele>404.8</ele>
        <time>2022-05-01T07:49:13Z</time>
      </trkpt>
      <trkpt lat="49.02233" lon="7.79257">
        <ele>405.2</ele>
        <time>2022-05-01T07:49:14Z</time>
      </trkpt>
      <trkpt lat="49.02234" lon="7.79257">
        <ele>405.6</ele>
        <time>2022-05-01T07:49:15Z</time>
      </trkpt>
      <trkpt lat="49.02237" lon="7.79256">
        <ele>405.8</ele>
        <time>2022-05-01T07:49:16Z</time>
      </trkpt>
      <trkpt lat="49.02239" lon="7.79256">
        <ele>405.8</ele>
        <time>2022-05-01T07:49:17Z</time>
      </trkpt>
      <trkpt lat="49.0224" lon="7.79255">
        <ele>405.8</ele>
        <time>2022-05-01T07:49:18Z</time>
      </trkpt>
      <trkpt lat="49.02242" lon="7.79254">
        <ele>406</ele>
        <time>2022-05-01T07:49:19Z</time>
      </trkpt>
      <trkpt lat="49.02243" lon="7.79254">
        <ele>406.2</ele>
        <time>2022-05-01T07:49:20Z</time>
      </trkpt>
      <trkpt lat="49.02245" lon="7.79255">
        <ele>406.4</ele>
        <time>2022-05-01T07:49:21Z</time>
      </trkpt>
      <trkpt lat="49.02247" lon="7.79254">
        <ele>406.6</ele>
        <time>2022-05-01T07:49:22Z</time>
      </trkpt>
      <trkpt lat="49.02249" lon="7.79254">
        <ele>406.8</ele>
        <time>2022-05-01T07:49:23Z</time>
      </trkpt>
      <trkpt lat="49.0225" lon="7.79252">
        <ele>407</ele>
        <time>2022-05-01T07:49:24Z</time>
      </trkpt>
      <trkpt lat="49.02253" lon="7.79251">
        <ele>407</ele>
        <time>2022-05-01T07:49:25Z</time>
      </trkpt>
      <trkpt lat="49.02255" lon="7.79251">
        <ele>407.2</ele>
        <time>2022-05-01T07:49:26Z</time>
      </trkpt>
      <trkpt lat="49.02257" lon="7.79251">
        <ele>407.6</ele>
        <time>2022-05-01T07:49:27Z</time>
      </trkpt>
      <trkpt lat="49.02258" lon="7.79251">
        <ele>407.6</ele>
        <time>2022-05-01T07:49:28Z</time>
      </trkpt>
      <trkpt lat="49.02258" lon="7.79251">
        <ele>407.8</ele>
        <time>2022-05-01T07:49:29Z</time>
      </trkpt>
      <trkpt lat="49.02259" lon="7.79251">
        <ele>408</ele>
        <time>2022-05-01T07:49:30Z</time>
      </trkpt>
      <trkpt lat="49.0226" lon="7.79251">
        <ele>408.2</ele>
        <time>2022-05-01T07:49:31Z</time>
      </trkpt>
      <trkpt lat="49.02262" lon="7.79251">
        <ele>408.4</ele>
        <time>2022-05-01T07:49:32Z</time>
      </trkpt>
      <trkpt lat="49.02264" lon="7.79251">
        <ele>408.6</ele>
        <time>2022-05-01T07:49:33Z</time>
      </trkpt>
      <trkpt lat="49.02266" lon="7.79252">
        <ele>408.8</ele>
        <time>2022-05-01T07:49:34Z</time>
      </trkpt>
      <trkpt lat="49.02269" lon="7.79252">
        <ele>408.8</ele>
        <time>2022-05-01T07:49:35Z</time>
      </trkpt>
      <trkpt lat="49.02271" lon="7.79252">
        <ele>409</ele>
        <time>2022-05-01T07:49:36Z</time>
      </trkpt>
      <trkpt lat="49.02274" lon="7.79253">
        <ele>409.2</ele>
        <time>2022-05-01T07:49:37Z</time>
      </trkpt>
      <trkpt lat="49.02276" lon="7.79253">
        <ele>409.4</ele>
        <time>2022-05-01T07:49:38Z</time>
      </trkpt>
      <trkpt lat="49.02278" lon="7.79253">
        <ele>409.6</ele>
        <time>2022-05-01T07:49:39Z</time>
      </trkpt>
      <trkpt lat="49.02281" lon="7.79254">
        <ele>409.8</ele>
        <time>2022-05-01T07:49:40Z</time>
      </trkpt>
      <trkpt lat="49.02283" lon="7.79255">
        <ele>409.8</ele>
        <time>2022-05-01T07:49:41Z</time>
      </trkpt>
      <trkpt lat="49.02286" lon="7.79255">
        <ele>410</ele>
        <time>2022-05-01T07:49:42Z</time>
      </trkpt>
      <trkpt lat="49.02289" lon="7.79255">
        <ele>410.4</ele>
        <time>2022-05-01T07:49:43Z</time>
      </trkpt>
      <trkpt lat="49.02291" lon="7.79256">
        <ele>410.4</ele>
        <time>2022-05-01T07:49:44Z</time>
      </trkpt>
      <trkpt lat="49.02294" lon="7.79258">
        <ele>410.6</ele>
        <time>2022-05-01T07:49:45Z</time>
      </trkpt>
      <trkpt lat="49.02296" lon="7.79258">
        <ele>410.8</ele>
        <time>2022-05-01T07:49:46Z</time>
      </trkpt>
      <trkpt lat="49.02297" lon="7.7926">
        <ele>411</ele>
        <time>2022-05-01T07:49:47Z</time>
      </trkpt>
      <trkpt lat="49.02299" lon="7.79261">
        <ele>411.2</ele>
        <time>2022-05-01T07:49:48Z</time>
      </trkpt>
      <trkpt lat="49.02301" lon="7.79262">
        <ele>411.4</ele>
        <time>2022-05-01T07:49:49Z</time>
      </trkpt>
      <trkpt lat="49.02303" lon="7.79262">
        <ele>411.6</ele>
        <time>2022-05-01T07:49:50Z</time>
      </trkpt>
      <trkpt lat="49.02306" lon="7.79263">
        <ele>411.8</ele>
        <time>2022-05-01T07:49:51Z</time>
      </trkpt>
      <trkpt lat="49.02308" lon="7.79263">
        <ele>411.8</ele>
        <time>2022-05-01T07:49:52Z</time>
      </trkpt>
      <trkpt lat="49.0231" lon="7.79264">
        <ele>412</ele>
        <time>2022-05-01T07:49:53Z</time>
      </trkpt>
      <trkpt lat="49.02313" lon="7.79264">
        <ele>412.2</ele>
        <time>2022-05-01T07:49:54Z</time>
      </trkpt>
      <trkpt lat="49.02315" lon="7.79265">
        <ele>412.4</ele>
        <time>2022-05-01T07:49:55Z</time>
      </trkpt>
      <trkpt lat="49.02316" lon="7.79267">
        <ele>412.6</ele>
        <time>2022-05-01T07:49:56Z</time>
      </trkpt>
      <trkpt lat="49.02318" lon="7.79268">
        <ele>412.8</ele>
        <time>2022-05-01T07:49:57Z</time>
      </trkpt>
      <trkpt lat="49.02321" lon="7.79269">
        <ele>413.2</ele>
        <time>2022-05-01T07:49:58Z</time>
      </trkpt>
      <trkpt lat="49.02323" lon="7.79271">
        <ele>413.4</ele>
        <time>2022-05-01T07:49:59Z</time>
      </trkpt>
      <trkpt lat="49.02326" lon="7.79273">
        <ele>413.6</ele>
        <time>2022-05-01T07:50:00Z</time>
      </trkpt>
      <trkpt lat="49.02328" lon="7.79273">
        <ele>413.8</ele>
        <time>2022-05-01T07:50:01Z</time>
      </trkpt>
      <trkpt lat="49.02329" lon="7.79272">
        <ele>414</ele>
        <time>2022-05-01T07:50:02Z</time>
      </trkpt>
      <trkpt lat="49.02331" lon="7.79274">
        <ele>414.2</ele>
        <time>2022-05-01T07:50:03Z</time>
      </trkpt>
      <trkpt lat="49.02333" lon="7.79276">
        <ele>414.4</ele>
        <time>2022-05-01T07:50:04Z</time>
      </trkpt>
      <trkpt lat="49.02335" lon="7.79278">
        <ele>414.4</ele>
        <time>2022-05-01T07:50:05Z</time>
      </trkpt>
      <trkpt lat="49.02337" lon="7.79279">
        <ele>414.6</ele>
        <time>2022-05-01T07:50:06Z</time>
      </trkpt>
      <trkpt lat="49.02339" lon="7.79281">
        <ele>414.8</ele>
        <time>2022-05-01T07:50:07Z</time>
      </trkpt>
      <trkpt lat="49.02342" lon="7.79282">
        <ele>414.8</ele>
        <time>2022-05-01T07:50:08Z</time>
      </trkpt>
      <trkpt lat="49.02344" lon="7.79284">
        <ele>415</ele>
        <time>2022-05-01T07:50:09Z</time>
      </trkpt>
      <trkpt lat="49.02346" lon="7.79285">
        <ele>415.2</ele>
        <time>2022-05-01T07:50:10Z</time>
      </trkpt>
      <trkpt lat="49.02347" lon="7.79287">
        <ele>415.4</ele>
        <time>2022-05-01T07:50:11Z</time>
      </trkpt>
      <trkpt lat="49.02349" lon="7.7929">
        <ele>415.8</ele>
        <time>2022-05-01T07:50:12Z</time>
      </trkpt>
      <trkpt lat="49.02351" lon="7.79292">
        <ele>416</ele>
        <time>2022-05-01T07:50:13Z</time>
      </trkpt>
      <trkpt lat="49.02352" lon="7.79294">
        <ele>416.2</ele>
        <time>2022-05-01T07:50:14Z</time>
      </trkpt>
      <trkpt lat="49.02353" lon="7.79296">
        <ele>416.4</ele>
        <time>2022-05-01T07:50:15Z</time>
      </trkpt>
      <trkpt lat="49.02355" lon="7.79298">
        <ele>416.4</ele>
        <time>2022-05-01T07:50:16Z</time>
      </trkpt>
      <trkpt lat="49.02357" lon="7.79301">
        <ele>416.6</ele>
        <time>2022-05-01T07:50:17Z</time>
      </trkpt>
      <trkpt lat="49.02359" lon="7.79303">
        <ele>416.8</ele>
        <time>2022-05-01T07:50:18Z</time>
      </trkpt>
      <trkpt lat="49.02361" lon="7.79305">
        <ele>417</ele>
        <time>2022-05-01T07:50:19Z</time>
      </trkpt>
      <trkpt lat="49.02362" lon="7.79307">
        <ele>417.2</ele>
        <time>2022-05-01T07:50:20Z</time>
      </trkpt>
      <trkpt lat="49.02364" lon="7.79309">
        <ele>417.4</ele>
        <time>2022-05-01T07:50:21Z</time>
      </trkpt>
      <trkpt lat="49.02366" lon="7.7931">
        <ele>417.6</ele>
        <time>2022-05-01T07:50:22Z</time>
      </trkpt>
      <trkpt lat="49.02369" lon="7.79313">
        <ele>417.8</ele>
        <time>2022-05-01T07:50:23Z</time>
      </trkpt>
      <trkpt lat="49.0237" lon="7.79314">
        <ele>418</ele>
        <time>2022-05-01T07:50:24Z</time>
      </trkpt>
      <trkpt lat="49.02372" lon="7.79316">
        <ele>418.2</ele>
        <time>2022-05-01T07:50:25Z</time>
      </trkpt>
      <trkpt lat="49.02374" lon="7.79318">
        <ele>418.4</ele>
        <time>2022-05-01T07:50:26Z</time>
      </trkpt>
      <trkpt lat="49.02377" lon="7.7932">
        <ele>418.6</ele>
        <time>2022-05-01T07:50:27Z</time>
      </trkpt>
      <trkpt lat="49.02379" lon="7.79323">
        <ele>418.8</ele>
        <time>2022-05-01T07:50:28Z</time>
      </trkpt>
      <trkpt lat="49.02379" lon="7.79325">
        <ele>419</ele>
        <time>2022-05-01T07:50:29Z</time>
      </trkpt>
      <trkpt lat="49.02382" lon="7.79327">
        <ele>419.2</ele>
        <time>2022-05-01T07:50:30Z</time>
      </trkpt>
      <trkpt lat="49.02383" lon="7.79329">
        <ele>419.2</ele>
        <time>2022-05-01T07:50:31Z</time>
      </trkpt>
      <trkpt lat="49.02385" lon="7.79331">
        <ele>419.4</ele>
        <time>2022-05-01T07:50:32Z</time>
      </trkpt>
      <trkpt lat="49.02386" lon="7.79333">
        <ele>419.6</ele>
        <time>2022-05-01T07:50:33Z</time>
      </trkpt>
      <trkpt lat="49.02388" lon="7.79335">
        <ele>419.8</ele>
        <time>2022-05-01T07:50:34Z</time>
      </trkpt>
      <trkpt lat="49.02389" lon="7.79338">
        <ele>419.8</ele>
        <time>2022-05-01T07:50:35Z</time>
      </trkpt>
      <trkpt lat="49.02391" lon="7.7934">
        <ele>420.2</ele>
        <time>2022-05-01T07:50:36Z</time>
      </trkpt>
      <trkpt lat="49.02393" lon="7.79342">
        <ele>420.4</ele>
        <time>2022-05-01T07:50:37Z</time>
      </trkpt>
      <trkpt lat="49.02395" lon="7.79345">
        <ele>420.6</ele>
        <time>2022-05-01T07:50:38Z</time>
      </trkpt>
      <trkpt lat="49.02396" lon="7.79348">
        <ele>420.8</ele>
        <time>2022-05-01T07:50:39Z</time>
      </trkpt>
      <trkpt lat="49.02398" lon="7.7935">
        <ele>421</ele>
        <time>2022-05-01T07:50:40Z</time>
      </trkpt>
      <trkpt lat="49.02399" lon="7.79353">
        <ele>421.2</ele>
        <time>2022-05-01T07:50:41Z</time>
      </trkpt>
      <trkpt lat="49.02401" lon="7.79355">
        <ele>421.4</ele>
        <time>2022-05-01T07:50:42Z</time>
      </trkpt>
      <trkpt lat="49.02403" lon="7.79358">
        <ele>421.4</ele>
        <time>2022-05-01T07:50:43Z</time>
      </trkpt>
      <trkpt lat="49.02405" lon="7.7936">
        <ele>421.6</ele>
        <time>2022-05-01T07:50:44Z</time>
      </trkpt>
      <trkpt lat="49.02407" lon="7.79362">
        <ele>421.8</ele>
        <time>2022-05-01T07:50:45Z</time>
      </trkpt>
      <trkpt lat="49.02408" lon="7.79364">
        <ele>422</ele>
        <time>2022-05-01T07:50:46Z</time>
      </trkpt>
      <trkpt lat="49.02409" lon="7.79367">
        <ele>422.2</ele>
        <time>2022-05-01T07:50:47Z</time>
      </trkpt>
      <trkpt lat="49.0241" lon="7.79369">
        <ele>422.2</ele>
        <time>2022-05-01T07:50:48Z</time>
      </trkpt>
      <trkpt lat="49.02412" lon="7.79371">
        <ele>422.4</ele>
        <time>2022-05-01T07:50:49Z</time>
      </trkpt>
      <trkpt lat="49.02414" lon="7.79373">
        <ele>422.6</ele>
        <time>2022-05-01T07:50:50Z</time>
      </trkpt>
      <trkpt lat="49.02415" lon="7.79375">
        <ele>422.8</ele>
        <time>2022-05-01T07:50:51Z</time>
      </trkpt>
      <trkpt lat="49.02417" lon="7.79378">
        <ele>423</ele>
        <time>2022-05-01T07:50:52Z</time>
      </trkpt>
      <trkpt lat="49.02419" lon="7.79382">
        <ele>423.4</ele>
        <time>2022-05-01T07:50:53Z</time>
      </trkpt>
      <trkpt lat="49.0242" lon="7.79385">
        <ele>423.6</ele>
        <time>2022-05-01T07:50:54Z</time>
      </trkpt>
      <trkpt lat="49.02421" lon="7.79387">
        <ele>423.6</ele>
        <time>2022-05-01T07:50:55Z</time>
      </trkpt>
      <trkpt lat="49.02423" lon="7.7939">
        <ele>423.6</ele>
        <time>2022-05-01T07:50:56Z</time>
      </trkpt>
      <trkpt lat="49.02425" lon="7.79393">
        <ele>423.8</ele>
        <time>2022-05-01T07:50:57Z</time>
      </trkpt>
      <trkpt lat="49.02426" lon="7.79396">
        <ele>423.8</ele>
        <time>2022-05-01T07:50:58Z</time>
      </trkpt>
      <trkpt lat="49.02427" lon="7.79398">
        <ele>424</ele>
        <time>2022-05-01T07:50:59Z</time>
      </trkpt>
      <trkpt lat="49.02428" lon="7.794">
        <ele>424.2</ele>
        <time>2022-05-01T07:51:00Z</time>
      </trkpt>
      <trkpt lat="49.02428" lon="7.79402">
        <ele>424.4</ele>
        <time>2022-05-01T07:51:01Z</time>
      </trkpt>
      <trkpt lat="49.02429" lon="7.79404">
        <ele>424.6</ele>
        <time>2022-05-01T07:51:02Z</time>
      </trkpt>
      <trkpt lat="49.02431" lon="7.79406">
        <ele>424.8</ele>
        <time>2022-05-01T07:51:03Z</time>
      </trkpt>
      <trkpt lat="49.02433" lon="7.7941">
        <ele>425</ele>
        <time>2022-05-01T07:51:04Z</time>
      </trkpt>
      <trkpt lat="49.02435" lon="7.79414">
        <ele>425.2</ele>
        <time>2022-05-01T07:51:05Z</time>
      </trkpt>
      <trkpt lat="49.02436" lon="7.79419">
        <ele>425.2</ele>
        <time>2022-05-01T07:51:06Z</time>
      </trkpt>
      <trkpt lat="49.02438" lon="7.79423">
        <ele>425.6</ele>
        <time>2022-05-01T07:51:07Z</time>
      </trkpt>
      <trkpt lat="49.02439" lon="7.79427">
        <ele>425.8</ele>
        <time>2022-05-01T07:51:08Z</time>
      </trkpt>
      <trkpt lat="49.0244" lon="7.7943">
        <ele>425.8</ele>
        <time>2022-05-01T07:51:09Z</time>
      </trkpt>
      <trkpt lat="49.02441" lon="7.79434">
        <ele>426</ele>
        <time>2022-05-01T07:51:10Z</time>
      </trkpt>
      <trkpt lat="49.02444" lon="7.7944">
        <ele>426.2</ele>
        <time>2022-05-01T07:51:11Z</time>
      </trkpt>
      <trkpt lat="49.02445" lon="7.79443">
        <ele>426.6</ele>
        <time>2022-05-01T07:51:12Z</time>
      </trkpt>
      <trkpt lat="49.02446" lon="7.79447">
        <ele>426.6</ele>
        <time>2022-05-01T07:51:13Z</time>
      </trkpt>
      <trkpt lat="49.02447" lon="7.7945">
        <ele>426.8</ele>
        <time>2022-05-01T07:51:14Z</time>
      </trkpt>
      <trkpt lat="49.02448" lon="7.79453">
        <ele>427</ele>
        <time>2022-05-01T07:51:15Z</time>
      </trkpt>
      <trkpt lat="49.0245" lon="7.79457">
        <ele>427.2</ele>
        <time>2022-05-01T07:51:16Z</time>
      </trkpt>
      <trkpt lat="49.0245" lon="7.79461">
        <ele>427.4</ele>
        <time>2022-05-01T07:51:17Z</time>
      </trkpt>
      <trkpt lat="49.02452" lon="7.79465">
        <ele>427.4</ele>
        <time>2022-05-01T07:51:18Z</time>
      </trkpt>
      <trkpt lat="49.02454" lon="7.79469">
        <ele>427.6</ele>
        <time>2022-05-01T07:51:19Z</time>
      </trkpt>
      <trkpt lat="49.02456" lon="7.79472">
        <ele>427.6</ele>
        <time>2022-05-01T07:51:20Z</time>
      </trkpt>
      <trkpt lat="49.02457" lon="7.79475">
        <ele>428</ele>
        <time>2022-05-01T07:51:21Z</time>
      </trkpt>
      <trkpt lat="49.02459" lon="7.79479">
        <ele>428.2</ele>
        <time>2022-05-01T07:51:22Z</time>
      </trkpt>
      <trkpt lat="49.0246" lon="7.79482">
        <ele>428.4</ele>
        <time>2022-05-01T07:51:23Z</time>
      </trkpt>
      <trkpt lat="49.0246" lon="7.79486">
        <ele>428.8</ele>
        <time>2022-05-01T07:51:24Z</time>
      </trkpt>
      <trkpt lat="49.02461" lon="7.79489">
        <ele>428.8</ele>
        <time>2022-05-01T07:51:25Z</time>
      </trkpt>
      <trkpt lat="49.02462" lon="7.79494">
        <ele>429</ele>
        <time>2022-05-01T07:51:26Z</time>
      </trkpt>
      <trkpt lat="49.02463" lon="7.79497">
        <ele>429.2</ele>
        <time>2022-05-01T07:51:27Z</time>
      </trkpt>
      <trkpt lat="49.02464" lon="7.795">
        <ele>429.4</ele>
        <time>2022-05-01T07:51:28Z</time>
      </trkpt>
      <trkpt lat="49.02464" lon="7.79503">
        <ele>429.6</ele>
        <time>2022-05-01T07:51:29Z</time>
      </trkpt>
      <trkpt lat="49.02464" lon="7.79506">
        <ele>430</ele>
        <time>2022-05-01T07:51:30Z</time>
      </trkpt>
      <trkpt lat="49.02464" lon="7.79509">
        <ele>430.2</ele>
        <time>2022-05-01T07:51:31Z</time>
      </trkpt>
      <trkpt lat="49.02465" lon="7.79512">
        <ele>430.6</ele>
        <time>2022-05-01T07:51:32Z</time>
      </trkpt>
      <trkpt lat="49.02465" lon="7.79515">
        <ele>430.8</ele>
        <time>2022-05-01T07:51:33Z</time>
      </trkpt>
      <trkpt lat="49.02466" lon="7.79519">
        <ele>431</ele>
        <time>2022-05-01T07:51:34Z</time>
      </trkpt>
      <trkpt lat="49.02466" lon="7.79522">
        <ele>431.2</ele>
        <time>2022-05-01T07:51:35Z</time>
      </trkpt>
      <trkpt lat="49.02468" lon="7.79526">
        <ele>431.4</ele>
        <time>2022-05-01T07:51:36Z</time>
      </trkpt>
      <trkpt lat="49.02469" lon="7.7953">
        <ele>431.6</ele>
        <time>2022-05-01T07:51:37Z</time>
      </trkpt>
      <trkpt lat="49.02469" lon="7.79534">
        <ele>431.8</ele>
        <time>2022-05-01T07:51:38Z</time>
      </trkpt>
      <trkpt lat="49.0247" lon="7.79538">
        <ele>432</ele>
        <time>2022-05-01T07:51:39Z</time>
      </trkpt>
      <trkpt lat="49.02471" lon="7.79541">
        <ele>432</ele>
        <time>2022-05-01T07:51:40Z</time>
      </trkpt>
      <trkpt lat="49.02471" lon="7.79545">
        <ele>432.2</ele>
        <time>2022-05-01T07:51:41Z</time>
      </trkpt>
      <trkpt lat="49.02473" lon="7.79549">
        <ele>432.2</ele>
        <time>2022-05-01T07:51:42Z</time>
      </trkpt>
      <trkpt lat="49.02474" lon="7.79552">
        <ele>432.4</ele>
        <time>2022-05-01T07:51:43Z</time>
      </trkpt>
      <trkpt lat="49.02475" lon="7.79555">
        <ele>432.6</ele>
        <time>2022-05-01T07:51:44Z</time>
      </trkpt>
      <trkpt lat="49.02476" lon="7.79559">
        <ele>432.6</ele>
        <time>2022-05-01T07:51:45Z</time>
      </trkpt>
      <trkpt lat="49.02476" lon="7.79563">
        <ele>432.6</ele>
        <time>2022-05-01T07:51:46Z</time>
      </trkpt>
      <trkpt lat="49.02475" lon="7.79567">
        <ele>432.8</ele>
        <time>2022-05-01T07:51:47Z</time>
      </trkpt>
      <trkpt lat="49.02475" lon="7.79571">
        <ele>432.8</ele>
        <time>2022-05-01T07:51:48Z</time>
      </trkpt>
      <trkpt lat="49.02475" lon="7.79574">
        <ele>433</ele>
        <time>2022-05-01T07:51:49Z</time>
      </trkpt>
      <trkpt lat="49.02477" lon="7.7958">
        <ele>433</ele>
        <time>2022-05-01T07:51:50Z</time>
      </trkpt>
      <trkpt lat="49.02478" lon="7.79584">
        <ele>433</ele>
        <time>2022-05-01T07:51:51Z</time>
      </trkpt>
      <trkpt lat="49.0248" lon="7.79588">
        <ele>433.4</ele>
        <time>2022-05-01T07:51:52Z</time>
      </trkpt>
      <trkpt lat="49.02482" lon="7.79592">
        <ele>433.4</ele>
        <time>2022-05-01T07:51:53Z</time>
      </trkpt>
      <trkpt lat="49.02484" lon="7.79596">
        <ele>433.4</ele>
        <time>2022-05-01T07:51:54Z</time>
      </trkpt>
      <trkpt lat="49.02487" lon="7.796">
        <ele>433.4</ele>
        <time>2022-05-01T07:51:55Z</time>
      </trkpt>
      <trkpt lat="49.02489" lon="7.79604">
        <ele>433.4</ele>
        <time>2022-05-01T07:51:56Z</time>
      </trkpt>
      <trkpt lat="49.02491" lon="7.79608">
        <ele>433.4</ele>
        <time>2022-05-01T07:51:57Z</time>
      </trkpt>
      <trkpt lat="49.02492" lon="7.79612">
        <ele>433.4</ele>
        <time>2022-05-01T07:51:58Z</time>
      </trkpt>
      <trkpt lat="49.02491" lon="7.79617">
        <ele>433.4</ele>
        <time>2022-05-01T07:51:59Z</time>
      </trkpt>
      <trkpt lat="49.02492" lon="7.79623">
        <ele>433.4</ele>
        <time>2022-05-01T07:52:00Z</time>
      </trkpt>
      <trkpt lat="49.02494" lon="7.79628">
        <ele>433.4</ele>
        <time>2022-05-01T07:52:01Z</time>
      </trkpt>
      <trkpt lat="49.02496" lon="7.79634">
        <ele>433.4</ele>
        <time>2022-05-01T07:52:02Z</time>
      </trkpt>
      <trkpt lat="49.02498" lon="7.79639">
        <ele>433.4</ele>
        <time>2022-05-01T07:52:03Z</time>
      </trkpt>
      <trkpt lat="49.025" lon="7.79647">
        <ele>433.4</ele>
        <time>2022-05-01T07:52:04Z</time>
      </trkpt>
      <trkpt lat="49.02501" lon="7.79653">
        <ele>433.4</ele>
        <time>2022-05-01T07:52:05Z</time>
      </trkpt>
      <trkpt lat="49.02501" lon="7.7966">
        <ele>433.4</ele>
        <time>2022-05-01T07:52:06Z</time>
      </trkpt>
      <trkpt lat="49.02502" lon="7.79673">
        <ele>433.2</ele>
        <time>2022-05-01T07:52:08Z</time>
      </trkpt>
      <trkpt lat="49.02503" lon="7.7968">
        <ele>433.2</ele>
        <time>2022-05-01T07:52:09Z</time>
      </trkpt>
      <trkpt lat="49.02506" lon="7.79687">
        <ele>433</ele>
        <time>2022-05-01T07:52:10Z</time>
      </trkpt>
      <trkpt lat="49.02511" lon="7.79694">
        <ele>432.6</ele>
        <time>2022-05-01T07:52:11Z</time>
      </trkpt>
      <trkpt lat="49.02515" lon="7.79699">
        <ele>432.4</ele>
        <time>2022-05-01T07:52:12Z</time>
      </trkpt>
      <trkpt lat="49.02522" lon="7.79706">
        <ele>432</ele>
        <time>2022-05-01T07:52:13Z</time>
      </trkpt>
      <trkpt lat="49.02528" lon="7.79709">
        <ele>431.8</ele>
        <time>2022-05-01T07:52:14Z</time>
      </trkpt>
      <trkpt lat="49.02532" lon="7.79711">
        <ele>431.6</ele>
        <time>2022-05-01T07:52:15Z</time>
      </trkpt>
      <trkpt lat="49.02535" lon="7.79713">
        <ele>431.6</ele>
        <time>2022-05-01T07:52:16Z</time>
      </trkpt>
      <trkpt lat="49.02539" lon="7.79715">
        <ele>431.4</ele>
        <time>2022-05-01T07:52:17Z</time>
      </trkpt>
      <trkpt lat="49.02545" lon="7.79718">
        <ele>430.8</ele>
        <time>2022-05-01T07:52:18Z</time>
      </trkpt>
      <trkpt lat="49.0255" lon="7.79719">
        <ele>430.4</ele>
        <time>2022-05-01T07:52:19Z</time>
      </trkpt>
      <trkpt lat="49.02576" lon="7.79731">
        <ele>429.4</ele>
        <time>2022-05-01T07:52:25Z</time>
      </trkpt>
      <trkpt lat="49.02579" lon="7.79732">
        <ele>429.4</ele>
        <time>2022-05-01T07:52:26Z</time>
      </trkpt>
      <trkpt lat="49.02584" lon="7.79734">
        <ele>429.4</ele>
        <time>2022-05-01T07:52:27Z</time>
      </trkpt>
      <trkpt lat="49.02586" lon="7.79736">
        <ele>429.4</ele>
        <time>2022-05-01T07:52:28Z</time>
      </trkpt>
      <trkpt lat="49.02589" lon="7.79738">
        <ele>429.4</ele>
        <time>2022-05-01T07:52:29Z</time>
      </trkpt>
      <trkpt lat="49.02591" lon="7.7974">
        <ele>429.4</ele>
        <time>2022-05-01T07:52:30Z</time>
      </trkpt>
      <trkpt lat="49.02594" lon="7.79743">
        <ele>429.4</ele>
        <time>2022-05-01T07:52:31Z</time>
      </trkpt>
      <trkpt lat="49.02597" lon="7.79746">
        <ele>429.4</ele>
        <time>2022-05-01T07:52:32Z</time>
      </trkpt>
      <trkpt lat="49.026" lon="7.79749">
        <ele>429.6</ele>
        <time>2022-05-01T07:52:33Z</time>
      </trkpt>
      <trkpt lat="49.02608" lon="7.79756">
        <ele>430.4</ele>
        <time>2022-05-01T07:52:36Z</time>
      </trkpt>
      <trkpt lat="49.02612" lon="7.7976">
        <ele>431</ele>
        <time>2022-05-01T07:52:38Z</time>
      </trkpt>
      <trkpt lat="49.02615" lon="7.79762">
        <ele>431.2</ele>
        <time>2022-05-01T07:52:39Z</time>
      </trkpt>
      <trkpt lat="49.02618" lon="7.79763">
        <ele>431.4</ele>
        <time>2022-05-01T07:52:40Z</time>
      </trkpt>
      <trkpt lat="49.02625" lon="7.79767">
        <ele>431.4</ele>
        <time>2022-05-01T07:52:42Z</time>
      </trkpt>
      <trkpt lat="49.02628" lon="7.79768">
        <ele>431.4</ele>
        <time>2022-05-01T07:52:43Z</time>
      </trkpt>
      <trkpt lat="49.02632" lon="7.7977">
        <ele>431.6</ele>
        <time>2022-05-01T07:52:44Z</time>
      </trkpt>
      <trkpt lat="49.02643" lon="7.79777">
        <ele>432.4</ele>
        <time>2022-05-01T07:52:48Z</time>
      </trkpt>
      <trkpt lat="49.02646" lon="7.7978">
        <ele>432.6</ele>
        <time>2022-05-01T07:52:49Z</time>
      </trkpt>
      <trkpt lat="49.02653" lon="7.79786">
        <ele>433.2</ele>
        <time>2022-05-01T07:52:51Z</time>
      </trkpt>
      <trkpt lat="49.02656" lon="7.79788">
        <ele>433.6</ele>
        <time>2022-05-01T07:52:52Z</time>
      </trkpt>
      <trkpt lat="49.02659" lon="7.79791">
        <ele>434</ele>
        <time>2022-05-01T07:52:53Z</time>
      </trkpt>
      <trkpt lat="49.02662" lon="7.79793">
        <ele>434.4</ele>
        <time>2022-05-01T07:52:54Z</time>
      </trkpt>
      <trkpt lat="49.02665" lon="7.79795">
        <ele>434.4</ele>
        <time>2022-05-01T07:52:55Z</time>
      </trkpt>
      <trkpt lat="49.02667" lon="7.79796">
        <ele>434.6</ele>
        <time>2022-05-01T07:52:56Z</time>
      </trkpt>
      <trkpt lat="49.0267" lon="7.79798">
        <ele>434.8</ele>
        <time>2022-05-01T07:52:57Z</time>
      </trkpt>
      <trkpt lat="49.02673" lon="7.79799">
        <ele>434.8</ele>
        <time>2022-05-01T07:52:58Z</time>
      </trkpt>
      <trkpt lat="49.02676" lon="7.79801">
        <ele>435</ele>
        <time>2022-05-01T07:52:59Z</time>
      </trkpt>
      <trkpt lat="49.02678" lon="7.79803">
        <ele>435</ele>
        <time>2022-05-01T07:53:00Z</time>
      </trkpt>
      <trkpt lat="49.0268" lon="7.79804">
        <ele>435.2</ele>
        <time>2022-05-01T07:53:01Z</time>
      </trkpt>
      <trkpt lat="49.02683" lon="7.79805">
        <ele>435.2</ele>
        <time>2022-05-01T07:53:02Z</time>
      </trkpt>
      <trkpt lat="49.02685" lon="7.79807">
        <ele>435.4</ele>
        <time>2022-05-01T07:53:03Z</time>
      </trkpt>
      <trkpt lat="49.02687" lon="7.79809">
        <ele>435.6</ele>
        <time>2022-05-01T07:53:04Z</time>
      </trkpt>
      <trkpt lat="49.0269" lon="7.7981">
        <ele>436</ele>
        <time>2022-05-01T07:53:05Z</time>
      </trkpt>
      <trkpt lat="49.02692" lon="7.79812">
        <ele>436.4</ele>
        <time>2022-05-01T07:53:06Z</time>
      </trkpt>
      <trkpt lat="49.02695" lon="7.79814">
        <ele>436.8</ele>
        <time>2022-05-01T07:53:07Z</time>
      </trkpt>
      <trkpt lat="49.02697" lon="7.79816">
        <ele>437.2</ele>
        <time>2022-05-01T07:53:08Z</time>
      </trkpt>
      <trkpt lat="49.02699" lon="7.79819">
        <ele>437.6</ele>
        <time>2022-05-01T07:53:09Z</time>
      </trkpt>
      <trkpt lat="49.02701" lon="7.79821">
        <ele>438</ele>
        <time>2022-05-01T07:53:10Z</time>
      </trkpt>
      <trkpt lat="49.02705" lon="7.79825">
        <ele>438.4</ele>
        <time>2022-05-01T07:53:11Z</time>
      </trkpt>
      <trkpt lat="49.02707" lon="7.7983">
        <ele>438.6</ele>
        <time>2022-05-01T07:53:12Z</time>
      </trkpt>
      <trkpt lat="49.02708" lon="7.79834">
        <ele>438.8</ele>
        <time>2022-05-01T07:53:13Z</time>
      </trkpt>
      <trkpt lat="49.02708" lon="7.79837">
        <ele>439.2</ele>
        <time>2022-05-01T07:53:14Z</time>
      </trkpt>
      <trkpt lat="49.02709" lon="7.7984">
        <ele>439.2</ele>
        <time>2022-05-01T07:53:15Z</time>
      </trkpt>
      <trkpt lat="49.02707" lon="7.79844">
        <ele>439.6</ele>
        <time>2022-05-01T07:53:16Z</time>
      </trkpt>
      <trkpt lat="49.02706" lon="7.79848">
        <ele>439.8</ele>
        <time>2022-05-01T07:53:17Z</time>
      </trkpt>
      <trkpt lat="49.02705" lon="7.79852">
        <ele>440</ele>
        <time>2022-05-01T07:53:18Z</time>
      </trkpt>
      <trkpt lat="49.02706" lon="7.79857">
        <ele>440</ele>
        <time>2022-05-01T07:53:19Z</time>
      </trkpt>
      <trkpt lat="49.02707" lon="7.79863">
        <ele>440.2</ele>
        <time>2022-05-01T07:53:20Z</time>
      </trkpt>
      <trkpt lat="49.02708" lon="7.79869">
        <ele>440.2</ele>
        <time>2022-05-01T07:53:21Z</time>
      </trkpt>
      <trkpt lat="49.02708" lon="7.79875">
        <ele>440.2</ele>
        <time>2022-05-01T07:53:22Z</time>
      </trkpt>
      <trkpt lat="49.0271" lon="7.79881">
        <ele>440.2</ele>
        <time>2022-05-01T07:53:23Z</time>
      </trkpt>
      <trkpt lat="49.02711" lon="7.79884">
        <ele>440.2</ele>
        <time>2022-05-01T07:53:24Z</time>
      </trkpt>
      <trkpt lat="49.02714" lon="7.7989">
        <ele>440.2</ele>
        <time>2022-05-01T07:53:25Z</time>
      </trkpt>
      <trkpt lat="49.02716" lon="7.79894">
        <ele>440.2</ele>
        <time>2022-05-01T07:53:26Z</time>
      </trkpt>
      <trkpt lat="49.02719" lon="7.79898">
        <ele>440.2</ele>
        <time>2022-05-01T07:53:27Z</time>
      </trkpt>
      <trkpt lat="49.02721" lon="7.79902">
        <ele>440.2</ele>
        <time>2022-05-01T07:53:28Z</time>
      </trkpt>
      <trkpt lat="49.02724" lon="7.79907">
        <ele>440.2</ele>
        <time>2022-05-01T07:53:29Z</time>
      </trkpt>
      <trkpt lat="49.02726" lon="7.79911">
        <ele>440</ele>
        <time>2022-05-01T07:53:30Z</time>
      </trkpt>
      <trkpt lat="49.02729" lon="7.79914">
        <ele>439.8</ele>
        <time>2022-05-01T07:53:31Z</time>
      </trkpt>
      <trkpt lat="49.02732" lon="7.79918">
        <ele>439.8</ele>
        <time>2022-05-01T07:53:32Z</time>
      </trkpt>
      <trkpt lat="49.02734" lon="7.79921">
        <ele>439.6</ele>
        <time>2022-05-01T07:53:33Z</time>
      </trkpt>
      <trkpt lat="49.02736" lon="7.79925">
        <ele>439.6</ele>
        <time>2022-05-01T07:53:34Z</time>
      </trkpt>
      <trkpt lat="49.02738" lon="7.79929">
        <ele>439.6</ele>
        <time>2022-05-01T07:53:35Z</time>
      </trkpt>
      <trkpt lat="49.02741" lon="7.79932">
        <ele>439.6</ele>
        <time>2022-05-01T07:53:36Z</time>
      </trkpt>
      <trkpt lat="49.02743" lon="7.79934">
        <ele>439.6</ele>
        <time>2022-05-01T07:53:37Z</time>
      </trkpt>
      <trkpt lat="49.02747" lon="7.79937">
        <ele>439.6</ele>
        <time>2022-05-01T07:53:38Z</time>
      </trkpt>
      <trkpt lat="49.0275" lon="7.79941">
        <ele>439.6</ele>
        <time>2022-05-01T07:53:39Z</time>
      </trkpt>
      <trkpt lat="49.02752" lon="7.79945">
        <ele>439.6</ele>
        <time>2022-05-01T07:53:40Z</time>
      </trkpt>
      <trkpt lat="49.02764" lon="7.79959">
        <ele>439.6</ele>
        <time>2022-05-01T07:53:45Z</time>
      </trkpt>
      <trkpt lat="49.02766" lon="7.79962">
        <ele>439.6</ele>
        <time>2022-05-01T07:53:46Z</time>
      </trkpt>
      <trkpt lat="49.02776" lon="7.79973">
        <ele>439.6</ele>
        <time>2022-05-01T07:53:50Z</time>
      </trkpt>
      <trkpt lat="49.02779" lon="7.79977">
        <ele>439.6</ele>
        <time>2022-05-01T07:53:51Z</time>
      </trkpt>
      <trkpt lat="49.02781" lon="7.7998">
        <ele>439.8</ele>
        <time>2022-05-01T07:53:52Z</time>
      </trkpt>
      <trkpt lat="49.02785" lon="7.79983">
        <ele>439.8</ele>
        <time>2022-05-01T07:53:53Z</time>
      </trkpt>
      <trkpt lat="49.0279" lon="7.79987">
        <ele>439.8</ele>
        <time>2022-05-01T07:53:54Z</time>
      </trkpt>
      <trkpt lat="49.02807" lon="7.80003">
        <ele>440.2</ele>
        <time>2022-05-01T07:53:59Z</time>
      </trkpt>
      <trkpt lat="49.0281" lon="7.80007">
        <ele>440.2</ele>
        <time>2022-05-01T07:54:00Z</time>
      </trkpt>
      <trkpt lat="49.02813" lon="7.80011">
        <ele>440.2</ele>
        <time>2022-05-01T07:54:01Z</time>
      </trkpt>
      <trkpt lat="49.02817" lon="7.80014">
        <ele>440.2</ele>
        <time>2022-05-01T07:54:02Z</time>
      </trkpt>
      <trkpt lat="49.0283" lon="7.80028">
        <ele>440.2</ele>
        <time>2022-05-01T07:54:06Z</time>
      </trkpt>
      <trkpt lat="49.02849" lon="7.80037">
        <ele>440</ele>
        <time>2022-05-01T07:54:11Z</time>
      </trkpt>
      <trkpt lat="49.02863" lon="7.8004">
        <ele>439.8</ele>
        <time>2022-05-01T07:54:15Z</time>
      </trkpt>
      <trkpt lat="49.02866" lon="7.8004">
        <ele>439.8</ele>
        <time>2022-05-01T07:54:16Z</time>
      </trkpt>
      <trkpt lat="49.02869" lon="7.8004">
        <ele>439.8</ele>
        <time>2022-05-01T07:54:17Z</time>
      </trkpt>
      <trkpt lat="49.02873" lon="7.8004">
        <ele>439.8</ele>
        <time>2022-05-01T07:54:18Z</time>
      </trkpt>
      <trkpt lat="49.02877" lon="7.80039">
        <ele>439.8</ele>
        <time>2022-05-01T07:54:19Z</time>
      </trkpt>
      <trkpt lat="49.0288" lon="7.80039">
        <ele>439.8</ele>
        <time>2022-05-01T07:54:20Z</time>
      </trkpt>
      <trkpt lat="49.02883" lon="7.80038">
        <ele>439.8</ele>
        <time>2022-05-01T07:54:21Z</time>
      </trkpt>
      <trkpt lat="49.0289" lon="7.80034">
        <ele>439.8</ele>
        <time>2022-05-01T07:54:23Z</time>
      </trkpt>
      <trkpt lat="49.02916" lon="7.80021">
        <ele>440.4</ele>
        <time>2022-05-01T07:54:30Z</time>
      </trkpt>
      <trkpt lat="49.02934" lon="7.80013">
        <ele>440.6</ele>
        <time>2022-05-01T07:54:34Z</time>
      </trkpt>
      <trkpt lat="49.02939" lon="7.80013">
        <ele>440.8</ele>
        <time>2022-05-01T07:54:35Z</time>
      </trkpt>
      <trkpt lat="49.02943" lon="7.80015">
        <ele>440.8</ele>
        <time>2022-05-01T07:54:36Z</time>
      </trkpt>
      <trkpt lat="49.02948" lon="7.80018">
        <ele>440.8</ele>
        <time>2022-05-01T07:54:37Z</time>
      </trkpt>
      <trkpt lat="49.02952" lon="7.80023">
        <ele>440.8</ele>
        <time>2022-05-01T07:54:38Z</time>
      </trkpt>
      <trkpt lat="49.02957" lon="7.80025">
        <ele>440.8</ele>
        <time>2022-05-01T07:54:39Z</time>
      </trkpt>
      <trkpt lat="49.0296" lon="7.80027">
        <ele>440.8</ele>
        <time>2022-05-01T07:54:40Z</time>
      </trkpt>
      <trkpt lat="49.02964" lon="7.8003">
        <ele>440.8</ele>
        <time>2022-05-01T07:54:41Z</time>
      </trkpt>
      <trkpt lat="49.02973" lon="7.80036">
        <ele>440.6</ele>
        <time>2022-05-01T07:54:43Z</time>
      </trkpt>
      <trkpt lat="49.02976" lon="7.80036">
        <ele>440.6</ele>
        <time>2022-05-01T07:54:44Z</time>
      </trkpt>
      <trkpt lat="49.02981" lon="7.80037">
        <ele>440.4</ele>
        <time>2022-05-01T07:54:45Z</time>
      </trkpt>
      <trkpt lat="49.02985" lon="7.80037">
        <ele>440.4</ele>
        <time>2022-05-01T07:54:46Z</time>
      </trkpt>
      <trkpt lat="49.02997" lon="7.8004">
        <ele>440</ele>
        <time>2022-05-01T07:54:49Z</time>
      </trkpt>
      <trkpt lat="49.03005" lon="7.80049">
        <ele>439.8</ele>
        <time>2022-05-01T07:54:51Z</time>
      </trkpt>
      <trkpt lat="49.03008" lon="7.80054">
        <ele>439.6</ele>
        <time>2022-05-01T07:54:52Z</time>
      </trkpt>
      <trkpt lat="49.0301" lon="7.80058">
        <ele>439.4</ele>
        <time>2022-05-01T07:54:53Z</time>
      </trkpt>
      <trkpt lat="49.03013" lon="7.80065">
        <ele>439.4</ele>
        <time>2022-05-01T07:54:54Z</time>
      </trkpt>
      <trkpt lat="49.03018" lon="7.80077">
        <ele>439</ele>
        <time>2022-05-01T07:54:56Z</time>
      </trkpt>
      <trkpt lat="49.03022" lon="7.80088">
        <ele>438.8</ele>
        <time>2022-05-01T07:54:58Z</time>
      </trkpt>
      <trkpt lat="49.03025" lon="7.80094">
        <ele>438.8</ele>
        <time>2022-05-01T07:54:59Z</time>
      </trkpt>
      <trkpt lat="49.03028" lon="7.801">
        <ele>438.6</ele>
        <time>2022-05-01T07:55:00Z</time>
      </trkpt>
      <trkpt lat="49.03031" lon="7.80106">
        <ele>438.6</ele>
        <time>2022-05-01T07:55:01Z</time>
      </trkpt>
      <trkpt lat="49.03038" lon="7.80116">
        <ele>438.4</ele>
        <time>2022-05-01T07:55:03Z</time>
      </trkpt>
      <trkpt lat="49.03049" lon="7.80127">
        <ele>438.2</ele>
        <time>2022-05-01T07:55:06Z</time>
      </trkpt>
      <trkpt lat="49.03052" lon="7.80131">
        <ele>438.2</ele>
        <time>2022-05-01T07:55:07Z</time>
      </trkpt>
      <trkpt lat="49.03057" lon="7.80135">
        <ele>438.2</ele>
        <time>2022-05-01T07:55:08Z</time>
      </trkpt>
      <trkpt lat="49.03061" lon="7.80139">
        <ele>438.2</ele>
        <time>2022-05-01T07:55:09Z</time>
      </trkpt>
      <trkpt lat="49.03069" lon="7.80143">
        <ele>438</ele>
        <time>2022-05-01T07:55:11Z</time>
      </trkpt>
      <trkpt lat="49.03075" lon="7.80147">
        <ele>437.8</ele>
        <time>2022-05-01T07:55:12Z</time>
      </trkpt>
      <trkpt lat="49.03081" lon="7.8015">
        <ele>437.4</ele>
        <time>2022-05-01T07:55:13Z</time>
      </trkpt>
      <trkpt lat="49.03095" lon="7.80156">
        <ele>437.2</ele>
        <time>2022-05-01T07:55:16Z</time>
      </trkpt>
      <trkpt lat="49.03108" lon="7.80158">
        <ele>436.4</ele>
        <time>2022-05-01T07:55:18Z</time>
      </trkpt>
      <trkpt lat="49.03114" lon="7.80159">
        <ele>435.8</ele>
        <time>2022-05-01T07:55:19Z</time>
      </trkpt>
      <trkpt lat="49.03123" lon="7.80159">
        <ele>435.2</ele>
        <time>2022-05-01T07:55:21Z</time>
      </trkpt>
      <trkpt lat="49.03127" lon="7.80156">
        <ele>435</ele>
        <time>2022-05-01T07:55:22Z</time>
      </trkpt>
      <trkpt lat="49.03132" lon="7.80152">
        <ele>434.6</ele>
        <time>2022-05-01T07:55:23Z</time>
      </trkpt>
      <trkpt lat="49.03137" lon="7.80149">
        <ele>434.6</ele>
        <time>2022-05-01T07:55:24Z</time>
      </trkpt>
      <trkpt lat="49.03142" lon="7.80148">
        <ele>434.4</ele>
        <time>2022-05-01T07:55:25Z</time>
      </trkpt>
      <trkpt lat="49.03147" lon="7.80147">
        <ele>434.2</ele>
        <time>2022-05-01T07:55:26Z</time>
      </trkpt>
      <trkpt lat="49.03151" lon="7.80145">
        <ele>434.2</ele>
        <time>2022-05-01T07:55:27Z</time>
      </trkpt>
      <trkpt lat="49.03155" lon="7.80143">
        <ele>434</ele>
        <time>2022-05-01T07:55:28Z</time>
      </trkpt>
      <trkpt lat="49.03158" lon="7.80141">
        <ele>433.8</ele>
        <time>2022-05-01T07:55:29Z</time>
      </trkpt>
      <trkpt lat="49.03176" lon="7.80138">
        <ele>433.2</ele>
        <time>2022-05-01T07:55:33Z</time>
      </trkpt>
      <trkpt lat="49.0319" lon="7.80142">
        <ele>433.2</ele>
        <time>2022-05-01T07:55:36Z</time>
      </trkpt>
      <trkpt lat="49.03195" lon="7.80147">
        <ele>433.2</ele>
        <time>2022-05-01T07:55:37Z</time>
      </trkpt>
      <trkpt lat="49.03199" lon="7.80149">
        <ele>432.6</ele>
        <time>2022-05-01T07:55:38Z</time>
      </trkpt>
      <trkpt lat="49.03218" lon="7.80161">
        <ele>432</ele>
        <time>2022-05-01T07:55:41Z</time>
      </trkpt>
      <trkpt lat="49.03228" lon="7.80171">
        <ele>432</ele>
        <time>2022-05-01T07:55:43Z</time>
      </trkpt>
      <trkpt lat="49.03233" lon="7.80175">
        <ele>431.8</ele>
        <time>2022-05-01T07:55:44Z</time>
      </trkpt>
      <trkpt lat="49.03237" lon="7.80179">
        <ele>431.8</ele>
        <time>2022-05-01T07:55:45Z</time>
      </trkpt>
      <trkpt lat="49.03241" lon="7.80184">
        <ele>431.8</ele>
        <time>2022-05-01T07:55:46Z</time>
      </trkpt>
      <trkpt lat="49.03256" lon="7.80197">
        <ele>431.8</ele>
        <time>2022-05-01T07:55:49Z</time>
      </trkpt>
      <trkpt lat="49.03263" lon="7.8021">
        <ele>431.8</ele>
        <time>2022-05-01T07:55:51Z</time>
      </trkpt>
      <trkpt lat="49.03265" lon="7.80214">
        <ele>431.6</ele>
        <time>2022-05-01T07:55:52Z</time>
      </trkpt>
      <trkpt lat="49.03268" lon="7.80218">
        <ele>431.6</ele>
        <time>2022-05-01T07:55:53Z</time>
      </trkpt>
      <trkpt lat="49.03271" lon="7.80224">
        <ele>431.4</ele>
        <time>2022-05-01T07:55:54Z</time>
      </trkpt>
      <trkpt lat="49.03273" lon="7.80229">
        <ele>431</ele>
        <time>2022-05-01T07:55:55Z</time>
      </trkpt>
      <trkpt lat="49.03275" lon="7.80232">
        <ele>430.8</ele>
        <time>2022-05-01T07:55:56Z</time>
      </trkpt>
      <trkpt lat="49.03277" lon="7.8024">
        <ele>430.8</ele>
        <time>2022-05-01T07:55:57Z</time>
      </trkpt>
      <trkpt lat="49.0328" lon="7.80248">
        <ele>430.6</ele>
        <time>2022-05-01T07:55:58Z</time>
      </trkpt>
      <trkpt lat="49.03282" lon="7.80255">
        <ele>430.4</ele>
        <time>2022-05-01T07:55:59Z</time>
      </trkpt>
      <trkpt lat="49.03285" lon="7.80267">
        <ele>430.4</ele>
        <time>2022-05-01T07:56:01Z</time>
      </trkpt>
      <trkpt lat="49.03287" lon="7.80275">
        <ele>430.2</ele>
        <time>2022-05-01T07:56:02Z</time>
      </trkpt>
      <trkpt lat="49.03289" lon="7.80282">
        <ele>430.2</ele>
        <time>2022-05-01T07:56:03Z</time>
      </trkpt>
      <trkpt lat="49.0329" lon="7.80289">
        <ele>429.6</ele>
        <time>2022-05-01T07:56:04Z</time>
      </trkpt>
      <trkpt lat="49.03291" lon="7.80296">
        <ele>429.2</ele>
        <time>2022-05-01T07:56:05Z</time>
      </trkpt>
      <trkpt lat="49.03293" lon="7.80312">
        <ele>428.6</ele>
        <time>2022-05-01T07:56:07Z</time>
      </trkpt>
      <trkpt lat="49.03295" lon="7.8032">
        <ele>428.2</ele>
        <time>2022-05-01T07:56:08Z</time>
      </trkpt>
      <trkpt lat="49.03296" lon="7.80328">
        <ele>428.2</ele>
        <time>2022-05-01T07:56:09Z</time>
      </trkpt>
      <trkpt lat="49.03298" lon="7.80334">
        <ele>428.2</ele>
        <time>2022-05-01T07:56:10Z</time>
      </trkpt>
      <trkpt lat="49.03298" lon="7.80351">
        <ele>427.8</ele>
        <time>2022-05-01T07:56:12Z</time>
      </trkpt>
      <trkpt lat="49.03297" lon="7.80365">
        <ele>427.2</ele>
        <time>2022-05-01T07:56:14Z</time>
      </trkpt>
      <trkpt lat="49.03297" lon="7.80374">
        <ele>427</ele>
        <time>2022-05-01T07:56:15Z</time>
      </trkpt>
      <trkpt lat="49.03297" lon="7.80393">
        <ele>426.6</ele>
        <time>2022-05-01T07:56:17Z</time>
      </trkpt>
      <trkpt lat="49.03296" lon="7.80421">
        <ele>426.2</ele>
        <time>2022-05-01T07:56:20Z</time>
      </trkpt>
      <trkpt lat="49.03294" lon="7.80439">
        <ele>426.2</ele>
        <time>2022-05-01T07:56:22Z</time>
      </trkpt>
      <trkpt lat="49.03291" lon="7.80454">
        <ele>425.8</ele>
        <time>2022-05-01T07:56:24Z</time>
      </trkpt>
      <trkpt lat="49.03283" lon="7.8048">
        <ele>425.4</ele>
        <time>2022-05-01T07:56:27Z</time>
      </trkpt>
      <trkpt lat="49.0328" lon="7.80486">
        <ele>425</ele>
        <time>2022-05-01T07:56:28Z</time>
      </trkpt>
      <trkpt lat="49.03274" lon="7.80501">
        <ele>424.4</ele>
        <time>2022-05-01T07:56:30Z</time>
      </trkpt>
      <trkpt lat="49.03271" lon="7.80507">
        <ele>424.4</ele>
        <time>2022-05-01T07:56:31Z</time>
      </trkpt>
      <trkpt lat="49.03263" lon="7.80522">
        <ele>423.6</ele>
        <time>2022-05-01T07:56:33Z</time>
      </trkpt>
      <trkpt lat="49.03258" lon="7.80537">
        <ele>423.2</ele>
        <time>2022-05-01T07:56:35Z</time>
      </trkpt>
      <trkpt lat="49.03257" lon="7.80544">
        <ele>423</ele>
        <time>2022-05-01T07:56:36Z</time>
      </trkpt>
      <trkpt lat="49.03255" lon="7.80551">
        <ele>422.6</ele>
        <time>2022-05-01T07:56:37Z</time>
      </trkpt>
      <trkpt lat="49.0325" lon="7.80566">
        <ele>422.4</ele>
        <time>2022-05-01T07:56:39Z</time>
      </trkpt>
      <trkpt lat="49.03246" lon="7.8058">
        <ele>422.4</ele>
        <time>2022-05-01T07:56:41Z</time>
      </trkpt>
      <trkpt lat="49.03237" lon="7.80599">
        <ele>422.2</ele>
        <time>2022-05-01T07:56:44Z</time>
      </trkpt>
      <trkpt lat="49.03224" lon="7.80625">
        <ele>421.6</ele>
        <time>2022-05-01T07:56:48Z</time>
      </trkpt>
      <trkpt lat="49.03221" lon="7.80632">
        <ele>421.6</ele>
        <time>2022-05-01T07:56:49Z</time>
      </trkpt>
      <trkpt lat="49.03216" lon="7.80654">
        <ele>421.2</ele>
        <time>2022-05-01T07:56:52Z</time>
      </trkpt>
      <trkpt lat="49.03211" lon="7.80668">
        <ele>421</ele>
        <time>2022-05-01T07:56:54Z</time>
      </trkpt>
      <trkpt lat="49.03207" lon="7.80684">
        <ele>420.8</ele>
        <time>2022-05-01T07:56:56Z</time>
      </trkpt>
      <trkpt lat="49.03208" lon="7.80692">
        <ele>420.8</ele>
        <time>2022-05-01T07:56:57Z</time>
      </trkpt>
      <trkpt lat="49.0321" lon="7.807">
        <ele>420.6</ele>
        <time>2022-05-01T07:56:58Z</time>
      </trkpt>
      <trkpt lat="49.03213" lon="7.80707">
        <ele>420.8</ele>
        <time>2022-05-01T07:56:59Z</time>
      </trkpt>
      <trkpt lat="49.03216" lon="7.80712">
        <ele>420.6</ele>
        <time>2022-05-01T07:57:00Z</time>
      </trkpt>
      <trkpt lat="49.03223" lon="7.80715">
        <ele>420.6</ele>
        <time>2022-05-01T07:57:02Z</time>
      </trkpt>
      <trkpt lat="49.03227" lon="7.80716">
        <ele>420.4</ele>
        <time>2022-05-01T07:57:03Z</time>
      </trkpt>
      <trkpt lat="49.03232" lon="7.80716">
        <ele>420.2</ele>
        <time>2022-05-01T07:57:04Z</time>
      </trkpt>
      <trkpt lat="49.03237" lon="7.80714">
        <ele>419.8</ele>
        <time>2022-05-01T07:57:05Z</time>
      </trkpt>
      <trkpt lat="49.03242" lon="7.80712">
        <ele>419.6</ele>
        <time>2022-05-01T07:57:06Z</time>
      </trkpt>
      <trkpt lat="49.03246" lon="7.8071">
        <ele>419.4</ele>
        <time>2022-05-01T07:57:07Z</time>
      </trkpt>
      <trkpt lat="49.0326" lon="7.80705">
        <ele>419.2</ele>
        <time>2022-05-01T07:57:10Z</time>
      </trkpt>
      <trkpt lat="49.03276" lon="7.80697">
        <ele>419</ele>
        <time>2022-05-01T07:57:13Z</time>
      </trkpt>
      <trkpt lat="49.03288" lon="7.80688">
        <ele>419</ele>
        <time>2022-05-01T07:57:15Z</time>
      </trkpt>
      <trkpt lat="49.03293" lon="7.80684">
        <ele>419</ele>
        <time>2022-05-01T07:57:16Z</time>
      </trkpt>
      <trkpt lat="49.03299" lon="7.8068">
        <ele>419</ele>
        <time>2022-05-01T07:57:17Z</time>
      </trkpt>
      <trkpt lat="49.03321" lon="7.8066">
        <ele>418.4</ele>
        <time>2022-05-01T07:57:21Z</time>
      </trkpt>
      <trkpt lat="49.03327" lon="7.80655">
        <ele>418</ele>
        <time>2022-05-01T07:57:22Z</time>
      </trkpt>
      <trkpt lat="49.03345" lon="7.8064">
        <ele>417.4</ele>
        <time>2022-05-01T07:57:25Z</time>
      </trkpt>
      <trkpt lat="49.03362" lon="7.80624">
        <ele>416.8</ele>
        <time>2022-05-01T07:57:28Z</time>
      </trkpt>
      <trkpt lat="49.03367" lon="7.80618">
        <ele>416.4</ele>
        <time>2022-05-01T07:57:29Z</time>
      </trkpt>
      <trkpt lat="49.03373" lon="7.80612">
        <ele>416.2</ele>
        <time>2022-05-01T07:57:30Z</time>
      </trkpt>
      <trkpt lat="49.03403" lon="7.80582">
        <ele>415.2</ele>
        <time>2022-05-01T07:57:35Z</time>
      </trkpt>
      <trkpt lat="49.03408" lon="7.80575">
        <ele>415</ele>
        <time>2022-05-01T07:57:36Z</time>
      </trkpt>
      <trkpt lat="49.03412" lon="7.80566">
        <ele>414.8</ele>
        <time>2022-05-01T07:57:37Z</time>
      </trkpt>
      <trkpt lat="49.03423" lon="7.80544">
        <ele>414</ele>
        <time>2022-05-01T07:57:40Z</time>
      </trkpt>
      <trkpt lat="49.03427" lon="7.80535">
        <ele>413.6</ele>
        <time>2022-05-01T07:57:41Z</time>
      </trkpt>
      <trkpt lat="49.03431" lon="7.80527">
        <ele>413.4</ele>
        <time>2022-05-01T07:57:42Z</time>
      </trkpt>
      <trkpt lat="49.03433" lon="7.80518">
        <ele>413.2</ele>
        <time>2022-05-01T07:57:43Z</time>
      </trkpt>
      <trkpt lat="49.03435" lon="7.80511">
        <ele>413.2</ele>
        <time>2022-05-01T07:57:44Z</time>
      </trkpt>
      <trkpt lat="49.03439" lon="7.80492">
        <ele>413</ele>
        <time>2022-05-01T07:57:46Z</time>
      </trkpt>
      <trkpt lat="49.03441" lon="7.80483">
        <ele>413</ele>
        <time>2022-05-01T07:57:47Z</time>
      </trkpt>
      <trkpt lat="49.03444" lon="7.80474">
        <ele>412.8</ele>
        <time>2022-05-01T07:57:48Z</time>
      </trkpt>
      <trkpt lat="49.03446" lon="7.80467">
        <ele>412.8</ele>
        <time>2022-05-01T07:57:49Z</time>
      </trkpt>
      <trkpt lat="49.03449" lon="7.80457">
        <ele>412.6</ele>
        <time>2022-05-01T07:57:50Z</time>
      </trkpt>
      <trkpt lat="49.03451" lon="7.80449">
        <ele>412.6</ele>
        <time>2022-05-01T07:57:51Z</time>
      </trkpt>
      <trkpt lat="49.03453" lon="7.8044">
        <ele>412.6</ele>
        <time>2022-05-01T07:57:52Z</time>
      </trkpt>
      <trkpt lat="49.03459" lon="7.80402">
        <ele>412.4</ele>
        <time>2022-05-01T07:57:56Z</time>
      </trkpt>
      <trkpt lat="49.03462" lon="7.80384">
        <ele>412.4</ele>
        <time>2022-05-01T07:57:58Z</time>
      </trkpt>
      <trkpt lat="49.03476" lon="7.80348">
        <ele>411.8</ele>
        <time>2022-05-01T07:58:02Z</time>
      </trkpt>
      <trkpt lat="49.03479" lon="7.80315">
        <ele>411</ele>
        <time>2022-05-01T07:58:05Z</time>
      </trkpt>
      <trkpt lat="49.0348" lon="7.80305">
        <ele>410.8</ele>
        <time>2022-05-01T07:58:06Z</time>
      </trkpt>
      <trkpt lat="49.03481" lon="7.80287">
        <ele>409.8</ele>
        <time>2022-05-01T07:58:08Z</time>
      </trkpt>
      <trkpt lat="49.0348" lon="7.80278">
        <ele>409.4</ele>
        <time>2022-05-01T07:58:09Z</time>
      </trkpt>
      <trkpt lat="49.03479" lon="7.80261">
        <ele>409</ele>
        <time>2022-05-01T07:58:11Z</time>
      </trkpt>
      <trkpt lat="49.03478" lon="7.80241">
        <ele>408.4</ele>
        <time>2022-05-01T07:58:13Z</time>
      </trkpt>
      <trkpt lat="49.03478" lon="7.80231">
        <ele>408.2</ele>
        <time>2022-05-01T07:58:14Z</time>
      </trkpt>
      <trkpt lat="49.03481" lon="7.802">
        <ele>408</ele>
        <time>2022-05-01T07:58:17Z</time>
      </trkpt>
      <trkpt lat="49.03485" lon="7.80182">
        <ele>407.8</ele>
        <time>2022-05-01T07:58:19Z</time>
      </trkpt>
      <trkpt lat="49.03493" lon="7.80146">
        <ele>407.2</ele>
        <time>2022-05-01T07:58:23Z</time>
      </trkpt>
      <trkpt lat="49.03496" lon="7.80137">
        <ele>406.8</ele>
        <time>2022-05-01T07:58:24Z</time>
      </trkpt>
      <trkpt lat="49.03499" lon="7.80128">
        <ele>406.6</ele>
        <time>2022-05-01T07:58:25Z</time>
      </trkpt>
      <trkpt lat="49.03502" lon="7.8012">
        <ele>406.6</ele>
        <time>2022-05-01T07:58:26Z</time>
      </trkpt>
      <trkpt lat="49.03508" lon="7.80103">
        <ele>406.2</ele>
        <time>2022-05-01T07:58:28Z</time>
      </trkpt>
      <trkpt lat="49.03512" lon="7.80096">
        <ele>406.2</ele>
        <time>2022-05-01T07:58:29Z</time>
      </trkpt>
      <trkpt lat="49.03517" lon="7.8009">
        <ele>405.8</ele>
        <time>2022-05-01T07:58:30Z</time>
      </trkpt>
      <trkpt lat="49.03523" lon="7.80085">
        <ele>405.6</ele>
        <time>2022-05-01T07:58:31Z</time>
      </trkpt>
      <trkpt lat="49.03529" lon="7.8008">
        <ele>405.6</ele>
        <time>2022-05-01T07:58:32Z</time>
      </trkpt>
      <trkpt lat="49.03536" lon="7.80077">
        <ele>405.4</ele>
        <time>2022-05-01T07:58:33Z</time>
      </trkpt>
      <trkpt lat="49.03542" lon="7.80074">
        <ele>405.2</ele>
        <time>2022-05-01T07:58:34Z</time>
      </trkpt>
      <trkpt lat="49.03548" lon="7.80071">
        <ele>405</ele>
        <time>2022-05-01T07:58:35Z</time>
      </trkpt>
      <trkpt lat="49.03554" lon="7.80068">
        <ele>405</ele>
        <time>2022-05-01T07:58:36Z</time>
      </trkpt>
      <trkpt lat="49.0356" lon="7.80066">
        <ele>404.8</ele>
        <time>2022-05-01T07:58:37Z</time>
      </trkpt>
      <trkpt lat="49.03592" lon="7.80054">
        <ele>404</ele>
        <time>2022-05-01T07:58:42Z</time>
      </trkpt>
      <trkpt lat="49.03598" lon="7.80051">
        <ele>404</ele>
        <time>2022-05-01T07:58:43Z</time>
      </trkpt>
      <trkpt lat="49.03603" lon="7.80049">
        <ele>403.8</ele>
        <time>2022-05-01T07:58:44Z</time>
      </trkpt>
      <trkpt lat="49.03609" lon="7.80048">
        <ele>403.6</ele>
        <time>2022-05-01T07:58:45Z</time>
      </trkpt>
      <trkpt lat="49.03627" lon="7.80038">
        <ele>403.4</ele>
        <time>2022-05-01T07:58:48Z</time>
      </trkpt>
      <trkpt lat="49.03633" lon="7.80035">
        <ele>403.2</ele>
        <time>2022-05-01T07:58:49Z</time>
      </trkpt>
      <trkpt lat="49.03643" lon="7.80032">
        <ele>403.2</ele>
        <time>2022-05-01T07:58:51Z</time>
      </trkpt>
      <trkpt lat="49.03647" lon="7.80032">
        <ele>403</ele>
        <time>2022-05-01T07:58:52Z</time>
      </trkpt>
      <trkpt lat="49.03654" lon="7.80033">
        <ele>402.8</ele>
        <time>2022-05-01T07:58:53Z</time>
      </trkpt>
      <trkpt lat="49.03658" lon="7.80034">
        <ele>402.6</ele>
        <time>2022-05-01T07:58:54Z</time>
      </trkpt>
      <trkpt lat="49.03663" lon="7.80038">
        <ele>402.6</ele>
        <time>2022-05-01T07:58:55Z</time>
      </trkpt>
      <trkpt lat="49.03668" lon="7.80043">
        <ele>402.4</ele>
        <time>2022-05-01T07:58:56Z</time>
      </trkpt>
      <trkpt lat="49.03671" lon="7.80049">
        <ele>402.4</ele>
        <time>2022-05-01T07:58:57Z</time>
      </trkpt>
      <trkpt lat="49.03676" lon="7.80057">
        <ele>402.2</ele>
        <time>2022-05-01T07:58:58Z</time>
      </trkpt>
      <trkpt lat="49.03679" lon="7.80065">
        <ele>402.2</ele>
        <time>2022-05-01T07:58:59Z</time>
      </trkpt>
      <trkpt lat="49.03681" lon="7.80073">
        <ele>402</ele>
        <time>2022-05-01T07:59:00Z</time>
      </trkpt>
      <trkpt lat="49.03682" lon="7.80082">
        <ele>401.8</ele>
        <time>2022-05-01T07:59:01Z</time>
      </trkpt>
      <trkpt lat="49.03682" lon="7.80091">
        <ele>401.6</ele>
        <time>2022-05-01T07:59:02Z</time>
      </trkpt>
      <trkpt lat="49.03681" lon="7.801">
        <ele>401.6</ele>
        <time>2022-05-01T07:59:03Z</time>
      </trkpt>
      <trkpt lat="49.03679" lon="7.80108">
        <ele>401.4</ele>
        <time>2022-05-01T07:59:04Z</time>
      </trkpt>
      <trkpt lat="49.03677" lon="7.80117">
        <ele>401</ele>
        <time>2022-05-01T07:59:05Z</time>
      </trkpt>
      <trkpt lat="49.03675" lon="7.80124">
        <ele>400.8</ele>
        <time>2022-05-01T07:59:06Z</time>
      </trkpt>
      <trkpt lat="49.03672" lon="7.80134">
        <ele>400.6</ele>
        <time>2022-05-01T07:59:07Z</time>
      </trkpt>
      <trkpt lat="49.03668" lon="7.80149">
        <ele>400.6</ele>
        <time>2022-05-01T07:59:09Z</time>
      </trkpt>
      <trkpt lat="49.03667" lon="7.80154">
        <ele>400.4</ele>
        <time>2022-05-01T07:59:10Z</time>
      </trkpt>
      <trkpt lat="49.03665" lon="7.80165">
        <ele>400.4</ele>
        <time>2022-05-01T07:59:11Z</time>
      </trkpt>
      <trkpt lat="49.03662" lon="7.80181">
        <ele>400.2</ele>
        <time>2022-05-01T07:59:13Z</time>
      </trkpt>
      <trkpt lat="49.03658" lon="7.80195">
        <ele>400.2</ele>
        <time>2022-05-01T07:59:15Z</time>
      </trkpt>
      <trkpt lat="49.03657" lon="7.80204">
        <ele>400.2</ele>
        <time>2022-05-01T07:59:16Z</time>
      </trkpt>
      <trkpt lat="49.03656" lon="7.80212">
        <ele>400</ele>
        <time>2022-05-01T07:59:17Z</time>
      </trkpt>
      <trkpt lat="49.03656" lon="7.8022">
        <ele>400</ele>
        <time>2022-05-01T07:59:18Z</time>
      </trkpt>
      <trkpt lat="49.03656" lon="7.80226">
        <ele>400</ele>
        <time>2022-05-01T07:59:19Z</time>
      </trkpt>
      <trkpt lat="49.03656" lon="7.80235">
        <ele>400</ele>
        <time>2022-05-01T07:59:20Z</time>
      </trkpt>
      <trkpt lat="49.03655" lon="7.80266">
        <ele>400</ele>
        <time>2022-05-01T07:59:24Z</time>
      </trkpt>
      <trkpt lat="49.03653" lon="7.80275">
        <ele>400</ele>
        <time>2022-05-01T07:59:25Z</time>
      </trkpt>
      <trkpt lat="49.03652" lon="7.80282">
        <ele>400</ele>
        <time>2022-05-01T07:59:26Z</time>
      </trkpt>
      <trkpt lat="49.0365" lon="7.80305">
        <ele>400</ele>
        <time>2022-05-01T07:59:29Z</time>
      </trkpt>
      <trkpt lat="49.0365" lon="7.80313">
        <ele>400</ele>
        <time>2022-05-01T07:59:30Z</time>
      </trkpt>
      <trkpt lat="49.03651" lon="7.80319">
        <ele>400</ele>
        <time>2022-05-01T07:59:31Z</time>
      </trkpt>
      <trkpt lat="49.03652" lon="7.80323">
        <ele>400</ele>
        <time>2022-05-01T07:59:32Z</time>
      </trkpt>
      <trkpt lat="49.03653" lon="7.80324">
        <ele>400</ele>
        <time>2022-05-01T07:59:33Z</time>
      </trkpt>
      <trkpt lat="49.03654" lon="7.80324">
        <ele>400</ele>
        <time>2022-05-01T07:59:34Z</time>
      </trkpt>
      <trkpt lat="49.03655" lon="7.80322">
        <ele>400</ele>
        <time>2022-05-01T07:59:35Z</time>
      </trkpt>
      <trkpt lat="49.03656" lon="7.80319">
        <ele>400</ele>
        <time>2022-05-01T07:59:36Z</time>
      </trkpt>
      <trkpt lat="49.03657" lon="7.80316">
        <ele>400</ele>
        <time>2022-05-01T07:59:37Z</time>
      </trkpt>
      <trkpt lat="49.03659" lon="7.80313">
        <ele>400</ele>
        <time>2022-05-01T07:59:38Z</time>
      </trkpt>
      <trkpt lat="49.03659" lon="7.80309">
        <ele>400.2</ele>
        <time>2022-05-01T07:59:39Z</time>
      </trkpt>
      <trkpt lat="49.03661" lon="7.80299">
        <ele>401</ele>
        <time>2022-05-01T07:59:42Z</time>
      </trkpt>
      <trkpt lat="49.03661" lon="7.80295">
        <ele>401</ele>
        <time>2022-05-01T07:59:43Z</time>
      </trkpt>
      <trkpt lat="49.03663" lon="7.80281">
        <ele>402</ele>
        <time>2022-05-01T07:59:47Z</time>
      </trkpt>
      <trkpt lat="49.03663" lon="7.80277">
        <ele>402.2</ele>
        <time>2022-05-01T07:59:48Z</time>
      </trkpt>
      <trkpt lat="49.03666" lon="7.80266">
        <ele>403</ele>
        <time>2022-05-01T07:59:51Z</time>
      </trkpt>
      <trkpt lat="49.03667" lon="7.8026">
        <ele>403.4</ele>
        <time>2022-05-01T07:59:53Z</time>
      </trkpt>
      <trkpt lat="49.03667" lon="7.80257">
        <ele>403.8</ele>
        <time>2022-05-01T07:59:54Z</time>
      </trkpt>
      <trkpt lat="49.03668" lon="7.80254">
        <ele>404.2</ele>
        <time>2022-05-01T07:59:55Z</time>
      </trkpt>
      <trkpt lat="49.03669" lon="7.80251">
        <ele>404.4</ele>
        <time>2022-05-01T07:59:56Z</time>
      </trkpt>
      <trkpt lat="49.0367" lon="7.80247">
        <ele>404.6</ele>
        <time>2022-05-01T07:59:57Z</time>
      </trkpt>
      <trkpt lat="49.03671" lon="7.80244">
        <ele>404.8</ele>
        <time>2022-05-01T07:59:58Z</time>
      </trkpt>
      <trkpt lat="49.03672" lon="7.80241">
        <ele>405</ele>
        <time>2022-05-01T07:59:59Z</time>
      </trkpt>
      <trkpt lat="49.03674" lon="7.80238">
        <ele>405.2</ele>
        <time>2022-05-01T08:00:00Z</time>
      </trkpt>
      <trkpt lat="49.03675" lon="7.80236">
        <ele>405.4</ele>
        <time>2022-05-01T08:00:01Z</time>
      </trkpt>
      <trkpt lat="49.03677" lon="7.80233">
        <ele>405.6</ele>
        <time>2022-05-01T08:00:02Z</time>
      </trkpt>
      <trkpt lat="49.03679" lon="7.80231">
        <ele>406</ele>
        <time>2022-05-01T08:00:03Z</time>
      </trkpt>
      <trkpt lat="49.03681" lon="7.80229">
        <ele>406.2</ele>
        <time>2022-05-01T08:00:04Z</time>
      </trkpt>
      <trkpt lat="49.03683" lon="7.80226">
        <ele>406.4</ele>
        <time>2022-05-01T08:00:05Z</time>
      </trkpt>
      <trkpt lat="49.03685" lon="7.80225">
        <ele>406.6</ele>
        <time>2022-05-01T08:00:06Z</time>
      </trkpt>
      <trkpt lat="49.03687" lon="7.80223">
        <ele>406.8</ele>
        <time>2022-05-01T08:00:07Z</time>
      </trkpt>
      <trkpt lat="49.03689" lon="7.80222">
        <ele>407</ele>
        <time>2022-05-01T08:00:08Z</time>
      </trkpt>
      <trkpt lat="49.03691" lon="7.8022">
        <ele>407.2</ele>
        <time>2022-05-01T08:00:09Z</time>
      </trkpt>
      <trkpt lat="49.03693" lon="7.80219">
        <ele>407.6</ele>
        <time>2022-05-01T08:00:10Z</time>
      </trkpt>
      <trkpt lat="49.03696" lon="7.80217">
        <ele>407.8</ele>
        <time>2022-05-01T08:00:11Z</time>
      </trkpt>
      <trkpt lat="49.03699" lon="7.80216">
        <ele>408</ele>
        <time>2022-05-01T08:00:12Z</time>
      </trkpt>
      <trkpt lat="49.03701" lon="7.80214">
        <ele>408.2</ele>
        <time>2022-05-01T08:00:13Z</time>
      </trkpt>
      <trkpt lat="49.03703" lon="7.80212">
        <ele>408.4</ele>
        <time>2022-05-01T08:00:14Z</time>
      </trkpt>
      <trkpt lat="49.03705" lon="7.8021">
        <ele>408.6</ele>
        <time>2022-05-01T08:00:15Z</time>
      </trkpt>
      <trkpt lat="49.03707" lon="7.80209">
        <ele>408.8</ele>
        <time>2022-05-01T08:00:16Z</time>
      </trkpt>
      <trkpt lat="49.03708" lon="7.80207">
        <ele>409</ele>
        <time>2022-05-01T08:00:17Z</time>
      </trkpt>
      <trkpt lat="49.03711" lon="7.80205">
        <ele>409.2</ele>
        <time>2022-05-01T08:00:18Z</time>
      </trkpt>
      <trkpt lat="49.03713" lon="7.80204">
        <ele>409.4</ele>
        <time>2022-05-01T08:00:19Z</time>
      </trkpt>
      <trkpt lat="49.03715" lon="7.80202">
        <ele>409.6</ele>
        <time>2022-05-01T08:00:20Z</time>
      </trkpt>
      <trkpt lat="49.03716" lon="7.80201">
        <ele>409.8</ele>
        <time>2022-05-01T08:00:21Z</time>
      </trkpt>
      <trkpt lat="49.03718" lon="7.802">
        <ele>409.8</ele>
        <time>2022-05-01T08:00:22Z</time>
      </trkpt>
      <trkpt lat="49.03721" lon="7.80198">
        <ele>410</ele>
        <time>2022-05-01T08:00:23Z</time>
      </trkpt>
      <trkpt lat="49.03723" lon="7.80197">
        <ele>410.4</ele>
        <time>2022-05-01T08:00:24Z</time>
      </trkpt>
      <trkpt lat="49.03726" lon="7.80196">
        <ele>410.4</ele>
        <time>2022-05-01T08:00:25Z</time>
      </trkpt>
      <trkpt lat="49.03728" lon="7.80195">
        <ele>410.8</ele>
        <time>2022-05-01T08:00:26Z</time>
      </trkpt>
      <trkpt lat="49.0373" lon="7.80194">
        <ele>411</ele>
        <time>2022-05-01T08:00:27Z</time>
      </trkpt>
      <trkpt lat="49.03731" lon="7.80193">
        <ele>411.2</ele>
        <time>2022-05-01T08:00:28Z</time>
      </trkpt>
      <trkpt lat="49.03732" lon="7.80193">
        <ele>411.2</ele>
        <time>2022-05-01T08:00:29Z</time>
      </trkpt>
      <trkpt lat="49.03734" lon="7.80193">
        <ele>411.6</ele>
        <time>2022-05-01T08:00:30Z</time>
      </trkpt>
      <trkpt lat="49.03735" lon="7.80192">
        <ele>411.8</ele>
        <time>2022-05-01T08:00:31Z</time>
      </trkpt>
      <trkpt lat="49.03736" lon="7.80191">
        <ele>412</ele>
        <time>2022-05-01T08:00:32Z</time>
      </trkpt>
      <trkpt lat="49.03738" lon="7.80189">
        <ele>412.2</ele>
        <time>2022-05-01T08:00:33Z</time>
      </trkpt>
      <trkpt lat="49.03741" lon="7.80188">
        <ele>412.4</ele>
        <time>2022-05-01T08:00:34Z</time>
      </trkpt>
      <trkpt lat="49.03745" lon="7.80186">
        <ele>412.4</ele>
        <time>2022-05-01T08:00:35Z</time>
      </trkpt>
      <trkpt lat="49.03749" lon="7.80185">
        <ele>412.6</ele>
        <time>2022-05-01T08:00:36Z</time>
      </trkpt>
      <trkpt lat="49.03754" lon="7.80184">
        <ele>412.8</ele>
        <time>2022-05-01T08:00:37Z</time>
      </trkpt>
      <trkpt lat="49.03757" lon="7.80183">
        <ele>413</ele>
        <time>2022-05-01T08:00:38Z</time>
      </trkpt>
      <trkpt lat="49.0376" lon="7.80181">
        <ele>413.2</ele>
        <time>2022-05-01T08:00:39Z</time>
      </trkpt>
      <trkpt lat="49.03765" lon="7.80179">
        <ele>413.4</ele>
        <time>2022-05-01T08:00:40Z</time>
      </trkpt>
      <trkpt lat="49.03767" lon="7.80178">
        <ele>413.6</ele>
        <time>2022-05-01T08:00:41Z</time>
      </trkpt>
      <trkpt lat="49.0377" lon="7.80176">
        <ele>413.6</ele>
        <time>2022-05-01T08:00:42Z</time>
      </trkpt>
      <trkpt lat="49.03772" lon="7.80174">
        <ele>413.8</ele>
        <time>2022-05-01T08:00:43Z</time>
      </trkpt>
      <trkpt lat="49.03774" lon="7.80172">
        <ele>414</ele>
        <time>2022-05-01T08:00:44Z</time>
      </trkpt>
      <trkpt lat="49.03776" lon="7.80171">
        <ele>414.2</ele>
        <time>2022-05-01T08:00:45Z</time>
      </trkpt>
      <trkpt lat="49.03778" lon="7.80168">
        <ele>414.4</ele>
        <time>2022-05-01T08:00:46Z</time>
      </trkpt>
      <trkpt lat="49.03779" lon="7.80165">
        <ele>414.8</ele>
        <time>2022-05-01T08:00:47Z</time>
      </trkpt>
      <trkpt lat="49.0378" lon="7.80161">
        <ele>415</ele>
        <time>2022-05-01T08:00:48Z</time>
      </trkpt>
      <trkpt lat="49.0378" lon="7.80157">
        <ele>415.2</ele>
        <time>2022-05-01T08:00:49Z</time>
      </trkpt>
      <trkpt lat="49.03781" lon="7.80155">
        <ele>415.4</ele>
        <time>2022-05-01T08:00:50Z</time>
      </trkpt>
      <trkpt lat="49.03782" lon="7.80153">
        <ele>415.6</ele>
        <time>2022-05-01T08:00:51Z</time>
      </trkpt>
      <trkpt lat="49.03784" lon="7.8015">
        <ele>415.8</ele>
        <time>2022-05-01T08:00:52Z</time>
      </trkpt>
      <trkpt lat="49.03786" lon="7.80148">
        <ele>416</ele>
        <time>2022-05-01T08:00:53Z</time>
      </trkpt>
      <trkpt lat="49.03787" lon="7.80144">
        <ele>416.4</ele>
        <time>2022-05-01T08:00:54Z</time>
      </trkpt>
      <trkpt lat="49.03789" lon="7.80141">
        <ele>416.6</ele>
        <time>2022-05-01T08:00:55Z</time>
      </trkpt>
      <trkpt lat="49.0379" lon="7.80138">
        <ele>416.8</ele>
        <time>2022-05-01T08:00:56Z</time>
      </trkpt>
      <trkpt lat="49.03791" lon="7.80136">
        <ele>417</ele>
        <time>2022-05-01T08:00:57Z</time>
      </trkpt>
      <trkpt lat="49.03792" lon="7.80133">
        <ele>417.2</ele>
        <time>2022-05-01T08:00:58Z</time>
      </trkpt>
      <trkpt lat="49.03793" lon="7.80129">
        <ele>417.4</ele>
        <time>2022-05-01T08:00:59Z</time>
      </trkpt>
      <trkpt lat="49.03794" lon="7.80126">
        <ele>417.4</ele>
        <time>2022-05-01T08:01:00Z</time>
      </trkpt>
      <trkpt lat="49.03796" lon="7.80123">
        <ele>417.8</ele>
        <time>2022-05-01T08:01:01Z</time>
      </trkpt>
      <trkpt lat="49.03798" lon="7.80121">
        <ele>417.8</ele>
        <time>2022-05-01T08:01:02Z</time>
      </trkpt>
      <trkpt lat="49.038" lon="7.80118">
        <ele>418</ele>
        <time>2022-05-01T08:01:03Z</time>
      </trkpt>
      <trkpt lat="49.03802" lon="7.80115">
        <ele>418.2</ele>
        <time>2022-05-01T08:01:04Z</time>
      </trkpt>
      <trkpt lat="49.03803" lon="7.80113">
        <ele>418.2</ele>
        <time>2022-05-01T08:01:05Z</time>
      </trkpt>
      <trkpt lat="49.03805" lon="7.80111">
        <ele>418.4</ele>
        <time>2022-05-01T08:01:06Z</time>
      </trkpt>
      <trkpt lat="49.03806" lon="7.80108">
        <ele>418.6</ele>
        <time>2022-05-01T08:01:07Z</time>
      </trkpt>
      <trkpt lat="49.03808" lon="7.80104">
        <ele>418.8</ele>
        <time>2022-05-01T08:01:08Z</time>
      </trkpt>
      <trkpt lat="49.03809" lon="7.80101">
        <ele>419</ele>
        <time>2022-05-01T08:01:09Z</time>
      </trkpt>
      <trkpt lat="49.0381" lon="7.80099">
        <ele>419.2</ele>
        <time>2022-05-01T08:01:10Z</time>
      </trkpt>
      <trkpt lat="49.0381" lon="7.80096">
        <ele>419.4</ele>
        <time>2022-05-01T08:01:11Z</time>
      </trkpt>
      <trkpt lat="49.03811" lon="7.80093">
        <ele>419.6</ele>
        <time>2022-05-01T08:01:12Z</time>
      </trkpt>
      <trkpt lat="49.03812" lon="7.8009">
        <ele>419.6</ele>
        <time>2022-05-01T08:01:13Z</time>
      </trkpt>
      <trkpt lat="49.03812" lon="7.80087">
        <ele>419.8</ele>
        <time>2022-05-01T08:01:14Z</time>
      </trkpt>
      <trkpt lat="49.03813" lon="7.80082">
        <ele>420</ele>
        <time>2022-05-01T08:01:15Z</time>
      </trkpt>
      <trkpt lat="49.03813" lon="7.80079">
        <ele>420.2</ele>
        <time>2022-05-01T08:01:16Z</time>
      </trkpt>
      <trkpt lat="49.03813" lon="7.80075">
        <ele>420.4</ele>
        <time>2022-05-01T08:01:17Z</time>
      </trkpt>
      <trkpt lat="49.03815" lon="7.80072">
        <ele>420.6</ele>
        <time>2022-05-01T08:01:18Z</time>
      </trkpt>
      <trkpt lat="49.03817" lon="7.80069">
        <ele>420.8</ele>
        <time>2022-05-01T08:01:19Z</time>
      </trkpt>
      <trkpt lat="49.03817" lon="7.80067">
        <ele>421</ele>
        <time>2022-05-01T08:01:20Z</time>
      </trkpt>
      <trkpt lat="49.03819" lon="7.80063">
        <ele>421.6</ele>
        <time>2022-05-01T08:01:21Z</time>
      </trkpt>
      <trkpt lat="49.03818" lon="7.8006">
        <ele>421.8</ele>
        <time>2022-05-01T08:01:22Z</time>
      </trkpt>
      <trkpt lat="49.03818" lon="7.80055">
        <ele>422</ele>
        <time>2022-05-01T08:01:23Z</time>
      </trkpt>
      <trkpt lat="49.0382" lon="7.80051">
        <ele>422.2</ele>
        <time>2022-05-01T08:01:24Z</time>
      </trkpt>
      <trkpt lat="49.03822" lon="7.80049">
        <ele>422.2</ele>
        <time>2022-05-01T08:01:25Z</time>
      </trkpt>
      <trkpt lat="49.03824" lon="7.80045">
        <ele>422.6</ele>
        <time>2022-05-01T08:01:26Z</time>
      </trkpt>
      <trkpt lat="49.03827" lon="7.80041">
        <ele>422.8</ele>
        <time>2022-05-01T08:01:27Z</time>
      </trkpt>
      <trkpt lat="49.03829" lon="7.80038">
        <ele>422.8</ele>
        <time>2022-05-01T08:01:28Z</time>
      </trkpt>
      <trkpt lat="49.03829" lon="7.80035">
        <ele>423</ele>
        <time>2022-05-01T08:01:29Z</time>
      </trkpt>
      <trkpt lat="49.0383" lon="7.8003">
        <ele>423.2</ele>
        <time>2022-05-01T08:01:30Z</time>
      </trkpt>
      <trkpt lat="49.0383" lon="7.80027">
        <ele>423.4</ele>
        <time>2022-05-01T08:01:31Z</time>
      </trkpt>
      <trkpt lat="49.03831" lon="7.80024">
        <ele>423.8</ele>
        <time>2022-05-01T08:01:32Z</time>
      </trkpt>
      <trkpt lat="49.03832" lon="7.80021">
        <ele>424.2</ele>
        <time>2022-05-01T08:01:33Z</time>
      </trkpt>
      <trkpt lat="49.03832" lon="7.80018">
        <ele>424.4</ele>
        <time>2022-05-01T08:01:34Z</time>
      </trkpt>
      <trkpt lat="49.03832" lon="7.80014">
        <ele>424.6</ele>
        <time>2022-05-01T08:01:35Z</time>
      </trkpt>
      <trkpt lat="49.03832" lon="7.80012">
        <ele>424.8</ele>
        <time>2022-05-01T08:01:36Z</time>
      </trkpt>
      <trkpt lat="49.03833" lon="7.80009">
        <ele>425</ele>
        <time>2022-05-01T08:01:37Z</time>
      </trkpt>
      <trkpt lat="49.03834" lon="7.80006">
        <ele>425</ele>
        <time>2022-05-01T08:01:38Z</time>
      </trkpt>
      <trkpt lat="49.03835" lon="7.80003">
        <ele>425.4</ele>
        <time>2022-05-01T08:01:39Z</time>
      </trkpt>
      <trkpt lat="49.03835" lon="7.80001">
        <ele>425.6</ele>
        <time>2022-05-01T08:01:40Z</time>
      </trkpt>
      <trkpt lat="49.03836" lon="7.79999">
        <ele>425.8</ele>
        <time>2022-05-01T08:01:41Z</time>
      </trkpt>
      <trkpt lat="49.03838" lon="7.79996">
        <ele>426</ele>
        <time>2022-05-01T08:01:42Z</time>
      </trkpt>
      <trkpt lat="49.03838" lon="7.79994">
        <ele>426.2</ele>
        <time>2022-05-01T08:01:43Z</time>
      </trkpt>
      <trkpt lat="49.03839" lon="7.7999">
        <ele>426.6</ele>
        <time>2022-05-01T08:01:44Z</time>
      </trkpt>
      <trkpt lat="49.0384" lon="7.79987">
        <ele>426.8</ele>
        <time>2022-05-01T08:01:45Z</time>
      </trkpt>
      <trkpt lat="49.03841" lon="7.79984">
        <ele>427</ele>
        <time>2022-05-01T08:01:46Z</time>
      </trkpt>
      <trkpt lat="49.03841" lon="7.79982">
        <ele>427.2</ele>
        <time>2022-05-01T08:01:47Z</time>
      </trkpt>
      <trkpt lat="49.03842" lon="7.79978">
        <ele>427.6</ele>
        <time>2022-05-01T08:01:48Z</time>
      </trkpt>
      <trkpt lat="49.03842" lon="7.79975">
        <ele>427.8</ele>
        <time>2022-05-01T08:01:49Z</time>
      </trkpt>
      <trkpt lat="49.03843" lon="7.79973">
        <ele>428</ele>
        <time>2022-05-01T08:01:50Z</time>
      </trkpt>
      <trkpt lat="49.03843" lon="7.79971">
        <ele>428.2</ele>
        <time>2022-05-01T08:01:51Z</time>
      </trkpt>
      <trkpt lat="49.03844" lon="7.79967">
        <ele>428.4</ele>
        <time>2022-05-01T08:01:52Z</time>
      </trkpt>
      <trkpt lat="49.03845" lon="7.79964">
        <ele>428.6</ele>
        <time>2022-05-01T08:01:53Z</time>
      </trkpt>
      <trkpt lat="49.03846" lon="7.79961">
        <ele>428.8</ele>
        <time>2022-05-01T08:01:54Z</time>
      </trkpt>
      <trkpt lat="49.03847" lon="7.79958">
        <ele>428.8</ele>
        <time>2022-05-01T08:01:55Z</time>
      </trkpt>
      <trkpt lat="49.03847" lon="7.79955">
        <ele>429</ele>
        <time>2022-05-01T08:01:56Z</time>
      </trkpt>
      <trkpt lat="49.03848" lon="7.79951">
        <ele>429.2</ele>
        <time>2022-05-01T08:01:57Z</time>
      </trkpt>
      <trkpt lat="49.03848" lon="7.79947">
        <ele>429.4</ele>
        <time>2022-05-01T08:01:58Z</time>
      </trkpt>
      <trkpt lat="49.03848" lon="7.79944">
        <ele>429.4</ele>
        <time>2022-05-01T08:01:59Z</time>
      </trkpt>
      <trkpt lat="49.03848" lon="7.79941">
        <ele>429.8</ele>
        <time>2022-05-01T08:02:00Z</time>
      </trkpt>
      <trkpt lat="49.03849" lon="7.79937">
        <ele>430</ele>
        <time>2022-05-01T08:02:01Z</time>
      </trkpt>
      <trkpt lat="49.03849" lon="7.79933">
        <ele>430.2</ele>
        <time>2022-05-01T08:02:02Z</time>
      </trkpt>
      <trkpt lat="49.03849" lon="7.79928">
        <ele>430.4</ele>
        <time>2022-05-01T08:02:03Z</time>
      </trkpt>
      <trkpt lat="49.03849" lon="7.79924">
        <ele>430.6</ele>
        <time>2022-05-01T08:02:04Z</time>
      </trkpt>
      <trkpt lat="49.0385" lon="7.79921">
        <ele>430.8</ele>
        <time>2022-05-01T08:02:05Z</time>
      </trkpt>
      <trkpt lat="49.03851" lon="7.79917">
        <ele>431</ele>
        <time>2022-05-01T08:02:06Z</time>
      </trkpt>
      <trkpt lat="49.03852" lon="7.79914">
        <ele>431.4</ele>
        <time>2022-05-01T08:02:07Z</time>
      </trkpt>
      <trkpt lat="49.03852" lon="7.7991">
        <ele>431.6</ele>
        <time>2022-05-01T08:02:08Z</time>
      </trkpt>
      <trkpt lat="49.03852" lon="7.79907">
        <ele>431.8</ele>
        <time>2022-05-01T08:02:09Z</time>
      </trkpt>
      <trkpt lat="49.03852" lon="7.79903">
        <ele>432.2</ele>
        <time>2022-05-01T08:02:10Z</time>
      </trkpt>
      <trkpt lat="49.03852" lon="7.79899">
        <ele>432.4</ele>
        <time>2022-05-01T08:02:11Z</time>
      </trkpt>
      <trkpt lat="49.03851" lon="7.79895">
        <ele>432.6</ele>
        <time>2022-05-01T08:02:12Z</time>
      </trkpt>
      <trkpt lat="49.03851" lon="7.79892">
        <ele>432.8</ele>
        <time>2022-05-01T08:02:13Z</time>
      </trkpt>
      <trkpt lat="49.03851" lon="7.79889">
        <ele>432.8</ele>
        <time>2022-05-01T08:02:14Z</time>
      </trkpt>
      <trkpt lat="49.03851" lon="7.79886">
        <ele>433</ele>
        <time>2022-05-01T08:02:15Z</time>
      </trkpt>
      <trkpt lat="49.0385" lon="7.79882">
        <ele>433.2</ele>
        <time>2022-05-01T08:02:16Z</time>
      </trkpt>
      <trkpt lat="49.03849" lon="7.79877">
        <ele>433.6</ele>
        <time>2022-05-01T08:02:17Z</time>
      </trkpt>
      <trkpt lat="49.03849" lon="7.79874">
        <ele>433.8</ele>
        <time>2022-05-01T08:02:18Z</time>
      </trkpt>
      <trkpt lat="49.03849" lon="7.79872">
        <ele>434</ele>
        <time>2022-05-01T08:02:19Z</time>
      </trkpt>
      <trkpt lat="49.03848" lon="7.7987">
        <ele>434</ele>
        <time>2022-05-01T08:02:20Z</time>
      </trkpt>
      <trkpt lat="49.03847" lon="7.79868">
        <ele>434.2</ele>
        <time>2022-05-01T08:02:21Z</time>
      </trkpt>
      <trkpt lat="49.03845" lon="7.79865">
        <ele>434.4</ele>
        <time>2022-05-01T08:02:22Z</time>
      </trkpt>
      <trkpt lat="49.03845" lon="7.79862">
        <ele>434.6</ele>
        <time>2022-05-01T08:02:23Z</time>
      </trkpt>
      <trkpt lat="49.03842" lon="7.79859">
        <ele>434.8</ele>
        <time>2022-05-01T08:02:24Z</time>
      </trkpt>
      <trkpt lat="49.0384" lon="7.79858">
        <ele>435</ele>
        <time>2022-05-01T08:02:25Z</time>
      </trkpt>
      <trkpt lat="49.03838" lon="7.79857">
        <ele>435.2</ele>
        <time>2022-05-01T08:02:26Z</time>
      </trkpt>
      <trkpt lat="49.03836" lon="7.79856">
        <ele>435.4</ele>
        <time>2022-05-01T08:02:27Z</time>
      </trkpt>
      <trkpt lat="49.03834" lon="7.79854">
        <ele>435.6</ele>
        <time>2022-05-01T08:02:28Z</time>
      </trkpt>
      <trkpt lat="49.03833" lon="7.79854">
        <ele>435.8</ele>
        <time>2022-05-01T08:02:29Z</time>
      </trkpt>
      <trkpt lat="49.03832" lon="7.79853">
        <ele>436.2</ele>
        <time>2022-05-01T08:02:30Z</time>
      </trkpt>
      <trkpt lat="49.03831" lon="7.7985">
        <ele>436.4</ele>
        <time>2022-05-01T08:02:31Z</time>
      </trkpt>
      <trkpt lat="49.03829" lon="7.79848">
        <ele>436.8</ele>
        <time>2022-05-01T08:02:32Z</time>
      </trkpt>
      <trkpt lat="49.03828" lon="7.79846">
        <ele>437.2</ele>
        <time>2022-05-01T08:02:33Z</time>
      </trkpt>
      <trkpt lat="49.03826" lon="7.79845">
        <ele>437.4</ele>
        <time>2022-05-01T08:02:34Z</time>
      </trkpt>
      <trkpt lat="49.03825" lon="7.79844">
        <ele>437.6</ele>
        <time>2022-05-01T08:02:35Z</time>
      </trkpt>
      <trkpt lat="49.03824" lon="7.79843">
        <ele>438</ele>
        <time>2022-05-01T08:02:36Z</time>
      </trkpt>
      <trkpt lat="49.03823" lon="7.79842">
        <ele>438</ele>
        <time>2022-05-01T08:02:37Z</time>
      </trkpt>
      <trkpt lat="49.03821" lon="7.7984">
        <ele>438.2</ele>
        <time>2022-05-01T08:02:38Z</time>
      </trkpt>
      <trkpt lat="49.03819" lon="7.79839">
        <ele>438.6</ele>
        <time>2022-05-01T08:02:39Z</time>
      </trkpt>
      <trkpt lat="49.03818" lon="7.79838">
        <ele>438.8</ele>
        <time>2022-05-01T08:02:40Z</time>
      </trkpt>
      <trkpt lat="49.03816" lon="7.79836">
        <ele>439</ele>
        <time>2022-05-01T08:02:41Z</time>
      </trkpt>
      <trkpt lat="49.03814" lon="7.79833">
        <ele>439.2</ele>
        <time>2022-05-01T08:02:42Z</time>
      </trkpt>
      <trkpt lat="49.03812" lon="7.79831">
        <ele>439.4</ele>
        <time>2022-05-01T08:02:43Z</time>
      </trkpt>
      <trkpt lat="49.03811" lon="7.79829">
        <ele>439.6</ele>
        <time>2022-05-01T08:02:44Z</time>
      </trkpt>
      <trkpt lat="49.0381" lon="7.79828">
        <ele>439.8</ele>
        <time>2022-05-01T08:02:45Z</time>
      </trkpt>
      <trkpt lat="49.03809" lon="7.79827">
        <ele>440</ele>
        <time>2022-05-01T08:02:46Z</time>
      </trkpt>
      <trkpt lat="49.03807" lon="7.79824">
        <ele>440.2</ele>
        <time>2022-05-01T08:02:47Z</time>
      </trkpt>
      <trkpt lat="49.03805" lon="7.79822">
        <ele>440.4</ele>
        <time>2022-05-01T08:02:48Z</time>
      </trkpt>
      <trkpt lat="49.03804" lon="7.7982">
        <ele>440.6</ele>
        <time>2022-05-01T08:02:49Z</time>
      </trkpt>
      <trkpt lat="49.03802" lon="7.79818">
        <ele>440.8</ele>
        <time>2022-05-01T08:02:50Z</time>
      </trkpt>
      <trkpt lat="49.038" lon="7.79816">
        <ele>440.8</ele>
        <time>2022-05-01T08:02:51Z</time>
      </trkpt>
      <trkpt lat="49.03799" lon="7.79814">
        <ele>441.2</ele>
        <time>2022-05-01T08:02:52Z</time>
      </trkpt>
      <trkpt lat="49.03797" lon="7.79811">
        <ele>441.4</ele>
        <time>2022-05-01T08:02:53Z</time>
      </trkpt>
      <trkpt lat="49.03795" lon="7.79808">
        <ele>441.6</ele>
        <time>2022-05-01T08:02:54Z</time>
      </trkpt>
      <trkpt lat="49.03793" lon="7.79805">
        <ele>441.8</ele>
        <time>2022-05-01T08:02:55Z</time>
      </trkpt>
      <trkpt lat="49.03791" lon="7.79802">
        <ele>442</ele>
        <time>2022-05-01T08:02:56Z</time>
      </trkpt>
      <trkpt lat="49.0379" lon="7.79799">
        <ele>442</ele>
        <time>2022-05-01T08:02:57Z</time>
      </trkpt>
      <trkpt lat="49.03789" lon="7.79797">
        <ele>442.2</ele>
        <time>2022-05-01T08:02:58Z</time>
      </trkpt>
      <trkpt lat="49.03787" lon="7.79794">
        <ele>442.6</ele>
        <time>2022-05-01T08:02:59Z</time>
      </trkpt>
      <trkpt lat="49.03785" lon="7.79792">
        <ele>442.8</ele>
        <time>2022-05-01T08:03:00Z</time>
      </trkpt>
      <trkpt lat="49.03784" lon="7.7979">
        <ele>442.8</ele>
        <time>2022-05-01T08:03:01Z</time>
      </trkpt>
      <trkpt lat="49.03783" lon="7.79788">
        <ele>443.2</ele>
        <time>2022-05-01T08:03:02Z</time>
      </trkpt>
      <trkpt lat="49.03781" lon="7.79786">
        <ele>443</ele>
        <time>2022-05-01T08:03:03Z</time>
      </trkpt>
      <trkpt lat="49.0378" lon="7.79783">
        <ele>443.4</ele>
        <time>2022-05-01T08:03:04Z</time>
      </trkpt>
      <trkpt lat="49.03778" lon="7.79781">
        <ele>443.6</ele>
        <time>2022-05-01T08:03:05Z</time>
      </trkpt>
      <trkpt lat="49.03776" lon="7.79778">
        <ele>444</ele>
        <time>2022-05-01T08:03:06Z</time>
      </trkpt>
      <trkpt lat="49.03775" lon="7.79776">
        <ele>444</ele>
        <time>2022-05-01T08:03:07Z</time>
      </trkpt>
      <trkpt lat="49.03773" lon="7.79773">
        <ele>444.2</ele>
        <time>2022-05-01T08:03:08Z</time>
      </trkpt>
      <trkpt lat="49.03772" lon="7.7977">
        <ele>444.4</ele>
        <time>2022-05-01T08:03:09Z</time>
      </trkpt>
      <trkpt lat="49.03769" lon="7.79767">
        <ele>444.6</ele>
        <time>2022-05-01T08:03:10Z</time>
      </trkpt>
      <trkpt lat="49.03767" lon="7.79764">
        <ele>444.6</ele>
        <time>2022-05-01T08:03:11Z</time>
      </trkpt>
      <trkpt lat="49.03765" lon="7.79761">
        <ele>444.6</ele>
        <time>2022-05-01T08:03:12Z</time>
      </trkpt>
      <trkpt lat="49.03762" lon="7.79758">
        <ele>444.8</ele>
        <time>2022-05-01T08:03:13Z</time>
      </trkpt>
      <trkpt lat="49.03759" lon="7.79757">
        <ele>445</ele>
        <time>2022-05-01T08:03:14Z</time>
      </trkpt>
      <trkpt lat="49.03756" lon="7.79754">
        <ele>445.2</ele>
        <time>2022-05-01T08:03:15Z</time>
      </trkpt>
      <trkpt lat="49.03755" lon="7.7975">
        <ele>445.4</ele>
        <time>2022-05-01T08:03:16Z</time>
      </trkpt>
      <trkpt lat="49.03754" lon="7.79747">
        <ele>445.4</ele>
        <time>2022-05-01T08:03:17Z</time>
      </trkpt>
      <trkpt lat="49.03754" lon="7.79744">
        <ele>445.4</ele>
        <time>2022-05-01T08:03:18Z</time>
      </trkpt>
      <trkpt lat="49.03755" lon="7.7974">
        <ele>445.6</ele>
        <time>2022-05-01T08:03:19Z</time>
      </trkpt>
      <trkpt lat="49.03754" lon="7.79736">
        <ele>445.8</ele>
        <time>2022-05-01T08:03:20Z</time>
      </trkpt>
      <trkpt lat="49.03753" lon="7.79731">
        <ele>445.8</ele>
        <time>2022-05-01T08:03:21Z</time>
      </trkpt>
      <trkpt lat="49.03752" lon="7.79727">
        <ele>446</ele>
        <time>2022-05-01T08:03:22Z</time>
      </trkpt>
      <trkpt lat="49.03753" lon="7.79724">
        <ele>446.2</ele>
        <time>2022-05-01T08:03:23Z</time>
      </trkpt>
      <trkpt lat="49.03753" lon="7.79721">
        <ele>446.4</ele>
        <time>2022-05-01T08:03:24Z</time>
      </trkpt>
      <trkpt lat="49.03755" lon="7.79718">
        <ele>446.4</ele>
        <time>2022-05-01T08:03:25Z</time>
      </trkpt>
      <trkpt lat="49.03756" lon="7.79716">
        <ele>446.6</ele>
        <time>2022-05-01T08:03:26Z</time>
      </trkpt>
      <trkpt lat="49.03758" lon="7.79714">
        <ele>446.8</ele>
        <time>2022-05-01T08:03:27Z</time>
      </trkpt>
      <trkpt lat="49.03759" lon="7.79712">
        <ele>446.8</ele>
        <time>2022-05-01T08:03:28Z</time>
      </trkpt>
      <trkpt lat="49.03761" lon="7.79711">
        <ele>447</ele>
        <time>2022-05-01T08:03:29Z</time>
      </trkpt>
      <trkpt lat="49.03763" lon="7.7971">
        <ele>447</ele>
        <time>2022-05-01T08:03:30Z</time>
      </trkpt>
      <trkpt lat="49.03765" lon="7.79709">
        <ele>447</ele>
        <time>2022-05-01T08:03:31Z</time>
      </trkpt>
      <trkpt lat="49.03767" lon="7.79707">
        <ele>447.2</ele>
        <time>2022-05-01T08:03:32Z</time>
      </trkpt>
      <trkpt lat="49.03769" lon="7.79705">
        <ele>447.2</ele>
        <time>2022-05-01T08:03:33Z</time>
      </trkpt>
      <trkpt lat="49.0377" lon="7.79703">
        <ele>447.2</ele>
        <time>2022-05-01T08:03:34Z</time>
      </trkpt>
      <trkpt lat="49.03771" lon="7.797">
        <ele>447.2</ele>
        <time>2022-05-01T08:03:35Z</time>
      </trkpt>
      <trkpt lat="49.03772" lon="7.79698">
        <ele>447.4</ele>
        <time>2022-05-01T08:03:36Z</time>
      </trkpt>
      <trkpt lat="49.03772" lon="7.79695">
        <ele>447.4</ele>
        <time>2022-05-01T08:03:37Z</time>
      </trkpt>
      <trkpt lat="49.03773" lon="7.79692">
        <ele>447.4</ele>
        <time>2022-05-01T08:03:38Z</time>
      </trkpt>
      <trkpt lat="49.03775" lon="7.79689">
        <ele>447.4</ele>
        <time>2022-05-01T08:03:39Z</time>
      </trkpt>
      <trkpt lat="49.03776" lon="7.79685">
        <ele>447.4</ele>
        <time>2022-05-01T08:03:40Z</time>
      </trkpt>
      <trkpt lat="49.03777" lon="7.79681">
        <ele>447.6</ele>
        <time>2022-05-01T08:03:41Z</time>
      </trkpt>
      <trkpt lat="49.03778" lon="7.79677">
        <ele>447.6</ele>
        <time>2022-05-01T08:03:42Z</time>
      </trkpt>
      <trkpt lat="49.03778" lon="7.79673">
        <ele>447.8</ele>
        <time>2022-05-01T08:03:43Z</time>
      </trkpt>
      <trkpt lat="49.0378" lon="7.79665">
        <ele>448</ele>
        <time>2022-05-01T08:03:45Z</time>
      </trkpt>
      <trkpt lat="49.0378" lon="7.79657">
        <ele>448.2</ele>
        <time>2022-05-01T08:03:47Z</time>
      </trkpt>
      <trkpt lat="49.0378" lon="7.79654">
        <ele>448.2</ele>
        <time>2022-05-01T08:03:48Z</time>
      </trkpt>
      <trkpt lat="49.0378" lon="7.79645">
        <ele>448.4</ele>
        <time>2022-05-01T08:03:50Z</time>
      </trkpt>
      <trkpt lat="49.0378" lon="7.79609">
        <ele>449.6</ele>
        <time>2022-05-01T08:03:58Z</time>
      </trkpt>
      <trkpt lat="49.03783" lon="7.796">
        <ele>449.8</ele>
        <time>2022-05-01T08:04:00Z</time>
      </trkpt>
      <trkpt lat="49.03784" lon="7.79596">
        <ele>449.8</ele>
        <time>2022-05-01T08:04:01Z</time>
      </trkpt>
      <trkpt lat="49.03784" lon="7.79592">
        <ele>449.8</ele>
        <time>2022-05-01T08:04:02Z</time>
      </trkpt>
      <trkpt lat="49.03785" lon="7.79582">
        <ele>449.8</ele>
        <time>2022-05-01T08:04:04Z</time>
      </trkpt>
      <trkpt lat="49.03785" lon="7.79577">
        <ele>450</ele>
        <time>2022-05-01T08:04:05Z</time>
      </trkpt>
      <trkpt lat="49.03784" lon="7.79574">
        <ele>450</ele>
        <time>2022-05-01T08:04:06Z</time>
      </trkpt>
      <trkpt lat="49.03785" lon="7.79569">
        <ele>450.2</ele>
        <time>2022-05-01T08:04:07Z</time>
      </trkpt>
      <trkpt lat="49.03785" lon="7.79563">
        <ele>450.4</ele>
        <time>2022-05-01T08:04:08Z</time>
      </trkpt>
      <trkpt lat="49.03786" lon="7.79559">
        <ele>450.6</ele>
        <time>2022-05-01T08:04:09Z</time>
      </trkpt>
      <trkpt lat="49.03787" lon="7.79555">
        <ele>450.6</ele>
        <time>2022-05-01T08:04:10Z</time>
      </trkpt>
      <trkpt lat="49.03787" lon="7.79552">
        <ele>451</ele>
        <time>2022-05-01T08:04:11Z</time>
      </trkpt>
      <trkpt lat="49.03788" lon="7.79546">
        <ele>451.2</ele>
        <time>2022-05-01T08:04:12Z</time>
      </trkpt>
      <trkpt lat="49.03789" lon="7.79542">
        <ele>451.2</ele>
        <time>2022-05-01T08:04:13Z</time>
      </trkpt>
      <trkpt lat="49.03789" lon="7.79537">
        <ele>451.4</ele>
        <time>2022-05-01T08:04:14Z</time>
      </trkpt>
      <trkpt lat="49.03789" lon="7.79534">
        <ele>451.4</ele>
        <time>2022-05-01T08:04:15Z</time>
      </trkpt>
      <trkpt lat="49.03788" lon="7.79529">
        <ele>451.4</ele>
        <time>2022-05-01T08:04:16Z</time>
      </trkpt>
      <trkpt lat="49.03788" lon="7.79525">
        <ele>451.4</ele>
        <time>2022-05-01T08:04:17Z</time>
      </trkpt>
      <trkpt lat="49.03789" lon="7.79521">
        <ele>451.6</ele>
        <time>2022-05-01T08:04:18Z</time>
      </trkpt>
      <trkpt lat="49.0379" lon="7.79517">
        <ele>451.6</ele>
        <time>2022-05-01T08:04:19Z</time>
      </trkpt>
      <trkpt lat="49.0379" lon="7.79512">
        <ele>451.8</ele>
        <time>2022-05-01T08:04:20Z</time>
      </trkpt>
      <trkpt lat="49.03791" lon="7.79506">
        <ele>451.8</ele>
        <time>2022-05-01T08:04:21Z</time>
      </trkpt>
      <trkpt lat="49.03791" lon="7.79501">
        <ele>451.8</ele>
        <time>2022-05-01T08:04:22Z</time>
      </trkpt>
      <trkpt lat="49.03792" lon="7.79496">
        <ele>452</ele>
        <time>2022-05-01T08:04:23Z</time>
      </trkpt>
      <trkpt lat="49.03793" lon="7.79491">
        <ele>452</ele>
        <time>2022-05-01T08:04:24Z</time>
      </trkpt>
      <trkpt lat="49.03794" lon="7.79486">
        <ele>452.2</ele>
        <time>2022-05-01T08:04:25Z</time>
      </trkpt>
      <trkpt lat="49.03795" lon="7.79482">
        <ele>452.2</ele>
        <time>2022-05-01T08:04:26Z</time>
      </trkpt>
      <trkpt lat="49.03795" lon="7.79477">
        <ele>452.4</ele>
        <time>2022-05-01T08:04:27Z</time>
      </trkpt>
      <trkpt lat="49.03796" lon="7.79472">
        <ele>452.4</ele>
        <time>2022-05-01T08:04:28Z</time>
      </trkpt>
      <trkpt lat="49.03798" lon="7.79463">
        <ele>452.4</ele>
        <time>2022-05-01T08:04:30Z</time>
      </trkpt>
      <trkpt lat="49.03803" lon="7.79451">
        <ele>452.4</ele>
        <time>2022-05-01T08:04:33Z</time>
      </trkpt>
      <trkpt lat="49.03805" lon="7.79447">
        <ele>452.4</ele>
        <time>2022-05-01T08:04:34Z</time>
      </trkpt>
      <trkpt lat="49.03806" lon="7.79444">
        <ele>452.4</ele>
        <time>2022-05-01T08:04:35Z</time>
      </trkpt>
      <trkpt lat="49.03808" lon="7.7944">
        <ele>452.4</ele>
        <time>2022-05-01T08:04:36Z</time>
      </trkpt>
      <trkpt lat="49.0381" lon="7.79436">
        <ele>452.4</ele>
        <time>2022-05-01T08:04:37Z</time>
      </trkpt>
      <trkpt lat="49.03827" lon="7.79412">
        <ele>452.2</ele>
        <time>2022-05-01T08:04:43Z</time>
      </trkpt>
      <trkpt lat="49.03834" lon="7.79408">
        <ele>452</ele>
        <time>2022-05-01T08:04:45Z</time>
      </trkpt>
      <trkpt lat="49.03838" lon="7.79407">
        <ele>451.8</ele>
        <time>2022-05-01T08:04:46Z</time>
      </trkpt>
      <trkpt lat="49.03844" lon="7.79406">
        <ele>451.4</ele>
        <time>2022-05-01T08:04:48Z</time>
      </trkpt>
      <trkpt lat="49.03847" lon="7.79406">
        <ele>451.2</ele>
        <time>2022-05-01T08:04:49Z</time>
      </trkpt>
      <trkpt lat="49.03864" lon="7.79408">
        <ele>450.8</ele>
        <time>2022-05-01T08:04:53Z</time>
      </trkpt>
      <trkpt lat="49.03869" lon="7.79411">
        <ele>450.6</ele>
        <time>2022-05-01T08:04:54Z</time>
      </trkpt>
      <trkpt lat="49.03872" lon="7.79413">
        <ele>450.6</ele>
        <time>2022-05-01T08:04:55Z</time>
      </trkpt>
      <trkpt lat="49.0388" lon="7.79416">
        <ele>450.4</ele>
        <time>2022-05-01T08:04:57Z</time>
      </trkpt>
      <trkpt lat="49.03912" lon="7.7944">
        <ele>450</ele>
        <time>2022-05-01T08:05:05Z</time>
      </trkpt>
      <trkpt lat="49.03938" lon="7.79465">
        <ele>450.2</ele>
        <time>2022-05-01T08:05:12Z</time>
      </trkpt>
      <trkpt lat="49.03945" lon="7.79473">
        <ele>450.2</ele>
        <time>2022-05-01T08:05:14Z</time>
      </trkpt>
      <trkpt lat="49.03948" lon="7.79477">
        <ele>450.2</ele>
        <time>2022-05-01T08:05:15Z</time>
      </trkpt>
      <trkpt lat="49.03951" lon="7.79482">
        <ele>450.4</ele>
        <time>2022-05-01T08:05:16Z</time>
      </trkpt>
      <trkpt lat="49.03954" lon="7.79485">
        <ele>450.4</ele>
        <time>2022-05-01T08:05:17Z</time>
      </trkpt>
      <trkpt lat="49.03958" lon="7.79492">
        <ele>450.4</ele>
        <time>2022-05-01T08:05:18Z</time>
      </trkpt>
      <trkpt lat="49.03962" lon="7.79497">
        <ele>450.4</ele>
        <time>2022-05-01T08:05:19Z</time>
      </trkpt>
      <trkpt lat="49.03965" lon="7.79501">
        <ele>450.4</ele>
        <time>2022-05-01T08:05:20Z</time>
      </trkpt>
      <trkpt lat="49.03969" lon="7.79506">
        <ele>450.4</ele>
        <time>2022-05-01T08:05:21Z</time>
      </trkpt>
      <trkpt lat="49.03971" lon="7.7951">
        <ele>450.4</ele>
        <time>2022-05-01T08:05:22Z</time>
      </trkpt>
      <trkpt lat="49.03975" lon="7.79517">
        <ele>450.4</ele>
        <time>2022-05-01T08:05:23Z</time>
      </trkpt>
      <trkpt lat="49.03978" lon="7.79522">
        <ele>450.4</ele>
        <time>2022-05-01T08:05:24Z</time>
      </trkpt>
      <trkpt lat="49.03981" lon="7.79527">
        <ele>450.4</ele>
        <time>2022-05-01T08:05:25Z</time>
      </trkpt>
      <trkpt lat="49.03983" lon="7.79532">
        <ele>450.4</ele>
        <time>2022-05-01T08:05:26Z</time>
      </trkpt>
      <trkpt lat="49.0399" lon="7.79549">
        <ele>450.2</ele>
        <time>2022-05-01T08:05:29Z</time>
      </trkpt>
      <trkpt lat="49.03994" lon="7.79559">
        <ele>450.2</ele>
        <time>2022-05-01T08:05:31Z</time>
      </trkpt>
      <trkpt lat="49.03997" lon="7.79564">
        <ele>450.2</ele>
        <time>2022-05-01T08:05:32Z</time>
      </trkpt>
      <trkpt lat="49.04" lon="7.79571">
        <ele>450.2</ele>
        <time>2022-05-01T08:05:33Z</time>
      </trkpt>
      <trkpt lat="49.04002" lon="7.79577">
        <ele>450</ele>
        <time>2022-05-01T08:05:34Z</time>
      </trkpt>
      <trkpt lat="49.04005" lon="7.79582">
        <ele>450</ele>
        <time>2022-05-01T08:05:35Z</time>
      </trkpt>
      <trkpt lat="49.04007" lon="7.79588">
        <ele>450</ele>
        <time>2022-05-01T08:05:36Z</time>
      </trkpt>
      <trkpt lat="49.04024" lon="7.79612">
        <ele>450</ele>
        <time>2022-05-01T08:05:41Z</time>
      </trkpt>
      <trkpt lat="49.04033" lon="7.79621">
        <ele>450</ele>
        <time>2022-05-01T08:05:44Z</time>
      </trkpt>
      <trkpt lat="49.04037" lon="7.79624">
        <ele>450</ele>
        <time>2022-05-01T08:05:45Z</time>
      </trkpt>
      <trkpt lat="49.04041" lon="7.79626">
        <ele>449.8</ele>
        <time>2022-05-01T08:05:46Z</time>
      </trkpt>
      <trkpt lat="49.04049" lon="7.79631">
        <ele>449.8</ele>
        <time>2022-05-01T08:05:48Z</time>
      </trkpt>
      <trkpt lat="49.04057" lon="7.79635">
        <ele>449.8</ele>
        <time>2022-05-01T08:05:50Z</time>
      </trkpt>
      <trkpt lat="49.04061" lon="7.79637">
        <ele>449.6</ele>
        <time>2022-05-01T08:05:51Z</time>
      </trkpt>
      <trkpt lat="49.04064" lon="7.79639">
        <ele>449.6</ele>
        <time>2022-05-01T08:05:52Z</time>
      </trkpt>
      <trkpt lat="49.04068" lon="7.7964">
        <ele>449.6</ele>
        <time>2022-05-01T08:05:53Z</time>
      </trkpt>
      <trkpt lat="49.04072" lon="7.79642">
        <ele>449.6</ele>
        <time>2022-05-01T08:05:54Z</time>
      </trkpt>
      <trkpt lat="49.04092" lon="7.79655">
        <ele>449.6</ele>
        <time>2022-05-01T08:05:58Z</time>
      </trkpt>
      <trkpt lat="49.04107" lon="7.79664">
        <ele>449.4</ele>
        <time>2022-05-01T08:06:01Z</time>
      </trkpt>
      <trkpt lat="49.04111" lon="7.79666">
        <ele>449.4</ele>
        <time>2022-05-01T08:06:02Z</time>
      </trkpt>
      <trkpt lat="49.04116" lon="7.79668">
        <ele>449.2</ele>
        <time>2022-05-01T08:06:03Z</time>
      </trkpt>
      <trkpt lat="49.04121" lon="7.7967">
        <ele>449.2</ele>
        <time>2022-05-01T08:06:04Z</time>
      </trkpt>
      <trkpt lat="49.04125" lon="7.79672">
        <ele>449.2</ele>
        <time>2022-05-01T08:06:05Z</time>
      </trkpt>
      <trkpt lat="49.04129" lon="7.79674">
        <ele>449</ele>
        <time>2022-05-01T08:06:06Z</time>
      </trkpt>
      <trkpt lat="49.04134" lon="7.79676">
        <ele>449</ele>
        <time>2022-05-01T08:06:07Z</time>
      </trkpt>
      <trkpt lat="49.04139" lon="7.79676">
        <ele>449</ele>
        <time>2022-05-01T08:06:08Z</time>
      </trkpt>
      <trkpt lat="49.04143" lon="7.79677">
        <ele>448.8</ele>
        <time>2022-05-01T08:06:09Z</time>
      </trkpt>
      <trkpt lat="49.04163" lon="7.79679">
        <ele>448.8</ele>
        <time>2022-05-01T08:06:13Z</time>
      </trkpt>
      <trkpt lat="49.04172" lon="7.79678">
        <ele>448.8</ele>
        <time>2022-05-01T08:06:15Z</time>
      </trkpt>
      <trkpt lat="49.04178" lon="7.79677">
        <ele>448.6</ele>
        <time>2022-05-01T08:06:16Z</time>
      </trkpt>
      <trkpt lat="49.04183" lon="7.79677">
        <ele>448.6</ele>
        <time>2022-05-01T08:06:17Z</time>
      </trkpt>
      <trkpt lat="49.04188" lon="7.79676">
        <ele>448.6</ele>
        <time>2022-05-01T08:06:18Z</time>
      </trkpt>
      <trkpt lat="49.04196" lon="7.79675">
        <ele>448.4</ele>
        <time>2022-05-01T08:06:20Z</time>
      </trkpt>
      <trkpt lat="49.04209" lon="7.79673">
        <ele>448.4</ele>
        <time>2022-05-01T08:06:22Z</time>
      </trkpt>
      <trkpt lat="49.04215" lon="7.79672">
        <ele>448.4</ele>
        <time>2022-05-01T08:06:23Z</time>
      </trkpt>
      <trkpt lat="49.0423" lon="7.79672">
        <ele>448.2</ele>
        <time>2022-05-01T08:06:26Z</time>
      </trkpt>
      <trkpt lat="49.04241" lon="7.79672">
        <ele>448.2</ele>
        <time>2022-05-01T08:06:28Z</time>
      </trkpt>
      <trkpt lat="49.04246" lon="7.79672">
        <ele>448</ele>
        <time>2022-05-01T08:06:29Z</time>
      </trkpt>
      <trkpt lat="49.04253" lon="7.79674">
        <ele>448</ele>
        <time>2022-05-01T08:06:30Z</time>
      </trkpt>
      <trkpt lat="49.04265" lon="7.79673">
        <ele>447.8</ele>
        <time>2022-05-01T08:06:33Z</time>
      </trkpt>
      <trkpt lat="49.04271" lon="7.79672">
        <ele>447.6</ele>
        <time>2022-05-01T08:06:34Z</time>
      </trkpt>
      <trkpt lat="49.04276" lon="7.79671">
        <ele>447.6</ele>
        <time>2022-05-01T08:06:35Z</time>
      </trkpt>
      <trkpt lat="49.04295" lon="7.79669">
        <ele>447.2</ele>
        <time>2022-05-01T08:06:39Z</time>
      </trkpt>
      <trkpt lat="49.04309" lon="7.79667">
        <ele>447</ele>
        <time>2022-05-01T08:06:42Z</time>
      </trkpt>
      <trkpt lat="49.04314" lon="7.79667">
        <ele>446.8</ele>
        <time>2022-05-01T08:06:43Z</time>
      </trkpt>
      <trkpt lat="49.04334" lon="7.79663">
        <ele>446.6</ele>
        <time>2022-05-01T08:06:47Z</time>
      </trkpt>
      <trkpt lat="49.04339" lon="7.79662">
        <ele>446.4</ele>
        <time>2022-05-01T08:06:48Z</time>
      </trkpt>
      <trkpt lat="49.04365" lon="7.79658">
        <ele>446</ele>
        <time>2022-05-01T08:06:53Z</time>
      </trkpt>
      <trkpt lat="49.0437" lon="7.79658">
        <ele>445.8</ele>
        <time>2022-05-01T08:06:54Z</time>
      </trkpt>
      <trkpt lat="49.04374" lon="7.79657">
        <ele>445.8</ele>
        <time>2022-05-01T08:06:55Z</time>
      </trkpt>
      <trkpt lat="49.04384" lon="7.79656">
        <ele>445.6</ele>
        <time>2022-05-01T08:06:57Z</time>
      </trkpt>
      <trkpt lat="49.04388" lon="7.79656">
        <ele>445.6</ele>
        <time>2022-05-01T08:06:58Z</time>
      </trkpt>
      <trkpt lat="49.04395" lon="7.79656">
        <ele>445.4</ele>
        <time>2022-05-01T08:06:59Z</time>
      </trkpt>
      <trkpt lat="49.04406" lon="7.79657">
        <ele>445.4</ele>
        <time>2022-05-01T08:07:01Z</time>
      </trkpt>
      <trkpt lat="49.04415" lon="7.79657">
        <ele>445</ele>
        <time>2022-05-01T08:07:03Z</time>
      </trkpt>
      <trkpt lat="49.04419" lon="7.79656">
        <ele>445</ele>
        <time>2022-05-01T08:07:04Z</time>
      </trkpt>
      <trkpt lat="49.04425" lon="7.79656">
        <ele>444.8</ele>
        <time>2022-05-01T08:07:05Z</time>
      </trkpt>
      <trkpt lat="49.04442" lon="7.79656">
        <ele>444.6</ele>
        <time>2022-05-01T08:07:08Z</time>
      </trkpt>
      <trkpt lat="49.04452" lon="7.79653">
        <ele>444.6</ele>
        <time>2022-05-01T08:07:10Z</time>
      </trkpt>
      <trkpt lat="49.04456" lon="7.79651">
        <ele>444.4</ele>
        <time>2022-05-01T08:07:11Z</time>
      </trkpt>
      <trkpt lat="49.0446" lon="7.79649">
        <ele>444.2</ele>
        <time>2022-05-01T08:07:12Z</time>
      </trkpt>
      <trkpt lat="49.04464" lon="7.79646">
        <ele>444.2</ele>
        <time>2022-05-01T08:07:13Z</time>
      </trkpt>
      <trkpt lat="49.04476" lon="7.79636">
        <ele>444</ele>
        <time>2022-05-01T08:07:15Z</time>
      </trkpt>
      <trkpt lat="49.04486" lon="7.7963">
        <ele>443.8</ele>
        <time>2022-05-01T08:07:17Z</time>
      </trkpt>
      <trkpt lat="49.0449" lon="7.79626">
        <ele>443.6</ele>
        <time>2022-05-01T08:07:18Z</time>
      </trkpt>
      <trkpt lat="49.04495" lon="7.79622">
        <ele>443.6</ele>
        <time>2022-05-01T08:07:19Z</time>
      </trkpt>
      <trkpt lat="49.04502" lon="7.79617">
        <ele>443.6</ele>
        <time>2022-05-01T08:07:20Z</time>
      </trkpt>
      <trkpt lat="49.04515" lon="7.79595">
        <ele>443.4</ele>
        <time>2022-05-01T08:07:24Z</time>
      </trkpt>
      <trkpt lat="49.04518" lon="7.7959">
        <ele>443.6</ele>
        <time>2022-05-01T08:07:25Z</time>
      </trkpt>
      <trkpt lat="49.04519" lon="7.79585">
        <ele>443.6</ele>
        <time>2022-05-01T08:07:26Z</time>
      </trkpt>
      <trkpt lat="49.0452" lon="7.79581">
        <ele>443.6</ele>
        <time>2022-05-01T08:07:27Z</time>
      </trkpt>
      <trkpt lat="49.04522" lon="7.79578">
        <ele>443.6</ele>
        <time>2022-05-01T08:07:28Z</time>
      </trkpt>
      <trkpt lat="49.04524" lon="7.79575">
        <ele>443.6</ele>
        <time>2022-05-01T08:07:29Z</time>
      </trkpt>
      <trkpt lat="49.04526" lon="7.79573">
        <ele>443.6</ele>
        <time>2022-05-01T08:07:30Z</time>
      </trkpt>
      <trkpt lat="49.04527" lon="7.79573">
        <ele>443.6</ele>
        <time>2022-05-01T08:07:31Z</time>
      </trkpt>
      <trkpt lat="49.04528" lon="7.79572">
        <ele>443.8</ele>
        <time>2022-05-01T08:07:32Z</time>
      </trkpt>
      <trkpt lat="49.04528" lon="7.79571">
        <ele>444</ele>
        <time>2022-05-01T08:07:33Z</time>
      </trkpt>
      <trkpt lat="49.0453" lon="7.7957">
        <ele>444</ele>
        <time>2022-05-01T08:07:34Z</time>
      </trkpt>
      <trkpt lat="49.04532" lon="7.79567">
        <ele>444.2</ele>
        <time>2022-05-01T08:07:35Z</time>
      </trkpt>
      <trkpt lat="49.04533" lon="7.79565">
        <ele>444.4</ele>
        <time>2022-05-01T08:07:36Z</time>
      </trkpt>
      <trkpt lat="49.04534" lon="7.79564">
        <ele>444.6</ele>
        <time>2022-05-01T08:07:37Z</time>
      </trkpt>
      <trkpt lat="49.04535" lon="7.79562">
        <ele>444.8</ele>
        <time>2022-05-01T08:07:38Z</time>
      </trkpt>
      <trkpt lat="49.04535" lon="7.79562">
        <ele>445</ele>
        <time>2022-05-01T08:07:39Z</time>
      </trkpt>
      <trkpt lat="49.04535" lon="7.79562">
        <ele>445.4</ele>
        <time>2022-05-01T08:07:41Z</time>
      </trkpt>
      <trkpt lat="49.04535" lon="7.79562">
        <ele>445.4</ele>
        <time>2022-05-01T08:07:42Z</time>
      </trkpt>
      <trkpt lat="49.04534" lon="7.79557">
        <ele>445.8</ele>
        <time>2022-05-01T08:08:12Z</time>
      </trkpt>
      <trkpt lat="49.04535" lon="7.79554">
        <ele>445.8</ele>
        <time>2022-05-01T08:08:13Z</time>
      </trkpt>
      <trkpt lat="49.04541" lon="7.79547">
        <ele>445.8</ele>
        <time>2022-05-01T08:08:16Z</time>
      </trkpt>
      <trkpt lat="49.04543" lon="7.79544">
        <ele>445.8</ele>
        <time>2022-05-01T08:08:17Z</time>
      </trkpt>
      <trkpt lat="49.04546" lon="7.7954">
        <ele>445.8</ele>
        <time>2022-05-01T08:08:18Z</time>
      </trkpt>
      <trkpt lat="49.04553" lon="7.79534">
        <ele>445.8</ele>
        <time>2022-05-01T08:08:20Z</time>
      </trkpt>
      <trkpt lat="49.04562" lon="7.7953">
        <ele>445.8</ele>
        <time>2022-05-01T08:08:22Z</time>
      </trkpt>
      <trkpt lat="49.04566" lon="7.7953">
        <ele>445.8</ele>
        <time>2022-05-01T08:08:23Z</time>
      </trkpt>
      <trkpt lat="49.04571" lon="7.79531">
        <ele>445.6</ele>
        <time>2022-05-01T08:08:24Z</time>
      </trkpt>
      <trkpt lat="49.04576" lon="7.79533">
        <ele>445.6</ele>
        <time>2022-05-01T08:08:25Z</time>
      </trkpt>
      <trkpt lat="49.0458" lon="7.79535">
        <ele>445.4</ele>
        <time>2022-05-01T08:08:26Z</time>
      </trkpt>
      <trkpt lat="49.04585" lon="7.79537">
        <ele>445.2</ele>
        <time>2022-05-01T08:08:27Z</time>
      </trkpt>
      <trkpt lat="49.04588" lon="7.79539">
        <ele>445</ele>
        <time>2022-05-01T08:08:28Z</time>
      </trkpt>
      <trkpt lat="49.04592" lon="7.79541">
        <ele>444.8</ele>
        <time>2022-05-01T08:08:29Z</time>
      </trkpt>
      <trkpt lat="49.04601" lon="7.79546">
        <ele>444.4</ele>
        <time>2022-05-01T08:08:31Z</time>
      </trkpt>
      <trkpt lat="49.04613" lon="7.79553">
        <ele>443.8</ele>
        <time>2022-05-01T08:08:34Z</time>
      </trkpt>
      <trkpt lat="49.04621" lon="7.79558">
        <ele>443.4</ele>
        <time>2022-05-01T08:08:36Z</time>
      </trkpt>
      <trkpt lat="49.04625" lon="7.79561">
        <ele>443.4</ele>
        <time>2022-05-01T08:08:37Z</time>
      </trkpt>
      <trkpt lat="49.04632" lon="7.79568">
        <ele>443.2</ele>
        <time>2022-05-01T08:08:39Z</time>
      </trkpt>
      <trkpt lat="49.04636" lon="7.79571">
        <ele>443.2</ele>
        <time>2022-05-01T08:08:40Z</time>
      </trkpt>
      <trkpt lat="49.04639" lon="7.79573">
        <ele>443.2</ele>
        <time>2022-05-01T08:08:41Z</time>
      </trkpt>
      <trkpt lat="49.04643" lon="7.79576">
        <ele>443.2</ele>
        <time>2022-05-01T08:08:42Z</time>
      </trkpt>
      <trkpt lat="49.04647" lon="7.7958">
        <ele>443.2</ele>
        <time>2022-05-01T08:08:43Z</time>
      </trkpt>
      <trkpt lat="49.04681" lon="7.79606">
        <ele>443.2</ele>
        <time>2022-05-01T08:08:51Z</time>
      </trkpt>
      <trkpt lat="49.04684" lon="7.79607">
        <ele>443.2</ele>
        <time>2022-05-01T08:08:52Z</time>
      </trkpt>
      <trkpt lat="49.04687" lon="7.79609">
        <ele>443.2</ele>
        <time>2022-05-01T08:08:53Z</time>
      </trkpt>
      <trkpt lat="49.04695" lon="7.79614">
        <ele>443.2</ele>
        <time>2022-05-01T08:08:55Z</time>
      </trkpt>
      <trkpt lat="49.04699" lon="7.79616">
        <ele>443</ele>
        <time>2022-05-01T08:08:56Z</time>
      </trkpt>
      <trkpt lat="49.04703" lon="7.79619">
        <ele>443</ele>
        <time>2022-05-01T08:08:57Z</time>
      </trkpt>
      <trkpt lat="49.04708" lon="7.79622">
        <ele>443</ele>
        <time>2022-05-01T08:08:58Z</time>
      </trkpt>
      <trkpt lat="49.04713" lon="7.79625">
        <ele>443</ele>
        <time>2022-05-01T08:08:59Z</time>
      </trkpt>
      <trkpt lat="49.04718" lon="7.79628">
        <ele>443</ele>
        <time>2022-05-01T08:09:00Z</time>
      </trkpt>
      <trkpt lat="49.04728" lon="7.79634">
        <ele>442.8</ele>
        <time>2022-05-01T08:09:02Z</time>
      </trkpt>
      <trkpt lat="49.04742" lon="7.79639">
        <ele>442.8</ele>
        <time>2022-05-01T08:09:05Z</time>
      </trkpt>
      <trkpt lat="49.04747" lon="7.79641">
        <ele>442.8</ele>
        <time>2022-05-01T08:09:06Z</time>
      </trkpt>
      <trkpt lat="49.04757" lon="7.79645">
        <ele>442.6</ele>
        <time>2022-05-01T08:09:08Z</time>
      </trkpt>
      <trkpt lat="49.04762" lon="7.79646">
        <ele>442.6</ele>
        <time>2022-05-01T08:09:09Z</time>
      </trkpt>
      <trkpt lat="49.04786" lon="7.79654">
        <ele>442.4</ele>
        <time>2022-05-01T08:09:13Z</time>
      </trkpt>
      <trkpt lat="49.0479" lon="7.79655">
        <ele>442.2</ele>
        <time>2022-05-01T08:09:14Z</time>
      </trkpt>
      <trkpt lat="49.04794" lon="7.79656">
        <ele>442</ele>
        <time>2022-05-01T08:09:15Z</time>
      </trkpt>
      <trkpt lat="49.048" lon="7.79658">
        <ele>441.8</ele>
        <time>2022-05-01T08:09:16Z</time>
      </trkpt>
      <trkpt lat="49.04805" lon="7.79662">
        <ele>441.6</ele>
        <time>2022-05-01T08:09:17Z</time>
      </trkpt>
      <trkpt lat="49.0481" lon="7.79665">
        <ele>441.6</ele>
        <time>2022-05-01T08:09:18Z</time>
      </trkpt>
      <trkpt lat="49.04814" lon="7.79668">
        <ele>441.4</ele>
        <time>2022-05-01T08:09:19Z</time>
      </trkpt>
      <trkpt lat="49.04824" lon="7.79676">
        <ele>441.2</ele>
        <time>2022-05-01T08:09:21Z</time>
      </trkpt>
      <trkpt lat="49.04858" lon="7.79697">
        <ele>440.6</ele>
        <time>2022-05-01T08:09:27Z</time>
      </trkpt>
      <trkpt lat="49.04866" lon="7.79705">
        <ele>440.4</ele>
        <time>2022-05-01T08:09:29Z</time>
      </trkpt>
      <trkpt lat="49.04871" lon="7.79709">
        <ele>440.2</ele>
        <time>2022-05-01T08:09:30Z</time>
      </trkpt>
      <trkpt lat="49.04875" lon="7.79712">
        <ele>440</ele>
        <time>2022-05-01T08:09:31Z</time>
      </trkpt>
      <trkpt lat="49.04888" lon="7.79723">
        <ele>439.8</ele>
        <time>2022-05-01T08:09:34Z</time>
      </trkpt>
      <trkpt lat="49.04893" lon="7.79726">
        <ele>439.6</ele>
        <time>2022-05-01T08:09:35Z</time>
      </trkpt>
      <trkpt lat="49.04898" lon="7.79728">
        <ele>439.4</ele>
        <time>2022-05-01T08:09:36Z</time>
      </trkpt>
      <trkpt lat="49.04904" lon="7.7973">
        <ele>439.4</ele>
        <time>2022-05-01T08:09:37Z</time>
      </trkpt>
      <trkpt lat="49.04909" lon="7.7973">
        <ele>439.2</ele>
        <time>2022-05-01T08:09:38Z</time>
      </trkpt>
      <trkpt lat="49.04914" lon="7.79728">
        <ele>439</ele>
        <time>2022-05-01T08:09:39Z</time>
      </trkpt>
      <trkpt lat="49.04919" lon="7.79725">
        <ele>438.8</ele>
        <time>2022-05-01T08:09:40Z</time>
      </trkpt>
      <trkpt lat="49.04924" lon="7.79722">
        <ele>438.6</ele>
        <time>2022-05-01T08:09:41Z</time>
      </trkpt>
      <trkpt lat="49.0493" lon="7.79718">
        <ele>438.4</ele>
        <time>2022-05-01T08:09:42Z</time>
      </trkpt>
      <trkpt lat="49.04936" lon="7.79714">
        <ele>438</ele>
        <time>2022-05-01T08:09:43Z</time>
      </trkpt>
      <trkpt lat="49.04942" lon="7.79709">
        <ele>437.2</ele>
        <time>2022-05-01T08:09:44Z</time>
      </trkpt>
      <trkpt lat="49.04947" lon="7.79704">
        <ele>436.8</ele>
        <time>2022-05-01T08:09:45Z</time>
      </trkpt>
      <trkpt lat="49.04959" lon="7.79693">
        <ele>436</ele>
        <time>2022-05-01T08:09:47Z</time>
      </trkpt>
      <trkpt lat="49.04966" lon="7.79689">
        <ele>435.8</ele>
        <time>2022-05-01T08:09:48Z</time>
      </trkpt>
      <trkpt lat="49.0498" lon="7.79686">
        <ele>435</ele>
        <time>2022-05-01T08:09:50Z</time>
      </trkpt>
      <trkpt lat="49.0499" lon="7.79688">
        <ele>434.6</ele>
        <time>2022-05-01T08:09:51Z</time>
      </trkpt>
      <trkpt lat="49.04998" lon="7.79689">
        <ele>434.2</ele>
        <time>2022-05-01T08:09:52Z</time>
      </trkpt>
      <trkpt lat="49.05006" lon="7.79688">
        <ele>433.6</ele>
        <time>2022-05-01T08:09:53Z</time>
      </trkpt>
      <trkpt lat="49.05012" lon="7.79684">
        <ele>433</ele>
        <time>2022-05-01T08:09:54Z</time>
      </trkpt>
      <trkpt lat="49.0502" lon="7.79675">
        <ele>432.4</ele>
        <time>2022-05-01T08:09:55Z</time>
      </trkpt>
      <trkpt lat="49.05027" lon="7.79664">
        <ele>431.6</ele>
        <time>2022-05-01T08:09:56Z</time>
      </trkpt>
      <trkpt lat="49.05032" lon="7.79653">
        <ele>430.4</ele>
        <time>2022-05-01T08:09:57Z</time>
      </trkpt>
      <trkpt lat="49.05038" lon="7.79641">
        <ele>429.6</ele>
        <time>2022-05-01T08:09:58Z</time>
      </trkpt>
      <trkpt lat="49.05043" lon="7.7963">
        <ele>429.6</ele>
        <time>2022-05-01T08:09:59Z</time>
      </trkpt>
      <trkpt lat="49.0505" lon="7.7962">
        <ele>429.2</ele>
        <time>2022-05-01T08:10:00Z</time>
      </trkpt>
      <trkpt lat="49.05057" lon="7.79611">
        <ele>428.4</ele>
        <time>2022-05-01T08:10:01Z</time>
      </trkpt>
      <trkpt lat="49.05065" lon="7.79605">
        <ele>427.2</ele>
        <time>2022-05-01T08:10:02Z</time>
      </trkpt>
      <trkpt lat="49.05074" lon="7.79601">
        <ele>426.2</ele>
        <time>2022-05-01T08:10:03Z</time>
      </trkpt>
      <trkpt lat="49.05082" lon="7.79597">
        <ele>425.2</ele>
        <time>2022-05-01T08:10:04Z</time>
      </trkpt>
      <trkpt lat="49.0509" lon="7.79593">
        <ele>424.4</ele>
        <time>2022-05-01T08:10:05Z</time>
      </trkpt>
      <trkpt lat="49.05096" lon="7.79591">
        <ele>423.4</ele>
        <time>2022-05-01T08:10:06Z</time>
      </trkpt>
      <trkpt lat="49.0511" lon="7.79594">
        <ele>421.6</ele>
        <time>2022-05-01T08:10:08Z</time>
      </trkpt>
      <trkpt lat="49.0512" lon="7.79598">
        <ele>421</ele>
        <time>2022-05-01T08:10:09Z</time>
      </trkpt>
      <trkpt lat="49.05132" lon="7.79602">
        <ele>420.2</ele>
        <time>2022-05-01T08:10:10Z</time>
      </trkpt>
      <trkpt lat="49.05141" lon="7.79606">
        <ele>419.2</ele>
        <time>2022-05-01T08:10:11Z</time>
      </trkpt>
      <trkpt lat="49.0515" lon="7.79611">
        <ele>418.2</ele>
        <time>2022-05-01T08:10:12Z</time>
      </trkpt>
      <trkpt lat="49.05157" lon="7.79615">
        <ele>417.6</ele>
        <time>2022-05-01T08:10:13Z</time>
      </trkpt>
      <trkpt lat="49.05169" lon="7.79622">
        <ele>416.4</ele>
        <time>2022-05-01T08:10:14Z</time>
      </trkpt>
      <trkpt lat="49.05178" lon="7.79628">
        <ele>415</ele>
        <time>2022-05-01T08:10:15Z</time>
      </trkpt>
      <trkpt lat="49.05195" lon="7.79642">
        <ele>413.2</ele>
        <time>2022-05-01T08:10:17Z</time>
      </trkpt>
      <trkpt lat="49.05203" lon="7.7965">
        <ele>412.4</ele>
        <time>2022-05-01T08:10:18Z</time>
      </trkpt>
      <trkpt lat="49.05209" lon="7.79658">
        <ele>411.4</ele>
        <time>2022-05-01T08:10:19Z</time>
      </trkpt>
      <trkpt lat="49.05217" lon="7.79668">
        <ele>410.6</ele>
        <time>2022-05-01T08:10:20Z</time>
      </trkpt>
      <trkpt lat="49.05222" lon="7.79676">
        <ele>409.4</ele>
        <time>2022-05-01T08:10:21Z</time>
      </trkpt>
      <trkpt lat="49.05235" lon="7.79699">
        <ele>407.6</ele>
        <time>2022-05-01T08:10:23Z</time>
      </trkpt>
      <trkpt lat="49.05244" lon="7.79722">
        <ele>406.4</ele>
        <time>2022-05-01T08:10:25Z</time>
      </trkpt>
      <trkpt lat="49.05247" lon="7.79732">
        <ele>405.8</ele>
        <time>2022-05-01T08:10:26Z</time>
      </trkpt>
      <trkpt lat="49.0525" lon="7.79746">
        <ele>405.2</ele>
        <time>2022-05-01T08:10:27Z</time>
      </trkpt>
      <trkpt lat="49.05253" lon="7.79759">
        <ele>404.8</ele>
        <time>2022-05-01T08:10:28Z</time>
      </trkpt>
      <trkpt lat="49.05254" lon="7.79773">
        <ele>404.2</ele>
        <time>2022-05-01T08:10:29Z</time>
      </trkpt>
      <trkpt lat="49.05254" lon="7.79784">
        <ele>403.4</ele>
        <time>2022-05-01T08:10:30Z</time>
      </trkpt>
      <trkpt lat="49.05255" lon="7.79801">
        <ele>402.8</ele>
        <time>2022-05-01T08:10:31Z</time>
      </trkpt>
      <trkpt lat="49.05254" lon="7.79812">
        <ele>402</ele>
        <time>2022-05-01T08:10:32Z</time>
      </trkpt>
      <trkpt lat="49.05253" lon="7.79826">
        <ele>401</ele>
        <time>2022-05-01T08:10:33Z</time>
      </trkpt>
      <trkpt lat="49.05252" lon="7.79843">
        <ele>400.4</ele>
        <time>2022-05-01T08:10:34Z</time>
      </trkpt>
      <trkpt lat="49.05246" lon="7.7987">
        <ele>398.6</ele>
        <time>2022-05-01T08:10:36Z</time>
      </trkpt>
      <trkpt lat="49.05242" lon="7.79884">
        <ele>397.8</ele>
        <time>2022-05-01T08:10:37Z</time>
      </trkpt>
      <trkpt lat="49.05238" lon="7.79897">
        <ele>397</ele>
        <time>2022-05-01T08:10:38Z</time>
      </trkpt>
      <trkpt lat="49.05231" lon="7.79923">
        <ele>395.8</ele>
        <time>2022-05-01T08:10:40Z</time>
      </trkpt>
      <trkpt lat="49.05222" lon="7.79949">
        <ele>394.4</ele>
        <time>2022-05-01T08:10:42Z</time>
      </trkpt>
      <trkpt lat="49.05214" lon="7.79963">
        <ele>393.4</ele>
        <time>2022-05-01T08:10:43Z</time>
      </trkpt>
      <trkpt lat="49.05209" lon="7.79974">
        <ele>392.8</ele>
        <time>2022-05-01T08:10:44Z</time>
      </trkpt>
      <trkpt lat="49.05201" lon="7.79987">
        <ele>392</ele>
        <time>2022-05-01T08:10:45Z</time>
      </trkpt>
      <trkpt lat="49.05195" lon="7.79996">
        <ele>391.2</ele>
        <time>2022-05-01T08:10:46Z</time>
      </trkpt>
      <trkpt lat="49.05187" lon="7.80005">
        <ele>390.4</ele>
        <time>2022-05-01T08:10:47Z</time>
      </trkpt>
      <trkpt lat="49.05178" lon="7.80011">
        <ele>389.8</ele>
        <time>2022-05-01T08:10:48Z</time>
      </trkpt>
      <trkpt lat="49.05167" lon="7.80015">
        <ele>389.8</ele>
        <time>2022-05-01T08:10:49Z</time>
      </trkpt>
      <trkpt lat="49.05157" lon="7.80016">
        <ele>388.8</ele>
        <time>2022-05-01T08:10:50Z</time>
      </trkpt>
      <trkpt lat="49.05148" lon="7.80018">
        <ele>388.2</ele>
        <time>2022-05-01T08:10:51Z</time>
      </trkpt>
      <trkpt lat="49.05139" lon="7.80018">
        <ele>387.4</ele>
        <time>2022-05-01T08:10:52Z</time>
      </trkpt>
      <trkpt lat="49.05126" lon="7.80019">
        <ele>386.8</ele>
        <time>2022-05-01T08:10:53Z</time>
      </trkpt>
      <trkpt lat="49.05118" lon="7.8002">
        <ele>385.6</ele>
        <time>2022-05-01T08:10:54Z</time>
      </trkpt>
      <trkpt lat="49.05097" lon="7.80025">
        <ele>384</ele>
        <time>2022-05-01T08:10:56Z</time>
      </trkpt>
      <trkpt lat="49.0509" lon="7.8003">
        <ele>383.2</ele>
        <time>2022-05-01T08:10:57Z</time>
      </trkpt>
      <trkpt lat="49.05082" lon="7.80038">
        <ele>382.4</ele>
        <time>2022-05-01T08:10:58Z</time>
      </trkpt>
      <trkpt lat="49.05078" lon="7.80047">
        <ele>381.8</ele>
        <time>2022-05-01T08:10:59Z</time>
      </trkpt>
      <trkpt lat="49.05077" lon="7.80058">
        <ele>381</ele>
        <time>2022-05-01T08:11:00Z</time>
      </trkpt>
      <trkpt lat="49.05077" lon="7.80071">
        <ele>380.2</ele>
        <time>2022-05-01T08:11:01Z</time>
      </trkpt>
      <trkpt lat="49.0508" lon="7.80081">
        <ele>379.6</ele>
        <time>2022-05-01T08:11:02Z</time>
      </trkpt>
      <trkpt lat="49.05087" lon="7.80097">
        <ele>379</ele>
        <time>2022-05-01T08:11:03Z</time>
      </trkpt>
      <trkpt lat="49.0509" lon="7.80109">
        <ele>378.8</ele>
        <time>2022-05-01T08:11:04Z</time>
      </trkpt>
      <trkpt lat="49.05093" lon="7.80121">
        <ele>378.2</ele>
        <time>2022-05-01T08:11:05Z</time>
      </trkpt>
      <trkpt lat="49.05096" lon="7.80146">
        <ele>377.6</ele>
        <time>2022-05-01T08:11:07Z</time>
      </trkpt>
      <trkpt lat="49.05098" lon="7.80158">
        <ele>377.6</ele>
        <time>2022-05-01T08:11:08Z</time>
      </trkpt>
      <trkpt lat="49.05097" lon="7.80172">
        <ele>377.4</ele>
        <time>2022-05-01T08:11:09Z</time>
      </trkpt>
      <trkpt lat="49.05097" lon="7.80185">
        <ele>377</ele>
        <time>2022-05-01T08:11:10Z</time>
      </trkpt>
      <trkpt lat="49.05097" lon="7.80195">
        <ele>376.8</ele>
        <time>2022-05-01T08:11:11Z</time>
      </trkpt>
      <trkpt lat="49.05096" lon="7.80236">
        <ele>376</ele>
        <time>2022-05-01T08:11:14Z</time>
      </trkpt>
      <trkpt lat="49.05096" lon="7.80246">
        <ele>375.6</ele>
        <time>2022-05-01T08:11:15Z</time>
      </trkpt>
      <trkpt lat="49.05095" lon="7.80262">
        <ele>375.2</ele>
        <time>2022-05-01T08:11:16Z</time>
      </trkpt>
      <trkpt lat="49.05094" lon="7.80275">
        <ele>374.8</ele>
        <time>2022-05-01T08:11:17Z</time>
      </trkpt>
      <trkpt lat="49.0509" lon="7.80311">
        <ele>374.2</ele>
        <time>2022-05-01T08:11:20Z</time>
      </trkpt>
      <trkpt lat="49.05088" lon="7.80348">
        <ele>373.8</ele>
        <time>2022-05-01T08:11:23Z</time>
      </trkpt>
      <trkpt lat="49.05087" lon="7.80355">
        <ele>373.6</ele>
        <time>2022-05-01T08:11:24Z</time>
      </trkpt>
      <trkpt lat="49.05085" lon="7.80365">
        <ele>373.2</ele>
        <time>2022-05-01T08:11:25Z</time>
      </trkpt>
      <trkpt lat="49.05081" lon="7.80376">
        <ele>373</ele>
        <time>2022-05-01T08:11:26Z</time>
      </trkpt>
      <trkpt lat="49.05078" lon="7.80384">
        <ele>372.8</ele>
        <time>2022-05-01T08:11:27Z</time>
      </trkpt>
      <trkpt lat="49.05075" lon="7.80392">
        <ele>372.4</ele>
        <time>2022-05-01T08:11:28Z</time>
      </trkpt>
      <trkpt lat="49.05072" lon="7.80398">
        <ele>372.2</ele>
        <time>2022-05-01T08:11:29Z</time>
      </trkpt>
      <trkpt lat="49.05067" lon="7.80407">
        <ele>372</ele>
        <time>2022-05-01T08:11:30Z</time>
      </trkpt>
      <trkpt lat="49.05063" lon="7.80414">
        <ele>371.6</ele>
        <time>2022-05-01T08:11:31Z</time>
      </trkpt>
      <trkpt lat="49.05059" lon="7.80421">
        <ele>371.2</ele>
        <time>2022-05-01T08:11:32Z</time>
      </trkpt>
      <trkpt lat="49.05056" lon="7.8043">
        <ele>371</ele>
        <time>2022-05-01T08:11:33Z</time>
      </trkpt>
      <trkpt lat="49.05053" lon="7.80437">
        <ele>370.8</ele>
        <time>2022-05-01T08:11:34Z</time>
      </trkpt>
      <trkpt lat="49.05051" lon="7.80447">
        <ele>370.6</ele>
        <time>2022-05-01T08:11:35Z</time>
      </trkpt>
      <trkpt lat="49.05049" lon="7.80466">
        <ele>369.8</ele>
        <time>2022-05-01T08:11:37Z</time>
      </trkpt>
      <trkpt lat="49.0505" lon="7.80476">
        <ele>369.6</ele>
        <time>2022-05-01T08:11:38Z</time>
      </trkpt>
      <trkpt lat="49.05051" lon="7.80486">
        <ele>369.4</ele>
        <time>2022-05-01T08:11:39Z</time>
      </trkpt>
      <trkpt lat="49.05051" lon="7.80496">
        <ele>369.4</ele>
        <time>2022-05-01T08:11:40Z</time>
      </trkpt>
      <trkpt lat="49.05051" lon="7.80507">
        <ele>369.2</ele>
        <time>2022-05-01T08:11:41Z</time>
      </trkpt>
      <trkpt lat="49.05049" lon="7.80524">
        <ele>369</ele>
        <time>2022-05-01T08:11:43Z</time>
      </trkpt>
      <trkpt lat="49.05044" lon="7.80531">
        <ele>368.8</ele>
        <time>2022-05-01T08:11:44Z</time>
      </trkpt>
      <trkpt lat="49.0504" lon="7.80534">
        <ele>368.4</ele>
        <time>2022-05-01T08:11:45Z</time>
      </trkpt>
      <trkpt lat="49.05034" lon="7.80535">
        <ele>368</ele>
        <time>2022-05-01T08:11:46Z</time>
      </trkpt>
      <trkpt lat="49.05029" lon="7.80534">
        <ele>367.4</ele>
        <time>2022-05-01T08:11:47Z</time>
      </trkpt>
      <trkpt lat="49.05023" lon="7.80531">
        <ele>367</ele>
        <time>2022-05-01T08:11:48Z</time>
      </trkpt>
      <trkpt lat="49.05018" lon="7.8053">
        <ele>366.2</ele>
        <time>2022-05-01T08:11:49Z</time>
      </trkpt>
      <trkpt lat="49.05014" lon="7.8053">
        <ele>365.4</ele>
        <time>2022-05-01T08:11:50Z</time>
      </trkpt>
      <trkpt lat="49.05012" lon="7.80533">
        <ele>365</ele>
        <time>2022-05-01T08:11:51Z</time>
      </trkpt>
      <trkpt lat="49.05009" lon="7.80541">
        <ele>364.8</ele>
        <time>2022-05-01T08:11:52Z</time>
      </trkpt>
      <trkpt lat="49.05008" lon="7.80549">
        <ele>364</ele>
        <time>2022-05-01T08:11:53Z</time>
      </trkpt>
      <trkpt lat="49.05008" lon="7.80557">
        <ele>363.6</ele>
        <time>2022-05-01T08:11:54Z</time>
      </trkpt>
      <trkpt lat="49.05009" lon="7.80567">
        <ele>362.6</ele>
        <time>2022-05-01T08:11:55Z</time>
      </trkpt>
      <trkpt lat="49.05009" lon="7.80574">
        <ele>361.8</ele>
        <time>2022-05-01T08:11:56Z</time>
      </trkpt>
      <trkpt lat="49.0501" lon="7.80586">
        <ele>361</ele>
        <time>2022-05-01T08:11:57Z</time>
      </trkpt>
      <trkpt lat="49.05011" lon="7.80597">
        <ele>360.8</ele>
        <time>2022-05-01T08:11:58Z</time>
      </trkpt>
      <trkpt lat="49.05013" lon="7.80609">
        <ele>360.4</ele>
        <time>2022-05-01T08:11:59Z</time>
      </trkpt>
      <trkpt lat="49.05014" lon="7.80619">
        <ele>359.4</ele>
        <time>2022-05-01T08:12:00Z</time>
      </trkpt>
      <trkpt lat="49.05015" lon="7.80635">
        <ele>358.2</ele>
        <time>2022-05-01T08:12:01Z</time>
      </trkpt>
      <trkpt lat="49.0502" lon="7.80663">
        <ele>356.6</ele>
        <time>2022-05-01T08:12:03Z</time>
      </trkpt>
      <trkpt lat="49.05023" lon="7.80677">
        <ele>356</ele>
        <time>2022-05-01T08:12:04Z</time>
      </trkpt>
      <trkpt lat="49.05025" lon="7.80689">
        <ele>355.4</ele>
        <time>2022-05-01T08:12:05Z</time>
      </trkpt>
      <trkpt lat="49.05032" lon="7.80722">
        <ele>353.6</ele>
        <time>2022-05-01T08:12:07Z</time>
      </trkpt>
      <trkpt lat="49.05036" lon="7.80737">
        <ele>352.4</ele>
        <time>2022-05-01T08:12:08Z</time>
      </trkpt>
      <trkpt lat="49.05039" lon="7.8075">
        <ele>351.4</ele>
        <time>2022-05-01T08:12:09Z</time>
      </trkpt>
      <trkpt lat="49.0504" lon="7.80769">
        <ele>350.6</ele>
        <time>2022-05-01T08:12:10Z</time>
      </trkpt>
      <trkpt lat="49.05039" lon="7.80785">
        <ele>349.6</ele>
        <time>2022-05-01T08:12:11Z</time>
      </trkpt>
      <trkpt lat="49.05038" lon="7.80802">
        <ele>348.6</ele>
        <time>2022-05-01T08:12:12Z</time>
      </trkpt>
      <trkpt lat="49.05036" lon="7.80818">
        <ele>347.6</ele>
        <time>2022-05-01T08:12:13Z</time>
      </trkpt>
      <trkpt lat="49.05034" lon="7.80831">
        <ele>346.8</ele>
        <time>2022-05-01T08:12:14Z</time>
      </trkpt>
      <trkpt lat="49.05028" lon="7.80847">
        <ele>345.8</ele>
        <time>2022-05-01T08:12:15Z</time>
      </trkpt>
      <trkpt lat="49.05021" lon="7.80858">
        <ele>345</ele>
        <time>2022-05-01T08:12:16Z</time>
      </trkpt>
      <trkpt lat="49.05014" lon="7.80868">
        <ele>343.6</ele>
        <time>2022-05-01T08:12:17Z</time>
      </trkpt>
      <trkpt lat="49.05007" lon="7.80876">
        <ele>342.6</ele>
        <time>2022-05-01T08:12:18Z</time>
      </trkpt>
      <trkpt lat="49.04998" lon="7.80884">
        <ele>341.6</ele>
        <time>2022-05-01T08:12:19Z</time>
      </trkpt>
      <trkpt lat="49.04987" lon="7.80893">
        <ele>341</ele>
        <time>2022-05-01T08:12:20Z</time>
      </trkpt>
      <trkpt lat="49.04978" lon="7.80901">
        <ele>339.8</ele>
        <time>2022-05-01T08:12:21Z</time>
      </trkpt>
      <trkpt lat="49.04966" lon="7.80919">
        <ele>338</ele>
        <time>2022-05-01T08:12:23Z</time>
      </trkpt>
      <trkpt lat="49.04961" lon="7.80935">
        <ele>337</ele>
        <time>2022-05-01T08:12:24Z</time>
      </trkpt>
      <trkpt lat="49.0496" lon="7.80949">
        <ele>335.8</ele>
        <time>2022-05-01T08:12:25Z</time>
      </trkpt>
      <trkpt lat="49.0496" lon="7.80964">
        <ele>334.8</ele>
        <time>2022-05-01T08:12:26Z</time>
      </trkpt>
      <trkpt lat="49.04959" lon="7.80978">
        <ele>333.4</ele>
        <time>2022-05-01T08:12:27Z</time>
      </trkpt>
      <trkpt lat="49.04959" lon="7.8099">
        <ele>332.2</ele>
        <time>2022-05-01T08:12:28Z</time>
      </trkpt>
      <trkpt lat="49.04956" lon="7.81009">
        <ele>331.2</ele>
        <time>2022-05-01T08:12:29Z</time>
      </trkpt>
      <trkpt lat="49.04955" lon="7.81025">
        <ele>330.6</ele>
        <time>2022-05-01T08:12:30Z</time>
      </trkpt>
      <trkpt lat="49.04949" lon="7.81054">
        <ele>329.4</ele>
        <time>2022-05-01T08:12:32Z</time>
      </trkpt>
      <trkpt lat="49.0494" lon="7.81086">
        <ele>328.2</ele>
        <time>2022-05-01T08:12:34Z</time>
      </trkpt>
      <trkpt lat="49.04935" lon="7.811">
        <ele>327.4</ele>
        <time>2022-05-01T08:12:35Z</time>
      </trkpt>
      <trkpt lat="49.04928" lon="7.81112">
        <ele>326.4</ele>
        <time>2022-05-01T08:12:36Z</time>
      </trkpt>
      <trkpt lat="49.04916" lon="7.81138">
        <ele>324.6</ele>
        <time>2022-05-01T08:12:38Z</time>
      </trkpt>
      <trkpt lat="49.04911" lon="7.81152">
        <ele>323.6</ele>
        <time>2022-05-01T08:12:39Z</time>
      </trkpt>
      <trkpt lat="49.04906" lon="7.81167">
        <ele>322.2</ele>
        <time>2022-05-01T08:12:40Z</time>
      </trkpt>
      <trkpt lat="49.04904" lon="7.81179">
        <ele>321</ele>
        <time>2022-05-01T08:12:41Z</time>
      </trkpt>
      <trkpt lat="49.04901" lon="7.81194">
        <ele>319.8</ele>
        <time>2022-05-01T08:12:42Z</time>
      </trkpt>
      <trkpt lat="49.04896" lon="7.81204">
        <ele>318.8</ele>
        <time>2022-05-01T08:12:43Z</time>
      </trkpt>
      <trkpt lat="49.0489" lon="7.81211">
        <ele>317.8</ele>
        <time>2022-05-01T08:12:44Z</time>
      </trkpt>
      <trkpt lat="49.04883" lon="7.81217">
        <ele>316.6</ele>
        <time>2022-05-01T08:12:45Z</time>
      </trkpt>
      <trkpt lat="49.04876" lon="7.81222">
        <ele>315.6</ele>
        <time>2022-05-01T08:12:46Z</time>
      </trkpt>
      <trkpt lat="49.04867" lon="7.81229">
        <ele>314.2</ele>
        <time>2022-05-01T08:12:47Z</time>
      </trkpt>
      <trkpt lat="49.0486" lon="7.81235">
        <ele>313.6</ele>
        <time>2022-05-01T08:12:48Z</time>
      </trkpt>
      <trkpt lat="49.04853" lon="7.81241">
        <ele>313</ele>
        <time>2022-05-01T08:12:49Z</time>
      </trkpt>
      <trkpt lat="49.04844" lon="7.81246">
        <ele>312.2</ele>
        <time>2022-05-01T08:12:50Z</time>
      </trkpt>
      <trkpt lat="49.04832" lon="7.81252">
        <ele>311.8</ele>
        <time>2022-05-01T08:12:51Z</time>
      </trkpt>
      <trkpt lat="49.04822" lon="7.81256">
        <ele>311</ele>
        <time>2022-05-01T08:12:52Z</time>
      </trkpt>
      <trkpt lat="49.04812" lon="7.81262">
        <ele>310.4</ele>
        <time>2022-05-01T08:12:53Z</time>
      </trkpt>
      <trkpt lat="49.04791" lon="7.8127">
        <ele>308.6</ele>
        <time>2022-05-01T08:12:55Z</time>
      </trkpt>
      <trkpt lat="49.04769" lon="7.81278">
        <ele>306.8</ele>
        <time>2022-05-01T08:12:57Z</time>
      </trkpt>
      <trkpt lat="49.04751" lon="7.81284">
        <ele>304.8</ele>
        <time>2022-05-01T08:12:59Z</time>
      </trkpt>
      <trkpt lat="49.04741" lon="7.81287">
        <ele>303.4</ele>
        <time>2022-05-01T08:13:00Z</time>
      </trkpt>
      <trkpt lat="49.04735" lon="7.81288">
        <ele>302.6</ele>
        <time>2022-05-01T08:13:01Z</time>
      </trkpt>
      <trkpt lat="49.04731" lon="7.81289">
        <ele>301.6</ele>
        <time>2022-05-01T08:13:02Z</time>
      </trkpt>
      <trkpt lat="49.04729" lon="7.8129">
        <ele>300.8</ele>
        <time>2022-05-01T08:13:03Z</time>
      </trkpt>
      <trkpt lat="49.04729" lon="7.81292">
        <ele>299.4</ele>
        <time>2022-05-01T08:13:04Z</time>
      </trkpt>
      <trkpt lat="49.0473" lon="7.81293">
        <ele>298.2</ele>
        <time>2022-05-01T08:13:05Z</time>
      </trkpt>
      <trkpt lat="49.04732" lon="7.81294">
        <ele>297.6</ele>
        <time>2022-05-01T08:13:06Z</time>
      </trkpt>
      <trkpt lat="49.04734" lon="7.81293">
        <ele>297.2</ele>
        <time>2022-05-01T08:13:07Z</time>
      </trkpt>
      <trkpt lat="49.04736" lon="7.81294">
        <ele>297</ele>
        <time>2022-05-01T08:13:08Z</time>
      </trkpt>
      <trkpt lat="49.04738" lon="7.81294">
        <ele>296.8</ele>
        <time>2022-05-01T08:13:09Z</time>
      </trkpt>
      <trkpt lat="49.0474" lon="7.81294">
        <ele>296.6</ele>
        <time>2022-05-01T08:13:10Z</time>
      </trkpt>
      <trkpt lat="49.04747" lon="7.81293">
        <ele>296.4</ele>
        <time>2022-05-01T08:13:13Z</time>
      </trkpt>
      <trkpt lat="49.0475" lon="7.81293">
        <ele>296.4</ele>
        <time>2022-05-01T08:13:14Z</time>
      </trkpt>
      <trkpt lat="49.04759" lon="7.8129">
        <ele>296.4</ele>
        <time>2022-05-01T08:13:18Z</time>
      </trkpt>
      <trkpt lat="49.04761" lon="7.8129">
        <ele>296.4</ele>
        <time>2022-05-01T08:13:19Z</time>
      </trkpt>
      <trkpt lat="49.04764" lon="7.81289">
        <ele>296.4</ele>
        <time>2022-05-01T08:13:20Z</time>
      </trkpt>
      <trkpt lat="49.04781" lon="7.81286">
        <ele>296.6</ele>
        <time>2022-05-01T08:13:25Z</time>
      </trkpt>
      <trkpt lat="49.04783" lon="7.81285">
        <ele>296.8</ele>
        <time>2022-05-01T08:13:26Z</time>
      </trkpt>
      <trkpt lat="49.04787" lon="7.81284">
        <ele>297</ele>
        <time>2022-05-01T08:13:27Z</time>
      </trkpt>
      <trkpt lat="49.04799" lon="7.81282">
        <ele>297.6</ele>
        <time>2022-05-01T08:13:31Z</time>
      </trkpt>
      <trkpt lat="49.04804" lon="7.81281">
        <ele>297.8</ele>
        <time>2022-05-01T08:13:33Z</time>
      </trkpt>
      <trkpt lat="49.04806" lon="7.81282">
        <ele>297.8</ele>
        <time>2022-05-01T08:13:34Z</time>
      </trkpt>
      <trkpt lat="49.04808" lon="7.81284">
        <ele>298</ele>
        <time>2022-05-01T08:13:35Z</time>
      </trkpt>
      <trkpt lat="49.0481" lon="7.81286">
        <ele>298</ele>
        <time>2022-05-01T08:13:36Z</time>
      </trkpt>
      <trkpt lat="49.04814" lon="7.81288">
        <ele>298.2</ele>
        <time>2022-05-01T08:13:37Z</time>
      </trkpt>
      <trkpt lat="49.04817" lon="7.81291">
        <ele>298.2</ele>
        <time>2022-05-01T08:13:38Z</time>
      </trkpt>
      <trkpt lat="49.0482" lon="7.81294">
        <ele>298.2</ele>
        <time>2022-05-01T08:13:39Z</time>
      </trkpt>
      <trkpt lat="49.04822" lon="7.81299">
        <ele>298.2</ele>
        <time>2022-05-01T08:13:40Z</time>
      </trkpt>
      <trkpt lat="49.04823" lon="7.81304">
        <ele>298.2</ele>
        <time>2022-05-01T08:13:41Z</time>
      </trkpt>
      <trkpt lat="49.04823" lon="7.81309">
        <ele>298.2</ele>
        <time>2022-05-01T08:13:42Z</time>
      </trkpt>
      <trkpt lat="49.04824" lon="7.81313">
        <ele>298.2</ele>
        <time>2022-05-01T08:13:43Z</time>
      </trkpt>
      <trkpt lat="49.04824" lon="7.81317">
        <ele>298.2</ele>
        <time>2022-05-01T08:13:44Z</time>
      </trkpt>
      <trkpt lat="49.04823" lon="7.81321">
        <ele>298.2</ele>
        <time>2022-05-01T08:13:45Z</time>
      </trkpt>
      <trkpt lat="49.04823" lon="7.81328">
        <ele>297</ele>
        <time>2022-05-01T08:13:47Z</time>
      </trkpt>
      <trkpt lat="49.04824" lon="7.81332">
        <ele>296.4</ele>
        <time>2022-05-01T08:13:48Z</time>
      </trkpt>
      <trkpt lat="49.04824" lon="7.8134">
        <ele>296</ele>
        <time>2022-05-01T08:13:50Z</time>
      </trkpt>
      <trkpt lat="49.04824" lon="7.81344">
        <ele>295.8</ele>
        <time>2022-05-01T08:13:51Z</time>
      </trkpt>
      <trkpt lat="49.04824" lon="7.81347">
        <ele>295.8</ele>
        <time>2022-05-01T08:13:52Z</time>
      </trkpt>
      <trkpt lat="49.04825" lon="7.8135">
        <ele>295.8</ele>
        <time>2022-05-01T08:13:53Z</time>
      </trkpt>
      <trkpt lat="49.04826" lon="7.81352">
        <ele>295.8</ele>
        <time>2022-05-01T08:13:54Z</time>
      </trkpt>
      <trkpt lat="49.04828" lon="7.81353">
        <ele>295.8</ele>
        <time>2022-05-01T08:13:55Z</time>
      </trkpt>
      <trkpt lat="49.0483" lon="7.81353">
        <ele>295.8</ele>
        <time>2022-05-01T08:13:56Z</time>
      </trkpt>
      <trkpt lat="49.04849" lon="7.81354">
        <ele>297</ele>
        <time>2022-05-01T08:14:03Z</time>
      </trkpt>
      <trkpt lat="49.0486" lon="7.81357">
        <ele>297.6</ele>
        <time>2022-05-01T08:14:07Z</time>
      </trkpt>
      <trkpt lat="49.04867" lon="7.81359">
        <ele>297.8</ele>
        <time>2022-05-01T08:14:09Z</time>
      </trkpt>
      <trkpt lat="49.04869" lon="7.8136">
        <ele>298</ele>
        <time>2022-05-01T08:14:10Z</time>
      </trkpt>
      <trkpt lat="49.04885" lon="7.81364">
        <ele>298.6</ele>
        <time>2022-05-01T08:14:16Z</time>
      </trkpt>
      <trkpt lat="49.04894" lon="7.81368">
        <ele>298.8</ele>
        <time>2022-05-01T08:14:19Z</time>
      </trkpt>
      <trkpt lat="49.04906" lon="7.81373">
        <ele>299.2</ele>
        <time>2022-05-01T08:14:23Z</time>
      </trkpt>
      <trkpt lat="49.04925" lon="7.8138">
        <ele>299.6</ele>
        <time>2022-05-01T08:14:30Z</time>
      </trkpt>
      <trkpt lat="49.04929" lon="7.81381">
        <ele>299.6</ele>
        <time>2022-05-01T08:14:31Z</time>
      </trkpt>
      <trkpt lat="49.04939" lon="7.81378">
        <ele>299.6</ele>
        <time>2022-05-01T08:14:35Z</time>
      </trkpt>
      <trkpt lat="49.04942" lon="7.81376">
        <ele>299.6</ele>
        <time>2022-05-01T08:14:36Z</time>
      </trkpt>
      <trkpt lat="49.04945" lon="7.81373">
        <ele>299.6</ele>
        <time>2022-05-01T08:14:37Z</time>
      </trkpt>
      <trkpt lat="49.04948" lon="7.8137">
        <ele>299.6</ele>
        <time>2022-05-01T08:14:38Z</time>
      </trkpt>
      <trkpt lat="49.04956" lon="7.81367">
        <ele>299.6</ele>
        <time>2022-05-01T08:14:40Z</time>
      </trkpt>
      <trkpt lat="49.0496" lon="7.81368">
        <ele>299.6</ele>
        <time>2022-05-01T08:14:41Z</time>
      </trkpt>
      <trkpt lat="49.04963" lon="7.8137">
        <ele>299.6</ele>
        <time>2022-05-01T08:14:42Z</time>
      </trkpt>
      <trkpt lat="49.04966" lon="7.81374">
        <ele>299.6</ele>
        <time>2022-05-01T08:14:43Z</time>
      </trkpt>
      <trkpt lat="49.04968" lon="7.81377">
        <ele>299.6</ele>
        <time>2022-05-01T08:14:44Z</time>
      </trkpt>
      <trkpt lat="49.0497" lon="7.81381">
        <ele>299.6</ele>
        <time>2022-05-01T08:14:45Z</time>
      </trkpt>
      <trkpt lat="49.04971" lon="7.81384">
        <ele>299.6</ele>
        <time>2022-05-01T08:14:46Z</time>
      </trkpt>
      <trkpt lat="49.04973" lon="7.81388">
        <ele>299.6</ele>
        <time>2022-05-01T08:14:47Z</time>
      </trkpt>
      <trkpt lat="49.04974" lon="7.81392">
        <ele>299.6</ele>
        <time>2022-05-01T08:14:48Z</time>
      </trkpt>
      <trkpt lat="49.04976" lon="7.81395">
        <ele>299.6</ele>
        <time>2022-05-01T08:14:49Z</time>
      </trkpt>
      <trkpt lat="49.04978" lon="7.81399">
        <ele>299.6</ele>
        <time>2022-05-01T08:14:50Z</time>
      </trkpt>
      <trkpt lat="49.0498" lon="7.81404">
        <ele>299.6</ele>
        <time>2022-05-01T08:14:51Z</time>
      </trkpt>
      <trkpt lat="49.04982" lon="7.81407">
        <ele>299.6</ele>
        <time>2022-05-01T08:14:52Z</time>
      </trkpt>
      <trkpt lat="49.04984" lon="7.81411">
        <ele>299.6</ele>
        <time>2022-05-01T08:14:53Z</time>
      </trkpt>
      <trkpt lat="49.04987" lon="7.81415">
        <ele>299.8</ele>
        <time>2022-05-01T08:14:54Z</time>
      </trkpt>
      <trkpt lat="49.04989" lon="7.81418">
        <ele>300</ele>
        <time>2022-05-01T08:14:55Z</time>
      </trkpt>
      <trkpt lat="49.04992" lon="7.8142">
        <ele>300.2</ele>
        <time>2022-05-01T08:14:56Z</time>
      </trkpt>
      <trkpt lat="49.05" lon="7.8143">
        <ele>300.8</ele>
        <time>2022-05-01T08:14:59Z</time>
      </trkpt>
      <trkpt lat="49.05002" lon="7.81433">
        <ele>301</ele>
        <time>2022-05-01T08:15:00Z</time>
      </trkpt>
      <trkpt lat="49.05018" lon="7.81457">
        <ele>301.4</ele>
        <time>2022-05-01T08:15:07Z</time>
      </trkpt>
      <trkpt lat="49.05025" lon="7.81465">
        <ele>301.8</ele>
        <time>2022-05-01T08:15:10Z</time>
      </trkpt>
      <trkpt lat="49.05033" lon="7.81474">
        <ele>302.4</ele>
        <time>2022-05-01T08:15:13Z</time>
      </trkpt>
      <trkpt lat="49.05035" lon="7.81476">
        <ele>302.6</ele>
        <time>2022-05-01T08:15:14Z</time>
      </trkpt>
      <trkpt lat="49.05038" lon="7.81478">
        <ele>302.8</ele>
        <time>2022-05-01T08:15:15Z</time>
      </trkpt>
      <trkpt lat="49.05041" lon="7.81481">
        <ele>303</ele>
        <time>2022-05-01T08:15:16Z</time>
      </trkpt>
      <trkpt lat="49.05044" lon="7.81483">
        <ele>303.2</ele>
        <time>2022-05-01T08:15:17Z</time>
      </trkpt>
      <trkpt lat="49.05046" lon="7.81485">
        <ele>303.4</ele>
        <time>2022-05-01T08:15:18Z</time>
      </trkpt>
      <trkpt lat="49.05048" lon="7.81486">
        <ele>303.6</ele>
        <time>2022-05-01T08:15:19Z</time>
      </trkpt>
      <trkpt lat="49.05051" lon="7.81488">
        <ele>303.8</ele>
        <time>2022-05-01T08:15:20Z</time>
      </trkpt>
      <trkpt lat="49.05054" lon="7.8149">
        <ele>303.8</ele>
        <time>2022-05-01T08:15:21Z</time>
      </trkpt>
      <trkpt lat="49.05056" lon="7.81492">
        <ele>304</ele>
        <time>2022-05-01T08:15:22Z</time>
      </trkpt>
      <trkpt lat="49.05058" lon="7.81494">
        <ele>304</ele>
        <time>2022-05-01T08:15:23Z</time>
      </trkpt>
      <trkpt lat="49.0506" lon="7.81495">
        <ele>304.2</ele>
        <time>2022-05-01T08:15:24Z</time>
      </trkpt>
      <trkpt lat="49.05063" lon="7.81497">
        <ele>304.2</ele>
        <time>2022-05-01T08:15:25Z</time>
      </trkpt>
      <trkpt lat="49.05066" lon="7.81499">
        <ele>304.2</ele>
        <time>2022-05-01T08:15:26Z</time>
      </trkpt>
      <trkpt lat="49.05068" lon="7.81501">
        <ele>304.4</ele>
        <time>2022-05-01T08:15:27Z</time>
      </trkpt>
      <trkpt lat="49.0507" lon="7.81503">
        <ele>304.6</ele>
        <time>2022-05-01T08:15:28Z</time>
      </trkpt>
      <trkpt lat="49.05073" lon="7.81506">
        <ele>304.8</ele>
        <time>2022-05-01T08:15:29Z</time>
      </trkpt>
      <trkpt lat="49.05076" lon="7.81508">
        <ele>305</ele>
        <time>2022-05-01T08:15:30Z</time>
      </trkpt>
      <trkpt lat="49.05078" lon="7.81511">
        <ele>305.2</ele>
        <time>2022-05-01T08:15:31Z</time>
      </trkpt>
      <trkpt lat="49.0508" lon="7.81513">
        <ele>305.4</ele>
        <time>2022-05-01T08:15:32Z</time>
      </trkpt>
      <trkpt lat="49.05082" lon="7.81515">
        <ele>305.6</ele>
        <time>2022-05-01T08:15:33Z</time>
      </trkpt>
      <trkpt lat="49.05085" lon="7.81518">
        <ele>305.8</ele>
        <time>2022-05-01T08:15:34Z</time>
      </trkpt>
      <trkpt lat="49.05088" lon="7.81521">
        <ele>306</ele>
        <time>2022-05-01T08:15:35Z</time>
      </trkpt>
      <trkpt lat="49.05091" lon="7.81523">
        <ele>306</ele>
        <time>2022-05-01T08:15:36Z</time>
      </trkpt>
      <trkpt lat="49.05094" lon="7.81525">
        <ele>306.2</ele>
        <time>2022-05-01T08:15:37Z</time>
      </trkpt>
      <trkpt lat="49.05097" lon="7.81528">
        <ele>306.2</ele>
        <time>2022-05-01T08:15:38Z</time>
      </trkpt>
      <trkpt lat="49.05101" lon="7.8153">
        <ele>306.2</ele>
        <time>2022-05-01T08:15:39Z</time>
      </trkpt>
      <trkpt lat="49.05103" lon="7.81532">
        <ele>306.4</ele>
        <time>2022-05-01T08:15:40Z</time>
      </trkpt>
      <trkpt lat="49.05107" lon="7.81535">
        <ele>306.4</ele>
        <time>2022-05-01T08:15:41Z</time>
      </trkpt>
      <trkpt lat="49.0511" lon="7.81537">
        <ele>306.4</ele>
        <time>2022-05-01T08:15:42Z</time>
      </trkpt>
      <trkpt lat="49.05113" lon="7.81539">
        <ele>306.6</ele>
        <time>2022-05-01T08:15:43Z</time>
      </trkpt>
      <trkpt lat="49.05116" lon="7.81542">
        <ele>306.8</ele>
        <time>2022-05-01T08:15:44Z</time>
      </trkpt>
      <trkpt lat="49.05119" lon="7.81544">
        <ele>306.8</ele>
        <time>2022-05-01T08:15:45Z</time>
      </trkpt>
      <trkpt lat="49.05122" lon="7.81546">
        <ele>306.8</ele>
        <time>2022-05-01T08:15:46Z</time>
      </trkpt>
      <trkpt lat="49.05125" lon="7.81548">
        <ele>307</ele>
        <time>2022-05-01T08:15:47Z</time>
      </trkpt>
      <trkpt lat="49.05127" lon="7.81551">
        <ele>307</ele>
        <time>2022-05-01T08:15:48Z</time>
      </trkpt>
      <trkpt lat="49.0513" lon="7.81553">
        <ele>307.2</ele>
        <time>2022-05-01T08:15:49Z</time>
      </trkpt>
      <trkpt lat="49.05134" lon="7.81555">
        <ele>307.4</ele>
        <time>2022-05-01T08:15:50Z</time>
      </trkpt>
      <trkpt lat="49.05136" lon="7.81557">
        <ele>307.4</ele>
        <time>2022-05-01T08:15:51Z</time>
      </trkpt>
      <trkpt lat="49.05139" lon="7.81559">
        <ele>307.4</ele>
        <time>2022-05-01T08:15:52Z</time>
      </trkpt>
      <trkpt lat="49.05142" lon="7.81561">
        <ele>307.6</ele>
        <time>2022-05-01T08:15:53Z</time>
      </trkpt>
      <trkpt lat="49.05144" lon="7.81563">
        <ele>307.6</ele>
        <time>2022-05-01T08:15:54Z</time>
      </trkpt>
      <trkpt lat="49.05147" lon="7.81565">
        <ele>307.8</ele>
        <time>2022-05-01T08:15:55Z</time>
      </trkpt>
      <trkpt lat="49.05151" lon="7.81568">
        <ele>308</ele>
        <time>2022-05-01T08:15:56Z</time>
      </trkpt>
      <trkpt lat="49.05154" lon="7.81571">
        <ele>308</ele>
        <time>2022-05-01T08:15:57Z</time>
      </trkpt>
      <trkpt lat="49.05157" lon="7.81573">
        <ele>308</ele>
        <time>2022-05-01T08:15:58Z</time>
      </trkpt>
      <trkpt lat="49.0516" lon="7.81576">
        <ele>308.2</ele>
        <time>2022-05-01T08:15:59Z</time>
      </trkpt>
      <trkpt lat="49.05163" lon="7.81578">
        <ele>308.4</ele>
        <time>2022-05-01T08:16:00Z</time>
      </trkpt>
      <trkpt lat="49.05166" lon="7.8158">
        <ele>308.4</ele>
        <time>2022-05-01T08:16:01Z</time>
      </trkpt>
      <trkpt lat="49.05169" lon="7.81582">
        <ele>308.6</ele>
        <time>2022-05-01T08:16:02Z</time>
      </trkpt>
      <trkpt lat="49.05172" lon="7.81584">
        <ele>308.8</ele>
        <time>2022-05-01T08:16:03Z</time>
      </trkpt>
      <trkpt lat="49.05176" lon="7.81586">
        <ele>308.8</ele>
        <time>2022-05-01T08:16:04Z</time>
      </trkpt>
      <trkpt lat="49.05179" lon="7.81588">
        <ele>309</ele>
        <time>2022-05-01T08:16:05Z</time>
      </trkpt>
      <trkpt lat="49.05182" lon="7.81591">
        <ele>309.2</ele>
        <time>2022-05-01T08:16:06Z</time>
      </trkpt>
      <trkpt lat="49.05184" lon="7.81594">
        <ele>309.2</ele>
        <time>2022-05-01T08:16:07Z</time>
      </trkpt>
      <trkpt lat="49.05187" lon="7.81596">
        <ele>309.4</ele>
        <time>2022-05-01T08:16:08Z</time>
      </trkpt>
      <trkpt lat="49.0519" lon="7.81599">
        <ele>309.4</ele>
        <time>2022-05-01T08:16:09Z</time>
      </trkpt>
      <trkpt lat="49.05193" lon="7.81601">
        <ele>309.6</ele>
        <time>2022-05-01T08:16:10Z</time>
      </trkpt>
      <trkpt lat="49.05196" lon="7.81603">
        <ele>309.6</ele>
        <time>2022-05-01T08:16:11Z</time>
      </trkpt>
      <trkpt lat="49.05198" lon="7.81607">
        <ele>309.8</ele>
        <time>2022-05-01T08:16:12Z</time>
      </trkpt>
      <trkpt lat="49.05201" lon="7.81609">
        <ele>309.8</ele>
        <time>2022-05-01T08:16:13Z</time>
      </trkpt>
      <trkpt lat="49.05204" lon="7.81612">
        <ele>310</ele>
        <time>2022-05-01T08:16:14Z</time>
      </trkpt>
      <trkpt lat="49.05207" lon="7.81614">
        <ele>310</ele>
        <time>2022-05-01T08:16:15Z</time>
      </trkpt>
      <trkpt lat="49.0521" lon="7.81616">
        <ele>310.2</ele>
        <time>2022-05-01T08:16:16Z</time>
      </trkpt>
      <trkpt lat="49.05212" lon="7.81618">
        <ele>310.4</ele>
        <time>2022-05-01T08:16:17Z</time>
      </trkpt>
      <trkpt lat="49.05216" lon="7.8162">
        <ele>310.4</ele>
        <time>2022-05-01T08:16:18Z</time>
      </trkpt>
      <trkpt lat="49.05218" lon="7.81621">
        <ele>310.6</ele>
        <time>2022-05-01T08:16:19Z</time>
      </trkpt>
      <trkpt lat="49.05221" lon="7.81622">
        <ele>310.6</ele>
        <time>2022-05-01T08:16:20Z</time>
      </trkpt>
      <trkpt lat="49.05224" lon="7.81623">
        <ele>310.8</ele>
        <time>2022-05-01T08:16:21Z</time>
      </trkpt>
      <trkpt lat="49.05227" lon="7.81624">
        <ele>311</ele>
        <time>2022-05-01T08:16:22Z</time>
      </trkpt>
      <trkpt lat="49.05231" lon="7.81625">
        <ele>311.2</ele>
        <time>2022-05-01T08:16:23Z</time>
      </trkpt>
      <trkpt lat="49.05234" lon="7.81626">
        <ele>311.4</ele>
        <time>2022-05-01T08:16:24Z</time>
      </trkpt>
      <trkpt lat="49.05237" lon="7.81627">
        <ele>311.6</ele>
        <time>2022-05-01T08:16:25Z</time>
      </trkpt>
      <trkpt lat="49.05239" lon="7.81628">
        <ele>311.6</ele>
        <time>2022-05-01T08:16:26Z</time>
      </trkpt>
      <trkpt lat="49.05243" lon="7.81628">
        <ele>311.8</ele>
        <time>2022-05-01T08:16:27Z</time>
      </trkpt>
      <trkpt lat="49.05246" lon="7.81629">
        <ele>312</ele>
        <time>2022-05-01T08:16:28Z</time>
      </trkpt>
      <trkpt lat="49.05249" lon="7.81629">
        <ele>312</ele>
        <time>2022-05-01T08:16:29Z</time>
      </trkpt>
      <trkpt lat="49.05252" lon="7.8163">
        <ele>312</ele>
        <time>2022-05-01T08:16:30Z</time>
      </trkpt>
      <trkpt lat="49.05255" lon="7.8163">
        <ele>312.2</ele>
        <time>2022-05-01T08:16:31Z</time>
      </trkpt>
      <trkpt lat="49.05258" lon="7.8163">
        <ele>312.4</ele>
        <time>2022-05-01T08:16:32Z</time>
      </trkpt>
      <trkpt lat="49.05261" lon="7.8163">
        <ele>312.4</ele>
        <time>2022-05-01T08:16:33Z</time>
      </trkpt>
      <trkpt lat="49.05263" lon="7.8163">
        <ele>312.6</ele>
        <time>2022-05-01T08:16:34Z</time>
      </trkpt>
      <trkpt lat="49.05266" lon="7.8163">
        <ele>312.8</ele>
        <time>2022-05-01T08:16:35Z</time>
      </trkpt>
      <trkpt lat="49.05269" lon="7.8163">
        <ele>313.2</ele>
        <time>2022-05-01T08:16:36Z</time>
      </trkpt>
      <trkpt lat="49.05272" lon="7.8163">
        <ele>313.4</ele>
        <time>2022-05-01T08:16:37Z</time>
      </trkpt>
      <trkpt lat="49.05275" lon="7.8163">
        <ele>313.4</ele>
        <time>2022-05-01T08:16:38Z</time>
      </trkpt>
      <trkpt lat="49.05278" lon="7.8163">
        <ele>313.6</ele>
        <time>2022-05-01T08:16:39Z</time>
      </trkpt>
      <trkpt lat="49.05281" lon="7.8163">
        <ele>313.8</ele>
        <time>2022-05-01T08:16:40Z</time>
      </trkpt>
      <trkpt lat="49.05284" lon="7.8163">
        <ele>313.8</ele>
        <time>2022-05-01T08:16:41Z</time>
      </trkpt>
      <trkpt lat="49.05286" lon="7.8163">
        <ele>313.8</ele>
        <time>2022-05-01T08:16:42Z</time>
      </trkpt>
      <trkpt lat="49.05289" lon="7.8163">
        <ele>314.2</ele>
        <time>2022-05-01T08:16:43Z</time>
      </trkpt>
      <trkpt lat="49.05292" lon="7.8163">
        <ele>314.2</ele>
        <time>2022-05-01T08:16:44Z</time>
      </trkpt>
      <trkpt lat="49.05295" lon="7.81629">
        <ele>314.4</ele>
        <time>2022-05-01T08:16:45Z</time>
      </trkpt>
      <trkpt lat="49.05297" lon="7.81629">
        <ele>314.4</ele>
        <time>2022-05-01T08:16:46Z</time>
      </trkpt>
      <trkpt lat="49.053" lon="7.81629">
        <ele>314.6</ele>
        <time>2022-05-01T08:16:47Z</time>
      </trkpt>
      <trkpt lat="49.05303" lon="7.81629">
        <ele>314.6</ele>
        <time>2022-05-01T08:16:48Z</time>
      </trkpt>
      <trkpt lat="49.05306" lon="7.81629">
        <ele>314.6</ele>
        <time>2022-05-01T08:16:49Z</time>
      </trkpt>
      <trkpt lat="49.05308" lon="7.81629">
        <ele>314.8</ele>
        <time>2022-05-01T08:16:50Z</time>
      </trkpt>
      <trkpt lat="49.0531" lon="7.81628">
        <ele>315</ele>
        <time>2022-05-01T08:16:51Z</time>
      </trkpt>
      <trkpt lat="49.05313" lon="7.81627">
        <ele>315</ele>
        <time>2022-05-01T08:16:52Z</time>
      </trkpt>
      <trkpt lat="49.05315" lon="7.81626">
        <ele>315.4</ele>
        <time>2022-05-01T08:16:53Z</time>
      </trkpt>
      <trkpt lat="49.05317" lon="7.81625">
        <ele>315.6</ele>
        <time>2022-05-01T08:16:54Z</time>
      </trkpt>
      <trkpt lat="49.05319" lon="7.81624">
        <ele>315.8</ele>
        <time>2022-05-01T08:16:55Z</time>
      </trkpt>
      <trkpt lat="49.05321" lon="7.81622">
        <ele>316.2</ele>
        <time>2022-05-01T08:16:56Z</time>
      </trkpt>
      <trkpt lat="49.05322" lon="7.8162">
        <ele>316.4</ele>
        <time>2022-05-01T08:16:57Z</time>
      </trkpt>
      <trkpt lat="49.05323" lon="7.81617">
        <ele>316.6</ele>
        <time>2022-05-01T08:16:58Z</time>
      </trkpt>
      <trkpt lat="49.05323" lon="7.81614">
        <ele>317</ele>
        <time>2022-05-01T08:16:59Z</time>
      </trkpt>
      <trkpt lat="49.05323" lon="7.81611">
        <ele>317.2</ele>
        <time>2022-05-01T08:17:00Z</time>
      </trkpt>
      <trkpt lat="49.05323" lon="7.81607">
        <ele>317.4</ele>
        <time>2022-05-01T08:17:01Z</time>
      </trkpt>
      <trkpt lat="49.05322" lon="7.81604">
        <ele>317.6</ele>
        <time>2022-05-01T08:17:02Z</time>
      </trkpt>
      <trkpt lat="49.05321" lon="7.81601">
        <ele>318</ele>
        <time>2022-05-01T08:17:03Z</time>
      </trkpt>
      <trkpt lat="49.05319" lon="7.81599">
        <ele>318.4</ele>
        <time>2022-05-01T08:17:04Z</time>
      </trkpt>
      <trkpt lat="49.05317" lon="7.81596">
        <ele>318.8</ele>
        <time>2022-05-01T08:17:05Z</time>
      </trkpt>
      <trkpt lat="49.05316" lon="7.81594">
        <ele>319</ele>
        <time>2022-05-01T08:17:06Z</time>
      </trkpt>
      <trkpt lat="49.05314" lon="7.81592">
        <ele>319.4</ele>
        <time>2022-05-01T08:17:07Z</time>
      </trkpt>
      <trkpt lat="49.05312" lon="7.8159">
        <ele>319.6</ele>
        <time>2022-05-01T08:17:08Z</time>
      </trkpt>
      <trkpt lat="49.05311" lon="7.81588">
        <ele>320</ele>
        <time>2022-05-01T08:17:09Z</time>
      </trkpt>
      <trkpt lat="49.0531" lon="7.81585">
        <ele>320.4</ele>
        <time>2022-05-01T08:17:10Z</time>
      </trkpt>
      <trkpt lat="49.05309" lon="7.81583">
        <ele>320.6</ele>
        <time>2022-05-01T08:17:11Z</time>
      </trkpt>
      <trkpt lat="49.05308" lon="7.8158">
        <ele>321</ele>
        <time>2022-05-01T08:17:12Z</time>
      </trkpt>
      <trkpt lat="49.05307" lon="7.81578">
        <ele>321.2</ele>
        <time>2022-05-01T08:17:13Z</time>
      </trkpt>
      <trkpt lat="49.05306" lon="7.81577">
        <ele>321.6</ele>
        <time>2022-05-01T08:17:14Z</time>
      </trkpt>
      <trkpt lat="49.05305" lon="7.81575">
        <ele>321.8</ele>
        <time>2022-05-01T08:17:15Z</time>
      </trkpt>
      <trkpt lat="49.05304" lon="7.81573">
        <ele>322.2</ele>
        <time>2022-05-01T08:17:16Z</time>
      </trkpt>
      <trkpt lat="49.05303" lon="7.81571">
        <ele>322.2</ele>
        <time>2022-05-01T08:17:17Z</time>
      </trkpt>
      <trkpt lat="49.05301" lon="7.81569">
        <ele>322.6</ele>
        <time>2022-05-01T08:17:18Z</time>
      </trkpt>
      <trkpt lat="49.053" lon="7.81566">
        <ele>323</ele>
        <time>2022-05-01T08:17:19Z</time>
      </trkpt>
      <trkpt lat="49.05299" lon="7.81564">
        <ele>323.2</ele>
        <time>2022-05-01T08:17:20Z</time>
      </trkpt>
      <trkpt lat="49.05298" lon="7.81562">
        <ele>323.4</ele>
        <time>2022-05-01T08:17:21Z</time>
      </trkpt>
      <trkpt lat="49.05297" lon="7.81559">
        <ele>323.6</ele>
        <time>2022-05-01T08:17:22Z</time>
      </trkpt>
      <trkpt lat="49.05296" lon="7.81556">
        <ele>324</ele>
        <time>2022-05-01T08:17:23Z</time>
      </trkpt>
      <trkpt lat="49.05296" lon="7.81552">
        <ele>324.2</ele>
        <time>2022-05-01T08:17:24Z</time>
      </trkpt>
      <trkpt lat="49.05295" lon="7.81549">
        <ele>324.4</ele>
        <time>2022-05-01T08:17:25Z</time>
      </trkpt>
      <trkpt lat="49.05294" lon="7.81547">
        <ele>324.6</ele>
        <time>2022-05-01T08:17:26Z</time>
      </trkpt>
      <trkpt lat="49.05293" lon="7.81545">
        <ele>324.8</ele>
        <time>2022-05-01T08:17:27Z</time>
      </trkpt>
      <trkpt lat="49.05293" lon="7.81543">
        <ele>325</ele>
        <time>2022-05-01T08:17:28Z</time>
      </trkpt>
      <trkpt lat="49.05291" lon="7.8154">
        <ele>325</ele>
        <time>2022-05-01T08:17:29Z</time>
      </trkpt>
      <trkpt lat="49.0529" lon="7.81537">
        <ele>325.2</ele>
        <time>2022-05-01T08:17:30Z</time>
      </trkpt>
      <trkpt lat="49.05289" lon="7.81535">
        <ele>325.2</ele>
        <time>2022-05-01T08:17:31Z</time>
      </trkpt>
      <trkpt lat="49.05287" lon="7.81532">
        <ele>325.4</ele>
        <time>2022-05-01T08:17:32Z</time>
      </trkpt>
      <trkpt lat="49.05285" lon="7.81529">
        <ele>325.6</ele>
        <time>2022-05-01T08:17:33Z</time>
      </trkpt>
      <trkpt lat="49.05282" lon="7.81527">
        <ele>325.8</ele>
        <time>2022-05-01T08:17:34Z</time>
      </trkpt>
      <trkpt lat="49.05279" lon="7.81524">
        <ele>325.8</ele>
        <time>2022-05-01T08:17:35Z</time>
      </trkpt>
      <trkpt lat="49.05277" lon="7.81522">
        <ele>326</ele>
        <time>2022-05-01T08:17:36Z</time>
      </trkpt>
      <trkpt lat="49.05275" lon="7.81519">
        <ele>326.4</ele>
        <time>2022-05-01T08:17:37Z</time>
      </trkpt>
      <trkpt lat="49.05274" lon="7.81518">
        <ele>326.4</ele>
        <time>2022-05-01T08:17:38Z</time>
      </trkpt>
      <trkpt lat="49.05274" lon="7.81518">
        <ele>326.6</ele>
        <time>2022-05-01T08:17:39Z</time>
      </trkpt>
      <trkpt lat="49.05273" lon="7.81518">
        <ele>326.8</ele>
        <time>2022-05-01T08:17:40Z</time>
      </trkpt>
      <trkpt lat="49.05271" lon="7.81516">
        <ele>326.8</ele>
        <time>2022-05-01T08:17:41Z</time>
      </trkpt>
      <trkpt lat="49.05269" lon="7.81516">
        <ele>327</ele>
        <time>2022-05-01T08:17:42Z</time>
      </trkpt>
      <trkpt lat="49.05267" lon="7.81515">
        <ele>327.2</ele>
        <time>2022-05-01T08:17:43Z</time>
      </trkpt>
      <trkpt lat="49.05265" lon="7.81514">
        <ele>327.4</ele>
        <time>2022-05-01T08:17:44Z</time>
      </trkpt>
      <trkpt lat="49.05263" lon="7.81513">
        <ele>327.6</ele>
        <time>2022-05-01T08:17:45Z</time>
      </trkpt>
      <trkpt lat="49.05261" lon="7.81512">
        <ele>327.6</ele>
        <time>2022-05-01T08:17:46Z</time>
      </trkpt>
      <trkpt lat="49.05258" lon="7.8151">
        <ele>328</ele>
        <time>2022-05-01T08:17:47Z</time>
      </trkpt>
      <trkpt lat="49.05256" lon="7.81509">
        <ele>328.2</ele>
        <time>2022-05-01T08:17:48Z</time>
      </trkpt>
      <trkpt lat="49.05254" lon="7.81509">
        <ele>328.4</ele>
        <time>2022-05-01T08:17:49Z</time>
      </trkpt>
      <trkpt lat="49.05251" lon="7.81508">
        <ele>328.6</ele>
        <time>2022-05-01T08:17:50Z</time>
      </trkpt>
      <trkpt lat="49.0525" lon="7.81506">
        <ele>328.8</ele>
        <time>2022-05-01T08:17:51Z</time>
      </trkpt>
      <trkpt lat="49.05247" lon="7.81503">
        <ele>329</ele>
        <time>2022-05-01T08:17:52Z</time>
      </trkpt>
      <trkpt lat="49.05243" lon="7.81503">
        <ele>329.4</ele>
        <time>2022-05-01T08:17:53Z</time>
      </trkpt>
      <trkpt lat="49.0524" lon="7.815">
        <ele>329.6</ele>
        <time>2022-05-01T08:17:54Z</time>
      </trkpt>
      <trkpt lat="49.05237" lon="7.81499">
        <ele>330</ele>
        <time>2022-05-01T08:17:55Z</time>
      </trkpt>
      <trkpt lat="49.05234" lon="7.81497">
        <ele>330.2</ele>
        <time>2022-05-01T08:17:56Z</time>
      </trkpt>
      <trkpt lat="49.05232" lon="7.81497">
        <ele>330.4</ele>
        <time>2022-05-01T08:17:57Z</time>
      </trkpt>
      <trkpt lat="49.0523" lon="7.81496">
        <ele>330.6</ele>
        <time>2022-05-01T08:17:58Z</time>
      </trkpt>
      <trkpt lat="49.05227" lon="7.81496">
        <ele>330.8</ele>
        <time>2022-05-01T08:17:59Z</time>
      </trkpt>
      <trkpt lat="49.05225" lon="7.81495">
        <ele>331</ele>
        <time>2022-05-01T08:18:00Z</time>
      </trkpt>
      <trkpt lat="49.05222" lon="7.81495">
        <ele>331.2</ele>
        <time>2022-05-01T08:18:01Z</time>
      </trkpt>
      <trkpt lat="49.0522" lon="7.81494">
        <ele>331.4</ele>
        <time>2022-05-01T08:18:02Z</time>
      </trkpt>
      <trkpt lat="49.05217" lon="7.81494">
        <ele>331.6</ele>
        <time>2022-05-01T08:18:03Z</time>
      </trkpt>
      <trkpt lat="49.05215" lon="7.81493">
        <ele>331.8</ele>
        <time>2022-05-01T08:18:04Z</time>
      </trkpt>
      <trkpt lat="49.05213" lon="7.81493">
        <ele>332</ele>
        <time>2022-05-01T08:18:05Z</time>
      </trkpt>
      <trkpt lat="49.05211" lon="7.81492">
        <ele>332.2</ele>
        <time>2022-05-01T08:18:06Z</time>
      </trkpt>
      <trkpt lat="49.05209" lon="7.8149">
        <ele>332.2</ele>
        <time>2022-05-01T08:18:07Z</time>
      </trkpt>
      <trkpt lat="49.05207" lon="7.81488">
        <ele>332.4</ele>
        <time>2022-05-01T08:18:08Z</time>
      </trkpt>
      <trkpt lat="49.05205" lon="7.81487">
        <ele>332.6</ele>
        <time>2022-05-01T08:18:09Z</time>
      </trkpt>
      <trkpt lat="49.05202" lon="7.81485">
        <ele>332.8</ele>
        <time>2022-05-01T08:18:10Z</time>
      </trkpt>
      <trkpt lat="49.05199" lon="7.81481">
        <ele>333</ele>
        <time>2022-05-01T08:18:11Z</time>
      </trkpt>
      <trkpt lat="49.05198" lon="7.81478">
        <ele>333.2</ele>
        <time>2022-05-01T08:18:12Z</time>
      </trkpt>
      <trkpt lat="49.05197" lon="7.81476">
        <ele>333.4</ele>
        <time>2022-05-01T08:18:13Z</time>
      </trkpt>
      <trkpt lat="49.05194" lon="7.81473">
        <ele>333.6</ele>
        <time>2022-05-01T08:18:14Z</time>
      </trkpt>
      <trkpt lat="49.05191" lon="7.81471">
        <ele>333.8</ele>
        <time>2022-05-01T08:18:15Z</time>
      </trkpt>
      <trkpt lat="49.0519" lon="7.81469">
        <ele>334</ele>
        <time>2022-05-01T08:18:16Z</time>
      </trkpt>
      <trkpt lat="49.05189" lon="7.81468">
        <ele>334.2</ele>
        <time>2022-05-01T08:18:17Z</time>
      </trkpt>
      <trkpt lat="49.05188" lon="7.81467">
        <ele>334.2</ele>
        <time>2022-05-01T08:18:18Z</time>
      </trkpt>
      <trkpt lat="49.05186" lon="7.81465">
        <ele>334.6</ele>
        <time>2022-05-01T08:18:19Z</time>
      </trkpt>
      <trkpt lat="49.05183" lon="7.81462">
        <ele>334.6</ele>
        <time>2022-05-01T08:18:20Z</time>
      </trkpt>
      <trkpt lat="49.0518" lon="7.81459">
        <ele>334.8</ele>
        <time>2022-05-01T08:18:21Z</time>
      </trkpt>
      <trkpt lat="49.05179" lon="7.81457">
        <ele>335</ele>
        <time>2022-05-01T08:18:22Z</time>
      </trkpt>
      <trkpt lat="49.05177" lon="7.81456">
        <ele>335</ele>
        <time>2022-05-01T08:18:23Z</time>
      </trkpt>
      <trkpt lat="49.05175" lon="7.81454">
        <ele>335.2</ele>
        <time>2022-05-01T08:18:24Z</time>
      </trkpt>
      <trkpt lat="49.05173" lon="7.81452">
        <ele>335.4</ele>
        <time>2022-05-01T08:18:25Z</time>
      </trkpt>
      <trkpt lat="49.05172" lon="7.81451">
        <ele>335.6</ele>
        <time>2022-05-01T08:18:26Z</time>
      </trkpt>
      <trkpt lat="49.05171" lon="7.81449">
        <ele>335.6</ele>
        <time>2022-05-01T08:18:27Z</time>
      </trkpt>
      <trkpt lat="49.05169" lon="7.81448">
        <ele>335.8</ele>
        <time>2022-05-01T08:18:28Z</time>
      </trkpt>
      <trkpt lat="49.05167" lon="7.81445">
        <ele>336</ele>
        <time>2022-05-01T08:18:29Z</time>
      </trkpt>
      <trkpt lat="49.05166" lon="7.81443">
        <ele>336.2</ele>
        <time>2022-05-01T08:18:30Z</time>
      </trkpt>
      <trkpt lat="49.05164" lon="7.81441">
        <ele>336.4</ele>
        <time>2022-05-01T08:18:31Z</time>
      </trkpt>
      <trkpt lat="49.05163" lon="7.81439">
        <ele>336.6</ele>
        <time>2022-05-01T08:18:32Z</time>
      </trkpt>
      <trkpt lat="49.05161" lon="7.81437">
        <ele>336.8</ele>
        <time>2022-05-01T08:18:33Z</time>
      </trkpt>
      <trkpt lat="49.0516" lon="7.81436">
        <ele>337</ele>
        <time>2022-05-01T08:18:34Z</time>
      </trkpt>
      <trkpt lat="49.05159" lon="7.81434">
        <ele>337.4</ele>
        <time>2022-05-01T08:18:35Z</time>
      </trkpt>
      <trkpt lat="49.05157" lon="7.81433">
        <ele>337.4</ele>
        <time>2022-05-01T08:18:36Z</time>
      </trkpt>
      <trkpt lat="49.05156" lon="7.81431">
        <ele>337.8</ele>
        <time>2022-05-01T08:18:37Z</time>
      </trkpt>
      <trkpt lat="49.05156" lon="7.81431">
        <ele>337.8</ele>
        <time>2022-05-01T08:18:38Z</time>
      </trkpt>
      <trkpt lat="49.05155" lon="7.8143">
        <ele>338</ele>
        <time>2022-05-01T08:18:39Z</time>
      </trkpt>
      <trkpt lat="49.05153" lon="7.81428">
        <ele>338.4</ele>
        <time>2022-05-01T08:18:40Z</time>
      </trkpt>
      <trkpt lat="49.05152" lon="7.81427">
        <ele>338.6</ele>
        <time>2022-05-01T08:18:41Z</time>
      </trkpt>
      <trkpt lat="49.0515" lon="7.81424">
        <ele>338.8</ele>
        <time>2022-05-01T08:18:42Z</time>
      </trkpt>
      <trkpt lat="49.05148" lon="7.81421">
        <ele>339</ele>
        <time>2022-05-01T08:18:43Z</time>
      </trkpt>
      <trkpt lat="49.05146" lon="7.81419">
        <ele>339</ele>
        <time>2022-05-01T08:18:44Z</time>
      </trkpt>
      <trkpt lat="49.05145" lon="7.81417">
        <ele>339.2</ele>
        <time>2022-05-01T08:18:45Z</time>
      </trkpt>
      <trkpt lat="49.05142" lon="7.81414">
        <ele>339.4</ele>
        <time>2022-05-01T08:18:46Z</time>
      </trkpt>
      <trkpt lat="49.0514" lon="7.81411">
        <ele>339.6</ele>
        <time>2022-05-01T08:18:47Z</time>
      </trkpt>
      <trkpt lat="49.05139" lon="7.81409">
        <ele>339.8</ele>
        <time>2022-05-01T08:18:48Z</time>
      </trkpt>
      <trkpt lat="49.05137" lon="7.81406">
        <ele>340</ele>
        <time>2022-05-01T08:18:49Z</time>
      </trkpt>
      <trkpt lat="49.05135" lon="7.81404">
        <ele>340.2</ele>
        <time>2022-05-01T08:18:50Z</time>
      </trkpt>
      <trkpt lat="49.05132" lon="7.81401">
        <ele>340.4</ele>
        <time>2022-05-01T08:18:51Z</time>
      </trkpt>
      <trkpt lat="49.05131" lon="7.81399">
        <ele>340.6</ele>
        <time>2022-05-01T08:18:52Z</time>
      </trkpt>
      <trkpt lat="49.05128" lon="7.81396">
        <ele>340.6</ele>
        <time>2022-05-01T08:18:53Z</time>
      </trkpt>
      <trkpt lat="49.05126" lon="7.81394">
        <ele>341</ele>
        <time>2022-05-01T08:18:54Z</time>
      </trkpt>
      <trkpt lat="49.05123" lon="7.81391">
        <ele>341</ele>
        <time>2022-05-01T08:18:55Z</time>
      </trkpt>
      <trkpt lat="49.05122" lon="7.8139">
        <ele>341.2</ele>
        <time>2022-05-01T08:18:56Z</time>
      </trkpt>
      <trkpt lat="49.0512" lon="7.81388">
        <ele>341.6</ele>
        <time>2022-05-01T08:18:57Z</time>
      </trkpt>
      <trkpt lat="49.05119" lon="7.81385">
        <ele>341.8</ele>
        <time>2022-05-01T08:18:58Z</time>
      </trkpt>
      <trkpt lat="49.05117" lon="7.81381">
        <ele>341.8</ele>
        <time>2022-05-01T08:18:59Z</time>
      </trkpt>
      <trkpt lat="49.05114" lon="7.81377">
        <ele>342.2</ele>
        <time>2022-05-01T08:19:00Z</time>
      </trkpt>
      <trkpt lat="49.0511" lon="7.81374">
        <ele>342.2</ele>
        <time>2022-05-01T08:19:01Z</time>
      </trkpt>
      <trkpt lat="49.05108" lon="7.81372">
        <ele>342.4</ele>
        <time>2022-05-01T08:19:02Z</time>
      </trkpt>
      <trkpt lat="49.05104" lon="7.81368">
        <ele>342.8</ele>
        <time>2022-05-01T08:19:03Z</time>
      </trkpt>
      <trkpt lat="49.05101" lon="7.81364">
        <ele>342.8</ele>
        <time>2022-05-01T08:19:04Z</time>
      </trkpt>
      <trkpt lat="49.05098" lon="7.8136">
        <ele>343</ele>
        <time>2022-05-01T08:19:05Z</time>
      </trkpt>
      <trkpt lat="49.05097" lon="7.81357">
        <ele>343.2</ele>
        <time>2022-05-01T08:19:06Z</time>
      </trkpt>
      <trkpt lat="49.05095" lon="7.81354">
        <ele>343.4</ele>
        <time>2022-05-01T08:19:07Z</time>
      </trkpt>
      <trkpt lat="49.05094" lon="7.81351">
        <ele>343.6</ele>
        <time>2022-05-01T08:19:08Z</time>
      </trkpt>
      <trkpt lat="49.05091" lon="7.81348">
        <ele>343.6</ele>
        <time>2022-05-01T08:19:09Z</time>
      </trkpt>
      <trkpt lat="49.05089" lon="7.81343">
        <ele>343.8</ele>
        <time>2022-05-01T08:19:10Z</time>
      </trkpt>
      <trkpt lat="49.05087" lon="7.81339">
        <ele>344</ele>
        <time>2022-05-01T08:19:11Z</time>
      </trkpt>
      <trkpt lat="49.05086" lon="7.81336">
        <ele>344.4</ele>
        <time>2022-05-01T08:19:12Z</time>
      </trkpt>
      <trkpt lat="49.05084" lon="7.81333">
        <ele>344.4</ele>
        <time>2022-05-01T08:19:13Z</time>
      </trkpt>
      <trkpt lat="49.05083" lon="7.8133">
        <ele>344.8</ele>
        <time>2022-05-01T08:19:14Z</time>
      </trkpt>
      <trkpt lat="49.05081" lon="7.81328">
        <ele>344.8</ele>
        <time>2022-05-01T08:19:15Z</time>
      </trkpt>
      <trkpt lat="49.0508" lon="7.81326">
        <ele>345.2</ele>
        <time>2022-05-01T08:19:16Z</time>
      </trkpt>
      <trkpt lat="49.05078" lon="7.81322">
        <ele>345.4</ele>
        <time>2022-05-01T08:19:17Z</time>
      </trkpt>
      <trkpt lat="49.05078" lon="7.8132">
        <ele>345.8</ele>
        <time>2022-05-01T08:19:18Z</time>
      </trkpt>
      <trkpt lat="49.05079" lon="7.81317">
        <ele>346</ele>
        <time>2022-05-01T08:19:19Z</time>
      </trkpt>
      <trkpt lat="49.05078" lon="7.81313">
        <ele>346.2</ele>
        <time>2022-05-01T08:19:20Z</time>
      </trkpt>
      <trkpt lat="49.05078" lon="7.8131">
        <ele>346.4</ele>
        <time>2022-05-01T08:19:21Z</time>
      </trkpt>
      <trkpt lat="49.05077" lon="7.81307">
        <ele>346.6</ele>
        <time>2022-05-01T08:19:22Z</time>
      </trkpt>
      <trkpt lat="49.05077" lon="7.81303">
        <ele>346.8</ele>
        <time>2022-05-01T08:19:23Z</time>
      </trkpt>
      <trkpt lat="49.05077" lon="7.813">
        <ele>347</ele>
        <time>2022-05-01T08:19:24Z</time>
      </trkpt>
      <trkpt lat="49.05077" lon="7.81297">
        <ele>347.2</ele>
        <time>2022-05-01T08:19:25Z</time>
      </trkpt>
      <trkpt lat="49.05077" lon="7.81294">
        <ele>347.6</ele>
        <time>2022-05-01T08:19:26Z</time>
      </trkpt>
      <trkpt lat="49.05077" lon="7.81291">
        <ele>347.6</ele>
        <time>2022-05-01T08:19:27Z</time>
      </trkpt>
      <trkpt lat="49.05077" lon="7.81288">
        <ele>347.8</ele>
        <time>2022-05-01T08:19:28Z</time>
      </trkpt>
      <trkpt lat="49.05077" lon="7.81284">
        <ele>348</ele>
        <time>2022-05-01T08:19:29Z</time>
      </trkpt>
      <trkpt lat="49.05078" lon="7.81281">
        <ele>348</ele>
        <time>2022-05-01T08:19:30Z</time>
      </trkpt>
      <trkpt lat="49.05079" lon="7.81278">
        <ele>348.2</ele>
        <time>2022-05-01T08:19:31Z</time>
      </trkpt>
      <trkpt lat="49.0508" lon="7.81274">
        <ele>348.4</ele>
        <time>2022-05-01T08:19:32Z</time>
      </trkpt>
      <trkpt lat="49.05082" lon="7.81271">
        <ele>348.8</ele>
        <time>2022-05-01T08:19:33Z</time>
      </trkpt>
      <trkpt lat="49.05083" lon="7.81268">
        <ele>349</ele>
        <time>2022-05-01T08:19:34Z</time>
      </trkpt>
      <trkpt lat="49.05083" lon="7.81265">
        <ele>349.2</ele>
        <time>2022-05-01T08:19:35Z</time>
      </trkpt>
      <trkpt lat="49.05084" lon="7.81261">
        <ele>349.2</ele>
        <time>2022-05-01T08:19:36Z</time>
      </trkpt>
      <trkpt lat="49.05085" lon="7.81258">
        <ele>349.4</ele>
        <time>2022-05-01T08:19:37Z</time>
      </trkpt>
      <trkpt lat="49.05086" lon="7.81254">
        <ele>349.6</ele>
        <time>2022-05-01T08:19:38Z</time>
      </trkpt>
      <trkpt lat="49.05087" lon="7.81251">
        <ele>349.8</ele>
        <time>2022-05-01T08:19:39Z</time>
      </trkpt>
      <trkpt lat="49.05088" lon="7.81247">
        <ele>350</ele>
        <time>2022-05-01T08:19:40Z</time>
      </trkpt>
      <trkpt lat="49.0509" lon="7.81244">
        <ele>350.2</ele>
        <time>2022-05-01T08:19:41Z</time>
      </trkpt>
      <trkpt lat="49.05091" lon="7.81239">
        <ele>350.4</ele>
        <time>2022-05-01T08:19:42Z</time>
      </trkpt>
      <trkpt lat="49.05091" lon="7.81236">
        <ele>350.4</ele>
        <time>2022-05-01T08:19:43Z</time>
      </trkpt>
      <trkpt lat="49.05091" lon="7.81232">
        <ele>350.6</ele>
        <time>2022-05-01T08:19:44Z</time>
      </trkpt>
      <trkpt lat="49.05092" lon="7.81229">
        <ele>350.6</ele>
        <time>2022-05-01T08:19:45Z</time>
      </trkpt>
      <trkpt lat="49.05092" lon="7.81225">
        <ele>350.8</ele>
        <time>2022-05-01T08:19:46Z</time>
      </trkpt>
      <trkpt lat="49.05092" lon="7.81222">
        <ele>350.8</ele>
        <time>2022-05-01T08:19:47Z</time>
      </trkpt>
      <trkpt lat="49.05092" lon="7.81218">
        <ele>350.8</ele>
        <time>2022-05-01T08:19:48Z</time>
      </trkpt>
      <trkpt lat="49.05093" lon="7.81214">
        <ele>351</ele>
        <time>2022-05-01T08:19:49Z</time>
      </trkpt>
      <trkpt lat="49.05093" lon="7.81211">
        <ele>351.2</ele>
        <time>2022-05-01T08:19:50Z</time>
      </trkpt>
      <trkpt lat="49.05094" lon="7.81207">
        <ele>351.2</ele>
        <time>2022-05-01T08:19:51Z</time>
      </trkpt>
      <trkpt lat="49.05095" lon="7.81203">
        <ele>351.4</ele>
        <time>2022-05-01T08:19:52Z</time>
      </trkpt>
      <trkpt lat="49.05096" lon="7.812">
        <ele>351.4</ele>
        <time>2022-05-01T08:19:53Z</time>
      </trkpt>
      <trkpt lat="49.05097" lon="7.81196">
        <ele>351.6</ele>
        <time>2022-05-01T08:19:54Z</time>
      </trkpt>
      <trkpt lat="49.05098" lon="7.81193">
        <ele>351.6</ele>
        <time>2022-05-01T08:19:55Z</time>
      </trkpt>
      <trkpt lat="49.051" lon="7.8119">
        <ele>351.8</ele>
        <time>2022-05-01T08:19:56Z</time>
      </trkpt>
      <trkpt lat="49.05102" lon="7.81185">
        <ele>352</ele>
        <time>2022-05-01T08:19:57Z</time>
      </trkpt>
      <trkpt lat="49.05103" lon="7.81181">
        <ele>352</ele>
        <time>2022-05-01T08:19:58Z</time>
      </trkpt>
      <trkpt lat="49.05105" lon="7.81177">
        <ele>352</ele>
        <time>2022-05-01T08:19:59Z</time>
      </trkpt>
      <trkpt lat="49.05106" lon="7.81173">
        <ele>352.2</ele>
        <time>2022-05-01T08:20:00Z</time>
      </trkpt>
      <trkpt lat="49.05107" lon="7.81169">
        <ele>352.4</ele>
        <time>2022-05-01T08:20:01Z</time>
      </trkpt>
      <trkpt lat="49.05108" lon="7.81165">
        <ele>352.6</ele>
        <time>2022-05-01T08:20:02Z</time>
      </trkpt>
      <trkpt lat="49.05111" lon="7.81162">
        <ele>352.8</ele>
        <time>2022-05-01T08:20:03Z</time>
      </trkpt>
      <trkpt lat="49.05113" lon="7.81159">
        <ele>352.8</ele>
        <time>2022-05-01T08:20:04Z</time>
      </trkpt>
      <trkpt lat="49.05115" lon="7.81157">
        <ele>353</ele>
        <time>2022-05-01T08:20:05Z</time>
      </trkpt>
      <trkpt lat="49.05116" lon="7.81154">
        <ele>353</ele>
        <time>2022-05-01T08:20:06Z</time>
      </trkpt>
      <trkpt lat="49.05116" lon="7.81151">
        <ele>353</ele>
        <time>2022-05-01T08:20:07Z</time>
      </trkpt>
      <trkpt lat="49.05118" lon="7.81149">
        <ele>353.2</ele>
        <time>2022-05-01T08:20:08Z</time>
      </trkpt>
      <trkpt lat="49.05121" lon="7.81145">
        <ele>353.2</ele>
        <time>2022-05-01T08:20:09Z</time>
      </trkpt>
      <trkpt lat="49.05123" lon="7.81143">
        <ele>353.2</ele>
        <time>2022-05-01T08:20:10Z</time>
      </trkpt>
      <trkpt lat="49.05125" lon="7.8114">
        <ele>353.4</ele>
        <time>2022-05-01T08:20:11Z</time>
      </trkpt>
      <trkpt lat="49.05127" lon="7.81137">
        <ele>353.4</ele>
        <time>2022-05-01T08:20:12Z</time>
      </trkpt>
      <trkpt lat="49.05129" lon="7.81134">
        <ele>353.6</ele>
        <time>2022-05-01T08:20:13Z</time>
      </trkpt>
      <trkpt lat="49.05132" lon="7.81132">
        <ele>353.8</ele>
        <time>2022-05-01T08:20:14Z</time>
      </trkpt>
      <trkpt lat="49.05134" lon="7.81128">
        <ele>353.8</ele>
        <time>2022-05-01T08:20:15Z</time>
      </trkpt>
      <trkpt lat="49.05136" lon="7.81124">
        <ele>354</ele>
        <time>2022-05-01T08:20:16Z</time>
      </trkpt>
      <trkpt lat="49.05139" lon="7.81121">
        <ele>354</ele>
        <time>2022-05-01T08:20:17Z</time>
      </trkpt>
      <trkpt lat="49.05141" lon="7.81118">
        <ele>354.2</ele>
        <time>2022-05-01T08:20:18Z</time>
      </trkpt>
      <trkpt lat="49.05142" lon="7.81115">
        <ele>354.2</ele>
        <time>2022-05-01T08:20:19Z</time>
      </trkpt>
      <trkpt lat="49.05144" lon="7.81112">
        <ele>354.4</ele>
        <time>2022-05-01T08:20:20Z</time>
      </trkpt>
      <trkpt lat="49.05145" lon="7.81109">
        <ele>354.4</ele>
        <time>2022-05-01T08:20:21Z</time>
      </trkpt>
      <trkpt lat="49.05147" lon="7.81106">
        <ele>354.6</ele>
        <time>2022-05-01T08:20:22Z</time>
      </trkpt>
      <trkpt lat="49.05149" lon="7.81103">
        <ele>354.6</ele>
        <time>2022-05-01T08:20:23Z</time>
      </trkpt>
      <trkpt lat="49.05152" lon="7.811">
        <ele>354.8</ele>
        <time>2022-05-01T08:20:24Z</time>
      </trkpt>
      <trkpt lat="49.05154" lon="7.81097">
        <ele>354.8</ele>
        <time>2022-05-01T08:20:25Z</time>
      </trkpt>
      <trkpt lat="49.05157" lon="7.81094">
        <ele>355</ele>
        <time>2022-05-01T08:20:26Z</time>
      </trkpt>
      <trkpt lat="49.0516" lon="7.81091">
        <ele>355</ele>
        <time>2022-05-01T08:20:27Z</time>
      </trkpt>
      <trkpt lat="49.05161" lon="7.81088">
        <ele>355.2</ele>
        <time>2022-05-01T08:20:28Z</time>
      </trkpt>
      <trkpt lat="49.05163" lon="7.81084">
        <ele>355.4</ele>
        <time>2022-05-01T08:20:29Z</time>
      </trkpt>
      <trkpt lat="49.05167" lon="7.81081">
        <ele>355.4</ele>
        <time>2022-05-01T08:20:30Z</time>
      </trkpt>
      <trkpt lat="49.05169" lon="7.81079">
        <ele>355.6</ele>
        <time>2022-05-01T08:20:31Z</time>
      </trkpt>
      <trkpt lat="49.0517" lon="7.81077">
        <ele>355.6</ele>
        <time>2022-05-01T08:20:32Z</time>
      </trkpt>
      <trkpt lat="49.05172" lon="7.81077">
        <ele>356</ele>
        <time>2022-05-01T08:20:33Z</time>
      </trkpt>
      <trkpt lat="49.05174" lon="7.81075">
        <ele>356.2</ele>
        <time>2022-05-01T08:20:34Z</time>
      </trkpt>
      <trkpt lat="49.05176" lon="7.81074">
        <ele>356.2</ele>
        <time>2022-05-01T08:20:35Z</time>
      </trkpt>
      <trkpt lat="49.05178" lon="7.81072">
        <ele>356.4</ele>
        <time>2022-05-01T08:20:36Z</time>
      </trkpt>
      <trkpt lat="49.0518" lon="7.81071">
        <ele>356.6</ele>
        <time>2022-05-01T08:20:37Z</time>
      </trkpt>
      <trkpt lat="49.05182" lon="7.81071">
        <ele>356.6</ele>
        <time>2022-05-01T08:20:38Z</time>
      </trkpt>
      <trkpt lat="49.05184" lon="7.81069">
        <ele>356.8</ele>
        <time>2022-05-01T08:20:39Z</time>
      </trkpt>
      <trkpt lat="49.05186" lon="7.81069">
        <ele>357</ele>
        <time>2022-05-01T08:20:40Z</time>
      </trkpt>
      <trkpt lat="49.05188" lon="7.81068">
        <ele>357</ele>
        <time>2022-05-01T08:20:41Z</time>
      </trkpt>
      <trkpt lat="49.05189" lon="7.81068">
        <ele>357.2</ele>
        <time>2022-05-01T08:20:42Z</time>
      </trkpt>
      <trkpt lat="49.05191" lon="7.81067">
        <ele>357.4</ele>
        <time>2022-05-01T08:20:43Z</time>
      </trkpt>
      <trkpt lat="49.05193" lon="7.81066">
        <ele>357.4</ele>
        <time>2022-05-01T08:20:44Z</time>
      </trkpt>
      <trkpt lat="49.05197" lon="7.81064">
        <ele>357.4</ele>
        <time>2022-05-01T08:20:45Z</time>
      </trkpt>
      <trkpt lat="49.05201" lon="7.81062">
        <ele>357.6</ele>
        <time>2022-05-01T08:20:46Z</time>
      </trkpt>
      <trkpt lat="49.05204" lon="7.8106">
        <ele>357.8</ele>
        <time>2022-05-01T08:20:47Z</time>
      </trkpt>
      <trkpt lat="49.05206" lon="7.81058">
        <ele>357.8</ele>
        <time>2022-05-01T08:20:48Z</time>
      </trkpt>
      <trkpt lat="49.05209" lon="7.81057">
        <ele>358</ele>
        <time>2022-05-01T08:20:49Z</time>
      </trkpt>
      <trkpt lat="49.05213" lon="7.81055">
        <ele>358</ele>
        <time>2022-05-01T08:20:50Z</time>
      </trkpt>
      <trkpt lat="49.05215" lon="7.81053">
        <ele>358.2</ele>
        <time>2022-05-01T08:20:51Z</time>
      </trkpt>
      <trkpt lat="49.05217" lon="7.81052">
        <ele>358.2</ele>
        <time>2022-05-01T08:20:52Z</time>
      </trkpt>
      <trkpt lat="49.0522" lon="7.8105">
        <ele>358.4</ele>
        <time>2022-05-01T08:20:53Z</time>
      </trkpt>
      <trkpt lat="49.05223" lon="7.81049">
        <ele>358.6</ele>
        <time>2022-05-01T08:20:54Z</time>
      </trkpt>
      <trkpt lat="49.05226" lon="7.81049">
        <ele>358.6</ele>
        <time>2022-05-01T08:20:55Z</time>
      </trkpt>
      <trkpt lat="49.05229" lon="7.81048">
        <ele>359</ele>
        <time>2022-05-01T08:20:56Z</time>
      </trkpt>
      <trkpt lat="49.05232" lon="7.81047">
        <ele>359.2</ele>
        <time>2022-05-01T08:20:57Z</time>
      </trkpt>
      <trkpt lat="49.05235" lon="7.81046">
        <ele>359.2</ele>
        <time>2022-05-01T08:20:58Z</time>
      </trkpt>
      <trkpt lat="49.05237" lon="7.81045">
        <ele>359.4</ele>
        <time>2022-05-01T08:20:59Z</time>
      </trkpt>
      <trkpt lat="49.0524" lon="7.81044">
        <ele>359.4</ele>
        <time>2022-05-01T08:21:00Z</time>
      </trkpt>
      <trkpt lat="49.05243" lon="7.81043">
        <ele>359.6</ele>
        <time>2022-05-01T08:21:01Z</time>
      </trkpt>
      <trkpt lat="49.05246" lon="7.81042">
        <ele>359.6</ele>
        <time>2022-05-01T08:21:02Z</time>
      </trkpt>
      <trkpt lat="49.05248" lon="7.81041">
        <ele>359.8</ele>
        <time>2022-05-01T08:21:03Z</time>
      </trkpt>
      <trkpt lat="49.05251" lon="7.8104">
        <ele>359.8</ele>
        <time>2022-05-01T08:21:04Z</time>
      </trkpt>
      <trkpt lat="49.05254" lon="7.81037">
        <ele>360</ele>
        <time>2022-05-01T08:21:05Z</time>
      </trkpt>
      <trkpt lat="49.05256" lon="7.81034">
        <ele>360</ele>
        <time>2022-05-01T08:21:06Z</time>
      </trkpt>
      <trkpt lat="49.05258" lon="7.81031">
        <ele>360.2</ele>
        <time>2022-05-01T08:21:07Z</time>
      </trkpt>
      <trkpt lat="49.05261" lon="7.81027">
        <ele>360.2</ele>
        <time>2022-05-01T08:21:08Z</time>
      </trkpt>
      <trkpt lat="49.05264" lon="7.81025">
        <ele>360.4</ele>
        <time>2022-05-01T08:21:09Z</time>
      </trkpt>
      <trkpt lat="49.05266" lon="7.81023">
        <ele>360.6</ele>
        <time>2022-05-01T08:21:10Z</time>
      </trkpt>
      <trkpt lat="49.05269" lon="7.81021">
        <ele>360.8</ele>
        <time>2022-05-01T08:21:11Z</time>
      </trkpt>
      <trkpt lat="49.05271" lon="7.81019">
        <ele>360.8</ele>
        <time>2022-05-01T08:21:12Z</time>
      </trkpt>
      <trkpt lat="49.05274" lon="7.81017">
        <ele>361</ele>
        <time>2022-05-01T08:21:13Z</time>
      </trkpt>
      <trkpt lat="49.05276" lon="7.81016">
        <ele>361</ele>
        <time>2022-05-01T08:21:14Z</time>
      </trkpt>
      <trkpt lat="49.05279" lon="7.81014">
        <ele>361.2</ele>
        <time>2022-05-01T08:21:15Z</time>
      </trkpt>
      <trkpt lat="49.0528" lon="7.81012">
        <ele>361.4</ele>
        <time>2022-05-01T08:21:16Z</time>
      </trkpt>
      <trkpt lat="49.05283" lon="7.8101">
        <ele>361.4</ele>
        <time>2022-05-01T08:21:17Z</time>
      </trkpt>
      <trkpt lat="49.05286" lon="7.81008">
        <ele>361.6</ele>
        <time>2022-05-01T08:21:18Z</time>
      </trkpt>
      <trkpt lat="49.05288" lon="7.81006">
        <ele>361.8</ele>
        <time>2022-05-01T08:21:19Z</time>
      </trkpt>
      <trkpt lat="49.0529" lon="7.81004">
        <ele>362</ele>
        <time>2022-05-01T08:21:20Z</time>
      </trkpt>
      <trkpt lat="49.05293" lon="7.81002">
        <ele>362.2</ele>
        <time>2022-05-01T08:21:21Z</time>
      </trkpt>
      <trkpt lat="49.05295" lon="7.80999">
        <ele>362.2</ele>
        <time>2022-05-01T08:21:22Z</time>
      </trkpt>
      <trkpt lat="49.05298" lon="7.80997">
        <ele>362.4</ele>
        <time>2022-05-01T08:21:23Z</time>
      </trkpt>
      <trkpt lat="49.053" lon="7.80994">
        <ele>362.4</ele>
        <time>2022-05-01T08:21:24Z</time>
      </trkpt>
      <trkpt lat="49.05303" lon="7.80993">
        <ele>362.6</ele>
        <time>2022-05-01T08:21:25Z</time>
      </trkpt>
      <trkpt lat="49.05306" lon="7.80991">
        <ele>362.6</ele>
        <time>2022-05-01T08:21:26Z</time>
      </trkpt>
      <trkpt lat="49.05309" lon="7.80989">
        <ele>362.8</ele>
        <time>2022-05-01T08:21:27Z</time>
      </trkpt>
      <trkpt lat="49.05312" lon="7.80987">
        <ele>363</ele>
        <time>2022-05-01T08:21:28Z</time>
      </trkpt>
      <trkpt lat="49.05314" lon="7.80986">
        <ele>363</ele>
        <time>2022-05-01T08:21:29Z</time>
      </trkpt>
      <trkpt lat="49.05318" lon="7.80985">
        <ele>363.2</ele>
        <time>2022-05-01T08:21:30Z</time>
      </trkpt>
      <trkpt lat="49.05321" lon="7.80983">
        <ele>363.2</ele>
        <time>2022-05-01T08:21:31Z</time>
      </trkpt>
      <trkpt lat="49.05323" lon="7.80981">
        <ele>363.4</ele>
        <time>2022-05-01T08:21:32Z</time>
      </trkpt>
      <trkpt lat="49.05326" lon="7.8098">
        <ele>363.4</ele>
        <time>2022-05-01T08:21:33Z</time>
      </trkpt>
      <trkpt lat="49.05328" lon="7.8098">
        <ele>363.4</ele>
        <time>2022-05-01T08:21:34Z</time>
      </trkpt>
      <trkpt lat="49.05331" lon="7.80978">
        <ele>363.2</ele>
        <time>2022-05-01T08:21:35Z</time>
      </trkpt>
      <trkpt lat="49.05333" lon="7.80978">
        <ele>363.4</ele>
        <time>2022-05-01T08:21:36Z</time>
      </trkpt>
      <trkpt lat="49.05336" lon="7.80977">
        <ele>363.4</ele>
        <time>2022-05-01T08:21:37Z</time>
      </trkpt>
      <trkpt lat="49.05339" lon="7.80977">
        <ele>363.6</ele>
        <time>2022-05-01T08:21:38Z</time>
      </trkpt>
      <trkpt lat="49.05341" lon="7.80976">
        <ele>363.6</ele>
        <time>2022-05-01T08:21:39Z</time>
      </trkpt>
      <trkpt lat="49.05344" lon="7.80976">
        <ele>363.8</ele>
        <time>2022-05-01T08:21:40Z</time>
      </trkpt>
      <trkpt lat="49.05347" lon="7.80975">
        <ele>364</ele>
        <time>2022-05-01T08:21:41Z</time>
      </trkpt>
      <trkpt lat="49.05349" lon="7.80974">
        <ele>364</ele>
        <time>2022-05-01T08:21:42Z</time>
      </trkpt>
      <trkpt lat="49.05351" lon="7.80973">
        <ele>364.2</ele>
        <time>2022-05-01T08:21:43Z</time>
      </trkpt>
      <trkpt lat="49.05354" lon="7.80973">
        <ele>364.2</ele>
        <time>2022-05-01T08:21:44Z</time>
      </trkpt>
      <trkpt lat="49.05356" lon="7.80972">
        <ele>364.4</ele>
        <time>2022-05-01T08:21:45Z</time>
      </trkpt>
      <trkpt lat="49.05357" lon="7.80971">
        <ele>364.6</ele>
        <time>2022-05-01T08:21:46Z</time>
      </trkpt>
      <trkpt lat="49.05357" lon="7.80971">
        <ele>364.6</ele>
        <time>2022-05-01T08:21:47Z</time>
      </trkpt>
      <trkpt lat="49.05358" lon="7.8097">
        <ele>364.8</ele>
        <time>2022-05-01T08:21:48Z</time>
      </trkpt>
      <trkpt lat="49.05361" lon="7.80968">
        <ele>364.8</ele>
        <time>2022-05-01T08:21:49Z</time>
      </trkpt>
      <trkpt lat="49.05362" lon="7.80968">
        <ele>365</ele>
        <time>2022-05-01T08:21:50Z</time>
      </trkpt>
      <trkpt lat="49.05363" lon="7.80966">
        <ele>365</ele>
        <time>2022-05-01T08:21:51Z</time>
      </trkpt>
      <trkpt lat="49.05365" lon="7.80965">
        <ele>365.2</ele>
        <time>2022-05-01T08:21:52Z</time>
      </trkpt>
      <trkpt lat="49.05368" lon="7.80963">
        <ele>365.2</ele>
        <time>2022-05-01T08:21:53Z</time>
      </trkpt>
      <trkpt lat="49.05373" lon="7.80961">
        <ele>365.4</ele>
        <time>2022-05-01T08:21:54Z</time>
      </trkpt>
      <trkpt lat="49.05377" lon="7.80959">
        <ele>365.4</ele>
        <time>2022-05-01T08:21:55Z</time>
      </trkpt>
      <trkpt lat="49.05379" lon="7.80957">
        <ele>365.6</ele>
        <time>2022-05-01T08:21:56Z</time>
      </trkpt>
      <trkpt lat="49.05382" lon="7.80956">
        <ele>365.6</ele>
        <time>2022-05-01T08:21:57Z</time>
      </trkpt>
      <trkpt lat="49.05386" lon="7.80956">
        <ele>365.8</ele>
        <time>2022-05-01T08:21:58Z</time>
      </trkpt>
      <trkpt lat="49.05391" lon="7.80954">
        <ele>365.8</ele>
        <time>2022-05-01T08:21:59Z</time>
      </trkpt>
      <trkpt lat="49.05395" lon="7.80953">
        <ele>366</ele>
        <time>2022-05-01T08:22:00Z</time>
      </trkpt>
      <trkpt lat="49.05397" lon="7.80952">
        <ele>366.2</ele>
        <time>2022-05-01T08:22:01Z</time>
      </trkpt>
      <trkpt lat="49.054" lon="7.80951">
        <ele>366.2</ele>
        <time>2022-05-01T08:22:02Z</time>
      </trkpt>
      <trkpt lat="49.05402" lon="7.80951">
        <ele>366.4</ele>
        <time>2022-05-01T08:22:03Z</time>
      </trkpt>
      <trkpt lat="49.05405" lon="7.80952">
        <ele>366.6</ele>
        <time>2022-05-01T08:22:04Z</time>
      </trkpt>
      <trkpt lat="49.05409" lon="7.80952">
        <ele>366.6</ele>
        <time>2022-05-01T08:22:05Z</time>
      </trkpt>
      <trkpt lat="49.05418" lon="7.8095">
        <ele>366.8</ele>
        <time>2022-05-01T08:22:06Z</time>
      </trkpt>
      <trkpt lat="49.05423" lon="7.80948">
        <ele>367</ele>
        <time>2022-05-01T08:22:07Z</time>
      </trkpt>
      <trkpt lat="49.05425" lon="7.80947">
        <ele>367</ele>
        <time>2022-05-01T08:22:08Z</time>
      </trkpt>
      <trkpt lat="49.05429" lon="7.80946">
        <ele>367.2</ele>
        <time>2022-05-01T08:22:09Z</time>
      </trkpt>
      <trkpt lat="49.05432" lon="7.80946">
        <ele>367.2</ele>
        <time>2022-05-01T08:22:10Z</time>
      </trkpt>
      <trkpt lat="49.05436" lon="7.80946">
        <ele>367.4</ele>
        <time>2022-05-01T08:22:11Z</time>
      </trkpt>
      <trkpt lat="49.05439" lon="7.80946">
        <ele>367.6</ele>
        <time>2022-05-01T08:22:12Z</time>
      </trkpt>
      <trkpt lat="49.05441" lon="7.80945">
        <ele>367.6</ele>
        <time>2022-05-01T08:22:13Z</time>
      </trkpt>
      <trkpt lat="49.05442" lon="7.80947">
        <ele>367.8</ele>
        <time>2022-05-01T08:22:14Z</time>
      </trkpt>
      <trkpt lat="49.05444" lon="7.80949">
        <ele>368</ele>
        <time>2022-05-01T08:22:15Z</time>
      </trkpt>
      <trkpt lat="49.05447" lon="7.80949">
        <ele>368</ele>
        <time>2022-05-01T08:22:16Z</time>
      </trkpt>
      <trkpt lat="49.05449" lon="7.8095">
        <ele>368.2</ele>
        <time>2022-05-01T08:22:17Z</time>
      </trkpt>
      <trkpt lat="49.05453" lon="7.8095">
        <ele>368.4</ele>
        <time>2022-05-01T08:22:18Z</time>
      </trkpt>
      <trkpt lat="49.05456" lon="7.8095">
        <ele>368.4</ele>
        <time>2022-05-01T08:22:19Z</time>
      </trkpt>
      <trkpt lat="49.05459" lon="7.80951">
        <ele>368.6</ele>
        <time>2022-05-01T08:22:20Z</time>
      </trkpt>
      <trkpt lat="49.05462" lon="7.80952">
        <ele>368.6</ele>
        <time>2022-05-01T08:22:21Z</time>
      </trkpt>
      <trkpt lat="49.05464" lon="7.80952">
        <ele>368.6</ele>
        <time>2022-05-01T08:22:22Z</time>
      </trkpt>
      <trkpt lat="49.05467" lon="7.80953">
        <ele>368.8</ele>
        <time>2022-05-01T08:22:23Z</time>
      </trkpt>
      <trkpt lat="49.0547" lon="7.80954">
        <ele>369</ele>
        <time>2022-05-01T08:22:24Z</time>
      </trkpt>
      <trkpt lat="49.05473" lon="7.80953">
        <ele>369</ele>
        <time>2022-05-01T08:22:25Z</time>
      </trkpt>
      <trkpt lat="49.05475" lon="7.80954">
        <ele>369.2</ele>
        <time>2022-05-01T08:22:26Z</time>
      </trkpt>
      <trkpt lat="49.05478" lon="7.80954">
        <ele>369.2</ele>
        <time>2022-05-01T08:22:27Z</time>
      </trkpt>
      <trkpt lat="49.05481" lon="7.80955">
        <ele>369.4</ele>
        <time>2022-05-01T08:22:28Z</time>
      </trkpt>
      <trkpt lat="49.05484" lon="7.80955">
        <ele>369.4</ele>
        <time>2022-05-01T08:22:29Z</time>
      </trkpt>
      <trkpt lat="49.05486" lon="7.80955">
        <ele>369.6</ele>
        <time>2022-05-01T08:22:30Z</time>
      </trkpt>
      <trkpt lat="49.05489" lon="7.80955">
        <ele>369.8</ele>
        <time>2022-05-01T08:22:31Z</time>
      </trkpt>
      <trkpt lat="49.05491" lon="7.80955">
        <ele>369.8</ele>
        <time>2022-05-01T08:22:32Z</time>
      </trkpt>
      <trkpt lat="49.05493" lon="7.80955">
        <ele>369.8</ele>
        <time>2022-05-01T08:22:33Z</time>
      </trkpt>
      <trkpt lat="49.05496" lon="7.80955">
        <ele>370</ele>
        <time>2022-05-01T08:22:34Z</time>
      </trkpt>
      <trkpt lat="49.05498" lon="7.80955">
        <ele>370.2</ele>
        <time>2022-05-01T08:22:35Z</time>
      </trkpt>
      <trkpt lat="49.055" lon="7.80955">
        <ele>370.4</ele>
        <time>2022-05-01T08:22:36Z</time>
      </trkpt>
      <trkpt lat="49.05503" lon="7.80955">
        <ele>370.6</ele>
        <time>2022-05-01T08:22:37Z</time>
      </trkpt>
      <trkpt lat="49.05505" lon="7.80955">
        <ele>370.8</ele>
        <time>2022-05-01T08:22:38Z</time>
      </trkpt>
      <trkpt lat="49.05508" lon="7.80955">
        <ele>370.8</ele>
        <time>2022-05-01T08:22:39Z</time>
      </trkpt>
      <trkpt lat="49.05512" lon="7.80955">
        <ele>371</ele>
        <time>2022-05-01T08:22:40Z</time>
      </trkpt>
      <trkpt lat="49.05515" lon="7.80955">
        <ele>371.2</ele>
        <time>2022-05-01T08:22:41Z</time>
      </trkpt>
      <trkpt lat="49.05517" lon="7.80955">
        <ele>371.4</ele>
        <time>2022-05-01T08:22:42Z</time>
      </trkpt>
      <trkpt lat="49.0552" lon="7.80955">
        <ele>371.4</ele>
        <time>2022-05-01T08:22:43Z</time>
      </trkpt>
      <trkpt lat="49.05524" lon="7.80955">
        <ele>371.4</ele>
        <time>2022-05-01T08:22:44Z</time>
      </trkpt>
      <trkpt lat="49.05527" lon="7.80955">
        <ele>371.6</ele>
        <time>2022-05-01T08:22:45Z</time>
      </trkpt>
      <trkpt lat="49.05529" lon="7.80955">
        <ele>371.6</ele>
        <time>2022-05-01T08:22:46Z</time>
      </trkpt>
      <trkpt lat="49.05532" lon="7.80955">
        <ele>371.8</ele>
        <time>2022-05-01T08:22:47Z</time>
      </trkpt>
      <trkpt lat="49.05535" lon="7.80955">
        <ele>371.8</ele>
        <time>2022-05-01T08:22:48Z</time>
      </trkpt>
      <trkpt lat="49.05538" lon="7.80955">
        <ele>372</ele>
        <time>2022-05-01T08:22:49Z</time>
      </trkpt>
      <trkpt lat="49.05542" lon="7.80955">
        <ele>372.2</ele>
        <time>2022-05-01T08:22:50Z</time>
      </trkpt>
      <trkpt lat="49.05545" lon="7.80955">
        <ele>372.2</ele>
        <time>2022-05-01T08:22:51Z</time>
      </trkpt>
      <trkpt lat="49.05549" lon="7.80954">
        <ele>372.4</ele>
        <time>2022-05-01T08:22:52Z</time>
      </trkpt>
      <trkpt lat="49.05553" lon="7.80954">
        <ele>372.6</ele>
        <time>2022-05-01T08:22:53Z</time>
      </trkpt>
      <trkpt lat="49.05557" lon="7.80954">
        <ele>372.6</ele>
        <time>2022-05-01T08:22:54Z</time>
      </trkpt>
      <trkpt lat="49.05559" lon="7.80954">
        <ele>372.8</ele>
        <time>2022-05-01T08:22:55Z</time>
      </trkpt>
      <trkpt lat="49.05562" lon="7.80953">
        <ele>373</ele>
        <time>2022-05-01T08:22:56Z</time>
      </trkpt>
      <trkpt lat="49.05566" lon="7.80952">
        <ele>373</ele>
        <time>2022-05-01T08:22:57Z</time>
      </trkpt>
      <trkpt lat="49.0557" lon="7.80952">
        <ele>373.2</ele>
        <time>2022-05-01T08:22:58Z</time>
      </trkpt>
      <trkpt lat="49.05574" lon="7.80953">
        <ele>373.4</ele>
        <time>2022-05-01T08:22:59Z</time>
      </trkpt>
      <trkpt lat="49.05578" lon="7.80952">
        <ele>373.6</ele>
        <time>2022-05-01T08:23:00Z</time>
      </trkpt>
      <trkpt lat="49.05581" lon="7.80952">
        <ele>373.8</ele>
        <time>2022-05-01T08:23:01Z</time>
      </trkpt>
      <trkpt lat="49.05584" lon="7.80952">
        <ele>373.8</ele>
        <time>2022-05-01T08:23:02Z</time>
      </trkpt>
      <trkpt lat="49.05587" lon="7.80951">
        <ele>374</ele>
        <time>2022-05-01T08:23:03Z</time>
      </trkpt>
      <trkpt lat="49.05591" lon="7.80951">
        <ele>374.2</ele>
        <time>2022-05-01T08:23:04Z</time>
      </trkpt>
      <trkpt lat="49.05595" lon="7.80952">
        <ele>374.2</ele>
        <time>2022-05-01T08:23:05Z</time>
      </trkpt>
      <trkpt lat="49.05598" lon="7.80953">
        <ele>374.4</ele>
        <time>2022-05-01T08:23:06Z</time>
      </trkpt>
      <trkpt lat="49.05601" lon="7.80951">
        <ele>374.4</ele>
        <time>2022-05-01T08:23:07Z</time>
      </trkpt>
      <trkpt lat="49.05603" lon="7.8095">
        <ele>374.6</ele>
        <time>2022-05-01T08:23:08Z</time>
      </trkpt>
      <trkpt lat="49.05606" lon="7.80948">
        <ele>374.6</ele>
        <time>2022-05-01T08:23:09Z</time>
      </trkpt>
      <trkpt lat="49.05609" lon="7.80946">
        <ele>374.8</ele>
        <time>2022-05-01T08:23:10Z</time>
      </trkpt>
      <trkpt lat="49.05612" lon="7.80946">
        <ele>375</ele>
        <time>2022-05-01T08:23:11Z</time>
      </trkpt>
      <trkpt lat="49.05615" lon="7.80946">
        <ele>375</ele>
        <time>2022-05-01T08:23:12Z</time>
      </trkpt>
      <trkpt lat="49.05618" lon="7.80945">
        <ele>375</ele>
        <time>2022-05-01T08:23:13Z</time>
      </trkpt>
      <trkpt lat="49.05622" lon="7.80944">
        <ele>375.2</ele>
        <time>2022-05-01T08:23:14Z</time>
      </trkpt>
      <trkpt lat="49.05625" lon="7.80944">
        <ele>375.4</ele>
        <time>2022-05-01T08:23:15Z</time>
      </trkpt>
      <trkpt lat="49.05627" lon="7.80943">
        <ele>375.4</ele>
        <time>2022-05-01T08:23:16Z</time>
      </trkpt>
      <trkpt lat="49.0563" lon="7.80942">
        <ele>375.6</ele>
        <time>2022-05-01T08:23:17Z</time>
      </trkpt>
      <trkpt lat="49.05631" lon="7.80942">
        <ele>375.6</ele>
        <time>2022-05-01T08:23:18Z</time>
      </trkpt>
      <trkpt lat="49.05633" lon="7.80941">
        <ele>375.8</ele>
        <time>2022-05-01T08:23:19Z</time>
      </trkpt>
      <trkpt lat="49.05635" lon="7.8094">
        <ele>376</ele>
        <time>2022-05-01T08:23:20Z</time>
      </trkpt>
      <trkpt lat="49.05637" lon="7.80939">
        <ele>376</ele>
        <time>2022-05-01T08:23:21Z</time>
      </trkpt>
      <trkpt lat="49.0564" lon="7.80938">
        <ele>376.4</ele>
        <time>2022-05-01T08:23:22Z</time>
      </trkpt>
      <trkpt lat="49.05642" lon="7.80937">
        <ele>376.4</ele>
        <time>2022-05-01T08:23:23Z</time>
      </trkpt>
      <trkpt lat="49.05643" lon="7.80937">
        <ele>376.6</ele>
        <time>2022-05-01T08:23:24Z</time>
      </trkpt>
      <trkpt lat="49.05645" lon="7.80936">
        <ele>376.8</ele>
        <time>2022-05-01T08:23:25Z</time>
      </trkpt>
      <trkpt lat="49.05648" lon="7.80935">
        <ele>376.8</ele>
        <time>2022-05-01T08:23:26Z</time>
      </trkpt>
      <trkpt lat="49.0565" lon="7.80934">
        <ele>377</ele>
        <time>2022-05-01T08:23:27Z</time>
      </trkpt>
      <trkpt lat="49.05652" lon="7.80934">
        <ele>377</ele>
        <time>2022-05-01T08:23:28Z</time>
      </trkpt>
      <trkpt lat="49.05657" lon="7.80933">
        <ele>377.2</ele>
        <time>2022-05-01T08:23:29Z</time>
      </trkpt>
      <trkpt lat="49.05661" lon="7.80932">
        <ele>377.4</ele>
        <time>2022-05-01T08:23:30Z</time>
      </trkpt>
      <trkpt lat="49.05663" lon="7.80931">
        <ele>377.4</ele>
        <time>2022-05-01T08:23:31Z</time>
      </trkpt>
      <trkpt lat="49.05666" lon="7.8093">
        <ele>377.6</ele>
        <time>2022-05-01T08:23:32Z</time>
      </trkpt>
      <trkpt lat="49.05669" lon="7.80929">
        <ele>377.8</ele>
        <time>2022-05-01T08:23:33Z</time>
      </trkpt>
      <trkpt lat="49.05672" lon="7.80928">
        <ele>378</ele>
        <time>2022-05-01T08:23:34Z</time>
      </trkpt>
      <trkpt lat="49.05674" lon="7.80928">
        <ele>378.2</ele>
        <time>2022-05-01T08:23:35Z</time>
      </trkpt>
      <trkpt lat="49.0568" lon="7.80927">
        <ele>378.2</ele>
        <time>2022-05-01T08:23:36Z</time>
      </trkpt>
      <trkpt lat="49.05684" lon="7.80927">
        <ele>378.4</ele>
        <time>2022-05-01T08:23:37Z</time>
      </trkpt>
      <trkpt lat="49.05685" lon="7.80926">
        <ele>378.6</ele>
        <time>2022-05-01T08:23:38Z</time>
      </trkpt>
      <trkpt lat="49.05688" lon="7.80924">
        <ele>378.6</ele>
        <time>2022-05-01T08:23:39Z</time>
      </trkpt>
      <trkpt lat="49.05691" lon="7.80925">
        <ele>378.8</ele>
        <time>2022-05-01T08:23:40Z</time>
      </trkpt>
      <trkpt lat="49.05696" lon="7.80924">
        <ele>379</ele>
        <time>2022-05-01T08:23:41Z</time>
      </trkpt>
      <trkpt lat="49.05701" lon="7.80923">
        <ele>379</ele>
        <time>2022-05-01T08:23:42Z</time>
      </trkpt>
      <trkpt lat="49.05705" lon="7.80922">
        <ele>379</ele>
        <time>2022-05-01T08:23:43Z</time>
      </trkpt>
      <trkpt lat="49.05709" lon="7.8092">
        <ele>379.2</ele>
        <time>2022-05-01T08:23:44Z</time>
      </trkpt>
      <trkpt lat="49.05711" lon="7.80919">
        <ele>379.4</ele>
        <time>2022-05-01T08:23:45Z</time>
      </trkpt>
      <trkpt lat="49.05715" lon="7.80918">
        <ele>379.4</ele>
        <time>2022-05-01T08:23:46Z</time>
      </trkpt>
      <trkpt lat="49.05719" lon="7.80918">
        <ele>379.6</ele>
        <time>2022-05-01T08:23:47Z</time>
      </trkpt>
      <trkpt lat="49.05721" lon="7.80918">
        <ele>379.6</ele>
        <time>2022-05-01T08:23:48Z</time>
      </trkpt>
      <trkpt lat="49.05723" lon="7.80916">
        <ele>379.8</ele>
        <time>2022-05-01T08:23:49Z</time>
      </trkpt>
      <trkpt lat="49.05725" lon="7.80914">
        <ele>380</ele>
        <time>2022-05-01T08:23:50Z</time>
      </trkpt>
      <trkpt lat="49.05728" lon="7.80913">
        <ele>380.2</ele>
        <time>2022-05-01T08:23:51Z</time>
      </trkpt>
      <trkpt lat="49.05731" lon="7.80911">
        <ele>380.4</ele>
        <time>2022-05-01T08:23:52Z</time>
      </trkpt>
      <trkpt lat="49.05734" lon="7.8091">
        <ele>380.4</ele>
        <time>2022-05-01T08:23:53Z</time>
      </trkpt>
      <trkpt lat="49.05737" lon="7.80908">
        <ele>380.6</ele>
        <time>2022-05-01T08:23:54Z</time>
      </trkpt>
      <trkpt lat="49.05739" lon="7.80906">
        <ele>380.6</ele>
        <time>2022-05-01T08:23:55Z</time>
      </trkpt>
      <trkpt lat="49.05741" lon="7.80905">
        <ele>380.8</ele>
        <time>2022-05-01T08:23:56Z</time>
      </trkpt>
      <trkpt lat="49.05744" lon="7.80904">
        <ele>380.8</ele>
        <time>2022-05-01T08:23:57Z</time>
      </trkpt>
      <trkpt lat="49.05747" lon="7.80905">
        <ele>381</ele>
        <time>2022-05-01T08:23:58Z</time>
      </trkpt>
      <trkpt lat="49.05749" lon="7.80905">
        <ele>381</ele>
        <time>2022-05-01T08:23:59Z</time>
      </trkpt>
      <trkpt lat="49.05752" lon="7.80904">
        <ele>381.2</ele>
        <time>2022-05-01T08:24:00Z</time>
      </trkpt>
      <trkpt lat="49.05755" lon="7.80903">
        <ele>381.2</ele>
        <time>2022-05-01T08:24:01Z</time>
      </trkpt>
      <trkpt lat="49.05758" lon="7.80902">
        <ele>381.4</ele>
        <time>2022-05-01T08:24:02Z</time>
      </trkpt>
      <trkpt lat="49.0576" lon="7.80901">
        <ele>381.2</ele>
        <time>2022-05-01T08:24:03Z</time>
      </trkpt>
      <trkpt lat="49.05763" lon="7.809">
        <ele>381.4</ele>
        <time>2022-05-01T08:24:04Z</time>
      </trkpt>
      <trkpt lat="49.05764" lon="7.80899">
        <ele>381.4</ele>
        <time>2022-05-01T08:24:05Z</time>
      </trkpt>
      <trkpt lat="49.05767" lon="7.80898">
        <ele>381.6</ele>
        <time>2022-05-01T08:24:06Z</time>
      </trkpt>
      <trkpt lat="49.0577" lon="7.80897">
        <ele>381.6</ele>
        <time>2022-05-01T08:24:07Z</time>
      </trkpt>
      <trkpt lat="49.05773" lon="7.80896">
        <ele>381.8</ele>
        <time>2022-05-01T08:24:08Z</time>
      </trkpt>
      <trkpt lat="49.05775" lon="7.80895">
        <ele>382</ele>
        <time>2022-05-01T08:24:09Z</time>
      </trkpt>
      <trkpt lat="49.05778" lon="7.80893">
        <ele>382.2</ele>
        <time>2022-05-01T08:24:10Z</time>
      </trkpt>
      <trkpt lat="49.0578" lon="7.80892">
        <ele>382.2</ele>
        <time>2022-05-01T08:24:11Z</time>
      </trkpt>
      <trkpt lat="49.05781" lon="7.8089">
        <ele>382.2</ele>
        <time>2022-05-01T08:24:12Z</time>
      </trkpt>
      <trkpt lat="49.05782" lon="7.80889">
        <ele>382.4</ele>
        <time>2022-05-01T08:24:13Z</time>
      </trkpt>
      <trkpt lat="49.05785" lon="7.80887">
        <ele>382.6</ele>
        <time>2022-05-01T08:24:14Z</time>
      </trkpt>
      <trkpt lat="49.05789" lon="7.80886">
        <ele>382.8</ele>
        <time>2022-05-01T08:24:15Z</time>
      </trkpt>
      <trkpt lat="49.05792" lon="7.80885">
        <ele>382.8</ele>
        <time>2022-05-01T08:24:16Z</time>
      </trkpt>
      <trkpt lat="49.05794" lon="7.80884">
        <ele>383.2</ele>
        <time>2022-05-01T08:24:17Z</time>
      </trkpt>
      <trkpt lat="49.05795" lon="7.80884">
        <ele>383.2</ele>
        <time>2022-05-01T08:24:18Z</time>
      </trkpt>
      <trkpt lat="49.05796" lon="7.80883">
        <ele>383.4</ele>
        <time>2022-05-01T08:24:19Z</time>
      </trkpt>
      <trkpt lat="49.05797" lon="7.80883">
        <ele>383.6</ele>
        <time>2022-05-01T08:24:20Z</time>
      </trkpt>
      <trkpt lat="49.05798" lon="7.80883">
        <ele>383.8</ele>
        <time>2022-05-01T08:24:21Z</time>
      </trkpt>
      <trkpt lat="49.05799" lon="7.80882">
        <ele>383.8</ele>
        <time>2022-05-01T08:24:22Z</time>
      </trkpt>
      <trkpt lat="49.058" lon="7.80882">
        <ele>383.8</ele>
        <time>2022-05-01T08:24:23Z</time>
      </trkpt>
      <trkpt lat="49.05801" lon="7.80881">
        <ele>384</ele>
        <time>2022-05-01T08:24:24Z</time>
      </trkpt>
      <trkpt lat="49.05805" lon="7.80879">
        <ele>384</ele>
        <time>2022-05-01T08:24:25Z</time>
      </trkpt>
      <trkpt lat="49.05808" lon="7.80876">
        <ele>384.2</ele>
        <time>2022-05-01T08:24:26Z</time>
      </trkpt>
      <trkpt lat="49.05812" lon="7.80875">
        <ele>384.2</ele>
        <time>2022-05-01T08:24:27Z</time>
      </trkpt>
      <trkpt lat="49.05815" lon="7.80873">
        <ele>384.6</ele>
        <time>2022-05-01T08:24:28Z</time>
      </trkpt>
      <trkpt lat="49.05819" lon="7.80871">
        <ele>384.8</ele>
        <time>2022-05-01T08:24:29Z</time>
      </trkpt>
      <trkpt lat="49.05825" lon="7.80868">
        <ele>384.8</ele>
        <time>2022-05-01T08:24:30Z</time>
      </trkpt>
      <trkpt lat="49.05829" lon="7.80866">
        <ele>384.8</ele>
        <time>2022-05-01T08:24:31Z</time>
      </trkpt>
      <trkpt lat="49.05834" lon="7.80864">
        <ele>385</ele>
        <time>2022-05-01T08:24:32Z</time>
      </trkpt>
      <trkpt lat="49.05839" lon="7.80865">
        <ele>385.2</ele>
        <time>2022-05-01T08:24:33Z</time>
      </trkpt>
      <trkpt lat="49.05844" lon="7.80865">
        <ele>385.2</ele>
        <time>2022-05-01T08:24:34Z</time>
      </trkpt>
      <trkpt lat="49.05846" lon="7.80861">
        <ele>385.4</ele>
        <time>2022-05-01T08:24:35Z</time>
      </trkpt>
      <trkpt lat="49.05847" lon="7.8086">
        <ele>385.6</ele>
        <time>2022-05-01T08:24:36Z</time>
      </trkpt>
      <trkpt lat="49.05847" lon="7.8086">
        <ele>385.6</ele>
        <time>2022-05-01T08:24:37Z</time>
      </trkpt>
      <trkpt lat="49.05849" lon="7.8086">
        <ele>385.6</ele>
        <time>2022-05-01T08:24:38Z</time>
      </trkpt>
      <trkpt lat="49.05852" lon="7.80859">
        <ele>385.8</ele>
        <time>2022-05-01T08:24:39Z</time>
      </trkpt>
      <trkpt lat="49.05856" lon="7.80857">
        <ele>386</ele>
        <time>2022-05-01T08:24:40Z</time>
      </trkpt>
      <trkpt lat="49.05861" lon="7.80856">
        <ele>386.2</ele>
        <time>2022-05-01T08:24:41Z</time>
      </trkpt>
      <trkpt lat="49.05866" lon="7.80855">
        <ele>386.4</ele>
        <time>2022-05-01T08:24:42Z</time>
      </trkpt>
      <trkpt lat="49.05869" lon="7.80854">
        <ele>386.6</ele>
        <time>2022-05-01T08:24:43Z</time>
      </trkpt>
      <trkpt lat="49.0587" lon="7.80854">
        <ele>386.6</ele>
        <time>2022-05-01T08:24:44Z</time>
      </trkpt>
      <trkpt lat="49.05873" lon="7.80851">
        <ele>386.8</ele>
        <time>2022-05-01T08:24:45Z</time>
      </trkpt>
      <trkpt lat="49.05878" lon="7.80852">
        <ele>386.8</ele>
        <time>2022-05-01T08:24:46Z</time>
      </trkpt>
      <trkpt lat="49.05881" lon="7.8085">
        <ele>387</ele>
        <time>2022-05-01T08:24:47Z</time>
      </trkpt>
      <trkpt lat="49.05886" lon="7.80849">
        <ele>387</ele>
        <time>2022-05-01T08:24:48Z</time>
      </trkpt>
      <trkpt lat="49.0589" lon="7.80848">
        <ele>387.2</ele>
        <time>2022-05-01T08:24:49Z</time>
      </trkpt>
      <trkpt lat="49.0589" lon="7.80848">
        <ele>387.2</ele>
        <time>2022-05-01T08:24:50Z</time>
      </trkpt>
      <trkpt lat="49.0589" lon="7.80847">
        <ele>387.4</ele>
        <time>2022-05-01T08:24:51Z</time>
      </trkpt>
      <trkpt lat="49.05894" lon="7.80847">
        <ele>387.4</ele>
        <time>2022-05-01T08:24:52Z</time>
      </trkpt>
      <trkpt lat="49.05899" lon="7.80846">
        <ele>387.6</ele>
        <time>2022-05-01T08:24:53Z</time>
      </trkpt>
      <trkpt lat="49.05906" lon="7.80844">
        <ele>387.6</ele>
        <time>2022-05-01T08:24:54Z</time>
      </trkpt>
      <trkpt lat="49.0591" lon="7.8084">
        <ele>387.8</ele>
        <time>2022-05-01T08:24:55Z</time>
      </trkpt>
      <trkpt lat="49.05911" lon="7.8084">
        <ele>387.8</ele>
        <time>2022-05-01T08:24:56Z</time>
      </trkpt>
      <trkpt lat="49.05912" lon="7.8084">
        <ele>387.8</ele>
        <time>2022-05-01T08:24:57Z</time>
      </trkpt>
      <trkpt lat="49.05916" lon="7.80839">
        <ele>388</ele>
        <time>2022-05-01T08:24:58Z</time>
      </trkpt>
      <trkpt lat="49.0592" lon="7.80838">
        <ele>388</ele>
        <time>2022-05-01T08:24:59Z</time>
      </trkpt>
      <trkpt lat="49.05923" lon="7.80839">
        <ele>388.2</ele>
        <time>2022-05-01T08:25:00Z</time>
      </trkpt>
      <trkpt lat="49.05923" lon="7.80838">
        <ele>388.4</ele>
        <time>2022-05-01T08:25:01Z</time>
      </trkpt>
      <trkpt lat="49.05924" lon="7.80836">
        <ele>388.4</ele>
        <time>2022-05-01T08:25:02Z</time>
      </trkpt>
      <trkpt lat="49.05928" lon="7.80836">
        <ele>388.4</ele>
        <time>2022-05-01T08:25:03Z</time>
      </trkpt>
      <trkpt lat="49.05932" lon="7.80834">
        <ele>388.6</ele>
        <time>2022-05-01T08:25:04Z</time>
      </trkpt>
      <trkpt lat="49.05935" lon="7.80833">
        <ele>388.8</ele>
        <time>2022-05-01T08:25:05Z</time>
      </trkpt>
      <trkpt lat="49.05938" lon="7.80832">
        <ele>389</ele>
        <time>2022-05-01T08:25:06Z</time>
      </trkpt>
      <trkpt lat="49.05944" lon="7.80831">
        <ele>389.2</ele>
        <time>2022-05-01T08:25:07Z</time>
      </trkpt>
      <trkpt lat="49.05947" lon="7.8083">
        <ele>389.2</ele>
        <time>2022-05-01T08:25:08Z</time>
      </trkpt>
      <trkpt lat="49.0595" lon="7.80829">
        <ele>389.2</ele>
        <time>2022-05-01T08:25:09Z</time>
      </trkpt>
      <trkpt lat="49.05953" lon="7.80828">
        <ele>389.4</ele>
        <time>2022-05-01T08:25:10Z</time>
      </trkpt>
      <trkpt lat="49.05954" lon="7.80829">
        <ele>389.6</ele>
        <time>2022-05-01T08:25:11Z</time>
      </trkpt>
      <trkpt lat="49.05956" lon="7.8083">
        <ele>389.6</ele>
        <time>2022-05-01T08:25:12Z</time>
      </trkpt>
      <trkpt lat="49.05959" lon="7.80829">
        <ele>389.8</ele>
        <time>2022-05-01T08:25:13Z</time>
      </trkpt>
      <trkpt lat="49.05961" lon="7.8083">
        <ele>390</ele>
        <time>2022-05-01T08:25:14Z</time>
      </trkpt>
      <trkpt lat="49.05963" lon="7.80832">
        <ele>390</ele>
        <time>2022-05-01T08:25:15Z</time>
      </trkpt>
      <trkpt lat="49.05965" lon="7.80832">
        <ele>390.2</ele>
        <time>2022-05-01T08:25:16Z</time>
      </trkpt>
      <trkpt lat="49.05966" lon="7.80831">
        <ele>390.4</ele>
        <time>2022-05-01T08:25:17Z</time>
      </trkpt>
      <trkpt lat="49.05966" lon="7.80831">
        <ele>390.4</ele>
        <time>2022-05-01T08:25:18Z</time>
      </trkpt>
      <trkpt lat="49.05967" lon="7.80831">
        <ele>390.6</ele>
        <time>2022-05-01T08:25:19Z</time>
      </trkpt>
      <trkpt lat="49.05969" lon="7.80831">
        <ele>390.6</ele>
        <time>2022-05-01T08:25:20Z</time>
      </trkpt>
      <trkpt lat="49.05971" lon="7.8083">
        <ele>390.8</ele>
        <time>2022-05-01T08:25:21Z</time>
      </trkpt>
      <trkpt lat="49.05972" lon="7.80829">
        <ele>390.6</ele>
        <time>2022-05-01T08:25:22Z</time>
      </trkpt>
      <trkpt lat="49.05973" lon="7.80828">
        <ele>390.8</ele>
        <time>2022-05-01T08:25:23Z</time>
      </trkpt>
      <trkpt lat="49.05975" lon="7.80826">
        <ele>391</ele>
        <time>2022-05-01T08:25:24Z</time>
      </trkpt>
      <trkpt lat="49.05978" lon="7.80825">
        <ele>391.2</ele>
        <time>2022-05-01T08:25:25Z</time>
      </trkpt>
      <trkpt lat="49.05982" lon="7.80824">
        <ele>391.2</ele>
        <time>2022-05-01T08:25:26Z</time>
      </trkpt>
      <trkpt lat="49.05986" lon="7.80824">
        <ele>391.4</ele>
        <time>2022-05-01T08:25:27Z</time>
      </trkpt>
      <trkpt lat="49.0599" lon="7.80823">
        <ele>391.4</ele>
        <time>2022-05-01T08:25:28Z</time>
      </trkpt>
      <trkpt lat="49.05992" lon="7.80821">
        <ele>391.6</ele>
        <time>2022-05-01T08:25:29Z</time>
      </trkpt>
      <trkpt lat="49.05993" lon="7.8082">
        <ele>391.8</ele>
        <time>2022-05-01T08:25:30Z</time>
      </trkpt>
      <trkpt lat="49.05995" lon="7.80819">
        <ele>391.8</ele>
        <time>2022-05-01T08:25:31Z</time>
      </trkpt>
      <trkpt lat="49.05997" lon="7.80817">
        <ele>392</ele>
        <time>2022-05-01T08:25:32Z</time>
      </trkpt>
      <trkpt lat="49.06" lon="7.80815">
        <ele>392</ele>
        <time>2022-05-01T08:25:33Z</time>
      </trkpt>
      <trkpt lat="49.06003" lon="7.80811">
        <ele>392.2</ele>
        <time>2022-05-01T08:25:34Z</time>
      </trkpt>
      <trkpt lat="49.06009" lon="7.80807">
        <ele>392.4</ele>
        <time>2022-05-01T08:25:35Z</time>
      </trkpt>
      <trkpt lat="49.06012" lon="7.80802">
        <ele>392.6</ele>
        <time>2022-05-01T08:25:36Z</time>
      </trkpt>
      <trkpt lat="49.06016" lon="7.80798">
        <ele>392.6</ele>
        <time>2022-05-01T08:25:37Z</time>
      </trkpt>
      <trkpt lat="49.06019" lon="7.80794">
        <ele>392.6</ele>
        <time>2022-05-01T08:25:38Z</time>
      </trkpt>
      <trkpt lat="49.06021" lon="7.8079">
        <ele>392.8</ele>
        <time>2022-05-01T08:25:39Z</time>
      </trkpt>
      <trkpt lat="49.06021" lon="7.80787">
        <ele>393</ele>
        <time>2022-05-01T08:25:40Z</time>
      </trkpt>
      <trkpt lat="49.06021" lon="7.80783">
        <ele>393.2</ele>
        <time>2022-05-01T08:25:41Z</time>
      </trkpt>
      <trkpt lat="49.06021" lon="7.80779">
        <ele>393.4</ele>
        <time>2022-05-01T08:25:42Z</time>
      </trkpt>
      <trkpt lat="49.06022" lon="7.80774">
        <ele>393.6</ele>
        <time>2022-05-01T08:25:43Z</time>
      </trkpt>
      <trkpt lat="49.06028" lon="7.80769">
        <ele>393.8</ele>
        <time>2022-05-01T08:25:44Z</time>
      </trkpt>
      <trkpt lat="49.06033" lon="7.80764">
        <ele>394</ele>
        <time>2022-05-01T08:25:45Z</time>
      </trkpt>
      <trkpt lat="49.06039" lon="7.80757">
        <ele>394.2</ele>
        <time>2022-05-01T08:25:46Z</time>
      </trkpt>
      <trkpt lat="49.0604" lon="7.8075">
        <ele>394.4</ele>
        <time>2022-05-01T08:25:47Z</time>
      </trkpt>
      <trkpt lat="49.0604" lon="7.80744">
        <ele>394.4</ele>
        <time>2022-05-01T08:25:48Z</time>
      </trkpt>
      <trkpt lat="49.0604" lon="7.80738">
        <ele>394.6</ele>
        <time>2022-05-01T08:25:49Z</time>
      </trkpt>
      <trkpt lat="49.06041" lon="7.80733">
        <ele>394.8</ele>
        <time>2022-05-01T08:25:50Z</time>
      </trkpt>
      <trkpt lat="49.06041" lon="7.80727">
        <ele>395</ele>
        <time>2022-05-01T08:25:51Z</time>
      </trkpt>
      <trkpt lat="49.06041" lon="7.80722">
        <ele>395.2</ele>
        <time>2022-05-01T08:25:52Z</time>
      </trkpt>
      <trkpt lat="49.06039" lon="7.80718">
        <ele>395.2</ele>
        <time>2022-05-01T08:25:53Z</time>
      </trkpt>
      <trkpt lat="49.06038" lon="7.80716">
        <ele>395.4</ele>
        <time>2022-05-01T08:25:54Z</time>
      </trkpt>
      <trkpt lat="49.06039" lon="7.80712">
        <ele>395.6</ele>
        <time>2022-05-01T08:25:55Z</time>
      </trkpt>
      <trkpt lat="49.06037" lon="7.80707">
        <ele>395.6</ele>
        <time>2022-05-01T08:25:56Z</time>
      </trkpt>
      <trkpt lat="49.06039" lon="7.80701">
        <ele>395.8</ele>
        <time>2022-05-01T08:25:57Z</time>
      </trkpt>
      <trkpt lat="49.06038" lon="7.80696">
        <ele>396</ele>
        <time>2022-05-01T08:25:58Z</time>
      </trkpt>
      <trkpt lat="49.06038" lon="7.80691">
        <ele>396.2</ele>
        <time>2022-05-01T08:25:59Z</time>
      </trkpt>
      <trkpt lat="49.06037" lon="7.80685">
        <ele>396.2</ele>
        <time>2022-05-01T08:26:00Z</time>
      </trkpt>
      <trkpt lat="49.06037" lon="7.8068">
        <ele>396.4</ele>
        <time>2022-05-01T08:26:01Z</time>
      </trkpt>
      <trkpt lat="49.06035" lon="7.80677">
        <ele>396.4</ele>
        <time>2022-05-01T08:26:02Z</time>
      </trkpt>
      <trkpt lat="49.06034" lon="7.80673">
        <ele>396.4</ele>
        <time>2022-05-01T08:26:03Z</time>
      </trkpt>
      <trkpt lat="49.06031" lon="7.8067">
        <ele>396.6</ele>
        <time>2022-05-01T08:26:04Z</time>
      </trkpt>
      <trkpt lat="49.06029" lon="7.80667">
        <ele>396.6</ele>
        <time>2022-05-01T08:26:05Z</time>
      </trkpt>
      <trkpt lat="49.06027" lon="7.80665">
        <ele>397</ele>
        <time>2022-05-01T08:26:06Z</time>
      </trkpt>
      <trkpt lat="49.06025" lon="7.80661">
        <ele>397</ele>
        <time>2022-05-01T08:26:07Z</time>
      </trkpt>
      <trkpt lat="49.06022" lon="7.80657">
        <ele>397.4</ele>
        <time>2022-05-01T08:26:08Z</time>
      </trkpt>
      <trkpt lat="49.0602" lon="7.80653">
        <ele>397.8</ele>
        <time>2022-05-01T08:26:09Z</time>
      </trkpt>
      <trkpt lat="49.06018" lon="7.8065">
        <ele>398</ele>
        <time>2022-05-01T08:26:10Z</time>
      </trkpt>
      <trkpt lat="49.06015" lon="7.80645">
        <ele>398.2</ele>
        <time>2022-05-01T08:26:11Z</time>
      </trkpt>
      <trkpt lat="49.06012" lon="7.80642">
        <ele>398.2</ele>
        <time>2022-05-01T08:26:12Z</time>
      </trkpt>
      <trkpt lat="49.0601" lon="7.80639">
        <ele>398.4</ele>
        <time>2022-05-01T08:26:13Z</time>
      </trkpt>
      <trkpt lat="49.06009" lon="7.80635">
        <ele>398.6</ele>
        <time>2022-05-01T08:26:14Z</time>
      </trkpt>
      <trkpt lat="49.06006" lon="7.8063">
        <ele>398.8</ele>
        <time>2022-05-01T08:26:15Z</time>
      </trkpt>
      <trkpt lat="49.06003" lon="7.80626">
        <ele>399</ele>
        <time>2022-05-01T08:26:16Z</time>
      </trkpt>
      <trkpt lat="49.06001" lon="7.80621">
        <ele>399.2</ele>
        <time>2022-05-01T08:26:17Z</time>
      </trkpt>
      <trkpt lat="49.05999" lon="7.80617">
        <ele>399.4</ele>
        <time>2022-05-01T08:26:18Z</time>
      </trkpt>
      <trkpt lat="49.05997" lon="7.80612">
        <ele>399.4</ele>
        <time>2022-05-01T08:26:19Z</time>
      </trkpt>
      <trkpt lat="49.05995" lon="7.80608">
        <ele>399.6</ele>
        <time>2022-05-01T08:26:20Z</time>
      </trkpt>
      <trkpt lat="49.05993" lon="7.80603">
        <ele>399.6</ele>
        <time>2022-05-01T08:26:21Z</time>
      </trkpt>
      <trkpt lat="49.05991" lon="7.80599">
        <ele>399.6</ele>
        <time>2022-05-01T08:26:22Z</time>
      </trkpt>
      <trkpt lat="49.05989" lon="7.80594">
        <ele>399.8</ele>
        <time>2022-05-01T08:26:23Z</time>
      </trkpt>
      <trkpt lat="49.05988" lon="7.8059">
        <ele>399.8</ele>
        <time>2022-05-01T08:26:24Z</time>
      </trkpt>
      <trkpt lat="49.05986" lon="7.80585">
        <ele>399.8</ele>
        <time>2022-05-01T08:26:25Z</time>
      </trkpt>
      <trkpt lat="49.05984" lon="7.8058">
        <ele>399.8</ele>
        <time>2022-05-01T08:26:26Z</time>
      </trkpt>
      <trkpt lat="49.05983" lon="7.80575">
        <ele>399.8</ele>
        <time>2022-05-01T08:26:27Z</time>
      </trkpt>
      <trkpt lat="49.05981" lon="7.8057">
        <ele>399.8</ele>
        <time>2022-05-01T08:26:28Z</time>
      </trkpt>
      <trkpt lat="49.05979" lon="7.80564">
        <ele>399.8</ele>
        <time>2022-05-01T08:26:29Z</time>
      </trkpt>
      <trkpt lat="49.05977" lon="7.80559">
        <ele>399.8</ele>
        <time>2022-05-01T08:26:30Z</time>
      </trkpt>
      <trkpt lat="49.05976" lon="7.80554">
        <ele>399.8</ele>
        <time>2022-05-01T08:26:31Z</time>
      </trkpt>
      <trkpt lat="49.05976" lon="7.80549">
        <ele>399.8</ele>
        <time>2022-05-01T08:26:32Z</time>
      </trkpt>
      <trkpt lat="49.05975" lon="7.80543">
        <ele>399.8</ele>
        <time>2022-05-01T08:26:33Z</time>
      </trkpt>
      <trkpt lat="49.05973" lon="7.80537">
        <ele>399.8</ele>
        <time>2022-05-01T08:26:34Z</time>
      </trkpt>
      <trkpt lat="49.05972" lon="7.80532">
        <ele>399.8</ele>
        <time>2022-05-01T08:26:35Z</time>
      </trkpt>
      <trkpt lat="49.05972" lon="7.80526">
        <ele>399.6</ele>
        <time>2022-05-01T08:26:36Z</time>
      </trkpt>
      <trkpt lat="49.05972" lon="7.80521">
        <ele>399.6</ele>
        <time>2022-05-01T08:26:37Z</time>
      </trkpt>
      <trkpt lat="49.05973" lon="7.80515">
        <ele>399.6</ele>
        <time>2022-05-01T08:26:38Z</time>
      </trkpt>
      <trkpt lat="49.05973" lon="7.80511">
        <ele>399.6</ele>
        <time>2022-05-01T08:26:39Z</time>
      </trkpt>
      <trkpt lat="49.05973" lon="7.80504">
        <ele>399.6</ele>
        <time>2022-05-01T08:26:40Z</time>
      </trkpt>
      <trkpt lat="49.05975" lon="7.80493">
        <ele>399.6</ele>
        <time>2022-05-01T08:26:42Z</time>
      </trkpt>
      <trkpt lat="49.05978" lon="7.80476">
        <ele>399.4</ele>
        <time>2022-05-01T08:26:45Z</time>
      </trkpt>
      <trkpt lat="49.0598" lon="7.80471">
        <ele>399.4</ele>
        <time>2022-05-01T08:26:46Z</time>
      </trkpt>
      <trkpt lat="49.05981" lon="7.80466">
        <ele>399.4</ele>
        <time>2022-05-01T08:26:47Z</time>
      </trkpt>
      <trkpt lat="49.05983" lon="7.80461">
        <ele>399.2</ele>
        <time>2022-05-01T08:26:48Z</time>
      </trkpt>
      <trkpt lat="49.05987" lon="7.80448">
        <ele>399.6</ele>
        <time>2022-05-01T08:26:51Z</time>
      </trkpt>
      <trkpt lat="49.05989" lon="7.80443">
        <ele>399.4</ele>
        <time>2022-05-01T08:26:52Z</time>
      </trkpt>
      <trkpt lat="49.05991" lon="7.80438">
        <ele>399.4</ele>
        <time>2022-05-01T08:26:53Z</time>
      </trkpt>
      <trkpt lat="49.06006" lon="7.8041">
        <ele>399.6</ele>
        <time>2022-05-01T08:26:59Z</time>
      </trkpt>
      <trkpt lat="49.06018" lon="7.80394">
        <ele>399.8</ele>
        <time>2022-05-01T08:27:03Z</time>
      </trkpt>
      <trkpt lat="49.06021" lon="7.8039">
        <ele>399.8</ele>
        <time>2022-05-01T08:27:04Z</time>
      </trkpt>
      <trkpt lat="49.06024" lon="7.80387">
        <ele>399.8</ele>
        <time>2022-05-01T08:27:05Z</time>
      </trkpt>
      <trkpt lat="49.06028" lon="7.80383">
        <ele>399.8</ele>
        <time>2022-05-01T08:27:06Z</time>
      </trkpt>
      <trkpt lat="49.06031" lon="7.8038">
        <ele>399.8</ele>
        <time>2022-05-01T08:27:07Z</time>
      </trkpt>
      <trkpt lat="49.06039" lon="7.80367">
        <ele>399.6</ele>
        <time>2022-05-01T08:27:10Z</time>
      </trkpt>
      <trkpt lat="49.0604" lon="7.80363">
        <ele>399.6</ele>
        <time>2022-05-01T08:27:11Z</time>
      </trkpt>
      <trkpt lat="49.06043" lon="7.80359">
        <ele>399.6</ele>
        <time>2022-05-01T08:27:12Z</time>
      </trkpt>
      <trkpt lat="49.06057" lon="7.80348">
        <ele>399.4</ele>
        <time>2022-05-01T08:27:16Z</time>
      </trkpt>
      <trkpt lat="49.06073" lon="7.80326">
        <ele>399.2</ele>
        <time>2022-05-01T08:27:21Z</time>
      </trkpt>
      <trkpt lat="49.06074" lon="7.80322">
        <ele>399.2</ele>
        <time>2022-05-01T08:27:22Z</time>
      </trkpt>
      <trkpt lat="49.06074" lon="7.80317">
        <ele>399.2</ele>
        <time>2022-05-01T08:27:23Z</time>
      </trkpt>
      <trkpt lat="49.06074" lon="7.8031">
        <ele>399.2</ele>
        <time>2022-05-01T08:27:24Z</time>
      </trkpt>
      <trkpt lat="49.06076" lon="7.80303">
        <ele>399.2</ele>
        <time>2022-05-01T08:27:25Z</time>
      </trkpt>
      <trkpt lat="49.06076" lon="7.80296">
        <ele>399</ele>
        <time>2022-05-01T08:27:26Z</time>
      </trkpt>
      <trkpt lat="49.06078" lon="7.80289">
        <ele>399</ele>
        <time>2022-05-01T08:27:27Z</time>
      </trkpt>
      <trkpt lat="49.0608" lon="7.80283">
        <ele>399</ele>
        <time>2022-05-01T08:27:28Z</time>
      </trkpt>
      <trkpt lat="49.06081" lon="7.80276">
        <ele>399</ele>
        <time>2022-05-01T08:27:29Z</time>
      </trkpt>
      <trkpt lat="49.0608" lon="7.80262">
        <ele>398.8</ele>
        <time>2022-05-01T08:27:31Z</time>
      </trkpt>
      <trkpt lat="49.06079" lon="7.80255">
        <ele>398.8</ele>
        <time>2022-05-01T08:27:32Z</time>
      </trkpt>
      <trkpt lat="49.06077" lon="7.8025">
        <ele>398.8</ele>
        <time>2022-05-01T08:27:33Z</time>
      </trkpt>
      <trkpt lat="49.06074" lon="7.80245">
        <ele>398.8</ele>
        <time>2022-05-01T08:27:34Z</time>
      </trkpt>
      <trkpt lat="49.0607" lon="7.80241">
        <ele>398.8</ele>
        <time>2022-05-01T08:27:35Z</time>
      </trkpt>
      <trkpt lat="49.06066" lon="7.80237">
        <ele>398.8</ele>
        <time>2022-05-01T08:27:36Z</time>
      </trkpt>
      <trkpt lat="49.06061" lon="7.80235">
        <ele>398.8</ele>
        <time>2022-05-01T08:27:37Z</time>
      </trkpt>
      <trkpt lat="49.06055" lon="7.80233">
        <ele>398.8</ele>
        <time>2022-05-01T08:27:38Z</time>
      </trkpt>
      <trkpt lat="49.06049" lon="7.80231">
        <ele>398.6</ele>
        <time>2022-05-01T08:27:39Z</time>
      </trkpt>
      <trkpt lat="49.06043" lon="7.8023">
        <ele>398.6</ele>
        <time>2022-05-01T08:27:40Z</time>
      </trkpt>
      <trkpt lat="49.06037" lon="7.80228">
        <ele>398.6</ele>
        <time>2022-05-01T08:27:41Z</time>
      </trkpt>
      <trkpt lat="49.06027" lon="7.80222">
        <ele>398.4</ele>
        <time>2022-05-01T08:27:43Z</time>
      </trkpt>
      <trkpt lat="49.06023" lon="7.80218">
        <ele>398.4</ele>
        <time>2022-05-01T08:27:44Z</time>
      </trkpt>
      <trkpt lat="49.06018" lon="7.80214">
        <ele>398.2</ele>
        <time>2022-05-01T08:27:45Z</time>
      </trkpt>
      <trkpt lat="49.06014" lon="7.80211">
        <ele>398</ele>
        <time>2022-05-01T08:27:46Z</time>
      </trkpt>
      <trkpt lat="49.0601" lon="7.80207">
        <ele>397.8</ele>
        <time>2022-05-01T08:27:47Z</time>
      </trkpt>
      <trkpt lat="49.06005" lon="7.80202">
        <ele>397.6</ele>
        <time>2022-05-01T08:27:48Z</time>
      </trkpt>
      <trkpt lat="49.05999" lon="7.80197">
        <ele>397.4</ele>
        <time>2022-05-01T08:27:49Z</time>
      </trkpt>
      <trkpt lat="49.05983" lon="7.80186">
        <ele>396.6</ele>
        <time>2022-05-01T08:27:52Z</time>
      </trkpt>
      <trkpt lat="49.05978" lon="7.80184">
        <ele>396.4</ele>
        <time>2022-05-01T08:27:53Z</time>
      </trkpt>
      <trkpt lat="49.05972" lon="7.80182">
        <ele>396.2</ele>
        <time>2022-05-01T08:27:54Z</time>
      </trkpt>
      <trkpt lat="49.05961" lon="7.80179">
        <ele>395.6</ele>
        <time>2022-05-01T08:27:56Z</time>
      </trkpt>
      <trkpt lat="49.05955" lon="7.80178">
        <ele>395.2</ele>
        <time>2022-05-01T08:27:57Z</time>
      </trkpt>
      <trkpt lat="49.0594" lon="7.80176">
        <ele>394.6</ele>
        <time>2022-05-01T08:27:59Z</time>
      </trkpt>
      <trkpt lat="49.05926" lon="7.80177">
        <ele>394.2</ele>
        <time>2022-05-01T08:28:01Z</time>
      </trkpt>
      <trkpt lat="49.05919" lon="7.80179">
        <ele>394.2</ele>
        <time>2022-05-01T08:28:02Z</time>
      </trkpt>
      <trkpt lat="49.05914" lon="7.80182">
        <ele>394</ele>
        <time>2022-05-01T08:28:03Z</time>
      </trkpt>
      <trkpt lat="49.05908" lon="7.80186">
        <ele>393.6</ele>
        <time>2022-05-01T08:28:04Z</time>
      </trkpt>
      <trkpt lat="49.05902" lon="7.80189">
        <ele>393.4</ele>
        <time>2022-05-01T08:28:05Z</time>
      </trkpt>
      <trkpt lat="49.05896" lon="7.80193">
        <ele>393.2</ele>
        <time>2022-05-01T08:28:06Z</time>
      </trkpt>
      <trkpt lat="49.05885" lon="7.802">
        <ele>392.8</ele>
        <time>2022-05-01T08:28:08Z</time>
      </trkpt>
      <trkpt lat="49.05877" lon="7.80204">
        <ele>392.6</ele>
        <time>2022-05-01T08:28:09Z</time>
      </trkpt>
      <trkpt lat="49.05871" lon="7.80207">
        <ele>392.4</ele>
        <time>2022-05-01T08:28:10Z</time>
      </trkpt>
      <trkpt lat="49.05865" lon="7.8021">
        <ele>392.2</ele>
        <time>2022-05-01T08:28:11Z</time>
      </trkpt>
      <trkpt lat="49.05858" lon="7.80212">
        <ele>392</ele>
        <time>2022-05-01T08:28:12Z</time>
      </trkpt>
      <trkpt lat="49.05852" lon="7.80216">
        <ele>391.8</ele>
        <time>2022-05-01T08:28:13Z</time>
      </trkpt>
      <trkpt lat="49.05841" lon="7.80226">
        <ele>391.4</ele>
        <time>2022-05-01T08:28:15Z</time>
      </trkpt>
      <trkpt lat="49.05837" lon="7.80232">
        <ele>391</ele>
        <time>2022-05-01T08:28:16Z</time>
      </trkpt>
      <trkpt lat="49.05827" lon="7.80244">
        <ele>390.8</ele>
        <time>2022-05-01T08:28:18Z</time>
      </trkpt>
      <trkpt lat="49.0582" lon="7.80256">
        <ele>390.4</ele>
        <time>2022-05-01T08:28:20Z</time>
      </trkpt>
      <trkpt lat="49.05816" lon="7.80262">
        <ele>390</ele>
        <time>2022-05-01T08:28:21Z</time>
      </trkpt>
      <trkpt lat="49.05813" lon="7.80269">
        <ele>389.8</ele>
        <time>2022-05-01T08:28:22Z</time>
      </trkpt>
      <trkpt lat="49.05811" lon="7.80276">
        <ele>389.6</ele>
        <time>2022-05-01T08:28:23Z</time>
      </trkpt>
      <trkpt lat="49.05807" lon="7.80283">
        <ele>389.4</ele>
        <time>2022-05-01T08:28:24Z</time>
      </trkpt>
      <trkpt lat="49.058" lon="7.80296">
        <ele>389.2</ele>
        <time>2022-05-01T08:28:26Z</time>
      </trkpt>
      <trkpt lat="49.05797" lon="7.80304">
        <ele>389</ele>
        <time>2022-05-01T08:28:27Z</time>
      </trkpt>
      <trkpt lat="49.05791" lon="7.80317">
        <ele>388.8</ele>
        <time>2022-05-01T08:28:29Z</time>
      </trkpt>
      <trkpt lat="49.05787" lon="7.80335">
        <ele>388.2</ele>
        <time>2022-05-01T08:28:31Z</time>
      </trkpt>
      <trkpt lat="49.05785" lon="7.80351">
        <ele>388</ele>
        <time>2022-05-01T08:28:33Z</time>
      </trkpt>
      <trkpt lat="49.0578" lon="7.8036">
        <ele>388</ele>
        <time>2022-05-01T08:28:34Z</time>
      </trkpt>
      <trkpt lat="49.05773" lon="7.80369">
        <ele>387.8</ele>
        <time>2022-05-01T08:28:35Z</time>
      </trkpt>
      <trkpt lat="49.05767" lon="7.80378">
        <ele>387.6</ele>
        <time>2022-05-01T08:28:36Z</time>
      </trkpt>
      <trkpt lat="49.05761" lon="7.80387">
        <ele>387.4</ele>
        <time>2022-05-01T08:28:37Z</time>
      </trkpt>
      <trkpt lat="49.05757" lon="7.80395">
        <ele>387.4</ele>
        <time>2022-05-01T08:28:38Z</time>
      </trkpt>
      <trkpt lat="49.05753" lon="7.80403">
        <ele>387.2</ele>
        <time>2022-05-01T08:28:39Z</time>
      </trkpt>
      <trkpt lat="49.05748" lon="7.80411">
        <ele>386.8</ele>
        <time>2022-05-01T08:28:40Z</time>
      </trkpt>
      <trkpt lat="49.05743" lon="7.80417">
        <ele>386.4</ele>
        <time>2022-05-01T08:28:41Z</time>
      </trkpt>
      <trkpt lat="49.0573" lon="7.80427">
        <ele>386</ele>
        <time>2022-05-01T08:28:43Z</time>
      </trkpt>
      <trkpt lat="49.05723" lon="7.80431">
        <ele>385.6</ele>
        <time>2022-05-01T08:28:44Z</time>
      </trkpt>
      <trkpt lat="49.05687" lon="7.80443">
        <ele>384.6</ele>
        <time>2022-05-01T08:28:49Z</time>
      </trkpt>
      <trkpt lat="49.05658" lon="7.8045">
        <ele>384</ele>
        <time>2022-05-01T08:28:52Z</time>
      </trkpt>
      <trkpt lat="49.0565" lon="7.80454">
        <ele>383.2</ele>
        <time>2022-05-01T08:28:53Z</time>
      </trkpt>
      <trkpt lat="49.05627" lon="7.80463">
        <ele>381.8</ele>
        <time>2022-05-01T08:28:56Z</time>
      </trkpt>
      <trkpt lat="49.05619" lon="7.80466">
        <ele>381.4</ele>
        <time>2022-05-01T08:28:57Z</time>
      </trkpt>
      <trkpt lat="49.05609" lon="7.80468">
        <ele>380.6</ele>
        <time>2022-05-01T08:28:58Z</time>
      </trkpt>
      <trkpt lat="49.05589" lon="7.80468">
        <ele>379.6</ele>
        <time>2022-05-01T08:29:00Z</time>
      </trkpt>
      <trkpt lat="49.05579" lon="7.80468">
        <ele>379.2</ele>
        <time>2022-05-01T08:29:01Z</time>
      </trkpt>
      <trkpt lat="49.05569" lon="7.80466">
        <ele>378.8</ele>
        <time>2022-05-01T08:29:02Z</time>
      </trkpt>
      <trkpt lat="49.05561" lon="7.80464">
        <ele>378.4</ele>
        <time>2022-05-01T08:29:03Z</time>
      </trkpt>
      <trkpt lat="49.05554" lon="7.80461">
        <ele>378</ele>
        <time>2022-05-01T08:29:04Z</time>
      </trkpt>
      <trkpt lat="49.0554" lon="7.80453">
        <ele>376.6</ele>
        <time>2022-05-01T08:29:06Z</time>
      </trkpt>
      <trkpt lat="49.05532" lon="7.80448">
        <ele>376.2</ele>
        <time>2022-05-01T08:29:07Z</time>
      </trkpt>
      <trkpt lat="49.05525" lon="7.80442">
        <ele>375.6</ele>
        <time>2022-05-01T08:29:08Z</time>
      </trkpt>
      <trkpt lat="49.05518" lon="7.80436">
        <ele>375.2</ele>
        <time>2022-05-01T08:29:09Z</time>
      </trkpt>
      <trkpt lat="49.05504" lon="7.80423">
        <ele>374.4</ele>
        <time>2022-05-01T08:29:11Z</time>
      </trkpt>
      <trkpt lat="49.05485" lon="7.80401">
        <ele>373.2</ele>
        <time>2022-05-01T08:29:14Z</time>
      </trkpt>
      <trkpt lat="49.05472" lon="7.80385">
        <ele>372</ele>
        <time>2022-05-01T08:29:16Z</time>
      </trkpt>
      <trkpt lat="49.05466" lon="7.80377">
        <ele>371.2</ele>
        <time>2022-05-01T08:29:17Z</time>
      </trkpt>
      <trkpt lat="49.0546" lon="7.80368">
        <ele>370.4</ele>
        <time>2022-05-01T08:29:18Z</time>
      </trkpt>
      <trkpt lat="49.05454" lon="7.80359">
        <ele>369.4</ele>
        <time>2022-05-01T08:29:19Z</time>
      </trkpt>
      <trkpt lat="49.05444" lon="7.80339">
        <ele>368.2</ele>
        <time>2022-05-01T08:29:21Z</time>
      </trkpt>
      <trkpt lat="49.05439" lon="7.80328">
        <ele>367.8</ele>
        <time>2022-05-01T08:29:22Z</time>
      </trkpt>
      <trkpt lat="49.05436" lon="7.80316">
        <ele>367.6</ele>
        <time>2022-05-01T08:29:23Z</time>
      </trkpt>
      <trkpt lat="49.05433" lon="7.80304">
        <ele>366.8</ele>
        <time>2022-05-01T08:29:24Z</time>
      </trkpt>
      <trkpt lat="49.05431" lon="7.80292">
        <ele>366.4</ele>
        <time>2022-05-01T08:29:25Z</time>
      </trkpt>
      <trkpt lat="49.05428" lon="7.8028">
        <ele>365.8</ele>
        <time>2022-05-01T08:29:26Z</time>
      </trkpt>
      <trkpt lat="49.05421" lon="7.8024">
        <ele>364.6</ele>
        <time>2022-05-01T08:29:29Z</time>
      </trkpt>
      <trkpt lat="49.05418" lon="7.80216">
        <ele>363.2</ele>
        <time>2022-05-01T08:29:31Z</time>
      </trkpt>
      <trkpt lat="49.05415" lon="7.80187">
        <ele>362.4</ele>
        <time>2022-05-01T08:29:33Z</time>
      </trkpt>
      <trkpt lat="49.05414" lon="7.80174">
        <ele>361.8</ele>
        <time>2022-05-01T08:29:34Z</time>
      </trkpt>
      <trkpt lat="49.05414" lon="7.80162">
        <ele>361.2</ele>
        <time>2022-05-01T08:29:35Z</time>
      </trkpt>
      <trkpt lat="49.05415" lon="7.80148">
        <ele>360.6</ele>
        <time>2022-05-01T08:29:36Z</time>
      </trkpt>
      <trkpt lat="49.05416" lon="7.80135">
        <ele>360.2</ele>
        <time>2022-05-01T08:29:37Z</time>
      </trkpt>
      <trkpt lat="49.05418" lon="7.80121">
        <ele>359.8</ele>
        <time>2022-05-01T08:29:38Z</time>
      </trkpt>
      <trkpt lat="49.05419" lon="7.80109">
        <ele>359.8</ele>
        <time>2022-05-01T08:29:39Z</time>
      </trkpt>
      <trkpt lat="49.0542" lon="7.80097">
        <ele>359</ele>
        <time>2022-05-01T08:29:40Z</time>
      </trkpt>
      <trkpt lat="49.05421" lon="7.80084">
        <ele>358.4</ele>
        <time>2022-05-01T08:29:41Z</time>
      </trkpt>
      <trkpt lat="49.05422" lon="7.80072">
        <ele>358</ele>
        <time>2022-05-01T08:29:42Z</time>
      </trkpt>
      <trkpt lat="49.05423" lon="7.80061">
        <ele>357.8</ele>
        <time>2022-05-01T08:29:43Z</time>
      </trkpt>
      <trkpt lat="49.05425" lon="7.80049">
        <ele>357.2</ele>
        <time>2022-05-01T08:29:44Z</time>
      </trkpt>
      <trkpt lat="49.05428" lon="7.80038">
        <ele>356.8</ele>
        <time>2022-05-01T08:29:45Z</time>
      </trkpt>
      <trkpt lat="49.0543" lon="7.80027">
        <ele>356.2</ele>
        <time>2022-05-01T08:29:46Z</time>
      </trkpt>
      <trkpt lat="49.05433" lon="7.80005">
        <ele>355.4</ele>
        <time>2022-05-01T08:29:48Z</time>
      </trkpt>
      <trkpt lat="49.05435" lon="7.79994">
        <ele>355.2</ele>
        <time>2022-05-01T08:29:49Z</time>
      </trkpt>
      <trkpt lat="49.05437" lon="7.79983">
        <ele>355</ele>
        <time>2022-05-01T08:29:50Z</time>
      </trkpt>
      <trkpt lat="49.05439" lon="7.79973">
        <ele>354.8</ele>
        <time>2022-05-01T08:29:51Z</time>
      </trkpt>
      <trkpt lat="49.05443" lon="7.79963">
        <ele>354.4</ele>
        <time>2022-05-01T08:29:52Z</time>
      </trkpt>
      <trkpt lat="49.05445" lon="7.79955">
        <ele>354</ele>
        <time>2022-05-01T08:29:53Z</time>
      </trkpt>
      <trkpt lat="49.0545" lon="7.79945">
        <ele>353.6</ele>
        <time>2022-05-01T08:29:54Z</time>
      </trkpt>
      <trkpt lat="49.05454" lon="7.79936">
        <ele>353.2</ele>
        <time>2022-05-01T08:29:55Z</time>
      </trkpt>
      <trkpt lat="49.05458" lon="7.79927">
        <ele>352.8</ele>
        <time>2022-05-01T08:29:56Z</time>
      </trkpt>
      <trkpt lat="49.05462" lon="7.79919">
        <ele>352.2</ele>
        <time>2022-05-01T08:29:57Z</time>
      </trkpt>
      <trkpt lat="49.05465" lon="7.7991">
        <ele>351.8</ele>
        <time>2022-05-01T08:29:58Z</time>
      </trkpt>
      <trkpt lat="49.05466" lon="7.79901">
        <ele>351.4</ele>
        <time>2022-05-01T08:29:59Z</time>
      </trkpt>
      <trkpt lat="49.05466" lon="7.79892">
        <ele>351</ele>
        <time>2022-05-01T08:30:00Z</time>
      </trkpt>
      <trkpt lat="49.05464" lon="7.79885">
        <ele>350.4</ele>
        <time>2022-05-01T08:30:01Z</time>
      </trkpt>
      <trkpt lat="49.05461" lon="7.79878">
        <ele>350</ele>
        <time>2022-05-01T08:30:02Z</time>
      </trkpt>
      <trkpt lat="49.05458" lon="7.79873">
        <ele>349.4</ele>
        <time>2022-05-01T08:30:03Z</time>
      </trkpt>
      <trkpt lat="49.05453" lon="7.7987">
        <ele>348.6</ele>
        <time>2022-05-01T08:30:04Z</time>
      </trkpt>
      <trkpt lat="49.05448" lon="7.79868">
        <ele>348</ele>
        <time>2022-05-01T08:30:05Z</time>
      </trkpt>
      <trkpt lat="49.05443" lon="7.79868">
        <ele>347.6</ele>
        <time>2022-05-01T08:30:06Z</time>
      </trkpt>
      <trkpt lat="49.05438" lon="7.79869">
        <ele>347</ele>
        <time>2022-05-01T08:30:07Z</time>
      </trkpt>
      <trkpt lat="49.05434" lon="7.79869">
        <ele>346.2</ele>
        <time>2022-05-01T08:30:08Z</time>
      </trkpt>
      <trkpt lat="49.05429" lon="7.7987">
        <ele>345.4</ele>
        <time>2022-05-01T08:30:09Z</time>
      </trkpt>
      <trkpt lat="49.05425" lon="7.7987">
        <ele>344.8</ele>
        <time>2022-05-01T08:30:10Z</time>
      </trkpt>
      <trkpt lat="49.05422" lon="7.79868">
        <ele>344.4</ele>
        <time>2022-05-01T08:30:11Z</time>
      </trkpt>
      <trkpt lat="49.0542" lon="7.79864">
        <ele>344</ele>
        <time>2022-05-01T08:30:12Z</time>
      </trkpt>
      <trkpt lat="49.05417" lon="7.79859">
        <ele>343.8</ele>
        <time>2022-05-01T08:30:13Z</time>
      </trkpt>
      <trkpt lat="49.05416" lon="7.79848">
        <ele>342.6</ele>
        <time>2022-05-01T08:30:15Z</time>
      </trkpt>
      <trkpt lat="49.05416" lon="7.79845">
        <ele>342.4</ele>
        <time>2022-05-01T08:30:16Z</time>
      </trkpt>
      <trkpt lat="49.05416" lon="7.79841">
        <ele>342.2</ele>
        <time>2022-05-01T08:30:17Z</time>
      </trkpt>
      <trkpt lat="49.05416" lon="7.79838">
        <ele>342.2</ele>
        <time>2022-05-01T08:30:18Z</time>
      </trkpt>
      <trkpt lat="49.05416" lon="7.79835">
        <ele>342.2</ele>
        <time>2022-05-01T08:30:19Z</time>
      </trkpt>
      <trkpt lat="49.05416" lon="7.79832">
        <ele>342.2</ele>
        <time>2022-05-01T08:30:20Z</time>
      </trkpt>
      <trkpt lat="49.05416" lon="7.79828">
        <ele>342.2</ele>
        <time>2022-05-01T08:30:21Z</time>
      </trkpt>
      <trkpt lat="49.05415" lon="7.79823">
        <ele>342.2</ele>
        <time>2022-05-01T08:30:22Z</time>
      </trkpt>
      <trkpt lat="49.05411" lon="7.79789">
        <ele>343</ele>
        <time>2022-05-01T08:30:28Z</time>
      </trkpt>
      <trkpt lat="49.0541" lon="7.79758">
        <ele>343.2</ele>
        <time>2022-05-01T08:30:33Z</time>
      </trkpt>
      <trkpt lat="49.0541" lon="7.79744">
        <ele>343.2</ele>
        <time>2022-05-01T08:30:35Z</time>
      </trkpt>
      <trkpt lat="49.05409" lon="7.79737">
        <ele>343.2</ele>
        <time>2022-05-01T08:30:36Z</time>
      </trkpt>
      <trkpt lat="49.05403" lon="7.79724">
        <ele>343.2</ele>
        <time>2022-05-01T08:30:38Z</time>
      </trkpt>
      <trkpt lat="49.05402" lon="7.79716">
        <ele>343.2</ele>
        <time>2022-05-01T08:30:39Z</time>
      </trkpt>
      <trkpt lat="49.05402" lon="7.79709">
        <ele>343.2</ele>
        <time>2022-05-01T08:30:40Z</time>
      </trkpt>
      <trkpt lat="49.05401" lon="7.79701">
        <ele>343</ele>
        <time>2022-05-01T08:30:41Z</time>
      </trkpt>
      <trkpt lat="49.05399" lon="7.79694">
        <ele>343</ele>
        <time>2022-05-01T08:30:42Z</time>
      </trkpt>
      <trkpt lat="49.05397" lon="7.79686">
        <ele>342.8</ele>
        <time>2022-05-01T08:30:43Z</time>
      </trkpt>
      <trkpt lat="49.05392" lon="7.79671">
        <ele>342.6</ele>
        <time>2022-05-01T08:30:45Z</time>
      </trkpt>
      <trkpt lat="49.0539" lon="7.79664">
        <ele>342.6</ele>
        <time>2022-05-01T08:30:46Z</time>
      </trkpt>
      <trkpt lat="49.05387" lon="7.79658">
        <ele>342.4</ele>
        <time>2022-05-01T08:30:47Z</time>
      </trkpt>
      <trkpt lat="49.0538" lon="7.79649">
        <ele>342.4</ele>
        <time>2022-05-01T08:30:49Z</time>
      </trkpt>
      <trkpt lat="49.0538" lon="7.79643">
        <ele>342.4</ele>
        <time>2022-05-01T08:30:50Z</time>
      </trkpt>
      <trkpt lat="49.05378" lon="7.79638">
        <ele>342.4</ele>
        <time>2022-05-01T08:30:51Z</time>
      </trkpt>
      <trkpt lat="49.05376" lon="7.79634">
        <ele>342.4</ele>
        <time>2022-05-01T08:30:52Z</time>
      </trkpt>
      <trkpt lat="49.05373" lon="7.79631">
        <ele>342.4</ele>
        <time>2022-05-01T08:30:53Z</time>
      </trkpt>
      <trkpt lat="49.05372" lon="7.7963">
        <ele>342.4</ele>
        <time>2022-05-01T08:30:54Z</time>
      </trkpt>
      <trkpt lat="49.05372" lon="7.79626">
        <ele>342.4</ele>
        <time>2022-05-01T08:30:55Z</time>
      </trkpt>
      <trkpt lat="49.0537" lon="7.79622">
        <ele>342.4</ele>
        <time>2022-05-01T08:30:56Z</time>
      </trkpt>
      <trkpt lat="49.05368" lon="7.79618">
        <ele>342.4</ele>
        <time>2022-05-01T08:30:57Z</time>
      </trkpt>
      <trkpt lat="49.05367" lon="7.79612">
        <ele>342.6</ele>
        <time>2022-05-01T08:30:58Z</time>
      </trkpt>
      <trkpt lat="49.05366" lon="7.79607">
        <ele>342.8</ele>
        <time>2022-05-01T08:30:59Z</time>
      </trkpt>
      <trkpt lat="49.05365" lon="7.796">
        <ele>343</ele>
        <time>2022-05-01T08:31:00Z</time>
      </trkpt>
      <trkpt lat="49.05363" lon="7.79582">
        <ele>343.2</ele>
        <time>2022-05-01T08:31:02Z</time>
      </trkpt>
      <trkpt lat="49.05362" lon="7.79573">
        <ele>343.2</ele>
        <time>2022-05-01T08:31:03Z</time>
      </trkpt>
      <trkpt lat="49.05362" lon="7.79554">
        <ele>343.4</ele>
        <time>2022-05-01T08:31:05Z</time>
      </trkpt>
      <trkpt lat="49.05362" lon="7.79547">
        <ele>343.4</ele>
        <time>2022-05-01T08:31:06Z</time>
      </trkpt>
      <trkpt lat="49.05361" lon="7.7954">
        <ele>343.6</ele>
        <time>2022-05-01T08:31:07Z</time>
      </trkpt>
      <trkpt lat="49.05359" lon="7.79534">
        <ele>343.6</ele>
        <time>2022-05-01T08:31:08Z</time>
      </trkpt>
      <trkpt lat="49.05358" lon="7.79526">
        <ele>343.6</ele>
        <time>2022-05-01T08:31:09Z</time>
      </trkpt>
      <trkpt lat="49.05356" lon="7.79517">
        <ele>343.6</ele>
        <time>2022-05-01T08:31:10Z</time>
      </trkpt>
      <trkpt lat="49.05353" lon="7.79507">
        <ele>343.6</ele>
        <time>2022-05-01T08:31:11Z</time>
      </trkpt>
      <trkpt lat="49.05349" lon="7.79498">
        <ele>343.4</ele>
        <time>2022-05-01T08:31:12Z</time>
      </trkpt>
      <trkpt lat="49.05332" lon="7.79462">
        <ele>342.8</ele>
        <time>2022-05-01T08:31:16Z</time>
      </trkpt>
      <trkpt lat="49.05329" lon="7.79455">
        <ele>342.6</ele>
        <time>2022-05-01T08:31:17Z</time>
      </trkpt>
      <trkpt lat="49.05329" lon="7.79446">
        <ele>342.6</ele>
        <time>2022-05-01T08:31:18Z</time>
      </trkpt>
      <trkpt lat="49.05328" lon="7.79438">
        <ele>342</ele>
        <time>2022-05-01T08:31:19Z</time>
      </trkpt>
      <trkpt lat="49.05327" lon="7.79429">
        <ele>341.2</ele>
        <time>2022-05-01T08:31:20Z</time>
      </trkpt>
      <trkpt lat="49.05323" lon="7.79412">
        <ele>340.4</ele>
        <time>2022-05-01T08:31:22Z</time>
      </trkpt>
      <trkpt lat="49.0532" lon="7.79406">
        <ele>340.2</ele>
        <time>2022-05-01T08:31:23Z</time>
      </trkpt>
      <trkpt lat="49.05318" lon="7.79402">
        <ele>339.8</ele>
        <time>2022-05-01T08:31:24Z</time>
      </trkpt>
      <trkpt lat="49.05315" lon="7.794">
        <ele>339.8</ele>
        <time>2022-05-01T08:31:25Z</time>
      </trkpt>
      <trkpt lat="49.05312" lon="7.79398">
        <ele>339.6</ele>
        <time>2022-05-01T08:31:26Z</time>
      </trkpt>
      <trkpt lat="49.0531" lon="7.79395">
        <ele>339.4</ele>
        <time>2022-05-01T08:31:27Z</time>
      </trkpt>
      <trkpt lat="49.0531" lon="7.79391">
        <ele>339.4</ele>
        <time>2022-05-01T08:31:28Z</time>
      </trkpt>
      <trkpt lat="49.05314" lon="7.79385">
        <ele>339.2</ele>
        <time>2022-05-01T08:31:29Z</time>
      </trkpt>
      <trkpt lat="49.05317" lon="7.79358">
        <ele>338.4</ele>
        <time>2022-05-01T08:31:34Z</time>
      </trkpt>
      <trkpt lat="49.05317" lon="7.79355">
        <ele>337.8</ele>
        <time>2022-05-01T08:31:35Z</time>
      </trkpt>
      <trkpt lat="49.05318" lon="7.79354">
        <ele>337.4</ele>
        <time>2022-05-01T08:31:36Z</time>
      </trkpt>
      <trkpt lat="49.05319" lon="7.7935">
        <ele>337</ele>
        <time>2022-05-01T08:31:37Z</time>
      </trkpt>
      <trkpt lat="49.05319" lon="7.79346">
        <ele>336.6</ele>
        <time>2022-05-01T08:31:38Z</time>
      </trkpt>
      <trkpt lat="49.05317" lon="7.79331">
        <ele>336.2</ele>
        <time>2022-05-01T08:31:41Z</time>
      </trkpt>
      <trkpt lat="49.05315" lon="7.79327">
        <ele>336.2</ele>
        <time>2022-05-01T08:31:42Z</time>
      </trkpt>
      <trkpt lat="49.05314" lon="7.79321">
        <ele>336.2</ele>
        <time>2022-05-01T08:31:43Z</time>
      </trkpt>
      <trkpt lat="49.05313" lon="7.79316">
        <ele>336.2</ele>
        <time>2022-05-01T08:31:44Z</time>
      </trkpt>
      <trkpt lat="49.05312" lon="7.79306">
        <ele>336.2</ele>
        <time>2022-05-01T08:31:46Z</time>
      </trkpt>
      <trkpt lat="49.05314" lon="7.79302">
        <ele>336.2</ele>
        <time>2022-05-01T08:31:47Z</time>
      </trkpt>
      <trkpt lat="49.05315" lon="7.79297">
        <ele>336.2</ele>
        <time>2022-05-01T08:31:48Z</time>
      </trkpt>
      <trkpt lat="49.05314" lon="7.79293">
        <ele>336.4</ele>
        <time>2022-05-01T08:31:49Z</time>
      </trkpt>
      <trkpt lat="49.05313" lon="7.79288">
        <ele>336.4</ele>
        <time>2022-05-01T08:31:50Z</time>
      </trkpt>
      <trkpt lat="49.05312" lon="7.79284">
        <ele>336.4</ele>
        <time>2022-05-01T08:31:51Z</time>
      </trkpt>
      <trkpt lat="49.05311" lon="7.7928">
        <ele>336.6</ele>
        <time>2022-05-01T08:31:52Z</time>
      </trkpt>
      <trkpt lat="49.05309" lon="7.79277">
        <ele>336.6</ele>
        <time>2022-05-01T08:31:53Z</time>
      </trkpt>
      <trkpt lat="49.05309" lon="7.79274">
        <ele>337</ele>
        <time>2022-05-01T08:31:54Z</time>
      </trkpt>
      <trkpt lat="49.05307" lon="7.79272">
        <ele>337</ele>
        <time>2022-05-01T08:31:55Z</time>
      </trkpt>
      <trkpt lat="49.05307" lon="7.79269">
        <ele>337</ele>
        <time>2022-05-01T08:31:56Z</time>
      </trkpt>
      <trkpt lat="49.05308" lon="7.79267">
        <ele>337.2</ele>
        <time>2022-05-01T08:31:57Z</time>
      </trkpt>
      <trkpt lat="49.05309" lon="7.79264">
        <ele>337.4</ele>
        <time>2022-05-01T08:31:58Z</time>
      </trkpt>
      <trkpt lat="49.05311" lon="7.7926">
        <ele>337.6</ele>
        <time>2022-05-01T08:31:59Z</time>
      </trkpt>
      <trkpt lat="49.05312" lon="7.79257">
        <ele>337.6</ele>
        <time>2022-05-01T08:32:00Z</time>
      </trkpt>
      <trkpt lat="49.05312" lon="7.79254">
        <ele>337.8</ele>
        <time>2022-05-01T08:32:01Z</time>
      </trkpt>
      <trkpt lat="49.05313" lon="7.79252">
        <ele>337.8</ele>
        <time>2022-05-01T08:32:02Z</time>
      </trkpt>
      <trkpt lat="49.05313" lon="7.7925">
        <ele>338.2</ele>
        <time>2022-05-01T08:32:03Z</time>
      </trkpt>
      <trkpt lat="49.05314" lon="7.79248">
        <ele>338.4</ele>
        <time>2022-05-01T08:32:04Z</time>
      </trkpt>
      <trkpt lat="49.05315" lon="7.79245">
        <ele>339</ele>
        <time>2022-05-01T08:32:05Z</time>
      </trkpt>
      <trkpt lat="49.05315" lon="7.79242">
        <ele>339</ele>
        <time>2022-05-01T08:32:06Z</time>
      </trkpt>
      <trkpt lat="49.05317" lon="7.79234">
        <ele>339.6</ele>
        <time>2022-05-01T08:32:09Z</time>
      </trkpt>
      <trkpt lat="49.05317" lon="7.7923">
        <ele>339.8</ele>
        <time>2022-05-01T08:32:10Z</time>
      </trkpt>
      <trkpt lat="49.05316" lon="7.79228">
        <ele>340.2</ele>
        <time>2022-05-01T08:32:11Z</time>
      </trkpt>
      <trkpt lat="49.05315" lon="7.79225">
        <ele>340.4</ele>
        <time>2022-05-01T08:32:12Z</time>
      </trkpt>
      <trkpt lat="49.05314" lon="7.79222">
        <ele>341</ele>
        <time>2022-05-01T08:32:13Z</time>
      </trkpt>
      <trkpt lat="49.05314" lon="7.79219">
        <ele>341</ele>
        <time>2022-05-01T08:32:14Z</time>
      </trkpt>
      <trkpt lat="49.05315" lon="7.79216">
        <ele>341.6</ele>
        <time>2022-05-01T08:32:15Z</time>
      </trkpt>
      <trkpt lat="49.05315" lon="7.79212">
        <ele>341.6</ele>
        <time>2022-05-01T08:32:16Z</time>
      </trkpt>
      <trkpt lat="49.05315" lon="7.79209">
        <ele>341.8</ele>
        <time>2022-05-01T08:32:17Z</time>
      </trkpt>
      <trkpt lat="49.05315" lon="7.79207">
        <ele>342.2</ele>
        <time>2022-05-01T08:32:18Z</time>
      </trkpt>
      <trkpt lat="49.05315" lon="7.79204">
        <ele>342.4</ele>
        <time>2022-05-01T08:32:19Z</time>
      </trkpt>
      <trkpt lat="49.05314" lon="7.79201">
        <ele>342.8</ele>
        <time>2022-05-01T08:32:20Z</time>
      </trkpt>
      <trkpt lat="49.05314" lon="7.79198">
        <ele>343</ele>
        <time>2022-05-01T08:32:21Z</time>
      </trkpt>
      <trkpt lat="49.05314" lon="7.79196">
        <ele>343.4</ele>
        <time>2022-05-01T08:32:22Z</time>
      </trkpt>
      <trkpt lat="49.05312" lon="7.79192">
        <ele>343.8</ele>
        <time>2022-05-01T08:32:23Z</time>
      </trkpt>
      <trkpt lat="49.05315" lon="7.79189">
        <ele>344.2</ele>
        <time>2022-05-01T08:32:24Z</time>
      </trkpt>
      <trkpt lat="49.05314" lon="7.79186">
        <ele>344.8</ele>
        <time>2022-05-01T08:32:25Z</time>
      </trkpt>
      <trkpt lat="49.05313" lon="7.79183">
        <ele>344.8</ele>
        <time>2022-05-01T08:32:26Z</time>
      </trkpt>
      <trkpt lat="49.05313" lon="7.79179">
        <ele>345.4</ele>
        <time>2022-05-01T08:32:27Z</time>
      </trkpt>
      <trkpt lat="49.05314" lon="7.79178">
        <ele>345.4</ele>
        <time>2022-05-01T08:32:28Z</time>
      </trkpt>
      <trkpt lat="49.05314" lon="7.79176">
        <ele>345.8</ele>
        <time>2022-05-01T08:32:29Z</time>
      </trkpt>
      <trkpt lat="49.05313" lon="7.79173">
        <ele>346</ele>
        <time>2022-05-01T08:32:30Z</time>
      </trkpt>
      <trkpt lat="49.05314" lon="7.7917">
        <ele>346.4</ele>
        <time>2022-05-01T08:32:31Z</time>
      </trkpt>
      <trkpt lat="49.05315" lon="7.79167">
        <ele>346.8</ele>
        <time>2022-05-01T08:32:32Z</time>
      </trkpt>
      <trkpt lat="49.05316" lon="7.79164">
        <ele>346.8</ele>
        <time>2022-05-01T08:32:33Z</time>
      </trkpt>
      <trkpt lat="49.05316" lon="7.79161">
        <ele>347</ele>
        <time>2022-05-01T08:32:34Z</time>
      </trkpt>
      <trkpt lat="49.05316" lon="7.79157">
        <ele>347.4</ele>
        <time>2022-05-01T08:32:35Z</time>
      </trkpt>
      <trkpt lat="49.05317" lon="7.79154">
        <ele>347.8</ele>
        <time>2022-05-01T08:32:36Z</time>
      </trkpt>
      <trkpt lat="49.05316" lon="7.79151">
        <ele>348</ele>
        <time>2022-05-01T08:32:37Z</time>
      </trkpt>
      <trkpt lat="49.05315" lon="7.79148">
        <ele>348.2</ele>
        <time>2022-05-01T08:32:38Z</time>
      </trkpt>
      <trkpt lat="49.05315" lon="7.79146">
        <ele>348.4</ele>
        <time>2022-05-01T08:32:39Z</time>
      </trkpt>
      <trkpt lat="49.05314" lon="7.79143">
        <ele>348.8</ele>
        <time>2022-05-01T08:32:40Z</time>
      </trkpt>
      <trkpt lat="49.05313" lon="7.7914">
        <ele>349</ele>
        <time>2022-05-01T08:32:41Z</time>
      </trkpt>
      <trkpt lat="49.05311" lon="7.79136">
        <ele>349.2</ele>
        <time>2022-05-01T08:32:42Z</time>
      </trkpt>
      <trkpt lat="49.05312" lon="7.79134">
        <ele>349.4</ele>
        <time>2022-05-01T08:32:43Z</time>
      </trkpt>
      <trkpt lat="49.05312" lon="7.79132">
        <ele>349.8</ele>
        <time>2022-05-01T08:32:44Z</time>
      </trkpt>
      <trkpt lat="49.05311" lon="7.7913">
        <ele>350.2</ele>
        <time>2022-05-01T08:32:45Z</time>
      </trkpt>
      <trkpt lat="49.05311" lon="7.79128">
        <ele>350.4</ele>
        <time>2022-05-01T08:32:46Z</time>
      </trkpt>
      <trkpt lat="49.0531" lon="7.79126">
        <ele>351</ele>
        <time>2022-05-01T08:32:47Z</time>
      </trkpt>
      <trkpt lat="49.05309" lon="7.79123">
        <ele>351.4</ele>
        <time>2022-05-01T08:32:48Z</time>
      </trkpt>
      <trkpt lat="49.05309" lon="7.7912">
        <ele>351.8</ele>
        <time>2022-05-01T08:32:49Z</time>
      </trkpt>
      <trkpt lat="49.05311" lon="7.79118">
        <ele>352</ele>
        <time>2022-05-01T08:32:50Z</time>
      </trkpt>
      <trkpt lat="49.05313" lon="7.79117">
        <ele>352.4</ele>
        <time>2022-05-01T08:32:51Z</time>
      </trkpt>
      <trkpt lat="49.05315" lon="7.79116">
        <ele>352.6</ele>
        <time>2022-05-01T08:32:52Z</time>
      </trkpt>
      <trkpt lat="49.05317" lon="7.79116">
        <ele>353</ele>
        <time>2022-05-01T08:32:53Z</time>
      </trkpt>
      <trkpt lat="49.05319" lon="7.79115">
        <ele>353.2</ele>
        <time>2022-05-01T08:32:54Z</time>
      </trkpt>
      <trkpt lat="49.05321" lon="7.79115">
        <ele>353.2</ele>
        <time>2022-05-01T08:32:55Z</time>
      </trkpt>
      <trkpt lat="49.05323" lon="7.79115">
        <ele>353.4</ele>
        <time>2022-05-01T08:32:56Z</time>
      </trkpt>
      <trkpt lat="49.05325" lon="7.79115">
        <ele>353.6</ele>
        <time>2022-05-01T08:32:57Z</time>
      </trkpt>
      <trkpt lat="49.05327" lon="7.79115">
        <ele>353.8</ele>
        <time>2022-05-01T08:32:58Z</time>
      </trkpt>
      <trkpt lat="49.05328" lon="7.79114">
        <ele>353.8</ele>
        <time>2022-05-01T08:32:59Z</time>
      </trkpt>
      <trkpt lat="49.05328" lon="7.79114">
        <ele>354</ele>
        <time>2022-05-01T08:33:00Z</time>
      </trkpt>
      <trkpt lat="49.05328" lon="7.79113">
        <ele>354</ele>
        <time>2022-05-01T08:33:01Z</time>
      </trkpt>
      <trkpt lat="49.0533" lon="7.79112">
        <ele>354</ele>
        <time>2022-05-01T08:33:02Z</time>
      </trkpt>
      <trkpt lat="49.05331" lon="7.79111">
        <ele>354</ele>
        <time>2022-05-01T08:33:03Z</time>
      </trkpt>
      <trkpt lat="49.05334" lon="7.7911">
        <ele>354</ele>
        <time>2022-05-01T08:33:04Z</time>
      </trkpt>
      <trkpt lat="49.05336" lon="7.79108">
        <ele>354</ele>
        <time>2022-05-01T08:33:05Z</time>
      </trkpt>
      <trkpt lat="49.05339" lon="7.79107">
        <ele>354</ele>
        <time>2022-05-01T08:33:06Z</time>
      </trkpt>
      <trkpt lat="49.0534" lon="7.79105">
        <ele>354</ele>
        <time>2022-05-01T08:33:07Z</time>
      </trkpt>
      <trkpt lat="49.05342" lon="7.79104">
        <ele>354.2</ele>
        <time>2022-05-01T08:33:08Z</time>
      </trkpt>
      <trkpt lat="49.05343" lon="7.79102">
        <ele>354.2</ele>
        <time>2022-05-01T08:33:09Z</time>
      </trkpt>
      <trkpt lat="49.05344" lon="7.791">
        <ele>354.2</ele>
        <time>2022-05-01T08:33:10Z</time>
      </trkpt>
      <trkpt lat="49.05346" lon="7.79099">
        <ele>354.2</ele>
        <time>2022-05-01T08:33:11Z</time>
      </trkpt>
      <trkpt lat="49.05348" lon="7.79098">
        <ele>354.2</ele>
        <time>2022-05-01T08:33:12Z</time>
      </trkpt>
      <trkpt lat="49.05348" lon="7.79098">
        <ele>354.2</ele>
        <time>2022-05-01T08:33:13Z</time>
      </trkpt>
      <trkpt lat="49.05349" lon="7.79098">
        <ele>354.4</ele>
        <time>2022-05-01T08:33:14Z</time>
      </trkpt>
      <trkpt lat="49.05351" lon="7.79097">
        <ele>354.6</ele>
        <time>2022-05-01T08:33:15Z</time>
      </trkpt>
      <trkpt lat="49.05353" lon="7.79097">
        <ele>354.8</ele>
        <time>2022-05-01T08:33:16Z</time>
      </trkpt>
      <trkpt lat="49.05355" lon="7.79095">
        <ele>354.8</ele>
        <time>2022-05-01T08:33:17Z</time>
      </trkpt>
      <trkpt lat="49.05357" lon="7.79094">
        <ele>355</ele>
        <time>2022-05-01T08:33:18Z</time>
      </trkpt>
      <trkpt lat="49.05359" lon="7.79092">
        <ele>355.2</ele>
        <time>2022-05-01T08:33:19Z</time>
      </trkpt>
      <trkpt lat="49.05362" lon="7.79091">
        <ele>355.2</ele>
        <time>2022-05-01T08:33:20Z</time>
      </trkpt>
      <trkpt lat="49.05365" lon="7.79089">
        <ele>355.4</ele>
        <time>2022-05-01T08:33:21Z</time>
      </trkpt>
      <trkpt lat="49.05372" lon="7.79087">
        <ele>355.6</ele>
        <time>2022-05-01T08:33:22Z</time>
      </trkpt>
      <trkpt lat="49.05374" lon="7.79085">
        <ele>355.6</ele>
        <time>2022-05-01T08:33:23Z</time>
      </trkpt>
      <trkpt lat="49.0538" lon="7.79081">
        <ele>355.8</ele>
        <time>2022-05-01T08:33:24Z</time>
      </trkpt>
      <trkpt lat="49.05383" lon="7.7908">
        <ele>356</ele>
        <time>2022-05-01T08:33:25Z</time>
      </trkpt>
      <trkpt lat="49.05385" lon="7.7908">
        <ele>356.2</ele>
        <time>2022-05-01T08:33:26Z</time>
      </trkpt>
      <trkpt lat="49.05387" lon="7.7908">
        <ele>356.2</ele>
        <time>2022-05-01T08:33:27Z</time>
      </trkpt>
      <trkpt lat="49.05388" lon="7.79079">
        <ele>356.4</ele>
        <time>2022-05-01T08:33:28Z</time>
      </trkpt>
      <trkpt lat="49.0539" lon="7.79078">
        <ele>356.6</ele>
        <time>2022-05-01T08:33:29Z</time>
      </trkpt>
      <trkpt lat="49.05391" lon="7.79076">
        <ele>356.8</ele>
        <time>2022-05-01T08:33:30Z</time>
      </trkpt>
      <trkpt lat="49.05392" lon="7.79075">
        <ele>356.8</ele>
        <time>2022-05-01T08:33:31Z</time>
      </trkpt>
      <trkpt lat="49.05395" lon="7.79077">
        <ele>357</ele>
        <time>2022-05-01T08:33:32Z</time>
      </trkpt>
      <trkpt lat="49.05398" lon="7.79076">
        <ele>357</ele>
        <time>2022-05-01T08:33:33Z</time>
      </trkpt>
      <trkpt lat="49.054" lon="7.79074">
        <ele>357.2</ele>
        <time>2022-05-01T08:33:34Z</time>
      </trkpt>
      <trkpt lat="49.054" lon="7.79074">
        <ele>357.4</ele>
        <time>2022-05-01T08:33:35Z</time>
      </trkpt>
      <trkpt lat="49.05402" lon="7.79072">
        <ele>357.4</ele>
        <time>2022-05-01T08:33:36Z</time>
      </trkpt>
      <trkpt lat="49.05407" lon="7.79069">
        <ele>357.6</ele>
        <time>2022-05-01T08:33:37Z</time>
      </trkpt>
      <trkpt lat="49.05412" lon="7.79066">
        <ele>357.8</ele>
        <time>2022-05-01T08:33:38Z</time>
      </trkpt>
      <trkpt lat="49.05414" lon="7.79065">
        <ele>358</ele>
        <time>2022-05-01T08:33:39Z</time>
      </trkpt>
      <trkpt lat="49.05415" lon="7.79063">
        <ele>358.2</ele>
        <time>2022-05-01T08:33:40Z</time>
      </trkpt>
      <trkpt lat="49.05416" lon="7.79062">
        <ele>358.2</ele>
        <time>2022-05-01T08:33:41Z</time>
      </trkpt>
      <trkpt lat="49.05418" lon="7.79062">
        <ele>358.2</ele>
        <time>2022-05-01T08:33:42Z</time>
      </trkpt>
      <trkpt lat="49.05419" lon="7.79062">
        <ele>358.4</ele>
        <time>2022-05-01T08:33:43Z</time>
      </trkpt>
      <trkpt lat="49.05419" lon="7.79061">
        <ele>358.6</ele>
        <time>2022-05-01T08:33:44Z</time>
      </trkpt>
      <trkpt lat="49.05421" lon="7.7906">
        <ele>358.6</ele>
        <time>2022-05-01T08:33:45Z</time>
      </trkpt>
      <trkpt lat="49.05424" lon="7.79058">
        <ele>359</ele>
        <time>2022-05-01T08:33:46Z</time>
      </trkpt>
      <trkpt lat="49.05427" lon="7.79055">
        <ele>359</ele>
        <time>2022-05-01T08:33:47Z</time>
      </trkpt>
      <trkpt lat="49.05431" lon="7.79054">
        <ele>359</ele>
        <time>2022-05-01T08:33:48Z</time>
      </trkpt>
      <trkpt lat="49.05436" lon="7.79053">
        <ele>359.2</ele>
        <time>2022-05-01T08:33:49Z</time>
      </trkpt>
      <trkpt lat="49.05439" lon="7.79052">
        <ele>359.4</ele>
        <time>2022-05-01T08:33:50Z</time>
      </trkpt>
      <trkpt lat="49.05442" lon="7.79052">
        <ele>359.6</ele>
        <time>2022-05-01T08:33:51Z</time>
      </trkpt>
      <trkpt lat="49.05445" lon="7.79051">
        <ele>359.8</ele>
        <time>2022-05-01T08:33:52Z</time>
      </trkpt>
      <trkpt lat="49.05448" lon="7.79048">
        <ele>359.8</ele>
        <time>2022-05-01T08:33:53Z</time>
      </trkpt>
      <trkpt lat="49.05451" lon="7.79047">
        <ele>360</ele>
        <time>2022-05-01T08:33:54Z</time>
      </trkpt>
      <trkpt lat="49.05454" lon="7.79045">
        <ele>360.4</ele>
        <time>2022-05-01T08:33:55Z</time>
      </trkpt>
      <trkpt lat="49.0546" lon="7.79043">
        <ele>360.4</ele>
        <time>2022-05-01T08:33:56Z</time>
      </trkpt>
      <trkpt lat="49.05462" lon="7.79041">
        <ele>360.6</ele>
        <time>2022-05-01T08:33:57Z</time>
      </trkpt>
      <trkpt lat="49.05463" lon="7.79039">
        <ele>360.6</ele>
        <time>2022-05-01T08:33:58Z</time>
      </trkpt>
      <trkpt lat="49.05464" lon="7.79038">
        <ele>360.8</ele>
        <time>2022-05-01T08:33:59Z</time>
      </trkpt>
      <trkpt lat="49.05465" lon="7.79038">
        <ele>361</ele>
        <time>2022-05-01T08:34:00Z</time>
      </trkpt>
      <trkpt lat="49.05466" lon="7.79037">
        <ele>361</ele>
        <time>2022-05-01T08:34:01Z</time>
      </trkpt>
      <trkpt lat="49.05467" lon="7.79035">
        <ele>361.2</ele>
        <time>2022-05-01T08:34:02Z</time>
      </trkpt>
      <trkpt lat="49.0547" lon="7.79034">
        <ele>361.6</ele>
        <time>2022-05-01T08:34:03Z</time>
      </trkpt>
      <trkpt lat="49.05472" lon="7.79032">
        <ele>361.6</ele>
        <time>2022-05-01T08:34:04Z</time>
      </trkpt>
      <trkpt lat="49.05475" lon="7.7903">
        <ele>361.6</ele>
        <time>2022-05-01T08:34:05Z</time>
      </trkpt>
      <trkpt lat="49.05477" lon="7.79029">
        <ele>362</ele>
        <time>2022-05-01T08:34:06Z</time>
      </trkpt>
      <trkpt lat="49.05479" lon="7.79028">
        <ele>362.2</ele>
        <time>2022-05-01T08:34:07Z</time>
      </trkpt>
      <trkpt lat="49.05482" lon="7.79028">
        <ele>362.2</ele>
        <time>2022-05-01T08:34:08Z</time>
      </trkpt>
      <trkpt lat="49.05484" lon="7.79026">
        <ele>362.4</ele>
        <time>2022-05-01T08:34:09Z</time>
      </trkpt>
      <trkpt lat="49.05487" lon="7.79024">
        <ele>362.6</ele>
        <time>2022-05-01T08:34:10Z</time>
      </trkpt>
      <trkpt lat="49.05489" lon="7.79023">
        <ele>362.8</ele>
        <time>2022-05-01T08:34:11Z</time>
      </trkpt>
      <trkpt lat="49.05491" lon="7.79022">
        <ele>362.8</ele>
        <time>2022-05-01T08:34:12Z</time>
      </trkpt>
      <trkpt lat="49.05494" lon="7.79021">
        <ele>363.2</ele>
        <time>2022-05-01T08:34:13Z</time>
      </trkpt>
      <trkpt lat="49.05496" lon="7.79019">
        <ele>363.2</ele>
        <time>2022-05-01T08:34:14Z</time>
      </trkpt>
      <trkpt lat="49.05499" lon="7.79018">
        <ele>363.6</ele>
        <time>2022-05-01T08:34:15Z</time>
      </trkpt>
      <trkpt lat="49.05501" lon="7.79016">
        <ele>363.6</ele>
        <time>2022-05-01T08:34:16Z</time>
      </trkpt>
      <trkpt lat="49.05503" lon="7.79014">
        <ele>363.8</ele>
        <time>2022-05-01T08:34:17Z</time>
      </trkpt>
      <trkpt lat="49.05505" lon="7.79012">
        <ele>363.8</ele>
        <time>2022-05-01T08:34:18Z</time>
      </trkpt>
      <trkpt lat="49.05507" lon="7.79009">
        <ele>364</ele>
        <time>2022-05-01T08:34:19Z</time>
      </trkpt>
      <trkpt lat="49.05509" lon="7.79008">
        <ele>364.2</ele>
        <time>2022-05-01T08:34:20Z</time>
      </trkpt>
      <trkpt lat="49.05511" lon="7.79005">
        <ele>364.2</ele>
        <time>2022-05-01T08:34:21Z</time>
      </trkpt>
      <trkpt lat="49.05514" lon="7.79003">
        <ele>364.2</ele>
        <time>2022-05-01T08:34:22Z</time>
      </trkpt>
      <trkpt lat="49.05517" lon="7.79">
        <ele>364.4</ele>
        <time>2022-05-01T08:34:23Z</time>
      </trkpt>
      <trkpt lat="49.05519" lon="7.78998">
        <ele>364.6</ele>
        <time>2022-05-01T08:34:24Z</time>
      </trkpt>
      <trkpt lat="49.05521" lon="7.78995">
        <ele>364.6</ele>
        <time>2022-05-01T08:34:25Z</time>
      </trkpt>
      <trkpt lat="49.05524" lon="7.78992">
        <ele>364.8</ele>
        <time>2022-05-01T08:34:26Z</time>
      </trkpt>
      <trkpt lat="49.05527" lon="7.7899">
        <ele>365</ele>
        <time>2022-05-01T08:34:27Z</time>
      </trkpt>
      <trkpt lat="49.0553" lon="7.78987">
        <ele>365.2</ele>
        <time>2022-05-01T08:34:28Z</time>
      </trkpt>
      <trkpt lat="49.05532" lon="7.78984">
        <ele>365.4</ele>
        <time>2022-05-01T08:34:29Z</time>
      </trkpt>
      <trkpt lat="49.05535" lon="7.78981">
        <ele>365.6</ele>
        <time>2022-05-01T08:34:30Z</time>
      </trkpt>
      <trkpt lat="49.05537" lon="7.78979">
        <ele>365.6</ele>
        <time>2022-05-01T08:34:31Z</time>
      </trkpt>
      <trkpt lat="49.05539" lon="7.78977">
        <ele>365.8</ele>
        <time>2022-05-01T08:34:32Z</time>
      </trkpt>
      <trkpt lat="49.05541" lon="7.78975">
        <ele>365.8</ele>
        <time>2022-05-01T08:34:33Z</time>
      </trkpt>
      <trkpt lat="49.05543" lon="7.78972">
        <ele>366</ele>
        <time>2022-05-01T08:34:34Z</time>
      </trkpt>
      <trkpt lat="49.05545" lon="7.78969">
        <ele>366.2</ele>
        <time>2022-05-01T08:34:35Z</time>
      </trkpt>
      <trkpt lat="49.05547" lon="7.78967">
        <ele>366.2</ele>
        <time>2022-05-01T08:34:36Z</time>
      </trkpt>
      <trkpt lat="49.05549" lon="7.78964">
        <ele>366.4</ele>
        <time>2022-05-01T08:34:37Z</time>
      </trkpt>
      <trkpt lat="49.0555" lon="7.78961">
        <ele>366.6</ele>
        <time>2022-05-01T08:34:38Z</time>
      </trkpt>
      <trkpt lat="49.05552" lon="7.78958">
        <ele>366.6</ele>
        <time>2022-05-01T08:34:39Z</time>
      </trkpt>
      <trkpt lat="49.05555" lon="7.78957">
        <ele>366.8</ele>
        <time>2022-05-01T08:34:40Z</time>
      </trkpt>
      <trkpt lat="49.05557" lon="7.78954">
        <ele>366.8</ele>
        <time>2022-05-01T08:34:41Z</time>
      </trkpt>
      <trkpt lat="49.05559" lon="7.78951">
        <ele>367</ele>
        <time>2022-05-01T08:34:42Z</time>
      </trkpt>
      <trkpt lat="49.05561" lon="7.78948">
        <ele>367</ele>
        <time>2022-05-01T08:34:43Z</time>
      </trkpt>
      <trkpt lat="49.05563" lon="7.78946">
        <ele>367.2</ele>
        <time>2022-05-01T08:34:44Z</time>
      </trkpt>
      <trkpt lat="49.05565" lon="7.78943">
        <ele>367.4</ele>
        <time>2022-05-01T08:34:45Z</time>
      </trkpt>
      <trkpt lat="49.05566" lon="7.78941">
        <ele>367.6</ele>
        <time>2022-05-01T08:34:46Z</time>
      </trkpt>
      <trkpt lat="49.05568" lon="7.78939">
        <ele>367.8</ele>
        <time>2022-05-01T08:34:47Z</time>
      </trkpt>
      <trkpt lat="49.0557" lon="7.78937">
        <ele>368</ele>
        <time>2022-05-01T08:34:48Z</time>
      </trkpt>
      <trkpt lat="49.05573" lon="7.78936">
        <ele>368.2</ele>
        <time>2022-05-01T08:34:49Z</time>
      </trkpt>
      <trkpt lat="49.05576" lon="7.78935">
        <ele>368.4</ele>
        <time>2022-05-01T08:34:50Z</time>
      </trkpt>
      <trkpt lat="49.05578" lon="7.78934">
        <ele>368.6</ele>
        <time>2022-05-01T08:34:51Z</time>
      </trkpt>
      <trkpt lat="49.05581" lon="7.78933">
        <ele>368.6</ele>
        <time>2022-05-01T08:34:52Z</time>
      </trkpt>
      <trkpt lat="49.05583" lon="7.78932">
        <ele>368.8</ele>
        <time>2022-05-01T08:34:53Z</time>
      </trkpt>
      <trkpt lat="49.05586" lon="7.78931">
        <ele>369.2</ele>
        <time>2022-05-01T08:34:54Z</time>
      </trkpt>
      <trkpt lat="49.05589" lon="7.7893">
        <ele>369.4</ele>
        <time>2022-05-01T08:34:55Z</time>
      </trkpt>
      <trkpt lat="49.05592" lon="7.7893">
        <ele>369.4</ele>
        <time>2022-05-01T08:34:56Z</time>
      </trkpt>
      <trkpt lat="49.05595" lon="7.78929">
        <ele>369.8</ele>
        <time>2022-05-01T08:34:57Z</time>
      </trkpt>
      <trkpt lat="49.05598" lon="7.78929">
        <ele>370</ele>
        <time>2022-05-01T08:34:58Z</time>
      </trkpt>
      <trkpt lat="49.05601" lon="7.78929">
        <ele>370.2</ele>
        <time>2022-05-01T08:34:59Z</time>
      </trkpt>
      <trkpt lat="49.05604" lon="7.78929">
        <ele>370.4</ele>
        <time>2022-05-01T08:35:00Z</time>
      </trkpt>
      <trkpt lat="49.05606" lon="7.78929">
        <ele>370.6</ele>
        <time>2022-05-01T08:35:01Z</time>
      </trkpt>
      <trkpt lat="49.05609" lon="7.78928">
        <ele>370.8</ele>
        <time>2022-05-01T08:35:02Z</time>
      </trkpt>
      <trkpt lat="49.05611" lon="7.78928">
        <ele>371</ele>
        <time>2022-05-01T08:35:03Z</time>
      </trkpt>
      <trkpt lat="49.05614" lon="7.78928">
        <ele>371.2</ele>
        <time>2022-05-01T08:35:04Z</time>
      </trkpt>
      <trkpt lat="49.05618" lon="7.78926">
        <ele>371.4</ele>
        <time>2022-05-01T08:35:05Z</time>
      </trkpt>
      <trkpt lat="49.05619" lon="7.78925">
        <ele>371.6</ele>
        <time>2022-05-01T08:35:06Z</time>
      </trkpt>
      <trkpt lat="49.05621" lon="7.78924">
        <ele>371.8</ele>
        <time>2022-05-01T08:35:07Z</time>
      </trkpt>
      <trkpt lat="49.05623" lon="7.78923">
        <ele>372</ele>
        <time>2022-05-01T08:35:08Z</time>
      </trkpt>
      <trkpt lat="49.05626" lon="7.78922">
        <ele>372.2</ele>
        <time>2022-05-01T08:35:09Z</time>
      </trkpt>
      <trkpt lat="49.05631" lon="7.7892">
        <ele>372.2</ele>
        <time>2022-05-01T08:35:10Z</time>
      </trkpt>
      <trkpt lat="49.05637" lon="7.78918">
        <ele>372.6</ele>
        <time>2022-05-01T08:35:11Z</time>
      </trkpt>
      <trkpt lat="49.05641" lon="7.78918">
        <ele>372.6</ele>
        <time>2022-05-01T08:35:12Z</time>
      </trkpt>
      <trkpt lat="49.05645" lon="7.78918">
        <ele>372.8</ele>
        <time>2022-05-01T08:35:13Z</time>
      </trkpt>
      <trkpt lat="49.05648" lon="7.78917">
        <ele>372.8</ele>
        <time>2022-05-01T08:35:14Z</time>
      </trkpt>
      <trkpt lat="49.0565" lon="7.78917">
        <ele>373</ele>
        <time>2022-05-01T08:35:15Z</time>
      </trkpt>
      <trkpt lat="49.05652" lon="7.78916">
        <ele>373.4</ele>
        <time>2022-05-01T08:35:16Z</time>
      </trkpt>
      <trkpt lat="49.05654" lon="7.78917">
        <ele>373.6</ele>
        <time>2022-05-01T08:35:17Z</time>
      </trkpt>
      <trkpt lat="49.05655" lon="7.78916">
        <ele>373.8</ele>
        <time>2022-05-01T08:35:18Z</time>
      </trkpt>
      <trkpt lat="49.05658" lon="7.78915">
        <ele>374</ele>
        <time>2022-05-01T08:35:19Z</time>
      </trkpt>
      <trkpt lat="49.0566" lon="7.78915">
        <ele>374.2</ele>
        <time>2022-05-01T08:35:20Z</time>
      </trkpt>
      <trkpt lat="49.05663" lon="7.78914">
        <ele>374.4</ele>
        <time>2022-05-01T08:35:21Z</time>
      </trkpt>
      <trkpt lat="49.05665" lon="7.78914">
        <ele>374.4</ele>
        <time>2022-05-01T08:35:22Z</time>
      </trkpt>
      <trkpt lat="49.05667" lon="7.78913">
        <ele>374.6</ele>
        <time>2022-05-01T08:35:23Z</time>
      </trkpt>
      <trkpt lat="49.0567" lon="7.78911">
        <ele>374.8</ele>
        <time>2022-05-01T08:35:24Z</time>
      </trkpt>
      <trkpt lat="49.05673" lon="7.78909">
        <ele>375</ele>
        <time>2022-05-01T08:35:25Z</time>
      </trkpt>
      <trkpt lat="49.05676" lon="7.78907">
        <ele>375.2</ele>
        <time>2022-05-01T08:35:26Z</time>
      </trkpt>
      <trkpt lat="49.05678" lon="7.78905">
        <ele>375.2</ele>
        <time>2022-05-01T08:35:27Z</time>
      </trkpt>
      <trkpt lat="49.0568" lon="7.78904">
        <ele>375.2</ele>
        <time>2022-05-01T08:35:28Z</time>
      </trkpt>
      <trkpt lat="49.05681" lon="7.78902">
        <ele>375.4</ele>
        <time>2022-05-01T08:35:29Z</time>
      </trkpt>
      <trkpt lat="49.05684" lon="7.789">
        <ele>375.6</ele>
        <time>2022-05-01T08:35:30Z</time>
      </trkpt>
      <trkpt lat="49.05685" lon="7.78897">
        <ele>375.8</ele>
        <time>2022-05-01T08:35:31Z</time>
      </trkpt>
      <trkpt lat="49.05688" lon="7.78895">
        <ele>376.2</ele>
        <time>2022-05-01T08:35:32Z</time>
      </trkpt>
      <trkpt lat="49.05691" lon="7.78891">
        <ele>376.4</ele>
        <time>2022-05-01T08:35:33Z</time>
      </trkpt>
      <trkpt lat="49.05693" lon="7.78889">
        <ele>376.4</ele>
        <time>2022-05-01T08:35:34Z</time>
      </trkpt>
      <trkpt lat="49.05695" lon="7.78886">
        <ele>376.6</ele>
        <time>2022-05-01T08:35:35Z</time>
      </trkpt>
      <trkpt lat="49.05697" lon="7.78884">
        <ele>376.8</ele>
        <time>2022-05-01T08:35:36Z</time>
      </trkpt>
      <trkpt lat="49.05701" lon="7.78881">
        <ele>377.2</ele>
        <time>2022-05-01T08:35:37Z</time>
      </trkpt>
      <trkpt lat="49.05702" lon="7.78878">
        <ele>377.6</ele>
        <time>2022-05-01T08:35:38Z</time>
      </trkpt>
      <trkpt lat="49.05704" lon="7.78875">
        <ele>377.8</ele>
        <time>2022-05-01T08:35:39Z</time>
      </trkpt>
      <trkpt lat="49.05707" lon="7.78871">
        <ele>378.2</ele>
        <time>2022-05-01T08:35:40Z</time>
      </trkpt>
      <trkpt lat="49.05709" lon="7.78868">
        <ele>378.4</ele>
        <time>2022-05-01T08:35:41Z</time>
      </trkpt>
      <trkpt lat="49.05711" lon="7.78864">
        <ele>378.6</ele>
        <time>2022-05-01T08:35:42Z</time>
      </trkpt>
      <trkpt lat="49.05714" lon="7.7886">
        <ele>378.6</ele>
        <time>2022-05-01T08:35:43Z</time>
      </trkpt>
      <trkpt lat="49.05717" lon="7.78857">
        <ele>378.8</ele>
        <time>2022-05-01T08:35:44Z</time>
      </trkpt>
      <trkpt lat="49.0572" lon="7.78853">
        <ele>379</ele>
        <time>2022-05-01T08:35:45Z</time>
      </trkpt>
      <trkpt lat="49.05723" lon="7.78848">
        <ele>379.2</ele>
        <time>2022-05-01T08:35:46Z</time>
      </trkpt>
      <trkpt lat="49.05723" lon="7.78844">
        <ele>379.4</ele>
        <time>2022-05-01T08:35:47Z</time>
      </trkpt>
      <trkpt lat="49.05725" lon="7.78842">
        <ele>379.4</ele>
        <time>2022-05-01T08:35:48Z</time>
      </trkpt>
      <trkpt lat="49.05726" lon="7.78838">
        <ele>379.6</ele>
        <time>2022-05-01T08:35:49Z</time>
      </trkpt>
      <trkpt lat="49.05728" lon="7.78835">
        <ele>379.8</ele>
        <time>2022-05-01T08:35:50Z</time>
      </trkpt>
      <trkpt lat="49.05731" lon="7.78832">
        <ele>379.8</ele>
        <time>2022-05-01T08:35:51Z</time>
      </trkpt>
      <trkpt lat="49.05734" lon="7.78829">
        <ele>380</ele>
        <time>2022-05-01T08:35:52Z</time>
      </trkpt>
      <trkpt lat="49.05736" lon="7.78826">
        <ele>380.2</ele>
        <time>2022-05-01T08:35:53Z</time>
      </trkpt>
      <trkpt lat="49.05738" lon="7.78822">
        <ele>380.4</ele>
        <time>2022-05-01T08:35:54Z</time>
      </trkpt>
      <trkpt lat="49.05743" lon="7.78818">
        <ele>380.6</ele>
        <time>2022-05-01T08:35:55Z</time>
      </trkpt>
      <trkpt lat="49.05745" lon="7.78815">
        <ele>380.8</ele>
        <time>2022-05-01T08:35:56Z</time>
      </trkpt>
      <trkpt lat="49.05746" lon="7.78814">
        <ele>381</ele>
        <time>2022-05-01T08:35:57Z</time>
      </trkpt>
      <trkpt lat="49.05747" lon="7.78811">
        <ele>381.2</ele>
        <time>2022-05-01T08:35:58Z</time>
      </trkpt>
      <trkpt lat="49.05749" lon="7.78807">
        <ele>381.4</ele>
        <time>2022-05-01T08:35:59Z</time>
      </trkpt>
      <trkpt lat="49.05751" lon="7.78804">
        <ele>381.6</ele>
        <time>2022-05-01T08:36:00Z</time>
      </trkpt>
      <trkpt lat="49.05752" lon="7.78803">
        <ele>381.8</ele>
        <time>2022-05-01T08:36:01Z</time>
      </trkpt>
      <trkpt lat="49.05754" lon="7.78801">
        <ele>381.8</ele>
        <time>2022-05-01T08:36:02Z</time>
      </trkpt>
      <trkpt lat="49.05756" lon="7.78799">
        <ele>381.8</ele>
        <time>2022-05-01T08:36:03Z</time>
      </trkpt>
      <trkpt lat="49.05758" lon="7.78797">
        <ele>382</ele>
        <time>2022-05-01T08:36:04Z</time>
      </trkpt>
      <trkpt lat="49.05763" lon="7.78793">
        <ele>382.2</ele>
        <time>2022-05-01T08:36:05Z</time>
      </trkpt>
      <trkpt lat="49.05771" lon="7.7879">
        <ele>382.4</ele>
        <time>2022-05-01T08:36:06Z</time>
      </trkpt>
      <trkpt lat="49.05772" lon="7.78787">
        <ele>382.6</ele>
        <time>2022-05-01T08:36:07Z</time>
      </trkpt>
      <trkpt lat="49.05773" lon="7.78785">
        <ele>382.8</ele>
        <time>2022-05-01T08:36:08Z</time>
      </trkpt>
      <trkpt lat="49.05774" lon="7.78783">
        <ele>383</ele>
        <time>2022-05-01T08:36:09Z</time>
      </trkpt>
      <trkpt lat="49.05774" lon="7.78781">
        <ele>383.2</ele>
        <time>2022-05-01T08:36:10Z</time>
      </trkpt>
      <trkpt lat="49.05775" lon="7.7878">
        <ele>383.4</ele>
        <time>2022-05-01T08:36:11Z</time>
      </trkpt>
      <trkpt lat="49.05776" lon="7.78779">
        <ele>383.6</ele>
        <time>2022-05-01T08:36:12Z</time>
      </trkpt>
      <trkpt lat="49.05778" lon="7.78777">
        <ele>383.8</ele>
        <time>2022-05-01T08:36:13Z</time>
      </trkpt>
      <trkpt lat="49.0578" lon="7.78776">
        <ele>384</ele>
        <time>2022-05-01T08:36:14Z</time>
      </trkpt>
      <trkpt lat="49.05781" lon="7.78773">
        <ele>384.2</ele>
        <time>2022-05-01T08:36:15Z</time>
      </trkpt>
      <trkpt lat="49.05783" lon="7.78771">
        <ele>384.4</ele>
        <time>2022-05-01T08:36:16Z</time>
      </trkpt>
      <trkpt lat="49.05784" lon="7.78768">
        <ele>384.6</ele>
        <time>2022-05-01T08:36:17Z</time>
      </trkpt>
      <trkpt lat="49.05785" lon="7.78765">
        <ele>384.6</ele>
        <time>2022-05-01T08:36:18Z</time>
      </trkpt>
      <trkpt lat="49.05786" lon="7.78764">
        <ele>384.8</ele>
        <time>2022-05-01T08:36:19Z</time>
      </trkpt>
      <trkpt lat="49.05788" lon="7.78762">
        <ele>384.8</ele>
        <time>2022-05-01T08:36:20Z</time>
      </trkpt>
      <trkpt lat="49.05791" lon="7.78761">
        <ele>385.2</ele>
        <time>2022-05-01T08:36:21Z</time>
      </trkpt>
      <trkpt lat="49.05793" lon="7.78759">
        <ele>385.4</ele>
        <time>2022-05-01T08:36:22Z</time>
      </trkpt>
      <trkpt lat="49.05795" lon="7.78757">
        <ele>385.6</ele>
        <time>2022-05-01T08:36:23Z</time>
      </trkpt>
      <trkpt lat="49.05797" lon="7.78755">
        <ele>385.6</ele>
        <time>2022-05-01T08:36:24Z</time>
      </trkpt>
      <trkpt lat="49.05799" lon="7.78752">
        <ele>385.8</ele>
        <time>2022-05-01T08:36:25Z</time>
      </trkpt>
      <trkpt lat="49.058" lon="7.78749">
        <ele>386</ele>
        <time>2022-05-01T08:36:26Z</time>
      </trkpt>
      <trkpt lat="49.05801" lon="7.78746">
        <ele>386</ele>
        <time>2022-05-01T08:36:27Z</time>
      </trkpt>
      <trkpt lat="49.05801" lon="7.78745">
        <ele>386.2</ele>
        <time>2022-05-01T08:36:28Z</time>
      </trkpt>
      <trkpt lat="49.05799" lon="7.78742">
        <ele>386.4</ele>
        <time>2022-05-01T08:36:29Z</time>
      </trkpt>
      <trkpt lat="49.05798" lon="7.7874">
        <ele>386.8</ele>
        <time>2022-05-01T08:36:30Z</time>
      </trkpt>
      <trkpt lat="49.05796" lon="7.78738">
        <ele>386.8</ele>
        <time>2022-05-01T08:36:31Z</time>
      </trkpt>
      <trkpt lat="49.05795" lon="7.78737">
        <ele>387</ele>
        <time>2022-05-01T08:36:32Z</time>
      </trkpt>
      <trkpt lat="49.05793" lon="7.78738">
        <ele>387.2</ele>
        <time>2022-05-01T08:36:33Z</time>
      </trkpt>
      <trkpt lat="49.05791" lon="7.78739">
        <ele>387.2</ele>
        <time>2022-05-01T08:36:34Z</time>
      </trkpt>
      <trkpt lat="49.05789" lon="7.7874">
        <ele>387.6</ele>
        <time>2022-05-01T08:36:35Z</time>
      </trkpt>
      <trkpt lat="49.05788" lon="7.7874">
        <ele>387.8</ele>
        <time>2022-05-01T08:36:36Z</time>
      </trkpt>
      <trkpt lat="49.05786" lon="7.78741">
        <ele>388</ele>
        <time>2022-05-01T08:36:37Z</time>
      </trkpt>
      <trkpt lat="49.05784" lon="7.78743">
        <ele>388.2</ele>
        <time>2022-05-01T08:36:38Z</time>
      </trkpt>
      <trkpt lat="49.05781" lon="7.78745">
        <ele>388.6</ele>
        <time>2022-05-01T08:36:39Z</time>
      </trkpt>
      <trkpt lat="49.05779" lon="7.78747">
        <ele>389</ele>
        <time>2022-05-01T08:36:40Z</time>
      </trkpt>
      <trkpt lat="49.05776" lon="7.7875">
        <ele>389.2</ele>
        <time>2022-05-01T08:36:41Z</time>
      </trkpt>
      <trkpt lat="49.05772" lon="7.78752">
        <ele>389.4</ele>
        <time>2022-05-01T08:36:42Z</time>
      </trkpt>
      <trkpt lat="49.05769" lon="7.78754">
        <ele>389.8</ele>
        <time>2022-05-01T08:36:43Z</time>
      </trkpt>
      <trkpt lat="49.05768" lon="7.78755">
        <ele>390</ele>
        <time>2022-05-01T08:36:44Z</time>
      </trkpt>
      <trkpt lat="49.05766" lon="7.78754">
        <ele>390.2</ele>
        <time>2022-05-01T08:36:45Z</time>
      </trkpt>
      <trkpt lat="49.05764" lon="7.78754">
        <ele>390.2</ele>
        <time>2022-05-01T08:36:46Z</time>
      </trkpt>
      <trkpt lat="49.05762" lon="7.78755">
        <ele>390.4</ele>
        <time>2022-05-01T08:36:47Z</time>
      </trkpt>
      <trkpt lat="49.0576" lon="7.78756">
        <ele>390.4</ele>
        <time>2022-05-01T08:36:48Z</time>
      </trkpt>
      <trkpt lat="49.05758" lon="7.78756">
        <ele>390.6</ele>
        <time>2022-05-01T08:36:49Z</time>
      </trkpt>
      <trkpt lat="49.05756" lon="7.78757">
        <ele>390.8</ele>
        <time>2022-05-01T08:36:50Z</time>
      </trkpt>
      <trkpt lat="49.05753" lon="7.78757">
        <ele>391</ele>
        <time>2022-05-01T08:36:51Z</time>
      </trkpt>
      <trkpt lat="49.05749" lon="7.78759">
        <ele>391.2</ele>
        <time>2022-05-01T08:36:52Z</time>
      </trkpt>
      <trkpt lat="49.05746" lon="7.7876">
        <ele>391.2</ele>
        <time>2022-05-01T08:36:53Z</time>
      </trkpt>
      <trkpt lat="49.05743" lon="7.78761">
        <ele>391.4</ele>
        <time>2022-05-01T08:36:54Z</time>
      </trkpt>
      <trkpt lat="49.0574" lon="7.78762">
        <ele>391.6</ele>
        <time>2022-05-01T08:36:55Z</time>
      </trkpt>
      <trkpt lat="49.05736" lon="7.78763">
        <ele>391.6</ele>
        <time>2022-05-01T08:36:56Z</time>
      </trkpt>
      <trkpt lat="49.05733" lon="7.78764">
        <ele>391.8</ele>
        <time>2022-05-01T08:36:57Z</time>
      </trkpt>
      <trkpt lat="49.05732" lon="7.78764">
        <ele>392</ele>
        <time>2022-05-01T08:36:58Z</time>
      </trkpt>
      <trkpt lat="49.0573" lon="7.78764">
        <ele>392</ele>
        <time>2022-05-01T08:36:59Z</time>
      </trkpt>
      <trkpt lat="49.0573" lon="7.78766">
        <ele>392.2</ele>
        <time>2022-05-01T08:37:00Z</time>
      </trkpt>
      <trkpt lat="49.05729" lon="7.78769">
        <ele>392.2</ele>
        <time>2022-05-01T08:37:01Z</time>
      </trkpt>
      <trkpt lat="49.05727" lon="7.78772">
        <ele>392.6</ele>
        <time>2022-05-01T08:37:02Z</time>
      </trkpt>
      <trkpt lat="49.05723" lon="7.78775">
        <ele>392.8</ele>
        <time>2022-05-01T08:37:03Z</time>
      </trkpt>
      <trkpt lat="49.0572" lon="7.78777">
        <ele>392.8</ele>
        <time>2022-05-01T08:37:04Z</time>
      </trkpt>
      <trkpt lat="49.05719" lon="7.78779">
        <ele>393.2</ele>
        <time>2022-05-01T08:37:05Z</time>
      </trkpt>
      <trkpt lat="49.05718" lon="7.78781">
        <ele>393.2</ele>
        <time>2022-05-01T08:37:06Z</time>
      </trkpt>
      <trkpt lat="49.05718" lon="7.78783">
        <ele>393.4</ele>
        <time>2022-05-01T08:37:07Z</time>
      </trkpt>
      <trkpt lat="49.05717" lon="7.78785">
        <ele>393.6</ele>
        <time>2022-05-01T08:37:08Z</time>
      </trkpt>
      <trkpt lat="49.05715" lon="7.78786">
        <ele>393.6</ele>
        <time>2022-05-01T08:37:09Z</time>
      </trkpt>
      <trkpt lat="49.05711" lon="7.78787">
        <ele>393.8</ele>
        <time>2022-05-01T08:37:10Z</time>
      </trkpt>
      <trkpt lat="49.05708" lon="7.78789">
        <ele>394</ele>
        <time>2022-05-01T08:37:11Z</time>
      </trkpt>
      <trkpt lat="49.05706" lon="7.78792">
        <ele>394.2</ele>
        <time>2022-05-01T08:37:12Z</time>
      </trkpt>
      <trkpt lat="49.05704" lon="7.78793">
        <ele>394.6</ele>
        <time>2022-05-01T08:37:13Z</time>
      </trkpt>
      <trkpt lat="49.05703" lon="7.78795">
        <ele>394.8</ele>
        <time>2022-05-01T08:37:14Z</time>
      </trkpt>
      <trkpt lat="49.05701" lon="7.78796">
        <ele>395</ele>
        <time>2022-05-01T08:37:15Z</time>
      </trkpt>
      <trkpt lat="49.05699" lon="7.78797">
        <ele>395.2</ele>
        <time>2022-05-01T08:37:16Z</time>
      </trkpt>
      <trkpt lat="49.05697" lon="7.78798">
        <ele>395.4</ele>
        <time>2022-05-01T08:37:17Z</time>
      </trkpt>
      <trkpt lat="49.05695" lon="7.78799">
        <ele>395.6</ele>
        <time>2022-05-01T08:37:18Z</time>
      </trkpt>
      <trkpt lat="49.05693" lon="7.78799">
        <ele>395.8</ele>
        <time>2022-05-01T08:37:19Z</time>
      </trkpt>
      <trkpt lat="49.05691" lon="7.788">
        <ele>395.8</ele>
        <time>2022-05-01T08:37:20Z</time>
      </trkpt>
      <trkpt lat="49.05688" lon="7.788">
        <ele>396</ele>
        <time>2022-05-01T08:37:21Z</time>
      </trkpt>
      <trkpt lat="49.05686" lon="7.788">
        <ele>396.2</ele>
        <time>2022-05-01T08:37:22Z</time>
      </trkpt>
      <trkpt lat="49.05683" lon="7.78801">
        <ele>396.4</ele>
        <time>2022-05-01T08:37:23Z</time>
      </trkpt>
      <trkpt lat="49.05681" lon="7.78802">
        <ele>396.6</ele>
        <time>2022-05-01T08:37:24Z</time>
      </trkpt>
      <trkpt lat="49.05679" lon="7.78804">
        <ele>396.6</ele>
        <time>2022-05-01T08:37:25Z</time>
      </trkpt>
      <trkpt lat="49.05677" lon="7.78805">
        <ele>396.8</ele>
        <time>2022-05-01T08:37:26Z</time>
      </trkpt>
      <trkpt lat="49.05675" lon="7.78807">
        <ele>397</ele>
        <time>2022-05-01T08:37:27Z</time>
      </trkpt>
      <trkpt lat="49.05673" lon="7.78808">
        <ele>397</ele>
        <time>2022-05-01T08:37:28Z</time>
      </trkpt>
      <trkpt lat="49.05672" lon="7.78808">
        <ele>397.2</ele>
        <time>2022-05-01T08:37:29Z</time>
      </trkpt>
      <trkpt lat="49.0567" lon="7.78809">
        <ele>397.4</ele>
        <time>2022-05-01T08:37:30Z</time>
      </trkpt>
      <trkpt lat="49.05666" lon="7.7881">
        <ele>397.6</ele>
        <time>2022-05-01T08:37:31Z</time>
      </trkpt>
      <trkpt lat="49.05663" lon="7.7881">
        <ele>397.8</ele>
        <time>2022-05-01T08:37:32Z</time>
      </trkpt>
      <trkpt lat="49.0566" lon="7.78811">
        <ele>397.8</ele>
        <time>2022-05-01T08:37:33Z</time>
      </trkpt>
      <trkpt lat="49.05657" lon="7.78811">
        <ele>398</ele>
        <time>2022-05-01T08:37:34Z</time>
      </trkpt>
      <trkpt lat="49.05654" lon="7.78813">
        <ele>398.2</ele>
        <time>2022-05-01T08:37:35Z</time>
      </trkpt>
      <trkpt lat="49.05651" lon="7.78814">
        <ele>398.4</ele>
        <time>2022-05-01T08:37:36Z</time>
      </trkpt>
      <trkpt lat="49.05648" lon="7.78813">
        <ele>398.6</ele>
        <time>2022-05-01T08:37:37Z</time>
      </trkpt>
      <trkpt lat="49.05646" lon="7.78814">
        <ele>398.8</ele>
        <time>2022-05-01T08:37:38Z</time>
      </trkpt>
      <trkpt lat="49.05644" lon="7.78814">
        <ele>399</ele>
        <time>2022-05-01T08:37:39Z</time>
      </trkpt>
      <trkpt lat="49.05642" lon="7.78814">
        <ele>399.2</ele>
        <time>2022-05-01T08:37:40Z</time>
      </trkpt>
      <trkpt lat="49.0564" lon="7.78815">
        <ele>399.4</ele>
        <time>2022-05-01T08:37:41Z</time>
      </trkpt>
      <trkpt lat="49.05637" lon="7.78815">
        <ele>399.4</ele>
        <time>2022-05-01T08:37:42Z</time>
      </trkpt>
      <trkpt lat="49.05634" lon="7.78817">
        <ele>399.6</ele>
        <time>2022-05-01T08:37:43Z</time>
      </trkpt>
      <trkpt lat="49.05631" lon="7.78817">
        <ele>399.8</ele>
        <time>2022-05-01T08:37:44Z</time>
      </trkpt>
      <trkpt lat="49.05629" lon="7.78818">
        <ele>400</ele>
        <time>2022-05-01T08:37:45Z</time>
      </trkpt>
      <trkpt lat="49.05626" lon="7.7882">
        <ele>400.2</ele>
        <time>2022-05-01T08:37:46Z</time>
      </trkpt>
      <trkpt lat="49.05624" lon="7.7882">
        <ele>400.6</ele>
        <time>2022-05-01T08:37:47Z</time>
      </trkpt>
      <trkpt lat="49.05622" lon="7.78821">
        <ele>400.6</ele>
        <time>2022-05-01T08:37:48Z</time>
      </trkpt>
      <trkpt lat="49.05618" lon="7.78821">
        <ele>400.8</ele>
        <time>2022-05-01T08:37:49Z</time>
      </trkpt>
      <trkpt lat="49.05615" lon="7.78822">
        <ele>401.2</ele>
        <time>2022-05-01T08:37:50Z</time>
      </trkpt>
      <trkpt lat="49.05613" lon="7.78822">
        <ele>401.4</ele>
        <time>2022-05-01T08:37:51Z</time>
      </trkpt>
      <trkpt lat="49.0561" lon="7.78821">
        <ele>401.6</ele>
        <time>2022-05-01T08:37:52Z</time>
      </trkpt>
      <trkpt lat="49.05607" lon="7.78822">
        <ele>401.6</ele>
        <time>2022-05-01T08:37:53Z</time>
      </trkpt>
      <trkpt lat="49.05606" lon="7.78822">
        <ele>401.8</ele>
        <time>2022-05-01T08:37:54Z</time>
      </trkpt>
      <trkpt lat="49.05605" lon="7.78821">
        <ele>402</ele>
        <time>2022-05-01T08:37:55Z</time>
      </trkpt>
      <trkpt lat="49.05604" lon="7.7882">
        <ele>402.2</ele>
        <time>2022-05-01T08:37:56Z</time>
      </trkpt>
      <trkpt lat="49.05603" lon="7.78818">
        <ele>402.4</ele>
        <time>2022-05-01T08:37:57Z</time>
      </trkpt>
      <trkpt lat="49.05601" lon="7.78817">
        <ele>402.4</ele>
        <time>2022-05-01T08:37:58Z</time>
      </trkpt>
      <trkpt lat="49.05598" lon="7.78817">
        <ele>402.6</ele>
        <time>2022-05-01T08:37:59Z</time>
      </trkpt>
      <trkpt lat="49.05594" lon="7.78816">
        <ele>402.8</ele>
        <time>2022-05-01T08:38:00Z</time>
      </trkpt>
      <trkpt lat="49.05591" lon="7.78816">
        <ele>402.8</ele>
        <time>2022-05-01T08:38:01Z</time>
      </trkpt>
      <trkpt lat="49.05588" lon="7.78817">
        <ele>403</ele>
        <time>2022-05-01T08:38:02Z</time>
      </trkpt>
      <trkpt lat="49.05587" lon="7.78819">
        <ele>403.2</ele>
        <time>2022-05-01T08:38:03Z</time>
      </trkpt>
      <trkpt lat="49.05583" lon="7.78821">
        <ele>403.4</ele>
        <time>2022-05-01T08:38:04Z</time>
      </trkpt>
      <trkpt lat="49.0558" lon="7.78822">
        <ele>403.6</ele>
        <time>2022-05-01T08:38:05Z</time>
      </trkpt>
      <trkpt lat="49.05577" lon="7.78821">
        <ele>403.8</ele>
        <time>2022-05-01T08:38:06Z</time>
      </trkpt>
      <trkpt lat="49.05573" lon="7.78821">
        <ele>404</ele>
        <time>2022-05-01T08:38:07Z</time>
      </trkpt>
      <trkpt lat="49.05568" lon="7.78822">
        <ele>404.2</ele>
        <time>2022-05-01T08:38:08Z</time>
      </trkpt>
      <trkpt lat="49.05564" lon="7.78823">
        <ele>404.4</ele>
        <time>2022-05-01T08:38:09Z</time>
      </trkpt>
      <trkpt lat="49.05561" lon="7.78824">
        <ele>404.6</ele>
        <time>2022-05-01T08:38:10Z</time>
      </trkpt>
      <trkpt lat="49.05557" lon="7.78825">
        <ele>404.8</ele>
        <time>2022-05-01T08:38:11Z</time>
      </trkpt>
      <trkpt lat="49.05554" lon="7.78825">
        <ele>405</ele>
        <time>2022-05-01T08:38:12Z</time>
      </trkpt>
      <trkpt lat="49.05552" lon="7.78825">
        <ele>405.2</ele>
        <time>2022-05-01T08:38:13Z</time>
      </trkpt>
      <trkpt lat="49.05549" lon="7.78825">
        <ele>405.4</ele>
        <time>2022-05-01T08:38:14Z</time>
      </trkpt>
      <trkpt lat="49.05546" lon="7.78827">
        <ele>405.6</ele>
        <time>2022-05-01T08:38:15Z</time>
      </trkpt>
      <trkpt lat="49.05544" lon="7.78828">
        <ele>405.8</ele>
        <time>2022-05-01T08:38:16Z</time>
      </trkpt>
      <trkpt lat="49.05542" lon="7.7883">
        <ele>406</ele>
        <time>2022-05-01T08:38:17Z</time>
      </trkpt>
      <trkpt lat="49.05541" lon="7.7883">
        <ele>406.2</ele>
        <time>2022-05-01T08:38:18Z</time>
      </trkpt>
      <trkpt lat="49.0554" lon="7.78832">
        <ele>406.2</ele>
        <time>2022-05-01T08:38:19Z</time>
      </trkpt>
      <trkpt lat="49.05538" lon="7.78833">
        <ele>406.4</ele>
        <time>2022-05-01T08:38:20Z</time>
      </trkpt>
      <trkpt lat="49.05536" lon="7.78833">
        <ele>406.6</ele>
        <time>2022-05-01T08:38:21Z</time>
      </trkpt>
      <trkpt lat="49.05534" lon="7.78833">
        <ele>406.6</ele>
        <time>2022-05-01T08:38:22Z</time>
      </trkpt>
      <trkpt lat="49.0553" lon="7.78836">
        <ele>406.8</ele>
        <time>2022-05-01T08:38:23Z</time>
      </trkpt>
      <trkpt lat="49.05527" lon="7.78838">
        <ele>407</ele>
        <time>2022-05-01T08:38:24Z</time>
      </trkpt>
      <trkpt lat="49.05521" lon="7.7884">
        <ele>407.2</ele>
        <time>2022-05-01T08:38:25Z</time>
      </trkpt>
      <trkpt lat="49.05516" lon="7.78841">
        <ele>407.4</ele>
        <time>2022-05-01T08:38:26Z</time>
      </trkpt>
      <trkpt lat="49.05513" lon="7.78841">
        <ele>407.4</ele>
        <time>2022-05-01T08:38:27Z</time>
      </trkpt>
      <trkpt lat="49.0551" lon="7.78843">
        <ele>407.6</ele>
        <time>2022-05-01T08:38:28Z</time>
      </trkpt>
      <trkpt lat="49.05507" lon="7.78845">
        <ele>407.8</ele>
        <time>2022-05-01T08:38:29Z</time>
      </trkpt>
      <trkpt lat="49.05504" lon="7.78847">
        <ele>408</ele>
        <time>2022-05-01T08:38:30Z</time>
      </trkpt>
      <trkpt lat="49.05502" lon="7.7885">
        <ele>408.2</ele>
        <time>2022-05-01T08:38:31Z</time>
      </trkpt>
      <trkpt lat="49.05499" lon="7.78852">
        <ele>408.2</ele>
        <time>2022-05-01T08:38:32Z</time>
      </trkpt>
      <trkpt lat="49.05495" lon="7.78855">
        <ele>408.4</ele>
        <time>2022-05-01T08:38:33Z</time>
      </trkpt>
      <trkpt lat="49.05492" lon="7.78856">
        <ele>408.4</ele>
        <time>2022-05-01T08:38:34Z</time>
      </trkpt>
      <trkpt lat="49.05489" lon="7.78857">
        <ele>408.6</ele>
        <time>2022-05-01T08:38:35Z</time>
      </trkpt>
      <trkpt lat="49.05487" lon="7.78858">
        <ele>409</ele>
        <time>2022-05-01T08:38:36Z</time>
      </trkpt>
      <trkpt lat="49.05484" lon="7.78859">
        <ele>409</ele>
        <time>2022-05-01T08:38:37Z</time>
      </trkpt>
      <trkpt lat="49.05482" lon="7.78859">
        <ele>409.2</ele>
        <time>2022-05-01T08:38:38Z</time>
      </trkpt>
      <trkpt lat="49.05479" lon="7.78859">
        <ele>409.4</ele>
        <time>2022-05-01T08:38:39Z</time>
      </trkpt>
      <trkpt lat="49.05477" lon="7.7886">
        <ele>409.4</ele>
        <time>2022-05-01T08:38:40Z</time>
      </trkpt>
      <trkpt lat="49.05475" lon="7.78861">
        <ele>409.6</ele>
        <time>2022-05-01T08:38:41Z</time>
      </trkpt>
      <trkpt lat="49.05473" lon="7.78862">
        <ele>409.8</ele>
        <time>2022-05-01T08:38:42Z</time>
      </trkpt>
      <trkpt lat="49.05471" lon="7.78864">
        <ele>410</ele>
        <time>2022-05-01T08:38:43Z</time>
      </trkpt>
      <trkpt lat="49.05469" lon="7.78866">
        <ele>410.2</ele>
        <time>2022-05-01T08:38:44Z</time>
      </trkpt>
      <trkpt lat="49.05467" lon="7.78866">
        <ele>410.4</ele>
        <time>2022-05-01T08:38:45Z</time>
      </trkpt>
      <trkpt lat="49.05465" lon="7.78867">
        <ele>410.4</ele>
        <time>2022-05-01T08:38:46Z</time>
      </trkpt>
      <trkpt lat="49.05463" lon="7.78867">
        <ele>410.6</ele>
        <time>2022-05-01T08:38:47Z</time>
      </trkpt>
      <trkpt lat="49.05461" lon="7.78867">
        <ele>410.6</ele>
        <time>2022-05-01T08:38:48Z</time>
      </trkpt>
      <trkpt lat="49.05459" lon="7.78867">
        <ele>410.8</ele>
        <time>2022-05-01T08:38:49Z</time>
      </trkpt>
      <trkpt lat="49.05457" lon="7.78868">
        <ele>411</ele>
        <time>2022-05-01T08:38:50Z</time>
      </trkpt>
      <trkpt lat="49.05455" lon="7.78868">
        <ele>411</ele>
        <time>2022-05-01T08:38:51Z</time>
      </trkpt>
      <trkpt lat="49.05454" lon="7.78868">
        <ele>411.2</ele>
        <time>2022-05-01T08:38:52Z</time>
      </trkpt>
      <trkpt lat="49.05451" lon="7.78868">
        <ele>411.2</ele>
        <time>2022-05-01T08:38:53Z</time>
      </trkpt>
      <trkpt lat="49.05448" lon="7.78869">
        <ele>411.4</ele>
        <time>2022-05-01T08:38:54Z</time>
      </trkpt>
      <trkpt lat="49.05445" lon="7.78869">
        <ele>411.6</ele>
        <time>2022-05-01T08:38:55Z</time>
      </trkpt>
      <trkpt lat="49.05442" lon="7.78869">
        <ele>411.8</ele>
        <time>2022-05-01T08:38:56Z</time>
      </trkpt>
      <trkpt lat="49.0544" lon="7.78869">
        <ele>412</ele>
        <time>2022-05-01T08:38:57Z</time>
      </trkpt>
      <trkpt lat="49.05438" lon="7.7887">
        <ele>412.2</ele>
        <time>2022-05-01T08:38:58Z</time>
      </trkpt>
      <trkpt lat="49.05437" lon="7.78871">
        <ele>412.2</ele>
        <time>2022-05-01T08:38:59Z</time>
      </trkpt>
      <trkpt lat="49.05435" lon="7.78872">
        <ele>412.2</ele>
        <time>2022-05-01T08:39:00Z</time>
      </trkpt>
      <trkpt lat="49.05433" lon="7.78873">
        <ele>412.6</ele>
        <time>2022-05-01T08:39:01Z</time>
      </trkpt>
      <trkpt lat="49.05431" lon="7.78874">
        <ele>412.8</ele>
        <time>2022-05-01T08:39:02Z</time>
      </trkpt>
      <trkpt lat="49.05428" lon="7.78876">
        <ele>413</ele>
        <time>2022-05-01T08:39:03Z</time>
      </trkpt>
      <trkpt lat="49.05425" lon="7.78877">
        <ele>413.2</ele>
        <time>2022-05-01T08:39:04Z</time>
      </trkpt>
      <trkpt lat="49.05421" lon="7.78879">
        <ele>413.2</ele>
        <time>2022-05-01T08:39:05Z</time>
      </trkpt>
      <trkpt lat="49.05418" lon="7.7888">
        <ele>413.4</ele>
        <time>2022-05-01T08:39:06Z</time>
      </trkpt>
      <trkpt lat="49.05415" lon="7.78881">
        <ele>413.6</ele>
        <time>2022-05-01T08:39:07Z</time>
      </trkpt>
      <trkpt lat="49.05411" lon="7.78883">
        <ele>413.6</ele>
        <time>2022-05-01T08:39:08Z</time>
      </trkpt>
      <trkpt lat="49.05408" lon="7.78884">
        <ele>413.8</ele>
        <time>2022-05-01T08:39:09Z</time>
      </trkpt>
      <trkpt lat="49.05403" lon="7.78885">
        <ele>413.8</ele>
        <time>2022-05-01T08:39:10Z</time>
      </trkpt>
      <trkpt lat="49.05401" lon="7.78885">
        <ele>413.8</ele>
        <time>2022-05-01T08:39:11Z</time>
      </trkpt>
      <trkpt lat="49.05399" lon="7.78885">
        <ele>414.2</ele>
        <time>2022-05-01T08:39:12Z</time>
      </trkpt>
      <trkpt lat="49.05398" lon="7.78887">
        <ele>414.4</ele>
        <time>2022-05-01T08:39:13Z</time>
      </trkpt>
      <trkpt lat="49.05396" lon="7.78887">
        <ele>414.6</ele>
        <time>2022-05-01T08:39:14Z</time>
      </trkpt>
      <trkpt lat="49.05394" lon="7.78886">
        <ele>414.8</ele>
        <time>2022-05-01T08:39:15Z</time>
      </trkpt>
      <trkpt lat="49.05393" lon="7.78883">
        <ele>415</ele>
        <time>2022-05-01T08:39:16Z</time>
      </trkpt>
      <trkpt lat="49.0539" lon="7.78881">
        <ele>415.2</ele>
        <time>2022-05-01T08:39:17Z</time>
      </trkpt>
      <trkpt lat="49.05389" lon="7.78879">
        <ele>415.4</ele>
        <time>2022-05-01T08:39:18Z</time>
      </trkpt>
      <trkpt lat="49.0539" lon="7.78876">
        <ele>415.4</ele>
        <time>2022-05-01T08:39:19Z</time>
      </trkpt>
      <trkpt lat="49.05391" lon="7.78875">
        <ele>415.6</ele>
        <time>2022-05-01T08:39:20Z</time>
      </trkpt>
      <trkpt lat="49.05394" lon="7.78874">
        <ele>415.8</ele>
        <time>2022-05-01T08:39:21Z</time>
      </trkpt>
      <trkpt lat="49.05396" lon="7.78873">
        <ele>416</ele>
        <time>2022-05-01T08:39:22Z</time>
      </trkpt>
      <trkpt lat="49.05398" lon="7.78873">
        <ele>416.2</ele>
        <time>2022-05-01T08:39:23Z</time>
      </trkpt>
      <trkpt lat="49.054" lon="7.78873">
        <ele>416.4</ele>
        <time>2022-05-01T08:39:24Z</time>
      </trkpt>
      <trkpt lat="49.05402" lon="7.78873">
        <ele>416.8</ele>
        <time>2022-05-01T08:39:25Z</time>
      </trkpt>
      <trkpt lat="49.05403" lon="7.78872">
        <ele>417</ele>
        <time>2022-05-01T08:39:26Z</time>
      </trkpt>
      <trkpt lat="49.05405" lon="7.78871">
        <ele>417.2</ele>
        <time>2022-05-01T08:39:27Z</time>
      </trkpt>
      <trkpt lat="49.05407" lon="7.78871">
        <ele>417.4</ele>
        <time>2022-05-01T08:39:28Z</time>
      </trkpt>
      <trkpt lat="49.05408" lon="7.7887">
        <ele>417.4</ele>
        <time>2022-05-01T08:39:29Z</time>
      </trkpt>
      <trkpt lat="49.0541" lon="7.78869">
        <ele>417.6</ele>
        <time>2022-05-01T08:39:30Z</time>
      </trkpt>
      <trkpt lat="49.05413" lon="7.78868">
        <ele>417.8</ele>
        <time>2022-05-01T08:39:31Z</time>
      </trkpt>
      <trkpt lat="49.05415" lon="7.78868">
        <ele>417.8</ele>
        <time>2022-05-01T08:39:32Z</time>
      </trkpt>
      <trkpt lat="49.05417" lon="7.78866">
        <ele>418</ele>
        <time>2022-05-01T08:39:33Z</time>
      </trkpt>
      <trkpt lat="49.05419" lon="7.78865">
        <ele>418.2</ele>
        <time>2022-05-01T08:39:34Z</time>
      </trkpt>
      <trkpt lat="49.05421" lon="7.78865">
        <ele>418.2</ele>
        <time>2022-05-01T08:39:35Z</time>
      </trkpt>
      <trkpt lat="49.05424" lon="7.78864">
        <ele>418.4</ele>
        <time>2022-05-01T08:39:36Z</time>
      </trkpt>
      <trkpt lat="49.05426" lon="7.78863">
        <ele>418.4</ele>
        <time>2022-05-01T08:39:37Z</time>
      </trkpt>
      <trkpt lat="49.05427" lon="7.78862">
        <ele>418.6</ele>
        <time>2022-05-01T08:39:38Z</time>
      </trkpt>
      <trkpt lat="49.05429" lon="7.78861">
        <ele>418.8</ele>
        <time>2022-05-01T08:39:39Z</time>
      </trkpt>
      <trkpt lat="49.05431" lon="7.7886">
        <ele>419</ele>
        <time>2022-05-01T08:39:40Z</time>
      </trkpt>
      <trkpt lat="49.05433" lon="7.7886">
        <ele>419.2</ele>
        <time>2022-05-01T08:39:41Z</time>
      </trkpt>
      <trkpt lat="49.05436" lon="7.7886">
        <ele>419.2</ele>
        <time>2022-05-01T08:39:42Z</time>
      </trkpt>
      <trkpt lat="49.05438" lon="7.78858">
        <ele>419.2</ele>
        <time>2022-05-01T08:39:43Z</time>
      </trkpt>
      <trkpt lat="49.0544" lon="7.78857">
        <ele>419.4</ele>
        <time>2022-05-01T08:39:44Z</time>
      </trkpt>
      <trkpt lat="49.05442" lon="7.78854">
        <ele>419.4</ele>
        <time>2022-05-01T08:39:45Z</time>
      </trkpt>
      <trkpt lat="49.05445" lon="7.78852">
        <ele>419.6</ele>
        <time>2022-05-01T08:39:46Z</time>
      </trkpt>
      <trkpt lat="49.05447" lon="7.78849">
        <ele>419.8</ele>
        <time>2022-05-01T08:39:47Z</time>
      </trkpt>
      <trkpt lat="49.05449" lon="7.78847">
        <ele>419.8</ele>
        <time>2022-05-01T08:39:48Z</time>
      </trkpt>
      <trkpt lat="49.05451" lon="7.78845">
        <ele>420</ele>
        <time>2022-05-01T08:39:49Z</time>
      </trkpt>
      <trkpt lat="49.05452" lon="7.78844">
        <ele>420.2</ele>
        <time>2022-05-01T08:39:50Z</time>
      </trkpt>
      <trkpt lat="49.05454" lon="7.78843">
        <ele>420.2</ele>
        <time>2022-05-01T08:39:51Z</time>
      </trkpt>
      <trkpt lat="49.05456" lon="7.78841">
        <ele>420.4</ele>
        <time>2022-05-01T08:39:52Z</time>
      </trkpt>
      <trkpt lat="49.05458" lon="7.7884">
        <ele>420.6</ele>
        <time>2022-05-01T08:39:53Z</time>
      </trkpt>
      <trkpt lat="49.05461" lon="7.7884">
        <ele>420.8</ele>
        <time>2022-05-01T08:39:54Z</time>
      </trkpt>
      <trkpt lat="49.05463" lon="7.78839">
        <ele>421</ele>
        <time>2022-05-01T08:39:55Z</time>
      </trkpt>
      <trkpt lat="49.05466" lon="7.78837">
        <ele>421</ele>
        <time>2022-05-01T08:39:56Z</time>
      </trkpt>
      <trkpt lat="49.05468" lon="7.78835">
        <ele>421.4</ele>
        <time>2022-05-01T08:39:57Z</time>
      </trkpt>
      <trkpt lat="49.0547" lon="7.78835">
        <ele>421.6</ele>
        <time>2022-05-01T08:39:58Z</time>
      </trkpt>
      <trkpt lat="49.05473" lon="7.78832">
        <ele>421.8</ele>
        <time>2022-05-01T08:39:59Z</time>
      </trkpt>
      <trkpt lat="49.05475" lon="7.78828">
        <ele>422</ele>
        <time>2022-05-01T08:40:00Z</time>
      </trkpt>
      <trkpt lat="49.05477" lon="7.78826">
        <ele>422.2</ele>
        <time>2022-05-01T08:40:01Z</time>
      </trkpt>
      <trkpt lat="49.05481" lon="7.78824">
        <ele>422.4</ele>
        <time>2022-05-01T08:40:02Z</time>
      </trkpt>
      <trkpt lat="49.05483" lon="7.78823">
        <ele>422.6</ele>
        <time>2022-05-01T08:40:03Z</time>
      </trkpt>
      <trkpt lat="49.05486" lon="7.78824">
        <ele>422.8</ele>
        <time>2022-05-01T08:40:04Z</time>
      </trkpt>
      <trkpt lat="49.05488" lon="7.78821">
        <ele>423</ele>
        <time>2022-05-01T08:40:05Z</time>
      </trkpt>
      <trkpt lat="49.0549" lon="7.78818">
        <ele>423.2</ele>
        <time>2022-05-01T08:40:06Z</time>
      </trkpt>
      <trkpt lat="49.05492" lon="7.78815">
        <ele>423.4</ele>
        <time>2022-05-01T08:40:07Z</time>
      </trkpt>
      <trkpt lat="49.05495" lon="7.7881">
        <ele>423.6</ele>
        <time>2022-05-01T08:40:08Z</time>
      </trkpt>
      <trkpt lat="49.05497" lon="7.78808">
        <ele>423.8</ele>
        <time>2022-05-01T08:40:09Z</time>
      </trkpt>
      <trkpt lat="49.055" lon="7.78806">
        <ele>424</ele>
        <time>2022-05-01T08:40:10Z</time>
      </trkpt>
      <trkpt lat="49.05503" lon="7.78804">
        <ele>424</ele>
        <time>2022-05-01T08:40:11Z</time>
      </trkpt>
      <trkpt lat="49.05506" lon="7.78801">
        <ele>424.2</ele>
        <time>2022-05-01T08:40:12Z</time>
      </trkpt>
      <trkpt lat="49.05509" lon="7.78799">
        <ele>424.2</ele>
        <time>2022-05-01T08:40:13Z</time>
      </trkpt>
      <trkpt lat="49.05511" lon="7.78797">
        <ele>424.4</ele>
        <time>2022-05-01T08:40:14Z</time>
      </trkpt>
      <trkpt lat="49.05513" lon="7.78795">
        <ele>424.6</ele>
        <time>2022-05-01T08:40:15Z</time>
      </trkpt>
      <trkpt lat="49.05515" lon="7.78793">
        <ele>424.8</ele>
        <time>2022-05-01T08:40:16Z</time>
      </trkpt>
      <trkpt lat="49.05518" lon="7.78792">
        <ele>425</ele>
        <time>2022-05-01T08:40:17Z</time>
      </trkpt>
      <trkpt lat="49.05519" lon="7.78788">
        <ele>425.2</ele>
        <time>2022-05-01T08:40:18Z</time>
      </trkpt>
      <trkpt lat="49.05521" lon="7.78785">
        <ele>425.4</ele>
        <time>2022-05-01T08:40:19Z</time>
      </trkpt>
      <trkpt lat="49.05524" lon="7.78781">
        <ele>425.6</ele>
        <time>2022-05-01T08:40:20Z</time>
      </trkpt>
      <trkpt lat="49.05525" lon="7.78779">
        <ele>425.8</ele>
        <time>2022-05-01T08:40:21Z</time>
      </trkpt>
      <trkpt lat="49.05527" lon="7.78777">
        <ele>426.2</ele>
        <time>2022-05-01T08:40:22Z</time>
      </trkpt>
      <trkpt lat="49.05529" lon="7.78774">
        <ele>426.4</ele>
        <time>2022-05-01T08:40:23Z</time>
      </trkpt>
      <trkpt lat="49.05532" lon="7.78771">
        <ele>426.6</ele>
        <time>2022-05-01T08:40:24Z</time>
      </trkpt>
      <trkpt lat="49.05534" lon="7.78769">
        <ele>426.8</ele>
        <time>2022-05-01T08:40:25Z</time>
      </trkpt>
      <trkpt lat="49.05535" lon="7.78768">
        <ele>426.8</ele>
        <time>2022-05-01T08:40:26Z</time>
      </trkpt>
      <trkpt lat="49.05537" lon="7.78768">
        <ele>427</ele>
        <time>2022-05-01T08:40:27Z</time>
      </trkpt>
      <trkpt lat="49.05538" lon="7.78769">
        <ele>427</ele>
        <time>2022-05-01T08:40:28Z</time>
      </trkpt>
      <trkpt lat="49.05538" lon="7.78769">
        <ele>427.2</ele>
        <time>2022-05-01T08:40:29Z</time>
      </trkpt>
      <trkpt lat="49.05538" lon="7.78769">
        <ele>427.4</ele>
        <time>2022-05-01T08:40:30Z</time>
      </trkpt>
      <trkpt lat="49.05539" lon="7.78769">
        <ele>427.6</ele>
        <time>2022-05-01T08:40:31Z</time>
      </trkpt>
      <trkpt lat="49.05539" lon="7.78768">
        <ele>427.8</ele>
        <time>2022-05-01T08:40:32Z</time>
      </trkpt>
      <trkpt lat="49.0554" lon="7.78768">
        <ele>428</ele>
        <time>2022-05-01T08:40:33Z</time>
      </trkpt>
      <trkpt lat="49.05541" lon="7.78766">
        <ele>428.2</ele>
        <time>2022-05-01T08:40:34Z</time>
      </trkpt>
      <trkpt lat="49.05543" lon="7.78764">
        <ele>428.4</ele>
        <time>2022-05-01T08:40:35Z</time>
      </trkpt>
      <trkpt lat="49.05544" lon="7.78763">
        <ele>428.6</ele>
        <time>2022-05-01T08:40:36Z</time>
      </trkpt>
      <trkpt lat="49.05546" lon="7.78761">
        <ele>428.6</ele>
        <time>2022-05-01T08:40:37Z</time>
      </trkpt>
      <trkpt lat="49.05549" lon="7.78759">
        <ele>428.8</ele>
        <time>2022-05-01T08:40:38Z</time>
      </trkpt>
      <trkpt lat="49.05551" lon="7.78759">
        <ele>429</ele>
        <time>2022-05-01T08:40:39Z</time>
      </trkpt>
      <trkpt lat="49.05554" lon="7.78759">
        <ele>429.2</ele>
        <time>2022-05-01T08:40:40Z</time>
      </trkpt>
      <trkpt lat="49.05556" lon="7.78759">
        <ele>429.4</ele>
        <time>2022-05-01T08:40:41Z</time>
      </trkpt>
      <trkpt lat="49.05558" lon="7.78759">
        <ele>429.6</ele>
        <time>2022-05-01T08:40:42Z</time>
      </trkpt>
      <trkpt lat="49.0556" lon="7.7876">
        <ele>429.6</ele>
        <time>2022-05-01T08:40:43Z</time>
      </trkpt>
      <trkpt lat="49.05561" lon="7.78759">
        <ele>429.8</ele>
        <time>2022-05-01T08:40:44Z</time>
      </trkpt>
      <trkpt lat="49.05562" lon="7.78759">
        <ele>430</ele>
        <time>2022-05-01T08:40:45Z</time>
      </trkpt>
      <trkpt lat="49.05563" lon="7.78758">
        <ele>430.2</ele>
        <time>2022-05-01T08:40:46Z</time>
      </trkpt>
      <trkpt lat="49.05566" lon="7.78755">
        <ele>430.4</ele>
        <time>2022-05-01T08:40:47Z</time>
      </trkpt>
      <trkpt lat="49.05569" lon="7.78754">
        <ele>430.4</ele>
        <time>2022-05-01T08:40:48Z</time>
      </trkpt>
      <trkpt lat="49.05572" lon="7.78753">
        <ele>430.6</ele>
        <time>2022-05-01T08:40:49Z</time>
      </trkpt>
      <trkpt lat="49.05574" lon="7.78752">
        <ele>430.8</ele>
        <time>2022-05-01T08:40:50Z</time>
      </trkpt>
      <trkpt lat="49.05577" lon="7.7875">
        <ele>430.8</ele>
        <time>2022-05-01T08:40:51Z</time>
      </trkpt>
      <trkpt lat="49.05579" lon="7.78748">
        <ele>431</ele>
        <time>2022-05-01T08:40:52Z</time>
      </trkpt>
      <trkpt lat="49.05581" lon="7.78746">
        <ele>431</ele>
        <time>2022-05-01T08:40:53Z</time>
      </trkpt>
      <trkpt lat="49.05585" lon="7.78746">
        <ele>431.2</ele>
        <time>2022-05-01T08:40:54Z</time>
      </trkpt>
      <trkpt lat="49.05585" lon="7.78746">
        <ele>431.4</ele>
        <time>2022-05-01T08:40:55Z</time>
      </trkpt>
      <trkpt lat="49.05585" lon="7.78746">
        <ele>431.6</ele>
        <time>2022-05-01T08:40:56Z</time>
      </trkpt>
      <trkpt lat="49.05587" lon="7.78745">
        <ele>431.6</ele>
        <time>2022-05-01T08:40:57Z</time>
      </trkpt>
      <trkpt lat="49.0559" lon="7.78743">
        <ele>431.8</ele>
        <time>2022-05-01T08:40:58Z</time>
      </trkpt>
      <trkpt lat="49.05594" lon="7.78742">
        <ele>431.8</ele>
        <time>2022-05-01T08:40:59Z</time>
      </trkpt>
      <trkpt lat="49.05594" lon="7.78742">
        <ele>432.2</ele>
        <time>2022-05-01T08:41:00Z</time>
      </trkpt>
      <trkpt lat="49.05598" lon="7.78742">
        <ele>432.4</ele>
        <time>2022-05-01T08:41:01Z</time>
      </trkpt>
      <trkpt lat="49.05603" lon="7.78741">
        <ele>432.4</ele>
        <time>2022-05-01T08:41:02Z</time>
      </trkpt>
      <trkpt lat="49.05608" lon="7.78738">
        <ele>432.6</ele>
        <time>2022-05-01T08:41:03Z</time>
      </trkpt>
      <trkpt lat="49.05613" lon="7.78735">
        <ele>432.8</ele>
        <time>2022-05-01T08:41:04Z</time>
      </trkpt>
      <trkpt lat="49.05616" lon="7.78734">
        <ele>433</ele>
        <time>2022-05-01T08:41:05Z</time>
      </trkpt>
      <trkpt lat="49.05621" lon="7.78732">
        <ele>433.2</ele>
        <time>2022-05-01T08:41:06Z</time>
      </trkpt>
      <trkpt lat="49.05624" lon="7.78731">
        <ele>433.4</ele>
        <time>2022-05-01T08:41:07Z</time>
      </trkpt>
      <trkpt lat="49.05629" lon="7.78731">
        <ele>433.6</ele>
        <time>2022-05-01T08:41:08Z</time>
      </trkpt>
      <trkpt lat="49.05632" lon="7.7873">
        <ele>433.6</ele>
        <time>2022-05-01T08:41:09Z</time>
      </trkpt>
      <trkpt lat="49.05635" lon="7.78728">
        <ele>433.8</ele>
        <time>2022-05-01T08:41:10Z</time>
      </trkpt>
      <trkpt lat="49.05638" lon="7.78727">
        <ele>434</ele>
        <time>2022-05-01T08:41:11Z</time>
      </trkpt>
      <trkpt lat="49.05639" lon="7.78725">
        <ele>434.2</ele>
        <time>2022-05-01T08:41:12Z</time>
      </trkpt>
      <trkpt lat="49.0564" lon="7.78722">
        <ele>434.4</ele>
        <time>2022-05-01T08:41:13Z</time>
      </trkpt>
      <trkpt lat="49.05641" lon="7.78719">
        <ele>434.4</ele>
        <time>2022-05-01T08:41:14Z</time>
      </trkpt>
      <trkpt lat="49.05649" lon="7.78716">
        <ele>434.8</ele>
        <time>2022-05-01T08:41:15Z</time>
      </trkpt>
      <trkpt lat="49.05652" lon="7.78714">
        <ele>434.8</ele>
        <time>2022-05-01T08:41:16Z</time>
      </trkpt>
      <trkpt lat="49.05662" lon="7.78708">
        <ele>435</ele>
        <time>2022-05-01T08:41:17Z</time>
      </trkpt>
      <trkpt lat="49.05666" lon="7.78705">
        <ele>435</ele>
        <time>2022-05-01T08:41:18Z</time>
      </trkpt>
      <trkpt lat="49.05669" lon="7.78703">
        <ele>435.2</ele>
        <time>2022-05-01T08:41:19Z</time>
      </trkpt>
      <trkpt lat="49.0567" lon="7.78701">
        <ele>435.2</ele>
        <time>2022-05-01T08:41:20Z</time>
      </trkpt>
      <trkpt lat="49.05671" lon="7.78699">
        <ele>435.4</ele>
        <time>2022-05-01T08:41:21Z</time>
      </trkpt>
      <trkpt lat="49.05672" lon="7.78697">
        <ele>435.6</ele>
        <time>2022-05-01T08:41:22Z</time>
      </trkpt>
      <trkpt lat="49.05675" lon="7.78692">
        <ele>436</ele>
        <time>2022-05-01T08:41:23Z</time>
      </trkpt>
      <trkpt lat="49.05678" lon="7.78687">
        <ele>436.2</ele>
        <time>2022-05-01T08:41:24Z</time>
      </trkpt>
      <trkpt lat="49.05681" lon="7.78684">
        <ele>436.2</ele>
        <time>2022-05-01T08:41:25Z</time>
      </trkpt>
      <trkpt lat="49.05681" lon="7.78682">
        <ele>436.4</ele>
        <time>2022-05-01T08:41:26Z</time>
      </trkpt>
      <trkpt lat="49.05681" lon="7.78679">
        <ele>436.6</ele>
        <time>2022-05-01T08:41:27Z</time>
      </trkpt>
      <trkpt lat="49.05681" lon="7.78677">
        <ele>436.8</ele>
        <time>2022-05-01T08:41:28Z</time>
      </trkpt>
      <trkpt lat="49.05682" lon="7.78675">
        <ele>436.8</ele>
        <time>2022-05-01T08:41:29Z</time>
      </trkpt>
      <trkpt lat="49.05684" lon="7.78673">
        <ele>437</ele>
        <time>2022-05-01T08:41:30Z</time>
      </trkpt>
      <trkpt lat="49.05686" lon="7.7867">
        <ele>437.2</ele>
        <time>2022-05-01T08:41:31Z</time>
      </trkpt>
      <trkpt lat="49.05688" lon="7.78668">
        <ele>437.4</ele>
        <time>2022-05-01T08:41:32Z</time>
      </trkpt>
      <trkpt lat="49.0569" lon="7.78666">
        <ele>437.4</ele>
        <time>2022-05-01T08:41:33Z</time>
      </trkpt>
      <trkpt lat="49.05693" lon="7.78662">
        <ele>437.8</ele>
        <time>2022-05-01T08:41:34Z</time>
      </trkpt>
      <trkpt lat="49.05698" lon="7.78656">
        <ele>437.8</ele>
        <time>2022-05-01T08:41:35Z</time>
      </trkpt>
      <trkpt lat="49.05699" lon="7.78652">
        <ele>438</ele>
        <time>2022-05-01T08:41:36Z</time>
      </trkpt>
      <trkpt lat="49.05701" lon="7.78649">
        <ele>438.2</ele>
        <time>2022-05-01T08:41:37Z</time>
      </trkpt>
      <trkpt lat="49.05701" lon="7.78648">
        <ele>438.4</ele>
        <time>2022-05-01T08:41:38Z</time>
      </trkpt>
      <trkpt lat="49.057" lon="7.78648">
        <ele>438.6</ele>
        <time>2022-05-01T08:41:39Z</time>
      </trkpt>
      <trkpt lat="49.057" lon="7.78648">
        <ele>438.8</ele>
        <time>2022-05-01T08:41:40Z</time>
      </trkpt>
      <trkpt lat="49.05702" lon="7.78646">
        <ele>439</ele>
        <time>2022-05-01T08:41:41Z</time>
      </trkpt>
      <trkpt lat="49.05703" lon="7.78643">
        <ele>439</ele>
        <time>2022-05-01T08:41:42Z</time>
      </trkpt>
      <trkpt lat="49.05705" lon="7.7864">
        <ele>439</ele>
        <time>2022-05-01T08:41:43Z</time>
      </trkpt>
      <trkpt lat="49.05708" lon="7.78638">
        <ele>439.4</ele>
        <time>2022-05-01T08:41:44Z</time>
      </trkpt>
      <trkpt lat="49.05708" lon="7.78636">
        <ele>439.6</ele>
        <time>2022-05-01T08:41:45Z</time>
      </trkpt>
      <trkpt lat="49.05709" lon="7.78634">
        <ele>439.8</ele>
        <time>2022-05-01T08:41:46Z</time>
      </trkpt>
      <trkpt lat="49.05713" lon="7.78632">
        <ele>440</ele>
        <time>2022-05-01T08:41:47Z</time>
      </trkpt>
      <trkpt lat="49.05718" lon="7.78629">
        <ele>440</ele>
        <time>2022-05-01T08:41:48Z</time>
      </trkpt>
      <trkpt lat="49.05722" lon="7.78625">
        <ele>440.2</ele>
        <time>2022-05-01T08:41:49Z</time>
      </trkpt>
      <trkpt lat="49.05723" lon="7.78623">
        <ele>440.4</ele>
        <time>2022-05-01T08:41:50Z</time>
      </trkpt>
      <trkpt lat="49.05725" lon="7.78621">
        <ele>440.8</ele>
        <time>2022-05-01T08:41:51Z</time>
      </trkpt>
      <trkpt lat="49.05727" lon="7.78619">
        <ele>441</ele>
        <time>2022-05-01T08:41:52Z</time>
      </trkpt>
      <trkpt lat="49.05729" lon="7.78616">
        <ele>441.2</ele>
        <time>2022-05-01T08:41:53Z</time>
      </trkpt>
      <trkpt lat="49.05729" lon="7.78614">
        <ele>441.4</ele>
        <time>2022-05-01T08:41:54Z</time>
      </trkpt>
      <trkpt lat="49.05729" lon="7.78612">
        <ele>441.4</ele>
        <time>2022-05-01T08:41:55Z</time>
      </trkpt>
      <trkpt lat="49.05729" lon="7.7861">
        <ele>441.6</ele>
        <time>2022-05-01T08:41:56Z</time>
      </trkpt>
      <trkpt lat="49.0573" lon="7.78607">
        <ele>441.8</ele>
        <time>2022-05-01T08:41:57Z</time>
      </trkpt>
      <trkpt lat="49.05732" lon="7.78604">
        <ele>442</ele>
        <time>2022-05-01T08:41:58Z</time>
      </trkpt>
      <trkpt lat="49.05735" lon="7.786">
        <ele>442.4</ele>
        <time>2022-05-01T08:41:59Z</time>
      </trkpt>
      <trkpt lat="49.05737" lon="7.78597">
        <ele>442.6</ele>
        <time>2022-05-01T08:42:00Z</time>
      </trkpt>
      <trkpt lat="49.05739" lon="7.78594">
        <ele>442.8</ele>
        <time>2022-05-01T08:42:01Z</time>
      </trkpt>
      <trkpt lat="49.0574" lon="7.78591">
        <ele>442.8</ele>
        <time>2022-05-01T08:42:02Z</time>
      </trkpt>
      <trkpt lat="49.05742" lon="7.78589">
        <ele>443</ele>
        <time>2022-05-01T08:42:03Z</time>
      </trkpt>
      <trkpt lat="49.05743" lon="7.78587">
        <ele>443.2</ele>
        <time>2022-05-01T08:42:04Z</time>
      </trkpt>
      <trkpt lat="49.05743" lon="7.78587">
        <ele>443.4</ele>
        <time>2022-05-01T08:42:05Z</time>
      </trkpt>
      <trkpt lat="49.05743" lon="7.78587">
        <ele>443.4</ele>
        <time>2022-05-01T08:42:06Z</time>
      </trkpt>
      <trkpt lat="49.05743" lon="7.78587">
        <ele>443.6</ele>
        <time>2022-05-01T08:42:07Z</time>
      </trkpt>
      <trkpt lat="49.05743" lon="7.78587">
        <ele>443.8</ele>
        <time>2022-05-01T08:42:08Z</time>
      </trkpt>
      <trkpt lat="49.05743" lon="7.78586">
        <ele>444</ele>
        <time>2022-05-01T08:42:09Z</time>
      </trkpt>
      <trkpt lat="49.05743" lon="7.78584">
        <ele>444</ele>
        <time>2022-05-01T08:42:10Z</time>
      </trkpt>
      <trkpt lat="49.05744" lon="7.78582">
        <ele>444.2</ele>
        <time>2022-05-01T08:42:11Z</time>
      </trkpt>
      <trkpt lat="49.05746" lon="7.78581">
        <ele>444.4</ele>
        <time>2022-05-01T08:42:12Z</time>
      </trkpt>
      <trkpt lat="49.05753" lon="7.78579">
        <ele>444.6</ele>
        <time>2022-05-01T08:42:13Z</time>
      </trkpt>
      <trkpt lat="49.05756" lon="7.78578">
        <ele>444.8</ele>
        <time>2022-05-01T08:42:14Z</time>
      </trkpt>
      <trkpt lat="49.0576" lon="7.78577">
        <ele>445</ele>
        <time>2022-05-01T08:42:15Z</time>
      </trkpt>
      <trkpt lat="49.05763" lon="7.78575">
        <ele>445.2</ele>
        <time>2022-05-01T08:42:16Z</time>
      </trkpt>
      <trkpt lat="49.05766" lon="7.78573">
        <ele>445.4</ele>
        <time>2022-05-01T08:42:17Z</time>
      </trkpt>
      <trkpt lat="49.0577" lon="7.78573">
        <ele>445.6</ele>
        <time>2022-05-01T08:42:18Z</time>
      </trkpt>
      <trkpt lat="49.05773" lon="7.78571">
        <ele>445.8</ele>
        <time>2022-05-01T08:42:19Z</time>
      </trkpt>
      <trkpt lat="49.05774" lon="7.78571">
        <ele>446</ele>
        <time>2022-05-01T08:42:20Z</time>
      </trkpt>
      <trkpt lat="49.05776" lon="7.78572">
        <ele>446</ele>
        <time>2022-05-01T08:42:21Z</time>
      </trkpt>
      <trkpt lat="49.05779" lon="7.7857">
        <ele>446.2</ele>
        <time>2022-05-01T08:42:22Z</time>
      </trkpt>
      <trkpt lat="49.05782" lon="7.78567">
        <ele>446.6</ele>
        <time>2022-05-01T08:42:23Z</time>
      </trkpt>
      <trkpt lat="49.05788" lon="7.78566">
        <ele>446.6</ele>
        <time>2022-05-01T08:42:24Z</time>
      </trkpt>
      <trkpt lat="49.05791" lon="7.78565">
        <ele>446.8</ele>
        <time>2022-05-01T08:42:25Z</time>
      </trkpt>
      <trkpt lat="49.05792" lon="7.78566">
        <ele>447</ele>
        <time>2022-05-01T08:42:26Z</time>
      </trkpt>
      <trkpt lat="49.05794" lon="7.78566">
        <ele>447.2</ele>
        <time>2022-05-01T08:42:27Z</time>
      </trkpt>
      <trkpt lat="49.05796" lon="7.78566">
        <ele>447.6</ele>
        <time>2022-05-01T08:42:28Z</time>
      </trkpt>
      <trkpt lat="49.05799" lon="7.78566">
        <ele>447.8</ele>
        <time>2022-05-01T08:42:29Z</time>
      </trkpt>
      <trkpt lat="49.05801" lon="7.78566">
        <ele>448</ele>
        <time>2022-05-01T08:42:30Z</time>
      </trkpt>
      <trkpt lat="49.05804" lon="7.78567">
        <ele>448.2</ele>
        <time>2022-05-01T08:42:31Z</time>
      </trkpt>
      <trkpt lat="49.05807" lon="7.78567">
        <ele>448.4</ele>
        <time>2022-05-01T08:42:32Z</time>
      </trkpt>
      <trkpt lat="49.05808" lon="7.78567">
        <ele>448.6</ele>
        <time>2022-05-01T08:42:33Z</time>
      </trkpt>
      <trkpt lat="49.0581" lon="7.78568">
        <ele>449</ele>
        <time>2022-05-01T08:42:34Z</time>
      </trkpt>
      <trkpt lat="49.05812" lon="7.78568">
        <ele>449.2</ele>
        <time>2022-05-01T08:42:35Z</time>
      </trkpt>
      <trkpt lat="49.05814" lon="7.7857">
        <ele>449.4</ele>
        <time>2022-05-01T08:42:36Z</time>
      </trkpt>
      <trkpt lat="49.05816" lon="7.78571">
        <ele>449.6</ele>
        <time>2022-05-01T08:42:37Z</time>
      </trkpt>
      <trkpt lat="49.05819" lon="7.7857">
        <ele>449.8</ele>
        <time>2022-05-01T08:42:38Z</time>
      </trkpt>
      <trkpt lat="49.05822" lon="7.7857">
        <ele>450</ele>
        <time>2022-05-01T08:42:39Z</time>
      </trkpt>
      <trkpt lat="49.05824" lon="7.78568">
        <ele>450.2</ele>
        <time>2022-05-01T08:42:40Z</time>
      </trkpt>
      <trkpt lat="49.05825" lon="7.78566">
        <ele>450.4</ele>
        <time>2022-05-01T08:42:41Z</time>
      </trkpt>
      <trkpt lat="49.05825" lon="7.78563">
        <ele>450.6</ele>
        <time>2022-05-01T08:42:42Z</time>
      </trkpt>
      <trkpt lat="49.05824" lon="7.78557">
        <ele>450.6</ele>
        <time>2022-05-01T08:42:43Z</time>
      </trkpt>
      <trkpt lat="49.05823" lon="7.7855">
        <ele>450.8</ele>
        <time>2022-05-01T08:42:44Z</time>
      </trkpt>
      <trkpt lat="49.05823" lon="7.78546">
        <ele>451</ele>
        <time>2022-05-01T08:42:45Z</time>
      </trkpt>
      <trkpt lat="49.05823" lon="7.78544">
        <ele>451.2</ele>
        <time>2022-05-01T08:42:46Z</time>
      </trkpt>
      <trkpt lat="49.05822" lon="7.78543">
        <ele>451.4</ele>
        <time>2022-05-01T08:42:47Z</time>
      </trkpt>
      <trkpt lat="49.05821" lon="7.78542">
        <ele>451.6</ele>
        <time>2022-05-01T08:42:48Z</time>
      </trkpt>
      <trkpt lat="49.0582" lon="7.78541">
        <ele>451.8</ele>
        <time>2022-05-01T08:42:49Z</time>
      </trkpt>
      <trkpt lat="49.05819" lon="7.7854">
        <ele>452</ele>
        <time>2022-05-01T08:42:50Z</time>
      </trkpt>
      <trkpt lat="49.05819" lon="7.7854">
        <ele>452.2</ele>
        <time>2022-05-01T08:42:51Z</time>
      </trkpt>
      <trkpt lat="49.05818" lon="7.78539">
        <ele>452.4</ele>
        <time>2022-05-01T08:42:52Z</time>
      </trkpt>
      <trkpt lat="49.05817" lon="7.78539">
        <ele>452.6</ele>
        <time>2022-05-01T08:42:53Z</time>
      </trkpt>
      <trkpt lat="49.05816" lon="7.78539">
        <ele>452.6</ele>
        <time>2022-05-01T08:42:54Z</time>
      </trkpt>
      <trkpt lat="49.05815" lon="7.78539">
        <ele>453</ele>
        <time>2022-05-01T08:42:55Z</time>
      </trkpt>
      <trkpt lat="49.05814" lon="7.78538">
        <ele>453.2</ele>
        <time>2022-05-01T08:42:56Z</time>
      </trkpt>
      <trkpt lat="49.05812" lon="7.78538">
        <ele>453.4</ele>
        <time>2022-05-01T08:42:57Z</time>
      </trkpt>
      <trkpt lat="49.05812" lon="7.78538">
        <ele>453.6</ele>
        <time>2022-05-01T08:42:58Z</time>
      </trkpt>
      <trkpt lat="49.0581" lon="7.78539">
        <ele>453.8</ele>
        <time>2022-05-01T08:42:59Z</time>
      </trkpt>
      <trkpt lat="49.05807" lon="7.78539">
        <ele>454</ele>
        <time>2022-05-01T08:43:00Z</time>
      </trkpt>
      <trkpt lat="49.05804" lon="7.78539">
        <ele>454.2</ele>
        <time>2022-05-01T08:43:01Z</time>
      </trkpt>
      <trkpt lat="49.05802" lon="7.78539">
        <ele>454.2</ele>
        <time>2022-05-01T08:43:02Z</time>
      </trkpt>
      <trkpt lat="49.058" lon="7.78538">
        <ele>454.4</ele>
        <time>2022-05-01T08:43:03Z</time>
      </trkpt>
      <trkpt lat="49.05798" lon="7.78538">
        <ele>454.6</ele>
        <time>2022-05-01T08:43:04Z</time>
      </trkpt>
      <trkpt lat="49.05796" lon="7.78538">
        <ele>454.8</ele>
        <time>2022-05-01T08:43:05Z</time>
      </trkpt>
      <trkpt lat="49.05796" lon="7.78537">
        <ele>454.8</ele>
        <time>2022-05-01T08:43:06Z</time>
      </trkpt>
      <trkpt lat="49.05795" lon="7.78538">
        <ele>455</ele>
        <time>2022-05-01T08:43:07Z</time>
      </trkpt>
      <trkpt lat="49.05795" lon="7.78538">
        <ele>455.2</ele>
        <time>2022-05-01T08:43:08Z</time>
      </trkpt>
      <trkpt lat="49.05795" lon="7.78538">
        <ele>455.2</ele>
        <time>2022-05-01T08:43:09Z</time>
      </trkpt>
      <trkpt lat="49.05794" lon="7.78537">
        <ele>455.2</ele>
        <time>2022-05-01T08:43:10Z</time>
      </trkpt>
      <trkpt lat="49.05792" lon="7.78538">
        <ele>455.4</ele>
        <time>2022-05-01T08:43:11Z</time>
      </trkpt>
      <trkpt lat="49.0579" lon="7.78539">
        <ele>455.6</ele>
        <time>2022-05-01T08:43:12Z</time>
      </trkpt>
      <trkpt lat="49.05787" lon="7.78539">
        <ele>455.6</ele>
        <time>2022-05-01T08:43:13Z</time>
      </trkpt>
      <trkpt lat="49.05783" lon="7.78539">
        <ele>455.8</ele>
        <time>2022-05-01T08:43:14Z</time>
      </trkpt>
      <trkpt lat="49.05783" lon="7.78539">
        <ele>456</ele>
        <time>2022-05-01T08:43:15Z</time>
      </trkpt>
      <trkpt lat="49.0578" lon="7.7854">
        <ele>456</ele>
        <time>2022-05-01T08:43:16Z</time>
      </trkpt>
      <trkpt lat="49.05776" lon="7.7854">
        <ele>456.2</ele>
        <time>2022-05-01T08:43:17Z</time>
      </trkpt>
      <trkpt lat="49.05771" lon="7.7854">
        <ele>456.2</ele>
        <time>2022-05-01T08:43:18Z</time>
      </trkpt>
      <trkpt lat="49.05767" lon="7.7854">
        <ele>456.4</ele>
        <time>2022-05-01T08:43:19Z</time>
      </trkpt>
      <trkpt lat="49.05758" lon="7.78541">
        <ele>456.6</ele>
        <time>2022-05-01T08:43:20Z</time>
      </trkpt>
      <trkpt lat="49.05756" lon="7.78541">
        <ele>456.8</ele>
        <time>2022-05-01T08:43:21Z</time>
      </trkpt>
      <trkpt lat="49.0575" lon="7.78543">
        <ele>457</ele>
        <time>2022-05-01T08:43:22Z</time>
      </trkpt>
      <trkpt lat="49.05745" lon="7.78544">
        <ele>457.2</ele>
        <time>2022-05-01T08:43:23Z</time>
      </trkpt>
      <trkpt lat="49.05742" lon="7.78543">
        <ele>457.4</ele>
        <time>2022-05-01T08:43:24Z</time>
      </trkpt>
      <trkpt lat="49.05738" lon="7.78545">
        <ele>457.4</ele>
        <time>2022-05-01T08:43:25Z</time>
      </trkpt>
      <trkpt lat="49.05732" lon="7.78547">
        <ele>457.6</ele>
        <time>2022-05-01T08:43:26Z</time>
      </trkpt>
      <trkpt lat="49.05727" lon="7.7855">
        <ele>457.8</ele>
        <time>2022-05-01T08:43:27Z</time>
      </trkpt>
      <trkpt lat="49.05723" lon="7.78553">
        <ele>458</ele>
        <time>2022-05-01T08:43:28Z</time>
      </trkpt>
      <trkpt lat="49.0572" lon="7.78555">
        <ele>458</ele>
        <time>2022-05-01T08:43:29Z</time>
      </trkpt>
      <trkpt lat="49.05717" lon="7.78557">
        <ele>458.2</ele>
        <time>2022-05-01T08:43:30Z</time>
      </trkpt>
      <trkpt lat="49.05714" lon="7.78559">
        <ele>458.4</ele>
        <time>2022-05-01T08:43:31Z</time>
      </trkpt>
      <trkpt lat="49.05711" lon="7.7856">
        <ele>458.4</ele>
        <time>2022-05-01T08:43:32Z</time>
      </trkpt>
      <trkpt lat="49.05708" lon="7.78563">
        <ele>458.6</ele>
        <time>2022-05-01T08:43:33Z</time>
      </trkpt>
      <trkpt lat="49.05705" lon="7.78564">
        <ele>458.8</ele>
        <time>2022-05-01T08:43:34Z</time>
      </trkpt>
      <trkpt lat="49.05702" lon="7.78563">
        <ele>458.8</ele>
        <time>2022-05-01T08:43:35Z</time>
      </trkpt>
      <trkpt lat="49.057" lon="7.78565">
        <ele>459</ele>
        <time>2022-05-01T08:43:36Z</time>
      </trkpt>
      <trkpt lat="49.05698" lon="7.78568">
        <ele>459.2</ele>
        <time>2022-05-01T08:43:37Z</time>
      </trkpt>
      <trkpt lat="49.05696" lon="7.78571">
        <ele>459.4</ele>
        <time>2022-05-01T08:43:38Z</time>
      </trkpt>
      <trkpt lat="49.05695" lon="7.78574">
        <ele>459.4</ele>
        <time>2022-05-01T08:43:39Z</time>
      </trkpt>
      <trkpt lat="49.05694" lon="7.78577">
        <ele>459.6</ele>
        <time>2022-05-01T08:43:40Z</time>
      </trkpt>
      <trkpt lat="49.05692" lon="7.78579">
        <ele>459.8</ele>
        <time>2022-05-01T08:43:41Z</time>
      </trkpt>
      <trkpt lat="49.0569" lon="7.78581">
        <ele>459.8</ele>
        <time>2022-05-01T08:43:42Z</time>
      </trkpt>
      <trkpt lat="49.05687" lon="7.78583">
        <ele>459.8</ele>
        <time>2022-05-01T08:43:43Z</time>
      </trkpt>
      <trkpt lat="49.05684" lon="7.78586">
        <ele>460</ele>
        <time>2022-05-01T08:43:44Z</time>
      </trkpt>
      <trkpt lat="49.05681" lon="7.78589">
        <ele>460</ele>
        <time>2022-05-01T08:43:45Z</time>
      </trkpt>
      <trkpt lat="49.05678" lon="7.78591">
        <ele>460</ele>
        <time>2022-05-01T08:43:46Z</time>
      </trkpt>
      <trkpt lat="49.05675" lon="7.78594">
        <ele>460.2</ele>
        <time>2022-05-01T08:43:47Z</time>
      </trkpt>
      <trkpt lat="49.05673" lon="7.78596">
        <ele>460.4</ele>
        <time>2022-05-01T08:43:48Z</time>
      </trkpt>
      <trkpt lat="49.0567" lon="7.78597">
        <ele>460.4</ele>
        <time>2022-05-01T08:43:49Z</time>
      </trkpt>
      <trkpt lat="49.05668" lon="7.78601">
        <ele>460.6</ele>
        <time>2022-05-01T08:43:50Z</time>
      </trkpt>
      <trkpt lat="49.05665" lon="7.78603">
        <ele>460.6</ele>
        <time>2022-05-01T08:43:51Z</time>
      </trkpt>
      <trkpt lat="49.05662" lon="7.78604">
        <ele>460.8</ele>
        <time>2022-05-01T08:43:52Z</time>
      </trkpt>
      <trkpt lat="49.0566" lon="7.78606">
        <ele>460.8</ele>
        <time>2022-05-01T08:43:53Z</time>
      </trkpt>
      <trkpt lat="49.05658" lon="7.78607">
        <ele>461</ele>
        <time>2022-05-01T08:43:54Z</time>
      </trkpt>
      <trkpt lat="49.05656" lon="7.78609">
        <ele>461.2</ele>
        <time>2022-05-01T08:43:55Z</time>
      </trkpt>
      <trkpt lat="49.05654" lon="7.78611">
        <ele>461.4</ele>
        <time>2022-05-01T08:43:56Z</time>
      </trkpt>
      <trkpt lat="49.05652" lon="7.78614">
        <ele>461.4</ele>
        <time>2022-05-01T08:43:57Z</time>
      </trkpt>
      <trkpt lat="49.0565" lon="7.78618">
        <ele>461.6</ele>
        <time>2022-05-01T08:43:58Z</time>
      </trkpt>
      <trkpt lat="49.05648" lon="7.78621">
        <ele>461.6</ele>
        <time>2022-05-01T08:43:59Z</time>
      </trkpt>
      <trkpt lat="49.05646" lon="7.78623">
        <ele>462</ele>
        <time>2022-05-01T08:44:00Z</time>
      </trkpt>
      <trkpt lat="49.05644" lon="7.78626">
        <ele>462.2</ele>
        <time>2022-05-01T08:44:01Z</time>
      </trkpt>
      <trkpt lat="49.05642" lon="7.78628">
        <ele>462.2</ele>
        <time>2022-05-01T08:44:02Z</time>
      </trkpt>
      <trkpt lat="49.0564" lon="7.7863">
        <ele>462.4</ele>
        <time>2022-05-01T08:44:03Z</time>
      </trkpt>
      <trkpt lat="49.05638" lon="7.78632">
        <ele>462.4</ele>
        <time>2022-05-01T08:44:04Z</time>
      </trkpt>
      <trkpt lat="49.05635" lon="7.78633">
        <ele>462.6</ele>
        <time>2022-05-01T08:44:05Z</time>
      </trkpt>
      <trkpt lat="49.05633" lon="7.78635">
        <ele>462.8</ele>
        <time>2022-05-01T08:44:06Z</time>
      </trkpt>
      <trkpt lat="49.05632" lon="7.78636">
        <ele>463</ele>
        <time>2022-05-01T08:44:07Z</time>
      </trkpt>
      <trkpt lat="49.0563" lon="7.78636">
        <ele>463.2</ele>
        <time>2022-05-01T08:44:08Z</time>
      </trkpt>
      <trkpt lat="49.05628" lon="7.78637">
        <ele>463.2</ele>
        <time>2022-05-01T08:44:09Z</time>
      </trkpt>
      <trkpt lat="49.05626" lon="7.78637">
        <ele>463.4</ele>
        <time>2022-05-01T08:44:10Z</time>
      </trkpt>
      <trkpt lat="49.05624" lon="7.78638">
        <ele>463.6</ele>
        <time>2022-05-01T08:44:11Z</time>
      </trkpt>
      <trkpt lat="49.05621" lon="7.78639">
        <ele>463.6</ele>
        <time>2022-05-01T08:44:12Z</time>
      </trkpt>
      <trkpt lat="49.05619" lon="7.7864">
        <ele>463.8</ele>
        <time>2022-05-01T08:44:13Z</time>
      </trkpt>
      <trkpt lat="49.05615" lon="7.78641">
        <ele>464</ele>
        <time>2022-05-01T08:44:14Z</time>
      </trkpt>
      <trkpt lat="49.05612" lon="7.78642">
        <ele>464.2</ele>
        <time>2022-05-01T08:44:15Z</time>
      </trkpt>
      <trkpt lat="49.0561" lon="7.78643">
        <ele>464.2</ele>
        <time>2022-05-01T08:44:16Z</time>
      </trkpt>
      <trkpt lat="49.05608" lon="7.78644">
        <ele>464.4</ele>
        <time>2022-05-01T08:44:17Z</time>
      </trkpt>
      <trkpt lat="49.05605" lon="7.78645">
        <ele>464.6</ele>
        <time>2022-05-01T08:44:18Z</time>
      </trkpt>
      <trkpt lat="49.05603" lon="7.78646">
        <ele>464.6</ele>
        <time>2022-05-01T08:44:19Z</time>
      </trkpt>
      <trkpt lat="49.05601" lon="7.78647">
        <ele>464.8</ele>
        <time>2022-05-01T08:44:20Z</time>
      </trkpt>
      <trkpt lat="49.056" lon="7.78647">
        <ele>464.8</ele>
        <time>2022-05-01T08:44:21Z</time>
      </trkpt>
      <trkpt lat="49.05598" lon="7.78648">
        <ele>465</ele>
        <time>2022-05-01T08:44:22Z</time>
      </trkpt>
      <trkpt lat="49.05596" lon="7.78648">
        <ele>465.2</ele>
        <time>2022-05-01T08:44:23Z</time>
      </trkpt>
      <trkpt lat="49.05595" lon="7.7865">
        <ele>465.2</ele>
        <time>2022-05-01T08:44:24Z</time>
      </trkpt>
      <trkpt lat="49.05593" lon="7.78651">
        <ele>465.4</ele>
        <time>2022-05-01T08:44:25Z</time>
      </trkpt>
      <trkpt lat="49.05588" lon="7.78653">
        <ele>465.4</ele>
        <time>2022-05-01T08:44:26Z</time>
      </trkpt>
      <trkpt lat="49.05584" lon="7.78654">
        <ele>465.6</ele>
        <time>2022-05-01T08:44:27Z</time>
      </trkpt>
      <trkpt lat="49.05581" lon="7.78655">
        <ele>465.8</ele>
        <time>2022-05-01T08:44:28Z</time>
      </trkpt>
      <trkpt lat="49.05581" lon="7.78656">
        <ele>466</ele>
        <time>2022-05-01T08:44:29Z</time>
      </trkpt>
      <trkpt lat="49.0558" lon="7.78656">
        <ele>466</ele>
        <time>2022-05-01T08:44:30Z</time>
      </trkpt>
      <trkpt lat="49.0558" lon="7.78656">
        <ele>466.2</ele>
        <time>2022-05-01T08:44:31Z</time>
      </trkpt>
      <trkpt lat="49.05579" lon="7.78657">
        <ele>466.4</ele>
        <time>2022-05-01T08:44:32Z</time>
      </trkpt>
      <trkpt lat="49.05576" lon="7.78657">
        <ele>466.4</ele>
        <time>2022-05-01T08:44:33Z</time>
      </trkpt>
      <trkpt lat="49.05575" lon="7.78658">
        <ele>466.4</ele>
        <time>2022-05-01T08:44:34Z</time>
      </trkpt>
      <trkpt lat="49.05572" lon="7.7866">
        <ele>466.6</ele>
        <time>2022-05-01T08:44:35Z</time>
      </trkpt>
      <trkpt lat="49.05567" lon="7.7866">
        <ele>466.8</ele>
        <time>2022-05-01T08:44:36Z</time>
      </trkpt>
      <trkpt lat="49.05561" lon="7.78662">
        <ele>467</ele>
        <time>2022-05-01T08:44:37Z</time>
      </trkpt>
      <trkpt lat="49.05557" lon="7.78663">
        <ele>467.2</ele>
        <time>2022-05-01T08:44:38Z</time>
      </trkpt>
      <trkpt lat="49.05553" lon="7.78664">
        <ele>467.4</ele>
        <time>2022-05-01T08:44:39Z</time>
      </trkpt>
      <trkpt lat="49.0555" lon="7.78664">
        <ele>467.4</ele>
        <time>2022-05-01T08:44:40Z</time>
      </trkpt>
      <trkpt lat="49.05548" lon="7.78664">
        <ele>467.8</ele>
        <time>2022-05-01T08:44:41Z</time>
      </trkpt>
      <trkpt lat="49.05546" lon="7.78666">
        <ele>468</ele>
        <time>2022-05-01T08:44:42Z</time>
      </trkpt>
      <trkpt lat="49.05543" lon="7.78666">
        <ele>468</ele>
        <time>2022-05-01T08:44:43Z</time>
      </trkpt>
      <trkpt lat="49.05541" lon="7.78668">
        <ele>468.4</ele>
        <time>2022-05-01T08:44:44Z</time>
      </trkpt>
      <trkpt lat="49.05537" lon="7.78669">
        <ele>468.4</ele>
        <time>2022-05-01T08:44:45Z</time>
      </trkpt>
      <trkpt lat="49.05533" lon="7.7867">
        <ele>468.6</ele>
        <time>2022-05-01T08:44:46Z</time>
      </trkpt>
      <trkpt lat="49.05529" lon="7.7867">
        <ele>468.8</ele>
        <time>2022-05-01T08:44:47Z</time>
      </trkpt>
      <trkpt lat="49.05523" lon="7.78672">
        <ele>468.8</ele>
        <time>2022-05-01T08:44:48Z</time>
      </trkpt>
      <trkpt lat="49.05517" lon="7.78674">
        <ele>469</ele>
        <time>2022-05-01T08:44:49Z</time>
      </trkpt>
      <trkpt lat="49.05513" lon="7.78675">
        <ele>469.2</ele>
        <time>2022-05-01T08:44:50Z</time>
      </trkpt>
      <trkpt lat="49.0551" lon="7.78677">
        <ele>469.4</ele>
        <time>2022-05-01T08:44:51Z</time>
      </trkpt>
      <trkpt lat="49.05506" lon="7.78679">
        <ele>469.6</ele>
        <time>2022-05-01T08:44:52Z</time>
      </trkpt>
      <trkpt lat="49.05504" lon="7.7868">
        <ele>469.6</ele>
        <time>2022-05-01T08:44:53Z</time>
      </trkpt>
      <trkpt lat="49.05503" lon="7.78682">
        <ele>469.8</ele>
        <time>2022-05-01T08:44:54Z</time>
      </trkpt>
      <trkpt lat="49.05501" lon="7.78684">
        <ele>469.8</ele>
        <time>2022-05-01T08:44:55Z</time>
      </trkpt>
      <trkpt lat="49.05498" lon="7.78686">
        <ele>469.8</ele>
        <time>2022-05-01T08:44:56Z</time>
      </trkpt>
      <trkpt lat="49.05493" lon="7.78687">
        <ele>470</ele>
        <time>2022-05-01T08:44:57Z</time>
      </trkpt>
      <trkpt lat="49.0549" lon="7.78688">
        <ele>470.2</ele>
        <time>2022-05-01T08:44:58Z</time>
      </trkpt>
      <trkpt lat="49.05488" lon="7.78689">
        <ele>470.2</ele>
        <time>2022-05-01T08:44:59Z</time>
      </trkpt>
      <trkpt lat="49.05485" lon="7.78691">
        <ele>470.4</ele>
        <time>2022-05-01T08:45:00Z</time>
      </trkpt>
      <trkpt lat="49.05483" lon="7.78693">
        <ele>470.6</ele>
        <time>2022-05-01T08:45:01Z</time>
      </trkpt>
      <trkpt lat="49.05482" lon="7.78695">
        <ele>470.6</ele>
        <time>2022-05-01T08:45:02Z</time>
      </trkpt>
      <trkpt lat="49.05481" lon="7.78697">
        <ele>470.8</ele>
        <time>2022-05-01T08:45:03Z</time>
      </trkpt>
      <trkpt lat="49.0548" lon="7.78699">
        <ele>471</ele>
        <time>2022-05-01T08:45:04Z</time>
      </trkpt>
      <trkpt lat="49.05478" lon="7.78701">
        <ele>471</ele>
        <time>2022-05-01T08:45:05Z</time>
      </trkpt>
      <trkpt lat="49.05476" lon="7.78703">
        <ele>471.2</ele>
        <time>2022-05-01T08:45:06Z</time>
      </trkpt>
      <trkpt lat="49.05475" lon="7.78704">
        <ele>471.4</ele>
        <time>2022-05-01T08:45:07Z</time>
      </trkpt>
      <trkpt lat="49.05473" lon="7.78704">
        <ele>471.6</ele>
        <time>2022-05-01T08:45:08Z</time>
      </trkpt>
      <trkpt lat="49.05471" lon="7.78704">
        <ele>471.8</ele>
        <time>2022-05-01T08:45:09Z</time>
      </trkpt>
      <trkpt lat="49.05469" lon="7.78705">
        <ele>471.8</ele>
        <time>2022-05-01T08:45:10Z</time>
      </trkpt>
      <trkpt lat="49.05467" lon="7.78706">
        <ele>472</ele>
        <time>2022-05-01T08:45:11Z</time>
      </trkpt>
      <trkpt lat="49.05464" lon="7.78707">
        <ele>472.2</ele>
        <time>2022-05-01T08:45:12Z</time>
      </trkpt>
      <trkpt lat="49.0546" lon="7.78708">
        <ele>472.4</ele>
        <time>2022-05-01T08:45:13Z</time>
      </trkpt>
      <trkpt lat="49.05457" lon="7.7871">
        <ele>472.6</ele>
        <time>2022-05-01T08:45:14Z</time>
      </trkpt>
      <trkpt lat="49.05455" lon="7.78712">
        <ele>472.6</ele>
        <time>2022-05-01T08:45:15Z</time>
      </trkpt>
      <trkpt lat="49.05452" lon="7.78714">
        <ele>473</ele>
        <time>2022-05-01T08:45:16Z</time>
      </trkpt>
      <trkpt lat="49.05449" lon="7.78715">
        <ele>473.2</ele>
        <time>2022-05-01T08:45:17Z</time>
      </trkpt>
      <trkpt lat="49.05446" lon="7.78716">
        <ele>473.4</ele>
        <time>2022-05-01T08:45:18Z</time>
      </trkpt>
      <trkpt lat="49.05443" lon="7.78719">
        <ele>473.6</ele>
        <time>2022-05-01T08:45:19Z</time>
      </trkpt>
      <trkpt lat="49.0544" lon="7.78721">
        <ele>473.8</ele>
        <time>2022-05-01T08:45:20Z</time>
      </trkpt>
      <trkpt lat="49.05437" lon="7.78723">
        <ele>474</ele>
        <time>2022-05-01T08:45:21Z</time>
      </trkpt>
      <trkpt lat="49.05434" lon="7.78725">
        <ele>474</ele>
        <time>2022-05-01T08:45:22Z</time>
      </trkpt>
      <trkpt lat="49.05431" lon="7.78728">
        <ele>474</ele>
        <time>2022-05-01T08:45:23Z</time>
      </trkpt>
      <trkpt lat="49.05428" lon="7.78729">
        <ele>474</ele>
        <time>2022-05-01T08:45:24Z</time>
      </trkpt>
      <trkpt lat="49.05425" lon="7.78731">
        <ele>474.4</ele>
        <time>2022-05-01T08:45:25Z</time>
      </trkpt>
      <trkpt lat="49.05423" lon="7.78732">
        <ele>474.6</ele>
        <time>2022-05-01T08:45:26Z</time>
      </trkpt>
      <trkpt lat="49.0542" lon="7.78733">
        <ele>474.6</ele>
        <time>2022-05-01T08:45:27Z</time>
      </trkpt>
      <trkpt lat="49.05416" lon="7.78735">
        <ele>474.8</ele>
        <time>2022-05-01T08:45:28Z</time>
      </trkpt>
      <trkpt lat="49.05412" lon="7.78736">
        <ele>475</ele>
        <time>2022-05-01T08:45:29Z</time>
      </trkpt>
      <trkpt lat="49.05408" lon="7.78736">
        <ele>475.2</ele>
        <time>2022-05-01T08:45:30Z</time>
      </trkpt>
      <trkpt lat="49.05405" lon="7.78737">
        <ele>475.2</ele>
        <time>2022-05-01T08:45:31Z</time>
      </trkpt>
      <trkpt lat="49.05403" lon="7.78736">
        <ele>475.4</ele>
        <time>2022-05-01T08:45:32Z</time>
      </trkpt>
      <trkpt lat="49.05401" lon="7.78736">
        <ele>475.6</ele>
        <time>2022-05-01T08:45:33Z</time>
      </trkpt>
      <trkpt lat="49.05399" lon="7.78737">
        <ele>475.6</ele>
        <time>2022-05-01T08:45:34Z</time>
      </trkpt>
      <trkpt lat="49.05396" lon="7.7874">
        <ele>475.8</ele>
        <time>2022-05-01T08:45:35Z</time>
      </trkpt>
      <trkpt lat="49.05393" lon="7.78742">
        <ele>476</ele>
        <time>2022-05-01T08:45:36Z</time>
      </trkpt>
      <trkpt lat="49.0539" lon="7.78743">
        <ele>476.2</ele>
        <time>2022-05-01T08:45:37Z</time>
      </trkpt>
      <trkpt lat="49.05387" lon="7.78744">
        <ele>476.2</ele>
        <time>2022-05-01T08:45:38Z</time>
      </trkpt>
      <trkpt lat="49.05385" lon="7.78746">
        <ele>476.4</ele>
        <time>2022-05-01T08:45:39Z</time>
      </trkpt>
      <trkpt lat="49.05383" lon="7.78745">
        <ele>476.6</ele>
        <time>2022-05-01T08:45:40Z</time>
      </trkpt>
      <trkpt lat="49.05381" lon="7.78745">
        <ele>476.8</ele>
        <time>2022-05-01T08:45:41Z</time>
      </trkpt>
      <trkpt lat="49.05377" lon="7.78745">
        <ele>477.2</ele>
        <time>2022-05-01T08:45:42Z</time>
      </trkpt>
      <trkpt lat="49.05373" lon="7.78745">
        <ele>477.2</ele>
        <time>2022-05-01T08:45:43Z</time>
      </trkpt>
      <trkpt lat="49.0537" lon="7.78746">
        <ele>477.4</ele>
        <time>2022-05-01T08:45:44Z</time>
      </trkpt>
      <trkpt lat="49.05368" lon="7.78745">
        <ele>477.6</ele>
        <time>2022-05-01T08:45:45Z</time>
      </trkpt>
      <trkpt lat="49.05365" lon="7.78744">
        <ele>477.8</ele>
        <time>2022-05-01T08:45:46Z</time>
      </trkpt>
      <trkpt lat="49.05363" lon="7.78743">
        <ele>477.8</ele>
        <time>2022-05-01T08:45:47Z</time>
      </trkpt>
      <trkpt lat="49.0536" lon="7.78741">
        <ele>478</ele>
        <time>2022-05-01T08:45:48Z</time>
      </trkpt>
      <trkpt lat="49.05359" lon="7.78741">
        <ele>478.2</ele>
        <time>2022-05-01T08:45:49Z</time>
      </trkpt>
      <trkpt lat="49.05357" lon="7.78739">
        <ele>478.4</ele>
        <time>2022-05-01T08:45:50Z</time>
      </trkpt>
      <trkpt lat="49.05354" lon="7.78738">
        <ele>478.8</ele>
        <time>2022-05-01T08:45:51Z</time>
      </trkpt>
      <trkpt lat="49.05351" lon="7.78737">
        <ele>479</ele>
        <time>2022-05-01T08:45:52Z</time>
      </trkpt>
      <trkpt lat="49.05347" lon="7.78736">
        <ele>479.2</ele>
        <time>2022-05-01T08:45:53Z</time>
      </trkpt>
      <trkpt lat="49.05344" lon="7.78735">
        <ele>479.4</ele>
        <time>2022-05-01T08:45:54Z</time>
      </trkpt>
      <trkpt lat="49.05341" lon="7.78733">
        <ele>479.6</ele>
        <time>2022-05-01T08:45:55Z</time>
      </trkpt>
      <trkpt lat="49.05338" lon="7.78732">
        <ele>479.8</ele>
        <time>2022-05-01T08:45:56Z</time>
      </trkpt>
      <trkpt lat="49.05335" lon="7.78729">
        <ele>480</ele>
        <time>2022-05-01T08:45:57Z</time>
      </trkpt>
      <trkpt lat="49.05332" lon="7.78727">
        <ele>480.2</ele>
        <time>2022-05-01T08:45:58Z</time>
      </trkpt>
      <trkpt lat="49.05329" lon="7.78727">
        <ele>480.4</ele>
        <time>2022-05-01T08:45:59Z</time>
      </trkpt>
      <trkpt lat="49.05327" lon="7.78726">
        <ele>480.4</ele>
        <time>2022-05-01T08:46:00Z</time>
      </trkpt>
      <trkpt lat="49.05325" lon="7.78724">
        <ele>480.6</ele>
        <time>2022-05-01T08:46:01Z</time>
      </trkpt>
      <trkpt lat="49.05324" lon="7.78723">
        <ele>480.8</ele>
        <time>2022-05-01T08:46:02Z</time>
      </trkpt>
      <trkpt lat="49.05322" lon="7.78721">
        <ele>481</ele>
        <time>2022-05-01T08:46:03Z</time>
      </trkpt>
      <trkpt lat="49.0532" lon="7.78719">
        <ele>481</ele>
        <time>2022-05-01T08:46:04Z</time>
      </trkpt>
      <trkpt lat="49.05318" lon="7.78718">
        <ele>481.2</ele>
        <time>2022-05-01T08:46:05Z</time>
      </trkpt>
      <trkpt lat="49.05314" lon="7.78717">
        <ele>481.4</ele>
        <time>2022-05-01T08:46:06Z</time>
      </trkpt>
      <trkpt lat="49.05312" lon="7.78716">
        <ele>481.4</ele>
        <time>2022-05-01T08:46:07Z</time>
      </trkpt>
      <trkpt lat="49.0531" lon="7.78715">
        <ele>481.6</ele>
        <time>2022-05-01T08:46:08Z</time>
      </trkpt>
      <trkpt lat="49.05308" lon="7.78713">
        <ele>481.8</ele>
        <time>2022-05-01T08:46:09Z</time>
      </trkpt>
      <trkpt lat="49.05305" lon="7.7871">
        <ele>481.8</ele>
        <time>2022-05-01T08:46:10Z</time>
      </trkpt>
      <trkpt lat="49.05304" lon="7.78706">
        <ele>481.8</ele>
        <time>2022-05-01T08:46:11Z</time>
      </trkpt>
      <trkpt lat="49.05303" lon="7.78704">
        <ele>482</ele>
        <time>2022-05-01T08:46:12Z</time>
      </trkpt>
      <trkpt lat="49.05301" lon="7.78724">
        <ele>482</ele>
        <time>2022-05-01T08:46:13Z</time>
      </trkpt>
      <trkpt lat="49.05297" lon="7.78727">
        <ele>482.2</ele>
        <time>2022-05-01T08:46:14Z</time>
      </trkpt>
      <trkpt lat="49.05295" lon="7.78725">
        <ele>482.4</ele>
        <time>2022-05-01T08:46:15Z</time>
      </trkpt>
      <trkpt lat="49.05292" lon="7.78722">
        <ele>482.6</ele>
        <time>2022-05-01T08:46:16Z</time>
      </trkpt>
      <trkpt lat="49.05292" lon="7.7872">
        <ele>482.8</ele>
        <time>2022-05-01T08:46:17Z</time>
      </trkpt>
      <trkpt lat="49.0529" lon="7.7872">
        <ele>482.8</ele>
        <time>2022-05-01T08:46:18Z</time>
      </trkpt>
      <trkpt lat="49.05288" lon="7.78719">
        <ele>483</ele>
        <time>2022-05-01T08:46:19Z</time>
      </trkpt>
      <trkpt lat="49.05286" lon="7.78718">
        <ele>483</ele>
        <time>2022-05-01T08:46:20Z</time>
      </trkpt>
      <trkpt lat="49.05283" lon="7.78716">
        <ele>483.2</ele>
        <time>2022-05-01T08:46:21Z</time>
      </trkpt>
      <trkpt lat="49.05279" lon="7.78714">
        <ele>483.2</ele>
        <time>2022-05-01T08:46:22Z</time>
      </trkpt>
      <trkpt lat="49.05274" lon="7.78714">
        <ele>483.4</ele>
        <time>2022-05-01T08:46:23Z</time>
      </trkpt>
      <trkpt lat="49.0527" lon="7.78713">
        <ele>483.6</ele>
        <time>2022-05-01T08:46:24Z</time>
      </trkpt>
      <trkpt lat="49.05267" lon="7.78708">
        <ele>483.8</ele>
        <time>2022-05-01T08:46:25Z</time>
      </trkpt>
      <trkpt lat="49.05264" lon="7.78705">
        <ele>484</ele>
        <time>2022-05-01T08:46:26Z</time>
      </trkpt>
      <trkpt lat="49.05261" lon="7.78703">
        <ele>484.2</ele>
        <time>2022-05-01T08:46:27Z</time>
      </trkpt>
      <trkpt lat="49.05258" lon="7.78699">
        <ele>484.4</ele>
        <time>2022-05-01T08:46:28Z</time>
      </trkpt>
      <trkpt lat="49.05254" lon="7.78697">
        <ele>484.4</ele>
        <time>2022-05-01T08:46:29Z</time>
      </trkpt>
      <trkpt lat="49.05251" lon="7.78695">
        <ele>484.6</ele>
        <time>2022-05-01T08:46:30Z</time>
      </trkpt>
      <trkpt lat="49.05249" lon="7.78694">
        <ele>484.8</ele>
        <time>2022-05-01T08:46:31Z</time>
      </trkpt>
      <trkpt lat="49.05247" lon="7.78692">
        <ele>484.8</ele>
        <time>2022-05-01T08:46:32Z</time>
      </trkpt>
      <trkpt lat="49.05246" lon="7.78691">
        <ele>485</ele>
        <time>2022-05-01T08:46:33Z</time>
      </trkpt>
      <trkpt lat="49.05244" lon="7.78691">
        <ele>485</ele>
        <time>2022-05-01T08:46:34Z</time>
      </trkpt>
      <trkpt lat="49.05243" lon="7.7869">
        <ele>485.2</ele>
        <time>2022-05-01T08:46:35Z</time>
      </trkpt>
      <trkpt lat="49.05242" lon="7.78687">
        <ele>485.4</ele>
        <time>2022-05-01T08:46:36Z</time>
      </trkpt>
      <trkpt lat="49.05241" lon="7.78684">
        <ele>485.6</ele>
        <time>2022-05-01T08:46:37Z</time>
      </trkpt>
      <trkpt lat="49.05238" lon="7.7868">
        <ele>485.6</ele>
        <time>2022-05-01T08:46:38Z</time>
      </trkpt>
      <trkpt lat="49.05235" lon="7.78679">
        <ele>485.8</ele>
        <time>2022-05-01T08:46:39Z</time>
      </trkpt>
      <trkpt lat="49.05234" lon="7.78676">
        <ele>485.8</ele>
        <time>2022-05-01T08:46:40Z</time>
      </trkpt>
      <trkpt lat="49.05232" lon="7.78673">
        <ele>486</ele>
        <time>2022-05-01T08:46:41Z</time>
      </trkpt>
      <trkpt lat="49.05231" lon="7.78669">
        <ele>486</ele>
        <time>2022-05-01T08:46:42Z</time>
      </trkpt>
      <trkpt lat="49.05229" lon="7.78666">
        <ele>486</ele>
        <time>2022-05-01T08:46:43Z</time>
      </trkpt>
      <trkpt lat="49.05228" lon="7.78663">
        <ele>486.2</ele>
        <time>2022-05-01T08:46:44Z</time>
      </trkpt>
      <trkpt lat="49.05226" lon="7.7866">
        <ele>486.2</ele>
        <time>2022-05-01T08:46:45Z</time>
      </trkpt>
      <trkpt lat="49.05226" lon="7.78659">
        <ele>486.2</ele>
        <time>2022-05-01T08:46:46Z</time>
      </trkpt>
      <trkpt lat="49.05226" lon="7.78659">
        <ele>486.6</ele>
        <time>2022-05-01T08:46:47Z</time>
      </trkpt>
      <trkpt lat="49.05226" lon="7.78659">
        <ele>486.6</ele>
        <time>2022-05-01T08:46:48Z</time>
      </trkpt>
      <trkpt lat="49.05226" lon="7.78659">
        <ele>486.8</ele>
        <time>2022-05-01T08:46:49Z</time>
      </trkpt>
      <trkpt lat="49.05225" lon="7.78657">
        <ele>487</ele>
        <time>2022-05-01T08:46:53Z</time>
      </trkpt>
      <trkpt lat="49.05225" lon="7.78657">
        <ele>487</ele>
        <time>2022-05-01T08:46:54Z</time>
      </trkpt>
      <trkpt lat="49.05223" lon="7.78657">
        <ele>487</ele>
        <time>2022-05-01T08:46:55Z</time>
      </trkpt>
      <trkpt lat="49.05224" lon="7.78657">
        <ele>487</ele>
        <time>2022-05-01T08:46:56Z</time>
      </trkpt>
      <trkpt lat="49.05224" lon="7.78657">
        <ele>487</ele>
        <time>2022-05-01T08:46:57Z</time>
      </trkpt>
      <trkpt lat="49.05224" lon="7.78657">
        <ele>487</ele>
        <time>2022-05-01T08:46:58Z</time>
      </trkpt>
      <trkpt lat="49.05224" lon="7.78657">
        <ele>487</ele>
        <time>2022-05-01T08:46:59Z</time>
      </trkpt>
      <trkpt lat="49.05224" lon="7.78657">
        <ele>487</ele>
        <time>2022-05-01T08:47:00Z</time>
      </trkpt>
      <trkpt lat="49.05224" lon="7.78656">
        <ele>486.8</ele>
        <time>2022-05-01T08:50:18Z</time>
      </trkpt>
      <trkpt lat="49.05222" lon="7.78655">
        <ele>486.8</ele>
        <time>2022-05-01T08:50:19Z</time>
      </trkpt>
      <trkpt lat="49.05222" lon="7.78653">
        <ele>486.8</ele>
        <time>2022-05-01T08:50:21Z</time>
      </trkpt>
      <trkpt lat="49.05222" lon="7.78653">
        <ele>486.8</ele>
        <time>2022-05-01T08:50:22Z</time>
      </trkpt>
      <trkpt lat="49.05223" lon="7.7865">
        <ele>487.6</ele>
        <time>2022-05-01T08:50:46Z</time>
      </trkpt>
      <trkpt lat="49.05225" lon="7.78644">
        <ele>487.6</ele>
        <time>2022-05-01T08:50:48Z</time>
      </trkpt>
      <trkpt lat="49.05232" lon="7.78635">
        <ele>487.6</ele>
        <time>2022-05-01T08:50:52Z</time>
      </trkpt>
      <trkpt lat="49.05236" lon="7.7863">
        <ele>487.6</ele>
        <time>2022-05-01T08:50:54Z</time>
      </trkpt>
      <trkpt lat="49.05251" lon="7.78616">
        <ele>487.8</ele>
        <time>2022-05-01T08:51:01Z</time>
      </trkpt>
      <trkpt lat="49.05256" lon="7.78612">
        <ele>488</ele>
        <time>2022-05-01T08:51:03Z</time>
      </trkpt>
      <trkpt lat="49.05265" lon="7.78601">
        <ele>488.6</ele>
        <time>2022-05-01T08:51:07Z</time>
      </trkpt>
      <trkpt lat="49.0528" lon="7.78585">
        <ele>489</ele>
        <time>2022-05-01T08:51:13Z</time>
      </trkpt>
      <trkpt lat="49.05282" lon="7.78582">
        <ele>489</ele>
        <time>2022-05-01T08:51:14Z</time>
      </trkpt>
      <trkpt lat="49.05285" lon="7.7858">
        <ele>489.4</ele>
        <time>2022-05-01T08:51:15Z</time>
      </trkpt>
      <trkpt lat="49.05301" lon="7.78564">
        <ele>490</ele>
        <time>2022-05-01T08:51:21Z</time>
      </trkpt>
      <trkpt lat="49.05308" lon="7.78555">
        <ele>490.4</ele>
        <time>2022-05-01T08:51:24Z</time>
      </trkpt>
      <trkpt lat="49.05316" lon="7.78546">
        <ele>490.6</ele>
        <time>2022-05-01T08:51:27Z</time>
      </trkpt>
      <trkpt lat="49.05332" lon="7.78528">
        <ele>491.4</ele>
        <time>2022-05-01T08:51:33Z</time>
      </trkpt>
      <trkpt lat="49.05335" lon="7.78525">
        <ele>491.6</ele>
        <time>2022-05-01T08:51:34Z</time>
      </trkpt>
      <trkpt lat="49.05341" lon="7.7852">
        <ele>491.6</ele>
        <time>2022-05-01T08:51:36Z</time>
      </trkpt>
      <trkpt lat="49.05343" lon="7.78517">
        <ele>491.6</ele>
        <time>2022-05-01T08:51:37Z</time>
      </trkpt>
      <trkpt lat="49.05345" lon="7.78513">
        <ele>491.8</ele>
        <time>2022-05-01T08:51:38Z</time>
      </trkpt>
      <trkpt lat="49.05348" lon="7.7851">
        <ele>491.8</ele>
        <time>2022-05-01T08:51:39Z</time>
      </trkpt>
      <trkpt lat="49.05351" lon="7.78507">
        <ele>491.8</ele>
        <time>2022-05-01T08:51:40Z</time>
      </trkpt>
      <trkpt lat="49.05353" lon="7.78504">
        <ele>492</ele>
        <time>2022-05-01T08:51:41Z</time>
      </trkpt>
      <trkpt lat="49.05369" lon="7.78482">
        <ele>492.2</ele>
        <time>2022-05-01T08:51:47Z</time>
      </trkpt>
      <trkpt lat="49.05378" lon="7.78469">
        <ele>492.4</ele>
        <time>2022-05-01T08:51:50Z</time>
      </trkpt>
      <trkpt lat="49.05388" lon="7.78453">
        <ele>492.6</ele>
        <time>2022-05-01T08:51:54Z</time>
      </trkpt>
      <trkpt lat="49.05394" lon="7.78437">
        <ele>493</ele>
        <time>2022-05-01T08:51:58Z</time>
      </trkpt>
      <trkpt lat="49.05398" lon="7.78424">
        <ele>493.4</ele>
        <time>2022-05-01T08:52:01Z</time>
      </trkpt>
      <trkpt lat="49.054" lon="7.78419">
        <ele>493.4</ele>
        <time>2022-05-01T08:52:02Z</time>
      </trkpt>
      <trkpt lat="49.05401" lon="7.78415">
        <ele>493.6</ele>
        <time>2022-05-01T08:52:03Z</time>
      </trkpt>
      <trkpt lat="49.05402" lon="7.78411">
        <ele>493.8</ele>
        <time>2022-05-01T08:52:04Z</time>
      </trkpt>
      <trkpt lat="49.05404" lon="7.78407">
        <ele>494</ele>
        <time>2022-05-01T08:52:05Z</time>
      </trkpt>
      <trkpt lat="49.05405" lon="7.78403">
        <ele>494.2</ele>
        <time>2022-05-01T08:52:06Z</time>
      </trkpt>
      <trkpt lat="49.05407" lon="7.78398">
        <ele>494.4</ele>
        <time>2022-05-01T08:52:07Z</time>
      </trkpt>
      <trkpt lat="49.05409" lon="7.78392">
        <ele>494.4</ele>
        <time>2022-05-01T08:52:08Z</time>
      </trkpt>
      <trkpt lat="49.05414" lon="7.78377">
        <ele>494.6</ele>
        <time>2022-05-01T08:52:11Z</time>
      </trkpt>
      <trkpt lat="49.05416" lon="7.78371">
        <ele>494.8</ele>
        <time>2022-05-01T08:52:12Z</time>
      </trkpt>
      <trkpt lat="49.05418" lon="7.78366">
        <ele>494.8</ele>
        <time>2022-05-01T08:52:13Z</time>
      </trkpt>
      <trkpt lat="49.05421" lon="7.78361">
        <ele>495</ele>
        <time>2022-05-01T08:52:14Z</time>
      </trkpt>
      <trkpt lat="49.05423" lon="7.78357">
        <ele>495.2</ele>
        <time>2022-05-01T08:52:15Z</time>
      </trkpt>
      <trkpt lat="49.05425" lon="7.78352">
        <ele>495.2</ele>
        <time>2022-05-01T08:52:16Z</time>
      </trkpt>
      <trkpt lat="49.05427" lon="7.78348">
        <ele>495.2</ele>
        <time>2022-05-01T08:52:17Z</time>
      </trkpt>
      <trkpt lat="49.05429" lon="7.78344">
        <ele>495.2</ele>
        <time>2022-05-01T08:52:18Z</time>
      </trkpt>
      <trkpt lat="49.05432" lon="7.78341">
        <ele>495.4</ele>
        <time>2022-05-01T08:52:19Z</time>
      </trkpt>
      <trkpt lat="49.05434" lon="7.78337">
        <ele>495.4</ele>
        <time>2022-05-01T08:52:20Z</time>
      </trkpt>
      <trkpt lat="49.05436" lon="7.78332">
        <ele>495.6</ele>
        <time>2022-05-01T08:52:21Z</time>
      </trkpt>
      <trkpt lat="49.05438" lon="7.78327">
        <ele>495.6</ele>
        <time>2022-05-01T08:52:22Z</time>
      </trkpt>
      <trkpt lat="49.05439" lon="7.78322">
        <ele>495.8</ele>
        <time>2022-05-01T08:52:23Z</time>
      </trkpt>
      <trkpt lat="49.05441" lon="7.78317">
        <ele>495.8</ele>
        <time>2022-05-01T08:52:24Z</time>
      </trkpt>
      <trkpt lat="49.05444" lon="7.78314">
        <ele>496.2</ele>
        <time>2022-05-01T08:52:25Z</time>
      </trkpt>
      <trkpt lat="49.05446" lon="7.7831">
        <ele>496.4</ele>
        <time>2022-05-01T08:52:26Z</time>
      </trkpt>
      <trkpt lat="49.05448" lon="7.78305">
        <ele>496.6</ele>
        <time>2022-05-01T08:52:27Z</time>
      </trkpt>
      <trkpt lat="49.05453" lon="7.78296">
        <ele>496.8</ele>
        <time>2022-05-01T08:52:29Z</time>
      </trkpt>
      <trkpt lat="49.05455" lon="7.78292">
        <ele>496.8</ele>
        <time>2022-05-01T08:52:30Z</time>
      </trkpt>
      <trkpt lat="49.05459" lon="7.78283">
        <ele>497.2</ele>
        <time>2022-05-01T08:52:32Z</time>
      </trkpt>
      <trkpt lat="49.05461" lon="7.78279">
        <ele>497.2</ele>
        <time>2022-05-01T08:52:33Z</time>
      </trkpt>
      <trkpt lat="49.05463" lon="7.78275">
        <ele>497.4</ele>
        <time>2022-05-01T08:52:34Z</time>
      </trkpt>
      <trkpt lat="49.05465" lon="7.78271">
        <ele>497.4</ele>
        <time>2022-05-01T08:52:35Z</time>
      </trkpt>
      <trkpt lat="49.05467" lon="7.78267">
        <ele>497.6</ele>
        <time>2022-05-01T08:52:36Z</time>
      </trkpt>
      <trkpt lat="49.05469" lon="7.78263">
        <ele>497.8</ele>
        <time>2022-05-01T08:52:37Z</time>
      </trkpt>
      <trkpt lat="49.05471" lon="7.78258">
        <ele>497.8</ele>
        <time>2022-05-01T08:52:38Z</time>
      </trkpt>
      <trkpt lat="49.05474" lon="7.78253">
        <ele>498</ele>
        <time>2022-05-01T08:52:39Z</time>
      </trkpt>
      <trkpt lat="49.05476" lon="7.78248">
        <ele>498.2</ele>
        <time>2022-05-01T08:52:40Z</time>
      </trkpt>
      <trkpt lat="49.05477" lon="7.78243">
        <ele>498.2</ele>
        <time>2022-05-01T08:52:41Z</time>
      </trkpt>
      <trkpt lat="49.0548" lon="7.78238">
        <ele>498.4</ele>
        <time>2022-05-01T08:52:42Z</time>
      </trkpt>
      <trkpt lat="49.05482" lon="7.78233">
        <ele>498.4</ele>
        <time>2022-05-01T08:52:43Z</time>
      </trkpt>
      <trkpt lat="49.05484" lon="7.78228">
        <ele>498.4</ele>
        <time>2022-05-01T08:52:44Z</time>
      </trkpt>
      <trkpt lat="49.05487" lon="7.78225">
        <ele>498.4</ele>
        <time>2022-05-01T08:52:45Z</time>
      </trkpt>
      <trkpt lat="49.05491" lon="7.78223">
        <ele>498.6</ele>
        <time>2022-05-01T08:52:46Z</time>
      </trkpt>
      <trkpt lat="49.05495" lon="7.78221">
        <ele>498.6</ele>
        <time>2022-05-01T08:52:47Z</time>
      </trkpt>
      <trkpt lat="49.05499" lon="7.7822">
        <ele>498.6</ele>
        <time>2022-05-01T08:52:48Z</time>
      </trkpt>
      <trkpt lat="49.05503" lon="7.78219">
        <ele>498.6</ele>
        <time>2022-05-01T08:52:49Z</time>
      </trkpt>
      <trkpt lat="49.05507" lon="7.78218">
        <ele>498.6</ele>
        <time>2022-05-01T08:52:50Z</time>
      </trkpt>
      <trkpt lat="49.05511" lon="7.78218">
        <ele>498.8</ele>
        <time>2022-05-01T08:52:51Z</time>
      </trkpt>
      <trkpt lat="49.05514" lon="7.78219">
        <ele>498.8</ele>
        <time>2022-05-01T08:52:52Z</time>
      </trkpt>
      <trkpt lat="49.05518" lon="7.78221">
        <ele>499</ele>
        <time>2022-05-01T08:52:53Z</time>
      </trkpt>
      <trkpt lat="49.05521" lon="7.78223">
        <ele>499</ele>
        <time>2022-05-01T08:52:54Z</time>
      </trkpt>
      <trkpt lat="49.05524" lon="7.78225">
        <ele>499.2</ele>
        <time>2022-05-01T08:52:55Z</time>
      </trkpt>
      <trkpt lat="49.05535" lon="7.78232">
        <ele>499.4</ele>
        <time>2022-05-01T08:52:59Z</time>
      </trkpt>
      <trkpt lat="49.05538" lon="7.78233">
        <ele>499.4</ele>
        <time>2022-05-01T08:53:00Z</time>
      </trkpt>
      <trkpt lat="49.05542" lon="7.78234">
        <ele>499.6</ele>
        <time>2022-05-01T08:53:01Z</time>
      </trkpt>
      <trkpt lat="49.05551" lon="7.78239">
        <ele>500</ele>
        <time>2022-05-01T08:53:04Z</time>
      </trkpt>
      <trkpt lat="49.05555" lon="7.78241">
        <ele>500</ele>
        <time>2022-05-01T08:53:05Z</time>
      </trkpt>
      <trkpt lat="49.05561" lon="7.78245">
        <ele>500.6</ele>
        <time>2022-05-01T08:53:07Z</time>
      </trkpt>
      <trkpt lat="49.05565" lon="7.78247">
        <ele>500.6</ele>
        <time>2022-05-01T08:53:08Z</time>
      </trkpt>
      <trkpt lat="49.05568" lon="7.78247">
        <ele>500.8</ele>
        <time>2022-05-01T08:53:09Z</time>
      </trkpt>
      <trkpt lat="49.05572" lon="7.78248">
        <ele>500.8</ele>
        <time>2022-05-01T08:53:10Z</time>
      </trkpt>
      <trkpt lat="49.05575" lon="7.78249">
        <ele>501</ele>
        <time>2022-05-01T08:53:11Z</time>
      </trkpt>
      <trkpt lat="49.05582" lon="7.78254">
        <ele>501.2</ele>
        <time>2022-05-01T08:53:13Z</time>
      </trkpt>
      <trkpt lat="49.05586" lon="7.78256">
        <ele>501.2</ele>
        <time>2022-05-01T08:53:14Z</time>
      </trkpt>
      <trkpt lat="49.05589" lon="7.78259">
        <ele>501.4</ele>
        <time>2022-05-01T08:53:15Z</time>
      </trkpt>
      <trkpt lat="49.05592" lon="7.78262">
        <ele>501.4</ele>
        <time>2022-05-01T08:53:16Z</time>
      </trkpt>
      <trkpt lat="49.05595" lon="7.78265">
        <ele>501.6</ele>
        <time>2022-05-01T08:53:17Z</time>
      </trkpt>
      <trkpt lat="49.05598" lon="7.78268">
        <ele>501.6</ele>
        <time>2022-05-01T08:53:18Z</time>
      </trkpt>
      <trkpt lat="49.05601" lon="7.7827">
        <ele>501.6</ele>
        <time>2022-05-01T08:53:19Z</time>
      </trkpt>
      <trkpt lat="49.05603" lon="7.78272">
        <ele>501.8</ele>
        <time>2022-05-01T08:53:20Z</time>
      </trkpt>
      <trkpt lat="49.05606" lon="7.78273">
        <ele>501.8</ele>
        <time>2022-05-01T08:53:21Z</time>
      </trkpt>
      <trkpt lat="49.05608" lon="7.78273">
        <ele>501.8</ele>
        <time>2022-05-01T08:53:22Z</time>
      </trkpt>
      <trkpt lat="49.05608" lon="7.78272">
        <ele>501.8</ele>
        <time>2022-05-01T08:53:23Z</time>
      </trkpt>
      <trkpt lat="49.05608" lon="7.78271">
        <ele>501.8</ele>
        <time>2022-05-01T08:53:24Z</time>
      </trkpt>
      <trkpt lat="49.05606" lon="7.7827">
        <ele>501.8</ele>
        <time>2022-05-01T08:53:25Z</time>
      </trkpt>
      <trkpt lat="49.05596" lon="7.78262">
        <ele>501.8</ele>
        <time>2022-05-01T08:53:28Z</time>
      </trkpt>
      <trkpt lat="49.05592" lon="7.78258">
        <ele>501.8</ele>
        <time>2022-05-01T08:53:29Z</time>
      </trkpt>
      <trkpt lat="49.05567" lon="7.78239">
        <ele>501.6</ele>
        <time>2022-05-01T08:53:33Z</time>
      </trkpt>
      <trkpt lat="49.05538" lon="7.78215">
        <ele>499.8</ele>
        <time>2022-05-01T08:53:37Z</time>
      </trkpt>
      <trkpt lat="49.05522" lon="7.78198">
        <ele>498</ele>
        <time>2022-05-01T08:53:39Z</time>
      </trkpt>
      <trkpt lat="49.05514" lon="7.7819">
        <ele>496.8</ele>
        <time>2022-05-01T08:53:40Z</time>
      </trkpt>
      <trkpt lat="49.05505" lon="7.78183">
        <ele>495.8</ele>
        <time>2022-05-01T08:53:41Z</time>
      </trkpt>
      <trkpt lat="49.05495" lon="7.78173">
        <ele>494.4</ele>
        <time>2022-05-01T08:53:42Z</time>
      </trkpt>
      <trkpt lat="49.05485" lon="7.78163">
        <ele>493.2</ele>
        <time>2022-05-01T08:53:43Z</time>
      </trkpt>
      <trkpt lat="49.05466" lon="7.78143">
        <ele>491.4</ele>
        <time>2022-05-01T08:53:45Z</time>
      </trkpt>
      <trkpt lat="49.05459" lon="7.78134">
        <ele>490.2</ele>
        <time>2022-05-01T08:53:46Z</time>
      </trkpt>
      <trkpt lat="49.05453" lon="7.78126">
        <ele>489.4</ele>
        <time>2022-05-01T08:53:47Z</time>
      </trkpt>
      <trkpt lat="49.05449" lon="7.78119">
        <ele>488.2</ele>
        <time>2022-05-01T08:53:48Z</time>
      </trkpt>
      <trkpt lat="49.05446" lon="7.78113">
        <ele>486.6</ele>
        <time>2022-05-01T08:53:49Z</time>
      </trkpt>
      <trkpt lat="49.05443" lon="7.78108">
        <ele>484.8</ele>
        <time>2022-05-01T08:53:50Z</time>
      </trkpt>
      <trkpt lat="49.0544" lon="7.78103">
        <ele>483.2</ele>
        <time>2022-05-01T08:53:51Z</time>
      </trkpt>
      <trkpt lat="49.05436" lon="7.78098">
        <ele>481.6</ele>
        <time>2022-05-01T08:53:52Z</time>
      </trkpt>
      <trkpt lat="49.05431" lon="7.78092">
        <ele>480</ele>
        <time>2022-05-01T08:53:53Z</time>
      </trkpt>
      <trkpt lat="49.05426" lon="7.78086">
        <ele>478.8</ele>
        <time>2022-05-01T08:53:54Z</time>
      </trkpt>
      <trkpt lat="49.05418" lon="7.78076">
        <ele>477.6</ele>
        <time>2022-05-01T08:53:56Z</time>
      </trkpt>
      <trkpt lat="49.05416" lon="7.78073">
        <ele>477.2</ele>
        <time>2022-05-01T08:53:57Z</time>
      </trkpt>
      <trkpt lat="49.05415" lon="7.78069">
        <ele>477.2</ele>
        <time>2022-05-01T08:53:58Z</time>
      </trkpt>
      <trkpt lat="49.05415" lon="7.78066">
        <ele>476.8</ele>
        <time>2022-05-01T08:53:59Z</time>
      </trkpt>
      <trkpt lat="49.05416" lon="7.78062">
        <ele>476.4</ele>
        <time>2022-05-01T08:54:00Z</time>
      </trkpt>
      <trkpt lat="49.05417" lon="7.78057">
        <ele>475.6</ele>
        <time>2022-05-01T08:54:01Z</time>
      </trkpt>
      <trkpt lat="49.05417" lon="7.78051">
        <ele>475.2</ele>
        <time>2022-05-01T08:54:02Z</time>
      </trkpt>
      <trkpt lat="49.05417" lon="7.78043">
        <ele>474.8</ele>
        <time>2022-05-01T08:54:03Z</time>
      </trkpt>
      <trkpt lat="49.05413" lon="7.78034">
        <ele>474.2</ele>
        <time>2022-05-01T08:54:04Z</time>
      </trkpt>
      <trkpt lat="49.05409" lon="7.78025">
        <ele>473</ele>
        <time>2022-05-01T08:54:05Z</time>
      </trkpt>
      <trkpt lat="49.05403" lon="7.78015">
        <ele>472.4</ele>
        <time>2022-05-01T08:54:06Z</time>
      </trkpt>
      <trkpt lat="49.05397" lon="7.78004">
        <ele>472.2</ele>
        <time>2022-05-01T08:54:07Z</time>
      </trkpt>
      <trkpt lat="49.05391" lon="7.77996">
        <ele>471.6</ele>
        <time>2022-05-01T08:54:08Z</time>
      </trkpt>
      <trkpt lat="49.05384" lon="7.77989">
        <ele>471.2</ele>
        <time>2022-05-01T08:54:09Z</time>
      </trkpt>
      <trkpt lat="49.05376" lon="7.77981">
        <ele>470</ele>
        <time>2022-05-01T08:54:10Z</time>
      </trkpt>
      <trkpt lat="49.05369" lon="7.77974">
        <ele>468.4</ele>
        <time>2022-05-01T08:54:11Z</time>
      </trkpt>
      <trkpt lat="49.0536" lon="7.77967">
        <ele>466.8</ele>
        <time>2022-05-01T08:54:12Z</time>
      </trkpt>
      <trkpt lat="49.05352" lon="7.77961">
        <ele>465.2</ele>
        <time>2022-05-01T08:54:13Z</time>
      </trkpt>
      <trkpt lat="49.05344" lon="7.77955">
        <ele>462.8</ele>
        <time>2022-05-01T08:54:14Z</time>
      </trkpt>
      <trkpt lat="49.05338" lon="7.77949">
        <ele>460.6</ele>
        <time>2022-05-01T08:54:15Z</time>
      </trkpt>
      <trkpt lat="49.05332" lon="7.77941">
        <ele>458.2</ele>
        <time>2022-05-01T08:54:16Z</time>
      </trkpt>
      <trkpt lat="49.05327" lon="7.77935">
        <ele>455.8</ele>
        <time>2022-05-01T08:54:17Z</time>
      </trkpt>
      <trkpt lat="49.05321" lon="7.77929">
        <ele>454.2</ele>
        <time>2022-05-01T08:54:18Z</time>
      </trkpt>
      <trkpt lat="49.05315" lon="7.77924">
        <ele>452.6</ele>
        <time>2022-05-01T08:54:19Z</time>
      </trkpt>
      <trkpt lat="49.05309" lon="7.77918">
        <ele>452.6</ele>
        <time>2022-05-01T08:54:20Z</time>
      </trkpt>
      <trkpt lat="49.05302" lon="7.77912">
        <ele>451</ele>
        <time>2022-05-01T08:54:21Z</time>
      </trkpt>
      <trkpt lat="49.05296" lon="7.77904">
        <ele>449.8</ele>
        <time>2022-05-01T08:54:22Z</time>
      </trkpt>
      <trkpt lat="49.05281" lon="7.77891">
        <ele>447.8</ele>
        <time>2022-05-01T08:54:24Z</time>
      </trkpt>
      <trkpt lat="49.05273" lon="7.77886">
        <ele>446.6</ele>
        <time>2022-05-01T08:54:25Z</time>
      </trkpt>
      <trkpt lat="49.05256" lon="7.77873">
        <ele>444.6</ele>
        <time>2022-05-01T08:54:27Z</time>
      </trkpt>
      <trkpt lat="49.05248" lon="7.77866">
        <ele>443.2</ele>
        <time>2022-05-01T08:54:28Z</time>
      </trkpt>
      <trkpt lat="49.0524" lon="7.77858">
        <ele>442</ele>
        <time>2022-05-01T08:54:29Z</time>
      </trkpt>
      <trkpt lat="49.05231" lon="7.77851">
        <ele>440.6</ele>
        <time>2022-05-01T08:54:30Z</time>
      </trkpt>
      <trkpt lat="49.05222" lon="7.77843">
        <ele>439</ele>
        <time>2022-05-01T08:54:31Z</time>
      </trkpt>
      <trkpt lat="49.05213" lon="7.77834">
        <ele>437.2</ele>
        <time>2022-05-01T08:54:32Z</time>
      </trkpt>
      <trkpt lat="49.05204" lon="7.77826">
        <ele>435.8</ele>
        <time>2022-05-01T08:54:33Z</time>
      </trkpt>
      <trkpt lat="49.05194" lon="7.77818">
        <ele>434.4</ele>
        <time>2022-05-01T08:54:34Z</time>
      </trkpt>
      <trkpt lat="49.05185" lon="7.77809">
        <ele>432.8</ele>
        <time>2022-05-01T08:54:35Z</time>
      </trkpt>
      <trkpt lat="49.05176" lon="7.77801">
        <ele>431.4</ele>
        <time>2022-05-01T08:54:36Z</time>
      </trkpt>
      <trkpt lat="49.05166" lon="7.77793">
        <ele>430.2</ele>
        <time>2022-05-01T08:54:37Z</time>
      </trkpt>
      <trkpt lat="49.05156" lon="7.77786">
        <ele>428.8</ele>
        <time>2022-05-01T08:54:38Z</time>
      </trkpt>
      <trkpt lat="49.05147" lon="7.77778">
        <ele>426.8</ele>
        <time>2022-05-01T08:54:39Z</time>
      </trkpt>
      <trkpt lat="49.05138" lon="7.77769">
        <ele>424.6</ele>
        <time>2022-05-01T08:54:40Z</time>
      </trkpt>
      <trkpt lat="49.0513" lon="7.7776">
        <ele>423</ele>
        <time>2022-05-01T08:54:41Z</time>
      </trkpt>
      <trkpt lat="49.05122" lon="7.77752">
        <ele>421.8</ele>
        <time>2022-05-01T08:54:42Z</time>
      </trkpt>
      <trkpt lat="49.05114" lon="7.77742">
        <ele>419.8</ele>
        <time>2022-05-01T08:54:43Z</time>
      </trkpt>
      <trkpt lat="49.05105" lon="7.77732">
        <ele>418.6</ele>
        <time>2022-05-01T08:54:44Z</time>
      </trkpt>
      <trkpt lat="49.05097" lon="7.77721">
        <ele>417</ele>
        <time>2022-05-01T08:54:45Z</time>
      </trkpt>
      <trkpt lat="49.05087" lon="7.77709">
        <ele>415.2</ele>
        <time>2022-05-01T08:54:46Z</time>
      </trkpt>
      <trkpt lat="49.05079" lon="7.77698">
        <ele>413.6</ele>
        <time>2022-05-01T08:54:47Z</time>
      </trkpt>
      <trkpt lat="49.05071" lon="7.77686">
        <ele>412</ele>
        <time>2022-05-01T08:54:48Z</time>
      </trkpt>
      <trkpt lat="49.05063" lon="7.77675">
        <ele>410.2</ele>
        <time>2022-05-01T08:54:49Z</time>
      </trkpt>
      <trkpt lat="49.05056" lon="7.77666">
        <ele>408.4</ele>
        <time>2022-05-01T08:54:50Z</time>
      </trkpt>
      <trkpt lat="49.05048" lon="7.77658">
        <ele>406.8</ele>
        <time>2022-05-01T08:54:51Z</time>
      </trkpt>
      <trkpt lat="49.05039" lon="7.77648">
        <ele>405</ele>
        <time>2022-05-01T08:54:52Z</time>
      </trkpt>
      <trkpt lat="49.05031" lon="7.77638">
        <ele>403.2</ele>
        <time>2022-05-01T08:54:53Z</time>
      </trkpt>
      <trkpt lat="49.05023" lon="7.77627">
        <ele>401</ele>
        <time>2022-05-01T08:54:54Z</time>
      </trkpt>
      <trkpt lat="49.05015" lon="7.77618">
        <ele>399.4</ele>
        <time>2022-05-01T08:54:55Z</time>
      </trkpt>
      <trkpt lat="49.05007" lon="7.77609">
        <ele>398.2</ele>
        <time>2022-05-01T08:54:56Z</time>
      </trkpt>
      <trkpt lat="49.04991" lon="7.77593">
        <ele>396.8</ele>
        <time>2022-05-01T08:54:58Z</time>
      </trkpt>
      <trkpt lat="49.04982" lon="7.77585">
        <ele>395.4</ele>
        <time>2022-05-01T08:54:59Z</time>
      </trkpt>
      <trkpt lat="49.04974" lon="7.77577">
        <ele>393.6</ele>
        <time>2022-05-01T08:55:00Z</time>
      </trkpt>
      <trkpt lat="49.04966" lon="7.77569">
        <ele>391.4</ele>
        <time>2022-05-01T08:55:01Z</time>
      </trkpt>
      <trkpt lat="49.04958" lon="7.77562">
        <ele>389.4</ele>
        <time>2022-05-01T08:55:02Z</time>
      </trkpt>
      <trkpt lat="49.0495" lon="7.77557">
        <ele>387.6</ele>
        <time>2022-05-01T08:55:03Z</time>
      </trkpt>
      <trkpt lat="49.04942" lon="7.77554">
        <ele>385.6</ele>
        <time>2022-05-01T08:55:04Z</time>
      </trkpt>
      <trkpt lat="49.04937" lon="7.7755">
        <ele>383.6</ele>
        <time>2022-05-01T08:55:05Z</time>
      </trkpt>
      <trkpt lat="49.04931" lon="7.77545">
        <ele>382</ele>
        <time>2022-05-01T08:55:06Z</time>
      </trkpt>
      <trkpt lat="49.04926" lon="7.7754">
        <ele>380.8</ele>
        <time>2022-05-01T08:55:07Z</time>
      </trkpt>
      <trkpt lat="49.0492" lon="7.77535">
        <ele>379.4</ele>
        <time>2022-05-01T08:55:08Z</time>
      </trkpt>
      <trkpt lat="49.04906" lon="7.77527">
        <ele>378.4</ele>
        <time>2022-05-01T08:55:10Z</time>
      </trkpt>
      <trkpt lat="49.04893" lon="7.77522">
        <ele>376.4</ele>
        <time>2022-05-01T08:55:12Z</time>
      </trkpt>
      <trkpt lat="49.04887" lon="7.7752">
        <ele>375.8</ele>
        <time>2022-05-01T08:55:13Z</time>
      </trkpt>
      <trkpt lat="49.04883" lon="7.77519">
        <ele>375</ele>
        <time>2022-05-01T08:55:14Z</time>
      </trkpt>
      <trkpt lat="49.04879" lon="7.77517">
        <ele>374.2</ele>
        <time>2022-05-01T08:55:15Z</time>
      </trkpt>
      <trkpt lat="49.04874" lon="7.77515">
        <ele>372.4</ele>
        <time>2022-05-01T08:55:16Z</time>
      </trkpt>
      <trkpt lat="49.04868" lon="7.77512">
        <ele>370.6</ele>
        <time>2022-05-01T08:55:17Z</time>
      </trkpt>
      <trkpt lat="49.04863" lon="7.77509">
        <ele>369.4</ele>
        <time>2022-05-01T08:55:18Z</time>
      </trkpt>
      <trkpt lat="49.04858" lon="7.77508">
        <ele>368.2</ele>
        <time>2022-05-01T08:55:19Z</time>
      </trkpt>
      <trkpt lat="49.04854" lon="7.77505">
        <ele>367.2</ele>
        <time>2022-05-01T08:55:20Z</time>
      </trkpt>
      <trkpt lat="49.04849" lon="7.77502">
        <ele>366.2</ele>
        <time>2022-05-01T08:55:21Z</time>
      </trkpt>
      <trkpt lat="49.04844" lon="7.77499">
        <ele>365.8</ele>
        <time>2022-05-01T08:55:22Z</time>
      </trkpt>
      <trkpt lat="49.04839" lon="7.77496">
        <ele>365</ele>
        <time>2022-05-01T08:55:23Z</time>
      </trkpt>
      <trkpt lat="49.04836" lon="7.77492">
        <ele>364.4</ele>
        <time>2022-05-01T08:55:24Z</time>
      </trkpt>
      <trkpt lat="49.04832" lon="7.77486">
        <ele>363.6</ele>
        <time>2022-05-01T08:55:25Z</time>
      </trkpt>
      <trkpt lat="49.04828" lon="7.7748">
        <ele>362.8</ele>
        <time>2022-05-01T08:55:26Z</time>
      </trkpt>
      <trkpt lat="49.0482" lon="7.77472">
        <ele>361.2</ele>
        <time>2022-05-01T08:55:28Z</time>
      </trkpt>
      <trkpt lat="49.04811" lon="7.77466">
        <ele>359.6</ele>
        <time>2022-05-01T08:55:30Z</time>
      </trkpt>
      <trkpt lat="49.04807" lon="7.77465">
        <ele>359</ele>
        <time>2022-05-01T08:55:31Z</time>
      </trkpt>
      <trkpt lat="49.04803" lon="7.77463">
        <ele>358.6</ele>
        <time>2022-05-01T08:55:32Z</time>
      </trkpt>
      <trkpt lat="49.04801" lon="7.7746">
        <ele>357.8</ele>
        <time>2022-05-01T08:55:33Z</time>
      </trkpt>
      <trkpt lat="49.04797" lon="7.77457">
        <ele>356.8</ele>
        <time>2022-05-01T08:55:34Z</time>
      </trkpt>
      <trkpt lat="49.04793" lon="7.77452">
        <ele>356</ele>
        <time>2022-05-01T08:55:35Z</time>
      </trkpt>
      <trkpt lat="49.04787" lon="7.77448">
        <ele>355.2</ele>
        <time>2022-05-01T08:55:36Z</time>
      </trkpt>
      <trkpt lat="49.04782" lon="7.77446">
        <ele>354.4</ele>
        <time>2022-05-01T08:55:37Z</time>
      </trkpt>
      <trkpt lat="49.04777" lon="7.77445">
        <ele>353.6</ele>
        <time>2022-05-01T08:55:38Z</time>
      </trkpt>
      <trkpt lat="49.04772" lon="7.77445">
        <ele>353.2</ele>
        <time>2022-05-01T08:55:39Z</time>
      </trkpt>
      <trkpt lat="49.04766" lon="7.77444">
        <ele>352.6</ele>
        <time>2022-05-01T08:55:40Z</time>
      </trkpt>
      <trkpt lat="49.04755" lon="7.77443">
        <ele>350.8</ele>
        <time>2022-05-01T08:55:42Z</time>
      </trkpt>
      <trkpt lat="49.0475" lon="7.77445">
        <ele>349.6</ele>
        <time>2022-05-01T08:55:43Z</time>
      </trkpt>
      <trkpt lat="49.04745" lon="7.77448">
        <ele>348.4</ele>
        <time>2022-05-01T08:55:44Z</time>
      </trkpt>
      <trkpt lat="49.04741" lon="7.77453">
        <ele>347.6</ele>
        <time>2022-05-01T08:55:45Z</time>
      </trkpt>
      <trkpt lat="49.04737" lon="7.7746">
        <ele>347</ele>
        <time>2022-05-01T08:55:46Z</time>
      </trkpt>
      <trkpt lat="49.04734" lon="7.77468">
        <ele>346.4</ele>
        <time>2022-05-01T08:55:47Z</time>
      </trkpt>
      <trkpt lat="49.0473" lon="7.77475">
        <ele>345.6</ele>
        <time>2022-05-01T08:55:48Z</time>
      </trkpt>
      <trkpt lat="49.04727" lon="7.7748">
        <ele>344.2</ele>
        <time>2022-05-01T08:55:49Z</time>
      </trkpt>
      <trkpt lat="49.04724" lon="7.77483">
        <ele>343.4</ele>
        <time>2022-05-01T08:55:50Z</time>
      </trkpt>
      <trkpt lat="49.04722" lon="7.77484">
        <ele>342.8</ele>
        <time>2022-05-01T08:55:51Z</time>
      </trkpt>
      <trkpt lat="49.04718" lon="7.77483">
        <ele>342.2</ele>
        <time>2022-05-01T08:55:52Z</time>
      </trkpt>
      <trkpt lat="49.04715" lon="7.77481">
        <ele>341.8</ele>
        <time>2022-05-01T08:55:53Z</time>
      </trkpt>
      <trkpt lat="49.04712" lon="7.77478">
        <ele>341.2</ele>
        <time>2022-05-01T08:55:54Z</time>
      </trkpt>
      <trkpt lat="49.04708" lon="7.7747">
        <ele>340.4</ele>
        <time>2022-05-01T08:55:56Z</time>
      </trkpt>
      <trkpt lat="49.04706" lon="7.77466">
        <ele>340.4</ele>
        <time>2022-05-01T08:55:57Z</time>
      </trkpt>
      <trkpt lat="49.04704" lon="7.77462">
        <ele>340.2</ele>
        <time>2022-05-01T08:55:58Z</time>
      </trkpt>
      <trkpt lat="49.04688" lon="7.77447">
        <ele>339.8</ele>
        <time>2022-05-01T08:56:03Z</time>
      </trkpt>
      <trkpt lat="49.04684" lon="7.77446">
        <ele>339.8</ele>
        <time>2022-05-01T08:56:04Z</time>
      </trkpt>
      <trkpt lat="49.0468" lon="7.77444">
        <ele>339.8</ele>
        <time>2022-05-01T08:56:05Z</time>
      </trkpt>
      <trkpt lat="49.04668" lon="7.77435">
        <ele>339.6</ele>
        <time>2022-05-01T08:56:08Z</time>
      </trkpt>
      <trkpt lat="49.04665" lon="7.7743">
        <ele>339.6</ele>
        <time>2022-05-01T08:56:09Z</time>
      </trkpt>
      <trkpt lat="49.04663" lon="7.77426">
        <ele>339.6</ele>
        <time>2022-05-01T08:56:10Z</time>
      </trkpt>
      <trkpt lat="49.0466" lon="7.77422">
        <ele>339.4</ele>
        <time>2022-05-01T08:56:11Z</time>
      </trkpt>
      <trkpt lat="49.04658" lon="7.77419">
        <ele>339.4</ele>
        <time>2022-05-01T08:56:12Z</time>
      </trkpt>
      <trkpt lat="49.04656" lon="7.77417">
        <ele>339.4</ele>
        <time>2022-05-01T08:56:13Z</time>
      </trkpt>
      <trkpt lat="49.04654" lon="7.77415">
        <ele>339.2</ele>
        <time>2022-05-01T08:56:14Z</time>
      </trkpt>
      <trkpt lat="49.04652" lon="7.77413">
        <ele>339</ele>
        <time>2022-05-01T08:56:15Z</time>
      </trkpt>
      <trkpt lat="49.04642" lon="7.77403">
        <ele>338.8</ele>
        <time>2022-05-01T08:56:18Z</time>
      </trkpt>
      <trkpt lat="49.04612" lon="7.77371">
        <ele>338.4</ele>
        <time>2022-05-01T08:56:26Z</time>
      </trkpt>
      <trkpt lat="49.04581" lon="7.77347">
        <ele>338.4</ele>
        <time>2022-05-01T08:56:34Z</time>
      </trkpt>
      <trkpt lat="49.04577" lon="7.77345">
        <ele>338.4</ele>
        <time>2022-05-01T08:56:35Z</time>
      </trkpt>
      <trkpt lat="49.04573" lon="7.77343">
        <ele>338.6</ele>
        <time>2022-05-01T08:56:36Z</time>
      </trkpt>
      <trkpt lat="49.0457" lon="7.77341">
        <ele>338.6</ele>
        <time>2022-05-01T08:56:37Z</time>
      </trkpt>
      <trkpt lat="49.04563" lon="7.77337">
        <ele>338.6</ele>
        <time>2022-05-01T08:56:39Z</time>
      </trkpt>
      <trkpt lat="49.04561" lon="7.77336">
        <ele>338.8</ele>
        <time>2022-05-01T08:56:40Z</time>
      </trkpt>
      <trkpt lat="49.04558" lon="7.77334">
        <ele>338.8</ele>
        <time>2022-05-01T08:56:41Z</time>
      </trkpt>
      <trkpt lat="49.04556" lon="7.77333">
        <ele>338.8</ele>
        <time>2022-05-01T08:56:42Z</time>
      </trkpt>
      <trkpt lat="49.04553" lon="7.77333">
        <ele>339</ele>
        <time>2022-05-01T08:56:43Z</time>
      </trkpt>
      <trkpt lat="49.04551" lon="7.77333">
        <ele>339</ele>
        <time>2022-05-01T08:56:44Z</time>
      </trkpt>
      <trkpt lat="49.04549" lon="7.77333">
        <ele>339.2</ele>
        <time>2022-05-01T08:56:45Z</time>
      </trkpt>
      <trkpt lat="49.04546" lon="7.77333">
        <ele>339.2</ele>
        <time>2022-05-01T08:56:46Z</time>
      </trkpt>
      <trkpt lat="49.04542" lon="7.77333">
        <ele>339.2</ele>
        <time>2022-05-01T08:56:47Z</time>
      </trkpt>
      <trkpt lat="49.04538" lon="7.77333">
        <ele>339.4</ele>
        <time>2022-05-01T08:56:48Z</time>
      </trkpt>
      <trkpt lat="49.04534" lon="7.77333">
        <ele>339.4</ele>
        <time>2022-05-01T08:56:49Z</time>
      </trkpt>
      <trkpt lat="49.04514" lon="7.77333">
        <ele>339.4</ele>
        <time>2022-05-01T08:56:53Z</time>
      </trkpt>
      <trkpt lat="49.04502" lon="7.77335">
        <ele>339.4</ele>
        <time>2022-05-01T08:56:55Z</time>
      </trkpt>
      <trkpt lat="49.04487" lon="7.77336">
        <ele>339.4</ele>
        <time>2022-05-01T08:56:57Z</time>
      </trkpt>
      <trkpt lat="49.04466" lon="7.77331">
        <ele>338</ele>
        <time>2022-05-01T08:57:00Z</time>
      </trkpt>
      <trkpt lat="49.04456" lon="7.77326">
        <ele>337.6</ele>
        <time>2022-05-01T08:57:01Z</time>
      </trkpt>
      <trkpt lat="49.04448" lon="7.77322">
        <ele>336.8</ele>
        <time>2022-05-01T08:57:02Z</time>
      </trkpt>
      <trkpt lat="49.04442" lon="7.77317">
        <ele>336.2</ele>
        <time>2022-05-01T08:57:03Z</time>
      </trkpt>
      <trkpt lat="49.04437" lon="7.77313">
        <ele>335.4</ele>
        <time>2022-05-01T08:57:04Z</time>
      </trkpt>
      <trkpt lat="49.0443" lon="7.7731">
        <ele>334.6</ele>
        <time>2022-05-01T08:57:05Z</time>
      </trkpt>
      <trkpt lat="49.04422" lon="7.77306">
        <ele>333.6</ele>
        <time>2022-05-01T08:57:06Z</time>
      </trkpt>
      <trkpt lat="49.04416" lon="7.77302">
        <ele>333</ele>
        <time>2022-05-01T08:57:07Z</time>
      </trkpt>
      <trkpt lat="49.04409" lon="7.77297">
        <ele>332.2</ele>
        <time>2022-05-01T08:57:08Z</time>
      </trkpt>
      <trkpt lat="49.04395" lon="7.7729">
        <ele>331.2</ele>
        <time>2022-05-01T08:57:10Z</time>
      </trkpt>
      <trkpt lat="49.04389" lon="7.77288">
        <ele>330.8</ele>
        <time>2022-05-01T08:57:11Z</time>
      </trkpt>
      <trkpt lat="49.04384" lon="7.77288">
        <ele>330.4</ele>
        <time>2022-05-01T08:57:12Z</time>
      </trkpt>
      <trkpt lat="49.04378" lon="7.77289">
        <ele>329.6</ele>
        <time>2022-05-01T08:57:13Z</time>
      </trkpt>
      <trkpt lat="49.04372" lon="7.7729">
        <ele>328.6</ele>
        <time>2022-05-01T08:57:14Z</time>
      </trkpt>
      <trkpt lat="49.04366" lon="7.77289">
        <ele>327.6</ele>
        <time>2022-05-01T08:57:15Z</time>
      </trkpt>
      <trkpt lat="49.04359" lon="7.77287">
        <ele>326.2</ele>
        <time>2022-05-01T08:57:16Z</time>
      </trkpt>
      <trkpt lat="49.04347" lon="7.77281">
        <ele>324.2</ele>
        <time>2022-05-01T08:57:18Z</time>
      </trkpt>
      <trkpt lat="49.04342" lon="7.77279">
        <ele>323.4</ele>
        <time>2022-05-01T08:57:19Z</time>
      </trkpt>
      <trkpt lat="49.04336" lon="7.77277">
        <ele>322.4</ele>
        <time>2022-05-01T08:57:20Z</time>
      </trkpt>
      <trkpt lat="49.04331" lon="7.77273">
        <ele>321.4</ele>
        <time>2022-05-01T08:57:21Z</time>
      </trkpt>
      <trkpt lat="49.04326" lon="7.77267">
        <ele>320.4</ele>
        <time>2022-05-01T08:57:22Z</time>
      </trkpt>
      <trkpt lat="49.04321" lon="7.77262">
        <ele>319.6</ele>
        <time>2022-05-01T08:57:23Z</time>
      </trkpt>
      <trkpt lat="49.04315" lon="7.77258">
        <ele>318.6</ele>
        <time>2022-05-01T08:57:24Z</time>
      </trkpt>
      <trkpt lat="49.04309" lon="7.77252">
        <ele>317.6</ele>
        <time>2022-05-01T08:57:25Z</time>
      </trkpt>
      <trkpt lat="49.04303" lon="7.77246">
        <ele>317</ele>
        <time>2022-05-01T08:57:26Z</time>
      </trkpt>
      <trkpt lat="49.04291" lon="7.77232">
        <ele>315.6</ele>
        <time>2022-05-01T08:57:28Z</time>
      </trkpt>
      <trkpt lat="49.04279" lon="7.77219">
        <ele>314.2</ele>
        <time>2022-05-01T08:57:30Z</time>
      </trkpt>
      <trkpt lat="49.04275" lon="7.77213">
        <ele>313.2</ele>
        <time>2022-05-01T08:57:31Z</time>
      </trkpt>
      <trkpt lat="49.04271" lon="7.77207">
        <ele>312</ele>
        <time>2022-05-01T08:57:32Z</time>
      </trkpt>
      <trkpt lat="49.04266" lon="7.77201">
        <ele>310.8</ele>
        <time>2022-05-01T08:57:33Z</time>
      </trkpt>
      <trkpt lat="49.04261" lon="7.77194">
        <ele>309.8</ele>
        <time>2022-05-01T08:57:34Z</time>
      </trkpt>
      <trkpt lat="49.04251" lon="7.77178">
        <ele>308.4</ele>
        <time>2022-05-01T08:57:36Z</time>
      </trkpt>
      <trkpt lat="49.04245" lon="7.77171">
        <ele>306.8</ele>
        <time>2022-05-01T08:57:37Z</time>
      </trkpt>
      <trkpt lat="49.04241" lon="7.77164">
        <ele>305.6</ele>
        <time>2022-05-01T08:57:38Z</time>
      </trkpt>
      <trkpt lat="49.04235" lon="7.77146">
        <ele>303.8</ele>
        <time>2022-05-01T08:57:40Z</time>
      </trkpt>
      <trkpt lat="49.04233" lon="7.77135">
        <ele>302.8</ele>
        <time>2022-05-01T08:57:41Z</time>
      </trkpt>
      <trkpt lat="49.04231" lon="7.77124">
        <ele>302.2</ele>
        <time>2022-05-01T08:57:42Z</time>
      </trkpt>
      <trkpt lat="49.04228" lon="7.77114">
        <ele>301.2</ele>
        <time>2022-05-01T08:57:43Z</time>
      </trkpt>
      <trkpt lat="49.0422" lon="7.77088">
        <ele>300.2</ele>
        <time>2022-05-01T08:57:45Z</time>
      </trkpt>
      <trkpt lat="49.04211" lon="7.77045">
        <ele>298.4</ele>
        <time>2022-05-01T08:57:48Z</time>
      </trkpt>
      <trkpt lat="49.04208" lon="7.77032">
        <ele>297.2</ele>
        <time>2022-05-01T08:57:49Z</time>
      </trkpt>
      <trkpt lat="49.04205" lon="7.77019">
        <ele>295.4</ele>
        <time>2022-05-01T08:57:50Z</time>
      </trkpt>
      <trkpt lat="49.04202" lon="7.77008">
        <ele>293.6</ele>
        <time>2022-05-01T08:57:51Z</time>
      </trkpt>
      <trkpt lat="49.04199" lon="7.77">
        <ele>291.2</ele>
        <time>2022-05-01T08:57:52Z</time>
      </trkpt>
      <trkpt lat="49.04198" lon="7.76992">
        <ele>288.4</ele>
        <time>2022-05-01T08:57:53Z</time>
      </trkpt>
      <trkpt lat="49.04196" lon="7.76985">
        <ele>285</ele>
        <time>2022-05-01T08:57:54Z</time>
      </trkpt>
      <trkpt lat="49.04195" lon="7.76976">
        <ele>282</ele>
        <time>2022-05-01T08:57:55Z</time>
      </trkpt>
      <trkpt lat="49.04192" lon="7.76968">
        <ele>280</ele>
        <time>2022-05-01T08:57:56Z</time>
      </trkpt>
      <trkpt lat="49.04188" lon="7.76958">
        <ele>277.6</ele>
        <time>2022-05-01T08:57:57Z</time>
      </trkpt>
      <trkpt lat="49.04183" lon="7.76947">
        <ele>275.4</ele>
        <time>2022-05-01T08:57:58Z</time>
      </trkpt>
      <trkpt lat="49.04176" lon="7.76935">
        <ele>273.6</ele>
        <time>2022-05-01T08:57:59Z</time>
      </trkpt>
      <trkpt lat="49.0417" lon="7.76921">
        <ele>272.4</ele>
        <time>2022-05-01T08:58:00Z</time>
      </trkpt>
      <trkpt lat="49.04165" lon="7.76909">
        <ele>271.2</ele>
        <time>2022-05-01T08:58:01Z</time>
      </trkpt>
      <trkpt lat="49.0416" lon="7.76897">
        <ele>270.4</ele>
        <time>2022-05-01T08:58:02Z</time>
      </trkpt>
      <trkpt lat="49.04153" lon="7.76883">
        <ele>269</ele>
        <time>2022-05-01T08:58:03Z</time>
      </trkpt>
      <trkpt lat="49.04147" lon="7.7687">
        <ele>267.2</ele>
        <time>2022-05-01T08:58:04Z</time>
      </trkpt>
      <trkpt lat="49.04142" lon="7.76856">
        <ele>265.4</ele>
        <time>2022-05-01T08:58:05Z</time>
      </trkpt>
      <trkpt lat="49.04135" lon="7.76842">
        <ele>263.4</ele>
        <time>2022-05-01T08:58:06Z</time>
      </trkpt>
      <trkpt lat="49.04129" lon="7.76829">
        <ele>261.4</ele>
        <time>2022-05-01T08:58:07Z</time>
      </trkpt>
      <trkpt lat="49.04124" lon="7.76819">
        <ele>259.4</ele>
        <time>2022-05-01T08:58:08Z</time>
      </trkpt>
      <trkpt lat="49.04118" lon="7.76802">
        <ele>258.2</ele>
        <time>2022-05-01T08:58:09Z</time>
      </trkpt>
      <trkpt lat="49.04114" lon="7.76788">
        <ele>256.4</ele>
        <time>2022-05-01T08:58:10Z</time>
      </trkpt>
      <trkpt lat="49.04109" lon="7.76773">
        <ele>254.2</ele>
        <time>2022-05-01T08:58:11Z</time>
      </trkpt>
      <trkpt lat="49.04103" lon="7.76754">
        <ele>252.2</ele>
        <time>2022-05-01T08:58:12Z</time>
      </trkpt>
      <trkpt lat="49.04095" lon="7.76737">
        <ele>250.8</ele>
        <time>2022-05-01T08:58:13Z</time>
      </trkpt>
      <trkpt lat="49.04087" lon="7.76723">
        <ele>249.2</ele>
        <time>2022-05-01T08:58:14Z</time>
      </trkpt>
      <trkpt lat="49.0408" lon="7.7671">
        <ele>247.6</ele>
        <time>2022-05-01T08:58:15Z</time>
      </trkpt>
      <trkpt lat="49.04066" lon="7.76686">
        <ele>245</ele>
        <time>2022-05-01T08:58:17Z</time>
      </trkpt>
      <trkpt lat="49.04057" lon="7.76676">
        <ele>243</ele>
        <time>2022-05-01T08:58:18Z</time>
      </trkpt>
      <trkpt lat="49.04048" lon="7.76664">
        <ele>241</ele>
        <time>2022-05-01T08:58:19Z</time>
      </trkpt>
      <trkpt lat="49.04036" lon="7.76653">
        <ele>239</ele>
        <time>2022-05-01T08:58:20Z</time>
      </trkpt>
      <trkpt lat="49.04025" lon="7.76643">
        <ele>237.2</ele>
        <time>2022-05-01T08:58:21Z</time>
      </trkpt>
      <trkpt lat="49.04013" lon="7.76631">
        <ele>236</ele>
        <time>2022-05-01T08:58:22Z</time>
      </trkpt>
      <trkpt lat="49.04002" lon="7.76621">
        <ele>234.8</ele>
        <time>2022-05-01T08:58:23Z</time>
      </trkpt>
      <trkpt lat="49.03984" lon="7.76608">
        <ele>233.8</ele>
        <time>2022-05-01T08:58:25Z</time>
      </trkpt>
      <trkpt lat="49.03977" lon="7.76607">
        <ele>232.2</ele>
        <time>2022-05-01T08:58:26Z</time>
      </trkpt>
      <trkpt lat="49.03969" lon="7.76607">
        <ele>230.6</ele>
        <time>2022-05-01T08:58:27Z</time>
      </trkpt>
      <trkpt lat="49.03962" lon="7.76608">
        <ele>228.4</ele>
        <time>2022-05-01T08:58:28Z</time>
      </trkpt>
      <trkpt lat="49.03954" lon="7.76611">
        <ele>225.8</ele>
        <time>2022-05-01T08:58:29Z</time>
      </trkpt>
      <trkpt lat="49.03946" lon="7.76615">
        <ele>223.8</ele>
        <time>2022-05-01T08:58:30Z</time>
      </trkpt>
      <trkpt lat="49.03939" lon="7.76618">
        <ele>222</ele>
        <time>2022-05-01T08:58:31Z</time>
      </trkpt>
      <trkpt lat="49.03931" lon="7.76621">
        <ele>220.8</ele>
        <time>2022-05-01T08:58:32Z</time>
      </trkpt>
      <trkpt lat="49.03925" lon="7.7662">
        <ele>220.2</ele>
        <time>2022-05-01T08:58:33Z</time>
      </trkpt>
      <trkpt lat="49.03921" lon="7.76618">
        <ele>220</ele>
        <time>2022-05-01T08:58:34Z</time>
      </trkpt>
      <trkpt lat="49.03917" lon="7.76616">
        <ele>219.4</ele>
        <time>2022-05-01T08:58:35Z</time>
      </trkpt>
      <trkpt lat="49.03912" lon="7.76612">
        <ele>218.6</ele>
        <time>2022-05-01T08:58:36Z</time>
      </trkpt>
      <trkpt lat="49.03908" lon="7.76609">
        <ele>217.6</ele>
        <time>2022-05-01T08:58:37Z</time>
      </trkpt>
      <trkpt lat="49.03905" lon="7.76606">
        <ele>216.8</ele>
        <time>2022-05-01T08:58:38Z</time>
      </trkpt>
      <trkpt lat="49.03901" lon="7.76602">
        <ele>215.4</ele>
        <time>2022-05-01T08:58:39Z</time>
      </trkpt>
      <trkpt lat="49.03898" lon="7.76599">
        <ele>214.4</ele>
        <time>2022-05-01T08:58:40Z</time>
      </trkpt>
      <trkpt lat="49.03897" lon="7.76597">
        <ele>213.4</ele>
        <time>2022-05-01T08:58:41Z</time>
      </trkpt>
      <trkpt lat="49.03896" lon="7.76596">
        <ele>212.4</ele>
        <time>2022-05-01T08:58:42Z</time>
      </trkpt>
      <trkpt lat="49.03896" lon="7.76596">
        <ele>211.6</ele>
        <time>2022-05-01T08:58:43Z</time>
      </trkpt>
      <trkpt lat="49.03897" lon="7.76594">
        <ele>207.6</ele>
        <time>2022-05-01T08:59:50Z</time>
      </trkpt>
      <trkpt lat="49.03896" lon="7.76586">
        <ele>207.6</ele>
        <time>2022-05-01T08:59:52Z</time>
      </trkpt>
      <trkpt lat="49.03895" lon="7.76582">
        <ele>207.6</ele>
        <time>2022-05-01T08:59:53Z</time>
      </trkpt>
      <trkpt lat="49.0389" lon="7.76571">
        <ele>207.6</ele>
        <time>2022-05-01T08:59:55Z</time>
      </trkpt>
      <trkpt lat="49.03887" lon="7.76565">
        <ele>207.6</ele>
        <time>2022-05-01T08:59:56Z</time>
      </trkpt>
      <trkpt lat="49.03884" lon="7.76558">
        <ele>207.4</ele>
        <time>2022-05-01T08:59:57Z</time>
      </trkpt>
      <trkpt lat="49.03869" lon="7.76526">
        <ele>206.8</ele>
        <time>2022-05-01T09:00:01Z</time>
      </trkpt>
      <trkpt lat="49.03861" lon="7.76513">
        <ele>206.4</ele>
        <time>2022-05-01T09:00:03Z</time>
      </trkpt>
      <trkpt lat="49.03857" lon="7.76507">
        <ele>205.8</ele>
        <time>2022-05-01T09:00:04Z</time>
      </trkpt>
      <trkpt lat="49.03854" lon="7.76502">
        <ele>205.4</ele>
        <time>2022-05-01T09:00:05Z</time>
      </trkpt>
      <trkpt lat="49.03851" lon="7.76497">
        <ele>205</ele>
        <time>2022-05-01T09:00:06Z</time>
      </trkpt>
      <trkpt lat="49.0385" lon="7.7649">
        <ele>204.8</ele>
        <time>2022-05-01T09:00:07Z</time>
      </trkpt>
      <trkpt lat="49.0385" lon="7.76484">
        <ele>204.8</ele>
        <time>2022-05-01T09:00:08Z</time>
      </trkpt>
      <trkpt lat="49.03851" lon="7.76479">
        <ele>204.6</ele>
        <time>2022-05-01T09:00:09Z</time>
      </trkpt>
      <trkpt lat="49.03851" lon="7.76475">
        <ele>204.6</ele>
        <time>2022-05-01T09:00:10Z</time>
      </trkpt>
      <trkpt lat="49.03853" lon="7.76469">
        <ele>204.6</ele>
        <time>2022-05-01T09:00:11Z</time>
      </trkpt>
      <trkpt lat="49.03854" lon="7.76465">
        <ele>204.6</ele>
        <time>2022-05-01T09:00:12Z</time>
      </trkpt>
      <trkpt lat="49.03856" lon="7.76461">
        <ele>204.6</ele>
        <time>2022-05-01T09:00:13Z</time>
      </trkpt>
      <trkpt lat="49.03859" lon="7.76458">
        <ele>204.6</ele>
        <time>2022-05-01T09:00:14Z</time>
      </trkpt>
      <trkpt lat="49.03864" lon="7.76446">
        <ele>205</ele>
        <time>2022-05-01T09:00:17Z</time>
      </trkpt>
      <trkpt lat="49.03866" lon="7.76442">
        <ele>205.6</ele>
        <time>2022-05-01T09:00:18Z</time>
      </trkpt>
      <trkpt lat="49.03867" lon="7.76439">
        <ele>206.2</ele>
        <time>2022-05-01T09:00:19Z</time>
      </trkpt>
      <trkpt lat="49.03869" lon="7.76435">
        <ele>206.6</ele>
        <time>2022-05-01T09:00:20Z</time>
      </trkpt>
      <trkpt lat="49.03871" lon="7.7643">
        <ele>207</ele>
        <time>2022-05-01T09:00:21Z</time>
      </trkpt>
      <trkpt lat="49.03873" lon="7.76426">
        <ele>207.2</ele>
        <time>2022-05-01T09:00:22Z</time>
      </trkpt>
      <trkpt lat="49.03875" lon="7.76423">
        <ele>207.6</ele>
        <time>2022-05-01T09:00:23Z</time>
      </trkpt>
      <trkpt lat="49.03876" lon="7.7642">
        <ele>207.8</ele>
        <time>2022-05-01T09:00:24Z</time>
      </trkpt>
      <trkpt lat="49.03878" lon="7.76416">
        <ele>208</ele>
        <time>2022-05-01T09:00:25Z</time>
      </trkpt>
      <trkpt lat="49.03881" lon="7.76412">
        <ele>208.2</ele>
        <time>2022-05-01T09:00:26Z</time>
      </trkpt>
      <trkpt lat="49.03882" lon="7.76409">
        <ele>208.6</ele>
        <time>2022-05-01T09:00:27Z</time>
      </trkpt>
      <trkpt lat="49.03885" lon="7.76406">
        <ele>208.8</ele>
        <time>2022-05-01T09:00:28Z</time>
      </trkpt>
      <trkpt lat="49.03887" lon="7.76403">
        <ele>209</ele>
        <time>2022-05-01T09:00:29Z</time>
      </trkpt>
      <trkpt lat="49.03888" lon="7.76399">
        <ele>209.2</ele>
        <time>2022-05-01T09:00:30Z</time>
      </trkpt>
      <trkpt lat="49.0389" lon="7.76396">
        <ele>209.6</ele>
        <time>2022-05-01T09:00:31Z</time>
      </trkpt>
      <trkpt lat="49.03892" lon="7.76393">
        <ele>209.8</ele>
        <time>2022-05-01T09:00:32Z</time>
      </trkpt>
      <trkpt lat="49.03893" lon="7.76389">
        <ele>210.2</ele>
        <time>2022-05-01T09:00:33Z</time>
      </trkpt>
      <trkpt lat="49.03894" lon="7.76386">
        <ele>210.4</ele>
        <time>2022-05-01T09:00:34Z</time>
      </trkpt>
      <trkpt lat="49.03896" lon="7.76382">
        <ele>210.6</ele>
        <time>2022-05-01T09:00:35Z</time>
      </trkpt>
      <trkpt lat="49.03898" lon="7.76379">
        <ele>210.8</ele>
        <time>2022-05-01T09:00:36Z</time>
      </trkpt>
      <trkpt lat="49.03899" lon="7.76376">
        <ele>211</ele>
        <time>2022-05-01T09:00:37Z</time>
      </trkpt>
      <trkpt lat="49.03901" lon="7.76373">
        <ele>211.2</ele>
        <time>2022-05-01T09:00:38Z</time>
      </trkpt>
      <trkpt lat="49.03903" lon="7.7637">
        <ele>211.4</ele>
        <time>2022-05-01T09:00:39Z</time>
      </trkpt>
      <trkpt lat="49.03905" lon="7.76366">
        <ele>211.4</ele>
        <time>2022-05-01T09:00:40Z</time>
      </trkpt>
      <trkpt lat="49.03906" lon="7.76363">
        <ele>211.8</ele>
        <time>2022-05-01T09:00:41Z</time>
      </trkpt>
      <trkpt lat="49.03907" lon="7.76361">
        <ele>212</ele>
        <time>2022-05-01T09:00:42Z</time>
      </trkpt>
      <trkpt lat="49.03908" lon="7.76357">
        <ele>212.4</ele>
        <time>2022-05-01T09:00:43Z</time>
      </trkpt>
      <trkpt lat="49.03909" lon="7.76355">
        <ele>212.6</ele>
        <time>2022-05-01T09:00:44Z</time>
      </trkpt>
      <trkpt lat="49.0391" lon="7.76352">
        <ele>213</ele>
        <time>2022-05-01T09:00:45Z</time>
      </trkpt>
      <trkpt lat="49.03912" lon="7.76348">
        <ele>213.2</ele>
        <time>2022-05-01T09:00:46Z</time>
      </trkpt>
      <trkpt lat="49.03914" lon="7.76346">
        <ele>213.4</ele>
        <time>2022-05-01T09:00:47Z</time>
      </trkpt>
      <trkpt lat="49.03915" lon="7.76342">
        <ele>213.6</ele>
        <time>2022-05-01T09:00:48Z</time>
      </trkpt>
      <trkpt lat="49.03917" lon="7.76339">
        <ele>213.8</ele>
        <time>2022-05-01T09:00:49Z</time>
      </trkpt>
      <trkpt lat="49.03919" lon="7.76336">
        <ele>213.8</ele>
        <time>2022-05-01T09:00:50Z</time>
      </trkpt>
      <trkpt lat="49.0392" lon="7.76333">
        <ele>214.2</ele>
        <time>2022-05-01T09:00:51Z</time>
      </trkpt>
      <trkpt lat="49.03922" lon="7.76331">
        <ele>214.4</ele>
        <time>2022-05-01T09:00:52Z</time>
      </trkpt>
      <trkpt lat="49.03923" lon="7.76328">
        <ele>214.4</ele>
        <time>2022-05-01T09:00:53Z</time>
      </trkpt>
      <trkpt lat="49.03925" lon="7.76325">
        <ele>214.6</ele>
        <time>2022-05-01T09:00:54Z</time>
      </trkpt>
      <trkpt lat="49.03927" lon="7.76322">
        <ele>214.8</ele>
        <time>2022-05-01T09:00:55Z</time>
      </trkpt>
      <trkpt lat="49.03928" lon="7.7632">
        <ele>215</ele>
        <time>2022-05-01T09:00:56Z</time>
      </trkpt>
      <trkpt lat="49.0393" lon="7.76317">
        <ele>215.2</ele>
        <time>2022-05-01T09:00:57Z</time>
      </trkpt>
      <trkpt lat="49.03932" lon="7.76315">
        <ele>215.6</ele>
        <time>2022-05-01T09:00:58Z</time>
      </trkpt>
      <trkpt lat="49.03933" lon="7.76312">
        <ele>215.8</ele>
        <time>2022-05-01T09:00:59Z</time>
      </trkpt>
      <trkpt lat="49.03935" lon="7.76309">
        <ele>216</ele>
        <time>2022-05-01T09:01:00Z</time>
      </trkpt>
      <trkpt lat="49.03936" lon="7.76306">
        <ele>216.4</ele>
        <time>2022-05-01T09:01:01Z</time>
      </trkpt>
      <trkpt lat="49.03937" lon="7.76303">
        <ele>216.8</ele>
        <time>2022-05-01T09:01:02Z</time>
      </trkpt>
      <trkpt lat="49.03939" lon="7.76301">
        <ele>217</ele>
        <time>2022-05-01T09:01:03Z</time>
      </trkpt>
      <trkpt lat="49.0394" lon="7.76298">
        <ele>217.2</ele>
        <time>2022-05-01T09:01:04Z</time>
      </trkpt>
      <trkpt lat="49.03941" lon="7.76296">
        <ele>217.4</ele>
        <time>2022-05-01T09:01:05Z</time>
      </trkpt>
      <trkpt lat="49.03943" lon="7.76293">
        <ele>217.6</ele>
        <time>2022-05-01T09:01:06Z</time>
      </trkpt>
      <trkpt lat="49.03944" lon="7.7629">
        <ele>218</ele>
        <time>2022-05-01T09:01:07Z</time>
      </trkpt>
      <trkpt lat="49.03945" lon="7.76287">
        <ele>218.2</ele>
        <time>2022-05-01T09:01:08Z</time>
      </trkpt>
      <trkpt lat="49.03946" lon="7.76285">
        <ele>218.4</ele>
        <time>2022-05-01T09:01:09Z</time>
      </trkpt>
      <trkpt lat="49.03947" lon="7.76282">
        <ele>218.6</ele>
        <time>2022-05-01T09:01:10Z</time>
      </trkpt>
      <trkpt lat="49.03948" lon="7.76279">
        <ele>218.8</ele>
        <time>2022-05-01T09:01:11Z</time>
      </trkpt>
      <trkpt lat="49.03948" lon="7.76275">
        <ele>219</ele>
        <time>2022-05-01T09:01:12Z</time>
      </trkpt>
      <trkpt lat="49.03949" lon="7.76272">
        <ele>219.4</ele>
        <time>2022-05-01T09:01:13Z</time>
      </trkpt>
      <trkpt lat="49.0395" lon="7.76269">
        <ele>219.6</ele>
        <time>2022-05-01T09:01:14Z</time>
      </trkpt>
      <trkpt lat="49.0395" lon="7.76266">
        <ele>219.8</ele>
        <time>2022-05-01T09:01:15Z</time>
      </trkpt>
      <trkpt lat="49.0395" lon="7.76263">
        <ele>220</ele>
        <time>2022-05-01T09:01:16Z</time>
      </trkpt>
      <trkpt lat="49.0395" lon="7.7626">
        <ele>220.2</ele>
        <time>2022-05-01T09:01:17Z</time>
      </trkpt>
      <trkpt lat="49.03949" lon="7.76258">
        <ele>220.4</ele>
        <time>2022-05-01T09:01:18Z</time>
      </trkpt>
      <trkpt lat="49.03948" lon="7.76255">
        <ele>220.8</ele>
        <time>2022-05-01T09:01:19Z</time>
      </trkpt>
      <trkpt lat="49.03948" lon="7.76253">
        <ele>221</ele>
        <time>2022-05-01T09:01:20Z</time>
      </trkpt>
      <trkpt lat="49.03949" lon="7.7625">
        <ele>221</ele>
        <time>2022-05-01T09:01:21Z</time>
      </trkpt>
      <trkpt lat="49.03949" lon="7.76248">
        <ele>221.2</ele>
        <time>2022-05-01T09:01:22Z</time>
      </trkpt>
      <trkpt lat="49.03948" lon="7.76245">
        <ele>221.4</ele>
        <time>2022-05-01T09:01:23Z</time>
      </trkpt>
      <trkpt lat="49.03948" lon="7.76243">
        <ele>221.6</ele>
        <time>2022-05-01T09:01:24Z</time>
      </trkpt>
      <trkpt lat="49.03949" lon="7.7624">
        <ele>221.8</ele>
        <time>2022-05-01T09:01:25Z</time>
      </trkpt>
      <trkpt lat="49.03949" lon="7.76238">
        <ele>222</ele>
        <time>2022-05-01T09:01:26Z</time>
      </trkpt>
      <trkpt lat="49.0395" lon="7.76234">
        <ele>222.4</ele>
        <time>2022-05-01T09:01:27Z</time>
      </trkpt>
      <trkpt lat="49.0395" lon="7.76232">
        <ele>222.4</ele>
        <time>2022-05-01T09:01:28Z</time>
      </trkpt>
      <trkpt lat="49.03949" lon="7.76228">
        <ele>222.8</ele>
        <time>2022-05-01T09:01:29Z</time>
      </trkpt>
      <trkpt lat="49.0395" lon="7.76225">
        <ele>223</ele>
        <time>2022-05-01T09:01:30Z</time>
      </trkpt>
      <trkpt lat="49.03951" lon="7.76223">
        <ele>223.2</ele>
        <time>2022-05-01T09:01:31Z</time>
      </trkpt>
      <trkpt lat="49.03951" lon="7.76222">
        <ele>223.4</ele>
        <time>2022-05-01T09:01:32Z</time>
      </trkpt>
      <trkpt lat="49.03952" lon="7.76222">
        <ele>223.4</ele>
        <time>2022-05-01T09:01:33Z</time>
      </trkpt>
      <trkpt lat="49.03952" lon="7.76222">
        <ele>223.6</ele>
        <time>2022-05-01T09:01:34Z</time>
      </trkpt>
      <trkpt lat="49.03952" lon="7.76221">
        <ele>223.8</ele>
        <time>2022-05-01T09:01:35Z</time>
      </trkpt>
      <trkpt lat="49.03953" lon="7.76222">
        <ele>223.8</ele>
        <time>2022-05-01T09:01:36Z</time>
      </trkpt>
      <trkpt lat="49.03954" lon="7.76222">
        <ele>224</ele>
        <time>2022-05-01T09:01:37Z</time>
      </trkpt>
      <trkpt lat="49.03955" lon="7.76223">
        <ele>224</ele>
        <time>2022-05-01T09:01:38Z</time>
      </trkpt>
      <trkpt lat="49.03957" lon="7.76223">
        <ele>224</ele>
        <time>2022-05-01T09:01:39Z</time>
      </trkpt>
      <trkpt lat="49.03958" lon="7.76223">
        <ele>224.2</ele>
        <time>2022-05-01T09:01:40Z</time>
      </trkpt>
      <trkpt lat="49.0396" lon="7.76224">
        <ele>224.4</ele>
        <time>2022-05-01T09:01:41Z</time>
      </trkpt>
      <trkpt lat="49.03961" lon="7.76225">
        <ele>224.6</ele>
        <time>2022-05-01T09:01:42Z</time>
      </trkpt>
      <trkpt lat="49.03963" lon="7.76226">
        <ele>224.8</ele>
        <time>2022-05-01T09:01:43Z</time>
      </trkpt>
      <trkpt lat="49.03965" lon="7.76228">
        <ele>225</ele>
        <time>2022-05-01T09:01:44Z</time>
      </trkpt>
      <trkpt lat="49.03966" lon="7.76229">
        <ele>225.4</ele>
        <time>2022-05-01T09:01:45Z</time>
      </trkpt>
      <trkpt lat="49.03967" lon="7.7623">
        <ele>225.6</ele>
        <time>2022-05-01T09:01:46Z</time>
      </trkpt>
      <trkpt lat="49.03969" lon="7.76233">
        <ele>225.8</ele>
        <time>2022-05-01T09:01:47Z</time>
      </trkpt>
      <trkpt lat="49.0397" lon="7.76236">
        <ele>226.2</ele>
        <time>2022-05-01T09:01:48Z</time>
      </trkpt>
      <trkpt lat="49.03972" lon="7.76239">
        <ele>226.4</ele>
        <time>2022-05-01T09:01:49Z</time>
      </trkpt>
      <trkpt lat="49.03973" lon="7.76241">
        <ele>226.6</ele>
        <time>2022-05-01T09:01:50Z</time>
      </trkpt>
      <trkpt lat="49.03974" lon="7.76242">
        <ele>226.8</ele>
        <time>2022-05-01T09:01:51Z</time>
      </trkpt>
      <trkpt lat="49.03976" lon="7.76244">
        <ele>227</ele>
        <time>2022-05-01T09:01:52Z</time>
      </trkpt>
      <trkpt lat="49.03978" lon="7.76245">
        <ele>227.2</ele>
        <time>2022-05-01T09:01:53Z</time>
      </trkpt>
      <trkpt lat="49.03981" lon="7.76245">
        <ele>227.4</ele>
        <time>2022-05-01T09:01:54Z</time>
      </trkpt>
      <trkpt lat="49.03983" lon="7.76245">
        <ele>227.6</ele>
        <time>2022-05-01T09:01:55Z</time>
      </trkpt>
      <trkpt lat="49.03986" lon="7.76244">
        <ele>227.8</ele>
        <time>2022-05-01T09:01:56Z</time>
      </trkpt>
      <trkpt lat="49.03988" lon="7.76243">
        <ele>228</ele>
        <time>2022-05-01T09:01:57Z</time>
      </trkpt>
      <trkpt lat="49.03991" lon="7.76243">
        <ele>228.4</ele>
        <time>2022-05-01T09:01:58Z</time>
      </trkpt>
      <trkpt lat="49.03994" lon="7.76242">
        <ele>228.6</ele>
        <time>2022-05-01T09:01:59Z</time>
      </trkpt>
      <trkpt lat="49.03997" lon="7.7624">
        <ele>228.8</ele>
        <time>2022-05-01T09:02:00Z</time>
      </trkpt>
      <trkpt lat="49.03999" lon="7.76238">
        <ele>229</ele>
        <time>2022-05-01T09:02:01Z</time>
      </trkpt>
      <trkpt lat="49.04002" lon="7.76236">
        <ele>229.2</ele>
        <time>2022-05-01T09:02:02Z</time>
      </trkpt>
      <trkpt lat="49.04005" lon="7.76234">
        <ele>229.4</ele>
        <time>2022-05-01T09:02:03Z</time>
      </trkpt>
      <trkpt lat="49.04008" lon="7.76233">
        <ele>229.6</ele>
        <time>2022-05-01T09:02:04Z</time>
      </trkpt>
      <trkpt lat="49.0401" lon="7.76234">
        <ele>229.8</ele>
        <time>2022-05-01T09:02:05Z</time>
      </trkpt>
      <trkpt lat="49.04012" lon="7.76232">
        <ele>229.8</ele>
        <time>2022-05-01T09:02:06Z</time>
      </trkpt>
      <trkpt lat="49.04014" lon="7.76232">
        <ele>230.2</ele>
        <time>2022-05-01T09:02:07Z</time>
      </trkpt>
      <trkpt lat="49.04016" lon="7.7623">
        <ele>230.4</ele>
        <time>2022-05-01T09:02:08Z</time>
      </trkpt>
      <trkpt lat="49.04019" lon="7.76229">
        <ele>230.6</ele>
        <time>2022-05-01T09:02:09Z</time>
      </trkpt>
      <trkpt lat="49.04022" lon="7.76227">
        <ele>230.8</ele>
        <time>2022-05-01T09:02:10Z</time>
      </trkpt>
      <trkpt lat="49.04026" lon="7.76226">
        <ele>230.8</ele>
        <time>2022-05-01T09:02:11Z</time>
      </trkpt>
      <trkpt lat="49.04031" lon="7.76225">
        <ele>231.2</ele>
        <time>2022-05-01T09:02:12Z</time>
      </trkpt>
      <trkpt lat="49.04034" lon="7.76224">
        <ele>231.4</ele>
        <time>2022-05-01T09:02:13Z</time>
      </trkpt>
      <trkpt lat="49.04035" lon="7.76223">
        <ele>231.4</ele>
        <time>2022-05-01T09:02:14Z</time>
      </trkpt>
      <trkpt lat="49.04037" lon="7.76222">
        <ele>231.8</ele>
        <time>2022-05-01T09:02:15Z</time>
      </trkpt>
      <trkpt lat="49.04039" lon="7.76222">
        <ele>232.2</ele>
        <time>2022-05-01T09:02:16Z</time>
      </trkpt>
      <trkpt lat="49.04041" lon="7.76221">
        <ele>232.4</ele>
        <time>2022-05-01T09:02:17Z</time>
      </trkpt>
      <trkpt lat="49.04043" lon="7.76221">
        <ele>232.8</ele>
        <time>2022-05-01T09:02:18Z</time>
      </trkpt>
      <trkpt lat="49.04044" lon="7.76222">
        <ele>233</ele>
        <time>2022-05-01T09:02:19Z</time>
      </trkpt>
      <trkpt lat="49.04046" lon="7.76222">
        <ele>233.2</ele>
        <time>2022-05-01T09:02:20Z</time>
      </trkpt>
      <trkpt lat="49.04048" lon="7.76221">
        <ele>233.4</ele>
        <time>2022-05-01T09:02:21Z</time>
      </trkpt>
      <trkpt lat="49.04051" lon="7.7622">
        <ele>233.6</ele>
        <time>2022-05-01T09:02:22Z</time>
      </trkpt>
      <trkpt lat="49.04053" lon="7.7622">
        <ele>233.8</ele>
        <time>2022-05-01T09:02:23Z</time>
      </trkpt>
      <trkpt lat="49.04054" lon="7.76219">
        <ele>233.8</ele>
        <time>2022-05-01T09:02:24Z</time>
      </trkpt>
      <trkpt lat="49.04057" lon="7.76219">
        <ele>234</ele>
        <time>2022-05-01T09:02:25Z</time>
      </trkpt>
      <trkpt lat="49.04059" lon="7.7622">
        <ele>234.2</ele>
        <time>2022-05-01T09:02:26Z</time>
      </trkpt>
      <trkpt lat="49.04062" lon="7.76219">
        <ele>234.2</ele>
        <time>2022-05-01T09:02:27Z</time>
      </trkpt>
      <trkpt lat="49.04066" lon="7.7622">
        <ele>234.4</ele>
        <time>2022-05-01T09:02:28Z</time>
      </trkpt>
      <trkpt lat="49.04068" lon="7.76219">
        <ele>234.6</ele>
        <time>2022-05-01T09:02:29Z</time>
      </trkpt>
      <trkpt lat="49.04072" lon="7.7622">
        <ele>235</ele>
        <time>2022-05-01T09:02:30Z</time>
      </trkpt>
      <trkpt lat="49.04074" lon="7.7622">
        <ele>235.2</ele>
        <time>2022-05-01T09:02:31Z</time>
      </trkpt>
      <trkpt lat="49.04079" lon="7.76219">
        <ele>235.6</ele>
        <time>2022-05-01T09:02:32Z</time>
      </trkpt>
      <trkpt lat="49.04082" lon="7.76218">
        <ele>235.8</ele>
        <time>2022-05-01T09:02:33Z</time>
      </trkpt>
      <trkpt lat="49.04085" lon="7.76217">
        <ele>236</ele>
        <time>2022-05-01T09:02:34Z</time>
      </trkpt>
      <trkpt lat="49.04087" lon="7.76215">
        <ele>236.2</ele>
        <time>2022-05-01T09:02:35Z</time>
      </trkpt>
      <trkpt lat="49.04089" lon="7.76215">
        <ele>236.4</ele>
        <time>2022-05-01T09:02:36Z</time>
      </trkpt>
      <trkpt lat="49.04089" lon="7.76214">
        <ele>236.6</ele>
        <time>2022-05-01T09:02:37Z</time>
      </trkpt>
      <trkpt lat="49.04091" lon="7.76214">
        <ele>236.6</ele>
        <time>2022-05-01T09:02:38Z</time>
      </trkpt>
      <trkpt lat="49.04092" lon="7.76214">
        <ele>236.8</ele>
        <time>2022-05-01T09:02:39Z</time>
      </trkpt>
      <trkpt lat="49.04093" lon="7.76216">
        <ele>236.8</ele>
        <time>2022-05-01T09:02:40Z</time>
      </trkpt>
      <trkpt lat="49.04095" lon="7.76216">
        <ele>237</ele>
        <time>2022-05-01T09:02:41Z</time>
      </trkpt>
      <trkpt lat="49.04096" lon="7.76216">
        <ele>237</ele>
        <time>2022-05-01T09:02:42Z</time>
      </trkpt>
      <trkpt lat="49.04098" lon="7.76216">
        <ele>237.2</ele>
        <time>2022-05-01T09:02:43Z</time>
      </trkpt>
      <trkpt lat="49.041" lon="7.76215">
        <ele>237.4</ele>
        <time>2022-05-01T09:02:44Z</time>
      </trkpt>
      <trkpt lat="49.04101" lon="7.76215">
        <ele>237.6</ele>
        <time>2022-05-01T09:02:45Z</time>
      </trkpt>
      <trkpt lat="49.04103" lon="7.76215">
        <ele>238</ele>
        <time>2022-05-01T09:02:46Z</time>
      </trkpt>
      <trkpt lat="49.04105" lon="7.76215">
        <ele>238.2</ele>
        <time>2022-05-01T09:02:47Z</time>
      </trkpt>
      <trkpt lat="49.04107" lon="7.76214">
        <ele>238.4</ele>
        <time>2022-05-01T09:02:48Z</time>
      </trkpt>
      <trkpt lat="49.04108" lon="7.76214">
        <ele>238.6</ele>
        <time>2022-05-01T09:02:49Z</time>
      </trkpt>
      <trkpt lat="49.04109" lon="7.76213">
        <ele>239</ele>
        <time>2022-05-01T09:02:50Z</time>
      </trkpt>
      <trkpt lat="49.0411" lon="7.76213">
        <ele>239.2</ele>
        <time>2022-05-01T09:02:51Z</time>
      </trkpt>
      <trkpt lat="49.04111" lon="7.76212">
        <ele>239.6</ele>
        <time>2022-05-01T09:02:52Z</time>
      </trkpt>
      <trkpt lat="49.04112" lon="7.76212">
        <ele>239.6</ele>
        <time>2022-05-01T09:02:53Z</time>
      </trkpt>
      <trkpt lat="49.04114" lon="7.76211">
        <ele>240</ele>
        <time>2022-05-01T09:02:54Z</time>
      </trkpt>
      <trkpt lat="49.04116" lon="7.7621">
        <ele>240.4</ele>
        <time>2022-05-01T09:02:55Z</time>
      </trkpt>
      <trkpt lat="49.04119" lon="7.76209">
        <ele>240.8</ele>
        <time>2022-05-01T09:02:56Z</time>
      </trkpt>
      <trkpt lat="49.04121" lon="7.76207">
        <ele>241</ele>
        <time>2022-05-01T09:02:57Z</time>
      </trkpt>
      <trkpt lat="49.04123" lon="7.76206">
        <ele>241.2</ele>
        <time>2022-05-01T09:02:58Z</time>
      </trkpt>
      <trkpt lat="49.04124" lon="7.76204">
        <ele>241.4</ele>
        <time>2022-05-01T09:02:59Z</time>
      </trkpt>
      <trkpt lat="49.04125" lon="7.76202">
        <ele>241.6</ele>
        <time>2022-05-01T09:03:00Z</time>
      </trkpt>
      <trkpt lat="49.04126" lon="7.76199">
        <ele>241.6</ele>
        <time>2022-05-01T09:03:01Z</time>
      </trkpt>
      <trkpt lat="49.04126" lon="7.76196">
        <ele>241.8</ele>
        <time>2022-05-01T09:03:02Z</time>
      </trkpt>
      <trkpt lat="49.04126" lon="7.76193">
        <ele>242</ele>
        <time>2022-05-01T09:03:03Z</time>
      </trkpt>
      <trkpt lat="49.04126" lon="7.76189">
        <ele>242.4</ele>
        <time>2022-05-01T09:03:04Z</time>
      </trkpt>
      <trkpt lat="49.04126" lon="7.76186">
        <ele>242.6</ele>
        <time>2022-05-01T09:03:05Z</time>
      </trkpt>
      <trkpt lat="49.04125" lon="7.76183">
        <ele>242.8</ele>
        <time>2022-05-01T09:03:06Z</time>
      </trkpt>
      <trkpt lat="49.04124" lon="7.76181">
        <ele>243</ele>
        <time>2022-05-01T09:03:07Z</time>
      </trkpt>
      <trkpt lat="49.04123" lon="7.76179">
        <ele>243.4</ele>
        <time>2022-05-01T09:03:08Z</time>
      </trkpt>
      <trkpt lat="49.04123" lon="7.76177">
        <ele>243.6</ele>
        <time>2022-05-01T09:03:09Z</time>
      </trkpt>
      <trkpt lat="49.04122" lon="7.76175">
        <ele>243.8</ele>
        <time>2022-05-01T09:03:10Z</time>
      </trkpt>
      <trkpt lat="49.04121" lon="7.76173">
        <ele>244</ele>
        <time>2022-05-01T09:03:11Z</time>
      </trkpt>
      <trkpt lat="49.0412" lon="7.76171">
        <ele>244.2</ele>
        <time>2022-05-01T09:03:12Z</time>
      </trkpt>
      <trkpt lat="49.04119" lon="7.76169">
        <ele>244.4</ele>
        <time>2022-05-01T09:03:13Z</time>
      </trkpt>
      <trkpt lat="49.04118" lon="7.76167">
        <ele>244.6</ele>
        <time>2022-05-01T09:03:14Z</time>
      </trkpt>
      <trkpt lat="49.04117" lon="7.76164">
        <ele>244.8</ele>
        <time>2022-05-01T09:03:15Z</time>
      </trkpt>
      <trkpt lat="49.04116" lon="7.76162">
        <ele>244.8</ele>
        <time>2022-05-01T09:03:16Z</time>
      </trkpt>
      <trkpt lat="49.04116" lon="7.7616">
        <ele>245</ele>
        <time>2022-05-01T09:03:17Z</time>
      </trkpt>
      <trkpt lat="49.04116" lon="7.76158">
        <ele>245.2</ele>
        <time>2022-05-01T09:03:18Z</time>
      </trkpt>
      <trkpt lat="49.04115" lon="7.76156">
        <ele>245.4</ele>
        <time>2022-05-01T09:03:19Z</time>
      </trkpt>
      <trkpt lat="49.04114" lon="7.76154">
        <ele>245.4</ele>
        <time>2022-05-01T09:03:20Z</time>
      </trkpt>
      <trkpt lat="49.04112" lon="7.76151">
        <ele>245.8</ele>
        <time>2022-05-01T09:03:21Z</time>
      </trkpt>
      <trkpt lat="49.04111" lon="7.76148">
        <ele>245.8</ele>
        <time>2022-05-01T09:03:22Z</time>
      </trkpt>
      <trkpt lat="49.0411" lon="7.76146">
        <ele>246</ele>
        <time>2022-05-01T09:03:23Z</time>
      </trkpt>
      <trkpt lat="49.04107" lon="7.76143">
        <ele>246</ele>
        <time>2022-05-01T09:03:24Z</time>
      </trkpt>
      <trkpt lat="49.04106" lon="7.7614">
        <ele>246</ele>
        <time>2022-05-01T09:03:25Z</time>
      </trkpt>
      <trkpt lat="49.04105" lon="7.76138">
        <ele>246.2</ele>
        <time>2022-05-01T09:03:26Z</time>
      </trkpt>
      <trkpt lat="49.04103" lon="7.76136">
        <ele>246.4</ele>
        <time>2022-05-01T09:03:27Z</time>
      </trkpt>
      <trkpt lat="49.04103" lon="7.76133">
        <ele>246.6</ele>
        <time>2022-05-01T09:03:28Z</time>
      </trkpt>
      <trkpt lat="49.04102" lon="7.7613">
        <ele>246.8</ele>
        <time>2022-05-01T09:03:29Z</time>
      </trkpt>
      <trkpt lat="49.041" lon="7.76127">
        <ele>247</ele>
        <time>2022-05-01T09:03:30Z</time>
      </trkpt>
      <trkpt lat="49.041" lon="7.76123">
        <ele>247</ele>
        <time>2022-05-01T09:03:31Z</time>
      </trkpt>
      <trkpt lat="49.04099" lon="7.76121">
        <ele>247.2</ele>
        <time>2022-05-01T09:03:32Z</time>
      </trkpt>
      <trkpt lat="49.04098" lon="7.76117">
        <ele>247.4</ele>
        <time>2022-05-01T09:03:33Z</time>
      </trkpt>
      <trkpt lat="49.04097" lon="7.76114">
        <ele>247.4</ele>
        <time>2022-05-01T09:03:34Z</time>
      </trkpt>
      <trkpt lat="49.04095" lon="7.76111">
        <ele>247.6</ele>
        <time>2022-05-01T09:03:35Z</time>
      </trkpt>
      <trkpt lat="49.04094" lon="7.76108">
        <ele>247.8</ele>
        <time>2022-05-01T09:03:36Z</time>
      </trkpt>
      <trkpt lat="49.04092" lon="7.76104">
        <ele>247.8</ele>
        <time>2022-05-01T09:03:37Z</time>
      </trkpt>
      <trkpt lat="49.0409" lon="7.76101">
        <ele>248</ele>
        <time>2022-05-01T09:03:38Z</time>
      </trkpt>
      <trkpt lat="49.04088" lon="7.76099">
        <ele>248.2</ele>
        <time>2022-05-01T09:03:39Z</time>
      </trkpt>
      <trkpt lat="49.04086" lon="7.76098">
        <ele>248.6</ele>
        <time>2022-05-01T09:03:40Z</time>
      </trkpt>
      <trkpt lat="49.04085" lon="7.76095">
        <ele>248.6</ele>
        <time>2022-05-01T09:03:41Z</time>
      </trkpt>
      <trkpt lat="49.04085" lon="7.7609">
        <ele>248.8</ele>
        <time>2022-05-01T09:03:42Z</time>
      </trkpt>
      <trkpt lat="49.04083" lon="7.76086">
        <ele>249</ele>
        <time>2022-05-01T09:03:43Z</time>
      </trkpt>
      <trkpt lat="49.04081" lon="7.76083">
        <ele>249.2</ele>
        <time>2022-05-01T09:03:44Z</time>
      </trkpt>
      <trkpt lat="49.0408" lon="7.76079">
        <ele>249.4</ele>
        <time>2022-05-01T09:03:45Z</time>
      </trkpt>
      <trkpt lat="49.04079" lon="7.76077">
        <ele>249.4</ele>
        <time>2022-05-01T09:03:46Z</time>
      </trkpt>
      <trkpt lat="49.04079" lon="7.76072">
        <ele>249.6</ele>
        <time>2022-05-01T09:03:47Z</time>
      </trkpt>
      <trkpt lat="49.04078" lon="7.76067">
        <ele>249.8</ele>
        <time>2022-05-01T09:03:48Z</time>
      </trkpt>
      <trkpt lat="49.04075" lon="7.76064">
        <ele>249.8</ele>
        <time>2022-05-01T09:03:49Z</time>
      </trkpt>
      <trkpt lat="49.04073" lon="7.7606">
        <ele>250</ele>
        <time>2022-05-01T09:03:50Z</time>
      </trkpt>
      <trkpt lat="49.04071" lon="7.76058">
        <ele>250.2</ele>
        <time>2022-05-01T09:03:51Z</time>
      </trkpt>
      <trkpt lat="49.04069" lon="7.76055">
        <ele>250.4</ele>
        <time>2022-05-01T09:03:52Z</time>
      </trkpt>
      <trkpt lat="49.04067" lon="7.76053">
        <ele>250.6</ele>
        <time>2022-05-01T09:03:53Z</time>
      </trkpt>
      <trkpt lat="49.04065" lon="7.7605">
        <ele>250.8</ele>
        <time>2022-05-01T09:03:54Z</time>
      </trkpt>
      <trkpt lat="49.04063" lon="7.76047">
        <ele>251</ele>
        <time>2022-05-01T09:03:55Z</time>
      </trkpt>
      <trkpt lat="49.04065" lon="7.76043">
        <ele>251</ele>
        <time>2022-05-01T09:03:56Z</time>
      </trkpt>
      <trkpt lat="49.04065" lon="7.76039">
        <ele>251.2</ele>
        <time>2022-05-01T09:03:57Z</time>
      </trkpt>
      <trkpt lat="49.04064" lon="7.76036">
        <ele>251.4</ele>
        <time>2022-05-01T09:03:58Z</time>
      </trkpt>
      <trkpt lat="49.04065" lon="7.76033">
        <ele>251.6</ele>
        <time>2022-05-01T09:03:59Z</time>
      </trkpt>
      <trkpt lat="49.04065" lon="7.76028">
        <ele>251.6</ele>
        <time>2022-05-01T09:04:00Z</time>
      </trkpt>
      <trkpt lat="49.04063" lon="7.76024">
        <ele>251.8</ele>
        <time>2022-05-01T09:04:01Z</time>
      </trkpt>
      <trkpt lat="49.04063" lon="7.7602">
        <ele>252</ele>
        <time>2022-05-01T09:04:02Z</time>
      </trkpt>
      <trkpt lat="49.04063" lon="7.76016">
        <ele>252</ele>
        <time>2022-05-01T09:04:03Z</time>
      </trkpt>
      <trkpt lat="49.04063" lon="7.76014">
        <ele>252</ele>
        <time>2022-05-01T09:04:04Z</time>
      </trkpt>
      <trkpt lat="49.0406" lon="7.7601">
        <ele>252.2</ele>
        <time>2022-05-01T09:04:05Z</time>
      </trkpt>
      <trkpt lat="49.04057" lon="7.76008">
        <ele>252.2</ele>
        <time>2022-05-01T09:04:06Z</time>
      </trkpt>
      <trkpt lat="49.04055" lon="7.76006">
        <ele>252.6</ele>
        <time>2022-05-01T09:04:07Z</time>
      </trkpt>
      <trkpt lat="49.04054" lon="7.76004">
        <ele>252.6</ele>
        <time>2022-05-01T09:04:08Z</time>
      </trkpt>
      <trkpt lat="49.04052" lon="7.76002">
        <ele>252.8</ele>
        <time>2022-05-01T09:04:09Z</time>
      </trkpt>
      <trkpt lat="49.04051" lon="7.75998">
        <ele>253</ele>
        <time>2022-05-01T09:04:10Z</time>
      </trkpt>
      <trkpt lat="49.0405" lon="7.75995">
        <ele>253</ele>
        <time>2022-05-01T09:04:11Z</time>
      </trkpt>
      <trkpt lat="49.04049" lon="7.75992">
        <ele>253.2</ele>
        <time>2022-05-01T09:04:12Z</time>
      </trkpt>
      <trkpt lat="49.04047" lon="7.7599">
        <ele>253.4</ele>
        <time>2022-05-01T09:04:13Z</time>
      </trkpt>
      <trkpt lat="49.04045" lon="7.75988">
        <ele>253.6</ele>
        <time>2022-05-01T09:04:14Z</time>
      </trkpt>
      <trkpt lat="49.04043" lon="7.75986">
        <ele>253.8</ele>
        <time>2022-05-01T09:04:15Z</time>
      </trkpt>
      <trkpt lat="49.0404" lon="7.75981">
        <ele>254</ele>
        <time>2022-05-01T09:04:16Z</time>
      </trkpt>
      <trkpt lat="49.04039" lon="7.75977">
        <ele>254.2</ele>
        <time>2022-05-01T09:04:17Z</time>
      </trkpt>
      <trkpt lat="49.04037" lon="7.75974">
        <ele>254.4</ele>
        <time>2022-05-01T09:04:18Z</time>
      </trkpt>
      <trkpt lat="49.04035" lon="7.75971">
        <ele>254.4</ele>
        <time>2022-05-01T09:04:19Z</time>
      </trkpt>
      <trkpt lat="49.04034" lon="7.75968">
        <ele>254.6</ele>
        <time>2022-05-01T09:04:20Z</time>
      </trkpt>
      <trkpt lat="49.04033" lon="7.75966">
        <ele>254.8</ele>
        <time>2022-05-01T09:04:21Z</time>
      </trkpt>
      <trkpt lat="49.04031" lon="7.75964">
        <ele>255</ele>
        <time>2022-05-01T09:04:22Z</time>
      </trkpt>
      <trkpt lat="49.04031" lon="7.75962">
        <ele>255.2</ele>
        <time>2022-05-01T09:04:23Z</time>
      </trkpt>
      <trkpt lat="49.04029" lon="7.7596">
        <ele>255.4</ele>
        <time>2022-05-01T09:04:24Z</time>
      </trkpt>
      <trkpt lat="49.04028" lon="7.75955">
        <ele>255.6</ele>
        <time>2022-05-01T09:04:25Z</time>
      </trkpt>
      <trkpt lat="49.04027" lon="7.7595">
        <ele>255.8</ele>
        <time>2022-05-01T09:04:26Z</time>
      </trkpt>
      <trkpt lat="49.04025" lon="7.75947">
        <ele>256</ele>
        <time>2022-05-01T09:04:27Z</time>
      </trkpt>
      <trkpt lat="49.04023" lon="7.75945">
        <ele>256</ele>
        <time>2022-05-01T09:04:28Z</time>
      </trkpt>
      <trkpt lat="49.04021" lon="7.75941">
        <ele>256.2</ele>
        <time>2022-05-01T09:04:29Z</time>
      </trkpt>
      <trkpt lat="49.04018" lon="7.75937">
        <ele>256.4</ele>
        <time>2022-05-01T09:04:30Z</time>
      </trkpt>
      <trkpt lat="49.04016" lon="7.75935">
        <ele>256.6</ele>
        <time>2022-05-01T09:04:31Z</time>
      </trkpt>
      <trkpt lat="49.04013" lon="7.75933">
        <ele>256.6</ele>
        <time>2022-05-01T09:04:32Z</time>
      </trkpt>
      <trkpt lat="49.04011" lon="7.75929">
        <ele>256.8</ele>
        <time>2022-05-01T09:04:33Z</time>
      </trkpt>
      <trkpt lat="49.04009" lon="7.75928">
        <ele>257</ele>
        <time>2022-05-01T09:04:34Z</time>
      </trkpt>
      <trkpt lat="49.04008" lon="7.75926">
        <ele>257.2</ele>
        <time>2022-05-01T09:04:35Z</time>
      </trkpt>
      <trkpt lat="49.04006" lon="7.75924">
        <ele>257.2</ele>
        <time>2022-05-01T09:04:36Z</time>
      </trkpt>
      <trkpt lat="49.04003" lon="7.7592">
        <ele>257.6</ele>
        <time>2022-05-01T09:04:37Z</time>
      </trkpt>
      <trkpt lat="49.04" lon="7.75918">
        <ele>257.6</ele>
        <time>2022-05-01T09:04:38Z</time>
      </trkpt>
      <trkpt lat="49.03997" lon="7.75914">
        <ele>258</ele>
        <time>2022-05-01T09:04:39Z</time>
      </trkpt>
      <trkpt lat="49.03996" lon="7.75912">
        <ele>258</ele>
        <time>2022-05-01T09:04:40Z</time>
      </trkpt>
      <trkpt lat="49.03994" lon="7.7591">
        <ele>258.2</ele>
        <time>2022-05-01T09:04:41Z</time>
      </trkpt>
      <trkpt lat="49.03992" lon="7.75908">
        <ele>258.4</ele>
        <time>2022-05-01T09:04:42Z</time>
      </trkpt>
      <trkpt lat="49.0399" lon="7.75906">
        <ele>258.6</ele>
        <time>2022-05-01T09:04:43Z</time>
      </trkpt>
      <trkpt lat="49.03988" lon="7.75903">
        <ele>258.8</ele>
        <time>2022-05-01T09:04:44Z</time>
      </trkpt>
      <trkpt lat="49.03987" lon="7.75899">
        <ele>259</ele>
        <time>2022-05-01T09:04:45Z</time>
      </trkpt>
      <trkpt lat="49.03985" lon="7.75896">
        <ele>259</ele>
        <time>2022-05-01T09:04:46Z</time>
      </trkpt>
      <trkpt lat="49.03983" lon="7.75893">
        <ele>259.2</ele>
        <time>2022-05-01T09:04:47Z</time>
      </trkpt>
      <trkpt lat="49.03981" lon="7.7589">
        <ele>259.4</ele>
        <time>2022-05-01T09:04:48Z</time>
      </trkpt>
      <trkpt lat="49.03979" lon="7.75886">
        <ele>259.4</ele>
        <time>2022-05-01T09:04:49Z</time>
      </trkpt>
      <trkpt lat="49.03978" lon="7.75883">
        <ele>259.6</ele>
        <time>2022-05-01T09:04:50Z</time>
      </trkpt>
      <trkpt lat="49.03976" lon="7.7588">
        <ele>259.6</ele>
        <time>2022-05-01T09:04:51Z</time>
      </trkpt>
      <trkpt lat="49.03974" lon="7.75876">
        <ele>259.6</ele>
        <time>2022-05-01T09:04:52Z</time>
      </trkpt>
      <trkpt lat="49.03972" lon="7.75873">
        <ele>259.8</ele>
        <time>2022-05-01T09:04:53Z</time>
      </trkpt>
      <trkpt lat="49.0397" lon="7.7587">
        <ele>260</ele>
        <time>2022-05-01T09:04:54Z</time>
      </trkpt>
      <trkpt lat="49.0397" lon="7.75868">
        <ele>260.2</ele>
        <time>2022-05-01T09:04:55Z</time>
      </trkpt>
      <trkpt lat="49.03969" lon="7.75865">
        <ele>260.4</ele>
        <time>2022-05-01T09:04:56Z</time>
      </trkpt>
      <trkpt lat="49.03967" lon="7.75862">
        <ele>260.6</ele>
        <time>2022-05-01T09:04:57Z</time>
      </trkpt>
      <trkpt lat="49.03966" lon="7.75859">
        <ele>260.8</ele>
        <time>2022-05-01T09:04:58Z</time>
      </trkpt>
      <trkpt lat="49.03965" lon="7.75856">
        <ele>261</ele>
        <time>2022-05-01T09:04:59Z</time>
      </trkpt>
      <trkpt lat="49.03963" lon="7.75853">
        <ele>261.2</ele>
        <time>2022-05-01T09:05:00Z</time>
      </trkpt>
      <trkpt lat="49.03962" lon="7.7585">
        <ele>261.4</ele>
        <time>2022-05-01T09:05:01Z</time>
      </trkpt>
      <trkpt lat="49.0396" lon="7.75846">
        <ele>261.6</ele>
        <time>2022-05-01T09:05:02Z</time>
      </trkpt>
      <trkpt lat="49.03958" lon="7.75843">
        <ele>261.8</ele>
        <time>2022-05-01T09:05:03Z</time>
      </trkpt>
      <trkpt lat="49.03956" lon="7.75839">
        <ele>262</ele>
        <time>2022-05-01T09:05:04Z</time>
      </trkpt>
      <trkpt lat="49.03954" lon="7.75836">
        <ele>262.2</ele>
        <time>2022-05-01T09:05:05Z</time>
      </trkpt>
      <trkpt lat="49.03951" lon="7.75833">
        <ele>262.4</ele>
        <time>2022-05-01T09:05:06Z</time>
      </trkpt>
      <trkpt lat="49.0395" lon="7.7583">
        <ele>262.6</ele>
        <time>2022-05-01T09:05:07Z</time>
      </trkpt>
      <trkpt lat="49.03949" lon="7.75827">
        <ele>262.8</ele>
        <time>2022-05-01T09:05:08Z</time>
      </trkpt>
      <trkpt lat="49.03947" lon="7.75824">
        <ele>263</ele>
        <time>2022-05-01T09:05:09Z</time>
      </trkpt>
      <trkpt lat="49.03944" lon="7.7582">
        <ele>263.2</ele>
        <time>2022-05-01T09:05:10Z</time>
      </trkpt>
      <trkpt lat="49.03942" lon="7.75817">
        <ele>263.4</ele>
        <time>2022-05-01T09:05:11Z</time>
      </trkpt>
      <trkpt lat="49.0394" lon="7.75813">
        <ele>263.6</ele>
        <time>2022-05-01T09:05:12Z</time>
      </trkpt>
      <trkpt lat="49.03938" lon="7.75809">
        <ele>263.6</ele>
        <time>2022-05-01T09:05:13Z</time>
      </trkpt>
      <trkpt lat="49.03937" lon="7.75806">
        <ele>263.8</ele>
        <time>2022-05-01T09:05:14Z</time>
      </trkpt>
      <trkpt lat="49.03934" lon="7.75801">
        <ele>264</ele>
        <time>2022-05-01T09:05:15Z</time>
      </trkpt>
      <trkpt lat="49.03932" lon="7.75795">
        <ele>264.2</ele>
        <time>2022-05-01T09:05:16Z</time>
      </trkpt>
      <trkpt lat="49.03929" lon="7.75787">
        <ele>264.4</ele>
        <time>2022-05-01T09:05:17Z</time>
      </trkpt>
      <trkpt lat="49.03928" lon="7.75785">
        <ele>264.4</ele>
        <time>2022-05-01T09:05:18Z</time>
      </trkpt>
      <trkpt lat="49.03928" lon="7.75782">
        <ele>264.4</ele>
        <time>2022-05-01T09:05:19Z</time>
      </trkpt>
      <trkpt lat="49.03927" lon="7.7578">
        <ele>264.6</ele>
        <time>2022-05-01T09:05:20Z</time>
      </trkpt>
      <trkpt lat="49.03926" lon="7.75777">
        <ele>264.6</ele>
        <time>2022-05-01T09:05:21Z</time>
      </trkpt>
      <trkpt lat="49.03925" lon="7.75774">
        <ele>264.8</ele>
        <time>2022-05-01T09:05:22Z</time>
      </trkpt>
      <trkpt lat="49.03924" lon="7.75771">
        <ele>265</ele>
        <time>2022-05-01T09:05:23Z</time>
      </trkpt>
      <trkpt lat="49.03922" lon="7.75768">
        <ele>265</ele>
        <time>2022-05-01T09:05:24Z</time>
      </trkpt>
      <trkpt lat="49.0392" lon="7.75765">
        <ele>265.4</ele>
        <time>2022-05-01T09:05:25Z</time>
      </trkpt>
      <trkpt lat="49.03919" lon="7.75761">
        <ele>265.6</ele>
        <time>2022-05-01T09:05:26Z</time>
      </trkpt>
      <trkpt lat="49.03918" lon="7.75757">
        <ele>265.8</ele>
        <time>2022-05-01T09:05:27Z</time>
      </trkpt>
      <trkpt lat="49.03916" lon="7.75754">
        <ele>266</ele>
        <time>2022-05-01T09:05:28Z</time>
      </trkpt>
      <trkpt lat="49.03914" lon="7.7575">
        <ele>266.2</ele>
        <time>2022-05-01T09:05:29Z</time>
      </trkpt>
      <trkpt lat="49.03912" lon="7.75746">
        <ele>266.4</ele>
        <time>2022-05-01T09:05:30Z</time>
      </trkpt>
      <trkpt lat="49.03911" lon="7.75743">
        <ele>266.8</ele>
        <time>2022-05-01T09:05:31Z</time>
      </trkpt>
      <trkpt lat="49.03913" lon="7.75739">
        <ele>267.2</ele>
        <time>2022-05-01T09:05:32Z</time>
      </trkpt>
      <trkpt lat="49.03912" lon="7.75735">
        <ele>267.4</ele>
        <time>2022-05-01T09:05:33Z</time>
      </trkpt>
      <trkpt lat="49.03911" lon="7.75731">
        <ele>267.6</ele>
        <time>2022-05-01T09:05:34Z</time>
      </trkpt>
      <trkpt lat="49.03912" lon="7.75728">
        <ele>267.8</ele>
        <time>2022-05-01T09:05:35Z</time>
      </trkpt>
      <trkpt lat="49.03911" lon="7.75725">
        <ele>268</ele>
        <time>2022-05-01T09:05:36Z</time>
      </trkpt>
      <trkpt lat="49.0391" lon="7.75721">
        <ele>268.2</ele>
        <time>2022-05-01T09:05:37Z</time>
      </trkpt>
      <trkpt lat="49.03909" lon="7.75717">
        <ele>268.2</ele>
        <time>2022-05-01T09:05:38Z</time>
      </trkpt>
      <trkpt lat="49.03908" lon="7.75713">
        <ele>268.4</ele>
        <time>2022-05-01T09:05:39Z</time>
      </trkpt>
      <trkpt lat="49.03907" lon="7.75709">
        <ele>268.6</ele>
        <time>2022-05-01T09:05:40Z</time>
      </trkpt>
      <trkpt lat="49.03906" lon="7.75706">
        <ele>268.8</ele>
        <time>2022-05-01T09:05:41Z</time>
      </trkpt>
      <trkpt lat="49.03905" lon="7.75703">
        <ele>269</ele>
        <time>2022-05-01T09:05:42Z</time>
      </trkpt>
      <trkpt lat="49.03904" lon="7.75699">
        <ele>269.2</ele>
        <time>2022-05-01T09:05:43Z</time>
      </trkpt>
      <trkpt lat="49.03903" lon="7.75696">
        <ele>269.4</ele>
        <time>2022-05-01T09:05:44Z</time>
      </trkpt>
      <trkpt lat="49.03902" lon="7.75692">
        <ele>269.6</ele>
        <time>2022-05-01T09:05:45Z</time>
      </trkpt>
      <trkpt lat="49.03902" lon="7.75688">
        <ele>269.8</ele>
        <time>2022-05-01T09:05:46Z</time>
      </trkpt>
      <trkpt lat="49.03901" lon="7.75685">
        <ele>270</ele>
        <time>2022-05-01T09:05:47Z</time>
      </trkpt>
      <trkpt lat="49.039" lon="7.75682">
        <ele>270.2</ele>
        <time>2022-05-01T09:05:48Z</time>
      </trkpt>
      <trkpt lat="49.03899" lon="7.75678">
        <ele>270.4</ele>
        <time>2022-05-01T09:05:49Z</time>
      </trkpt>
      <trkpt lat="49.03898" lon="7.75675">
        <ele>270.6</ele>
        <time>2022-05-01T09:05:50Z</time>
      </trkpt>
      <trkpt lat="49.03898" lon="7.75672">
        <ele>270.6</ele>
        <time>2022-05-01T09:05:51Z</time>
      </trkpt>
      <trkpt lat="49.03897" lon="7.75669">
        <ele>270.8</ele>
        <time>2022-05-01T09:05:52Z</time>
      </trkpt>
      <trkpt lat="49.03897" lon="7.75665">
        <ele>271</ele>
        <time>2022-05-01T09:05:53Z</time>
      </trkpt>
      <trkpt lat="49.03896" lon="7.75662">
        <ele>271.2</ele>
        <time>2022-05-01T09:05:54Z</time>
      </trkpt>
      <trkpt lat="49.03895" lon="7.75659">
        <ele>271.4</ele>
        <time>2022-05-01T09:05:55Z</time>
      </trkpt>
      <trkpt lat="49.03894" lon="7.75655">
        <ele>271.4</ele>
        <time>2022-05-01T09:05:56Z</time>
      </trkpt>
      <trkpt lat="49.03893" lon="7.75652">
        <ele>271.4</ele>
        <time>2022-05-01T09:05:57Z</time>
      </trkpt>
      <trkpt lat="49.03893" lon="7.75648">
        <ele>271.8</ele>
        <time>2022-05-01T09:05:58Z</time>
      </trkpt>
      <trkpt lat="49.03892" lon="7.75645">
        <ele>272</ele>
        <time>2022-05-01T09:05:59Z</time>
      </trkpt>
      <trkpt lat="49.03891" lon="7.75641">
        <ele>272.2</ele>
        <time>2022-05-01T09:06:00Z</time>
      </trkpt>
      <trkpt lat="49.0389" lon="7.75639">
        <ele>272.4</ele>
        <time>2022-05-01T09:06:01Z</time>
      </trkpt>
      <trkpt lat="49.03888" lon="7.75636">
        <ele>272.6</ele>
        <time>2022-05-01T09:06:02Z</time>
      </trkpt>
      <trkpt lat="49.03887" lon="7.75632">
        <ele>272.8</ele>
        <time>2022-05-01T09:06:03Z</time>
      </trkpt>
      <trkpt lat="49.03887" lon="7.75629">
        <ele>273</ele>
        <time>2022-05-01T09:06:04Z</time>
      </trkpt>
      <trkpt lat="49.03886" lon="7.75626">
        <ele>273</ele>
        <time>2022-05-01T09:06:05Z</time>
      </trkpt>
      <trkpt lat="49.03885" lon="7.75623">
        <ele>273.4</ele>
        <time>2022-05-01T09:06:06Z</time>
      </trkpt>
      <trkpt lat="49.03885" lon="7.75619">
        <ele>273.4</ele>
        <time>2022-05-01T09:06:07Z</time>
      </trkpt>
      <trkpt lat="49.03884" lon="7.75616">
        <ele>273.8</ele>
        <time>2022-05-01T09:06:08Z</time>
      </trkpt>
      <trkpt lat="49.03882" lon="7.75613">
        <ele>273.8</ele>
        <time>2022-05-01T09:06:09Z</time>
      </trkpt>
      <trkpt lat="49.03881" lon="7.7561">
        <ele>274</ele>
        <time>2022-05-01T09:06:10Z</time>
      </trkpt>
      <trkpt lat="49.03881" lon="7.75607">
        <ele>274.2</ele>
        <time>2022-05-01T09:06:11Z</time>
      </trkpt>
      <trkpt lat="49.03881" lon="7.75603">
        <ele>274.4</ele>
        <time>2022-05-01T09:06:12Z</time>
      </trkpt>
      <trkpt lat="49.03881" lon="7.75599">
        <ele>274.6</ele>
        <time>2022-05-01T09:06:13Z</time>
      </trkpt>
      <trkpt lat="49.0388" lon="7.75596">
        <ele>274.8</ele>
        <time>2022-05-01T09:06:14Z</time>
      </trkpt>
      <trkpt lat="49.03879" lon="7.75592">
        <ele>275</ele>
        <time>2022-05-01T09:06:15Z</time>
      </trkpt>
      <trkpt lat="49.03878" lon="7.75589">
        <ele>275.2</ele>
        <time>2022-05-01T09:06:16Z</time>
      </trkpt>
      <trkpt lat="49.03877" lon="7.75586">
        <ele>275.4</ele>
        <time>2022-05-01T09:06:17Z</time>
      </trkpt>
      <trkpt lat="49.03877" lon="7.75583">
        <ele>275.4</ele>
        <time>2022-05-01T09:06:18Z</time>
      </trkpt>
      <trkpt lat="49.03877" lon="7.75579">
        <ele>275.8</ele>
        <time>2022-05-01T09:06:19Z</time>
      </trkpt>
      <trkpt lat="49.03876" lon="7.75574">
        <ele>275.8</ele>
        <time>2022-05-01T09:06:20Z</time>
      </trkpt>
      <trkpt lat="49.03876" lon="7.7557">
        <ele>276</ele>
        <time>2022-05-01T09:06:21Z</time>
      </trkpt>
      <trkpt lat="49.03875" lon="7.75567">
        <ele>276.2</ele>
        <time>2022-05-01T09:06:22Z</time>
      </trkpt>
      <trkpt lat="49.03874" lon="7.75565">
        <ele>276.4</ele>
        <time>2022-05-01T09:06:23Z</time>
      </trkpt>
      <trkpt lat="49.03874" lon="7.75561">
        <ele>276.4</ele>
        <time>2022-05-01T09:06:24Z</time>
      </trkpt>
      <trkpt lat="49.03874" lon="7.75558">
        <ele>276.6</ele>
        <time>2022-05-01T09:06:25Z</time>
      </trkpt>
      <trkpt lat="49.03873" lon="7.75554">
        <ele>276.8</ele>
        <time>2022-05-01T09:06:26Z</time>
      </trkpt>
      <trkpt lat="49.03873" lon="7.75551">
        <ele>277</ele>
        <time>2022-05-01T09:06:27Z</time>
      </trkpt>
      <trkpt lat="49.03872" lon="7.75547">
        <ele>277.2</ele>
        <time>2022-05-01T09:06:28Z</time>
      </trkpt>
      <trkpt lat="49.03871" lon="7.75543">
        <ele>277.2</ele>
        <time>2022-05-01T09:06:29Z</time>
      </trkpt>
      <trkpt lat="49.03871" lon="7.75539">
        <ele>277.4</ele>
        <time>2022-05-01T09:06:30Z</time>
      </trkpt>
      <trkpt lat="49.03869" lon="7.75535">
        <ele>277.6</ele>
        <time>2022-05-01T09:06:31Z</time>
      </trkpt>
      <trkpt lat="49.03868" lon="7.75531">
        <ele>277.8</ele>
        <time>2022-05-01T09:06:32Z</time>
      </trkpt>
      <trkpt lat="49.03868" lon="7.75527">
        <ele>278</ele>
        <time>2022-05-01T09:06:33Z</time>
      </trkpt>
      <trkpt lat="49.03868" lon="7.75522">
        <ele>278.2</ele>
        <time>2022-05-01T09:06:34Z</time>
      </trkpt>
      <trkpt lat="49.03866" lon="7.75519">
        <ele>278.4</ele>
        <time>2022-05-01T09:06:35Z</time>
      </trkpt>
      <trkpt lat="49.03867" lon="7.75515">
        <ele>278.6</ele>
        <time>2022-05-01T09:06:36Z</time>
      </trkpt>
      <trkpt lat="49.03867" lon="7.75512">
        <ele>278.6</ele>
        <time>2022-05-01T09:06:37Z</time>
      </trkpt>
      <trkpt lat="49.03867" lon="7.75509">
        <ele>278.8</ele>
        <time>2022-05-01T09:06:38Z</time>
      </trkpt>
      <trkpt lat="49.03868" lon="7.75503">
        <ele>278.8</ele>
        <time>2022-05-01T09:06:39Z</time>
      </trkpt>
      <trkpt lat="49.03868" lon="7.75499">
        <ele>279</ele>
        <time>2022-05-01T09:06:40Z</time>
      </trkpt>
      <trkpt lat="49.03867" lon="7.75496">
        <ele>279.2</ele>
        <time>2022-05-01T09:06:41Z</time>
      </trkpt>
      <trkpt lat="49.03866" lon="7.75492">
        <ele>279.2</ele>
        <time>2022-05-01T09:06:42Z</time>
      </trkpt>
      <trkpt lat="49.03865" lon="7.75488">
        <ele>279.4</ele>
        <time>2022-05-01T09:06:43Z</time>
      </trkpt>
      <trkpt lat="49.03864" lon="7.75485">
        <ele>279.6</ele>
        <time>2022-05-01T09:06:44Z</time>
      </trkpt>
      <trkpt lat="49.03863" lon="7.75482">
        <ele>279.8</ele>
        <time>2022-05-01T09:06:45Z</time>
      </trkpt>
      <trkpt lat="49.03863" lon="7.75478">
        <ele>279.8</ele>
        <time>2022-05-01T09:06:46Z</time>
      </trkpt>
      <trkpt lat="49.03863" lon="7.75474">
        <ele>280</ele>
        <time>2022-05-01T09:06:47Z</time>
      </trkpt>
      <trkpt lat="49.03862" lon="7.75471">
        <ele>280.2</ele>
        <time>2022-05-01T09:06:48Z</time>
      </trkpt>
      <trkpt lat="49.03862" lon="7.75468">
        <ele>280.2</ele>
        <time>2022-05-01T09:06:49Z</time>
      </trkpt>
      <trkpt lat="49.03861" lon="7.75464">
        <ele>280.4</ele>
        <time>2022-05-01T09:06:50Z</time>
      </trkpt>
      <trkpt lat="49.03861" lon="7.7546">
        <ele>280.6</ele>
        <time>2022-05-01T09:06:51Z</time>
      </trkpt>
      <trkpt lat="49.0386" lon="7.75457">
        <ele>280.8</ele>
        <time>2022-05-01T09:06:52Z</time>
      </trkpt>
      <trkpt lat="49.0386" lon="7.75455">
        <ele>281</ele>
        <time>2022-05-01T09:06:53Z</time>
      </trkpt>
      <trkpt lat="49.0386" lon="7.75451">
        <ele>281.2</ele>
        <time>2022-05-01T09:06:54Z</time>
      </trkpt>
      <trkpt lat="49.0386" lon="7.75448">
        <ele>281.2</ele>
        <time>2022-05-01T09:06:55Z</time>
      </trkpt>
      <trkpt lat="49.03859" lon="7.75445">
        <ele>281.4</ele>
        <time>2022-05-01T09:06:56Z</time>
      </trkpt>
      <trkpt lat="49.03859" lon="7.75441">
        <ele>281.6</ele>
        <time>2022-05-01T09:06:57Z</time>
      </trkpt>
      <trkpt lat="49.03859" lon="7.75437">
        <ele>281.8</ele>
        <time>2022-05-01T09:06:58Z</time>
      </trkpt>
      <trkpt lat="49.03858" lon="7.75433">
        <ele>282</ele>
        <time>2022-05-01T09:06:59Z</time>
      </trkpt>
      <trkpt lat="49.03857" lon="7.7543">
        <ele>282.2</ele>
        <time>2022-05-01T09:07:00Z</time>
      </trkpt>
      <trkpt lat="49.03856" lon="7.75426">
        <ele>282.4</ele>
        <time>2022-05-01T09:07:01Z</time>
      </trkpt>
      <trkpt lat="49.03855" lon="7.75423">
        <ele>282.6</ele>
        <time>2022-05-01T09:07:02Z</time>
      </trkpt>
      <trkpt lat="49.03855" lon="7.75419">
        <ele>282.8</ele>
        <time>2022-05-01T09:07:03Z</time>
      </trkpt>
      <trkpt lat="49.03855" lon="7.75416">
        <ele>282.8</ele>
        <time>2022-05-01T09:07:04Z</time>
      </trkpt>
      <trkpt lat="49.03855" lon="7.75412">
        <ele>283</ele>
        <time>2022-05-01T09:07:05Z</time>
      </trkpt>
      <trkpt lat="49.03854" lon="7.75408">
        <ele>283.2</ele>
        <time>2022-05-01T09:07:06Z</time>
      </trkpt>
      <trkpt lat="49.03853" lon="7.75405">
        <ele>283.4</ele>
        <time>2022-05-01T09:07:07Z</time>
      </trkpt>
      <trkpt lat="49.03853" lon="7.75402">
        <ele>283.6</ele>
        <time>2022-05-01T09:07:08Z</time>
      </trkpt>
      <trkpt lat="49.03853" lon="7.75398">
        <ele>284</ele>
        <time>2022-05-01T09:07:09Z</time>
      </trkpt>
      <trkpt lat="49.03853" lon="7.75395">
        <ele>284</ele>
        <time>2022-05-01T09:07:10Z</time>
      </trkpt>
      <trkpt lat="49.03852" lon="7.75392">
        <ele>284.2</ele>
        <time>2022-05-01T09:07:11Z</time>
      </trkpt>
      <trkpt lat="49.03851" lon="7.75389">
        <ele>284.4</ele>
        <time>2022-05-01T09:07:12Z</time>
      </trkpt>
      <trkpt lat="49.03851" lon="7.75385">
        <ele>284.6</ele>
        <time>2022-05-01T09:07:13Z</time>
      </trkpt>
      <trkpt lat="49.03851" lon="7.75382">
        <ele>284.8</ele>
        <time>2022-05-01T09:07:14Z</time>
      </trkpt>
      <trkpt lat="49.03851" lon="7.75378">
        <ele>285</ele>
        <time>2022-05-01T09:07:15Z</time>
      </trkpt>
      <trkpt lat="49.03851" lon="7.75375">
        <ele>285.2</ele>
        <time>2022-05-01T09:07:16Z</time>
      </trkpt>
      <trkpt lat="49.03851" lon="7.75372">
        <ele>285.4</ele>
        <time>2022-05-01T09:07:17Z</time>
      </trkpt>
      <trkpt lat="49.03852" lon="7.75369">
        <ele>285.6</ele>
        <time>2022-05-01T09:07:18Z</time>
      </trkpt>
      <trkpt lat="49.03851" lon="7.75365">
        <ele>285.6</ele>
        <time>2022-05-01T09:07:19Z</time>
      </trkpt>
      <trkpt lat="49.03851" lon="7.75362">
        <ele>286</ele>
        <time>2022-05-01T09:07:20Z</time>
      </trkpt>
      <trkpt lat="49.03852" lon="7.75359">
        <ele>286.2</ele>
        <time>2022-05-01T09:07:21Z</time>
      </trkpt>
      <trkpt lat="49.03853" lon="7.75356">
        <ele>286.4</ele>
        <time>2022-05-01T09:07:22Z</time>
      </trkpt>
      <trkpt lat="49.03853" lon="7.75352">
        <ele>286.4</ele>
        <time>2022-05-01T09:07:23Z</time>
      </trkpt>
      <trkpt lat="49.03854" lon="7.75349">
        <ele>286.6</ele>
        <time>2022-05-01T09:07:24Z</time>
      </trkpt>
      <trkpt lat="49.03855" lon="7.75345">
        <ele>286.6</ele>
        <time>2022-05-01T09:07:25Z</time>
      </trkpt>
      <trkpt lat="49.03855" lon="7.75342">
        <ele>286.8</ele>
        <time>2022-05-01T09:07:26Z</time>
      </trkpt>
      <trkpt lat="49.03856" lon="7.75338">
        <ele>287</ele>
        <time>2022-05-01T09:07:27Z</time>
      </trkpt>
      <trkpt lat="49.03856" lon="7.75334">
        <ele>287</ele>
        <time>2022-05-01T09:07:28Z</time>
      </trkpt>
      <trkpt lat="49.03856" lon="7.7533">
        <ele>287.2</ele>
        <time>2022-05-01T09:07:29Z</time>
      </trkpt>
      <trkpt lat="49.03857" lon="7.75326">
        <ele>287.4</ele>
        <time>2022-05-01T09:07:30Z</time>
      </trkpt>
      <trkpt lat="49.03858" lon="7.75322">
        <ele>287.6</ele>
        <time>2022-05-01T09:07:31Z</time>
      </trkpt>
      <trkpt lat="49.03859" lon="7.75318">
        <ele>287.8</ele>
        <time>2022-05-01T09:07:32Z</time>
      </trkpt>
      <trkpt lat="49.03859" lon="7.75315">
        <ele>288</ele>
        <time>2022-05-01T09:07:33Z</time>
      </trkpt>
      <trkpt lat="49.0386" lon="7.75312">
        <ele>288.2</ele>
        <time>2022-05-01T09:07:34Z</time>
      </trkpt>
      <trkpt lat="49.0386" lon="7.75308">
        <ele>288.4</ele>
        <time>2022-05-01T09:07:35Z</time>
      </trkpt>
      <trkpt lat="49.03861" lon="7.75304">
        <ele>288.6</ele>
        <time>2022-05-01T09:07:36Z</time>
      </trkpt>
      <trkpt lat="49.03862" lon="7.753">
        <ele>288.8</ele>
        <time>2022-05-01T09:07:37Z</time>
      </trkpt>
      <trkpt lat="49.03863" lon="7.75297">
        <ele>289</ele>
        <time>2022-05-01T09:07:38Z</time>
      </trkpt>
      <trkpt lat="49.03865" lon="7.75294">
        <ele>289.2</ele>
        <time>2022-05-01T09:07:39Z</time>
      </trkpt>
      <trkpt lat="49.03867" lon="7.7529">
        <ele>289.4</ele>
        <time>2022-05-01T09:07:40Z</time>
      </trkpt>
      <trkpt lat="49.03868" lon="7.75286">
        <ele>289.6</ele>
        <time>2022-05-01T09:07:41Z</time>
      </trkpt>
      <trkpt lat="49.03869" lon="7.75283">
        <ele>289.8</ele>
        <time>2022-05-01T09:07:42Z</time>
      </trkpt>
      <trkpt lat="49.0387" lon="7.75281">
        <ele>290</ele>
        <time>2022-05-01T09:07:43Z</time>
      </trkpt>
      <trkpt lat="49.0387" lon="7.75277">
        <ele>290.2</ele>
        <time>2022-05-01T09:07:44Z</time>
      </trkpt>
      <trkpt lat="49.03871" lon="7.75273">
        <ele>290.4</ele>
        <time>2022-05-01T09:07:45Z</time>
      </trkpt>
      <trkpt lat="49.03872" lon="7.75268">
        <ele>290.6</ele>
        <time>2022-05-01T09:07:46Z</time>
      </trkpt>
      <trkpt lat="49.03871" lon="7.75262">
        <ele>290.8</ele>
        <time>2022-05-01T09:07:47Z</time>
      </trkpt>
      <trkpt lat="49.03871" lon="7.75257">
        <ele>291</ele>
        <time>2022-05-01T09:07:48Z</time>
      </trkpt>
      <trkpt lat="49.03872" lon="7.75253">
        <ele>291.2</ele>
        <time>2022-05-01T09:07:49Z</time>
      </trkpt>
      <trkpt lat="49.03872" lon="7.75249">
        <ele>291.4</ele>
        <time>2022-05-01T09:07:50Z</time>
      </trkpt>
      <trkpt lat="49.03871" lon="7.75245">
        <ele>291.6</ele>
        <time>2022-05-01T09:07:51Z</time>
      </trkpt>
      <trkpt lat="49.03872" lon="7.75241">
        <ele>291.8</ele>
        <time>2022-05-01T09:07:52Z</time>
      </trkpt>
      <trkpt lat="49.03873" lon="7.75238">
        <ele>292</ele>
        <time>2022-05-01T09:07:53Z</time>
      </trkpt>
      <trkpt lat="49.03874" lon="7.75233">
        <ele>292.2</ele>
        <time>2022-05-01T09:07:54Z</time>
      </trkpt>
      <trkpt lat="49.03875" lon="7.75229">
        <ele>292.2</ele>
        <time>2022-05-01T09:07:55Z</time>
      </trkpt>
      <trkpt lat="49.03876" lon="7.75226">
        <ele>292.2</ele>
        <time>2022-05-01T09:07:56Z</time>
      </trkpt>
      <trkpt lat="49.03877" lon="7.75223">
        <ele>292.4</ele>
        <time>2022-05-01T09:07:57Z</time>
      </trkpt>
      <trkpt lat="49.03877" lon="7.75219">
        <ele>292.6</ele>
        <time>2022-05-01T09:07:58Z</time>
      </trkpt>
      <trkpt lat="49.0388" lon="7.75215">
        <ele>292.8</ele>
        <time>2022-05-01T09:07:59Z</time>
      </trkpt>
      <trkpt lat="49.03879" lon="7.75212">
        <ele>293</ele>
        <time>2022-05-01T09:08:00Z</time>
      </trkpt>
      <trkpt lat="49.03878" lon="7.75208">
        <ele>293.2</ele>
        <time>2022-05-01T09:08:01Z</time>
      </trkpt>
      <trkpt lat="49.03878" lon="7.75204">
        <ele>293.4</ele>
        <time>2022-05-01T09:08:02Z</time>
      </trkpt>
      <trkpt lat="49.03878" lon="7.752">
        <ele>293.6</ele>
        <time>2022-05-01T09:08:03Z</time>
      </trkpt>
      <trkpt lat="49.03878" lon="7.75197">
        <ele>293.6</ele>
        <time>2022-05-01T09:08:04Z</time>
      </trkpt>
      <trkpt lat="49.03878" lon="7.75192">
        <ele>293.8</ele>
        <time>2022-05-01T09:08:05Z</time>
      </trkpt>
      <trkpt lat="49.03876" lon="7.75189">
        <ele>293.8</ele>
        <time>2022-05-01T09:08:06Z</time>
      </trkpt>
      <trkpt lat="49.03876" lon="7.75185">
        <ele>294</ele>
        <time>2022-05-01T09:08:07Z</time>
      </trkpt>
      <trkpt lat="49.03875" lon="7.75181">
        <ele>294</ele>
        <time>2022-05-01T09:08:08Z</time>
      </trkpt>
      <trkpt lat="49.03875" lon="7.75178">
        <ele>294.4</ele>
        <time>2022-05-01T09:08:09Z</time>
      </trkpt>
      <trkpt lat="49.03875" lon="7.75176">
        <ele>294.4</ele>
        <time>2022-05-01T09:08:10Z</time>
      </trkpt>
      <trkpt lat="49.03877" lon="7.75173">
        <ele>294.6</ele>
        <time>2022-05-01T09:08:11Z</time>
      </trkpt>
      <trkpt lat="49.03878" lon="7.75171">
        <ele>294.8</ele>
        <time>2022-05-01T09:08:12Z</time>
      </trkpt>
      <trkpt lat="49.03877" lon="7.75168">
        <ele>295</ele>
        <time>2022-05-01T09:08:13Z</time>
      </trkpt>
      <trkpt lat="49.03878" lon="7.75166">
        <ele>295.2</ele>
        <time>2022-05-01T09:08:14Z</time>
      </trkpt>
      <trkpt lat="49.03879" lon="7.75163">
        <ele>295.4</ele>
        <time>2022-05-01T09:08:15Z</time>
      </trkpt>
      <trkpt lat="49.0388" lon="7.75161">
        <ele>295.6</ele>
        <time>2022-05-01T09:08:16Z</time>
      </trkpt>
      <trkpt lat="49.03881" lon="7.7516">
        <ele>295.8</ele>
        <time>2022-05-01T09:08:17Z</time>
      </trkpt>
      <trkpt lat="49.03882" lon="7.75156">
        <ele>295.8</ele>
        <time>2022-05-01T09:08:18Z</time>
      </trkpt>
      <trkpt lat="49.03883" lon="7.75154">
        <ele>296</ele>
        <time>2022-05-01T09:08:19Z</time>
      </trkpt>
      <trkpt lat="49.03884" lon="7.75152">
        <ele>296.2</ele>
        <time>2022-05-01T09:08:20Z</time>
      </trkpt>
      <trkpt lat="49.03885" lon="7.7515">
        <ele>296.2</ele>
        <time>2022-05-01T09:08:21Z</time>
      </trkpt>
      <trkpt lat="49.03887" lon="7.7515">
        <ele>296.4</ele>
        <time>2022-05-01T09:08:22Z</time>
      </trkpt>
      <trkpt lat="49.03888" lon="7.75149">
        <ele>296.6</ele>
        <time>2022-05-01T09:08:23Z</time>
      </trkpt>
      <trkpt lat="49.0389" lon="7.75149">
        <ele>296.8</ele>
        <time>2022-05-01T09:08:24Z</time>
      </trkpt>
      <trkpt lat="49.03891" lon="7.75149">
        <ele>297</ele>
        <time>2022-05-01T09:08:25Z</time>
      </trkpt>
      <trkpt lat="49.03892" lon="7.7515">
        <ele>297.2</ele>
        <time>2022-05-01T09:08:26Z</time>
      </trkpt>
      <trkpt lat="49.03894" lon="7.75151">
        <ele>297.4</ele>
        <time>2022-05-01T09:08:27Z</time>
      </trkpt>
      <trkpt lat="49.03896" lon="7.75152">
        <ele>297.6</ele>
        <time>2022-05-01T09:08:28Z</time>
      </trkpt>
      <trkpt lat="49.03898" lon="7.75153">
        <ele>297.8</ele>
        <time>2022-05-01T09:08:29Z</time>
      </trkpt>
      <trkpt lat="49.039" lon="7.75154">
        <ele>298.2</ele>
        <time>2022-05-01T09:08:30Z</time>
      </trkpt>
      <trkpt lat="49.03901" lon="7.75156">
        <ele>298.4</ele>
        <time>2022-05-01T09:08:31Z</time>
      </trkpt>
      <trkpt lat="49.03902" lon="7.75159">
        <ele>298.6</ele>
        <time>2022-05-01T09:08:32Z</time>
      </trkpt>
      <trkpt lat="49.03904" lon="7.7516">
        <ele>298.8</ele>
        <time>2022-05-01T09:08:33Z</time>
      </trkpt>
      <trkpt lat="49.03906" lon="7.7516">
        <ele>299</ele>
        <time>2022-05-01T09:08:34Z</time>
      </trkpt>
      <trkpt lat="49.03908" lon="7.75161">
        <ele>299.2</ele>
        <time>2022-05-01T09:08:35Z</time>
      </trkpt>
      <trkpt lat="49.0391" lon="7.75163">
        <ele>299.4</ele>
        <time>2022-05-01T09:08:36Z</time>
      </trkpt>
      <trkpt lat="49.03912" lon="7.75166">
        <ele>299.8</ele>
        <time>2022-05-01T09:08:37Z</time>
      </trkpt>
      <trkpt lat="49.03914" lon="7.75169">
        <ele>300</ele>
        <time>2022-05-01T09:08:38Z</time>
      </trkpt>
      <trkpt lat="49.03915" lon="7.75172">
        <ele>300.4</ele>
        <time>2022-05-01T09:08:39Z</time>
      </trkpt>
      <trkpt lat="49.03917" lon="7.75173">
        <ele>300.6</ele>
        <time>2022-05-01T09:08:40Z</time>
      </trkpt>
      <trkpt lat="49.03919" lon="7.75175">
        <ele>300.8</ele>
        <time>2022-05-01T09:08:41Z</time>
      </trkpt>
      <trkpt lat="49.03921" lon="7.75176">
        <ele>300.8</ele>
        <time>2022-05-01T09:08:42Z</time>
      </trkpt>
      <trkpt lat="49.03924" lon="7.75178">
        <ele>301</ele>
        <time>2022-05-01T09:08:43Z</time>
      </trkpt>
      <trkpt lat="49.03925" lon="7.75182">
        <ele>301.2</ele>
        <time>2022-05-01T09:08:44Z</time>
      </trkpt>
      <trkpt lat="49.03926" lon="7.75185">
        <ele>301.4</ele>
        <time>2022-05-01T09:08:45Z</time>
      </trkpt>
      <trkpt lat="49.03927" lon="7.75189">
        <ele>301.6</ele>
        <time>2022-05-01T09:08:46Z</time>
      </trkpt>
      <trkpt lat="49.03929" lon="7.75191">
        <ele>301.6</ele>
        <time>2022-05-01T09:08:47Z</time>
      </trkpt>
      <trkpt lat="49.03931" lon="7.75192">
        <ele>301.8</ele>
        <time>2022-05-01T09:08:48Z</time>
      </trkpt>
      <trkpt lat="49.03931" lon="7.75195">
        <ele>302</ele>
        <time>2022-05-01T09:08:49Z</time>
      </trkpt>
      <trkpt lat="49.03932" lon="7.75198">
        <ele>302.2</ele>
        <time>2022-05-01T09:08:50Z</time>
      </trkpt>
      <trkpt lat="49.03934" lon="7.75199">
        <ele>302.4</ele>
        <time>2022-05-01T09:08:51Z</time>
      </trkpt>
      <trkpt lat="49.03937" lon="7.752">
        <ele>302.6</ele>
        <time>2022-05-01T09:08:52Z</time>
      </trkpt>
      <trkpt lat="49.0394" lon="7.75202">
        <ele>302.6</ele>
        <time>2022-05-01T09:08:53Z</time>
      </trkpt>
      <trkpt lat="49.03942" lon="7.75202">
        <ele>302.8</ele>
        <time>2022-05-01T09:08:54Z</time>
      </trkpt>
      <trkpt lat="49.03945" lon="7.75207">
        <ele>303</ele>
        <time>2022-05-01T09:08:55Z</time>
      </trkpt>
      <trkpt lat="49.03947" lon="7.75209">
        <ele>303.2</ele>
        <time>2022-05-01T09:08:56Z</time>
      </trkpt>
      <trkpt lat="49.03948" lon="7.75211">
        <ele>303.6</ele>
        <time>2022-05-01T09:08:57Z</time>
      </trkpt>
      <trkpt lat="49.0395" lon="7.75214">
        <ele>303.8</ele>
        <time>2022-05-01T09:08:58Z</time>
      </trkpt>
      <trkpt lat="49.03951" lon="7.75215">
        <ele>304</ele>
        <time>2022-05-01T09:08:59Z</time>
      </trkpt>
      <trkpt lat="49.03954" lon="7.75216">
        <ele>304.2</ele>
        <time>2022-05-01T09:09:00Z</time>
      </trkpt>
      <trkpt lat="49.03956" lon="7.75217">
        <ele>304.4</ele>
        <time>2022-05-01T09:09:01Z</time>
      </trkpt>
      <trkpt lat="49.03958" lon="7.75218">
        <ele>304.4</ele>
        <time>2022-05-01T09:09:02Z</time>
      </trkpt>
      <trkpt lat="49.0396" lon="7.75219">
        <ele>304.8</ele>
        <time>2022-05-01T09:09:03Z</time>
      </trkpt>
      <trkpt lat="49.03961" lon="7.7522">
        <ele>305</ele>
        <time>2022-05-01T09:09:04Z</time>
      </trkpt>
      <trkpt lat="49.03963" lon="7.75221">
        <ele>305.2</ele>
        <time>2022-05-01T09:09:05Z</time>
      </trkpt>
      <trkpt lat="49.03965" lon="7.75223">
        <ele>305.4</ele>
        <time>2022-05-01T09:09:06Z</time>
      </trkpt>
      <trkpt lat="49.03966" lon="7.75224">
        <ele>305.6</ele>
        <time>2022-05-01T09:09:07Z</time>
      </trkpt>
      <trkpt lat="49.03967" lon="7.75225">
        <ele>305.6</ele>
        <time>2022-05-01T09:09:08Z</time>
      </trkpt>
      <trkpt lat="49.03969" lon="7.75226">
        <ele>305.8</ele>
        <time>2022-05-01T09:09:09Z</time>
      </trkpt>
      <trkpt lat="49.0397" lon="7.75229">
        <ele>306</ele>
        <time>2022-05-01T09:09:10Z</time>
      </trkpt>
      <trkpt lat="49.03971" lon="7.75231">
        <ele>306</ele>
        <time>2022-05-01T09:09:11Z</time>
      </trkpt>
      <trkpt lat="49.03973" lon="7.75233">
        <ele>306.2</ele>
        <time>2022-05-01T09:09:12Z</time>
      </trkpt>
      <trkpt lat="49.03975" lon="7.75236">
        <ele>306.4</ele>
        <time>2022-05-01T09:09:13Z</time>
      </trkpt>
      <trkpt lat="49.03977" lon="7.75238">
        <ele>306.4</ele>
        <time>2022-05-01T09:09:14Z</time>
      </trkpt>
      <trkpt lat="49.0398" lon="7.7524">
        <ele>306.6</ele>
        <time>2022-05-01T09:09:15Z</time>
      </trkpt>
      <trkpt lat="49.03983" lon="7.75242">
        <ele>306.8</ele>
        <time>2022-05-01T09:09:16Z</time>
      </trkpt>
      <trkpt lat="49.03986" lon="7.75243">
        <ele>307</ele>
        <time>2022-05-01T09:09:17Z</time>
      </trkpt>
      <trkpt lat="49.03988" lon="7.75245">
        <ele>307</ele>
        <time>2022-05-01T09:09:18Z</time>
      </trkpt>
      <trkpt lat="49.0399" lon="7.75246">
        <ele>307.2</ele>
        <time>2022-05-01T09:09:19Z</time>
      </trkpt>
      <trkpt lat="49.03992" lon="7.75248">
        <ele>307.4</ele>
        <time>2022-05-01T09:09:20Z</time>
      </trkpt>
      <trkpt lat="49.03994" lon="7.75252">
        <ele>307.6</ele>
        <time>2022-05-01T09:09:21Z</time>
      </trkpt>
      <trkpt lat="49.03996" lon="7.75253">
        <ele>307.8</ele>
        <time>2022-05-01T09:09:22Z</time>
      </trkpt>
      <trkpt lat="49.03998" lon="7.75255">
        <ele>308</ele>
        <time>2022-05-01T09:09:23Z</time>
      </trkpt>
      <trkpt lat="49.04" lon="7.75257">
        <ele>308.2</ele>
        <time>2022-05-01T09:09:24Z</time>
      </trkpt>
      <trkpt lat="49.04002" lon="7.75259">
        <ele>308.2</ele>
        <time>2022-05-01T09:09:25Z</time>
      </trkpt>
      <trkpt lat="49.04004" lon="7.75261">
        <ele>308.4</ele>
        <time>2022-05-01T09:09:26Z</time>
      </trkpt>
      <trkpt lat="49.04007" lon="7.75262">
        <ele>308.6</ele>
        <time>2022-05-01T09:09:27Z</time>
      </trkpt>
      <trkpt lat="49.04009" lon="7.75264">
        <ele>308.8</ele>
        <time>2022-05-01T09:09:28Z</time>
      </trkpt>
      <trkpt lat="49.0401" lon="7.75266">
        <ele>308.8</ele>
        <time>2022-05-01T09:09:29Z</time>
      </trkpt>
      <trkpt lat="49.04012" lon="7.75269">
        <ele>309</ele>
        <time>2022-05-01T09:09:30Z</time>
      </trkpt>
      <trkpt lat="49.04014" lon="7.75272">
        <ele>309.2</ele>
        <time>2022-05-01T09:09:31Z</time>
      </trkpt>
      <trkpt lat="49.04016" lon="7.75273">
        <ele>309.4</ele>
        <time>2022-05-01T09:09:32Z</time>
      </trkpt>
      <trkpt lat="49.04019" lon="7.75274">
        <ele>309.6</ele>
        <time>2022-05-01T09:09:33Z</time>
      </trkpt>
      <trkpt lat="49.0402" lon="7.75276">
        <ele>309.8</ele>
        <time>2022-05-01T09:09:34Z</time>
      </trkpt>
      <trkpt lat="49.04022" lon="7.75277">
        <ele>310</ele>
        <time>2022-05-01T09:09:35Z</time>
      </trkpt>
      <trkpt lat="49.04024" lon="7.75278">
        <ele>310.2</ele>
        <time>2022-05-01T09:09:36Z</time>
      </trkpt>
      <trkpt lat="49.04026" lon="7.7528">
        <ele>310.4</ele>
        <time>2022-05-01T09:09:37Z</time>
      </trkpt>
      <trkpt lat="49.04029" lon="7.75281">
        <ele>310.6</ele>
        <time>2022-05-01T09:09:38Z</time>
      </trkpt>
      <trkpt lat="49.04031" lon="7.75281">
        <ele>310.8</ele>
        <time>2022-05-01T09:09:39Z</time>
      </trkpt>
      <trkpt lat="49.04033" lon="7.75282">
        <ele>311</ele>
        <time>2022-05-01T09:09:40Z</time>
      </trkpt>
      <trkpt lat="49.04035" lon="7.75282">
        <ele>311.2</ele>
        <time>2022-05-01T09:09:41Z</time>
      </trkpt>
      <trkpt lat="49.04038" lon="7.75282">
        <ele>311.4</ele>
        <time>2022-05-01T09:09:42Z</time>
      </trkpt>
      <trkpt lat="49.0404" lon="7.75282">
        <ele>311.6</ele>
        <time>2022-05-01T09:09:43Z</time>
      </trkpt>
      <trkpt lat="49.04041" lon="7.75282">
        <ele>311.6</ele>
        <time>2022-05-01T09:09:44Z</time>
      </trkpt>
      <trkpt lat="49.04043" lon="7.75281">
        <ele>311.8</ele>
        <time>2022-05-01T09:09:45Z</time>
      </trkpt>
      <trkpt lat="49.04045" lon="7.75281">
        <ele>312.2</ele>
        <time>2022-05-01T09:09:46Z</time>
      </trkpt>
      <trkpt lat="49.04046" lon="7.75281">
        <ele>312.2</ele>
        <time>2022-05-01T09:09:47Z</time>
      </trkpt>
      <trkpt lat="49.04048" lon="7.75279">
        <ele>312.4</ele>
        <time>2022-05-01T09:09:48Z</time>
      </trkpt>
      <trkpt lat="49.0405" lon="7.75278">
        <ele>312.6</ele>
        <time>2022-05-01T09:09:49Z</time>
      </trkpt>
      <trkpt lat="49.04053" lon="7.75276">
        <ele>313</ele>
        <time>2022-05-01T09:09:50Z</time>
      </trkpt>
      <trkpt lat="49.04056" lon="7.75273">
        <ele>313.2</ele>
        <time>2022-05-01T09:09:51Z</time>
      </trkpt>
      <trkpt lat="49.04058" lon="7.75272">
        <ele>313.2</ele>
        <time>2022-05-01T09:09:52Z</time>
      </trkpt>
      <trkpt lat="49.04061" lon="7.7527">
        <ele>313.6</ele>
        <time>2022-05-01T09:09:53Z</time>
      </trkpt>
      <trkpt lat="49.04064" lon="7.75267">
        <ele>313.8</ele>
        <time>2022-05-01T09:09:54Z</time>
      </trkpt>
      <trkpt lat="49.04066" lon="7.75264">
        <ele>314</ele>
        <time>2022-05-01T09:09:55Z</time>
      </trkpt>
      <trkpt lat="49.04068" lon="7.75261">
        <ele>314.2</ele>
        <time>2022-05-01T09:09:56Z</time>
      </trkpt>
      <trkpt lat="49.0407" lon="7.75258">
        <ele>314.4</ele>
        <time>2022-05-01T09:09:57Z</time>
      </trkpt>
      <trkpt lat="49.04073" lon="7.75255">
        <ele>314.8</ele>
        <time>2022-05-01T09:09:58Z</time>
      </trkpt>
      <trkpt lat="49.04075" lon="7.75253">
        <ele>315</ele>
        <time>2022-05-01T09:09:59Z</time>
      </trkpt>
      <trkpt lat="49.04077" lon="7.7525">
        <ele>315.4</ele>
        <time>2022-05-01T09:10:00Z</time>
      </trkpt>
      <trkpt lat="49.04078" lon="7.75248">
        <ele>315.6</ele>
        <time>2022-05-01T09:10:01Z</time>
      </trkpt>
      <trkpt lat="49.0408" lon="7.75246">
        <ele>315.8</ele>
        <time>2022-05-01T09:10:02Z</time>
      </trkpt>
      <trkpt lat="49.04082" lon="7.75243">
        <ele>316</ele>
        <time>2022-05-01T09:10:03Z</time>
      </trkpt>
      <trkpt lat="49.04084" lon="7.7524">
        <ele>316.2</ele>
        <time>2022-05-01T09:10:04Z</time>
      </trkpt>
      <trkpt lat="49.04086" lon="7.75238">
        <ele>316.4</ele>
        <time>2022-05-01T09:10:05Z</time>
      </trkpt>
      <trkpt lat="49.04088" lon="7.75235">
        <ele>316.4</ele>
        <time>2022-05-01T09:10:06Z</time>
      </trkpt>
      <trkpt lat="49.04089" lon="7.75232">
        <ele>316.6</ele>
        <time>2022-05-01T09:10:07Z</time>
      </trkpt>
      <trkpt lat="49.04091" lon="7.75229">
        <ele>316.6</ele>
        <time>2022-05-01T09:10:08Z</time>
      </trkpt>
      <trkpt lat="49.04093" lon="7.75226">
        <ele>316.8</ele>
        <time>2022-05-01T09:10:09Z</time>
      </trkpt>
      <trkpt lat="49.04094" lon="7.75222">
        <ele>317</ele>
        <time>2022-05-01T09:10:10Z</time>
      </trkpt>
      <trkpt lat="49.04095" lon="7.75219">
        <ele>317.2</ele>
        <time>2022-05-01T09:10:11Z</time>
      </trkpt>
      <trkpt lat="49.04099" lon="7.75216">
        <ele>317.2</ele>
        <time>2022-05-01T09:10:12Z</time>
      </trkpt>
      <trkpt lat="49.04101" lon="7.75212">
        <ele>317.4</ele>
        <time>2022-05-01T09:10:13Z</time>
      </trkpt>
      <trkpt lat="49.04101" lon="7.75209">
        <ele>317.6</ele>
        <time>2022-05-01T09:10:14Z</time>
      </trkpt>
      <trkpt lat="49.04101" lon="7.75205">
        <ele>317.8</ele>
        <time>2022-05-01T09:10:15Z</time>
      </trkpt>
      <trkpt lat="49.04101" lon="7.75202">
        <ele>317.8</ele>
        <time>2022-05-01T09:10:16Z</time>
      </trkpt>
      <trkpt lat="49.04101" lon="7.75198">
        <ele>317.8</ele>
        <time>2022-05-01T09:10:17Z</time>
      </trkpt>
      <trkpt lat="49.04101" lon="7.75195">
        <ele>318</ele>
        <time>2022-05-01T09:10:18Z</time>
      </trkpt>
      <trkpt lat="49.04102" lon="7.75192">
        <ele>318.2</ele>
        <time>2022-05-01T09:10:19Z</time>
      </trkpt>
      <trkpt lat="49.04102" lon="7.75189">
        <ele>318.4</ele>
        <time>2022-05-01T09:10:20Z</time>
      </trkpt>
      <trkpt lat="49.04101" lon="7.75186">
        <ele>318.6</ele>
        <time>2022-05-01T09:10:21Z</time>
      </trkpt>
      <trkpt lat="49.04105" lon="7.75183">
        <ele>318.6</ele>
        <time>2022-05-01T09:10:22Z</time>
      </trkpt>
      <trkpt lat="49.04106" lon="7.7518">
        <ele>319</ele>
        <time>2022-05-01T09:10:23Z</time>
      </trkpt>
      <trkpt lat="49.04105" lon="7.75177">
        <ele>319</ele>
        <time>2022-05-01T09:10:24Z</time>
      </trkpt>
      <trkpt lat="49.04103" lon="7.75174">
        <ele>319.2</ele>
        <time>2022-05-01T09:10:25Z</time>
      </trkpt>
      <trkpt lat="49.04103" lon="7.75171">
        <ele>319.2</ele>
        <time>2022-05-01T09:10:26Z</time>
      </trkpt>
      <trkpt lat="49.04102" lon="7.75168">
        <ele>319.4</ele>
        <time>2022-05-01T09:10:27Z</time>
      </trkpt>
      <trkpt lat="49.04101" lon="7.75165">
        <ele>319.6</ele>
        <time>2022-05-01T09:10:28Z</time>
      </trkpt>
      <trkpt lat="49.04101" lon="7.75162">
        <ele>319.8</ele>
        <time>2022-05-01T09:10:29Z</time>
      </trkpt>
      <trkpt lat="49.04103" lon="7.75159">
        <ele>320.2</ele>
        <time>2022-05-01T09:10:30Z</time>
      </trkpt>
      <trkpt lat="49.04103" lon="7.75155">
        <ele>320.6</ele>
        <time>2022-05-01T09:10:31Z</time>
      </trkpt>
      <trkpt lat="49.04102" lon="7.75153">
        <ele>320.6</ele>
        <time>2022-05-01T09:10:32Z</time>
      </trkpt>
      <trkpt lat="49.04102" lon="7.75149">
        <ele>321</ele>
        <time>2022-05-01T09:10:33Z</time>
      </trkpt>
      <trkpt lat="49.04102" lon="7.75146">
        <ele>321.2</ele>
        <time>2022-05-01T09:10:34Z</time>
      </trkpt>
      <trkpt lat="49.04101" lon="7.75142">
        <ele>321.2</ele>
        <time>2022-05-01T09:10:35Z</time>
      </trkpt>
      <trkpt lat="49.041" lon="7.75139">
        <ele>321.4</ele>
        <time>2022-05-01T09:10:36Z</time>
      </trkpt>
      <trkpt lat="49.041" lon="7.75137">
        <ele>321.4</ele>
        <time>2022-05-01T09:10:37Z</time>
      </trkpt>
      <trkpt lat="49.041" lon="7.75134">
        <ele>321.6</ele>
        <time>2022-05-01T09:10:38Z</time>
      </trkpt>
      <trkpt lat="49.04099" lon="7.75131">
        <ele>321.8</ele>
        <time>2022-05-01T09:10:39Z</time>
      </trkpt>
      <trkpt lat="49.04099" lon="7.75128">
        <ele>322</ele>
        <time>2022-05-01T09:10:40Z</time>
      </trkpt>
      <trkpt lat="49.04099" lon="7.75125">
        <ele>322.2</ele>
        <time>2022-05-01T09:10:41Z</time>
      </trkpt>
      <trkpt lat="49.04099" lon="7.75122">
        <ele>322.4</ele>
        <time>2022-05-01T09:10:42Z</time>
      </trkpt>
      <trkpt lat="49.04098" lon="7.7512">
        <ele>322.6</ele>
        <time>2022-05-01T09:10:43Z</time>
      </trkpt>
      <trkpt lat="49.04097" lon="7.75117">
        <ele>322.8</ele>
        <time>2022-05-01T09:10:44Z</time>
      </trkpt>
      <trkpt lat="49.04096" lon="7.75115">
        <ele>323</ele>
        <time>2022-05-01T09:10:45Z</time>
      </trkpt>
      <trkpt lat="49.04096" lon="7.75113">
        <ele>323</ele>
        <time>2022-05-01T09:10:46Z</time>
      </trkpt>
      <trkpt lat="49.04096" lon="7.75111">
        <ele>323.2</ele>
        <time>2022-05-01T09:10:47Z</time>
      </trkpt>
      <trkpt lat="49.04096" lon="7.75108">
        <ele>323.6</ele>
        <time>2022-05-01T09:10:48Z</time>
      </trkpt>
      <trkpt lat="49.04095" lon="7.75106">
        <ele>323.6</ele>
        <time>2022-05-01T09:10:49Z</time>
      </trkpt>
      <trkpt lat="49.04093" lon="7.75103">
        <ele>323.8</ele>
        <time>2022-05-01T09:10:50Z</time>
      </trkpt>
      <trkpt lat="49.04091" lon="7.751">
        <ele>324</ele>
        <time>2022-05-01T09:10:51Z</time>
      </trkpt>
      <trkpt lat="49.04091" lon="7.75098">
        <ele>324.2</ele>
        <time>2022-05-01T09:10:52Z</time>
      </trkpt>
      <trkpt lat="49.0409" lon="7.75095">
        <ele>324.4</ele>
        <time>2022-05-01T09:10:53Z</time>
      </trkpt>
      <trkpt lat="49.04089" lon="7.75092">
        <ele>324.6</ele>
        <time>2022-05-01T09:10:54Z</time>
      </trkpt>
      <trkpt lat="49.04089" lon="7.7509">
        <ele>324.8</ele>
        <time>2022-05-01T09:10:55Z</time>
      </trkpt>
      <trkpt lat="49.04087" lon="7.75087">
        <ele>325</ele>
        <time>2022-05-01T09:10:56Z</time>
      </trkpt>
      <trkpt lat="49.04086" lon="7.75085">
        <ele>325.2</ele>
        <time>2022-05-01T09:10:57Z</time>
      </trkpt>
      <trkpt lat="49.04085" lon="7.75082">
        <ele>325.4</ele>
        <time>2022-05-01T09:10:58Z</time>
      </trkpt>
      <trkpt lat="49.04084" lon="7.75079">
        <ele>325.6</ele>
        <time>2022-05-01T09:10:59Z</time>
      </trkpt>
      <trkpt lat="49.04083" lon="7.75076">
        <ele>325.8</ele>
        <time>2022-05-01T09:11:00Z</time>
      </trkpt>
      <trkpt lat="49.04082" lon="7.75072">
        <ele>326</ele>
        <time>2022-05-01T09:11:01Z</time>
      </trkpt>
      <trkpt lat="49.04082" lon="7.7507">
        <ele>326</ele>
        <time>2022-05-01T09:11:02Z</time>
      </trkpt>
      <trkpt lat="49.04081" lon="7.75067">
        <ele>326.2</ele>
        <time>2022-05-01T09:11:03Z</time>
      </trkpt>
      <trkpt lat="49.04081" lon="7.75064">
        <ele>326.4</ele>
        <time>2022-05-01T09:11:04Z</time>
      </trkpt>
      <trkpt lat="49.04081" lon="7.75062">
        <ele>326.4</ele>
        <time>2022-05-01T09:11:05Z</time>
      </trkpt>
      <trkpt lat="49.0408" lon="7.7506">
        <ele>326.6</ele>
        <time>2022-05-01T09:11:06Z</time>
      </trkpt>
      <trkpt lat="49.04081" lon="7.75058">
        <ele>327</ele>
        <time>2022-05-01T09:11:07Z</time>
      </trkpt>
      <trkpt lat="49.0408" lon="7.75054">
        <ele>327</ele>
        <time>2022-05-01T09:11:08Z</time>
      </trkpt>
      <trkpt lat="49.04079" lon="7.7505">
        <ele>327.2</ele>
        <time>2022-05-01T09:11:09Z</time>
      </trkpt>
      <trkpt lat="49.0408" lon="7.75047">
        <ele>327.4</ele>
        <time>2022-05-01T09:11:10Z</time>
      </trkpt>
      <trkpt lat="49.04079" lon="7.75044">
        <ele>327.6</ele>
        <time>2022-05-01T09:11:11Z</time>
      </trkpt>
      <trkpt lat="49.04079" lon="7.75041">
        <ele>327.8</ele>
        <time>2022-05-01T09:11:12Z</time>
      </trkpt>
      <trkpt lat="49.04077" lon="7.75039">
        <ele>328</ele>
        <time>2022-05-01T09:11:13Z</time>
      </trkpt>
      <trkpt lat="49.04075" lon="7.75036">
        <ele>328</ele>
        <time>2022-05-01T09:11:14Z</time>
      </trkpt>
      <trkpt lat="49.04076" lon="7.75033">
        <ele>328.2</ele>
        <time>2022-05-01T09:11:15Z</time>
      </trkpt>
      <trkpt lat="49.04076" lon="7.7503">
        <ele>328.4</ele>
        <time>2022-05-01T09:11:16Z</time>
      </trkpt>
      <trkpt lat="49.04076" lon="7.75027">
        <ele>328.8</ele>
        <time>2022-05-01T09:11:17Z</time>
      </trkpt>
      <trkpt lat="49.04075" lon="7.75024">
        <ele>329</ele>
        <time>2022-05-01T09:11:18Z</time>
      </trkpt>
      <trkpt lat="49.04074" lon="7.7502">
        <ele>329.2</ele>
        <time>2022-05-01T09:11:19Z</time>
      </trkpt>
      <trkpt lat="49.04073" lon="7.75016">
        <ele>329.4</ele>
        <time>2022-05-01T09:11:20Z</time>
      </trkpt>
      <trkpt lat="49.04073" lon="7.75013">
        <ele>329.4</ele>
        <time>2022-05-01T09:11:21Z</time>
      </trkpt>
      <trkpt lat="49.04073" lon="7.75011">
        <ele>329.8</ele>
        <time>2022-05-01T09:11:22Z</time>
      </trkpt>
      <trkpt lat="49.04073" lon="7.75007">
        <ele>330</ele>
        <time>2022-05-01T09:11:23Z</time>
      </trkpt>
      <trkpt lat="49.04073" lon="7.75003">
        <ele>330.2</ele>
        <time>2022-05-01T09:11:24Z</time>
      </trkpt>
      <trkpt lat="49.04071" lon="7.75">
        <ele>330.4</ele>
        <time>2022-05-01T09:11:25Z</time>
      </trkpt>
      <trkpt lat="49.04072" lon="7.74997">
        <ele>330.6</ele>
        <time>2022-05-01T09:11:26Z</time>
      </trkpt>
      <trkpt lat="49.04071" lon="7.74994">
        <ele>330.8</ele>
        <time>2022-05-01T09:11:27Z</time>
      </trkpt>
      <trkpt lat="49.04073" lon="7.74992">
        <ele>330.8</ele>
        <time>2022-05-01T09:11:28Z</time>
      </trkpt>
      <trkpt lat="49.04075" lon="7.74989">
        <ele>331.2</ele>
        <time>2022-05-01T09:11:29Z</time>
      </trkpt>
      <trkpt lat="49.04074" lon="7.74986">
        <ele>331.4</ele>
        <time>2022-05-01T09:11:30Z</time>
      </trkpt>
      <trkpt lat="49.04074" lon="7.74984">
        <ele>331.4</ele>
        <time>2022-05-01T09:11:31Z</time>
      </trkpt>
      <trkpt lat="49.04073" lon="7.74981">
        <ele>331.8</ele>
        <time>2022-05-01T09:11:32Z</time>
      </trkpt>
      <trkpt lat="49.04072" lon="7.74979">
        <ele>332</ele>
        <time>2022-05-01T09:11:33Z</time>
      </trkpt>
      <trkpt lat="49.04071" lon="7.74976">
        <ele>332.2</ele>
        <time>2022-05-01T09:11:34Z</time>
      </trkpt>
      <trkpt lat="49.0407" lon="7.74973">
        <ele>332.4</ele>
        <time>2022-05-01T09:11:35Z</time>
      </trkpt>
      <trkpt lat="49.0407" lon="7.7497">
        <ele>332.6</ele>
        <time>2022-05-01T09:11:36Z</time>
      </trkpt>
      <trkpt lat="49.04069" lon="7.74967">
        <ele>332.8</ele>
        <time>2022-05-01T09:11:37Z</time>
      </trkpt>
      <trkpt lat="49.04069" lon="7.74963">
        <ele>333</ele>
        <time>2022-05-01T09:11:38Z</time>
      </trkpt>
      <trkpt lat="49.04069" lon="7.74961">
        <ele>333.2</ele>
        <time>2022-05-01T09:11:39Z</time>
      </trkpt>
      <trkpt lat="49.04069" lon="7.74958">
        <ele>333.2</ele>
        <time>2022-05-01T09:11:40Z</time>
      </trkpt>
      <trkpt lat="49.04069" lon="7.74955">
        <ele>333.6</ele>
        <time>2022-05-01T09:11:41Z</time>
      </trkpt>
      <trkpt lat="49.04069" lon="7.74952">
        <ele>333.6</ele>
        <time>2022-05-01T09:11:42Z</time>
      </trkpt>
      <trkpt lat="49.04069" lon="7.74949">
        <ele>333.8</ele>
        <time>2022-05-01T09:11:43Z</time>
      </trkpt>
      <trkpt lat="49.04068" lon="7.74946">
        <ele>334</ele>
        <time>2022-05-01T09:11:44Z</time>
      </trkpt>
      <trkpt lat="49.04068" lon="7.74943">
        <ele>333.8</ele>
        <time>2022-05-01T09:11:45Z</time>
      </trkpt>
      <trkpt lat="49.04068" lon="7.74941">
        <ele>334</ele>
        <time>2022-05-01T09:11:46Z</time>
      </trkpt>
      <trkpt lat="49.04068" lon="7.74938">
        <ele>334.2</ele>
        <time>2022-05-01T09:11:47Z</time>
      </trkpt>
      <trkpt lat="49.04068" lon="7.74935">
        <ele>334.4</ele>
        <time>2022-05-01T09:11:48Z</time>
      </trkpt>
      <trkpt lat="49.04068" lon="7.74932">
        <ele>334.6</ele>
        <time>2022-05-01T09:11:49Z</time>
      </trkpt>
      <trkpt lat="49.04067" lon="7.74929">
        <ele>334.8</ele>
        <time>2022-05-01T09:11:50Z</time>
      </trkpt>
      <trkpt lat="49.04068" lon="7.74927">
        <ele>335</ele>
        <time>2022-05-01T09:11:51Z</time>
      </trkpt>
      <trkpt lat="49.0407" lon="7.74924">
        <ele>335.2</ele>
        <time>2022-05-01T09:11:52Z</time>
      </trkpt>
      <trkpt lat="49.04071" lon="7.74922">
        <ele>335.2</ele>
        <time>2022-05-01T09:11:53Z</time>
      </trkpt>
      <trkpt lat="49.0407" lon="7.74919">
        <ele>335.4</ele>
        <time>2022-05-01T09:11:54Z</time>
      </trkpt>
      <trkpt lat="49.04069" lon="7.74916">
        <ele>335.6</ele>
        <time>2022-05-01T09:11:55Z</time>
      </trkpt>
      <trkpt lat="49.0407" lon="7.74914">
        <ele>335.8</ele>
        <time>2022-05-01T09:11:56Z</time>
      </trkpt>
      <trkpt lat="49.0407" lon="7.74911">
        <ele>336</ele>
        <time>2022-05-01T09:11:57Z</time>
      </trkpt>
      <trkpt lat="49.0407" lon="7.74909">
        <ele>336.2</ele>
        <time>2022-05-01T09:11:58Z</time>
      </trkpt>
      <trkpt lat="49.04071" lon="7.74907">
        <ele>336.4</ele>
        <time>2022-05-01T09:11:59Z</time>
      </trkpt>
      <trkpt lat="49.04072" lon="7.74905">
        <ele>336.4</ele>
        <time>2022-05-01T09:12:00Z</time>
      </trkpt>
      <trkpt lat="49.04073" lon="7.74903">
        <ele>336.6</ele>
        <time>2022-05-01T09:12:01Z</time>
      </trkpt>
      <trkpt lat="49.04074" lon="7.749">
        <ele>336.8</ele>
        <time>2022-05-01T09:12:02Z</time>
      </trkpt>
      <trkpt lat="49.04075" lon="7.74897">
        <ele>337</ele>
        <time>2022-05-01T09:12:03Z</time>
      </trkpt>
      <trkpt lat="49.04075" lon="7.74895">
        <ele>337.4</ele>
        <time>2022-05-01T09:12:04Z</time>
      </trkpt>
      <trkpt lat="49.04076" lon="7.74892">
        <ele>337.2</ele>
        <time>2022-05-01T09:12:05Z</time>
      </trkpt>
      <trkpt lat="49.04078" lon="7.7489">
        <ele>337.4</ele>
        <time>2022-05-01T09:12:06Z</time>
      </trkpt>
      <trkpt lat="49.04082" lon="7.74887">
        <ele>337.6</ele>
        <time>2022-05-01T09:12:07Z</time>
      </trkpt>
      <trkpt lat="49.04082" lon="7.74885">
        <ele>337.8</ele>
        <time>2022-05-01T09:12:08Z</time>
      </trkpt>
      <trkpt lat="49.04081" lon="7.74881">
        <ele>338</ele>
        <time>2022-05-01T09:12:09Z</time>
      </trkpt>
      <trkpt lat="49.04081" lon="7.74878">
        <ele>338.2</ele>
        <time>2022-05-01T09:12:10Z</time>
      </trkpt>
      <trkpt lat="49.04083" lon="7.74874">
        <ele>338.4</ele>
        <time>2022-05-01T09:12:11Z</time>
      </trkpt>
      <trkpt lat="49.04083" lon="7.74872">
        <ele>338.6</ele>
        <time>2022-05-01T09:12:12Z</time>
      </trkpt>
      <trkpt lat="49.04083" lon="7.74869">
        <ele>338.8</ele>
        <time>2022-05-01T09:12:13Z</time>
      </trkpt>
      <trkpt lat="49.04083" lon="7.74866">
        <ele>339</ele>
        <time>2022-05-01T09:12:14Z</time>
      </trkpt>
      <trkpt lat="49.04084" lon="7.74863">
        <ele>339</ele>
        <time>2022-05-01T09:12:15Z</time>
      </trkpt>
      <trkpt lat="49.04084" lon="7.7486">
        <ele>339.2</ele>
        <time>2022-05-01T09:12:16Z</time>
      </trkpt>
      <trkpt lat="49.04084" lon="7.74857">
        <ele>339.4</ele>
        <time>2022-05-01T09:12:17Z</time>
      </trkpt>
      <trkpt lat="49.04084" lon="7.74853">
        <ele>339.6</ele>
        <time>2022-05-01T09:12:18Z</time>
      </trkpt>
      <trkpt lat="49.04084" lon="7.74851">
        <ele>339.8</ele>
        <time>2022-05-01T09:12:19Z</time>
      </trkpt>
      <trkpt lat="49.04085" lon="7.74849">
        <ele>340</ele>
        <time>2022-05-01T09:12:20Z</time>
      </trkpt>
      <trkpt lat="49.04086" lon="7.74846">
        <ele>340.2</ele>
        <time>2022-05-01T09:12:21Z</time>
      </trkpt>
      <trkpt lat="49.04086" lon="7.74842">
        <ele>340.4</ele>
        <time>2022-05-01T09:12:22Z</time>
      </trkpt>
      <trkpt lat="49.04085" lon="7.74839">
        <ele>340.4</ele>
        <time>2022-05-01T09:12:23Z</time>
      </trkpt>
      <trkpt lat="49.04085" lon="7.74836">
        <ele>340.6</ele>
        <time>2022-05-01T09:12:24Z</time>
      </trkpt>
      <trkpt lat="49.04084" lon="7.74833">
        <ele>340.8</ele>
        <time>2022-05-01T09:12:25Z</time>
      </trkpt>
      <trkpt lat="49.04084" lon="7.7483">
        <ele>341</ele>
        <time>2022-05-01T09:12:26Z</time>
      </trkpt>
      <trkpt lat="49.04085" lon="7.74828">
        <ele>341</ele>
        <time>2022-05-01T09:12:27Z</time>
      </trkpt>
      <trkpt lat="49.04086" lon="7.74825">
        <ele>341.2</ele>
        <time>2022-05-01T09:12:28Z</time>
      </trkpt>
      <trkpt lat="49.04087" lon="7.74823">
        <ele>341.4</ele>
        <time>2022-05-01T09:12:29Z</time>
      </trkpt>
      <trkpt lat="49.04088" lon="7.74821">
        <ele>341.6</ele>
        <time>2022-05-01T09:12:30Z</time>
      </trkpt>
      <trkpt lat="49.04089" lon="7.74819">
        <ele>341.8</ele>
        <time>2022-05-01T09:12:31Z</time>
      </trkpt>
      <trkpt lat="49.0409" lon="7.74816">
        <ele>341.8</ele>
        <time>2022-05-01T09:12:32Z</time>
      </trkpt>
      <trkpt lat="49.04092" lon="7.74814">
        <ele>342.2</ele>
        <time>2022-05-01T09:12:33Z</time>
      </trkpt>
      <trkpt lat="49.04093" lon="7.74811">
        <ele>342.4</ele>
        <time>2022-05-01T09:12:34Z</time>
      </trkpt>
      <trkpt lat="49.04095" lon="7.74809">
        <ele>342.6</ele>
        <time>2022-05-01T09:12:35Z</time>
      </trkpt>
      <trkpt lat="49.04096" lon="7.74806">
        <ele>342.8</ele>
        <time>2022-05-01T09:12:36Z</time>
      </trkpt>
      <trkpt lat="49.04095" lon="7.74804">
        <ele>342.8</ele>
        <time>2022-05-01T09:12:37Z</time>
      </trkpt>
      <trkpt lat="49.04095" lon="7.74802">
        <ele>343</ele>
        <time>2022-05-01T09:12:38Z</time>
      </trkpt>
      <trkpt lat="49.04096" lon="7.748">
        <ele>343.2</ele>
        <time>2022-05-01T09:12:39Z</time>
      </trkpt>
      <trkpt lat="49.04097" lon="7.74798">
        <ele>343.2</ele>
        <time>2022-05-01T09:12:40Z</time>
      </trkpt>
      <trkpt lat="49.04099" lon="7.74796">
        <ele>343.4</ele>
        <time>2022-05-01T09:12:41Z</time>
      </trkpt>
      <trkpt lat="49.04101" lon="7.74795">
        <ele>343.4</ele>
        <time>2022-05-01T09:12:42Z</time>
      </trkpt>
      <trkpt lat="49.04103" lon="7.74793">
        <ele>343.6</ele>
        <time>2022-05-01T09:12:43Z</time>
      </trkpt>
      <trkpt lat="49.04103" lon="7.74791">
        <ele>343.8</ele>
        <time>2022-05-01T09:12:44Z</time>
      </trkpt>
      <trkpt lat="49.04104" lon="7.7479">
        <ele>344</ele>
        <time>2022-05-01T09:12:45Z</time>
      </trkpt>
      <trkpt lat="49.04104" lon="7.74789">
        <ele>344</ele>
        <time>2022-05-01T09:12:46Z</time>
      </trkpt>
      <trkpt lat="49.04105" lon="7.74788">
        <ele>344.2</ele>
        <time>2022-05-01T09:12:47Z</time>
      </trkpt>
      <trkpt lat="49.04107" lon="7.74787">
        <ele>344.4</ele>
        <time>2022-05-01T09:12:48Z</time>
      </trkpt>
      <trkpt lat="49.04107" lon="7.74786">
        <ele>344.6</ele>
        <time>2022-05-01T09:12:49Z</time>
      </trkpt>
      <trkpt lat="49.04108" lon="7.74785">
        <ele>344.8</ele>
        <time>2022-05-01T09:12:50Z</time>
      </trkpt>
      <trkpt lat="49.04109" lon="7.74784">
        <ele>345</ele>
        <time>2022-05-01T09:12:51Z</time>
      </trkpt>
      <trkpt lat="49.0411" lon="7.74784">
        <ele>345.2</ele>
        <time>2022-05-01T09:12:52Z</time>
      </trkpt>
      <trkpt lat="49.04111" lon="7.74783">
        <ele>345.4</ele>
        <time>2022-05-01T09:12:53Z</time>
      </trkpt>
      <trkpt lat="49.04112" lon="7.74782">
        <ele>345.6</ele>
        <time>2022-05-01T09:12:54Z</time>
      </trkpt>
      <trkpt lat="49.04113" lon="7.74782">
        <ele>345.6</ele>
        <time>2022-05-01T09:12:55Z</time>
      </trkpt>
      <trkpt lat="49.04114" lon="7.74781">
        <ele>345.8</ele>
        <time>2022-05-01T09:12:56Z</time>
      </trkpt>
      <trkpt lat="49.04115" lon="7.7478">
        <ele>346</ele>
        <time>2022-05-01T09:12:57Z</time>
      </trkpt>
      <trkpt lat="49.04117" lon="7.74779">
        <ele>346.2</ele>
        <time>2022-05-01T09:12:58Z</time>
      </trkpt>
      <trkpt lat="49.04118" lon="7.74778">
        <ele>346.4</ele>
        <time>2022-05-01T09:12:59Z</time>
      </trkpt>
      <trkpt lat="49.04119" lon="7.74778">
        <ele>346.6</ele>
        <time>2022-05-01T09:13:00Z</time>
      </trkpt>
      <trkpt lat="49.0412" lon="7.74777">
        <ele>346.6</ele>
        <time>2022-05-01T09:13:01Z</time>
      </trkpt>
      <trkpt lat="49.04121" lon="7.74776">
        <ele>346.8</ele>
        <time>2022-05-01T09:13:02Z</time>
      </trkpt>
      <trkpt lat="49.04123" lon="7.74776">
        <ele>347</ele>
        <time>2022-05-01T09:13:03Z</time>
      </trkpt>
      <trkpt lat="49.04122" lon="7.74774">
        <ele>347</ele>
        <time>2022-05-01T09:13:04Z</time>
      </trkpt>
      <trkpt lat="49.04124" lon="7.74773">
        <ele>347.2</ele>
        <time>2022-05-01T09:13:05Z</time>
      </trkpt>
      <trkpt lat="49.04125" lon="7.74773">
        <ele>347.4</ele>
        <time>2022-05-01T09:13:06Z</time>
      </trkpt>
      <trkpt lat="49.04126" lon="7.74772">
        <ele>347.6</ele>
        <time>2022-05-01T09:13:07Z</time>
      </trkpt>
      <trkpt lat="49.04128" lon="7.74772">
        <ele>347.8</ele>
        <time>2022-05-01T09:13:08Z</time>
      </trkpt>
      <trkpt lat="49.0413" lon="7.74772">
        <ele>348</ele>
        <time>2022-05-01T09:13:09Z</time>
      </trkpt>
      <trkpt lat="49.04131" lon="7.74772">
        <ele>348.2</ele>
        <time>2022-05-01T09:13:10Z</time>
      </trkpt>
      <trkpt lat="49.04132" lon="7.74772">
        <ele>348.2</ele>
        <time>2022-05-01T09:13:11Z</time>
      </trkpt>
      <trkpt lat="49.04134" lon="7.74771">
        <ele>348.4</ele>
        <time>2022-05-01T09:13:12Z</time>
      </trkpt>
      <trkpt lat="49.04135" lon="7.74771">
        <ele>348.6</ele>
        <time>2022-05-01T09:13:13Z</time>
      </trkpt>
      <trkpt lat="49.04136" lon="7.7477">
        <ele>348.8</ele>
        <time>2022-05-01T09:13:14Z</time>
      </trkpt>
      <trkpt lat="49.04138" lon="7.74769">
        <ele>348.8</ele>
        <time>2022-05-01T09:13:15Z</time>
      </trkpt>
      <trkpt lat="49.04139" lon="7.74769">
        <ele>349</ele>
        <time>2022-05-01T09:13:16Z</time>
      </trkpt>
      <trkpt lat="49.0414" lon="7.74769">
        <ele>349</ele>
        <time>2022-05-01T09:13:17Z</time>
      </trkpt>
      <trkpt lat="49.04141" lon="7.74769">
        <ele>349.2</ele>
        <time>2022-05-01T09:13:18Z</time>
      </trkpt>
      <trkpt lat="49.04142" lon="7.74768">
        <ele>349.4</ele>
        <time>2022-05-01T09:13:19Z</time>
      </trkpt>
      <trkpt lat="49.04143" lon="7.74767">
        <ele>349.6</ele>
        <time>2022-05-01T09:13:20Z</time>
      </trkpt>
      <trkpt lat="49.04144" lon="7.74767">
        <ele>349.8</ele>
        <time>2022-05-01T09:13:21Z</time>
      </trkpt>
      <trkpt lat="49.04146" lon="7.74766">
        <ele>350</ele>
        <time>2022-05-01T09:13:22Z</time>
      </trkpt>
      <trkpt lat="49.04147" lon="7.74765">
        <ele>350.2</ele>
        <time>2022-05-01T09:13:23Z</time>
      </trkpt>
      <trkpt lat="49.04149" lon="7.74765">
        <ele>350.4</ele>
        <time>2022-05-01T09:13:24Z</time>
      </trkpt>
      <trkpt lat="49.04151" lon="7.74764">
        <ele>350.6</ele>
        <time>2022-05-01T09:13:25Z</time>
      </trkpt>
      <trkpt lat="49.04153" lon="7.74764">
        <ele>350.8</ele>
        <time>2022-05-01T09:13:26Z</time>
      </trkpt>
      <trkpt lat="49.04155" lon="7.74763">
        <ele>350.8</ele>
        <time>2022-05-01T09:13:27Z</time>
      </trkpt>
      <trkpt lat="49.04157" lon="7.74762">
        <ele>351</ele>
        <time>2022-05-01T09:13:28Z</time>
      </trkpt>
      <trkpt lat="49.04159" lon="7.74762">
        <ele>351.4</ele>
        <time>2022-05-01T09:13:29Z</time>
      </trkpt>
      <trkpt lat="49.04161" lon="7.74762">
        <ele>351.4</ele>
        <time>2022-05-01T09:13:30Z</time>
      </trkpt>
      <trkpt lat="49.04162" lon="7.74761">
        <ele>351.6</ele>
        <time>2022-05-01T09:13:31Z</time>
      </trkpt>
      <trkpt lat="49.04164" lon="7.74761">
        <ele>352</ele>
        <time>2022-05-01T09:13:32Z</time>
      </trkpt>
      <trkpt lat="49.04166" lon="7.74761">
        <ele>352</ele>
        <time>2022-05-01T09:13:33Z</time>
      </trkpt>
      <trkpt lat="49.0417" lon="7.7476">
        <ele>352.2</ele>
        <time>2022-05-01T09:13:34Z</time>
      </trkpt>
      <trkpt lat="49.04172" lon="7.74757">
        <ele>352.4</ele>
        <time>2022-05-01T09:13:35Z</time>
      </trkpt>
      <trkpt lat="49.04175" lon="7.74755">
        <ele>352.4</ele>
        <time>2022-05-01T09:13:36Z</time>
      </trkpt>
      <trkpt lat="49.04177" lon="7.74754">
        <ele>352.6</ele>
        <time>2022-05-01T09:13:37Z</time>
      </trkpt>
      <trkpt lat="49.0418" lon="7.74752">
        <ele>352.8</ele>
        <time>2022-05-01T09:13:38Z</time>
      </trkpt>
      <trkpt lat="49.04182" lon="7.74751">
        <ele>353</ele>
        <time>2022-05-01T09:13:39Z</time>
      </trkpt>
      <trkpt lat="49.04183" lon="7.74751">
        <ele>353.2</ele>
        <time>2022-05-01T09:13:40Z</time>
      </trkpt>
      <trkpt lat="49.04185" lon="7.74752">
        <ele>353.4</ele>
        <time>2022-05-01T09:13:41Z</time>
      </trkpt>
      <trkpt lat="49.04187" lon="7.74752">
        <ele>353.4</ele>
        <time>2022-05-01T09:13:42Z</time>
      </trkpt>
      <trkpt lat="49.04188" lon="7.74751">
        <ele>353.6</ele>
        <time>2022-05-01T09:13:43Z</time>
      </trkpt>
      <trkpt lat="49.0419" lon="7.74751">
        <ele>353.8</ele>
        <time>2022-05-01T09:13:44Z</time>
      </trkpt>
      <trkpt lat="49.04192" lon="7.74751">
        <ele>353.8</ele>
        <time>2022-05-01T09:13:45Z</time>
      </trkpt>
      <trkpt lat="49.04193" lon="7.74752">
        <ele>354</ele>
        <time>2022-05-01T09:13:46Z</time>
      </trkpt>
      <trkpt lat="49.04195" lon="7.74752">
        <ele>354.2</ele>
        <time>2022-05-01T09:13:47Z</time>
      </trkpt>
      <trkpt lat="49.04196" lon="7.74752">
        <ele>354.4</ele>
        <time>2022-05-01T09:13:48Z</time>
      </trkpt>
      <trkpt lat="49.04196" lon="7.74752">
        <ele>354.6</ele>
        <time>2022-05-01T09:13:49Z</time>
      </trkpt>
      <trkpt lat="49.04196" lon="7.74752">
        <ele>354.6</ele>
        <time>2022-05-01T09:13:50Z</time>
      </trkpt>
      <trkpt lat="49.04197" lon="7.74752">
        <ele>354.8</ele>
        <time>2022-05-01T09:13:51Z</time>
      </trkpt>
      <trkpt lat="49.04201" lon="7.74753">
        <ele>355.2</ele>
        <time>2022-05-01T09:13:53Z</time>
      </trkpt>
      <trkpt lat="49.04203" lon="7.74754">
        <ele>355.6</ele>
        <time>2022-05-01T09:13:54Z</time>
      </trkpt>
      <trkpt lat="49.04203" lon="7.74754">
        <ele>355.8</ele>
        <time>2022-05-01T09:13:55Z</time>
      </trkpt>
      <trkpt lat="49.04205" lon="7.74754">
        <ele>356</ele>
        <time>2022-05-01T09:13:56Z</time>
      </trkpt>
      <trkpt lat="49.04205" lon="7.74754">
        <ele>356</ele>
        <time>2022-05-01T09:13:57Z</time>
      </trkpt>
      <trkpt lat="49.04206" lon="7.74754">
        <ele>356.2</ele>
        <time>2022-05-01T09:13:58Z</time>
      </trkpt>
      <trkpt lat="49.04207" lon="7.74755">
        <ele>356.4</ele>
        <time>2022-05-01T09:13:59Z</time>
      </trkpt>
      <trkpt lat="49.0421" lon="7.74755">
        <ele>356.6</ele>
        <time>2022-05-01T09:14:00Z</time>
      </trkpt>
      <trkpt lat="49.04212" lon="7.74756">
        <ele>356.8</ele>
        <time>2022-05-01T09:14:01Z</time>
      </trkpt>
      <trkpt lat="49.04214" lon="7.74757">
        <ele>357</ele>
        <time>2022-05-01T09:14:02Z</time>
      </trkpt>
      <trkpt lat="49.04216" lon="7.74758">
        <ele>357</ele>
        <time>2022-05-01T09:14:03Z</time>
      </trkpt>
      <trkpt lat="49.04217" lon="7.74759">
        <ele>357.2</ele>
        <time>2022-05-01T09:14:04Z</time>
      </trkpt>
      <trkpt lat="49.0422" lon="7.7476">
        <ele>357.4</ele>
        <time>2022-05-01T09:14:05Z</time>
      </trkpt>
      <trkpt lat="49.04221" lon="7.74762">
        <ele>357.4</ele>
        <time>2022-05-01T09:14:06Z</time>
      </trkpt>
      <trkpt lat="49.04224" lon="7.74763">
        <ele>357.6</ele>
        <time>2022-05-01T09:14:07Z</time>
      </trkpt>
      <trkpt lat="49.04226" lon="7.74764">
        <ele>357.8</ele>
        <time>2022-05-01T09:14:08Z</time>
      </trkpt>
      <trkpt lat="49.04228" lon="7.74766">
        <ele>358</ele>
        <time>2022-05-01T09:14:09Z</time>
      </trkpt>
      <trkpt lat="49.0423" lon="7.74768">
        <ele>358.2</ele>
        <time>2022-05-01T09:14:10Z</time>
      </trkpt>
      <trkpt lat="49.04231" lon="7.74771">
        <ele>358.4</ele>
        <time>2022-05-01T09:14:11Z</time>
      </trkpt>
      <trkpt lat="49.04234" lon="7.74773">
        <ele>358.6</ele>
        <time>2022-05-01T09:14:12Z</time>
      </trkpt>
      <trkpt lat="49.04236" lon="7.74777">
        <ele>358.8</ele>
        <time>2022-05-01T09:14:13Z</time>
      </trkpt>
      <trkpt lat="49.04239" lon="7.7478">
        <ele>358.8</ele>
        <time>2022-05-01T09:14:14Z</time>
      </trkpt>
      <trkpt lat="49.04242" lon="7.74781">
        <ele>359</ele>
        <time>2022-05-01T09:14:15Z</time>
      </trkpt>
      <trkpt lat="49.04244" lon="7.74782">
        <ele>359.2</ele>
        <time>2022-05-01T09:14:16Z</time>
      </trkpt>
      <trkpt lat="49.04246" lon="7.74782">
        <ele>359.2</ele>
        <time>2022-05-01T09:14:17Z</time>
      </trkpt>
      <trkpt lat="49.04249" lon="7.74784">
        <ele>359.6</ele>
        <time>2022-05-01T09:14:18Z</time>
      </trkpt>
      <trkpt lat="49.04251" lon="7.74786">
        <ele>359.8</ele>
        <time>2022-05-01T09:14:19Z</time>
      </trkpt>
      <trkpt lat="49.04253" lon="7.74786">
        <ele>360</ele>
        <time>2022-05-01T09:14:20Z</time>
      </trkpt>
      <trkpt lat="49.04256" lon="7.74787">
        <ele>360.4</ele>
        <time>2022-05-01T09:14:21Z</time>
      </trkpt>
      <trkpt lat="49.04259" lon="7.74788">
        <ele>360.6</ele>
        <time>2022-05-01T09:14:22Z</time>
      </trkpt>
      <trkpt lat="49.04261" lon="7.74788">
        <ele>360.6</ele>
        <time>2022-05-01T09:14:23Z</time>
      </trkpt>
      <trkpt lat="49.04263" lon="7.74789">
        <ele>361</ele>
        <time>2022-05-01T09:14:24Z</time>
      </trkpt>
      <trkpt lat="49.04266" lon="7.74789">
        <ele>361.2</ele>
        <time>2022-05-01T09:14:25Z</time>
      </trkpt>
      <trkpt lat="49.04268" lon="7.7479">
        <ele>361.4</ele>
        <time>2022-05-01T09:14:26Z</time>
      </trkpt>
      <trkpt lat="49.0427" lon="7.74791">
        <ele>361.8</ele>
        <time>2022-05-01T09:14:27Z</time>
      </trkpt>
      <trkpt lat="49.04272" lon="7.74793">
        <ele>362</ele>
        <time>2022-05-01T09:14:28Z</time>
      </trkpt>
      <trkpt lat="49.04275" lon="7.74795">
        <ele>362.2</ele>
        <time>2022-05-01T09:14:29Z</time>
      </trkpt>
      <trkpt lat="49.04278" lon="7.74797">
        <ele>362.4</ele>
        <time>2022-05-01T09:14:30Z</time>
      </trkpt>
      <trkpt lat="49.0428" lon="7.74798">
        <ele>362.6</ele>
        <time>2022-05-01T09:14:31Z</time>
      </trkpt>
      <trkpt lat="49.04284" lon="7.74799">
        <ele>362.6</ele>
        <time>2022-05-01T09:14:32Z</time>
      </trkpt>
      <trkpt lat="49.04287" lon="7.74802">
        <ele>362.8</ele>
        <time>2022-05-01T09:14:33Z</time>
      </trkpt>
      <trkpt lat="49.0429" lon="7.74802">
        <ele>363</ele>
        <time>2022-05-01T09:14:34Z</time>
      </trkpt>
      <trkpt lat="49.04292" lon="7.74801">
        <ele>363.2</ele>
        <time>2022-05-01T09:14:35Z</time>
      </trkpt>
      <trkpt lat="49.04294" lon="7.74802">
        <ele>363.2</ele>
        <time>2022-05-01T09:14:36Z</time>
      </trkpt>
      <trkpt lat="49.04295" lon="7.74805">
        <ele>363.4</ele>
        <time>2022-05-01T09:14:37Z</time>
      </trkpt>
      <trkpt lat="49.04295" lon="7.74807">
        <ele>363.6</ele>
        <time>2022-05-01T09:14:38Z</time>
      </trkpt>
      <trkpt lat="49.04296" lon="7.74804">
        <ele>363.8</ele>
        <time>2022-05-01T09:14:39Z</time>
      </trkpt>
      <trkpt lat="49.04298" lon="7.74804">
        <ele>363.8</ele>
        <time>2022-05-01T09:14:40Z</time>
      </trkpt>
      <trkpt lat="49.043" lon="7.74803">
        <ele>364.2</ele>
        <time>2022-05-01T09:14:41Z</time>
      </trkpt>
      <trkpt lat="49.04303" lon="7.74803">
        <ele>364.2</ele>
        <time>2022-05-01T09:14:42Z</time>
      </trkpt>
      <trkpt lat="49.04305" lon="7.74804">
        <ele>364.6</ele>
        <time>2022-05-01T09:14:43Z</time>
      </trkpt>
      <trkpt lat="49.04307" lon="7.74804">
        <ele>364.6</ele>
        <time>2022-05-01T09:14:44Z</time>
      </trkpt>
      <trkpt lat="49.04309" lon="7.74804">
        <ele>364.8</ele>
        <time>2022-05-01T09:14:45Z</time>
      </trkpt>
      <trkpt lat="49.04311" lon="7.74803">
        <ele>365</ele>
        <time>2022-05-01T09:14:46Z</time>
      </trkpt>
      <trkpt lat="49.04312" lon="7.74803">
        <ele>365</ele>
        <time>2022-05-01T09:14:47Z</time>
      </trkpt>
      <trkpt lat="49.04314" lon="7.74802">
        <ele>365.2</ele>
        <time>2022-05-01T09:14:48Z</time>
      </trkpt>
      <trkpt lat="49.04316" lon="7.74804">
        <ele>365.4</ele>
        <time>2022-05-01T09:14:49Z</time>
      </trkpt>
      <trkpt lat="49.04318" lon="7.74804">
        <ele>365.6</ele>
        <time>2022-05-01T09:14:50Z</time>
      </trkpt>
      <trkpt lat="49.0432" lon="7.74802">
        <ele>365.6</ele>
        <time>2022-05-01T09:14:51Z</time>
      </trkpt>
      <trkpt lat="49.04321" lon="7.74799">
        <ele>365.8</ele>
        <time>2022-05-01T09:14:52Z</time>
      </trkpt>
      <trkpt lat="49.04322" lon="7.74795">
        <ele>366</ele>
        <time>2022-05-01T09:14:53Z</time>
      </trkpt>
      <trkpt lat="49.04323" lon="7.74792">
        <ele>366.2</ele>
        <time>2022-05-01T09:14:54Z</time>
      </trkpt>
      <trkpt lat="49.04323" lon="7.74788">
        <ele>366.2</ele>
        <time>2022-05-01T09:14:55Z</time>
      </trkpt>
      <trkpt lat="49.04323" lon="7.74786">
        <ele>366.4</ele>
        <time>2022-05-01T09:14:56Z</time>
      </trkpt>
      <trkpt lat="49.04324" lon="7.74784">
        <ele>366.4</ele>
        <time>2022-05-01T09:14:57Z</time>
      </trkpt>
      <trkpt lat="49.04324" lon="7.74781">
        <ele>366.6</ele>
        <time>2022-05-01T09:14:58Z</time>
      </trkpt>
      <trkpt lat="49.04325" lon="7.74779">
        <ele>366.8</ele>
        <time>2022-05-01T09:14:59Z</time>
      </trkpt>
      <trkpt lat="49.04326" lon="7.74776">
        <ele>367</ele>
        <time>2022-05-01T09:15:00Z</time>
      </trkpt>
      <trkpt lat="49.04326" lon="7.74774">
        <ele>367.2</ele>
        <time>2022-05-01T09:15:01Z</time>
      </trkpt>
      <trkpt lat="49.04326" lon="7.74771">
        <ele>367.4</ele>
        <time>2022-05-01T09:15:02Z</time>
      </trkpt>
      <trkpt lat="49.04326" lon="7.74768">
        <ele>367.6</ele>
        <time>2022-05-01T09:15:03Z</time>
      </trkpt>
      <trkpt lat="49.04326" lon="7.74765">
        <ele>367.6</ele>
        <time>2022-05-01T09:15:04Z</time>
      </trkpt>
      <trkpt lat="49.04325" lon="7.74762">
        <ele>367.8</ele>
        <time>2022-05-01T09:15:05Z</time>
      </trkpt>
      <trkpt lat="49.04326" lon="7.74759">
        <ele>368</ele>
        <time>2022-05-01T09:15:06Z</time>
      </trkpt>
      <trkpt lat="49.04326" lon="7.74757">
        <ele>368.2</ele>
        <time>2022-05-01T09:15:07Z</time>
      </trkpt>
      <trkpt lat="49.04327" lon="7.74754">
        <ele>368.2</ele>
        <time>2022-05-01T09:15:08Z</time>
      </trkpt>
      <trkpt lat="49.04328" lon="7.74752">
        <ele>368.4</ele>
        <time>2022-05-01T09:15:09Z</time>
      </trkpt>
      <trkpt lat="49.04329" lon="7.74748">
        <ele>368.6</ele>
        <time>2022-05-01T09:15:10Z</time>
      </trkpt>
      <trkpt lat="49.0433" lon="7.74745">
        <ele>368.8</ele>
        <time>2022-05-01T09:15:11Z</time>
      </trkpt>
      <trkpt lat="49.04331" lon="7.74742">
        <ele>369</ele>
        <time>2022-05-01T09:15:12Z</time>
      </trkpt>
      <trkpt lat="49.04334" lon="7.74741">
        <ele>369</ele>
        <time>2022-05-01T09:15:13Z</time>
      </trkpt>
      <trkpt lat="49.04336" lon="7.74739">
        <ele>369.4</ele>
        <time>2022-05-01T09:15:14Z</time>
      </trkpt>
      <trkpt lat="49.04336" lon="7.74736">
        <ele>369.2</ele>
        <time>2022-05-01T09:15:15Z</time>
      </trkpt>
      <trkpt lat="49.04337" lon="7.74734">
        <ele>369.6</ele>
        <time>2022-05-01T09:15:16Z</time>
      </trkpt>
      <trkpt lat="49.04337" lon="7.74732">
        <ele>369.8</ele>
        <time>2022-05-01T09:15:17Z</time>
      </trkpt>
      <trkpt lat="49.04337" lon="7.74729">
        <ele>370</ele>
        <time>2022-05-01T09:15:18Z</time>
      </trkpt>
      <trkpt lat="49.04338" lon="7.74726">
        <ele>370.2</ele>
        <time>2022-05-01T09:15:19Z</time>
      </trkpt>
      <trkpt lat="49.04339" lon="7.74723">
        <ele>370.4</ele>
        <time>2022-05-01T09:15:20Z</time>
      </trkpt>
      <trkpt lat="49.04339" lon="7.7472">
        <ele>370.4</ele>
        <time>2022-05-01T09:15:21Z</time>
      </trkpt>
      <trkpt lat="49.04339" lon="7.74717">
        <ele>370.6</ele>
        <time>2022-05-01T09:15:22Z</time>
      </trkpt>
      <trkpt lat="49.04339" lon="7.74715">
        <ele>370.8</ele>
        <time>2022-05-01T09:15:23Z</time>
      </trkpt>
      <trkpt lat="49.04339" lon="7.74712">
        <ele>370.8</ele>
        <time>2022-05-01T09:15:24Z</time>
      </trkpt>
      <trkpt lat="49.0434" lon="7.74709">
        <ele>371</ele>
        <time>2022-05-01T09:15:25Z</time>
      </trkpt>
      <trkpt lat="49.0434" lon="7.74706">
        <ele>371.2</ele>
        <time>2022-05-01T09:15:26Z</time>
      </trkpt>
      <trkpt lat="49.0434" lon="7.74703">
        <ele>371.4</ele>
        <time>2022-05-01T09:15:27Z</time>
      </trkpt>
      <trkpt lat="49.04341" lon="7.74701">
        <ele>371.6</ele>
        <time>2022-05-01T09:15:28Z</time>
      </trkpt>
      <trkpt lat="49.04341" lon="7.74699">
        <ele>371.8</ele>
        <time>2022-05-01T09:15:29Z</time>
      </trkpt>
      <trkpt lat="49.04342" lon="7.74696">
        <ele>371.8</ele>
        <time>2022-05-01T09:15:30Z</time>
      </trkpt>
      <trkpt lat="49.04343" lon="7.74694">
        <ele>372</ele>
        <time>2022-05-01T09:15:31Z</time>
      </trkpt>
      <trkpt lat="49.04344" lon="7.74691">
        <ele>372.2</ele>
        <time>2022-05-01T09:15:32Z</time>
      </trkpt>
      <trkpt lat="49.04345" lon="7.74689">
        <ele>372.2</ele>
        <time>2022-05-01T09:15:33Z</time>
      </trkpt>
      <trkpt lat="49.04346" lon="7.74687">
        <ele>372.6</ele>
        <time>2022-05-01T09:15:34Z</time>
      </trkpt>
      <trkpt lat="49.04347" lon="7.74685">
        <ele>372.8</ele>
        <time>2022-05-01T09:15:35Z</time>
      </trkpt>
      <trkpt lat="49.04347" lon="7.74683">
        <ele>373</ele>
        <time>2022-05-01T09:15:36Z</time>
      </trkpt>
      <trkpt lat="49.04347" lon="7.74681">
        <ele>373.2</ele>
        <time>2022-05-01T09:15:37Z</time>
      </trkpt>
      <trkpt lat="49.04348" lon="7.7468">
        <ele>373.4</ele>
        <time>2022-05-01T09:15:38Z</time>
      </trkpt>
      <trkpt lat="49.04349" lon="7.74678">
        <ele>373.6</ele>
        <time>2022-05-01T09:15:39Z</time>
      </trkpt>
      <trkpt lat="49.0435" lon="7.74677">
        <ele>373.8</ele>
        <time>2022-05-01T09:15:40Z</time>
      </trkpt>
      <trkpt lat="49.0435" lon="7.74675">
        <ele>374</ele>
        <time>2022-05-01T09:15:41Z</time>
      </trkpt>
      <trkpt lat="49.04351" lon="7.74673">
        <ele>374.2</ele>
        <time>2022-05-01T09:15:42Z</time>
      </trkpt>
      <trkpt lat="49.04352" lon="7.74671">
        <ele>374.4</ele>
        <time>2022-05-01T09:15:43Z</time>
      </trkpt>
      <trkpt lat="49.04352" lon="7.74669">
        <ele>374.6</ele>
        <time>2022-05-01T09:15:44Z</time>
      </trkpt>
      <trkpt lat="49.04353" lon="7.74668">
        <ele>374.8</ele>
        <time>2022-05-01T09:15:45Z</time>
      </trkpt>
      <trkpt lat="49.04354" lon="7.74666">
        <ele>374.8</ele>
        <time>2022-05-01T09:15:46Z</time>
      </trkpt>
      <trkpt lat="49.04355" lon="7.74665">
        <ele>375</ele>
        <time>2022-05-01T09:15:47Z</time>
      </trkpt>
      <trkpt lat="49.04355" lon="7.74664">
        <ele>374.8</ele>
        <time>2022-05-01T09:15:48Z</time>
      </trkpt>
      <trkpt lat="49.04357" lon="7.74662">
        <ele>374.8</ele>
        <time>2022-05-01T09:15:49Z</time>
      </trkpt>
      <trkpt lat="49.04358" lon="7.74661">
        <ele>375</ele>
        <time>2022-05-01T09:15:50Z</time>
      </trkpt>
      <trkpt lat="49.04359" lon="7.74659">
        <ele>375</ele>
        <time>2022-05-01T09:15:51Z</time>
      </trkpt>
      <trkpt lat="49.0436" lon="7.74657">
        <ele>375.2</ele>
        <time>2022-05-01T09:15:52Z</time>
      </trkpt>
      <trkpt lat="49.04361" lon="7.74654">
        <ele>375.4</ele>
        <time>2022-05-01T09:15:53Z</time>
      </trkpt>
      <trkpt lat="49.04361" lon="7.74653">
        <ele>375.4</ele>
        <time>2022-05-01T09:15:54Z</time>
      </trkpt>
      <trkpt lat="49.04362" lon="7.74651">
        <ele>375.6</ele>
        <time>2022-05-01T09:15:55Z</time>
      </trkpt>
      <trkpt lat="49.04363" lon="7.7465">
        <ele>375.8</ele>
        <time>2022-05-01T09:15:56Z</time>
      </trkpt>
      <trkpt lat="49.04364" lon="7.74648">
        <ele>375.8</ele>
        <time>2022-05-01T09:15:57Z</time>
      </trkpt>
      <trkpt lat="49.04364" lon="7.74647">
        <ele>376</ele>
        <time>2022-05-01T09:15:58Z</time>
      </trkpt>
      <trkpt lat="49.04364" lon="7.74645">
        <ele>376.2</ele>
        <time>2022-05-01T09:15:59Z</time>
      </trkpt>
      <trkpt lat="49.04365" lon="7.74644">
        <ele>376.2</ele>
        <time>2022-05-01T09:16:00Z</time>
      </trkpt>
      <trkpt lat="49.04366" lon="7.74642">
        <ele>376.4</ele>
        <time>2022-05-01T09:16:01Z</time>
      </trkpt>
      <trkpt lat="49.04367" lon="7.74641">
        <ele>376.6</ele>
        <time>2022-05-01T09:16:02Z</time>
      </trkpt>
      <trkpt lat="49.04368" lon="7.74639">
        <ele>376.8</ele>
        <time>2022-05-01T09:16:03Z</time>
      </trkpt>
      <trkpt lat="49.04369" lon="7.74637">
        <ele>377</ele>
        <time>2022-05-01T09:16:04Z</time>
      </trkpt>
      <trkpt lat="49.04371" lon="7.74634">
        <ele>377</ele>
        <time>2022-05-01T09:16:05Z</time>
      </trkpt>
      <trkpt lat="49.04373" lon="7.74633">
        <ele>377.2</ele>
        <time>2022-05-01T09:16:06Z</time>
      </trkpt>
      <trkpt lat="49.04375" lon="7.74631">
        <ele>377.4</ele>
        <time>2022-05-01T09:16:07Z</time>
      </trkpt>
      <trkpt lat="49.04377" lon="7.74628">
        <ele>377.6</ele>
        <time>2022-05-01T09:16:08Z</time>
      </trkpt>
      <trkpt lat="49.04378" lon="7.74626">
        <ele>377.8</ele>
        <time>2022-05-01T09:16:09Z</time>
      </trkpt>
      <trkpt lat="49.0438" lon="7.74624">
        <ele>378</ele>
        <time>2022-05-01T09:16:10Z</time>
      </trkpt>
      <trkpt lat="49.04381" lon="7.74622">
        <ele>378.2</ele>
        <time>2022-05-01T09:16:11Z</time>
      </trkpt>
      <trkpt lat="49.04383" lon="7.74621">
        <ele>378.4</ele>
        <time>2022-05-01T09:16:12Z</time>
      </trkpt>
      <trkpt lat="49.04384" lon="7.74619">
        <ele>378.6</ele>
        <time>2022-05-01T09:16:13Z</time>
      </trkpt>
      <trkpt lat="49.04386" lon="7.74616">
        <ele>378.6</ele>
        <time>2022-05-01T09:16:14Z</time>
      </trkpt>
      <trkpt lat="49.04389" lon="7.74613">
        <ele>378.8</ele>
        <time>2022-05-01T09:16:15Z</time>
      </trkpt>
      <trkpt lat="49.0439" lon="7.74612">
        <ele>379</ele>
        <time>2022-05-01T09:16:16Z</time>
      </trkpt>
      <trkpt lat="49.04392" lon="7.74612">
        <ele>379.2</ele>
        <time>2022-05-01T09:16:17Z</time>
      </trkpt>
      <trkpt lat="49.04393" lon="7.74611">
        <ele>379.4</ele>
        <time>2022-05-01T09:16:18Z</time>
      </trkpt>
      <trkpt lat="49.04395" lon="7.7461">
        <ele>379.4</ele>
        <time>2022-05-01T09:16:19Z</time>
      </trkpt>
      <trkpt lat="49.04396" lon="7.74609">
        <ele>379.6</ele>
        <time>2022-05-01T09:16:20Z</time>
      </trkpt>
      <trkpt lat="49.04397" lon="7.74608">
        <ele>379.8</ele>
        <time>2022-05-01T09:16:21Z</time>
      </trkpt>
      <trkpt lat="49.04397" lon="7.74607">
        <ele>380</ele>
        <time>2022-05-01T09:16:22Z</time>
      </trkpt>
      <trkpt lat="49.04398" lon="7.74606">
        <ele>380.2</ele>
        <time>2022-05-01T09:16:23Z</time>
      </trkpt>
      <trkpt lat="49.04399" lon="7.74606">
        <ele>380.4</ele>
        <time>2022-05-01T09:16:24Z</time>
      </trkpt>
      <trkpt lat="49.044" lon="7.74605">
        <ele>380.4</ele>
        <time>2022-05-01T09:16:25Z</time>
      </trkpt>
      <trkpt lat="49.04402" lon="7.74602">
        <ele>380.6</ele>
        <time>2022-05-01T09:16:26Z</time>
      </trkpt>
      <trkpt lat="49.04404" lon="7.74601">
        <ele>380.6</ele>
        <time>2022-05-01T09:16:27Z</time>
      </trkpt>
      <trkpt lat="49.04405" lon="7.74599">
        <ele>380.8</ele>
        <time>2022-05-01T09:16:28Z</time>
      </trkpt>
      <trkpt lat="49.04407" lon="7.74598">
        <ele>381.2</ele>
        <time>2022-05-01T09:16:29Z</time>
      </trkpt>
      <trkpt lat="49.04409" lon="7.74598">
        <ele>381.4</ele>
        <time>2022-05-01T09:16:30Z</time>
      </trkpt>
      <trkpt lat="49.0441" lon="7.74597">
        <ele>381.4</ele>
        <time>2022-05-01T09:16:31Z</time>
      </trkpt>
      <trkpt lat="49.04412" lon="7.74595">
        <ele>381.6</ele>
        <time>2022-05-01T09:16:32Z</time>
      </trkpt>
      <trkpt lat="49.04415" lon="7.74592">
        <ele>381.8</ele>
        <time>2022-05-01T09:16:33Z</time>
      </trkpt>
      <trkpt lat="49.04417" lon="7.74589">
        <ele>382</ele>
        <time>2022-05-01T09:16:34Z</time>
      </trkpt>
      <trkpt lat="49.0442" lon="7.74588">
        <ele>382.2</ele>
        <time>2022-05-01T09:16:35Z</time>
      </trkpt>
      <trkpt lat="49.04422" lon="7.74586">
        <ele>382.2</ele>
        <time>2022-05-01T09:16:36Z</time>
      </trkpt>
      <trkpt lat="49.04424" lon="7.74585">
        <ele>382.4</ele>
        <time>2022-05-01T09:16:37Z</time>
      </trkpt>
      <trkpt lat="49.04425" lon="7.74585">
        <ele>382.6</ele>
        <time>2022-05-01T09:16:38Z</time>
      </trkpt>
      <trkpt lat="49.04427" lon="7.74584">
        <ele>382.6</ele>
        <time>2022-05-01T09:16:39Z</time>
      </trkpt>
      <trkpt lat="49.04429" lon="7.74584">
        <ele>382.8</ele>
        <time>2022-05-01T09:16:40Z</time>
      </trkpt>
      <trkpt lat="49.04431" lon="7.74584">
        <ele>383</ele>
        <time>2022-05-01T09:16:41Z</time>
      </trkpt>
      <trkpt lat="49.04433" lon="7.74584">
        <ele>383.2</ele>
        <time>2022-05-01T09:16:42Z</time>
      </trkpt>
      <trkpt lat="49.04435" lon="7.74583">
        <ele>383.2</ele>
        <time>2022-05-01T09:16:43Z</time>
      </trkpt>
      <trkpt lat="49.04437" lon="7.74581">
        <ele>383.4</ele>
        <time>2022-05-01T09:16:44Z</time>
      </trkpt>
      <trkpt lat="49.04439" lon="7.74578">
        <ele>383.6</ele>
        <time>2022-05-01T09:16:45Z</time>
      </trkpt>
      <trkpt lat="49.04441" lon="7.74577">
        <ele>384</ele>
        <time>2022-05-01T09:16:46Z</time>
      </trkpt>
      <trkpt lat="49.04444" lon="7.74577">
        <ele>384.2</ele>
        <time>2022-05-01T09:16:47Z</time>
      </trkpt>
      <trkpt lat="49.04446" lon="7.74576">
        <ele>384.4</ele>
        <time>2022-05-01T09:16:48Z</time>
      </trkpt>
      <trkpt lat="49.04448" lon="7.74575">
        <ele>384.6</ele>
        <time>2022-05-01T09:16:49Z</time>
      </trkpt>
      <trkpt lat="49.0445" lon="7.74575">
        <ele>385</ele>
        <time>2022-05-01T09:16:50Z</time>
      </trkpt>
      <trkpt lat="49.04451" lon="7.74575">
        <ele>385.2</ele>
        <time>2022-05-01T09:16:51Z</time>
      </trkpt>
      <trkpt lat="49.04454" lon="7.74574">
        <ele>385.4</ele>
        <time>2022-05-01T09:16:52Z</time>
      </trkpt>
      <trkpt lat="49.04457" lon="7.74573">
        <ele>385.8</ele>
        <time>2022-05-01T09:16:53Z</time>
      </trkpt>
      <trkpt lat="49.04459" lon="7.74572">
        <ele>386</ele>
        <time>2022-05-01T09:16:54Z</time>
      </trkpt>
      <trkpt lat="49.04461" lon="7.7457">
        <ele>386.4</ele>
        <time>2022-05-01T09:16:55Z</time>
      </trkpt>
      <trkpt lat="49.04461" lon="7.74568">
        <ele>386.6</ele>
        <time>2022-05-01T09:16:56Z</time>
      </trkpt>
      <trkpt lat="49.04463" lon="7.74566">
        <ele>386.8</ele>
        <time>2022-05-01T09:16:57Z</time>
      </trkpt>
      <trkpt lat="49.04466" lon="7.74565">
        <ele>387</ele>
        <time>2022-05-01T09:16:58Z</time>
      </trkpt>
      <trkpt lat="49.04467" lon="7.74564">
        <ele>387.2</ele>
        <time>2022-05-01T09:16:59Z</time>
      </trkpt>
      <trkpt lat="49.04469" lon="7.74561">
        <ele>387.4</ele>
        <time>2022-05-01T09:17:00Z</time>
      </trkpt>
      <trkpt lat="49.04471" lon="7.74559">
        <ele>387.4</ele>
        <time>2022-05-01T09:17:01Z</time>
      </trkpt>
      <trkpt lat="49.04473" lon="7.74557">
        <ele>387.6</ele>
        <time>2022-05-01T09:17:02Z</time>
      </trkpt>
      <trkpt lat="49.04474" lon="7.74556">
        <ele>387.8</ele>
        <time>2022-05-01T09:17:03Z</time>
      </trkpt>
      <trkpt lat="49.04476" lon="7.74554">
        <ele>387.8</ele>
        <time>2022-05-01T09:17:04Z</time>
      </trkpt>
      <trkpt lat="49.04477" lon="7.74552">
        <ele>388</ele>
        <time>2022-05-01T09:17:05Z</time>
      </trkpt>
      <trkpt lat="49.04478" lon="7.74551">
        <ele>388</ele>
        <time>2022-05-01T09:17:06Z</time>
      </trkpt>
      <trkpt lat="49.04479" lon="7.74549">
        <ele>388.2</ele>
        <time>2022-05-01T09:17:07Z</time>
      </trkpt>
      <trkpt lat="49.0448" lon="7.74547">
        <ele>388.2</ele>
        <time>2022-05-01T09:17:08Z</time>
      </trkpt>
      <trkpt lat="49.04481" lon="7.74545">
        <ele>388.2</ele>
        <time>2022-05-01T09:17:09Z</time>
      </trkpt>
      <trkpt lat="49.04481" lon="7.74543">
        <ele>388.4</ele>
        <time>2022-05-01T09:17:10Z</time>
      </trkpt>
      <trkpt lat="49.04481" lon="7.74541">
        <ele>388.6</ele>
        <time>2022-05-01T09:17:11Z</time>
      </trkpt>
      <trkpt lat="49.04481" lon="7.74539">
        <ele>388.6</ele>
        <time>2022-05-01T09:17:12Z</time>
      </trkpt>
      <trkpt lat="49.04481" lon="7.74536">
        <ele>388.8</ele>
        <time>2022-05-01T09:17:13Z</time>
      </trkpt>
      <trkpt lat="49.04481" lon="7.74534">
        <ele>388.8</ele>
        <time>2022-05-01T09:17:14Z</time>
      </trkpt>
      <trkpt lat="49.04481" lon="7.74532">
        <ele>389</ele>
        <time>2022-05-01T09:17:15Z</time>
      </trkpt>
      <trkpt lat="49.04481" lon="7.7453">
        <ele>389.2</ele>
        <time>2022-05-01T09:17:16Z</time>
      </trkpt>
      <trkpt lat="49.04482" lon="7.74528">
        <ele>389.2</ele>
        <time>2022-05-01T09:17:17Z</time>
      </trkpt>
      <trkpt lat="49.04482" lon="7.74526">
        <ele>389.4</ele>
        <time>2022-05-01T09:17:18Z</time>
      </trkpt>
      <trkpt lat="49.04482" lon="7.74524">
        <ele>389.6</ele>
        <time>2022-05-01T09:17:19Z</time>
      </trkpt>
      <trkpt lat="49.04482" lon="7.74524">
        <ele>389.6</ele>
        <time>2022-05-01T09:17:20Z</time>
      </trkpt>
      <trkpt lat="49.04482" lon="7.74524">
        <ele>389.8</ele>
        <time>2022-05-01T09:17:21Z</time>
      </trkpt>
      <trkpt lat="49.04483" lon="7.74522">
        <ele>390</ele>
        <time>2022-05-01T09:19:55Z</time>
      </trkpt>
      <trkpt lat="49.04483" lon="7.74519">
        <ele>390</ele>
        <time>2022-05-01T09:19:56Z</time>
      </trkpt>
      <trkpt lat="49.04486" lon="7.74498">
        <ele>390</ele>
        <time>2022-05-01T09:20:01Z</time>
      </trkpt>
      <trkpt lat="49.04487" lon="7.74489">
        <ele>389.8</ele>
        <time>2022-05-01T09:20:03Z</time>
      </trkpt>
      <trkpt lat="49.04487" lon="7.74483">
        <ele>389.8</ele>
        <time>2022-05-01T09:20:04Z</time>
      </trkpt>
      <trkpt lat="49.04487" lon="7.74471">
        <ele>389.6</ele>
        <time>2022-05-01T09:20:06Z</time>
      </trkpt>
      <trkpt lat="49.04485" lon="7.74443">
        <ele>389.2</ele>
        <time>2022-05-01T09:20:10Z</time>
      </trkpt>
      <trkpt lat="49.04485" lon="7.74435">
        <ele>389.2</ele>
        <time>2022-05-01T09:20:11Z</time>
      </trkpt>
      <trkpt lat="49.04481" lon="7.74409">
        <ele>388.8</ele>
        <time>2022-05-01T09:20:14Z</time>
      </trkpt>
      <trkpt lat="49.04476" lon="7.74385">
        <ele>388.2</ele>
        <time>2022-05-01T09:20:17Z</time>
      </trkpt>
      <trkpt lat="49.04465" lon="7.74346">
        <ele>387.2</ele>
        <time>2022-05-01T09:20:22Z</time>
      </trkpt>
      <trkpt lat="49.04462" lon="7.74338">
        <ele>387</ele>
        <time>2022-05-01T09:20:23Z</time>
      </trkpt>
      <trkpt lat="49.04457" lon="7.74324">
        <ele>386.6</ele>
        <time>2022-05-01T09:20:25Z</time>
      </trkpt>
      <trkpt lat="49.04452" lon="7.74308">
        <ele>386.2</ele>
        <time>2022-05-01T09:20:27Z</time>
      </trkpt>
      <trkpt lat="49.04449" lon="7.74299">
        <ele>386.2</ele>
        <time>2022-05-01T09:20:28Z</time>
      </trkpt>
      <trkpt lat="49.04446" lon="7.7429">
        <ele>386</ele>
        <time>2022-05-01T09:20:29Z</time>
      </trkpt>
      <trkpt lat="49.04443" lon="7.7428">
        <ele>385.6</ele>
        <time>2022-05-01T09:20:30Z</time>
      </trkpt>
      <trkpt lat="49.04438" lon="7.74262">
        <ele>385.2</ele>
        <time>2022-05-01T09:20:32Z</time>
      </trkpt>
      <trkpt lat="49.04434" lon="7.74253">
        <ele>385</ele>
        <time>2022-05-01T09:20:33Z</time>
      </trkpt>
      <trkpt lat="49.04433" lon="7.74245">
        <ele>384.8</ele>
        <time>2022-05-01T09:20:34Z</time>
      </trkpt>
      <trkpt lat="49.0443" lon="7.74237">
        <ele>384.6</ele>
        <time>2022-05-01T09:20:35Z</time>
      </trkpt>
      <trkpt lat="49.04428" lon="7.74229">
        <ele>384.4</ele>
        <time>2022-05-01T09:20:36Z</time>
      </trkpt>
      <trkpt lat="49.04423" lon="7.74212">
        <ele>384</ele>
        <time>2022-05-01T09:20:38Z</time>
      </trkpt>
      <trkpt lat="49.04421" lon="7.74203">
        <ele>383.8</ele>
        <time>2022-05-01T09:20:39Z</time>
      </trkpt>
      <trkpt lat="49.04419" lon="7.74194">
        <ele>383.4</ele>
        <time>2022-05-01T09:20:40Z</time>
      </trkpt>
      <trkpt lat="49.04411" lon="7.74169">
        <ele>382.8</ele>
        <time>2022-05-01T09:20:43Z</time>
      </trkpt>
      <trkpt lat="49.04407" lon="7.74161">
        <ele>382.6</ele>
        <time>2022-05-01T09:20:44Z</time>
      </trkpt>
      <trkpt lat="49.04391" lon="7.74123">
        <ele>381.4</ele>
        <time>2022-05-01T09:20:49Z</time>
      </trkpt>
      <trkpt lat="49.04387" lon="7.74116">
        <ele>381.4</ele>
        <time>2022-05-01T09:20:50Z</time>
      </trkpt>
      <trkpt lat="49.04383" lon="7.74108">
        <ele>381</ele>
        <time>2022-05-01T09:20:51Z</time>
      </trkpt>
      <trkpt lat="49.0438" lon="7.74099">
        <ele>380.8</ele>
        <time>2022-05-01T09:20:52Z</time>
      </trkpt>
      <trkpt lat="49.04373" lon="7.74081">
        <ele>380.2</ele>
        <time>2022-05-01T09:20:54Z</time>
      </trkpt>
      <trkpt lat="49.04369" lon="7.74072">
        <ele>380</ele>
        <time>2022-05-01T09:20:55Z</time>
      </trkpt>
      <trkpt lat="49.04366" lon="7.74065">
        <ele>379.6</ele>
        <time>2022-05-01T09:20:56Z</time>
      </trkpt>
      <trkpt lat="49.04363" lon="7.74057">
        <ele>379.4</ele>
        <time>2022-05-01T09:20:57Z</time>
      </trkpt>
      <trkpt lat="49.0436" lon="7.74049">
        <ele>379.2</ele>
        <time>2022-05-01T09:20:58Z</time>
      </trkpt>
      <trkpt lat="49.04347" lon="7.74023">
        <ele>378.4</ele>
        <time>2022-05-01T09:21:01Z</time>
      </trkpt>
      <trkpt lat="49.04339" lon="7.74005">
        <ele>378</ele>
        <time>2022-05-01T09:21:03Z</time>
      </trkpt>
      <trkpt lat="49.04328" lon="7.7398">
        <ele>377</ele>
        <time>2022-05-01T09:21:06Z</time>
      </trkpt>
      <trkpt lat="49.04324" lon="7.73972">
        <ele>376.8</ele>
        <time>2022-05-01T09:21:07Z</time>
      </trkpt>
      <trkpt lat="49.04312" lon="7.73949">
        <ele>375.8</ele>
        <time>2022-05-01T09:21:10Z</time>
      </trkpt>
      <trkpt lat="49.04308" lon="7.73942">
        <ele>375.6</ele>
        <time>2022-05-01T09:21:11Z</time>
      </trkpt>
      <trkpt lat="49.04304" lon="7.73934">
        <ele>375.2</ele>
        <time>2022-05-01T09:21:12Z</time>
      </trkpt>
      <trkpt lat="49.04301" lon="7.73926">
        <ele>375.2</ele>
        <time>2022-05-01T09:21:13Z</time>
      </trkpt>
      <trkpt lat="49.04297" lon="7.73919">
        <ele>375</ele>
        <time>2022-05-01T09:21:14Z</time>
      </trkpt>
      <trkpt lat="49.04293" lon="7.73911">
        <ele>374.8</ele>
        <time>2022-05-01T09:21:15Z</time>
      </trkpt>
      <trkpt lat="49.04289" lon="7.73903">
        <ele>374.6</ele>
        <time>2022-05-01T09:21:16Z</time>
      </trkpt>
      <trkpt lat="49.0428" lon="7.73878">
        <ele>373.8</ele>
        <time>2022-05-01T09:21:19Z</time>
      </trkpt>
      <trkpt lat="49.04277" lon="7.7387">
        <ele>373.6</ele>
        <time>2022-05-01T09:21:20Z</time>
      </trkpt>
      <trkpt lat="49.04274" lon="7.73861">
        <ele>373.4</ele>
        <time>2022-05-01T09:21:21Z</time>
      </trkpt>
      <trkpt lat="49.04268" lon="7.73844">
        <ele>373</ele>
        <time>2022-05-01T09:21:23Z</time>
      </trkpt>
      <trkpt lat="49.04258" lon="7.7381">
        <ele>372.2</ele>
        <time>2022-05-01T09:21:27Z</time>
      </trkpt>
      <trkpt lat="49.04251" lon="7.73782">
        <ele>371.8</ele>
        <time>2022-05-01T09:21:30Z</time>
      </trkpt>
      <trkpt lat="49.04242" lon="7.73736">
        <ele>371.2</ele>
        <time>2022-05-01T09:21:35Z</time>
      </trkpt>
      <trkpt lat="49.04239" lon="7.73717">
        <ele>370.8</ele>
        <time>2022-05-01T09:21:37Z</time>
      </trkpt>
      <trkpt lat="49.04238" lon="7.73708">
        <ele>370.8</ele>
        <time>2022-05-01T09:21:38Z</time>
      </trkpt>
      <trkpt lat="49.04237" lon="7.73668">
        <ele>370.2</ele>
        <time>2022-05-01T09:21:42Z</time>
      </trkpt>
      <trkpt lat="49.04237" lon="7.73658">
        <ele>369.8</ele>
        <time>2022-05-01T09:21:43Z</time>
      </trkpt>
      <trkpt lat="49.04237" lon="7.73649">
        <ele>369.6</ele>
        <time>2022-05-01T09:21:44Z</time>
      </trkpt>
      <trkpt lat="49.04236" lon="7.73621">
        <ele>369.2</ele>
        <time>2022-05-01T09:21:47Z</time>
      </trkpt>
      <trkpt lat="49.04237" lon="7.73612">
        <ele>369</ele>
        <time>2022-05-01T09:21:48Z</time>
      </trkpt>
      <trkpt lat="49.04239" lon="7.73603">
        <ele>369</ele>
        <time>2022-05-01T09:21:49Z</time>
      </trkpt>
      <trkpt lat="49.04241" lon="7.73594">
        <ele>368.8</ele>
        <time>2022-05-01T09:21:50Z</time>
      </trkpt>
      <trkpt lat="49.04243" lon="7.73584">
        <ele>368.6</ele>
        <time>2022-05-01T09:21:51Z</time>
      </trkpt>
      <trkpt lat="49.04249" lon="7.73555">
        <ele>368.2</ele>
        <time>2022-05-01T09:21:54Z</time>
      </trkpt>
      <trkpt lat="49.04253" lon="7.73536">
        <ele>367.6</ele>
        <time>2022-05-01T09:21:56Z</time>
      </trkpt>
      <trkpt lat="49.04261" lon="7.73506">
        <ele>367.4</ele>
        <time>2022-05-01T09:21:59Z</time>
      </trkpt>
      <trkpt lat="49.04263" lon="7.73497">
        <ele>367.2</ele>
        <time>2022-05-01T09:22:00Z</time>
      </trkpt>
      <trkpt lat="49.04264" lon="7.73487">
        <ele>367.2</ele>
        <time>2022-05-01T09:22:01Z</time>
      </trkpt>
      <trkpt lat="49.0427" lon="7.7347">
        <ele>367</ele>
        <time>2022-05-01T09:22:03Z</time>
      </trkpt>
      <trkpt lat="49.04274" lon="7.73462">
        <ele>366.8</ele>
        <time>2022-05-01T09:22:04Z</time>
      </trkpt>
      <trkpt lat="49.04277" lon="7.73453">
        <ele>366.8</ele>
        <time>2022-05-01T09:22:05Z</time>
      </trkpt>
      <trkpt lat="49.04285" lon="7.73389">
        <ele>366</ele>
        <time>2022-05-01T09:22:12Z</time>
      </trkpt>
      <trkpt lat="49.04286" lon="7.7338">
        <ele>365.8</ele>
        <time>2022-05-01T09:22:13Z</time>
      </trkpt>
      <trkpt lat="49.04289" lon="7.73362">
        <ele>365.4</ele>
        <time>2022-05-01T09:22:15Z</time>
      </trkpt>
      <trkpt lat="49.04295" lon="7.73326">
        <ele>364.6</ele>
        <time>2022-05-01T09:22:19Z</time>
      </trkpt>
      <trkpt lat="49.043" lon="7.7329">
        <ele>363.8</ele>
        <time>2022-05-01T09:22:23Z</time>
      </trkpt>
      <trkpt lat="49.04302" lon="7.73271">
        <ele>363.6</ele>
        <time>2022-05-01T09:22:25Z</time>
      </trkpt>
      <trkpt lat="49.04303" lon="7.73262">
        <ele>363.6</ele>
        <time>2022-05-01T09:22:26Z</time>
      </trkpt>
      <trkpt lat="49.04305" lon="7.73234">
        <ele>363</ele>
        <time>2022-05-01T09:22:29Z</time>
      </trkpt>
      <trkpt lat="49.04307" lon="7.73216">
        <ele>362.6</ele>
        <time>2022-05-01T09:22:31Z</time>
      </trkpt>
      <trkpt lat="49.04306" lon="7.73197">
        <ele>362.6</ele>
        <time>2022-05-01T09:22:33Z</time>
      </trkpt>
      <trkpt lat="49.04304" lon="7.7316">
        <ele>361.6</ele>
        <time>2022-05-01T09:22:37Z</time>
      </trkpt>
      <trkpt lat="49.04303" lon="7.7315">
        <ele>361.4</ele>
        <time>2022-05-01T09:22:38Z</time>
      </trkpt>
      <trkpt lat="49.04302" lon="7.73141">
        <ele>361.4</ele>
        <time>2022-05-01T09:22:39Z</time>
      </trkpt>
      <trkpt lat="49.04301" lon="7.73132">
        <ele>361.2</ele>
        <time>2022-05-01T09:22:40Z</time>
      </trkpt>
      <trkpt lat="49.04293" lon="7.73096">
        <ele>360.8</ele>
        <time>2022-05-01T09:22:44Z</time>
      </trkpt>
      <trkpt lat="49.0429" lon="7.73088">
        <ele>360.6</ele>
        <time>2022-05-01T09:22:45Z</time>
      </trkpt>
      <trkpt lat="49.04286" lon="7.73081">
        <ele>360.2</ele>
        <time>2022-05-01T09:22:46Z</time>
      </trkpt>
      <trkpt lat="49.04282" lon="7.73075">
        <ele>360.2</ele>
        <time>2022-05-01T09:22:47Z</time>
      </trkpt>
      <trkpt lat="49.04278" lon="7.73069">
        <ele>360</ele>
        <time>2022-05-01T09:22:48Z</time>
      </trkpt>
      <trkpt lat="49.04269" lon="7.73059">
        <ele>359.6</ele>
        <time>2022-05-01T09:22:50Z</time>
      </trkpt>
      <trkpt lat="49.04265" lon="7.73054">
        <ele>359.4</ele>
        <time>2022-05-01T09:22:51Z</time>
      </trkpt>
      <trkpt lat="49.04261" lon="7.7305">
        <ele>359.4</ele>
        <time>2022-05-01T09:22:52Z</time>
      </trkpt>
      <trkpt lat="49.04256" lon="7.73044">
        <ele>359.2</ele>
        <time>2022-05-01T09:22:53Z</time>
      </trkpt>
      <trkpt lat="49.04252" lon="7.73041">
        <ele>359</ele>
        <time>2022-05-01T09:22:54Z</time>
      </trkpt>
      <trkpt lat="49.04249" lon="7.73039">
        <ele>358.8</ele>
        <time>2022-05-01T09:22:55Z</time>
      </trkpt>
      <trkpt lat="49.04244" lon="7.73038">
        <ele>358.8</ele>
        <time>2022-05-01T09:22:56Z</time>
      </trkpt>
      <trkpt lat="49.0424" lon="7.73038">
        <ele>358.6</ele>
        <time>2022-05-01T09:22:57Z</time>
      </trkpt>
      <trkpt lat="49.04236" lon="7.73038">
        <ele>358.6</ele>
        <time>2022-05-01T09:22:58Z</time>
      </trkpt>
      <trkpt lat="49.04232" lon="7.73038">
        <ele>358.6</ele>
        <time>2022-05-01T09:22:59Z</time>
      </trkpt>
      <trkpt lat="49.04227" lon="7.73039">
        <ele>358.4</ele>
        <time>2022-05-01T09:23:00Z</time>
      </trkpt>
      <trkpt lat="49.04213" lon="7.73041">
        <ele>358.4</ele>
        <time>2022-05-01T09:23:02Z</time>
      </trkpt>
      <trkpt lat="49.04179" lon="7.73047">
        <ele>357.6</ele>
        <time>2022-05-01T09:23:06Z</time>
      </trkpt>
      <trkpt lat="49.0417" lon="7.73049">
        <ele>356.8</ele>
        <time>2022-05-01T09:23:07Z</time>
      </trkpt>
      <trkpt lat="49.0416" lon="7.73051">
        <ele>355.8</ele>
        <time>2022-05-01T09:23:08Z</time>
      </trkpt>
      <trkpt lat="49.0415" lon="7.73053">
        <ele>354.6</ele>
        <time>2022-05-01T09:23:09Z</time>
      </trkpt>
      <trkpt lat="49.04141" lon="7.73056">
        <ele>353.4</ele>
        <time>2022-05-01T09:23:10Z</time>
      </trkpt>
      <trkpt lat="49.0413" lon="7.73059">
        <ele>352.2</ele>
        <time>2022-05-01T09:23:11Z</time>
      </trkpt>
      <trkpt lat="49.04118" lon="7.73061">
        <ele>351</ele>
        <time>2022-05-01T09:23:12Z</time>
      </trkpt>
      <trkpt lat="49.04107" lon="7.73062">
        <ele>350.4</ele>
        <time>2022-05-01T09:23:13Z</time>
      </trkpt>
      <trkpt lat="49.04094" lon="7.73063">
        <ele>349.4</ele>
        <time>2022-05-01T09:23:14Z</time>
      </trkpt>
      <trkpt lat="49.04082" lon="7.73063">
        <ele>348.2</ele>
        <time>2022-05-01T09:23:15Z</time>
      </trkpt>
      <trkpt lat="49.04069" lon="7.73064">
        <ele>346.6</ele>
        <time>2022-05-01T09:23:16Z</time>
      </trkpt>
      <trkpt lat="49.04057" lon="7.73064">
        <ele>345.2</ele>
        <time>2022-05-01T09:23:17Z</time>
      </trkpt>
      <trkpt lat="49.04045" lon="7.73064">
        <ele>343.4</ele>
        <time>2022-05-01T09:23:18Z</time>
      </trkpt>
      <trkpt lat="49.04032" lon="7.73064">
        <ele>341.8</ele>
        <time>2022-05-01T09:23:19Z</time>
      </trkpt>
      <trkpt lat="49.0402" lon="7.73064">
        <ele>339.6</ele>
        <time>2022-05-01T09:23:20Z</time>
      </trkpt>
      <trkpt lat="49.04007" lon="7.73062">
        <ele>338</ele>
        <time>2022-05-01T09:23:21Z</time>
      </trkpt>
      <trkpt lat="49.03991" lon="7.7306">
        <ele>336.6</ele>
        <time>2022-05-01T09:23:22Z</time>
      </trkpt>
      <trkpt lat="49.03978" lon="7.73056">
        <ele>334.8</ele>
        <time>2022-05-01T09:23:23Z</time>
      </trkpt>
      <trkpt lat="49.03968" lon="7.73053">
        <ele>333.4</ele>
        <time>2022-05-01T09:23:24Z</time>
      </trkpt>
      <trkpt lat="49.03955" lon="7.73051">
        <ele>331.4</ele>
        <time>2022-05-01T09:23:25Z</time>
      </trkpt>
      <trkpt lat="49.03941" lon="7.73048">
        <ele>330</ele>
        <time>2022-05-01T09:23:26Z</time>
      </trkpt>
      <trkpt lat="49.03927" lon="7.73045">
        <ele>328.8</ele>
        <time>2022-05-01T09:23:27Z</time>
      </trkpt>
      <trkpt lat="49.03914" lon="7.73041">
        <ele>327.2</ele>
        <time>2022-05-01T09:23:28Z</time>
      </trkpt>
      <trkpt lat="49.03902" lon="7.73037">
        <ele>325.6</ele>
        <time>2022-05-01T09:23:29Z</time>
      </trkpt>
      <trkpt lat="49.03875" lon="7.73031">
        <ele>324</ele>
        <time>2022-05-01T09:23:31Z</time>
      </trkpt>
      <trkpt lat="49.03861" lon="7.73028">
        <ele>322.4</ele>
        <time>2022-05-01T09:23:32Z</time>
      </trkpt>
      <trkpt lat="49.03848" lon="7.73025">
        <ele>320.4</ele>
        <time>2022-05-01T09:23:33Z</time>
      </trkpt>
      <trkpt lat="49.03835" lon="7.73021">
        <ele>318.4</ele>
        <time>2022-05-01T09:23:34Z</time>
      </trkpt>
      <trkpt lat="49.03823" lon="7.73017">
        <ele>316.2</ele>
        <time>2022-05-01T09:23:35Z</time>
      </trkpt>
      <trkpt lat="49.03809" lon="7.73013">
        <ele>314.6</ele>
        <time>2022-05-01T09:23:36Z</time>
      </trkpt>
      <trkpt lat="49.03796" lon="7.73009">
        <ele>312.4</ele>
        <time>2022-05-01T09:23:37Z</time>
      </trkpt>
      <trkpt lat="49.03783" lon="7.73006">
        <ele>310.8</ele>
        <time>2022-05-01T09:23:38Z</time>
      </trkpt>
      <trkpt lat="49.03771" lon="7.73002">
        <ele>309</ele>
        <time>2022-05-01T09:23:39Z</time>
      </trkpt>
      <trkpt lat="49.03759" lon="7.73">
        <ele>307.2</ele>
        <time>2022-05-01T09:23:40Z</time>
      </trkpt>
      <trkpt lat="49.03746" lon="7.72998">
        <ele>304.8</ele>
        <time>2022-05-01T09:23:41Z</time>
      </trkpt>
      <trkpt lat="49.03733" lon="7.72997">
        <ele>303.4</ele>
        <time>2022-05-01T09:23:42Z</time>
      </trkpt>
      <trkpt lat="49.0372" lon="7.72996">
        <ele>301.2</ele>
        <time>2022-05-01T09:23:43Z</time>
      </trkpt>
      <trkpt lat="49.03706" lon="7.72995">
        <ele>299.4</ele>
        <time>2022-05-01T09:23:44Z</time>
      </trkpt>
      <trkpt lat="49.03693" lon="7.72993">
        <ele>297.4</ele>
        <time>2022-05-01T09:23:45Z</time>
      </trkpt>
      <trkpt lat="49.0368" lon="7.72991">
        <ele>296</ele>
        <time>2022-05-01T09:23:46Z</time>
      </trkpt>
      <trkpt lat="49.03667" lon="7.7299">
        <ele>294.8</ele>
        <time>2022-05-01T09:23:47Z</time>
      </trkpt>
      <trkpt lat="49.03653" lon="7.72989">
        <ele>293.4</ele>
        <time>2022-05-01T09:23:48Z</time>
      </trkpt>
      <trkpt lat="49.0364" lon="7.72987">
        <ele>291.6</ele>
        <time>2022-05-01T09:23:49Z</time>
      </trkpt>
      <trkpt lat="49.03626" lon="7.72986">
        <ele>289.4</ele>
        <time>2022-05-01T09:23:50Z</time>
      </trkpt>
      <trkpt lat="49.03611" lon="7.72984">
        <ele>287.2</ele>
        <time>2022-05-01T09:23:51Z</time>
      </trkpt>
      <trkpt lat="49.03598" lon="7.72982">
        <ele>285.6</ele>
        <time>2022-05-01T09:23:52Z</time>
      </trkpt>
      <trkpt lat="49.03584" lon="7.72981">
        <ele>284</ele>
        <time>2022-05-01T09:23:53Z</time>
      </trkpt>
      <trkpt lat="49.03571" lon="7.72979">
        <ele>282</ele>
        <time>2022-05-01T09:23:54Z</time>
      </trkpt>
      <trkpt lat="49.03558" lon="7.72976">
        <ele>280</ele>
        <time>2022-05-01T09:23:55Z</time>
      </trkpt>
      <trkpt lat="49.03546" lon="7.72974">
        <ele>278.2</ele>
        <time>2022-05-01T09:23:56Z</time>
      </trkpt>
      <trkpt lat="49.03534" lon="7.7297">
        <ele>276.4</ele>
        <time>2022-05-01T09:23:57Z</time>
      </trkpt>
      <trkpt lat="49.03523" lon="7.72966">
        <ele>274.4</ele>
        <time>2022-05-01T09:23:58Z</time>
      </trkpt>
      <trkpt lat="49.03511" lon="7.72961">
        <ele>271.6</ele>
        <time>2022-05-01T09:23:59Z</time>
      </trkpt>
      <trkpt lat="49.03499" lon="7.72953">
        <ele>269.2</ele>
        <time>2022-05-01T09:24:00Z</time>
      </trkpt>
      <trkpt lat="49.03488" lon="7.72946">
        <ele>267.4</ele>
        <time>2022-05-01T09:24:01Z</time>
      </trkpt>
      <trkpt lat="49.03478" lon="7.72941">
        <ele>266</ele>
        <time>2022-05-01T09:24:02Z</time>
      </trkpt>
      <trkpt lat="49.03469" lon="7.72938">
        <ele>264.4</ele>
        <time>2022-05-01T09:24:03Z</time>
      </trkpt>
      <trkpt lat="49.0346" lon="7.72937">
        <ele>263.2</ele>
        <time>2022-05-01T09:24:04Z</time>
      </trkpt>
      <trkpt lat="49.0345" lon="7.72937">
        <ele>262</ele>
        <time>2022-05-01T09:24:05Z</time>
      </trkpt>
      <trkpt lat="49.03442" lon="7.7294">
        <ele>260.4</ele>
        <time>2022-05-01T09:24:06Z</time>
      </trkpt>
      <trkpt lat="49.03434" lon="7.72944">
        <ele>258.8</ele>
        <time>2022-05-01T09:24:07Z</time>
      </trkpt>
      <trkpt lat="49.03426" lon="7.72947">
        <ele>257.4</ele>
        <time>2022-05-01T09:24:08Z</time>
      </trkpt>
      <trkpt lat="49.0342" lon="7.72949">
        <ele>256.6</ele>
        <time>2022-05-01T09:24:09Z</time>
      </trkpt>
      <trkpt lat="49.03413" lon="7.72951">
        <ele>256</ele>
        <time>2022-05-01T09:24:10Z</time>
      </trkpt>
      <trkpt lat="49.03408" lon="7.72952">
        <ele>255.8</ele>
        <time>2022-05-01T09:24:11Z</time>
      </trkpt>
      <trkpt lat="49.03402" lon="7.72953">
        <ele>255.8</ele>
        <time>2022-05-01T09:24:12Z</time>
      </trkpt>
      <trkpt lat="49.03397" lon="7.72954">
        <ele>255.6</ele>
        <time>2022-05-01T09:24:13Z</time>
      </trkpt>
      <trkpt lat="49.03392" lon="7.72954">
        <ele>255.6</ele>
        <time>2022-05-01T09:24:14Z</time>
      </trkpt>
      <trkpt lat="49.03388" lon="7.72955">
        <ele>255.6</ele>
        <time>2022-05-01T09:24:15Z</time>
      </trkpt>
      <trkpt lat="49.03384" lon="7.72956">
        <ele>255.6</ele>
        <time>2022-05-01T09:24:16Z</time>
      </trkpt>
      <trkpt lat="49.0338" lon="7.72958">
        <ele>255.6</ele>
        <time>2022-05-01T09:24:17Z</time>
      </trkpt>
      <trkpt lat="49.03376" lon="7.72958">
        <ele>255.6</ele>
        <time>2022-05-01T09:24:18Z</time>
      </trkpt>
      <trkpt lat="49.03372" lon="7.72959">
        <ele>255.6</ele>
        <time>2022-05-01T09:24:19Z</time>
      </trkpt>
      <trkpt lat="49.03368" lon="7.72961">
        <ele>255.8</ele>
        <time>2022-05-01T09:24:20Z</time>
      </trkpt>
      <trkpt lat="49.03364" lon="7.72962">
        <ele>256</ele>
        <time>2022-05-01T09:24:21Z</time>
      </trkpt>
      <trkpt lat="49.0336" lon="7.72963">
        <ele>256.4</ele>
        <time>2022-05-01T09:24:22Z</time>
      </trkpt>
      <trkpt lat="49.03356" lon="7.72963">
        <ele>256.8</ele>
        <time>2022-05-01T09:24:23Z</time>
      </trkpt>
      <trkpt lat="49.03352" lon="7.72964">
        <ele>257</ele>
        <time>2022-05-01T09:24:24Z</time>
      </trkpt>
      <trkpt lat="49.03348" lon="7.72965">
        <ele>257.6</ele>
        <time>2022-05-01T09:24:25Z</time>
      </trkpt>
      <trkpt lat="49.03344" lon="7.72965">
        <ele>257.8</ele>
        <time>2022-05-01T09:24:26Z</time>
      </trkpt>
      <trkpt lat="49.03341" lon="7.72966">
        <ele>258</ele>
        <time>2022-05-01T09:24:27Z</time>
      </trkpt>
      <trkpt lat="49.03337" lon="7.72967">
        <ele>258</ele>
        <time>2022-05-01T09:24:28Z</time>
      </trkpt>
      <trkpt lat="49.03333" lon="7.72968">
        <ele>258.2</ele>
        <time>2022-05-01T09:24:29Z</time>
      </trkpt>
      <trkpt lat="49.03329" lon="7.72969">
        <ele>258.2</ele>
        <time>2022-05-01T09:24:30Z</time>
      </trkpt>
      <trkpt lat="49.03326" lon="7.7297">
        <ele>258.4</ele>
        <time>2022-05-01T09:24:31Z</time>
      </trkpt>
      <trkpt lat="49.03322" lon="7.72971">
        <ele>258.6</ele>
        <time>2022-05-01T09:24:32Z</time>
      </trkpt>
      <trkpt lat="49.03315" lon="7.72974">
        <ele>258.8</ele>
        <time>2022-05-01T09:24:34Z</time>
      </trkpt>
      <trkpt lat="49.03311" lon="7.72975">
        <ele>258.8</ele>
        <time>2022-05-01T09:24:35Z</time>
      </trkpt>
      <trkpt lat="49.03308" lon="7.72976">
        <ele>259</ele>
        <time>2022-05-01T09:24:36Z</time>
      </trkpt>
      <trkpt lat="49.03305" lon="7.72978">
        <ele>259</ele>
        <time>2022-05-01T09:24:37Z</time>
      </trkpt>
      <trkpt lat="49.03295" lon="7.72982">
        <ele>259.2</ele>
        <time>2022-05-01T09:24:40Z</time>
      </trkpt>
      <trkpt lat="49.03292" lon="7.72983">
        <ele>259.4</ele>
        <time>2022-05-01T09:24:41Z</time>
      </trkpt>
      <trkpt lat="49.03287" lon="7.72986">
        <ele>259.6</ele>
        <time>2022-05-01T09:24:43Z</time>
      </trkpt>
      <trkpt lat="49.03284" lon="7.72987">
        <ele>259.8</ele>
        <time>2022-05-01T09:24:44Z</time>
      </trkpt>
      <trkpt lat="49.03281" lon="7.72989">
        <ele>260</ele>
        <time>2022-05-01T09:24:45Z</time>
      </trkpt>
      <trkpt lat="49.03273" lon="7.72996">
        <ele>260.6</ele>
        <time>2022-05-01T09:24:48Z</time>
      </trkpt>
      <trkpt lat="49.0327" lon="7.72998">
        <ele>261</ele>
        <time>2022-05-01T09:24:49Z</time>
      </trkpt>
      <trkpt lat="49.03267" lon="7.72999">
        <ele>261.2</ele>
        <time>2022-05-01T09:24:50Z</time>
      </trkpt>
      <trkpt lat="49.03264" lon="7.73002">
        <ele>261.4</ele>
        <time>2022-05-01T09:24:51Z</time>
      </trkpt>
      <trkpt lat="49.03252" lon="7.73011">
        <ele>261.8</ele>
        <time>2022-05-01T09:24:55Z</time>
      </trkpt>
      <trkpt lat="49.03249" lon="7.73013">
        <ele>262</ele>
        <time>2022-05-01T09:24:56Z</time>
      </trkpt>
      <trkpt lat="49.03247" lon="7.73014">
        <ele>262</ele>
        <time>2022-05-01T09:24:57Z</time>
      </trkpt>
      <trkpt lat="49.03244" lon="7.73016">
        <ele>262.2</ele>
        <time>2022-05-01T09:24:58Z</time>
      </trkpt>
      <trkpt lat="49.03241" lon="7.73019">
        <ele>262.2</ele>
        <time>2022-05-01T09:24:59Z</time>
      </trkpt>
      <trkpt lat="49.03238" lon="7.73023">
        <ele>262.4</ele>
        <time>2022-05-01T09:25:00Z</time>
      </trkpt>
      <trkpt lat="49.03235" lon="7.73026">
        <ele>262.6</ele>
        <time>2022-05-01T09:25:01Z</time>
      </trkpt>
      <trkpt lat="49.03232" lon="7.7303">
        <ele>262.8</ele>
        <time>2022-05-01T09:25:02Z</time>
      </trkpt>
      <trkpt lat="49.0323" lon="7.73033">
        <ele>263</ele>
        <time>2022-05-01T09:25:03Z</time>
      </trkpt>
      <trkpt lat="49.03228" lon="7.73037">
        <ele>263</ele>
        <time>2022-05-01T09:25:04Z</time>
      </trkpt>
      <trkpt lat="49.03225" lon="7.7304">
        <ele>263</ele>
        <time>2022-05-01T09:25:05Z</time>
      </trkpt>
      <trkpt lat="49.03223" lon="7.73044">
        <ele>263.2</ele>
        <time>2022-05-01T09:25:06Z</time>
      </trkpt>
      <trkpt lat="49.0322" lon="7.73048">
        <ele>263.2</ele>
        <time>2022-05-01T09:25:07Z</time>
      </trkpt>
      <trkpt lat="49.03218" lon="7.73051">
        <ele>263.2</ele>
        <time>2022-05-01T09:25:08Z</time>
      </trkpt>
      <trkpt lat="49.03216" lon="7.73055">
        <ele>263.4</ele>
        <time>2022-05-01T09:25:09Z</time>
      </trkpt>
      <trkpt lat="49.03213" lon="7.73058">
        <ele>263.4</ele>
        <time>2022-05-01T09:25:10Z</time>
      </trkpt>
      <trkpt lat="49.03211" lon="7.73063">
        <ele>263.6</ele>
        <time>2022-05-01T09:25:11Z</time>
      </trkpt>
      <trkpt lat="49.03209" lon="7.73068">
        <ele>263.6</ele>
        <time>2022-05-01T09:25:12Z</time>
      </trkpt>
      <trkpt lat="49.03207" lon="7.73073">
        <ele>263.6</ele>
        <time>2022-05-01T09:25:13Z</time>
      </trkpt>
      <trkpt lat="49.03205" lon="7.73078">
        <ele>263.8</ele>
        <time>2022-05-01T09:25:14Z</time>
      </trkpt>
      <trkpt lat="49.03203" lon="7.73082">
        <ele>263.8</ele>
        <time>2022-05-01T09:25:15Z</time>
      </trkpt>
      <trkpt lat="49.03201" lon="7.73086">
        <ele>264</ele>
        <time>2022-05-01T09:25:16Z</time>
      </trkpt>
      <trkpt lat="49.03199" lon="7.73093">
        <ele>264</ele>
        <time>2022-05-01T09:25:17Z</time>
      </trkpt>
      <trkpt lat="49.03197" lon="7.73099">
        <ele>264.2</ele>
        <time>2022-05-01T09:25:18Z</time>
      </trkpt>
      <trkpt lat="49.03195" lon="7.73104">
        <ele>264.2</ele>
        <time>2022-05-01T09:25:19Z</time>
      </trkpt>
      <trkpt lat="49.03193" lon="7.73108">
        <ele>264.4</ele>
        <time>2022-05-01T09:25:20Z</time>
      </trkpt>
      <trkpt lat="49.03192" lon="7.73112">
        <ele>264.6</ele>
        <time>2022-05-01T09:25:21Z</time>
      </trkpt>
      <trkpt lat="49.03191" lon="7.73115">
        <ele>264.8</ele>
        <time>2022-05-01T09:25:22Z</time>
      </trkpt>
      <trkpt lat="49.03189" lon="7.7312">
        <ele>265</ele>
        <time>2022-05-01T09:25:23Z</time>
      </trkpt>
      <trkpt lat="49.03186" lon="7.73125">
        <ele>265</ele>
        <time>2022-05-01T09:25:24Z</time>
      </trkpt>
      <trkpt lat="49.03184" lon="7.73131">
        <ele>265.2</ele>
        <time>2022-05-01T09:25:25Z</time>
      </trkpt>
      <trkpt lat="49.03183" lon="7.73135">
        <ele>265.4</ele>
        <time>2022-05-01T09:25:26Z</time>
      </trkpt>
      <trkpt lat="49.03181" lon="7.7314">
        <ele>265.4</ele>
        <time>2022-05-01T09:25:27Z</time>
      </trkpt>
      <trkpt lat="49.03181" lon="7.73144">
        <ele>265.8</ele>
        <time>2022-05-01T09:25:28Z</time>
      </trkpt>
      <trkpt lat="49.0318" lon="7.73148">
        <ele>266</ele>
        <time>2022-05-01T09:25:29Z</time>
      </trkpt>
      <trkpt lat="49.03178" lon="7.73153">
        <ele>266</ele>
        <time>2022-05-01T09:25:30Z</time>
      </trkpt>
      <trkpt lat="49.03177" lon="7.73159">
        <ele>266.2</ele>
        <time>2022-05-01T09:25:31Z</time>
      </trkpt>
      <trkpt lat="49.03175" lon="7.73164">
        <ele>266.4</ele>
        <time>2022-05-01T09:25:32Z</time>
      </trkpt>
      <trkpt lat="49.03173" lon="7.7317">
        <ele>266.6</ele>
        <time>2022-05-01T09:25:33Z</time>
      </trkpt>
      <trkpt lat="49.03171" lon="7.73174">
        <ele>266.6</ele>
        <time>2022-05-01T09:25:34Z</time>
      </trkpt>
      <trkpt lat="49.03169" lon="7.73178">
        <ele>266.8</ele>
        <time>2022-05-01T09:25:35Z</time>
      </trkpt>
      <trkpt lat="49.03167" lon="7.73181">
        <ele>267</ele>
        <time>2022-05-01T09:25:36Z</time>
      </trkpt>
      <trkpt lat="49.03166" lon="7.73184">
        <ele>267.2</ele>
        <time>2022-05-01T09:25:37Z</time>
      </trkpt>
      <trkpt lat="49.03164" lon="7.73187">
        <ele>267.4</ele>
        <time>2022-05-01T09:25:38Z</time>
      </trkpt>
      <trkpt lat="49.03162" lon="7.73191">
        <ele>267.6</ele>
        <time>2022-05-01T09:25:39Z</time>
      </trkpt>
      <trkpt lat="49.03161" lon="7.73195">
        <ele>268</ele>
        <time>2022-05-01T09:25:40Z</time>
      </trkpt>
      <trkpt lat="49.03159" lon="7.73198">
        <ele>268</ele>
        <time>2022-05-01T09:25:41Z</time>
      </trkpt>
      <trkpt lat="49.03158" lon="7.73202">
        <ele>268.2</ele>
        <time>2022-05-01T09:25:42Z</time>
      </trkpt>
      <trkpt lat="49.03155" lon="7.73206">
        <ele>268.4</ele>
        <time>2022-05-01T09:25:43Z</time>
      </trkpt>
      <trkpt lat="49.03153" lon="7.7321">
        <ele>268.6</ele>
        <time>2022-05-01T09:25:44Z</time>
      </trkpt>
      <trkpt lat="49.03151" lon="7.73213">
        <ele>268.6</ele>
        <time>2022-05-01T09:25:45Z</time>
      </trkpt>
      <trkpt lat="49.03148" lon="7.73216">
        <ele>268.8</ele>
        <time>2022-05-01T09:25:46Z</time>
      </trkpt>
      <trkpt lat="49.03146" lon="7.7322">
        <ele>269</ele>
        <time>2022-05-01T09:25:47Z</time>
      </trkpt>
      <trkpt lat="49.03144" lon="7.73224">
        <ele>269.2</ele>
        <time>2022-05-01T09:25:48Z</time>
      </trkpt>
      <trkpt lat="49.03142" lon="7.73227">
        <ele>269.2</ele>
        <time>2022-05-01T09:25:49Z</time>
      </trkpt>
      <trkpt lat="49.03141" lon="7.7323">
        <ele>269.2</ele>
        <time>2022-05-01T09:25:50Z</time>
      </trkpt>
      <trkpt lat="49.0314" lon="7.73233">
        <ele>269.4</ele>
        <time>2022-05-01T09:25:51Z</time>
      </trkpt>
      <trkpt lat="49.03139" lon="7.73237">
        <ele>269.4</ele>
        <time>2022-05-01T09:25:52Z</time>
      </trkpt>
      <trkpt lat="49.03137" lon="7.7324">
        <ele>269.4</ele>
        <time>2022-05-01T09:25:53Z</time>
      </trkpt>
      <trkpt lat="49.03135" lon="7.73244">
        <ele>269.6</ele>
        <time>2022-05-01T09:25:54Z</time>
      </trkpt>
      <trkpt lat="49.03133" lon="7.73248">
        <ele>269.6</ele>
        <time>2022-05-01T09:25:55Z</time>
      </trkpt>
      <trkpt lat="49.03131" lon="7.73251">
        <ele>269.8</ele>
        <time>2022-05-01T09:25:56Z</time>
      </trkpt>
      <trkpt lat="49.0313" lon="7.73255">
        <ele>269.8</ele>
        <time>2022-05-01T09:25:57Z</time>
      </trkpt>
      <trkpt lat="49.03128" lon="7.73259">
        <ele>270</ele>
        <time>2022-05-01T09:25:58Z</time>
      </trkpt>
      <trkpt lat="49.03126" lon="7.73264">
        <ele>270.2</ele>
        <time>2022-05-01T09:25:59Z</time>
      </trkpt>
      <trkpt lat="49.03124" lon="7.7327">
        <ele>270.2</ele>
        <time>2022-05-01T09:26:00Z</time>
      </trkpt>
      <trkpt lat="49.03123" lon="7.73274">
        <ele>270.2</ele>
        <time>2022-05-01T09:26:01Z</time>
      </trkpt>
      <trkpt lat="49.03121" lon="7.73279">
        <ele>270.2</ele>
        <time>2022-05-01T09:26:02Z</time>
      </trkpt>
      <trkpt lat="49.03119" lon="7.73284">
        <ele>270.4</ele>
        <time>2022-05-01T09:26:03Z</time>
      </trkpt>
      <trkpt lat="49.03118" lon="7.73289">
        <ele>270.6</ele>
        <time>2022-05-01T09:26:04Z</time>
      </trkpt>
      <trkpt lat="49.03116" lon="7.73293">
        <ele>270.6</ele>
        <time>2022-05-01T09:26:05Z</time>
      </trkpt>
      <trkpt lat="49.03114" lon="7.73297">
        <ele>270.8</ele>
        <time>2022-05-01T09:26:06Z</time>
      </trkpt>
      <trkpt lat="49.03112" lon="7.73302">
        <ele>271</ele>
        <time>2022-05-01T09:26:07Z</time>
      </trkpt>
      <trkpt lat="49.0311" lon="7.73306">
        <ele>271.2</ele>
        <time>2022-05-01T09:26:08Z</time>
      </trkpt>
      <trkpt lat="49.03109" lon="7.7331">
        <ele>271.2</ele>
        <time>2022-05-01T09:26:09Z</time>
      </trkpt>
      <trkpt lat="49.03107" lon="7.73314">
        <ele>271.2</ele>
        <time>2022-05-01T09:26:10Z</time>
      </trkpt>
      <trkpt lat="49.03106" lon="7.73319">
        <ele>271.4</ele>
        <time>2022-05-01T09:26:11Z</time>
      </trkpt>
      <trkpt lat="49.03105" lon="7.73325">
        <ele>271.4</ele>
        <time>2022-05-01T09:26:12Z</time>
      </trkpt>
      <trkpt lat="49.03105" lon="7.73329">
        <ele>271.6</ele>
        <time>2022-05-01T09:26:13Z</time>
      </trkpt>
      <trkpt lat="49.03103" lon="7.73333">
        <ele>271.8</ele>
        <time>2022-05-01T09:26:14Z</time>
      </trkpt>
      <trkpt lat="49.03102" lon="7.73338">
        <ele>271.8</ele>
        <time>2022-05-01T09:26:15Z</time>
      </trkpt>
      <trkpt lat="49.03101" lon="7.73344">
        <ele>272</ele>
        <time>2022-05-01T09:26:16Z</time>
      </trkpt>
      <trkpt lat="49.03099" lon="7.73351">
        <ele>272</ele>
        <time>2022-05-01T09:26:17Z</time>
      </trkpt>
      <trkpt lat="49.03097" lon="7.73358">
        <ele>272.2</ele>
        <time>2022-05-01T09:26:18Z</time>
      </trkpt>
      <trkpt lat="49.03095" lon="7.73367">
        <ele>272.2</ele>
        <time>2022-05-01T09:26:19Z</time>
      </trkpt>
      <trkpt lat="49.03094" lon="7.73372">
        <ele>272.6</ele>
        <time>2022-05-01T09:26:20Z</time>
      </trkpt>
      <trkpt lat="49.03094" lon="7.73375">
        <ele>272.6</ele>
        <time>2022-05-01T09:26:21Z</time>
      </trkpt>
      <trkpt lat="49.03095" lon="7.73378">
        <ele>272.8</ele>
        <time>2022-05-01T09:26:22Z</time>
      </trkpt>
      <trkpt lat="49.03096" lon="7.73381">
        <ele>272.8</ele>
        <time>2022-05-01T09:26:23Z</time>
      </trkpt>
      <trkpt lat="49.03096" lon="7.73383">
        <ele>273</ele>
        <time>2022-05-01T09:26:24Z</time>
      </trkpt>
      <trkpt lat="49.03097" lon="7.73386">
        <ele>273</ele>
        <time>2022-05-01T09:26:25Z</time>
      </trkpt>
      <trkpt lat="49.03097" lon="7.73389">
        <ele>273</ele>
        <time>2022-05-01T09:26:26Z</time>
      </trkpt>
      <trkpt lat="49.03097" lon="7.73393">
        <ele>273.2</ele>
        <time>2022-05-01T09:26:27Z</time>
      </trkpt>
      <trkpt lat="49.03095" lon="7.73398">
        <ele>273.4</ele>
        <time>2022-05-01T09:26:28Z</time>
      </trkpt>
      <trkpt lat="49.03095" lon="7.73401">
        <ele>273.6</ele>
        <time>2022-05-01T09:26:29Z</time>
      </trkpt>
      <trkpt lat="49.03093" lon="7.73404">
        <ele>273.8</ele>
        <time>2022-05-01T09:26:30Z</time>
      </trkpt>
      <trkpt lat="49.03092" lon="7.73408">
        <ele>274</ele>
        <time>2022-05-01T09:26:31Z</time>
      </trkpt>
      <trkpt lat="49.03091" lon="7.73411">
        <ele>274.2</ele>
        <time>2022-05-01T09:26:32Z</time>
      </trkpt>
      <trkpt lat="49.0309" lon="7.73415">
        <ele>274.4</ele>
        <time>2022-05-01T09:26:33Z</time>
      </trkpt>
      <trkpt lat="49.0309" lon="7.73419">
        <ele>274.8</ele>
        <time>2022-05-01T09:26:34Z</time>
      </trkpt>
      <trkpt lat="49.0309" lon="7.73424">
        <ele>275</ele>
        <time>2022-05-01T09:26:35Z</time>
      </trkpt>
      <trkpt lat="49.03089" lon="7.73429">
        <ele>275.2</ele>
        <time>2022-05-01T09:26:36Z</time>
      </trkpt>
      <trkpt lat="49.03088" lon="7.73433">
        <ele>275.4</ele>
        <time>2022-05-01T09:26:37Z</time>
      </trkpt>
      <trkpt lat="49.03088" lon="7.73437">
        <ele>275.6</ele>
        <time>2022-05-01T09:26:38Z</time>
      </trkpt>
      <trkpt lat="49.03087" lon="7.73441">
        <ele>275.6</ele>
        <time>2022-05-01T09:26:39Z</time>
      </trkpt>
      <trkpt lat="49.03087" lon="7.73445">
        <ele>275.8</ele>
        <time>2022-05-01T09:26:40Z</time>
      </trkpt>
      <trkpt lat="49.03086" lon="7.7345">
        <ele>275.8</ele>
        <time>2022-05-01T09:26:41Z</time>
      </trkpt>
      <trkpt lat="49.03085" lon="7.73455">
        <ele>275.8</ele>
        <time>2022-05-01T09:26:42Z</time>
      </trkpt>
      <trkpt lat="49.03085" lon="7.73459">
        <ele>276</ele>
        <time>2022-05-01T09:26:43Z</time>
      </trkpt>
      <trkpt lat="49.03084" lon="7.73464">
        <ele>276</ele>
        <time>2022-05-01T09:26:44Z</time>
      </trkpt>
      <trkpt lat="49.03083" lon="7.73469">
        <ele>276.4</ele>
        <time>2022-05-01T09:26:45Z</time>
      </trkpt>
      <trkpt lat="49.03082" lon="7.73473">
        <ele>276.4</ele>
        <time>2022-05-01T09:26:46Z</time>
      </trkpt>
      <trkpt lat="49.03082" lon="7.73476">
        <ele>276.6</ele>
        <time>2022-05-01T09:26:47Z</time>
      </trkpt>
      <trkpt lat="49.03082" lon="7.73479">
        <ele>276.8</ele>
        <time>2022-05-01T09:26:48Z</time>
      </trkpt>
      <trkpt lat="49.03082" lon="7.73483">
        <ele>276.8</ele>
        <time>2022-05-01T09:26:49Z</time>
      </trkpt>
      <trkpt lat="49.03081" lon="7.73486">
        <ele>277</ele>
        <time>2022-05-01T09:26:50Z</time>
      </trkpt>
      <trkpt lat="49.0308" lon="7.7349">
        <ele>277.4</ele>
        <time>2022-05-01T09:26:51Z</time>
      </trkpt>
      <trkpt lat="49.03079" lon="7.73493">
        <ele>277.6</ele>
        <time>2022-05-01T09:26:52Z</time>
      </trkpt>
      <trkpt lat="49.0308" lon="7.73497">
        <ele>277.8</ele>
        <time>2022-05-01T09:26:53Z</time>
      </trkpt>
      <trkpt lat="49.03079" lon="7.73502">
        <ele>278</ele>
        <time>2022-05-01T09:26:54Z</time>
      </trkpt>
      <trkpt lat="49.03079" lon="7.73505">
        <ele>278.2</ele>
        <time>2022-05-01T09:26:55Z</time>
      </trkpt>
      <trkpt lat="49.03079" lon="7.73508">
        <ele>278.4</ele>
        <time>2022-05-01T09:26:56Z</time>
      </trkpt>
      <trkpt lat="49.03079" lon="7.73514">
        <ele>278.8</ele>
        <time>2022-05-01T09:26:57Z</time>
      </trkpt>
      <trkpt lat="49.03081" lon="7.73517">
        <ele>278.8</ele>
        <time>2022-05-01T09:26:58Z</time>
      </trkpt>
      <trkpt lat="49.03082" lon="7.73522">
        <ele>279.2</ele>
        <time>2022-05-01T09:26:59Z</time>
      </trkpt>
      <trkpt lat="49.03083" lon="7.73526">
        <ele>279.2</ele>
        <time>2022-05-01T09:27:00Z</time>
      </trkpt>
      <trkpt lat="49.03085" lon="7.73529">
        <ele>279.4</ele>
        <time>2022-05-01T09:27:01Z</time>
      </trkpt>
      <trkpt lat="49.03085" lon="7.73534">
        <ele>279.4</ele>
        <time>2022-05-01T09:27:02Z</time>
      </trkpt>
      <trkpt lat="49.03085" lon="7.73538">
        <ele>279.6</ele>
        <time>2022-05-01T09:27:03Z</time>
      </trkpt>
      <trkpt lat="49.03086" lon="7.73541">
        <ele>279.8</ele>
        <time>2022-05-01T09:27:04Z</time>
      </trkpt>
      <trkpt lat="49.03088" lon="7.73545">
        <ele>279.8</ele>
        <time>2022-05-01T09:27:05Z</time>
      </trkpt>
      <trkpt lat="49.03088" lon="7.7355">
        <ele>280</ele>
        <time>2022-05-01T09:27:06Z</time>
      </trkpt>
      <trkpt lat="49.0309" lon="7.73553">
        <ele>280</ele>
        <time>2022-05-01T09:27:07Z</time>
      </trkpt>
      <trkpt lat="49.03091" lon="7.73556">
        <ele>280</ele>
        <time>2022-05-01T09:27:08Z</time>
      </trkpt>
      <trkpt lat="49.03093" lon="7.73559">
        <ele>280</ele>
        <time>2022-05-01T09:27:09Z</time>
      </trkpt>
      <trkpt lat="49.03095" lon="7.73562">
        <ele>280.2</ele>
        <time>2022-05-01T09:27:10Z</time>
      </trkpt>
      <trkpt lat="49.03096" lon="7.73565">
        <ele>280.2</ele>
        <time>2022-05-01T09:27:11Z</time>
      </trkpt>
      <trkpt lat="49.03098" lon="7.73569">
        <ele>280.2</ele>
        <time>2022-05-01T09:27:12Z</time>
      </trkpt>
      <trkpt lat="49.031" lon="7.73572">
        <ele>280.4</ele>
        <time>2022-05-01T09:27:13Z</time>
      </trkpt>
      <trkpt lat="49.03103" lon="7.73575">
        <ele>280.4</ele>
        <time>2022-05-01T09:27:14Z</time>
      </trkpt>
      <trkpt lat="49.03105" lon="7.73577">
        <ele>280.6</ele>
        <time>2022-05-01T09:27:15Z</time>
      </trkpt>
      <trkpt lat="49.03107" lon="7.7358">
        <ele>280.6</ele>
        <time>2022-05-01T09:27:16Z</time>
      </trkpt>
      <trkpt lat="49.03109" lon="7.73582">
        <ele>280.6</ele>
        <time>2022-05-01T09:27:17Z</time>
      </trkpt>
      <trkpt lat="49.0311" lon="7.73585">
        <ele>280.8</ele>
        <time>2022-05-01T09:27:18Z</time>
      </trkpt>
      <trkpt lat="49.03111" lon="7.73589">
        <ele>281</ele>
        <time>2022-05-01T09:27:19Z</time>
      </trkpt>
      <trkpt lat="49.03113" lon="7.73592">
        <ele>281</ele>
        <time>2022-05-01T09:27:20Z</time>
      </trkpt>
      <trkpt lat="49.03115" lon="7.73594">
        <ele>281.2</ele>
        <time>2022-05-01T09:27:21Z</time>
      </trkpt>
      <trkpt lat="49.03117" lon="7.73597">
        <ele>281.2</ele>
        <time>2022-05-01T09:27:22Z</time>
      </trkpt>
      <trkpt lat="49.03118" lon="7.736">
        <ele>281.4</ele>
        <time>2022-05-01T09:27:23Z</time>
      </trkpt>
      <trkpt lat="49.03119" lon="7.73602">
        <ele>281.4</ele>
        <time>2022-05-01T09:27:24Z</time>
      </trkpt>
      <trkpt lat="49.0312" lon="7.73605">
        <ele>281.6</ele>
        <time>2022-05-01T09:27:25Z</time>
      </trkpt>
      <trkpt lat="49.03121" lon="7.73608">
        <ele>281.6</ele>
        <time>2022-05-01T09:27:26Z</time>
      </trkpt>
      <trkpt lat="49.03122" lon="7.7361">
        <ele>281.6</ele>
        <time>2022-05-01T09:27:27Z</time>
      </trkpt>
      <trkpt lat="49.03124" lon="7.73612">
        <ele>281.6</ele>
        <time>2022-05-01T09:27:28Z</time>
      </trkpt>
      <trkpt lat="49.03126" lon="7.73614">
        <ele>281.8</ele>
        <time>2022-05-01T09:27:29Z</time>
      </trkpt>
      <trkpt lat="49.03128" lon="7.73615">
        <ele>282</ele>
        <time>2022-05-01T09:27:30Z</time>
      </trkpt>
      <trkpt lat="49.03131" lon="7.73618">
        <ele>282.2</ele>
        <time>2022-05-01T09:27:31Z</time>
      </trkpt>
      <trkpt lat="49.03133" lon="7.73621">
        <ele>282.2</ele>
        <time>2022-05-01T09:27:32Z</time>
      </trkpt>
      <trkpt lat="49.03136" lon="7.73623">
        <ele>282.4</ele>
        <time>2022-05-01T09:27:33Z</time>
      </trkpt>
      <trkpt lat="49.03138" lon="7.73625">
        <ele>282.6</ele>
        <time>2022-05-01T09:27:34Z</time>
      </trkpt>
      <trkpt lat="49.03141" lon="7.73628">
        <ele>282.6</ele>
        <time>2022-05-01T09:27:35Z</time>
      </trkpt>
      <trkpt lat="49.03142" lon="7.73631">
        <ele>282.8</ele>
        <time>2022-05-01T09:27:36Z</time>
      </trkpt>
      <trkpt lat="49.03144" lon="7.73633">
        <ele>283</ele>
        <time>2022-05-01T09:27:37Z</time>
      </trkpt>
      <trkpt lat="49.03146" lon="7.73636">
        <ele>283.2</ele>
        <time>2022-05-01T09:27:38Z</time>
      </trkpt>
      <trkpt lat="49.03148" lon="7.73638">
        <ele>283.4</ele>
        <time>2022-05-01T09:27:39Z</time>
      </trkpt>
      <trkpt lat="49.0315" lon="7.73639">
        <ele>283.6</ele>
        <time>2022-05-01T09:27:40Z</time>
      </trkpt>
      <trkpt lat="49.03153" lon="7.73639">
        <ele>283.8</ele>
        <time>2022-05-01T09:27:41Z</time>
      </trkpt>
      <trkpt lat="49.03156" lon="7.7364">
        <ele>284.2</ele>
        <time>2022-05-01T09:27:42Z</time>
      </trkpt>
      <trkpt lat="49.03158" lon="7.73643">
        <ele>284.4</ele>
        <time>2022-05-01T09:27:43Z</time>
      </trkpt>
      <trkpt lat="49.03159" lon="7.73645">
        <ele>284.4</ele>
        <time>2022-05-01T09:27:44Z</time>
      </trkpt>
      <trkpt lat="49.03161" lon="7.73647">
        <ele>284.6</ele>
        <time>2022-05-01T09:27:45Z</time>
      </trkpt>
      <trkpt lat="49.03162" lon="7.7365">
        <ele>284.8</ele>
        <time>2022-05-01T09:27:46Z</time>
      </trkpt>
      <trkpt lat="49.03165" lon="7.73652">
        <ele>285</ele>
        <time>2022-05-01T09:27:47Z</time>
      </trkpt>
      <trkpt lat="49.03167" lon="7.73653">
        <ele>285</ele>
        <time>2022-05-01T09:27:48Z</time>
      </trkpt>
      <trkpt lat="49.03169" lon="7.73655">
        <ele>285.2</ele>
        <time>2022-05-01T09:27:49Z</time>
      </trkpt>
      <trkpt lat="49.03172" lon="7.73657">
        <ele>285.4</ele>
        <time>2022-05-01T09:27:50Z</time>
      </trkpt>
      <trkpt lat="49.03174" lon="7.73659">
        <ele>285.4</ele>
        <time>2022-05-01T09:27:51Z</time>
      </trkpt>
      <trkpt lat="49.03176" lon="7.73661">
        <ele>285.6</ele>
        <time>2022-05-01T09:27:52Z</time>
      </trkpt>
      <trkpt lat="49.03179" lon="7.73663">
        <ele>285.8</ele>
        <time>2022-05-01T09:27:53Z</time>
      </trkpt>
      <trkpt lat="49.03181" lon="7.73665">
        <ele>285.8</ele>
        <time>2022-05-01T09:27:54Z</time>
      </trkpt>
      <trkpt lat="49.03184" lon="7.73667">
        <ele>286</ele>
        <time>2022-05-01T09:27:55Z</time>
      </trkpt>
      <trkpt lat="49.03186" lon="7.73669">
        <ele>286</ele>
        <time>2022-05-01T09:27:56Z</time>
      </trkpt>
      <trkpt lat="49.03188" lon="7.73671">
        <ele>286.2</ele>
        <time>2022-05-01T09:27:57Z</time>
      </trkpt>
      <trkpt lat="49.0319" lon="7.73673">
        <ele>286.4</ele>
        <time>2022-05-01T09:27:58Z</time>
      </trkpt>
      <trkpt lat="49.03192" lon="7.73675">
        <ele>286.4</ele>
        <time>2022-05-01T09:27:59Z</time>
      </trkpt>
      <trkpt lat="49.03195" lon="7.73676">
        <ele>286.4</ele>
        <time>2022-05-01T09:28:00Z</time>
      </trkpt>
      <trkpt lat="49.03197" lon="7.73677">
        <ele>286.4</ele>
        <time>2022-05-01T09:28:01Z</time>
      </trkpt>
      <trkpt lat="49.03199" lon="7.73679">
        <ele>286.6</ele>
        <time>2022-05-01T09:28:02Z</time>
      </trkpt>
      <trkpt lat="49.032" lon="7.7368">
        <ele>286.6</ele>
        <time>2022-05-01T09:28:03Z</time>
      </trkpt>
      <trkpt lat="49.03202" lon="7.73683">
        <ele>286.8</ele>
        <time>2022-05-01T09:28:04Z</time>
      </trkpt>
      <trkpt lat="49.03204" lon="7.73684">
        <ele>286.8</ele>
        <time>2022-05-01T09:28:05Z</time>
      </trkpt>
      <trkpt lat="49.03206" lon="7.73686">
        <ele>287</ele>
        <time>2022-05-01T09:28:06Z</time>
      </trkpt>
      <trkpt lat="49.03208" lon="7.73687">
        <ele>287.2</ele>
        <time>2022-05-01T09:28:07Z</time>
      </trkpt>
      <trkpt lat="49.0321" lon="7.73688">
        <ele>287.2</ele>
        <time>2022-05-01T09:28:08Z</time>
      </trkpt>
      <trkpt lat="49.03212" lon="7.73689">
        <ele>287.2</ele>
        <time>2022-05-01T09:28:09Z</time>
      </trkpt>
      <trkpt lat="49.03215" lon="7.7369">
        <ele>287.4</ele>
        <time>2022-05-01T09:28:10Z</time>
      </trkpt>
      <trkpt lat="49.03217" lon="7.73692">
        <ele>287.4</ele>
        <time>2022-05-01T09:28:11Z</time>
      </trkpt>
      <trkpt lat="49.03219" lon="7.73695">
        <ele>287.6</ele>
        <time>2022-05-01T09:28:12Z</time>
      </trkpt>
      <trkpt lat="49.03222" lon="7.73696">
        <ele>287.8</ele>
        <time>2022-05-01T09:28:13Z</time>
      </trkpt>
      <trkpt lat="49.03224" lon="7.73697">
        <ele>287.8</ele>
        <time>2022-05-01T09:28:14Z</time>
      </trkpt>
      <trkpt lat="49.03226" lon="7.73698">
        <ele>288</ele>
        <time>2022-05-01T09:28:15Z</time>
      </trkpt>
      <trkpt lat="49.03228" lon="7.737">
        <ele>288.2</ele>
        <time>2022-05-01T09:28:16Z</time>
      </trkpt>
      <trkpt lat="49.0323" lon="7.73701">
        <ele>288.2</ele>
        <time>2022-05-01T09:28:17Z</time>
      </trkpt>
      <trkpt lat="49.03232" lon="7.73702">
        <ele>288.4</ele>
        <time>2022-05-01T09:28:18Z</time>
      </trkpt>
      <trkpt lat="49.03235" lon="7.73704">
        <ele>288.4</ele>
        <time>2022-05-01T09:28:19Z</time>
      </trkpt>
      <trkpt lat="49.03237" lon="7.73706">
        <ele>288.4</ele>
        <time>2022-05-01T09:28:20Z</time>
      </trkpt>
      <trkpt lat="49.03239" lon="7.73708">
        <ele>288.6</ele>
        <time>2022-05-01T09:28:21Z</time>
      </trkpt>
      <trkpt lat="49.03241" lon="7.7371">
        <ele>288.6</ele>
        <time>2022-05-01T09:28:22Z</time>
      </trkpt>
      <trkpt lat="49.03243" lon="7.73712">
        <ele>288.8</ele>
        <time>2022-05-01T09:28:23Z</time>
      </trkpt>
      <trkpt lat="49.03246" lon="7.73714">
        <ele>289</ele>
        <time>2022-05-01T09:28:24Z</time>
      </trkpt>
      <trkpt lat="49.03248" lon="7.73716">
        <ele>289</ele>
        <time>2022-05-01T09:28:25Z</time>
      </trkpt>
      <trkpt lat="49.0325" lon="7.73718">
        <ele>289.2</ele>
        <time>2022-05-01T09:28:26Z</time>
      </trkpt>
      <trkpt lat="49.03252" lon="7.7372">
        <ele>289.4</ele>
        <time>2022-05-01T09:28:27Z</time>
      </trkpt>
      <trkpt lat="49.03255" lon="7.73723">
        <ele>289.6</ele>
        <time>2022-05-01T09:28:28Z</time>
      </trkpt>
      <trkpt lat="49.03257" lon="7.73724">
        <ele>289.6</ele>
        <time>2022-05-01T09:28:29Z</time>
      </trkpt>
      <trkpt lat="49.0326" lon="7.73726">
        <ele>289.6</ele>
        <time>2022-05-01T09:28:30Z</time>
      </trkpt>
      <trkpt lat="49.03262" lon="7.73728">
        <ele>289.8</ele>
        <time>2022-05-01T09:28:31Z</time>
      </trkpt>
      <trkpt lat="49.03264" lon="7.7373">
        <ele>290</ele>
        <time>2022-05-01T09:28:32Z</time>
      </trkpt>
      <trkpt lat="49.03266" lon="7.73734">
        <ele>290.4</ele>
        <time>2022-05-01T09:28:33Z</time>
      </trkpt>
      <trkpt lat="49.03268" lon="7.73735">
        <ele>290.4</ele>
        <time>2022-05-01T09:28:34Z</time>
      </trkpt>
      <trkpt lat="49.0327" lon="7.73738">
        <ele>290.6</ele>
        <time>2022-05-01T09:28:35Z</time>
      </trkpt>
      <trkpt lat="49.03273" lon="7.7374">
        <ele>290.8</ele>
        <time>2022-05-01T09:28:36Z</time>
      </trkpt>
      <trkpt lat="49.03277" lon="7.73742">
        <ele>290.8</ele>
        <time>2022-05-01T09:28:37Z</time>
      </trkpt>
      <trkpt lat="49.0328" lon="7.73744">
        <ele>291</ele>
        <time>2022-05-01T09:28:38Z</time>
      </trkpt>
      <trkpt lat="49.03282" lon="7.73747">
        <ele>291.4</ele>
        <time>2022-05-01T09:28:39Z</time>
      </trkpt>
      <trkpt lat="49.03282" lon="7.7375">
        <ele>291.6</ele>
        <time>2022-05-01T09:28:40Z</time>
      </trkpt>
      <trkpt lat="49.03282" lon="7.73752">
        <ele>291.8</ele>
        <time>2022-05-01T09:28:41Z</time>
      </trkpt>
      <trkpt lat="49.03284" lon="7.73754">
        <ele>292.2</ele>
        <time>2022-05-01T09:28:42Z</time>
      </trkpt>
      <trkpt lat="49.03286" lon="7.73755">
        <ele>292.4</ele>
        <time>2022-05-01T09:28:43Z</time>
      </trkpt>
      <trkpt lat="49.03287" lon="7.73758">
        <ele>292.6</ele>
        <time>2022-05-01T09:28:44Z</time>
      </trkpt>
      <trkpt lat="49.03289" lon="7.7376">
        <ele>292.8</ele>
        <time>2022-05-01T09:28:45Z</time>
      </trkpt>
      <trkpt lat="49.03293" lon="7.73762">
        <ele>293</ele>
        <time>2022-05-01T09:28:46Z</time>
      </trkpt>
      <trkpt lat="49.03295" lon="7.73763">
        <ele>293</ele>
        <time>2022-05-01T09:28:47Z</time>
      </trkpt>
      <trkpt lat="49.03298" lon="7.73765">
        <ele>293</ele>
        <time>2022-05-01T09:28:48Z</time>
      </trkpt>
      <trkpt lat="49.033" lon="7.73766">
        <ele>293.2</ele>
        <time>2022-05-01T09:28:49Z</time>
      </trkpt>
      <trkpt lat="49.03302" lon="7.73767">
        <ele>293.2</ele>
        <time>2022-05-01T09:28:50Z</time>
      </trkpt>
      <trkpt lat="49.03303" lon="7.73768">
        <ele>293.2</ele>
        <time>2022-05-01T09:28:51Z</time>
      </trkpt>
      <trkpt lat="49.03306" lon="7.7377">
        <ele>293.2</ele>
        <time>2022-05-01T09:28:52Z</time>
      </trkpt>
      <trkpt lat="49.03307" lon="7.73773">
        <ele>293.2</ele>
        <time>2022-05-01T09:28:53Z</time>
      </trkpt>
      <trkpt lat="49.0331" lon="7.73776">
        <ele>293.2</ele>
        <time>2022-05-01T09:28:54Z</time>
      </trkpt>
      <trkpt lat="49.03313" lon="7.73777">
        <ele>293.2</ele>
        <time>2022-05-01T09:28:55Z</time>
      </trkpt>
      <trkpt lat="49.03315" lon="7.73778">
        <ele>293.2</ele>
        <time>2022-05-01T09:28:56Z</time>
      </trkpt>
      <trkpt lat="49.03317" lon="7.73779">
        <ele>293.2</ele>
        <time>2022-05-01T09:28:57Z</time>
      </trkpt>
      <trkpt lat="49.0332" lon="7.7378">
        <ele>293.2</ele>
        <time>2022-05-01T09:28:58Z</time>
      </trkpt>
      <trkpt lat="49.03323" lon="7.73781">
        <ele>293.2</ele>
        <time>2022-05-01T09:28:59Z</time>
      </trkpt>
      <trkpt lat="49.03326" lon="7.73782">
        <ele>293.2</ele>
        <time>2022-05-01T09:29:00Z</time>
      </trkpt>
      <trkpt lat="49.03328" lon="7.73784">
        <ele>293.2</ele>
        <time>2022-05-01T09:29:01Z</time>
      </trkpt>
      <trkpt lat="49.0333" lon="7.73785">
        <ele>293.2</ele>
        <time>2022-05-01T09:29:02Z</time>
      </trkpt>
      <trkpt lat="49.03333" lon="7.73786">
        <ele>293.2</ele>
        <time>2022-05-01T09:29:03Z</time>
      </trkpt>
      <trkpt lat="49.03335" lon="7.73786">
        <ele>293.2</ele>
        <time>2022-05-01T09:29:04Z</time>
      </trkpt>
      <trkpt lat="49.03342" lon="7.73787">
        <ele>293.2</ele>
        <time>2022-05-01T09:29:06Z</time>
      </trkpt>
      <trkpt lat="49.03357" lon="7.73788">
        <ele>293.2</ele>
        <time>2022-05-01T09:29:10Z</time>
      </trkpt>
      <trkpt lat="49.03361" lon="7.73789">
        <ele>293</ele>
        <time>2022-05-01T09:29:11Z</time>
      </trkpt>
      <trkpt lat="49.03364" lon="7.73789">
        <ele>293</ele>
        <time>2022-05-01T09:29:12Z</time>
      </trkpt>
      <trkpt lat="49.03368" lon="7.73789">
        <ele>293</ele>
        <time>2022-05-01T09:29:13Z</time>
      </trkpt>
      <trkpt lat="49.03388" lon="7.73786">
        <ele>292.8</ele>
        <time>2022-05-01T09:29:18Z</time>
      </trkpt>
      <trkpt lat="49.03402" lon="7.73782">
        <ele>292.6</ele>
        <time>2022-05-01T09:29:22Z</time>
      </trkpt>
      <trkpt lat="49.03406" lon="7.73781">
        <ele>292.6</ele>
        <time>2022-05-01T09:29:23Z</time>
      </trkpt>
      <trkpt lat="49.03412" lon="7.73781">
        <ele>292.6</ele>
        <time>2022-05-01T09:29:24Z</time>
      </trkpt>
      <trkpt lat="49.03417" lon="7.7378">
        <ele>292.6</ele>
        <time>2022-05-01T09:29:25Z</time>
      </trkpt>
      <trkpt lat="49.03424" lon="7.73779">
        <ele>292.6</ele>
        <time>2022-05-01T09:29:26Z</time>
      </trkpt>
      <trkpt lat="49.03431" lon="7.73778">
        <ele>292.6</ele>
        <time>2022-05-01T09:29:29Z</time>
      </trkpt>
      <trkpt lat="49.03431" lon="7.73778">
        <ele>292.6</ele>
        <time>2022-05-01T09:29:30Z</time>
      </trkpt>
      <trkpt lat="49.03431" lon="7.73779">
        <ele>292.6</ele>
        <time>2022-05-01T09:29:31Z</time>
      </trkpt>
      <trkpt lat="49.03429" lon="7.7378">
        <ele>292.6</ele>
        <time>2022-05-01T09:29:33Z</time>
      </trkpt>
      <trkpt lat="49.03431" lon="7.73781">
        <ele>292.6</ele>
        <time>2022-05-01T09:29:34Z</time>
      </trkpt>
      <trkpt lat="49.03437" lon="7.73781">
        <ele>292.8</ele>
        <time>2022-05-01T09:29:38Z</time>
      </trkpt>
      <trkpt lat="49.03438" lon="7.7378">
        <ele>292.8</ele>
        <time>2022-05-01T09:29:39Z</time>
      </trkpt>
      <trkpt lat="49.0344" lon="7.7378">
        <ele>292.8</ele>
        <time>2022-05-01T09:29:40Z</time>
      </trkpt>
      <trkpt lat="49.03441" lon="7.73779">
        <ele>292.8</ele>
        <time>2022-05-01T09:29:41Z</time>
      </trkpt>
      <trkpt lat="49.03453" lon="7.73775">
        <ele>292.8</ele>
        <time>2022-05-01T09:29:46Z</time>
      </trkpt>
      <trkpt lat="49.03456" lon="7.73775">
        <ele>292.8</ele>
        <time>2022-05-01T09:29:47Z</time>
      </trkpt>
      <trkpt lat="49.03459" lon="7.73776">
        <ele>292.8</ele>
        <time>2022-05-01T09:29:48Z</time>
      </trkpt>
      <trkpt lat="49.0347" lon="7.73775">
        <ele>292.6</ele>
        <time>2022-05-01T09:29:51Z</time>
      </trkpt>
      <trkpt lat="49.03474" lon="7.73776">
        <ele>292.6</ele>
        <time>2022-05-01T09:29:52Z</time>
      </trkpt>
      <trkpt lat="49.03483" lon="7.73779">
        <ele>292.4</ele>
        <time>2022-05-01T09:29:54Z</time>
      </trkpt>
      <trkpt lat="49.03487" lon="7.73781">
        <ele>292.4</ele>
        <time>2022-05-01T09:29:55Z</time>
      </trkpt>
      <trkpt lat="49.03491" lon="7.73782">
        <ele>292.2</ele>
        <time>2022-05-01T09:29:56Z</time>
      </trkpt>
      <trkpt lat="49.03495" lon="7.73783">
        <ele>292.2</ele>
        <time>2022-05-01T09:29:57Z</time>
      </trkpt>
      <trkpt lat="49.03515" lon="7.73789">
        <ele>292.2</ele>
        <time>2022-05-01T09:30:02Z</time>
      </trkpt>
      <trkpt lat="49.03519" lon="7.73791">
        <ele>292</ele>
        <time>2022-05-01T09:30:03Z</time>
      </trkpt>
      <trkpt lat="49.03523" lon="7.73793">
        <ele>292</ele>
        <time>2022-05-01T09:30:04Z</time>
      </trkpt>
      <trkpt lat="49.03526" lon="7.73795">
        <ele>292</ele>
        <time>2022-05-01T09:30:05Z</time>
      </trkpt>
      <trkpt lat="49.03529" lon="7.73796">
        <ele>292</ele>
        <time>2022-05-01T09:30:06Z</time>
      </trkpt>
      <trkpt lat="49.03532" lon="7.73796">
        <ele>292</ele>
        <time>2022-05-01T09:30:07Z</time>
      </trkpt>
      <trkpt lat="49.03535" lon="7.73798">
        <ele>292</ele>
        <time>2022-05-01T09:30:08Z</time>
      </trkpt>
      <trkpt lat="49.03539" lon="7.73799">
        <ele>292.2</ele>
        <time>2022-05-01T09:30:09Z</time>
      </trkpt>
      <trkpt lat="49.03542" lon="7.73799">
        <ele>292.2</ele>
        <time>2022-05-01T09:30:10Z</time>
      </trkpt>
      <trkpt lat="49.03545" lon="7.738">
        <ele>292.2</ele>
        <time>2022-05-01T09:30:11Z</time>
      </trkpt>
      <trkpt lat="49.03547" lon="7.738">
        <ele>292.2</ele>
        <time>2022-05-01T09:30:12Z</time>
      </trkpt>
      <trkpt lat="49.0355" lon="7.73801">
        <ele>292.2</ele>
        <time>2022-05-01T09:30:13Z</time>
      </trkpt>
      <trkpt lat="49.03552" lon="7.73803">
        <ele>292.2</ele>
        <time>2022-05-01T09:30:14Z</time>
      </trkpt>
      <trkpt lat="49.03556" lon="7.73804">
        <ele>292.2</ele>
        <time>2022-05-01T09:30:15Z</time>
      </trkpt>
      <trkpt lat="49.03573" lon="7.73808">
        <ele>292.2</ele>
        <time>2022-05-01T09:30:19Z</time>
      </trkpt>
      <trkpt lat="49.03585" lon="7.73813">
        <ele>292.2</ele>
        <time>2022-05-01T09:30:21Z</time>
      </trkpt>
      <trkpt lat="49.03591" lon="7.73815">
        <ele>292.2</ele>
        <time>2022-05-01T09:30:22Z</time>
      </trkpt>
      <trkpt lat="49.03595" lon="7.73817">
        <ele>292.2</ele>
        <time>2022-05-01T09:30:23Z</time>
      </trkpt>
      <trkpt lat="49.03599" lon="7.7382">
        <ele>292</ele>
        <time>2022-05-01T09:30:24Z</time>
      </trkpt>
      <trkpt lat="49.03607" lon="7.73826">
        <ele>292</ele>
        <time>2022-05-01T09:30:26Z</time>
      </trkpt>
      <trkpt lat="49.03616" lon="7.73829">
        <ele>291.8</ele>
        <time>2022-05-01T09:30:28Z</time>
      </trkpt>
      <trkpt lat="49.03628" lon="7.73828">
        <ele>291.6</ele>
        <time>2022-05-01T09:30:30Z</time>
      </trkpt>
      <trkpt lat="49.03633" lon="7.73827">
        <ele>291.6</ele>
        <time>2022-05-01T09:30:31Z</time>
      </trkpt>
      <trkpt lat="49.03639" lon="7.73829">
        <ele>291.6</ele>
        <time>2022-05-01T09:30:32Z</time>
      </trkpt>
      <trkpt lat="49.03646" lon="7.73831">
        <ele>291.4</ele>
        <time>2022-05-01T09:30:33Z</time>
      </trkpt>
      <trkpt lat="49.03656" lon="7.73834">
        <ele>291</ele>
        <time>2022-05-01T09:30:35Z</time>
      </trkpt>
      <trkpt lat="49.0366" lon="7.73838">
        <ele>290.8</ele>
        <time>2022-05-01T09:30:36Z</time>
      </trkpt>
      <trkpt lat="49.03665" lon="7.7384">
        <ele>290.8</ele>
        <time>2022-05-01T09:30:37Z</time>
      </trkpt>
      <trkpt lat="49.03669" lon="7.73843">
        <ele>290.8</ele>
        <time>2022-05-01T09:30:38Z</time>
      </trkpt>
      <trkpt lat="49.03675" lon="7.73844">
        <ele>290.8</ele>
        <time>2022-05-01T09:30:39Z</time>
      </trkpt>
      <trkpt lat="49.0369" lon="7.73849">
        <ele>290.6</ele>
        <time>2022-05-01T09:30:42Z</time>
      </trkpt>
      <trkpt lat="49.03696" lon="7.73851">
        <ele>290.6</ele>
        <time>2022-05-01T09:30:43Z</time>
      </trkpt>
      <trkpt lat="49.03701" lon="7.73854">
        <ele>290.6</ele>
        <time>2022-05-01T09:30:44Z</time>
      </trkpt>
      <trkpt lat="49.03705" lon="7.73859">
        <ele>290.6</ele>
        <time>2022-05-01T09:30:45Z</time>
      </trkpt>
      <trkpt lat="49.0371" lon="7.73864">
        <ele>290.4</ele>
        <time>2022-05-01T09:30:46Z</time>
      </trkpt>
      <trkpt lat="49.03715" lon="7.7387">
        <ele>290.4</ele>
        <time>2022-05-01T09:30:47Z</time>
      </trkpt>
      <trkpt lat="49.03719" lon="7.73876">
        <ele>290.4</ele>
        <time>2022-05-01T09:30:48Z</time>
      </trkpt>
      <trkpt lat="49.03723" lon="7.73885">
        <ele>290.4</ele>
        <time>2022-05-01T09:30:49Z</time>
      </trkpt>
      <trkpt lat="49.03726" lon="7.73891">
        <ele>290.2</ele>
        <time>2022-05-01T09:30:50Z</time>
      </trkpt>
      <trkpt lat="49.03729" lon="7.73899">
        <ele>290.2</ele>
        <time>2022-05-01T09:30:51Z</time>
      </trkpt>
      <trkpt lat="49.03732" lon="7.73907">
        <ele>290.2</ele>
        <time>2022-05-01T09:30:52Z</time>
      </trkpt>
      <trkpt lat="49.03742" lon="7.73927">
        <ele>290</ele>
        <time>2022-05-01T09:30:55Z</time>
      </trkpt>
      <trkpt lat="49.03751" lon="7.73949">
        <ele>289.8</ele>
        <time>2022-05-01T09:30:58Z</time>
      </trkpt>
      <trkpt lat="49.03754" lon="7.73966">
        <ele>289.6</ele>
        <time>2022-05-01T09:31:00Z</time>
      </trkpt>
      <trkpt lat="49.03756" lon="7.73982">
        <ele>289.4</ele>
        <time>2022-05-01T09:31:02Z</time>
      </trkpt>
      <trkpt lat="49.03756" lon="7.73997">
        <ele>289.4</ele>
        <time>2022-05-01T09:31:04Z</time>
      </trkpt>
      <trkpt lat="49.03755" lon="7.74006">
        <ele>289.4</ele>
        <time>2022-05-01T09:31:05Z</time>
      </trkpt>
      <trkpt lat="49.03754" lon="7.74014">
        <ele>289.4</ele>
        <time>2022-05-01T09:31:06Z</time>
      </trkpt>
      <trkpt lat="49.03756" lon="7.74022">
        <ele>289.4</ele>
        <time>2022-05-01T09:31:07Z</time>
      </trkpt>
      <trkpt lat="49.03757" lon="7.74036">
        <ele>289.2</ele>
        <time>2022-05-01T09:31:09Z</time>
      </trkpt>
      <trkpt lat="49.03756" lon="7.74044">
        <ele>289.2</ele>
        <time>2022-05-01T09:31:10Z</time>
      </trkpt>
      <trkpt lat="49.03754" lon="7.74052">
        <ele>289.2</ele>
        <time>2022-05-01T09:31:11Z</time>
      </trkpt>
      <trkpt lat="49.03753" lon="7.74059">
        <ele>289.2</ele>
        <time>2022-05-01T09:31:12Z</time>
      </trkpt>
      <trkpt lat="49.03752" lon="7.74067">
        <ele>289.2</ele>
        <time>2022-05-01T09:31:13Z</time>
      </trkpt>
      <trkpt lat="49.0375" lon="7.74076">
        <ele>289</ele>
        <time>2022-05-01T09:31:14Z</time>
      </trkpt>
      <trkpt lat="49.03748" lon="7.74082">
        <ele>289</ele>
        <time>2022-05-01T09:31:15Z</time>
      </trkpt>
      <trkpt lat="49.03744" lon="7.74108">
        <ele>288.8</ele>
        <time>2022-05-01T09:31:18Z</time>
      </trkpt>
      <trkpt lat="49.03736" lon="7.74126">
        <ele>288.8</ele>
        <time>2022-05-01T09:31:20Z</time>
      </trkpt>
      <trkpt lat="49.03734" lon="7.74147">
        <ele>288.6</ele>
        <time>2022-05-01T09:31:23Z</time>
      </trkpt>
      <trkpt lat="49.03732" lon="7.74161">
        <ele>288.4</ele>
        <time>2022-05-01T09:31:25Z</time>
      </trkpt>
      <trkpt lat="49.0373" lon="7.74167">
        <ele>288.4</ele>
        <time>2022-05-01T09:31:26Z</time>
      </trkpt>
      <trkpt lat="49.03723" lon="7.74179">
        <ele>288.4</ele>
        <time>2022-05-01T09:31:28Z</time>
      </trkpt>
      <trkpt lat="49.0372" lon="7.74184">
        <ele>288.4</ele>
        <time>2022-05-01T09:31:29Z</time>
      </trkpt>
      <trkpt lat="49.03716" lon="7.74189">
        <ele>288.4</ele>
        <time>2022-05-01T09:31:30Z</time>
      </trkpt>
      <trkpt lat="49.03713" lon="7.74194">
        <ele>288.4</ele>
        <time>2022-05-01T09:31:31Z</time>
      </trkpt>
      <trkpt lat="49.03705" lon="7.74203">
        <ele>288.2</ele>
        <time>2022-05-01T09:31:33Z</time>
      </trkpt>
      <trkpt lat="49.03702" lon="7.74208">
        <ele>288.2</ele>
        <time>2022-05-01T09:31:34Z</time>
      </trkpt>
      <trkpt lat="49.03686" lon="7.74235">
        <ele>287.8</ele>
        <time>2022-05-01T09:31:39Z</time>
      </trkpt>
      <trkpt lat="49.03683" lon="7.74239">
        <ele>287.8</ele>
        <time>2022-05-01T09:31:40Z</time>
      </trkpt>
      <trkpt lat="49.0368" lon="7.74244">
        <ele>287.8</ele>
        <time>2022-05-01T09:31:41Z</time>
      </trkpt>
      <trkpt lat="49.03677" lon="7.74248">
        <ele>287.8</ele>
        <time>2022-05-01T09:31:42Z</time>
      </trkpt>
      <trkpt lat="49.03673" lon="7.74252">
        <ele>287.8</ele>
        <time>2022-05-01T09:31:43Z</time>
      </trkpt>
      <trkpt lat="49.0367" lon="7.74256">
        <ele>287.8</ele>
        <time>2022-05-01T09:31:44Z</time>
      </trkpt>
      <trkpt lat="49.03667" lon="7.7426">
        <ele>287.8</ele>
        <time>2022-05-01T09:31:45Z</time>
      </trkpt>
      <trkpt lat="49.03663" lon="7.74264">
        <ele>287.8</ele>
        <time>2022-05-01T09:31:46Z</time>
      </trkpt>
      <trkpt lat="49.0366" lon="7.7427">
        <ele>287.6</ele>
        <time>2022-05-01T09:31:47Z</time>
      </trkpt>
      <trkpt lat="49.03656" lon="7.74276">
        <ele>287.6</ele>
        <time>2022-05-01T09:31:48Z</time>
      </trkpt>
      <trkpt lat="49.03652" lon="7.74281">
        <ele>287.6</ele>
        <time>2022-05-01T09:31:49Z</time>
      </trkpt>
      <trkpt lat="49.03636" lon="7.74299">
        <ele>287.6</ele>
        <time>2022-05-01T09:31:53Z</time>
      </trkpt>
      <trkpt lat="49.03627" lon="7.7431">
        <ele>287.6</ele>
        <time>2022-05-01T09:31:56Z</time>
      </trkpt>
      <trkpt lat="49.03624" lon="7.74314">
        <ele>287.6</ele>
        <time>2022-05-01T09:31:57Z</time>
      </trkpt>
      <trkpt lat="49.03622" lon="7.74319">
        <ele>287.6</ele>
        <time>2022-05-01T09:31:58Z</time>
      </trkpt>
      <trkpt lat="49.03621" lon="7.74325">
        <ele>287.6</ele>
        <time>2022-05-01T09:31:59Z</time>
      </trkpt>
      <trkpt lat="49.0362" lon="7.74333">
        <ele>287.8</ele>
        <time>2022-05-01T09:32:00Z</time>
      </trkpt>
      <trkpt lat="49.0362" lon="7.74341">
        <ele>287.8</ele>
        <time>2022-05-01T09:32:01Z</time>
      </trkpt>
      <trkpt lat="49.0362" lon="7.74349">
        <ele>287.8</ele>
        <time>2022-05-01T09:32:02Z</time>
      </trkpt>
      <trkpt lat="49.0362" lon="7.74357">
        <ele>287.8</ele>
        <time>2022-05-01T09:32:03Z</time>
      </trkpt>
      <trkpt lat="49.03623" lon="7.74364">
        <ele>287.8</ele>
        <time>2022-05-01T09:32:04Z</time>
      </trkpt>
      <trkpt lat="49.03627" lon="7.7437">
        <ele>287.8</ele>
        <time>2022-05-01T09:32:05Z</time>
      </trkpt>
      <trkpt lat="49.03632" lon="7.74375">
        <ele>287.8</ele>
        <time>2022-05-01T09:32:06Z</time>
      </trkpt>
      <trkpt lat="49.03637" lon="7.7438">
        <ele>287.8</ele>
        <time>2022-05-01T09:32:07Z</time>
      </trkpt>
      <trkpt lat="49.03644" lon="7.74384">
        <ele>287.8</ele>
        <time>2022-05-01T09:32:08Z</time>
      </trkpt>
      <trkpt lat="49.0365" lon="7.74386">
        <ele>287.8</ele>
        <time>2022-05-01T09:32:09Z</time>
      </trkpt>
      <trkpt lat="49.03657" lon="7.74389">
        <ele>287.8</ele>
        <time>2022-05-01T09:32:10Z</time>
      </trkpt>
      <trkpt lat="49.03663" lon="7.74392">
        <ele>287.4</ele>
        <time>2022-05-01T09:32:11Z</time>
      </trkpt>
      <trkpt lat="49.03669" lon="7.74398">
        <ele>287.2</ele>
        <time>2022-05-01T09:32:12Z</time>
      </trkpt>
      <trkpt lat="49.03673" lon="7.74404">
        <ele>286.8</ele>
        <time>2022-05-01T09:32:13Z</time>
      </trkpt>
      <trkpt lat="49.03678" lon="7.74412">
        <ele>286.4</ele>
        <time>2022-05-01T09:32:14Z</time>
      </trkpt>
      <trkpt lat="49.03682" lon="7.7442">
        <ele>285.8</ele>
        <time>2022-05-01T09:32:15Z</time>
      </trkpt>
      <trkpt lat="49.03685" lon="7.74429">
        <ele>285.2</ele>
        <time>2022-05-01T09:32:16Z</time>
      </trkpt>
      <trkpt lat="49.03688" lon="7.74439">
        <ele>284.8</ele>
        <time>2022-05-01T09:32:17Z</time>
      </trkpt>
      <trkpt lat="49.03691" lon="7.7445">
        <ele>284</ele>
        <time>2022-05-01T09:32:18Z</time>
      </trkpt>
      <trkpt lat="49.03701" lon="7.74484">
        <ele>282.8</ele>
        <time>2022-05-01T09:32:21Z</time>
      </trkpt>
      <trkpt lat="49.03704" lon="7.74495">
        <ele>282.4</ele>
        <time>2022-05-01T09:32:22Z</time>
      </trkpt>
      <trkpt lat="49.03708" lon="7.74505">
        <ele>282</ele>
        <time>2022-05-01T09:32:23Z</time>
      </trkpt>
      <trkpt lat="49.03712" lon="7.74517">
        <ele>281.4</ele>
        <time>2022-05-01T09:32:24Z</time>
      </trkpt>
      <trkpt lat="49.03715" lon="7.7454">
        <ele>280.4</ele>
        <time>2022-05-01T09:32:26Z</time>
      </trkpt>
      <trkpt lat="49.03717" lon="7.74552">
        <ele>279.6</ele>
        <time>2022-05-01T09:32:27Z</time>
      </trkpt>
      <trkpt lat="49.03721" lon="7.74576">
        <ele>278.4</ele>
        <time>2022-05-01T09:32:29Z</time>
      </trkpt>
      <trkpt lat="49.03721" lon="7.74588">
        <ele>277.8</ele>
        <time>2022-05-01T09:32:30Z</time>
      </trkpt>
      <trkpt lat="49.03722" lon="7.74599">
        <ele>276.8</ele>
        <time>2022-05-01T09:32:31Z</time>
      </trkpt>
      <trkpt lat="49.0372" lon="7.74611">
        <ele>276</ele>
        <time>2022-05-01T09:32:32Z</time>
      </trkpt>
      <trkpt lat="49.03717" lon="7.74621">
        <ele>275.8</ele>
        <time>2022-05-01T09:32:33Z</time>
      </trkpt>
      <trkpt lat="49.03711" lon="7.74627">
        <ele>275.2</ele>
        <time>2022-05-01T09:32:34Z</time>
      </trkpt>
      <trkpt lat="49.03705" lon="7.74629">
        <ele>274.8</ele>
        <time>2022-05-01T09:32:35Z</time>
      </trkpt>
      <trkpt lat="49.03697" lon="7.7463">
        <ele>274.4</ele>
        <time>2022-05-01T09:32:36Z</time>
      </trkpt>
      <trkpt lat="49.0369" lon="7.74632">
        <ele>273.8</ele>
        <time>2022-05-01T09:32:37Z</time>
      </trkpt>
      <trkpt lat="49.03684" lon="7.74634">
        <ele>272.6</ele>
        <time>2022-05-01T09:32:38Z</time>
      </trkpt>
      <trkpt lat="49.03677" lon="7.74636">
        <ele>272</ele>
        <time>2022-05-01T09:32:39Z</time>
      </trkpt>
      <trkpt lat="49.03671" lon="7.74637">
        <ele>271.6</ele>
        <time>2022-05-01T09:32:40Z</time>
      </trkpt>
      <trkpt lat="49.03657" lon="7.74638">
        <ele>270.4</ele>
        <time>2022-05-01T09:32:42Z</time>
      </trkpt>
      <trkpt lat="49.0365" lon="7.74638">
        <ele>270.2</ele>
        <time>2022-05-01T09:32:43Z</time>
      </trkpt>
      <trkpt lat="49.03633" lon="7.74642">
        <ele>269.2</ele>
        <time>2022-05-01T09:32:45Z</time>
      </trkpt>
      <trkpt lat="49.03625" lon="7.74645">
        <ele>268.6</ele>
        <time>2022-05-01T09:32:46Z</time>
      </trkpt>
      <trkpt lat="49.03618" lon="7.74647">
        <ele>268.2</ele>
        <time>2022-05-01T09:32:47Z</time>
      </trkpt>
      <trkpt lat="49.0361" lon="7.74648">
        <ele>268</ele>
        <time>2022-05-01T09:32:48Z</time>
      </trkpt>
      <trkpt lat="49.03594" lon="7.74652">
        <ele>267</ele>
        <time>2022-05-01T09:32:50Z</time>
      </trkpt>
      <trkpt lat="49.03569" lon="7.74658">
        <ele>265.8</ele>
        <time>2022-05-01T09:32:53Z</time>
      </trkpt>
      <trkpt lat="49.03553" lon="7.74661">
        <ele>265.2</ele>
        <time>2022-05-01T09:32:55Z</time>
      </trkpt>
      <trkpt lat="49.03546" lon="7.74662">
        <ele>264.2</ele>
        <time>2022-05-01T09:32:56Z</time>
      </trkpt>
      <trkpt lat="49.03539" lon="7.74663">
        <ele>263.6</ele>
        <time>2022-05-01T09:32:57Z</time>
      </trkpt>
      <trkpt lat="49.03531" lon="7.74664">
        <ele>262.6</ele>
        <time>2022-05-01T09:32:58Z</time>
      </trkpt>
      <trkpt lat="49.03514" lon="7.74672">
        <ele>261.6</ele>
        <time>2022-05-01T09:33:00Z</time>
      </trkpt>
      <trkpt lat="49.035" lon="7.7468">
        <ele>260.8</ele>
        <time>2022-05-01T09:33:02Z</time>
      </trkpt>
      <trkpt lat="49.03493" lon="7.74684">
        <ele>260.4</ele>
        <time>2022-05-01T09:33:03Z</time>
      </trkpt>
      <trkpt lat="49.03487" lon="7.74688">
        <ele>259.8</ele>
        <time>2022-05-01T09:33:04Z</time>
      </trkpt>
      <trkpt lat="49.03481" lon="7.74692">
        <ele>259.4</ele>
        <time>2022-05-01T09:33:05Z</time>
      </trkpt>
      <trkpt lat="49.03476" lon="7.74695">
        <ele>259</ele>
        <time>2022-05-01T09:33:06Z</time>
      </trkpt>
      <trkpt lat="49.03471" lon="7.74699">
        <ele>258.4</ele>
        <time>2022-05-01T09:33:07Z</time>
      </trkpt>
      <trkpt lat="49.03466" lon="7.74701">
        <ele>258</ele>
        <time>2022-05-01T09:33:08Z</time>
      </trkpt>
      <trkpt lat="49.03461" lon="7.74704">
        <ele>257.4</ele>
        <time>2022-05-01T09:33:09Z</time>
      </trkpt>
      <trkpt lat="49.03456" lon="7.74707">
        <ele>256.8</ele>
        <time>2022-05-01T09:33:10Z</time>
      </trkpt>
      <trkpt lat="49.03451" lon="7.74709">
        <ele>256.6</ele>
        <time>2022-05-01T09:33:11Z</time>
      </trkpt>
      <trkpt lat="49.03424" lon="7.74721">
        <ele>255.6</ele>
        <time>2022-05-01T09:33:15Z</time>
      </trkpt>
      <trkpt lat="49.03396" lon="7.7474">
        <ele>254.4</ele>
        <time>2022-05-01T09:33:19Z</time>
      </trkpt>
      <trkpt lat="49.03389" lon="7.74746">
        <ele>254</ele>
        <time>2022-05-01T09:33:20Z</time>
      </trkpt>
      <trkpt lat="49.03383" lon="7.74754">
        <ele>253.4</ele>
        <time>2022-05-01T09:33:21Z</time>
      </trkpt>
      <trkpt lat="49.03378" lon="7.74764">
        <ele>252.8</ele>
        <time>2022-05-01T09:33:22Z</time>
      </trkpt>
      <trkpt lat="49.03374" lon="7.74775">
        <ele>252</ele>
        <time>2022-05-01T09:33:23Z</time>
      </trkpt>
      <trkpt lat="49.03371" lon="7.74788">
        <ele>251.6</ele>
        <time>2022-05-01T09:33:24Z</time>
      </trkpt>
      <trkpt lat="49.03369" lon="7.74801">
        <ele>251</ele>
        <time>2022-05-01T09:33:25Z</time>
      </trkpt>
      <trkpt lat="49.03368" lon="7.74815">
        <ele>250.6</ele>
        <time>2022-05-01T09:33:26Z</time>
      </trkpt>
      <trkpt lat="49.03368" lon="7.74828">
        <ele>250.2</ele>
        <time>2022-05-01T09:33:27Z</time>
      </trkpt>
      <trkpt lat="49.03368" lon="7.74842">
        <ele>249.8</ele>
        <time>2022-05-01T09:33:28Z</time>
      </trkpt>
      <trkpt lat="49.03368" lon="7.74854">
        <ele>249.6</ele>
        <time>2022-05-01T09:33:29Z</time>
      </trkpt>
      <trkpt lat="49.03368" lon="7.74867">
        <ele>249</ele>
        <time>2022-05-01T09:33:30Z</time>
      </trkpt>
      <trkpt lat="49.03369" lon="7.74882">
        <ele>248.4</ele>
        <time>2022-05-01T09:33:31Z</time>
      </trkpt>
      <trkpt lat="49.03372" lon="7.7491">
        <ele>246.8</ele>
        <time>2022-05-01T09:33:33Z</time>
      </trkpt>
      <trkpt lat="49.03375" lon="7.74939">
        <ele>245.6</ele>
        <time>2022-05-01T09:33:35Z</time>
      </trkpt>
      <trkpt lat="49.03377" lon="7.74969">
        <ele>244.6</ele>
        <time>2022-05-01T09:33:37Z</time>
      </trkpt>
      <trkpt lat="49.03377" lon="7.74984">
        <ele>244.4</ele>
        <time>2022-05-01T09:33:38Z</time>
      </trkpt>
      <trkpt lat="49.03377" lon="7.74999">
        <ele>243.6</ele>
        <time>2022-05-01T09:33:39Z</time>
      </trkpt>
      <trkpt lat="49.03376" lon="7.75014">
        <ele>242.8</ele>
        <time>2022-05-01T09:33:40Z</time>
      </trkpt>
      <trkpt lat="49.03373" lon="7.75057">
        <ele>241.4</ele>
        <time>2022-05-01T09:33:43Z</time>
      </trkpt>
      <trkpt lat="49.03372" lon="7.75071">
        <ele>240.8</ele>
        <time>2022-05-01T09:33:44Z</time>
      </trkpt>
      <trkpt lat="49.03372" lon="7.75085">
        <ele>240</ele>
        <time>2022-05-01T09:33:45Z</time>
      </trkpt>
      <trkpt lat="49.03372" lon="7.75114">
        <ele>238.6</ele>
        <time>2022-05-01T09:33:47Z</time>
      </trkpt>
      <trkpt lat="49.03371" lon="7.75128">
        <ele>237.8</ele>
        <time>2022-05-01T09:33:48Z</time>
      </trkpt>
      <trkpt lat="49.03368" lon="7.75141">
        <ele>237.2</ele>
        <time>2022-05-01T09:33:49Z</time>
      </trkpt>
      <trkpt lat="49.03365" lon="7.75156">
        <ele>236.2</ele>
        <time>2022-05-01T09:33:50Z</time>
      </trkpt>
      <trkpt lat="49.03363" lon="7.75168">
        <ele>234.6</ele>
        <time>2022-05-01T09:33:51Z</time>
      </trkpt>
      <trkpt lat="49.03361" lon="7.75181">
        <ele>234</ele>
        <time>2022-05-01T09:33:52Z</time>
      </trkpt>
      <trkpt lat="49.03358" lon="7.75194">
        <ele>233.6</ele>
        <time>2022-05-01T09:33:53Z</time>
      </trkpt>
      <trkpt lat="49.03356" lon="7.75207">
        <ele>233</ele>
        <time>2022-05-01T09:33:54Z</time>
      </trkpt>
      <trkpt lat="49.03355" lon="7.75219">
        <ele>232.4</ele>
        <time>2022-05-01T09:33:55Z</time>
      </trkpt>
      <trkpt lat="49.03353" lon="7.75233">
        <ele>231.8</ele>
        <time>2022-05-01T09:33:56Z</time>
      </trkpt>
      <trkpt lat="49.03351" lon="7.75246">
        <ele>231.4</ele>
        <time>2022-05-01T09:33:57Z</time>
      </trkpt>
      <trkpt lat="49.03349" lon="7.75271">
        <ele>230</ele>
        <time>2022-05-01T09:33:59Z</time>
      </trkpt>
      <trkpt lat="49.03348" lon="7.75284">
        <ele>229.6</ele>
        <time>2022-05-01T09:34:00Z</time>
      </trkpt>
      <trkpt lat="49.03347" lon="7.75295">
        <ele>229.4</ele>
        <time>2022-05-01T09:34:01Z</time>
      </trkpt>
      <trkpt lat="49.03346" lon="7.75307">
        <ele>228.6</ele>
        <time>2022-05-01T09:34:02Z</time>
      </trkpt>
      <trkpt lat="49.03343" lon="7.75319">
        <ele>227.8</ele>
        <time>2022-05-01T09:34:03Z</time>
      </trkpt>
      <trkpt lat="49.03342" lon="7.75332">
        <ele>227</ele>
        <time>2022-05-01T09:34:04Z</time>
      </trkpt>
      <trkpt lat="49.03339" lon="7.75357">
        <ele>225.8</ele>
        <time>2022-05-01T09:34:06Z</time>
      </trkpt>
      <trkpt lat="49.03334" lon="7.75394">
        <ele>224.2</ele>
        <time>2022-05-01T09:34:09Z</time>
      </trkpt>
      <trkpt lat="49.03332" lon="7.75406">
        <ele>223.6</ele>
        <time>2022-05-01T09:34:10Z</time>
      </trkpt>
      <trkpt lat="49.0333" lon="7.75418">
        <ele>223</ele>
        <time>2022-05-01T09:34:11Z</time>
      </trkpt>
      <trkpt lat="49.03323" lon="7.75453">
        <ele>221.4</ele>
        <time>2022-05-01T09:34:14Z</time>
      </trkpt>
      <trkpt lat="49.03315" lon="7.75477">
        <ele>220.8</ele>
        <time>2022-05-01T09:34:16Z</time>
      </trkpt>
      <trkpt lat="49.03311" lon="7.75489">
        <ele>220.2</ele>
        <time>2022-05-01T09:34:17Z</time>
      </trkpt>
      <trkpt lat="49.03305" lon="7.75512">
        <ele>219.2</ele>
        <time>2022-05-01T09:34:19Z</time>
      </trkpt>
      <trkpt lat="49.03301" lon="7.75525">
        <ele>218.6</ele>
        <time>2022-05-01T09:34:20Z</time>
      </trkpt>
      <trkpt lat="49.03298" lon="7.75537">
        <ele>218.4</ele>
        <time>2022-05-01T09:34:21Z</time>
      </trkpt>
      <trkpt lat="49.03297" lon="7.7555">
        <ele>218.2</ele>
        <time>2022-05-01T09:34:22Z</time>
      </trkpt>
      <trkpt lat="49.03297" lon="7.75562">
        <ele>217.6</ele>
        <time>2022-05-01T09:34:23Z</time>
      </trkpt>
      <trkpt lat="49.03294" lon="7.75576">
        <ele>217</ele>
        <time>2022-05-01T09:34:24Z</time>
      </trkpt>
      <trkpt lat="49.03291" lon="7.7559">
        <ele>216</ele>
        <time>2022-05-01T09:34:25Z</time>
      </trkpt>
      <trkpt lat="49.03288" lon="7.75604">
        <ele>215.2</ele>
        <time>2022-05-01T09:34:26Z</time>
      </trkpt>
      <trkpt lat="49.03289" lon="7.75627">
        <ele>214.6</ele>
        <time>2022-05-01T09:34:28Z</time>
      </trkpt>
      <trkpt lat="49.03289" lon="7.7564">
        <ele>214.2</ele>
        <time>2022-05-01T09:34:29Z</time>
      </trkpt>
      <trkpt lat="49.03287" lon="7.75652">
        <ele>213.8</ele>
        <time>2022-05-01T09:34:30Z</time>
      </trkpt>
      <trkpt lat="49.03285" lon="7.75666">
        <ele>213.4</ele>
        <time>2022-05-01T09:34:31Z</time>
      </trkpt>
      <trkpt lat="49.03285" lon="7.75679">
        <ele>213</ele>
        <time>2022-05-01T09:34:32Z</time>
      </trkpt>
      <trkpt lat="49.03286" lon="7.7569">
        <ele>212.6</ele>
        <time>2022-05-01T09:34:33Z</time>
      </trkpt>
      <trkpt lat="49.03286" lon="7.75702">
        <ele>211.8</ele>
        <time>2022-05-01T09:34:34Z</time>
      </trkpt>
      <trkpt lat="49.03286" lon="7.75714">
        <ele>211.2</ele>
        <time>2022-05-01T09:34:35Z</time>
      </trkpt>
      <trkpt lat="49.03284" lon="7.75725">
        <ele>210.6</ele>
        <time>2022-05-01T09:34:36Z</time>
      </trkpt>
      <trkpt lat="49.03283" lon="7.75735">
        <ele>210</ele>
        <time>2022-05-01T09:34:37Z</time>
      </trkpt>
      <trkpt lat="49.03283" lon="7.75744">
        <ele>209.6</ele>
        <time>2022-05-01T09:34:38Z</time>
      </trkpt>
      <trkpt lat="49.03285" lon="7.75751">
        <ele>208.8</ele>
        <time>2022-05-01T09:34:39Z</time>
      </trkpt>
      <trkpt lat="49.03287" lon="7.75759">
        <ele>208.4</ele>
        <time>2022-05-01T09:34:40Z</time>
      </trkpt>
      <trkpt lat="49.03289" lon="7.75766">
        <ele>208</ele>
        <time>2022-05-01T09:34:41Z</time>
      </trkpt>
      <trkpt lat="49.03292" lon="7.75773">
        <ele>208</ele>
        <time>2022-05-01T09:34:42Z</time>
      </trkpt>
      <trkpt lat="49.03294" lon="7.7578">
        <ele>207.8</ele>
        <time>2022-05-01T09:34:43Z</time>
      </trkpt>
      <trkpt lat="49.03296" lon="7.75786">
        <ele>207.8</ele>
        <time>2022-05-01T09:34:44Z</time>
      </trkpt>
      <trkpt lat="49.033" lon="7.75798">
        <ele>207.8</ele>
        <time>2022-05-01T09:34:46Z</time>
      </trkpt>
      <trkpt lat="49.03302" lon="7.75804">
        <ele>207.8</ele>
        <time>2022-05-01T09:34:47Z</time>
      </trkpt>
      <trkpt lat="49.03304" lon="7.7581">
        <ele>207.8</ele>
        <time>2022-05-01T09:34:48Z</time>
      </trkpt>
      <trkpt lat="49.03305" lon="7.75816">
        <ele>207.8</ele>
        <time>2022-05-01T09:34:49Z</time>
      </trkpt>
      <trkpt lat="49.03307" lon="7.75821">
        <ele>207.8</ele>
        <time>2022-05-01T09:34:50Z</time>
      </trkpt>
      <trkpt lat="49.03308" lon="7.75827">
        <ele>208</ele>
        <time>2022-05-01T09:34:51Z</time>
      </trkpt>
      <trkpt lat="49.03309" lon="7.75833">
        <ele>208.4</ele>
        <time>2022-05-01T09:34:52Z</time>
      </trkpt>
      <trkpt lat="49.0331" lon="7.75838">
        <ele>208.8</ele>
        <time>2022-05-01T09:34:53Z</time>
      </trkpt>
      <trkpt lat="49.03311" lon="7.75851">
        <ele>209.4</ele>
        <time>2022-05-01T09:34:55Z</time>
      </trkpt>
      <trkpt lat="49.03313" lon="7.75869">
        <ele>210.4</ele>
        <time>2022-05-01T09:34:58Z</time>
      </trkpt>
      <trkpt lat="49.03313" lon="7.75887">
        <ele>211.6</ele>
        <time>2022-05-01T09:35:01Z</time>
      </trkpt>
      <trkpt lat="49.03314" lon="7.75892">
        <ele>211.8</ele>
        <time>2022-05-01T09:35:02Z</time>
      </trkpt>
      <trkpt lat="49.03314" lon="7.75898">
        <ele>212.2</ele>
        <time>2022-05-01T09:35:03Z</time>
      </trkpt>
      <trkpt lat="49.03315" lon="7.75904">
        <ele>212.4</ele>
        <time>2022-05-01T09:35:04Z</time>
      </trkpt>
      <trkpt lat="49.03316" lon="7.75911">
        <ele>212.6</ele>
        <time>2022-05-01T09:35:05Z</time>
      </trkpt>
      <trkpt lat="49.03316" lon="7.75932">
        <ele>212.8</ele>
        <time>2022-05-01T09:35:08Z</time>
      </trkpt>
      <trkpt lat="49.03317" lon="7.75941">
        <ele>212.8</ele>
        <time>2022-05-01T09:35:09Z</time>
      </trkpt>
      <trkpt lat="49.03317" lon="7.75948">
        <ele>212.8</ele>
        <time>2022-05-01T09:35:10Z</time>
      </trkpt>
      <trkpt lat="49.03318" lon="7.75955">
        <ele>212.8</ele>
        <time>2022-05-01T09:35:11Z</time>
      </trkpt>
      <trkpt lat="49.03319" lon="7.75962">
        <ele>212.8</ele>
        <time>2022-05-01T09:35:12Z</time>
      </trkpt>
      <trkpt lat="49.0332" lon="7.7597">
        <ele>212.8</ele>
        <time>2022-05-01T09:35:13Z</time>
      </trkpt>
      <trkpt lat="49.03321" lon="7.75977">
        <ele>212.8</ele>
        <time>2022-05-01T09:35:14Z</time>
      </trkpt>
      <trkpt lat="49.03321" lon="7.75984">
        <ele>212.6</ele>
        <time>2022-05-01T09:35:15Z</time>
      </trkpt>
      <trkpt lat="49.03321" lon="7.75991">
        <ele>212.2</ele>
        <time>2022-05-01T09:35:16Z</time>
      </trkpt>
      <trkpt lat="49.03322" lon="7.75997">
        <ele>212.2</ele>
        <time>2022-05-01T09:35:17Z</time>
      </trkpt>
      <trkpt lat="49.03322" lon="7.76004">
        <ele>212</ele>
        <time>2022-05-01T09:35:18Z</time>
      </trkpt>
      <trkpt lat="49.03322" lon="7.7601">
        <ele>212</ele>
        <time>2022-05-01T09:35:19Z</time>
      </trkpt>
      <trkpt lat="49.03321" lon="7.76017">
        <ele>212</ele>
        <time>2022-05-01T09:35:20Z</time>
      </trkpt>
      <trkpt lat="49.0332" lon="7.76024">
        <ele>212</ele>
        <time>2022-05-01T09:35:21Z</time>
      </trkpt>
      <trkpt lat="49.03317" lon="7.76051">
        <ele>212</ele>
        <time>2022-05-01T09:35:25Z</time>
      </trkpt>
      <trkpt lat="49.03315" lon="7.76065">
        <ele>212.2</ele>
        <time>2022-05-01T09:35:27Z</time>
      </trkpt>
      <trkpt lat="49.03312" lon="7.76084">
        <ele>212.4</ele>
        <time>2022-05-01T09:35:30Z</time>
      </trkpt>
      <trkpt lat="49.0331" lon="7.76089">
        <ele>212.4</ele>
        <time>2022-05-01T09:35:31Z</time>
      </trkpt>
      <trkpt lat="49.03306" lon="7.76094">
        <ele>212.4</ele>
        <time>2022-05-01T09:35:32Z</time>
      </trkpt>
      <trkpt lat="49.03296" lon="7.76098">
        <ele>212.4</ele>
        <time>2022-05-01T09:35:34Z</time>
      </trkpt>
      <trkpt lat="49.03284" lon="7.76097">
        <ele>212.4</ele>
        <time>2022-05-01T09:35:36Z</time>
      </trkpt>
      <trkpt lat="49.03276" lon="7.76096">
        <ele>212.4</ele>
        <time>2022-05-01T09:35:37Z</time>
      </trkpt>
      <trkpt lat="49.03268" lon="7.76094">
        <ele>212.4</ele>
        <time>2022-05-01T09:35:38Z</time>
      </trkpt>
      <trkpt lat="49.03249" lon="7.76089">
        <ele>212.2</ele>
        <time>2022-05-01T09:35:40Z</time>
      </trkpt>
      <trkpt lat="49.03228" lon="7.76083">
        <ele>211.2</ele>
        <time>2022-05-01T09:35:42Z</time>
      </trkpt>
      <trkpt lat="49.03207" lon="7.76078">
        <ele>209.2</ele>
        <time>2022-05-01T09:35:44Z</time>
      </trkpt>
      <trkpt lat="49.03198" lon="7.76075">
        <ele>208</ele>
        <time>2022-05-01T09:35:45Z</time>
      </trkpt>
      <trkpt lat="49.03188" lon="7.76072">
        <ele>206.4</ele>
        <time>2022-05-01T09:35:46Z</time>
      </trkpt>
      <trkpt lat="49.0318" lon="7.76069">
        <ele>204.6</ele>
        <time>2022-05-01T09:35:47Z</time>
      </trkpt>
      <trkpt lat="49.03172" lon="7.76066">
        <ele>202.8</ele>
        <time>2022-05-01T09:35:48Z</time>
      </trkpt>
      <trkpt lat="49.03165" lon="7.76064">
        <ele>202</ele>
        <time>2022-05-01T09:35:49Z</time>
      </trkpt>
      <trkpt lat="49.03159" lon="7.76064">
        <ele>201.6</ele>
        <time>2022-05-01T09:35:50Z</time>
      </trkpt>
      <trkpt lat="49.03155" lon="7.76065">
        <ele>201.4</ele>
        <time>2022-05-01T09:35:51Z</time>
      </trkpt>
      <trkpt lat="49.03151" lon="7.76067">
        <ele>201.4</ele>
        <time>2022-05-01T09:35:52Z</time>
      </trkpt>
      <trkpt lat="49.03149" lon="7.76069">
        <ele>201.4</ele>
        <time>2022-05-01T09:35:53Z</time>
      </trkpt>
      <trkpt lat="49.03149" lon="7.76071">
        <ele>201.2</ele>
        <time>2022-05-01T09:35:54Z</time>
      </trkpt>
      <trkpt lat="49.03149" lon="7.76072">
        <ele>201.2</ele>
        <time>2022-05-01T09:35:55Z</time>
      </trkpt>
      <trkpt lat="49.03149" lon="7.76072">
        <ele>201.2</ele>
        <time>2022-05-01T09:35:56Z</time>
      </trkpt>
      <trkpt lat="49.03149" lon="7.76072">
        <ele>201.2</ele>
        <time>2022-05-01T09:35:57Z</time>
      </trkpt>
      <trkpt lat="49.03149" lon="7.76072">
        <ele>201.4</ele>
        <time>2022-05-01T09:35:58Z</time>
      </trkpt>
      <trkpt lat="49.03149" lon="7.76072">
        <ele>202.4</ele>
        <time>2022-05-01T09:35:59Z</time>
      </trkpt>
      <trkpt lat="49.03146" lon="7.76075">
        <ele>204.6</ele>
        <time>2022-05-01T09:36:08Z</time>
      </trkpt>
      <trkpt lat="49.03144" lon="7.76078">
        <ele>204.6</ele>
        <time>2022-05-01T09:36:09Z</time>
      </trkpt>
      <trkpt lat="49.03143" lon="7.76082">
        <ele>204.6</ele>
        <time>2022-05-01T09:36:10Z</time>
      </trkpt>
      <trkpt lat="49.03141" lon="7.76086">
        <ele>204.6</ele>
        <time>2022-05-01T09:36:11Z</time>
      </trkpt>
      <trkpt lat="49.03139" lon="7.76091">
        <ele>204.6</ele>
        <time>2022-05-01T09:36:12Z</time>
      </trkpt>
      <trkpt lat="49.03137" lon="7.76096">
        <ele>204.6</ele>
        <time>2022-05-01T09:36:13Z</time>
      </trkpt>
      <trkpt lat="49.03136" lon="7.76103">
        <ele>204.6</ele>
        <time>2022-05-01T09:36:14Z</time>
      </trkpt>
      <trkpt lat="49.03133" lon="7.76117">
        <ele>204.6</ele>
        <time>2022-05-01T09:36:16Z</time>
      </trkpt>
      <trkpt lat="49.03128" lon="7.76142">
        <ele>204.2</ele>
        <time>2022-05-01T09:36:19Z</time>
      </trkpt>
      <trkpt lat="49.03126" lon="7.76151">
        <ele>203.8</ele>
        <time>2022-05-01T09:36:20Z</time>
      </trkpt>
      <trkpt lat="49.03126" lon="7.7617">
        <ele>203.6</ele>
        <time>2022-05-01T09:36:22Z</time>
      </trkpt>
      <trkpt lat="49.03124" lon="7.76179">
        <ele>203.6</ele>
        <time>2022-05-01T09:36:23Z</time>
      </trkpt>
      <trkpt lat="49.03124" lon="7.76188">
        <ele>203.4</ele>
        <time>2022-05-01T09:36:24Z</time>
      </trkpt>
      <trkpt lat="49.03124" lon="7.76196">
        <ele>203.4</ele>
        <time>2022-05-01T09:36:25Z</time>
      </trkpt>
      <trkpt lat="49.03122" lon="7.76205">
        <ele>203.4</ele>
        <time>2022-05-01T09:36:26Z</time>
      </trkpt>
      <trkpt lat="49.0312" lon="7.76213">
        <ele>203.4</ele>
        <time>2022-05-01T09:36:27Z</time>
      </trkpt>
      <trkpt lat="49.03118" lon="7.76221">
        <ele>203.4</ele>
        <time>2022-05-01T09:36:28Z</time>
      </trkpt>
      <trkpt lat="49.03116" lon="7.76228">
        <ele>203.2</ele>
        <time>2022-05-01T09:36:29Z</time>
      </trkpt>
      <trkpt lat="49.031" lon="7.76275">
        <ele>203.2</ele>
        <time>2022-05-01T09:36:35Z</time>
      </trkpt>
      <trkpt lat="49.03073" lon="7.76336">
        <ele>203</ele>
        <time>2022-05-01T09:36:43Z</time>
      </trkpt>
      <trkpt lat="49.03046" lon="7.764">
        <ele>203</ele>
        <time>2022-05-01T09:36:51Z</time>
      </trkpt>
      <trkpt lat="49.03024" lon="7.76447">
        <ele>203</ele>
        <time>2022-05-01T09:36:57Z</time>
      </trkpt>
      <trkpt lat="49.03018" lon="7.76463">
        <ele>203</ele>
        <time>2022-05-01T09:36:59Z</time>
      </trkpt>
      <trkpt lat="49.02984" lon="7.76539">
        <ele>202.8</ele>
        <time>2022-05-01T09:37:08Z</time>
      </trkpt>
      <trkpt lat="49.0296" lon="7.76592">
        <ele>202</ele>
        <time>2022-05-01T09:37:14Z</time>
      </trkpt>
      <trkpt lat="49.02956" lon="7.76601">
        <ele>201.8</ele>
        <time>2022-05-01T09:37:15Z</time>
      </trkpt>
      <trkpt lat="49.02951" lon="7.76609">
        <ele>201.6</ele>
        <time>2022-05-01T09:37:16Z</time>
      </trkpt>
      <trkpt lat="49.02946" lon="7.76617">
        <ele>201.6</ele>
        <time>2022-05-01T09:37:17Z</time>
      </trkpt>
      <trkpt lat="49.02934" lon="7.7663">
        <ele>201.2</ele>
        <time>2022-05-01T09:37:19Z</time>
      </trkpt>
      <trkpt lat="49.02927" lon="7.76635">
        <ele>201.2</ele>
        <time>2022-05-01T09:37:20Z</time>
      </trkpt>
      <trkpt lat="49.029" lon="7.7665">
        <ele>201</ele>
        <time>2022-05-01T09:37:24Z</time>
      </trkpt>
      <trkpt lat="49.02872" lon="7.76668">
        <ele>200</ele>
        <time>2022-05-01T09:37:28Z</time>
      </trkpt>
      <trkpt lat="49.02865" lon="7.76673">
        <ele>200</ele>
        <time>2022-05-01T09:37:29Z</time>
      </trkpt>
      <trkpt lat="49.02819" lon="7.76715">
        <ele>199.6</ele>
        <time>2022-05-01T09:37:36Z</time>
      </trkpt>
      <trkpt lat="49.02797" lon="7.76743">
        <ele>199.6</ele>
        <time>2022-05-01T09:37:40Z</time>
      </trkpt>
      <trkpt lat="49.02793" lon="7.76752">
        <ele>199.6</ele>
        <time>2022-05-01T09:37:41Z</time>
      </trkpt>
      <trkpt lat="49.02788" lon="7.7676">
        <ele>199.4</ele>
        <time>2022-05-01T09:37:42Z</time>
      </trkpt>
      <trkpt lat="49.02784" lon="7.76768">
        <ele>199.4</ele>
        <time>2022-05-01T09:37:43Z</time>
      </trkpt>
      <trkpt lat="49.02778" lon="7.76776">
        <ele>199.4</ele>
        <time>2022-05-01T09:37:44Z</time>
      </trkpt>
      <trkpt lat="49.02763" lon="7.76802">
        <ele>199.4</ele>
        <time>2022-05-01T09:37:47Z</time>
      </trkpt>
      <trkpt lat="49.02725" lon="7.76861">
        <ele>199</ele>
        <time>2022-05-01T09:37:54Z</time>
      </trkpt>
      <trkpt lat="49.0272" lon="7.76869">
        <ele>198.6</ele>
        <time>2022-05-01T09:37:55Z</time>
      </trkpt>
      <trkpt lat="49.02715" lon="7.76878">
        <ele>198.4</ele>
        <time>2022-05-01T09:37:56Z</time>
      </trkpt>
      <trkpt lat="49.027" lon="7.76904">
        <ele>198</ele>
        <time>2022-05-01T09:37:59Z</time>
      </trkpt>
      <trkpt lat="49.02695" lon="7.76913">
        <ele>197.8</ele>
        <time>2022-05-01T09:38:00Z</time>
      </trkpt>
      <trkpt lat="49.02691" lon="7.76922">
        <ele>197.8</ele>
        <time>2022-05-01T09:38:01Z</time>
      </trkpt>
      <trkpt lat="49.02687" lon="7.7693">
        <ele>197.6</ele>
        <time>2022-05-01T09:38:02Z</time>
      </trkpt>
      <trkpt lat="49.02683" lon="7.76939">
        <ele>197.6</ele>
        <time>2022-05-01T09:38:03Z</time>
      </trkpt>
      <trkpt lat="49.02678" lon="7.76947">
        <ele>197.6</ele>
        <time>2022-05-01T09:38:04Z</time>
      </trkpt>
      <trkpt lat="49.02672" lon="7.76954">
        <ele>197.4</ele>
        <time>2022-05-01T09:38:05Z</time>
      </trkpt>
      <trkpt lat="49.02654" lon="7.76972">
        <ele>197.2</ele>
        <time>2022-05-01T09:38:08Z</time>
      </trkpt>
      <trkpt lat="49.02649" lon="7.76977">
        <ele>197.2</ele>
        <time>2022-05-01T09:38:09Z</time>
      </trkpt>
      <trkpt lat="49.02642" lon="7.76982">
        <ele>197.2</ele>
        <time>2022-05-01T09:38:10Z</time>
      </trkpt>
      <trkpt lat="49.02636" lon="7.76987">
        <ele>197.2</ele>
        <time>2022-05-01T09:38:11Z</time>
      </trkpt>
      <trkpt lat="49.0263" lon="7.76993">
        <ele>197.2</ele>
        <time>2022-05-01T09:38:12Z</time>
      </trkpt>
      <trkpt lat="49.02624" lon="7.76996">
        <ele>197.2</ele>
        <time>2022-05-01T09:38:13Z</time>
      </trkpt>
      <trkpt lat="49.02618" lon="7.76997">
        <ele>197.2</ele>
        <time>2022-05-01T09:38:14Z</time>
      </trkpt>
      <trkpt lat="49.02612" lon="7.76997">
        <ele>197.2</ele>
        <time>2022-05-01T09:38:15Z</time>
      </trkpt>
      <trkpt lat="49.02605" lon="7.76996">
        <ele>197.2</ele>
        <time>2022-05-01T09:38:16Z</time>
      </trkpt>
      <trkpt lat="49.02598" lon="7.76995">
        <ele>197.2</ele>
        <time>2022-05-01T09:38:17Z</time>
      </trkpt>
      <trkpt lat="49.02591" lon="7.76994">
        <ele>197.2</ele>
        <time>2022-05-01T09:38:18Z</time>
      </trkpt>
      <trkpt lat="49.02584" lon="7.76992">
        <ele>197.6</ele>
        <time>2022-05-01T09:38:19Z</time>
      </trkpt>
      <trkpt lat="49.02556" lon="7.76984">
        <ele>197.8</ele>
        <time>2022-05-01T09:38:23Z</time>
      </trkpt>
      <trkpt lat="49.02549" lon="7.76981">
        <ele>197.8</ele>
        <time>2022-05-01T09:38:24Z</time>
      </trkpt>
      <trkpt lat="49.02544" lon="7.76978">
        <ele>197.8</ele>
        <time>2022-05-01T09:38:25Z</time>
      </trkpt>
      <trkpt lat="49.02513" lon="7.76966">
        <ele>198</ele>
        <time>2022-05-01T09:38:29Z</time>
      </trkpt>
      <trkpt lat="49.02492" lon="7.76958">
        <ele>198.4</ele>
        <time>2022-05-01T09:38:32Z</time>
      </trkpt>
      <trkpt lat="49.02485" lon="7.76954">
        <ele>198.2</ele>
        <time>2022-05-01T09:38:33Z</time>
      </trkpt>
      <trkpt lat="49.02473" lon="7.76948">
        <ele>198.4</ele>
        <time>2022-05-01T09:38:35Z</time>
      </trkpt>
      <trkpt lat="49.02456" lon="7.76941">
        <ele>198.4</ele>
        <time>2022-05-01T09:38:37Z</time>
      </trkpt>
      <trkpt lat="49.02449" lon="7.76937">
        <ele>198.4</ele>
        <time>2022-05-01T09:38:38Z</time>
      </trkpt>
      <trkpt lat="49.02428" lon="7.76924">
        <ele>198.4</ele>
        <time>2022-05-01T09:38:41Z</time>
      </trkpt>
      <trkpt lat="49.024" lon="7.76906">
        <ele>198.4</ele>
        <time>2022-05-01T09:38:45Z</time>
      </trkpt>
      <trkpt lat="49.02393" lon="7.76903">
        <ele>198.4</ele>
        <time>2022-05-01T09:38:46Z</time>
      </trkpt>
      <trkpt lat="49.02386" lon="7.76901">
        <ele>198.4</ele>
        <time>2022-05-01T09:38:47Z</time>
      </trkpt>
      <trkpt lat="49.02341" lon="7.76895">
        <ele>198.2</ele>
        <time>2022-05-01T09:38:53Z</time>
      </trkpt>
      <trkpt lat="49.02334" lon="7.76895">
        <ele>198.2</ele>
        <time>2022-05-01T09:38:54Z</time>
      </trkpt>
      <trkpt lat="49.02312" lon="7.76904">
        <ele>198.2</ele>
        <time>2022-05-01T09:38:57Z</time>
      </trkpt>
      <trkpt lat="49.02307" lon="7.76907">
        <ele>198</ele>
        <time>2022-05-01T09:38:58Z</time>
      </trkpt>
      <trkpt lat="49.02299" lon="7.76914">
        <ele>198</ele>
        <time>2022-05-01T09:38:59Z</time>
      </trkpt>
      <trkpt lat="49.02286" lon="7.76929">
        <ele>197.8</ele>
        <time>2022-05-01T09:39:01Z</time>
      </trkpt>
      <trkpt lat="49.0228" lon="7.76936">
        <ele>197.8</ele>
        <time>2022-05-01T09:39:02Z</time>
      </trkpt>
      <trkpt lat="49.02272" lon="7.7695">
        <ele>197.6</ele>
        <time>2022-05-01T09:39:04Z</time>
      </trkpt>
      <trkpt lat="49.02267" lon="7.76958">
        <ele>197.6</ele>
        <time>2022-05-01T09:39:05Z</time>
      </trkpt>
      <trkpt lat="49.02253" lon="7.76982">
        <ele>197.4</ele>
        <time>2022-05-01T09:39:08Z</time>
      </trkpt>
      <trkpt lat="49.02244" lon="7.76998">
        <ele>197</ele>
        <time>2022-05-01T09:39:10Z</time>
      </trkpt>
      <trkpt lat="49.02238" lon="7.77008">
        <ele>197</ele>
        <time>2022-05-01T09:39:11Z</time>
      </trkpt>
      <trkpt lat="49.02221" lon="7.77044">
        <ele>196.8</ele>
        <time>2022-05-01T09:39:15Z</time>
      </trkpt>
      <trkpt lat="49.02214" lon="7.7706">
        <ele>196.6</ele>
        <time>2022-05-01T09:39:17Z</time>
      </trkpt>
      <trkpt lat="49.02209" lon="7.77072">
        <ele>196.6</ele>
        <time>2022-05-01T09:39:18Z</time>
      </trkpt>
      <trkpt lat="49.02202" lon="7.7709">
        <ele>196.2</ele>
        <time>2022-05-01T09:39:20Z</time>
      </trkpt>
      <trkpt lat="49.02193" lon="7.77105">
        <ele>196</ele>
        <time>2022-05-01T09:39:22Z</time>
      </trkpt>
      <trkpt lat="49.02173" lon="7.77138">
        <ele>195.8</ele>
        <time>2022-05-01T09:39:26Z</time>
      </trkpt>
      <trkpt lat="49.02166" lon="7.77147">
        <ele>195.8</ele>
        <time>2022-05-01T09:39:27Z</time>
      </trkpt>
      <trkpt lat="49.02156" lon="7.77163">
        <ele>195.8</ele>
        <time>2022-05-01T09:39:29Z</time>
      </trkpt>
      <trkpt lat="49.02148" lon="7.77177">
        <ele>195.8</ele>
        <time>2022-05-01T09:39:31Z</time>
      </trkpt>
      <trkpt lat="49.02124" lon="7.77208">
        <ele>196</ele>
        <time>2022-05-01T09:39:35Z</time>
      </trkpt>
      <trkpt lat="49.02119" lon="7.77214">
        <ele>196</ele>
        <time>2022-05-01T09:39:36Z</time>
      </trkpt>
      <trkpt lat="49.02112" lon="7.77222">
        <ele>196</ele>
        <time>2022-05-01T09:39:37Z</time>
      </trkpt>
      <trkpt lat="49.02107" lon="7.77227">
        <ele>196</ele>
        <time>2022-05-01T09:39:38Z</time>
      </trkpt>
      <trkpt lat="49.02101" lon="7.77234">
        <ele>196</ele>
        <time>2022-05-01T09:39:39Z</time>
      </trkpt>
      <trkpt lat="49.02095" lon="7.7724">
        <ele>196</ele>
        <time>2022-05-01T09:39:40Z</time>
      </trkpt>
      <trkpt lat="49.02089" lon="7.77245">
        <ele>196</ele>
        <time>2022-05-01T09:39:41Z</time>
      </trkpt>
      <trkpt lat="49.02066" lon="7.77271">
        <ele>196.2</ele>
        <time>2022-05-01T09:39:45Z</time>
      </trkpt>
      <trkpt lat="49.02047" lon="7.77297">
        <ele>196.2</ele>
        <time>2022-05-01T09:39:48Z</time>
      </trkpt>
      <trkpt lat="49.02031" lon="7.77321">
        <ele>196.2</ele>
        <time>2022-05-01T09:39:51Z</time>
      </trkpt>
      <trkpt lat="49.02019" lon="7.77336">
        <ele>196.4</ele>
        <time>2022-05-01T09:39:53Z</time>
      </trkpt>
      <trkpt lat="49.0201" lon="7.77354">
        <ele>196.4</ele>
        <time>2022-05-01T09:39:55Z</time>
      </trkpt>
      <trkpt lat="49.02007" lon="7.77363">
        <ele>196.4</ele>
        <time>2022-05-01T09:39:56Z</time>
      </trkpt>
      <trkpt lat="49.02004" lon="7.77372">
        <ele>196.4</ele>
        <time>2022-05-01T09:39:57Z</time>
      </trkpt>
      <trkpt lat="49.01999" lon="7.77381">
        <ele>196.6</ele>
        <time>2022-05-01T09:39:58Z</time>
      </trkpt>
      <trkpt lat="49.01997" lon="7.77389">
        <ele>196.6</ele>
        <time>2022-05-01T09:39:59Z</time>
      </trkpt>
      <trkpt lat="49.01993" lon="7.77398">
        <ele>196.6</ele>
        <time>2022-05-01T09:40:00Z</time>
      </trkpt>
      <trkpt lat="49.01983" lon="7.77413">
        <ele>196.6</ele>
        <time>2022-05-01T09:40:02Z</time>
      </trkpt>
      <trkpt lat="49.01965" lon="7.77478">
        <ele>196.4</ele>
        <time>2022-05-01T09:40:09Z</time>
      </trkpt>
      <trkpt lat="49.01957" lon="7.7754">
        <ele>196.2</ele>
        <time>2022-05-01T09:40:15Z</time>
      </trkpt>
      <trkpt lat="49.01956" lon="7.7755">
        <ele>196.2</ele>
        <time>2022-05-01T09:40:16Z</time>
      </trkpt>
      <trkpt lat="49.01955" lon="7.77559">
        <ele>196.2</ele>
        <time>2022-05-01T09:40:17Z</time>
      </trkpt>
      <trkpt lat="49.01954" lon="7.77569">
        <ele>196.2</ele>
        <time>2022-05-01T09:40:18Z</time>
      </trkpt>
      <trkpt lat="49.01951" lon="7.77592">
        <ele>196.2</ele>
        <time>2022-05-01T09:40:20Z</time>
      </trkpt>
      <trkpt lat="49.01948" lon="7.7761">
        <ele>196.2</ele>
        <time>2022-05-01T09:40:22Z</time>
      </trkpt>
      <trkpt lat="49.01943" lon="7.77631">
        <ele>196.2</ele>
        <time>2022-05-01T09:40:24Z</time>
      </trkpt>
      <trkpt lat="49.01941" lon="7.77641">
        <ele>196.2</ele>
        <time>2022-05-01T09:40:25Z</time>
      </trkpt>
      <trkpt lat="49.01936" lon="7.7766">
        <ele>196.4</ele>
        <time>2022-05-01T09:40:27Z</time>
      </trkpt>
      <trkpt lat="49.01934" lon="7.7767">
        <ele>196.6</ele>
        <time>2022-05-01T09:40:28Z</time>
      </trkpt>
      <trkpt lat="49.01929" lon="7.77688">
        <ele>196.6</ele>
        <time>2022-05-01T09:40:30Z</time>
      </trkpt>
      <trkpt lat="49.01916" lon="7.77716">
        <ele>196.8</ele>
        <time>2022-05-01T09:40:33Z</time>
      </trkpt>
      <trkpt lat="49.01912" lon="7.77723">
        <ele>196.8</ele>
        <time>2022-05-01T09:40:34Z</time>
      </trkpt>
      <trkpt lat="49.01907" lon="7.77731">
        <ele>197</ele>
        <time>2022-05-01T09:40:35Z</time>
      </trkpt>
      <trkpt lat="49.01904" lon="7.77737">
        <ele>197</ele>
        <time>2022-05-01T09:40:36Z</time>
      </trkpt>
      <trkpt lat="49.01901" lon="7.77744">
        <ele>197</ele>
        <time>2022-05-01T09:40:37Z</time>
      </trkpt>
      <trkpt lat="49.01894" lon="7.7776">
        <ele>197</ele>
        <time>2022-05-01T09:40:39Z</time>
      </trkpt>
      <trkpt lat="49.01889" lon="7.77766">
        <ele>197</ele>
        <time>2022-05-01T09:40:40Z</time>
      </trkpt>
      <trkpt lat="49.01877" lon="7.77779">
        <ele>197</ele>
        <time>2022-05-01T09:40:42Z</time>
      </trkpt>
      <trkpt lat="49.01865" lon="7.77791">
        <ele>197</ele>
        <time>2022-05-01T09:40:44Z</time>
      </trkpt>
      <trkpt lat="49.01846" lon="7.77806">
        <ele>196.8</ele>
        <time>2022-05-01T09:40:47Z</time>
      </trkpt>
      <trkpt lat="49.01839" lon="7.77811">
        <ele>196.6</ele>
        <time>2022-05-01T09:40:48Z</time>
      </trkpt>
      <trkpt lat="49.01831" lon="7.77815">
        <ele>196.6</ele>
        <time>2022-05-01T09:40:49Z</time>
      </trkpt>
      <trkpt lat="49.01815" lon="7.77821">
        <ele>196.4</ele>
        <time>2022-05-01T09:40:51Z</time>
      </trkpt>
      <trkpt lat="49.01799" lon="7.77824">
        <ele>196</ele>
        <time>2022-05-01T09:40:53Z</time>
      </trkpt>
      <trkpt lat="49.01782" lon="7.77825">
        <ele>195.6</ele>
        <time>2022-05-01T09:40:55Z</time>
      </trkpt>
      <trkpt lat="49.01756" lon="7.77822">
        <ele>194.4</ele>
        <time>2022-05-01T09:40:58Z</time>
      </trkpt>
      <trkpt lat="49.01749" lon="7.7782">
        <ele>194.2</ele>
        <time>2022-05-01T09:40:59Z</time>
      </trkpt>
      <trkpt lat="49.01743" lon="7.77818">
        <ele>194</ele>
        <time>2022-05-01T09:41:00Z</time>
      </trkpt>
      <trkpt lat="49.01734" lon="7.77817">
        <ele>194</ele>
        <time>2022-05-01T09:41:01Z</time>
      </trkpt>
      <trkpt lat="49.0172" lon="7.77818">
        <ele>194</ele>
        <time>2022-05-01T09:41:03Z</time>
      </trkpt>
      <trkpt lat="49.01714" lon="7.77818">
        <ele>193.8</ele>
        <time>2022-05-01T09:41:04Z</time>
      </trkpt>
      <trkpt lat="49.01709" lon="7.77819">
        <ele>193.8</ele>
        <time>2022-05-01T09:41:05Z</time>
      </trkpt>
      <trkpt lat="49.01701" lon="7.7782">
        <ele>193.8</ele>
        <time>2022-05-01T09:41:06Z</time>
      </trkpt>
      <trkpt lat="49.01695" lon="7.77822">
        <ele>193.8</ele>
        <time>2022-05-01T09:41:07Z</time>
      </trkpt>
      <trkpt lat="49.01687" lon="7.77827">
        <ele>193.8</ele>
        <time>2022-05-01T09:41:08Z</time>
      </trkpt>
      <trkpt lat="49.01679" lon="7.7783">
        <ele>193.8</ele>
        <time>2022-05-01T09:41:09Z</time>
      </trkpt>
      <trkpt lat="49.01673" lon="7.77832">
        <ele>193.8</ele>
        <time>2022-05-01T09:41:10Z</time>
      </trkpt>
      <trkpt lat="49.01664" lon="7.77835">
        <ele>193.8</ele>
        <time>2022-05-01T09:41:11Z</time>
      </trkpt>
      <trkpt lat="49.0165" lon="7.77845">
        <ele>193.8</ele>
        <time>2022-05-01T09:41:13Z</time>
      </trkpt>
      <trkpt lat="49.01635" lon="7.77864">
        <ele>193.6</ele>
        <time>2022-05-01T09:41:15Z</time>
      </trkpt>
      <trkpt lat="49.01629" lon="7.77873">
        <ele>194</ele>
        <time>2022-05-01T09:41:16Z</time>
      </trkpt>
      <trkpt lat="49.01625" lon="7.77882">
        <ele>194</ele>
        <time>2022-05-01T09:41:17Z</time>
      </trkpt>
      <trkpt lat="49.01622" lon="7.7789">
        <ele>194</ele>
        <time>2022-05-01T09:41:18Z</time>
      </trkpt>
      <trkpt lat="49.01624" lon="7.77899">
        <ele>194</ele>
        <time>2022-05-01T09:41:19Z</time>
      </trkpt>
      <trkpt lat="49.01625" lon="7.77906">
        <ele>194.2</ele>
        <time>2022-05-01T09:41:20Z</time>
      </trkpt>
      <trkpt lat="49.01627" lon="7.77913">
        <ele>194.2</ele>
        <time>2022-05-01T09:41:21Z</time>
      </trkpt>
      <trkpt lat="49.01628" lon="7.77941">
        <ele>194.8</ele>
        <time>2022-05-01T09:41:24Z</time>
      </trkpt>
      <trkpt lat="49.01628" lon="7.77952">
        <ele>195</ele>
        <time>2022-05-01T09:41:25Z</time>
      </trkpt>
      <trkpt lat="49.01628" lon="7.77968">
        <ele>195.2</ele>
        <time>2022-05-01T09:41:27Z</time>
      </trkpt>
      <trkpt lat="49.01628" lon="7.77977">
        <ele>195.4</ele>
        <time>2022-05-01T09:41:28Z</time>
      </trkpt>
      <trkpt lat="49.01628" lon="7.77987">
        <ele>195.4</ele>
        <time>2022-05-01T09:41:29Z</time>
      </trkpt>
      <trkpt lat="49.01627" lon="7.78007">
        <ele>195.6</ele>
        <time>2022-05-01T09:41:31Z</time>
      </trkpt>
      <trkpt lat="49.01625" lon="7.78025">
        <ele>195.6</ele>
        <time>2022-05-01T09:41:33Z</time>
      </trkpt>
      <trkpt lat="49.01621" lon="7.78045">
        <ele>195.6</ele>
        <time>2022-05-01T09:41:35Z</time>
      </trkpt>
      <trkpt lat="49.01618" lon="7.78053">
        <ele>195.8</ele>
        <time>2022-05-01T09:41:36Z</time>
      </trkpt>
      <trkpt lat="49.01614" lon="7.78062">
        <ele>195.8</ele>
        <time>2022-05-01T09:41:37Z</time>
      </trkpt>
      <trkpt lat="49.01611" lon="7.78071">
        <ele>195.8</ele>
        <time>2022-05-01T09:41:38Z</time>
      </trkpt>
      <trkpt lat="49.01606" lon="7.78078">
        <ele>195.8</ele>
        <time>2022-05-01T09:41:39Z</time>
      </trkpt>
      <trkpt lat="49.01599" lon="7.78084">
        <ele>196</ele>
        <time>2022-05-01T09:41:40Z</time>
      </trkpt>
      <trkpt lat="49.01593" lon="7.78089">
        <ele>196.2</ele>
        <time>2022-05-01T09:41:41Z</time>
      </trkpt>
      <trkpt lat="49.01585" lon="7.78093">
        <ele>196.2</ele>
        <time>2022-05-01T09:41:42Z</time>
      </trkpt>
      <trkpt lat="49.01577" lon="7.78096">
        <ele>196.2</ele>
        <time>2022-05-01T09:41:43Z</time>
      </trkpt>
      <trkpt lat="49.01564" lon="7.78098">
        <ele>196.4</ele>
        <time>2022-05-01T09:41:45Z</time>
      </trkpt>
      <trkpt lat="49.01556" lon="7.78096">
        <ele>196.4</ele>
        <time>2022-05-01T09:41:46Z</time>
      </trkpt>
      <trkpt lat="49.01551" lon="7.78094">
        <ele>196.4</ele>
        <time>2022-05-01T09:41:47Z</time>
      </trkpt>
      <trkpt lat="49.01544" lon="7.78089">
        <ele>196.4</ele>
        <time>2022-05-01T09:41:48Z</time>
      </trkpt>
      <trkpt lat="49.01539" lon="7.78083">
        <ele>196.4</ele>
        <time>2022-05-01T09:41:49Z</time>
      </trkpt>
      <trkpt lat="49.01535" lon="7.78075">
        <ele>196.4</ele>
        <time>2022-05-01T09:41:50Z</time>
      </trkpt>
      <trkpt lat="49.01533" lon="7.78067">
        <ele>196.4</ele>
        <time>2022-05-01T09:41:51Z</time>
      </trkpt>
      <trkpt lat="49.01531" lon="7.7806">
        <ele>196.4</ele>
        <time>2022-05-01T09:41:52Z</time>
      </trkpt>
      <trkpt lat="49.01528" lon="7.78049">
        <ele>196.4</ele>
        <time>2022-05-01T09:41:53Z</time>
      </trkpt>
      <trkpt lat="49.01525" lon="7.7804">
        <ele>196.4</ele>
        <time>2022-05-01T09:41:54Z</time>
      </trkpt>
      <trkpt lat="49.01524" lon="7.78031">
        <ele>196.4</ele>
        <time>2022-05-01T09:41:55Z</time>
      </trkpt>
      <trkpt lat="49.01522" lon="7.78012">
        <ele>196.4</ele>
        <time>2022-05-01T09:41:57Z</time>
      </trkpt>
      <trkpt lat="49.01521" lon="7.78002">
        <ele>196.4</ele>
        <time>2022-05-01T09:41:58Z</time>
      </trkpt>
      <trkpt lat="49.01521" lon="7.77991">
        <ele>196.2</ele>
        <time>2022-05-01T09:41:59Z</time>
      </trkpt>
      <trkpt lat="49.0152" lon="7.77982">
        <ele>196</ele>
        <time>2022-05-01T09:42:00Z</time>
      </trkpt>
      <trkpt lat="49.01519" lon="7.77972">
        <ele>196.2</ele>
        <time>2022-05-01T09:42:01Z</time>
      </trkpt>
      <trkpt lat="49.01517" lon="7.77951">
        <ele>195.8</ele>
        <time>2022-05-01T09:42:03Z</time>
      </trkpt>
      <trkpt lat="49.01517" lon="7.77939">
        <ele>195.4</ele>
        <time>2022-05-01T09:42:04Z</time>
      </trkpt>
      <trkpt lat="49.01517" lon="7.77927">
        <ele>195</ele>
        <time>2022-05-01T09:42:05Z</time>
      </trkpt>
      <trkpt lat="49.01517" lon="7.77903">
        <ele>194.6</ele>
        <time>2022-05-01T09:42:07Z</time>
      </trkpt>
      <trkpt lat="49.01517" lon="7.77873">
        <ele>194</ele>
        <time>2022-05-01T09:42:09Z</time>
      </trkpt>
      <trkpt lat="49.01516" lon="7.77864">
        <ele>193.8</ele>
        <time>2022-05-01T09:42:10Z</time>
      </trkpt>
      <trkpt lat="49.0151" lon="7.77839">
        <ele>193.4</ele>
        <time>2022-05-01T09:42:12Z</time>
      </trkpt>
      <trkpt lat="49.01504" lon="7.77829">
        <ele>193.2</ele>
        <time>2022-05-01T09:42:13Z</time>
      </trkpt>
      <trkpt lat="49.015" lon="7.7782">
        <ele>193.2</ele>
        <time>2022-05-01T09:42:14Z</time>
      </trkpt>
      <trkpt lat="49.01497" lon="7.77813">
        <ele>193.2</ele>
        <time>2022-05-01T09:42:15Z</time>
      </trkpt>
      <trkpt lat="49.01492" lon="7.77802">
        <ele>193.2</ele>
        <time>2022-05-01T09:42:16Z</time>
      </trkpt>
      <trkpt lat="49.01483" lon="7.77785">
        <ele>193.2</ele>
        <time>2022-05-01T09:42:18Z</time>
      </trkpt>
      <trkpt lat="49.01472" lon="7.77771">
        <ele>193.2</ele>
        <time>2022-05-01T09:42:20Z</time>
      </trkpt>
      <trkpt lat="49.01466" lon="7.77766">
        <ele>193.2</ele>
        <time>2022-05-01T09:42:21Z</time>
      </trkpt>
      <trkpt lat="49.0146" lon="7.77762">
        <ele>193.2</ele>
        <time>2022-05-01T09:42:22Z</time>
      </trkpt>
      <trkpt lat="49.01454" lon="7.77758">
        <ele>193.2</ele>
        <time>2022-05-01T09:42:23Z</time>
      </trkpt>
      <trkpt lat="49.01448" lon="7.77755">
        <ele>193.2</ele>
        <time>2022-05-01T09:42:24Z</time>
      </trkpt>
      <trkpt lat="49.0144" lon="7.77752">
        <ele>193.4</ele>
        <time>2022-05-01T09:42:25Z</time>
      </trkpt>
      <trkpt lat="49.01434" lon="7.7775">
        <ele>193.6</ele>
        <time>2022-05-01T09:42:26Z</time>
      </trkpt>
      <trkpt lat="49.01427" lon="7.77749">
        <ele>193.8</ele>
        <time>2022-05-01T09:42:27Z</time>
      </trkpt>
      <trkpt lat="49.01414" lon="7.77754">
        <ele>193.8</ele>
        <time>2022-05-01T09:42:29Z</time>
      </trkpt>
      <trkpt lat="49.01408" lon="7.77759">
        <ele>193.8</ele>
        <time>2022-05-01T09:42:30Z</time>
      </trkpt>
      <trkpt lat="49.01402" lon="7.77764">
        <ele>193.8</ele>
        <time>2022-05-01T09:42:31Z</time>
      </trkpt>
      <trkpt lat="49.01395" lon="7.77769">
        <ele>193.8</ele>
        <time>2022-05-01T09:42:32Z</time>
      </trkpt>
      <trkpt lat="49.01381" lon="7.77778">
        <ele>193.8</ele>
        <time>2022-05-01T09:42:34Z</time>
      </trkpt>
      <trkpt lat="49.01369" lon="7.77788">
        <ele>193.8</ele>
        <time>2022-05-01T09:42:36Z</time>
      </trkpt>
      <trkpt lat="49.01363" lon="7.77792">
        <ele>193.8</ele>
        <time>2022-05-01T09:42:37Z</time>
      </trkpt>
      <trkpt lat="49.01357" lon="7.77797">
        <ele>194</ele>
        <time>2022-05-01T09:42:38Z</time>
      </trkpt>
      <trkpt lat="49.01351" lon="7.77803">
        <ele>193.8</ele>
        <time>2022-05-01T09:42:39Z</time>
      </trkpt>
      <trkpt lat="49.01347" lon="7.7781">
        <ele>193.8</ele>
        <time>2022-05-01T09:42:40Z</time>
      </trkpt>
      <trkpt lat="49.01343" lon="7.77818">
        <ele>193.8</ele>
        <time>2022-05-01T09:42:41Z</time>
      </trkpt>
      <trkpt lat="49.0134" lon="7.77828">
        <ele>193.8</ele>
        <time>2022-05-01T09:42:42Z</time>
      </trkpt>
      <trkpt lat="49.01336" lon="7.77837">
        <ele>193.8</ele>
        <time>2022-05-01T09:42:43Z</time>
      </trkpt>
      <trkpt lat="49.0133" lon="7.77863">
        <ele>193.8</ele>
        <time>2022-05-01T09:42:46Z</time>
      </trkpt>
      <trkpt lat="49.01328" lon="7.77873">
        <ele>193.8</ele>
        <time>2022-05-01T09:42:47Z</time>
      </trkpt>
      <trkpt lat="49.01326" lon="7.77883">
        <ele>193.8</ele>
        <time>2022-05-01T09:42:48Z</time>
      </trkpt>
      <trkpt lat="49.01325" lon="7.77892">
        <ele>193.8</ele>
        <time>2022-05-01T09:42:49Z</time>
      </trkpt>
      <trkpt lat="49.01323" lon="7.779">
        <ele>193.8</ele>
        <time>2022-05-01T09:42:50Z</time>
      </trkpt>
      <trkpt lat="49.01321" lon="7.77909">
        <ele>193.8</ele>
        <time>2022-05-01T09:42:51Z</time>
      </trkpt>
      <trkpt lat="49.01319" lon="7.77919">
        <ele>194</ele>
        <time>2022-05-01T09:42:52Z</time>
      </trkpt>
      <trkpt lat="49.01318" lon="7.77928">
        <ele>194</ele>
        <time>2022-05-01T09:42:53Z</time>
      </trkpt>
      <trkpt lat="49.01316" lon="7.77937">
        <ele>194</ele>
        <time>2022-05-01T09:42:54Z</time>
      </trkpt>
      <trkpt lat="49.01315" lon="7.77946">
        <ele>194</ele>
        <time>2022-05-01T09:42:55Z</time>
      </trkpt>
      <trkpt lat="49.01313" lon="7.77955">
        <ele>193.8</ele>
        <time>2022-05-01T09:42:56Z</time>
      </trkpt>
      <trkpt lat="49.01312" lon="7.77965">
        <ele>194</ele>
        <time>2022-05-01T09:42:57Z</time>
      </trkpt>
      <trkpt lat="49.01311" lon="7.77974">
        <ele>194</ele>
        <time>2022-05-01T09:42:58Z</time>
      </trkpt>
      <trkpt lat="49.0131" lon="7.77983">
        <ele>194</ele>
        <time>2022-05-01T09:42:59Z</time>
      </trkpt>
      <trkpt lat="49.01308" lon="7.77992">
        <ele>194</ele>
        <time>2022-05-01T09:43:00Z</time>
      </trkpt>
      <trkpt lat="49.01308" lon="7.78008">
        <ele>194.2</ele>
        <time>2022-05-01T09:43:02Z</time>
      </trkpt>
      <trkpt lat="49.01305" lon="7.78025">
        <ele>194.4</ele>
        <time>2022-05-01T09:43:04Z</time>
      </trkpt>
      <trkpt lat="49.01305" lon="7.78043">
        <ele>194.4</ele>
        <time>2022-05-01T09:43:06Z</time>
      </trkpt>
      <trkpt lat="49.01302" lon="7.78064">
        <ele>194.6</ele>
        <time>2022-05-01T09:43:08Z</time>
      </trkpt>
      <trkpt lat="49.013" lon="7.78074">
        <ele>194.6</ele>
        <time>2022-05-01T09:43:09Z</time>
      </trkpt>
      <trkpt lat="49.01299" lon="7.78092">
        <ele>194.6</ele>
        <time>2022-05-01T09:43:11Z</time>
      </trkpt>
      <trkpt lat="49.01297" lon="7.78112">
        <ele>194.6</ele>
        <time>2022-05-01T09:43:13Z</time>
      </trkpt>
      <trkpt lat="49.0129" lon="7.78155">
        <ele>194.6</ele>
        <time>2022-05-01T09:43:17Z</time>
      </trkpt>
      <trkpt lat="49.01288" lon="7.78166">
        <ele>194.6</ele>
        <time>2022-05-01T09:43:18Z</time>
      </trkpt>
      <trkpt lat="49.01272" lon="7.7822">
        <ele>193.2</ele>
        <time>2022-05-01T09:43:24Z</time>
      </trkpt>
      <trkpt lat="49.01259" lon="7.78254">
        <ele>192.8</ele>
        <time>2022-05-01T09:43:28Z</time>
      </trkpt>
      <trkpt lat="49.01254" lon="7.78262">
        <ele>192.6</ele>
        <time>2022-05-01T09:43:29Z</time>
      </trkpt>
      <trkpt lat="49.0125" lon="7.7827">
        <ele>192.6</ele>
        <time>2022-05-01T09:43:30Z</time>
      </trkpt>
      <trkpt lat="49.01245" lon="7.78286">
        <ele>192.6</ele>
        <time>2022-05-01T09:43:32Z</time>
      </trkpt>
      <trkpt lat="49.01243" lon="7.78294">
        <ele>192.6</ele>
        <time>2022-05-01T09:43:33Z</time>
      </trkpt>
      <trkpt lat="49.0124" lon="7.78303">
        <ele>192.6</ele>
        <time>2022-05-01T09:43:34Z</time>
      </trkpt>
      <trkpt lat="49.01237" lon="7.78312">
        <ele>192.6</ele>
        <time>2022-05-01T09:43:35Z</time>
      </trkpt>
      <trkpt lat="49.01222" lon="7.7835">
        <ele>192.6</ele>
        <time>2022-05-01T09:43:39Z</time>
      </trkpt>
      <trkpt lat="49.01205" lon="7.78402">
        <ele>194.2</ele>
        <time>2022-05-01T09:43:45Z</time>
      </trkpt>
      <trkpt lat="49.01201" lon="7.78411">
        <ele>194.2</ele>
        <time>2022-05-01T09:43:46Z</time>
      </trkpt>
      <trkpt lat="49.01198" lon="7.78419">
        <ele>194.2</ele>
        <time>2022-05-01T09:43:47Z</time>
      </trkpt>
      <trkpt lat="49.01194" lon="7.78427">
        <ele>194.2</ele>
        <time>2022-05-01T09:43:48Z</time>
      </trkpt>
      <trkpt lat="49.01186" lon="7.78442">
        <ele>194.2</ele>
        <time>2022-05-01T09:43:50Z</time>
      </trkpt>
      <trkpt lat="49.01182" lon="7.7845">
        <ele>194.2</ele>
        <time>2022-05-01T09:43:51Z</time>
      </trkpt>
      <trkpt lat="49.01176" lon="7.78458">
        <ele>194.2</ele>
        <time>2022-05-01T09:43:52Z</time>
      </trkpt>
      <trkpt lat="49.0116" lon="7.78483">
        <ele>194.2</ele>
        <time>2022-05-01T09:43:55Z</time>
      </trkpt>
      <trkpt lat="49.01155" lon="7.78489">
        <ele>194.2</ele>
        <time>2022-05-01T09:43:56Z</time>
      </trkpt>
      <trkpt lat="49.01149" lon="7.78494">
        <ele>194.2</ele>
        <time>2022-05-01T09:43:57Z</time>
      </trkpt>
      <trkpt lat="49.01144" lon="7.78499">
        <ele>194</ele>
        <time>2022-05-01T09:43:58Z</time>
      </trkpt>
      <trkpt lat="49.01138" lon="7.78503">
        <ele>194</ele>
        <time>2022-05-01T09:43:59Z</time>
      </trkpt>
      <trkpt lat="49.01133" lon="7.78508">
        <ele>193.6</ele>
        <time>2022-05-01T09:44:00Z</time>
      </trkpt>
      <trkpt lat="49.01124" lon="7.78518">
        <ele>193</ele>
        <time>2022-05-01T09:44:02Z</time>
      </trkpt>
      <trkpt lat="49.01119" lon="7.78525">
        <ele>192.6</ele>
        <time>2022-05-01T09:44:03Z</time>
      </trkpt>
      <trkpt lat="49.01115" lon="7.78533">
        <ele>192.4</ele>
        <time>2022-05-01T09:44:04Z</time>
      </trkpt>
      <trkpt lat="49.01113" lon="7.78543">
        <ele>192</ele>
        <time>2022-05-01T09:44:05Z</time>
      </trkpt>
      <trkpt lat="49.01111" lon="7.7855">
        <ele>192</ele>
        <time>2022-05-01T09:44:06Z</time>
      </trkpt>
      <trkpt lat="49.01113" lon="7.78555">
        <ele>191.8</ele>
        <time>2022-05-01T09:44:07Z</time>
      </trkpt>
      <trkpt lat="49.01116" lon="7.78561">
        <ele>191.8</ele>
        <time>2022-05-01T09:44:08Z</time>
      </trkpt>
      <trkpt lat="49.0112" lon="7.78567">
        <ele>191.8</ele>
        <time>2022-05-01T09:44:09Z</time>
      </trkpt>
      <trkpt lat="49.01123" lon="7.78572">
        <ele>191.8</ele>
        <time>2022-05-01T09:44:10Z</time>
      </trkpt>
      <trkpt lat="49.01125" lon="7.78579">
        <ele>191.6</ele>
        <time>2022-05-01T09:44:11Z</time>
      </trkpt>
      <trkpt lat="49.01126" lon="7.78584">
        <ele>191.6</ele>
        <time>2022-05-01T09:44:12Z</time>
      </trkpt>
      <trkpt lat="49.0113" lon="7.7859">
        <ele>191.6</ele>
        <time>2022-05-01T09:44:13Z</time>
      </trkpt>
      <trkpt lat="49.01134" lon="7.78599">
        <ele>191.6</ele>
        <time>2022-05-01T09:44:15Z</time>
      </trkpt>
      <trkpt lat="49.01135" lon="7.78603">
        <ele>191.8</ele>
        <time>2022-05-01T09:44:16Z</time>
      </trkpt>
      <trkpt lat="49.01136" lon="7.78607">
        <ele>191.8</ele>
        <time>2022-05-01T09:44:17Z</time>
      </trkpt>
      <trkpt lat="49.01136" lon="7.7861">
        <ele>191.8</ele>
        <time>2022-05-01T09:44:18Z</time>
      </trkpt>
      <trkpt lat="49.01137" lon="7.78613">
        <ele>191.8</ele>
        <time>2022-05-01T09:44:19Z</time>
      </trkpt>
      <trkpt lat="49.01137" lon="7.78617">
        <ele>191.8</ele>
        <time>2022-05-01T09:44:20Z</time>
      </trkpt>
      <trkpt lat="49.01137" lon="7.7862">
        <ele>191.8</ele>
        <time>2022-05-01T09:44:21Z</time>
      </trkpt>
      <trkpt lat="49.01137" lon="7.78624">
        <ele>192</ele>
        <time>2022-05-01T09:44:22Z</time>
      </trkpt>
      <trkpt lat="49.01136" lon="7.78627">
        <ele>192.2</ele>
        <time>2022-05-01T09:44:23Z</time>
      </trkpt>
      <trkpt lat="49.01134" lon="7.7863">
        <ele>192.6</ele>
        <time>2022-05-01T09:44:24Z</time>
      </trkpt>
      <trkpt lat="49.01133" lon="7.78632">
        <ele>193</ele>
        <time>2022-05-01T09:44:25Z</time>
      </trkpt>
      <trkpt lat="49.01132" lon="7.78633">
        <ele>193.6</ele>
        <time>2022-05-01T09:44:26Z</time>
      </trkpt>
      <trkpt lat="49.01129" lon="7.78636">
        <ele>194</ele>
        <time>2022-05-01T09:44:27Z</time>
      </trkpt>
      <trkpt lat="49.01127" lon="7.78639">
        <ele>194</ele>
        <time>2022-05-01T09:44:28Z</time>
      </trkpt>
      <trkpt lat="49.01126" lon="7.78642">
        <ele>194.6</ele>
        <time>2022-05-01T09:44:29Z</time>
      </trkpt>
      <trkpt lat="49.01124" lon="7.78645">
        <ele>195</ele>
        <time>2022-05-01T09:44:30Z</time>
      </trkpt>
      <trkpt lat="49.01121" lon="7.78647">
        <ele>195.6</ele>
        <time>2022-05-01T09:44:31Z</time>
      </trkpt>
      <trkpt lat="49.01115" lon="7.78657">
        <ele>196.4</ele>
        <time>2022-05-01T09:44:34Z</time>
      </trkpt>
      <trkpt lat="49.01112" lon="7.7866">
        <ele>196.6</ele>
        <time>2022-05-01T09:44:35Z</time>
      </trkpt>
      <trkpt lat="49.0111" lon="7.78663">
        <ele>196.6</ele>
        <time>2022-05-01T09:44:36Z</time>
      </trkpt>
      <trkpt lat="49.01108" lon="7.78665">
        <ele>196.8</ele>
        <time>2022-05-01T09:44:37Z</time>
      </trkpt>
      <trkpt lat="49.01106" lon="7.78667">
        <ele>196.8</ele>
        <time>2022-05-01T09:44:38Z</time>
      </trkpt>
      <trkpt lat="49.01103" lon="7.7867">
        <ele>196.8</ele>
        <time>2022-05-01T09:44:39Z</time>
      </trkpt>
      <trkpt lat="49.01101" lon="7.78673">
        <ele>196.8</ele>
        <time>2022-05-01T09:44:40Z</time>
      </trkpt>
      <trkpt lat="49.01099" lon="7.78676">
        <ele>196.8</ele>
        <time>2022-05-01T09:44:41Z</time>
      </trkpt>
      <trkpt lat="49.01096" lon="7.78679">
        <ele>196.8</ele>
        <time>2022-05-01T09:44:42Z</time>
      </trkpt>
      <trkpt lat="49.01094" lon="7.78682">
        <ele>196.8</ele>
        <time>2022-05-01T09:44:43Z</time>
      </trkpt>
      <trkpt lat="49.01091" lon="7.78686">
        <ele>196.8</ele>
        <time>2022-05-01T09:44:44Z</time>
      </trkpt>
      <trkpt lat="49.01089" lon="7.78689">
        <ele>197</ele>
        <time>2022-05-01T09:44:45Z</time>
      </trkpt>
      <trkpt lat="49.01086" lon="7.78692">
        <ele>197</ele>
        <time>2022-05-01T09:44:46Z</time>
      </trkpt>
      <trkpt lat="49.01083" lon="7.78695">
        <ele>197.2</ele>
        <time>2022-05-01T09:44:47Z</time>
      </trkpt>
      <trkpt lat="49.0108" lon="7.78698">
        <ele>197.2</ele>
        <time>2022-05-01T09:44:48Z</time>
      </trkpt>
      <trkpt lat="49.01078" lon="7.78701">
        <ele>197.4</ele>
        <time>2022-05-01T09:44:49Z</time>
      </trkpt>
      <trkpt lat="49.01075" lon="7.78704">
        <ele>197.4</ele>
        <time>2022-05-01T09:44:50Z</time>
      </trkpt>
      <trkpt lat="49.01073" lon="7.78707">
        <ele>197.6</ele>
        <time>2022-05-01T09:44:51Z</time>
      </trkpt>
      <trkpt lat="49.01071" lon="7.7871">
        <ele>197.6</ele>
        <time>2022-05-01T09:44:52Z</time>
      </trkpt>
      <trkpt lat="49.01068" lon="7.78713">
        <ele>197.8</ele>
        <time>2022-05-01T09:44:53Z</time>
      </trkpt>
      <trkpt lat="49.01066" lon="7.78716">
        <ele>198</ele>
        <time>2022-05-01T09:44:54Z</time>
      </trkpt>
      <trkpt lat="49.01063" lon="7.7872">
        <ele>198</ele>
        <time>2022-05-01T09:44:55Z</time>
      </trkpt>
      <trkpt lat="49.01061" lon="7.78723">
        <ele>198.2</ele>
        <time>2022-05-01T09:44:56Z</time>
      </trkpt>
      <trkpt lat="49.01058" lon="7.78727">
        <ele>198.2</ele>
        <time>2022-05-01T09:44:57Z</time>
      </trkpt>
      <trkpt lat="49.01055" lon="7.7873">
        <ele>198.4</ele>
        <time>2022-05-01T09:44:58Z</time>
      </trkpt>
      <trkpt lat="49.01053" lon="7.78733">
        <ele>198.4</ele>
        <time>2022-05-01T09:44:59Z</time>
      </trkpt>
      <trkpt lat="49.0105" lon="7.78736">
        <ele>198.4</ele>
        <time>2022-05-01T09:45:00Z</time>
      </trkpt>
      <trkpt lat="49.01048" lon="7.78739">
        <ele>198.6</ele>
        <time>2022-05-01T09:45:01Z</time>
      </trkpt>
      <trkpt lat="49.01045" lon="7.78742">
        <ele>198.8</ele>
        <time>2022-05-01T09:45:02Z</time>
      </trkpt>
      <trkpt lat="49.01043" lon="7.78745">
        <ele>199</ele>
        <time>2022-05-01T09:45:03Z</time>
      </trkpt>
      <trkpt lat="49.0104" lon="7.78749">
        <ele>199</ele>
        <time>2022-05-01T09:45:04Z</time>
      </trkpt>
      <trkpt lat="49.01038" lon="7.78753">
        <ele>199.2</ele>
        <time>2022-05-01T09:45:05Z</time>
      </trkpt>
      <trkpt lat="49.01035" lon="7.78757">
        <ele>199.2</ele>
        <time>2022-05-01T09:45:06Z</time>
      </trkpt>
      <trkpt lat="49.01033" lon="7.78761">
        <ele>199.4</ele>
        <time>2022-05-01T09:45:07Z</time>
      </trkpt>
      <trkpt lat="49.0103" lon="7.78766">
        <ele>199.4</ele>
        <time>2022-05-01T09:45:08Z</time>
      </trkpt>
      <trkpt lat="49.01028" lon="7.78771">
        <ele>199.4</ele>
        <time>2022-05-01T09:45:09Z</time>
      </trkpt>
      <trkpt lat="49.01027" lon="7.78775">
        <ele>199.6</ele>
        <time>2022-05-01T09:45:10Z</time>
      </trkpt>
      <trkpt lat="49.01025" lon="7.78781">
        <ele>199.6</ele>
        <time>2022-05-01T09:45:11Z</time>
      </trkpt>
      <trkpt lat="49.01024" lon="7.78785">
        <ele>199.6</ele>
        <time>2022-05-01T09:45:12Z</time>
      </trkpt>
      <trkpt lat="49.01023" lon="7.7879">
        <ele>199.8</ele>
        <time>2022-05-01T09:45:13Z</time>
      </trkpt>
      <trkpt lat="49.01021" lon="7.78793">
        <ele>199.8</ele>
        <time>2022-05-01T09:45:14Z</time>
      </trkpt>
      <trkpt lat="49.01019" lon="7.78797">
        <ele>199.8</ele>
        <time>2022-05-01T09:45:15Z</time>
      </trkpt>
      <trkpt lat="49.01017" lon="7.78801">
        <ele>199.8</ele>
        <time>2022-05-01T09:45:16Z</time>
      </trkpt>
      <trkpt lat="49.01015" lon="7.78805">
        <ele>200</ele>
        <time>2022-05-01T09:45:17Z</time>
      </trkpt>
      <trkpt lat="49.01013" lon="7.7881">
        <ele>200</ele>
        <time>2022-05-01T09:45:18Z</time>
      </trkpt>
      <trkpt lat="49.01009" lon="7.78818">
        <ele>200.2</ele>
        <time>2022-05-01T09:45:20Z</time>
      </trkpt>
      <trkpt lat="49.01007" lon="7.78822">
        <ele>200.2</ele>
        <time>2022-05-01T09:45:21Z</time>
      </trkpt>
      <trkpt lat="49.01006" lon="7.78826">
        <ele>200.2</ele>
        <time>2022-05-01T09:45:22Z</time>
      </trkpt>
      <trkpt lat="49.01004" lon="7.78829">
        <ele>200.2</ele>
        <time>2022-05-01T09:45:23Z</time>
      </trkpt>
      <trkpt lat="49.01004" lon="7.78833">
        <ele>200.2</ele>
        <time>2022-05-01T09:45:24Z</time>
      </trkpt>
      <trkpt lat="49.01006" lon="7.78836">
        <ele>200.2</ele>
        <time>2022-05-01T09:45:25Z</time>
      </trkpt>
      <trkpt lat="49.01008" lon="7.78838">
        <ele>200.2</ele>
        <time>2022-05-01T09:45:26Z</time>
      </trkpt>
      <trkpt lat="49.01011" lon="7.78838">
        <ele>200.2</ele>
        <time>2022-05-01T09:45:27Z</time>
      </trkpt>
      <trkpt lat="49.01014" lon="7.78837">
        <ele>200.2</ele>
        <time>2022-05-01T09:45:28Z</time>
      </trkpt>
      <trkpt lat="49.01022" lon="7.7883">
        <ele>200.4</ele>
        <time>2022-05-01T09:45:31Z</time>
      </trkpt>
      <trkpt lat="49.01024" lon="7.78828">
        <ele>200.4</ele>
        <time>2022-05-01T09:45:32Z</time>
      </trkpt>
      <trkpt lat="49.01033" lon="7.78824">
        <ele>200.4</ele>
        <time>2022-05-01T09:45:35Z</time>
      </trkpt>
      <trkpt lat="49.01038" lon="7.78822">
        <ele>201</ele>
        <time>2022-05-01T09:45:37Z</time>
      </trkpt>
      <trkpt lat="49.0104" lon="7.7882">
        <ele>201.2</ele>
        <time>2022-05-01T09:45:38Z</time>
      </trkpt>
      <trkpt lat="49.01042" lon="7.78818">
        <ele>201.6</ele>
        <time>2022-05-01T09:45:39Z</time>
      </trkpt>
      <trkpt lat="49.01045" lon="7.78816">
        <ele>202</ele>
        <time>2022-05-01T09:45:40Z</time>
      </trkpt>
      <trkpt lat="49.01048" lon="7.78813">
        <ele>202.2</ele>
        <time>2022-05-01T09:45:41Z</time>
      </trkpt>
      <trkpt lat="49.01052" lon="7.78804">
        <ele>203</ele>
        <time>2022-05-01T09:45:43Z</time>
      </trkpt>
      <trkpt lat="49.01054" lon="7.788">
        <ele>203.4</ele>
        <time>2022-05-01T09:45:44Z</time>
      </trkpt>
      <trkpt lat="49.01056" lon="7.78797">
        <ele>203.6</ele>
        <time>2022-05-01T09:45:45Z</time>
      </trkpt>
      <trkpt lat="49.01058" lon="7.78793">
        <ele>204</ele>
        <time>2022-05-01T09:45:46Z</time>
      </trkpt>
      <trkpt lat="49.01061" lon="7.78788">
        <ele>204.2</ele>
        <time>2022-05-01T09:45:47Z</time>
      </trkpt>
      <trkpt lat="49.01063" lon="7.78784">
        <ele>204.4</ele>
        <time>2022-05-01T09:45:48Z</time>
      </trkpt>
      <trkpt lat="49.01066" lon="7.78779">
        <ele>204.8</ele>
        <time>2022-05-01T09:45:49Z</time>
      </trkpt>
      <trkpt lat="49.01068" lon="7.78776">
        <ele>205</ele>
        <time>2022-05-01T09:45:50Z</time>
      </trkpt>
      <trkpt lat="49.0107" lon="7.78772">
        <ele>205.2</ele>
        <time>2022-05-01T09:45:51Z</time>
      </trkpt>
      <trkpt lat="49.01073" lon="7.78769">
        <ele>205.4</ele>
        <time>2022-05-01T09:45:52Z</time>
      </trkpt>
      <trkpt lat="49.01076" lon="7.78766">
        <ele>205.6</ele>
        <time>2022-05-01T09:45:53Z</time>
      </trkpt>
      <trkpt lat="49.01079" lon="7.78762">
        <ele>205.8</ele>
        <time>2022-05-01T09:45:54Z</time>
      </trkpt>
      <trkpt lat="49.01082" lon="7.78759">
        <ele>206</ele>
        <time>2022-05-01T09:45:55Z</time>
      </trkpt>
      <trkpt lat="49.01084" lon="7.78756">
        <ele>206.2</ele>
        <time>2022-05-01T09:45:56Z</time>
      </trkpt>
      <trkpt lat="49.01087" lon="7.78754">
        <ele>206.6</ele>
        <time>2022-05-01T09:45:57Z</time>
      </trkpt>
      <trkpt lat="49.01091" lon="7.78751">
        <ele>206.8</ele>
        <time>2022-05-01T09:45:58Z</time>
      </trkpt>
      <trkpt lat="49.01093" lon="7.7875">
        <ele>207.2</ele>
        <time>2022-05-01T09:45:59Z</time>
      </trkpt>
      <trkpt lat="49.01096" lon="7.7875">
        <ele>207.2</ele>
        <time>2022-05-01T09:46:00Z</time>
      </trkpt>
      <trkpt lat="49.01098" lon="7.78751">
        <ele>207.4</ele>
        <time>2022-05-01T09:46:01Z</time>
      </trkpt>
      <trkpt lat="49.011" lon="7.78754">
        <ele>207.8</ele>
        <time>2022-05-01T09:46:02Z</time>
      </trkpt>
      <trkpt lat="49.01102" lon="7.78757">
        <ele>208.2</ele>
        <time>2022-05-01T09:46:03Z</time>
      </trkpt>
      <trkpt lat="49.01103" lon="7.78761">
        <ele>208.6</ele>
        <time>2022-05-01T09:46:04Z</time>
      </trkpt>
      <trkpt lat="49.01105" lon="7.78763">
        <ele>208.8</ele>
        <time>2022-05-01T09:46:05Z</time>
      </trkpt>
      <trkpt lat="49.01107" lon="7.78765">
        <ele>209.4</ele>
        <time>2022-05-01T09:46:06Z</time>
      </trkpt>
      <trkpt lat="49.01109" lon="7.78767">
        <ele>209.8</ele>
        <time>2022-05-01T09:46:07Z</time>
      </trkpt>
      <trkpt lat="49.0111" lon="7.78768">
        <ele>210</ele>
        <time>2022-05-01T09:46:08Z</time>
      </trkpt>
      <trkpt lat="49.01111" lon="7.7877">
        <ele>210.6</ele>
        <time>2022-05-01T09:46:09Z</time>
      </trkpt>
      <trkpt lat="49.01111" lon="7.78772">
        <ele>211</ele>
        <time>2022-05-01T09:46:10Z</time>
      </trkpt>
      <trkpt lat="49.01112" lon="7.78774">
        <ele>211.4</ele>
        <time>2022-05-01T09:46:11Z</time>
      </trkpt>
      <trkpt lat="49.01111" lon="7.78776">
        <ele>211.8</ele>
        <time>2022-05-01T09:46:12Z</time>
      </trkpt>
      <trkpt lat="49.01111" lon="7.78778">
        <ele>212.2</ele>
        <time>2022-05-01T09:46:13Z</time>
      </trkpt>
      <trkpt lat="49.01111" lon="7.7878">
        <ele>212.6</ele>
        <time>2022-05-01T09:46:14Z</time>
      </trkpt>
      <trkpt lat="49.0111" lon="7.7878">
        <ele>213</ele>
        <time>2022-05-01T09:46:15Z</time>
      </trkpt>
      <trkpt lat="49.01109" lon="7.78781">
        <ele>213.2</ele>
        <time>2022-05-01T09:46:16Z</time>
      </trkpt>
      <trkpt lat="49.01108" lon="7.78782">
        <ele>213.2</ele>
        <time>2022-05-01T09:46:17Z</time>
      </trkpt>
      <trkpt lat="49.01107" lon="7.78783">
        <ele>213.4</ele>
        <time>2022-05-01T09:46:18Z</time>
      </trkpt>
      <trkpt lat="49.01107" lon="7.78783">
        <ele>213.6</ele>
        <time>2022-05-01T09:46:19Z</time>
      </trkpt>
      <trkpt lat="49.01107" lon="7.78783">
        <ele>213.8</ele>
        <time>2022-05-01T09:46:20Z</time>
      </trkpt>
      <trkpt lat="49.01107" lon="7.78783">
        <ele>214</ele>
        <time>2022-05-01T09:46:21Z</time>
      </trkpt>
      <trkpt lat="49.01107" lon="7.78783">
        <ele>214</ele>
        <time>2022-05-01T09:46:22Z</time>
      </trkpt>
      <trkpt lat="49.01107" lon="7.78783">
        <ele>214.2</ele>
        <time>2022-05-01T09:53:43Z</time>
      </trkpt>
      <trkpt lat="49.01107" lon="7.78783">
        <ele>214.2</ele>
        <time>2022-05-01T09:53:46Z</time>
      </trkpt>
      <trkpt lat="49.01107" lon="7.78783">
        <ele>214</ele>
        <time>2022-05-01T09:53:50Z</time>
      </trkpt>
      <trkpt lat="49.01109" lon="7.78771">
        <ele>213.8</ele>
        <time>2022-05-01T09:53:52Z</time>
      </trkpt>
      <trkpt lat="49.01114" lon="7.78754">
        <ele>213.8</ele>
        <time>2022-05-01T09:53:55Z</time>
      </trkpt>
      <trkpt lat="49.01113" lon="7.78754">
        <ele>213.8</ele>
        <time>2022-05-01T09:53:56Z</time>
      </trkpt>
      <trkpt lat="49.01115" lon="7.78754">
        <ele>213.6</ele>
        <time>2022-05-01T09:53:57Z</time>
      </trkpt>
      <trkpt lat="49.01118" lon="7.78754">
        <ele>213.4</ele>
        <time>2022-05-01T09:53:58Z</time>
      </trkpt>
      <trkpt lat="49.01115" lon="7.78751">
        <ele>212.4</ele>
        <time>2022-05-01T09:54:00Z</time>
      </trkpt>
      <trkpt lat="49.01104" lon="7.7875">
        <ele>211.4</ele>
        <time>2022-05-01T09:54:02Z</time>
      </trkpt>
      <trkpt lat="49.01101" lon="7.78748">
        <ele>210.6</ele>
        <time>2022-05-01T09:54:03Z</time>
      </trkpt>
      <trkpt lat="49.01099" lon="7.78746">
        <ele>209.8</ele>
        <time>2022-05-01T09:54:04Z</time>
      </trkpt>
      <trkpt lat="49.01096" lon="7.78745">
        <ele>209</ele>
        <time>2022-05-01T09:54:05Z</time>
      </trkpt>
      <trkpt lat="49.01093" lon="7.78747">
        <ele>208</ele>
        <time>2022-05-01T09:54:06Z</time>
      </trkpt>
      <trkpt lat="49.01089" lon="7.7875">
        <ele>207.4</ele>
        <time>2022-05-01T09:54:07Z</time>
      </trkpt>
      <trkpt lat="49.01084" lon="7.78755">
        <ele>206.6</ele>
        <time>2022-05-01T09:54:08Z</time>
      </trkpt>
      <trkpt lat="49.01079" lon="7.78763">
        <ele>205.8</ele>
        <time>2022-05-01T09:54:09Z</time>
      </trkpt>
      <trkpt lat="49.01074" lon="7.78772">
        <ele>205</ele>
        <time>2022-05-01T09:54:10Z</time>
      </trkpt>
      <trkpt lat="49.01068" lon="7.78781">
        <ele>207.8</ele>
        <time>2022-05-01T09:54:11Z</time>
      </trkpt>
      <trkpt lat="49.01061" lon="7.78792">
        <ele>209</ele>
        <time>2022-05-01T09:54:12Z</time>
      </trkpt>
      <trkpt lat="49.01042" lon="7.78816">
        <ele>207.8</ele>
        <time>2022-05-01T09:54:15Z</time>
      </trkpt>
      <trkpt lat="49.01033" lon="7.78823">
        <ele>207.2</ele>
        <time>2022-05-01T09:54:16Z</time>
      </trkpt>
      <trkpt lat="49.01026" lon="7.78829">
        <ele>206.6</ele>
        <time>2022-05-01T09:54:17Z</time>
      </trkpt>
      <trkpt lat="49.0102" lon="7.78835">
        <ele>205.8</ele>
        <time>2022-05-01T09:54:18Z</time>
      </trkpt>
      <trkpt lat="49.01016" lon="7.78838">
        <ele>204.8</ele>
        <time>2022-05-01T09:54:19Z</time>
      </trkpt>
      <trkpt lat="49.01012" lon="7.7884">
        <ele>204.8</ele>
        <time>2022-05-01T09:54:20Z</time>
      </trkpt>
      <trkpt lat="49.01011" lon="7.78842">
        <ele>204.4</ele>
        <time>2022-05-01T09:54:21Z</time>
      </trkpt>
      <trkpt lat="49.0101" lon="7.78842">
        <ele>203.6</ele>
        <time>2022-05-01T09:54:22Z</time>
      </trkpt>
      <trkpt lat="49.0101" lon="7.78842">
        <ele>202.8</ele>
        <time>2022-05-01T09:54:23Z</time>
      </trkpt>
      <trkpt lat="49.0101" lon="7.78842">
        <ele>202</ele>
        <time>2022-05-01T09:54:24Z</time>
      </trkpt>
      <trkpt lat="49.0101" lon="7.78842">
        <ele>201.4</ele>
        <time>2022-05-01T09:54:25Z</time>
      </trkpt>
      <trkpt lat="49.01005" lon="7.7884">
        <ele>200.8</ele>
        <time>2022-05-01T09:54:30Z</time>
      </trkpt>
      <trkpt lat="49.00999" lon="7.78842">
        <ele>200.6</ele>
        <time>2022-05-01T09:54:32Z</time>
      </trkpt>
      <trkpt lat="49.00996" lon="7.78845">
        <ele>200.6</ele>
        <time>2022-05-01T09:54:33Z</time>
      </trkpt>
      <trkpt lat="49.00992" lon="7.78847">
        <ele>200.6</ele>
        <time>2022-05-01T09:54:34Z</time>
      </trkpt>
      <trkpt lat="49.00981" lon="7.78855">
        <ele>200.6</ele>
        <time>2022-05-01T09:54:37Z</time>
      </trkpt>
      <trkpt lat="49.00977" lon="7.78856">
        <ele>200.4</ele>
        <time>2022-05-01T09:54:38Z</time>
      </trkpt>
      <trkpt lat="49.0096" lon="7.78863">
        <ele>199.6</ele>
        <time>2022-05-01T09:54:42Z</time>
      </trkpt>
      <trkpt lat="49.00956" lon="7.78864">
        <ele>199.4</ele>
        <time>2022-05-01T09:54:43Z</time>
      </trkpt>
      <trkpt lat="49.00953" lon="7.78865">
        <ele>199</ele>
        <time>2022-05-01T09:54:44Z</time>
      </trkpt>
      <trkpt lat="49.00949" lon="7.78866">
        <ele>198.8</ele>
        <time>2022-05-01T09:54:45Z</time>
      </trkpt>
      <trkpt lat="49.00948" lon="7.78869">
        <ele>198.6</ele>
        <time>2022-05-01T09:54:46Z</time>
      </trkpt>
      <trkpt lat="49.00947" lon="7.78872">
        <ele>198.4</ele>
        <time>2022-05-01T09:54:47Z</time>
      </trkpt>
      <trkpt lat="49.00954" lon="7.78884">
        <ele>198.2</ele>
        <time>2022-05-01T09:54:50Z</time>
      </trkpt>
      <trkpt lat="49.00956" lon="7.78889">
        <ele>198.2</ele>
        <time>2022-05-01T09:54:51Z</time>
      </trkpt>
      <trkpt lat="49.00959" lon="7.78895">
        <ele>198.2</ele>
        <time>2022-05-01T09:54:52Z</time>
      </trkpt>
      <trkpt lat="49.00965" lon="7.78913">
        <ele>198.2</ele>
        <time>2022-05-01T09:54:55Z</time>
      </trkpt>
      <trkpt lat="49.00967" lon="7.78918">
        <ele>198.2</ele>
        <time>2022-05-01T09:54:56Z</time>
      </trkpt>
      <trkpt lat="49.00973" lon="7.78936">
        <ele>198.2</ele>
        <time>2022-05-01T09:54:59Z</time>
      </trkpt>
      <trkpt lat="49.00975" lon="7.78943">
        <ele>198.2</ele>
        <time>2022-05-01T09:55:00Z</time>
      </trkpt>
      <trkpt lat="49.00978" lon="7.78956">
        <ele>198.4</ele>
        <time>2022-05-01T09:55:02Z</time>
      </trkpt>
      <trkpt lat="49.0098" lon="7.78968">
        <ele>199</ele>
        <time>2022-05-01T09:55:04Z</time>
      </trkpt>
      <trkpt lat="49.0098" lon="7.78974">
        <ele>199.4</ele>
        <time>2022-05-01T09:55:05Z</time>
      </trkpt>
      <trkpt lat="49.0098" lon="7.7898">
        <ele>199.6</ele>
        <time>2022-05-01T09:55:06Z</time>
      </trkpt>
      <trkpt lat="49.00979" lon="7.78986">
        <ele>199.6</ele>
        <time>2022-05-01T09:55:07Z</time>
      </trkpt>
      <trkpt lat="49.00978" lon="7.78991">
        <ele>199.8</ele>
        <time>2022-05-01T09:55:08Z</time>
      </trkpt>
      <trkpt lat="49.00976" lon="7.78996">
        <ele>200.2</ele>
        <time>2022-05-01T09:55:09Z</time>
      </trkpt>
      <trkpt lat="49.00974" lon="7.79">
        <ele>200.4</ele>
        <time>2022-05-01T09:55:10Z</time>
      </trkpt>
      <trkpt lat="49.00971" lon="7.79004">
        <ele>200.8</ele>
        <time>2022-05-01T09:55:11Z</time>
      </trkpt>
      <trkpt lat="49.00968" lon="7.79008">
        <ele>201</ele>
        <time>2022-05-01T09:55:12Z</time>
      </trkpt>
      <trkpt lat="49.00964" lon="7.79011">
        <ele>201.2</ele>
        <time>2022-05-01T09:55:13Z</time>
      </trkpt>
      <trkpt lat="49.00957" lon="7.79016">
        <ele>202</ele>
        <time>2022-05-01T09:55:15Z</time>
      </trkpt>
      <trkpt lat="49.00948" lon="7.7902">
        <ele>202.8</ele>
        <time>2022-05-01T09:55:17Z</time>
      </trkpt>
      <trkpt lat="49.00944" lon="7.79022">
        <ele>203</ele>
        <time>2022-05-01T09:55:18Z</time>
      </trkpt>
      <trkpt lat="49.0094" lon="7.79024">
        <ele>203</ele>
        <time>2022-05-01T09:55:19Z</time>
      </trkpt>
      <trkpt lat="49.00936" lon="7.79027">
        <ele>203.2</ele>
        <time>2022-05-01T09:55:20Z</time>
      </trkpt>
      <trkpt lat="49.00932" lon="7.7903">
        <ele>203.2</ele>
        <time>2022-05-01T09:55:21Z</time>
      </trkpt>
      <trkpt lat="49.00929" lon="7.79032">
        <ele>203.2</ele>
        <time>2022-05-01T09:55:22Z</time>
      </trkpt>
      <trkpt lat="49.00925" lon="7.79034">
        <ele>203.4</ele>
        <time>2022-05-01T09:55:23Z</time>
      </trkpt>
      <trkpt lat="49.00921" lon="7.79036">
        <ele>203.4</ele>
        <time>2022-05-01T09:55:24Z</time>
      </trkpt>
      <trkpt lat="49.00917" lon="7.79037">
        <ele>203.4</ele>
        <time>2022-05-01T09:55:25Z</time>
      </trkpt>
      <trkpt lat="49.00913" lon="7.79038">
        <ele>203.4</ele>
        <time>2022-05-01T09:55:26Z</time>
      </trkpt>
      <trkpt lat="49.00909" lon="7.79038">
        <ele>203.4</ele>
        <time>2022-05-01T09:55:27Z</time>
      </trkpt>
      <trkpt lat="49.00905" lon="7.79038">
        <ele>203.6</ele>
        <time>2022-05-01T09:55:28Z</time>
      </trkpt>
      <trkpt lat="49.00901" lon="7.79038">
        <ele>203.6</ele>
        <time>2022-05-01T09:55:29Z</time>
      </trkpt>
      <trkpt lat="49.00897" lon="7.79038">
        <ele>203.6</ele>
        <time>2022-05-01T09:55:30Z</time>
      </trkpt>
      <trkpt lat="49.00893" lon="7.79038">
        <ele>203.8</ele>
        <time>2022-05-01T09:55:31Z</time>
      </trkpt>
      <trkpt lat="49.00889" lon="7.79039">
        <ele>204</ele>
        <time>2022-05-01T09:55:32Z</time>
      </trkpt>
      <trkpt lat="49.00884" lon="7.79039">
        <ele>204</ele>
        <time>2022-05-01T09:55:33Z</time>
      </trkpt>
      <trkpt lat="49.0088" lon="7.7904">
        <ele>204.2</ele>
        <time>2022-05-01T09:55:34Z</time>
      </trkpt>
      <trkpt lat="49.00875" lon="7.7904">
        <ele>204.2</ele>
        <time>2022-05-01T09:55:35Z</time>
      </trkpt>
      <trkpt lat="49.00871" lon="7.7904">
        <ele>204.2</ele>
        <time>2022-05-01T09:55:36Z</time>
      </trkpt>
      <trkpt lat="49.00867" lon="7.7904">
        <ele>204.2</ele>
        <time>2022-05-01T09:55:37Z</time>
      </trkpt>
      <trkpt lat="49.00862" lon="7.7904">
        <ele>204.2</ele>
        <time>2022-05-01T09:55:38Z</time>
      </trkpt>
      <trkpt lat="49.00858" lon="7.79041">
        <ele>204.2</ele>
        <time>2022-05-01T09:55:39Z</time>
      </trkpt>
      <trkpt lat="49.00854" lon="7.79042">
        <ele>204.4</ele>
        <time>2022-05-01T09:55:40Z</time>
      </trkpt>
      <trkpt lat="49.0085" lon="7.79042">
        <ele>204.4</ele>
        <time>2022-05-01T09:55:41Z</time>
      </trkpt>
      <trkpt lat="49.00846" lon="7.79043">
        <ele>204.4</ele>
        <time>2022-05-01T09:55:42Z</time>
      </trkpt>
      <trkpt lat="49.00842" lon="7.79044">
        <ele>204.4</ele>
        <time>2022-05-01T09:55:43Z</time>
      </trkpt>
      <trkpt lat="49.00838" lon="7.79045">
        <ele>204.4</ele>
        <time>2022-05-01T09:55:44Z</time>
      </trkpt>
      <trkpt lat="49.00834" lon="7.79046">
        <ele>204.4</ele>
        <time>2022-05-01T09:55:45Z</time>
      </trkpt>
      <trkpt lat="49.00822" lon="7.79048">
        <ele>204.6</ele>
        <time>2022-05-01T09:55:48Z</time>
      </trkpt>
      <trkpt lat="49.00793" lon="7.79053">
        <ele>205.2</ele>
        <time>2022-05-01T09:55:55Z</time>
      </trkpt>
      <trkpt lat="49.00789" lon="7.79053">
        <ele>205.2</ele>
        <time>2022-05-01T09:55:56Z</time>
      </trkpt>
      <trkpt lat="49.00776" lon="7.79055">
        <ele>205.4</ele>
        <time>2022-05-01T09:55:59Z</time>
      </trkpt>
      <trkpt lat="49.00767" lon="7.79057">
        <ele>205.6</ele>
        <time>2022-05-01T09:56:01Z</time>
      </trkpt>
      <trkpt lat="49.00738" lon="7.79058">
        <ele>206</ele>
        <time>2022-05-01T09:56:07Z</time>
      </trkpt>
      <trkpt lat="49.0072" lon="7.79061">
        <ele>206.2</ele>
        <time>2022-05-01T09:56:11Z</time>
      </trkpt>
      <trkpt lat="49.00703" lon="7.79062">
        <ele>206.2</ele>
        <time>2022-05-01T09:56:15Z</time>
      </trkpt>
      <trkpt lat="49.00671" lon="7.79065">
        <ele>206.4</ele>
        <time>2022-05-01T09:56:22Z</time>
      </trkpt>
      <trkpt lat="49.00653" lon="7.79069">
        <ele>206.4</ele>
        <time>2022-05-01T09:56:26Z</time>
      </trkpt>
      <trkpt lat="49.00628" lon="7.79077">
        <ele>206.6</ele>
        <time>2022-05-01T09:56:31Z</time>
      </trkpt>
      <trkpt lat="49.00618" lon="7.79081">
        <ele>206.8</ele>
        <time>2022-05-01T09:56:33Z</time>
      </trkpt>
      <trkpt lat="49.00613" lon="7.79082">
        <ele>206.8</ele>
        <time>2022-05-01T09:56:34Z</time>
      </trkpt>
      <trkpt lat="49.00573" lon="7.79091">
        <ele>206.8</ele>
        <time>2022-05-01T09:56:41Z</time>
      </trkpt>
      <trkpt lat="49.00567" lon="7.79093">
        <ele>206.8</ele>
        <time>2022-05-01T09:56:42Z</time>
      </trkpt>
      <trkpt lat="49.00548" lon="7.79097">
        <ele>206.6</ele>
        <time>2022-05-01T09:56:45Z</time>
      </trkpt>
      <trkpt lat="49.00535" lon="7.79102">
        <ele>206.2</ele>
        <time>2022-05-01T09:56:47Z</time>
      </trkpt>
      <trkpt lat="49.00522" lon="7.79107">
        <ele>205.8</ele>
        <time>2022-05-01T09:56:49Z</time>
      </trkpt>
      <trkpt lat="49.00516" lon="7.79108">
        <ele>205.2</ele>
        <time>2022-05-01T09:56:50Z</time>
      </trkpt>
      <trkpt lat="49.00509" lon="7.79109">
        <ele>205.4</ele>
        <time>2022-05-01T09:56:51Z</time>
      </trkpt>
      <trkpt lat="49.00501" lon="7.79108">
        <ele>205</ele>
        <time>2022-05-01T09:56:52Z</time>
      </trkpt>
      <trkpt lat="49.00494" lon="7.79107">
        <ele>204.8</ele>
        <time>2022-05-01T09:56:53Z</time>
      </trkpt>
      <trkpt lat="49.0048" lon="7.791">
        <ele>204.4</ele>
        <time>2022-05-01T09:56:55Z</time>
      </trkpt>
      <trkpt lat="49.00475" lon="7.79094">
        <ele>203.8</ele>
        <time>2022-05-01T09:56:56Z</time>
      </trkpt>
      <trkpt lat="49.00471" lon="7.79087">
        <ele>203.4</ele>
        <time>2022-05-01T09:56:57Z</time>
      </trkpt>
      <trkpt lat="49.00467" lon="7.79082">
        <ele>202.8</ele>
        <time>2022-05-01T09:56:58Z</time>
      </trkpt>
      <trkpt lat="49.00464" lon="7.79078">
        <ele>202.2</ele>
        <time>2022-05-01T09:56:59Z</time>
      </trkpt>
      <trkpt lat="49.00461" lon="7.79076">
        <ele>201.6</ele>
        <time>2022-05-01T09:57:00Z</time>
      </trkpt>
      <trkpt lat="49.00458" lon="7.79077">
        <ele>200.6</ele>
        <time>2022-05-01T09:57:01Z</time>
      </trkpt>
      <trkpt lat="49.00456" lon="7.7908">
        <ele>199.4</ele>
        <time>2022-05-01T09:57:02Z</time>
      </trkpt>
      <trkpt lat="49.00454" lon="7.79085">
        <ele>198.4</ele>
        <time>2022-05-01T09:57:03Z</time>
      </trkpt>
      <trkpt lat="49.0045" lon="7.79096">
        <ele>197.4</ele>
        <time>2022-05-01T09:57:05Z</time>
      </trkpt>
      <trkpt lat="49.00443" lon="7.79106">
        <ele>197.2</ele>
        <time>2022-05-01T09:57:07Z</time>
      </trkpt>
      <trkpt lat="49.00437" lon="7.79117">
        <ele>197</ele>
        <time>2022-05-01T09:57:09Z</time>
      </trkpt>
      <trkpt lat="49.00435" lon="7.79122">
        <ele>197</ele>
        <time>2022-05-01T09:57:10Z</time>
      </trkpt>
      <trkpt lat="49.00432" lon="7.79128">
        <ele>197</ele>
        <time>2022-05-01T09:57:11Z</time>
      </trkpt>
      <trkpt lat="49.00429" lon="7.79134">
        <ele>197</ele>
        <time>2022-05-01T09:57:12Z</time>
      </trkpt>
      <trkpt lat="49.00423" lon="7.79147">
        <ele>197</ele>
        <time>2022-05-01T09:57:14Z</time>
      </trkpt>
      <trkpt lat="49.0042" lon="7.7916">
        <ele>197.6</ele>
        <time>2022-05-01T09:57:16Z</time>
      </trkpt>
      <trkpt lat="49.0042" lon="7.79165">
        <ele>197.6</ele>
        <time>2022-05-01T09:57:17Z</time>
      </trkpt>
      <trkpt lat="49.00419" lon="7.79172">
        <ele>197.8</ele>
        <time>2022-05-01T09:57:18Z</time>
      </trkpt>
      <trkpt lat="49.00418" lon="7.79178">
        <ele>198</ele>
        <time>2022-05-01T09:57:19Z</time>
      </trkpt>
      <trkpt lat="49.00416" lon="7.79184">
        <ele>198.2</ele>
        <time>2022-05-01T09:57:20Z</time>
      </trkpt>
      <trkpt lat="49.00415" lon="7.79198">
        <ele>198.6</ele>
        <time>2022-05-01T09:57:22Z</time>
      </trkpt>
      <trkpt lat="49.00414" lon="7.79205">
        <ele>198.8</ele>
        <time>2022-05-01T09:57:23Z</time>
      </trkpt>
      <trkpt lat="49.00412" lon="7.79213">
        <ele>198.8</ele>
        <time>2022-05-01T09:57:24Z</time>
      </trkpt>
      <trkpt lat="49.0041" lon="7.79221">
        <ele>199</ele>
        <time>2022-05-01T09:57:25Z</time>
      </trkpt>
      <trkpt lat="49.00407" lon="7.79237">
        <ele>199.2</ele>
        <time>2022-05-01T09:57:27Z</time>
      </trkpt>
      <trkpt lat="49.00404" lon="7.79253">
        <ele>199.4</ele>
        <time>2022-05-01T09:57:29Z</time>
      </trkpt>
      <trkpt lat="49.00403" lon="7.79261">
        <ele>199.6</ele>
        <time>2022-05-01T09:57:30Z</time>
      </trkpt>
      <trkpt lat="49.00401" lon="7.79269">
        <ele>199.8</ele>
        <time>2022-05-01T09:57:31Z</time>
      </trkpt>
      <trkpt lat="49.00397" lon="7.79298">
        <ele>200.4</ele>
        <time>2022-05-01T09:57:35Z</time>
      </trkpt>
      <trkpt lat="49.00397" lon="7.79305">
        <ele>200.6</ele>
        <time>2022-05-01T09:57:36Z</time>
      </trkpt>
      <trkpt lat="49.00396" lon="7.79312">
        <ele>200.6</ele>
        <time>2022-05-01T09:57:37Z</time>
      </trkpt>
      <trkpt lat="49.00395" lon="7.79319">
        <ele>200.8</ele>
        <time>2022-05-01T09:57:38Z</time>
      </trkpt>
      <trkpt lat="49.00394" lon="7.79326">
        <ele>201.2</ele>
        <time>2022-05-01T09:57:39Z</time>
      </trkpt>
      <trkpt lat="49.00394" lon="7.79334">
        <ele>201.4</ele>
        <time>2022-05-01T09:57:40Z</time>
      </trkpt>
      <trkpt lat="49.00392" lon="7.79349">
        <ele>201.6</ele>
        <time>2022-05-01T09:57:42Z</time>
      </trkpt>
      <trkpt lat="49.00391" lon="7.79356">
        <ele>201.8</ele>
        <time>2022-05-01T09:57:43Z</time>
      </trkpt>
      <trkpt lat="49.00391" lon="7.79364">
        <ele>201.8</ele>
        <time>2022-05-01T09:57:44Z</time>
      </trkpt>
      <trkpt lat="49.0039" lon="7.79372">
        <ele>201.8</ele>
        <time>2022-05-01T09:57:45Z</time>
      </trkpt>
      <trkpt lat="49.0039" lon="7.79379">
        <ele>201.8</ele>
        <time>2022-05-01T09:57:46Z</time>
      </trkpt>
      <trkpt lat="49.00389" lon="7.79387">
        <ele>202</ele>
        <time>2022-05-01T09:57:47Z</time>
      </trkpt>
      <trkpt lat="49.00388" lon="7.79395">
        <ele>202</ele>
        <time>2022-05-01T09:57:48Z</time>
      </trkpt>
      <trkpt lat="49.00388" lon="7.79402">
        <ele>202</ele>
        <time>2022-05-01T09:57:49Z</time>
      </trkpt>
      <trkpt lat="49.00388" lon="7.7941">
        <ele>202</ele>
        <time>2022-05-01T09:57:50Z</time>
      </trkpt>
      <trkpt lat="49.00388" lon="7.79418">
        <ele>202</ele>
        <time>2022-05-01T09:57:51Z</time>
      </trkpt>
      <trkpt lat="49.00388" lon="7.79425">
        <ele>201.8</ele>
        <time>2022-05-01T09:57:52Z</time>
      </trkpt>
      <trkpt lat="49.00387" lon="7.79433">
        <ele>201.8</ele>
        <time>2022-05-01T09:57:53Z</time>
      </trkpt>
      <trkpt lat="49.00387" lon="7.79441">
        <ele>201.6</ele>
        <time>2022-05-01T09:57:54Z</time>
      </trkpt>
      <trkpt lat="49.00387" lon="7.7945">
        <ele>201.4</ele>
        <time>2022-05-01T09:57:55Z</time>
      </trkpt>
      <trkpt lat="49.00388" lon="7.79469">
        <ele>201.4</ele>
        <time>2022-05-01T09:57:57Z</time>
      </trkpt>
      <trkpt lat="49.0039" lon="7.79509">
        <ele>201.2</ele>
        <time>2022-05-01T09:58:01Z</time>
      </trkpt>
      <trkpt lat="49.00391" lon="7.79518">
        <ele>201</ele>
        <time>2022-05-01T09:58:02Z</time>
      </trkpt>
      <trkpt lat="49.00392" lon="7.79527">
        <ele>200.6</ele>
        <time>2022-05-01T09:58:03Z</time>
      </trkpt>
      <trkpt lat="49.00392" lon="7.79536">
        <ele>200</ele>
        <time>2022-05-01T09:58:04Z</time>
      </trkpt>
      <trkpt lat="49.00392" lon="7.79546">
        <ele>199.8</ele>
        <time>2022-05-01T09:58:05Z</time>
      </trkpt>
      <trkpt lat="49.0039" lon="7.79557">
        <ele>199.2</ele>
        <time>2022-05-01T09:58:06Z</time>
      </trkpt>
      <trkpt lat="49.00389" lon="7.79568">
        <ele>198.8</ele>
        <time>2022-05-01T09:58:07Z</time>
      </trkpt>
      <trkpt lat="49.00388" lon="7.79601">
        <ele>198.4</ele>
        <time>2022-05-01T09:58:10Z</time>
      </trkpt>
      <trkpt lat="49.00388" lon="7.79612">
        <ele>198.2</ele>
        <time>2022-05-01T09:58:11Z</time>
      </trkpt>
      <trkpt lat="49.00388" lon="7.79622">
        <ele>198.2</ele>
        <time>2022-05-01T09:58:12Z</time>
      </trkpt>
      <trkpt lat="49.0039" lon="7.79631">
        <ele>198</ele>
        <time>2022-05-01T09:58:13Z</time>
      </trkpt>
      <trkpt lat="49.00393" lon="7.7965">
        <ele>197</ele>
        <time>2022-05-01T09:58:15Z</time>
      </trkpt>
      <trkpt lat="49.00394" lon="7.7966">
        <ele>196.4</ele>
        <time>2022-05-01T09:58:16Z</time>
      </trkpt>
      <trkpt lat="49.00396" lon="7.79669">
        <ele>195.8</ele>
        <time>2022-05-01T09:58:17Z</time>
      </trkpt>
      <trkpt lat="49.00397" lon="7.79678">
        <ele>195.6</ele>
        <time>2022-05-01T09:58:18Z</time>
      </trkpt>
      <trkpt lat="49.00398" lon="7.79687">
        <ele>195.4</ele>
        <time>2022-05-01T09:58:19Z</time>
      </trkpt>
      <trkpt lat="49.00399" lon="7.79696">
        <ele>195.4</ele>
        <time>2022-05-01T09:58:20Z</time>
      </trkpt>
      <trkpt lat="49.004" lon="7.79706">
        <ele>195.4</ele>
        <time>2022-05-01T09:58:21Z</time>
      </trkpt>
      <trkpt lat="49.00401" lon="7.79714">
        <ele>195.4</ele>
        <time>2022-05-01T09:58:22Z</time>
      </trkpt>
      <trkpt lat="49.00402" lon="7.79723">
        <ele>195.4</ele>
        <time>2022-05-01T09:58:23Z</time>
      </trkpt>
      <trkpt lat="49.00403" lon="7.79732">
        <ele>195.4</ele>
        <time>2022-05-01T09:58:24Z</time>
      </trkpt>
      <trkpt lat="49.00404" lon="7.7974">
        <ele>195.4</ele>
        <time>2022-05-01T09:58:25Z</time>
      </trkpt>
      <trkpt lat="49.00406" lon="7.79749">
        <ele>195.4</ele>
        <time>2022-05-01T09:58:26Z</time>
      </trkpt>
      <trkpt lat="49.00406" lon="7.79757">
        <ele>195.4</ele>
        <time>2022-05-01T09:58:27Z</time>
      </trkpt>
      <trkpt lat="49.00407" lon="7.79766">
        <ele>195.4</ele>
        <time>2022-05-01T09:58:28Z</time>
      </trkpt>
      <trkpt lat="49.00409" lon="7.79775">
        <ele>195.6</ele>
        <time>2022-05-01T09:58:29Z</time>
      </trkpt>
      <trkpt lat="49.00414" lon="7.79818">
        <ele>196</ele>
        <time>2022-05-01T09:58:34Z</time>
      </trkpt>
      <trkpt lat="49.0042" lon="7.79873">
        <ele>196</ele>
        <time>2022-05-01T09:58:40Z</time>
      </trkpt>
      <trkpt lat="49.0043" lon="7.79943">
        <ele>196.2</ele>
        <time>2022-05-01T09:58:48Z</time>
      </trkpt>
      <trkpt lat="49.00434" lon="7.79975">
        <ele>196.6</ele>
        <time>2022-05-01T09:58:52Z</time>
      </trkpt>
      <trkpt lat="49.00436" lon="7.79992">
        <ele>196.8</ele>
        <time>2022-05-01T09:58:54Z</time>
      </trkpt>
      <trkpt lat="49.00438" lon="7.80007">
        <ele>197</ele>
        <time>2022-05-01T09:58:56Z</time>
      </trkpt>
      <trkpt lat="49.00439" lon="7.80014">
        <ele>197.2</ele>
        <time>2022-05-01T09:58:57Z</time>
      </trkpt>
      <trkpt lat="49.00439" lon="7.80022">
        <ele>197.2</ele>
        <time>2022-05-01T09:58:58Z</time>
      </trkpt>
      <trkpt lat="49.00439" lon="7.80029">
        <ele>197.4</ele>
        <time>2022-05-01T09:58:59Z</time>
      </trkpt>
      <trkpt lat="49.0044" lon="7.80037">
        <ele>197.6</ele>
        <time>2022-05-01T09:59:00Z</time>
      </trkpt>
      <trkpt lat="49.0044" lon="7.80044">
        <ele>197.8</ele>
        <time>2022-05-01T09:59:01Z</time>
      </trkpt>
      <trkpt lat="49.0044" lon="7.80051">
        <ele>198</ele>
        <time>2022-05-01T09:59:02Z</time>
      </trkpt>
      <trkpt lat="49.00441" lon="7.80058">
        <ele>198.4</ele>
        <time>2022-05-01T09:59:03Z</time>
      </trkpt>
      <trkpt lat="49.00441" lon="7.80067">
        <ele>198.4</ele>
        <time>2022-05-01T09:59:04Z</time>
      </trkpt>
      <trkpt lat="49.00443" lon="7.80097">
        <ele>199.2</ele>
        <time>2022-05-01T09:59:08Z</time>
      </trkpt>
      <trkpt lat="49.00443" lon="7.80105">
        <ele>199.4</ele>
        <time>2022-05-01T09:59:09Z</time>
      </trkpt>
      <trkpt lat="49.00443" lon="7.80113">
        <ele>199.6</ele>
        <time>2022-05-01T09:59:10Z</time>
      </trkpt>
      <trkpt lat="49.00443" lon="7.80121">
        <ele>199.8</ele>
        <time>2022-05-01T09:59:11Z</time>
      </trkpt>
      <trkpt lat="49.00443" lon="7.80128">
        <ele>200</ele>
        <time>2022-05-01T09:59:12Z</time>
      </trkpt>
      <trkpt lat="49.00444" lon="7.80136">
        <ele>200</ele>
        <time>2022-05-01T09:59:13Z</time>
      </trkpt>
      <trkpt lat="49.00444" lon="7.80144">
        <ele>200</ele>
        <time>2022-05-01T09:59:14Z</time>
      </trkpt>
      <trkpt lat="49.00444" lon="7.80152">
        <ele>200.2</ele>
        <time>2022-05-01T09:59:15Z</time>
      </trkpt>
      <trkpt lat="49.00445" lon="7.80159">
        <ele>200.2</ele>
        <time>2022-05-01T09:59:16Z</time>
      </trkpt>
      <trkpt lat="49.00446" lon="7.80167">
        <ele>200.2</ele>
        <time>2022-05-01T09:59:17Z</time>
      </trkpt>
      <trkpt lat="49.00446" lon="7.80175">
        <ele>200.4</ele>
        <time>2022-05-01T09:59:18Z</time>
      </trkpt>
      <trkpt lat="49.00446" lon="7.80182">
        <ele>200.4</ele>
        <time>2022-05-01T09:59:19Z</time>
      </trkpt>
      <trkpt lat="49.00446" lon="7.8019">
        <ele>200.4</ele>
        <time>2022-05-01T09:59:20Z</time>
      </trkpt>
      <trkpt lat="49.00447" lon="7.80198">
        <ele>200.6</ele>
        <time>2022-05-01T09:59:21Z</time>
      </trkpt>
      <trkpt lat="49.00447" lon="7.80206">
        <ele>200.6</ele>
        <time>2022-05-01T09:59:22Z</time>
      </trkpt>
      <trkpt lat="49.00448" lon="7.80214">
        <ele>200.8</ele>
        <time>2022-05-01T09:59:23Z</time>
      </trkpt>
      <trkpt lat="49.00449" lon="7.80222">
        <ele>200.8</ele>
        <time>2022-05-01T09:59:24Z</time>
      </trkpt>
      <trkpt lat="49.0045" lon="7.8023">
        <ele>200.8</ele>
        <time>2022-05-01T09:59:25Z</time>
      </trkpt>
      <trkpt lat="49.00451" lon="7.80238">
        <ele>200.8</ele>
        <time>2022-05-01T09:59:26Z</time>
      </trkpt>
      <trkpt lat="49.00452" lon="7.80246">
        <ele>200.8</ele>
        <time>2022-05-01T09:59:27Z</time>
      </trkpt>
      <trkpt lat="49.00453" lon="7.80254">
        <ele>200.8</ele>
        <time>2022-05-01T09:59:28Z</time>
      </trkpt>
      <trkpt lat="49.00454" lon="7.80263">
        <ele>200.8</ele>
        <time>2022-05-01T09:59:29Z</time>
      </trkpt>
      <trkpt lat="49.00456" lon="7.80271">
        <ele>200.8</ele>
        <time>2022-05-01T09:59:30Z</time>
      </trkpt>
      <trkpt lat="49.00457" lon="7.80277">
        <ele>200.8</ele>
        <time>2022-05-01T09:59:31Z</time>
      </trkpt>
      <trkpt lat="49.00462" lon="7.8031">
        <ele>200.8</ele>
        <time>2022-05-01T09:59:35Z</time>
      </trkpt>
      <trkpt lat="49.00472" lon="7.80374">
        <ele>200.8</ele>
        <time>2022-05-01T09:59:43Z</time>
      </trkpt>
      <trkpt lat="49.00473" lon="7.80381">
        <ele>200.8</ele>
        <time>2022-05-01T09:59:44Z</time>
      </trkpt>
      <trkpt lat="49.00474" lon="7.80388">
        <ele>200.8</ele>
        <time>2022-05-01T09:59:45Z</time>
      </trkpt>
      <trkpt lat="49.00475" lon="7.80395">
        <ele>200.8</ele>
        <time>2022-05-01T09:59:46Z</time>
      </trkpt>
      <trkpt lat="49.00476" lon="7.80401">
        <ele>200.8</ele>
        <time>2022-05-01T09:59:47Z</time>
      </trkpt>
      <trkpt lat="49.00477" lon="7.80407">
        <ele>201</ele>
        <time>2022-05-01T09:59:48Z</time>
      </trkpt>
      <trkpt lat="49.00478" lon="7.80413">
        <ele>201.2</ele>
        <time>2022-05-01T09:59:49Z</time>
      </trkpt>
      <trkpt lat="49.00479" lon="7.80417">
        <ele>201.4</ele>
        <time>2022-05-01T09:59:50Z</time>
      </trkpt>
      <trkpt lat="49.0048" lon="7.80424">
        <ele>201.4</ele>
        <time>2022-05-01T09:59:51Z</time>
      </trkpt>
      <trkpt lat="49.00481" lon="7.80429">
        <ele>201.6</ele>
        <time>2022-05-01T09:59:52Z</time>
      </trkpt>
      <trkpt lat="49.00482" lon="7.80433">
        <ele>201.8</ele>
        <time>2022-05-01T09:59:53Z</time>
      </trkpt>
      <trkpt lat="49.00484" lon="7.80436">
        <ele>202.2</ele>
        <time>2022-05-01T09:59:54Z</time>
      </trkpt>
      <trkpt lat="49.00485" lon="7.80438">
        <ele>202.4</ele>
        <time>2022-05-01T09:59:55Z</time>
      </trkpt>
      <trkpt lat="49.00487" lon="7.8044">
        <ele>202.6</ele>
        <time>2022-05-01T09:59:56Z</time>
      </trkpt>
      <trkpt lat="49.00489" lon="7.80442">
        <ele>202.8</ele>
        <time>2022-05-01T09:59:57Z</time>
      </trkpt>
      <trkpt lat="49.00491" lon="7.80444">
        <ele>203</ele>
        <time>2022-05-01T09:59:58Z</time>
      </trkpt>
      <trkpt lat="49.00493" lon="7.80446">
        <ele>203.4</ele>
        <time>2022-05-01T09:59:59Z</time>
      </trkpt>
      <trkpt lat="49.00496" lon="7.80447">
        <ele>203.6</ele>
        <time>2022-05-01T10:00:00Z</time>
      </trkpt>
      <trkpt lat="49.00498" lon="7.80448">
        <ele>204.2</ele>
        <time>2022-05-01T10:00:01Z</time>
      </trkpt>
      <trkpt lat="49.005" lon="7.8045">
        <ele>204.4</ele>
        <time>2022-05-01T10:00:02Z</time>
      </trkpt>
      <trkpt lat="49.00502" lon="7.80451">
        <ele>204.8</ele>
        <time>2022-05-01T10:00:03Z</time>
      </trkpt>
      <trkpt lat="49.00504" lon="7.80452">
        <ele>205.2</ele>
        <time>2022-05-01T10:00:04Z</time>
      </trkpt>
      <trkpt lat="49.00507" lon="7.80453">
        <ele>205.4</ele>
        <time>2022-05-01T10:00:05Z</time>
      </trkpt>
      <trkpt lat="49.00509" lon="7.80454">
        <ele>205.8</ele>
        <time>2022-05-01T10:00:06Z</time>
      </trkpt>
      <trkpt lat="49.00511" lon="7.80455">
        <ele>206</ele>
        <time>2022-05-01T10:00:07Z</time>
      </trkpt>
      <trkpt lat="49.00512" lon="7.80457">
        <ele>206.2</ele>
        <time>2022-05-01T10:00:08Z</time>
      </trkpt>
      <trkpt lat="49.00514" lon="7.80458">
        <ele>206.4</ele>
        <time>2022-05-01T10:00:09Z</time>
      </trkpt>
      <trkpt lat="49.00516" lon="7.80459">
        <ele>206.6</ele>
        <time>2022-05-01T10:00:10Z</time>
      </trkpt>
      <trkpt lat="49.00518" lon="7.80459">
        <ele>206.8</ele>
        <time>2022-05-01T10:00:11Z</time>
      </trkpt>
      <trkpt lat="49.00521" lon="7.8046">
        <ele>207</ele>
        <time>2022-05-01T10:00:12Z</time>
      </trkpt>
      <trkpt lat="49.00525" lon="7.80461">
        <ele>207.2</ele>
        <time>2022-05-01T10:00:13Z</time>
      </trkpt>
      <trkpt lat="49.00531" lon="7.80462">
        <ele>207.4</ele>
        <time>2022-05-01T10:00:14Z</time>
      </trkpt>
      <trkpt lat="49.00535" lon="7.80464">
        <ele>207.6</ele>
        <time>2022-05-01T10:00:15Z</time>
      </trkpt>
      <trkpt lat="49.00538" lon="7.80465">
        <ele>207.8</ele>
        <time>2022-05-01T10:00:16Z</time>
      </trkpt>
      <trkpt lat="49.00542" lon="7.80466">
        <ele>207.8</ele>
        <time>2022-05-01T10:00:17Z</time>
      </trkpt>
      <trkpt lat="49.00545" lon="7.80467">
        <ele>208</ele>
        <time>2022-05-01T10:00:18Z</time>
      </trkpt>
      <trkpt lat="49.00548" lon="7.80468">
        <ele>208.2</ele>
        <time>2022-05-01T10:00:19Z</time>
      </trkpt>
      <trkpt lat="49.00551" lon="7.8047">
        <ele>208.4</ele>
        <time>2022-05-01T10:00:20Z</time>
      </trkpt>
      <trkpt lat="49.00554" lon="7.80472">
        <ele>208.6</ele>
        <time>2022-05-01T10:00:21Z</time>
      </trkpt>
      <trkpt lat="49.00557" lon="7.80473">
        <ele>208.8</ele>
        <time>2022-05-01T10:00:22Z</time>
      </trkpt>
      <trkpt lat="49.00561" lon="7.80473">
        <ele>209</ele>
        <time>2022-05-01T10:00:23Z</time>
      </trkpt>
      <trkpt lat="49.00565" lon="7.80474">
        <ele>209</ele>
        <time>2022-05-01T10:00:24Z</time>
      </trkpt>
      <trkpt lat="49.00569" lon="7.80475">
        <ele>209.2</ele>
        <time>2022-05-01T10:00:25Z</time>
      </trkpt>
      <trkpt lat="49.00574" lon="7.80477">
        <ele>209.6</ele>
        <time>2022-05-01T10:00:26Z</time>
      </trkpt>
      <trkpt lat="49.00578" lon="7.80478">
        <ele>209.8</ele>
        <time>2022-05-01T10:00:27Z</time>
      </trkpt>
      <trkpt lat="49.00582" lon="7.80479">
        <ele>209.8</ele>
        <time>2022-05-01T10:00:28Z</time>
      </trkpt>
      <trkpt lat="49.00585" lon="7.8048">
        <ele>210</ele>
        <time>2022-05-01T10:00:29Z</time>
      </trkpt>
      <trkpt lat="49.00589" lon="7.80482">
        <ele>210.2</ele>
        <time>2022-05-01T10:00:30Z</time>
      </trkpt>
      <trkpt lat="49.00593" lon="7.80483">
        <ele>210.4</ele>
        <time>2022-05-01T10:00:31Z</time>
      </trkpt>
      <trkpt lat="49.00596" lon="7.80485">
        <ele>210.6</ele>
        <time>2022-05-01T10:00:32Z</time>
      </trkpt>
      <trkpt lat="49.00599" lon="7.80487">
        <ele>210.8</ele>
        <time>2022-05-01T10:00:33Z</time>
      </trkpt>
      <trkpt lat="49.00601" lon="7.80489">
        <ele>211</ele>
        <time>2022-05-01T10:00:34Z</time>
      </trkpt>
      <trkpt lat="49.00604" lon="7.80489">
        <ele>211.4</ele>
        <time>2022-05-01T10:00:35Z</time>
      </trkpt>
      <trkpt lat="49.00606" lon="7.80489">
        <ele>211.6</ele>
        <time>2022-05-01T10:00:36Z</time>
      </trkpt>
      <trkpt lat="49.00607" lon="7.80491">
        <ele>211.8</ele>
        <time>2022-05-01T10:00:37Z</time>
      </trkpt>
      <trkpt lat="49.00608" lon="7.80491">
        <ele>212</ele>
        <time>2022-05-01T10:00:38Z</time>
      </trkpt>
      <trkpt lat="49.0061" lon="7.80493">
        <ele>212.2</ele>
        <time>2022-05-01T10:00:39Z</time>
      </trkpt>
      <trkpt lat="49.00612" lon="7.80494">
        <ele>212.4</ele>
        <time>2022-05-01T10:00:40Z</time>
      </trkpt>
      <trkpt lat="49.00614" lon="7.80495">
        <ele>212.8</ele>
        <time>2022-05-01T10:00:41Z</time>
      </trkpt>
      <trkpt lat="49.00616" lon="7.80496">
        <ele>213</ele>
        <time>2022-05-01T10:00:42Z</time>
      </trkpt>
      <trkpt lat="49.00618" lon="7.80497">
        <ele>213.2</ele>
        <time>2022-05-01T10:00:43Z</time>
      </trkpt>
      <trkpt lat="49.0062" lon="7.80498">
        <ele>213.4</ele>
        <time>2022-05-01T10:00:44Z</time>
      </trkpt>
      <trkpt lat="49.00622" lon="7.80498">
        <ele>213.6</ele>
        <time>2022-05-01T10:00:45Z</time>
      </trkpt>
      <trkpt lat="49.00623" lon="7.80499">
        <ele>213.8</ele>
        <time>2022-05-01T10:00:46Z</time>
      </trkpt>
      <trkpt lat="49.00625" lon="7.805">
        <ele>213.8</ele>
        <time>2022-05-01T10:00:47Z</time>
      </trkpt>
      <trkpt lat="49.00627" lon="7.80501">
        <ele>214.2</ele>
        <time>2022-05-01T10:00:48Z</time>
      </trkpt>
      <trkpt lat="49.00629" lon="7.80503">
        <ele>214.4</ele>
        <time>2022-05-01T10:00:49Z</time>
      </trkpt>
      <trkpt lat="49.00631" lon="7.80505">
        <ele>214.6</ele>
        <time>2022-05-01T10:00:50Z</time>
      </trkpt>
      <trkpt lat="49.00633" lon="7.80505">
        <ele>214.8</ele>
        <time>2022-05-01T10:00:51Z</time>
      </trkpt>
      <trkpt lat="49.00636" lon="7.80506">
        <ele>215</ele>
        <time>2022-05-01T10:00:52Z</time>
      </trkpt>
      <trkpt lat="49.00639" lon="7.80507">
        <ele>215.4</ele>
        <time>2022-05-01T10:00:53Z</time>
      </trkpt>
      <trkpt lat="49.00643" lon="7.80509">
        <ele>215.6</ele>
        <time>2022-05-01T10:00:54Z</time>
      </trkpt>
      <trkpt lat="49.00646" lon="7.8051">
        <ele>215.8</ele>
        <time>2022-05-01T10:00:55Z</time>
      </trkpt>
      <trkpt lat="49.00649" lon="7.80512">
        <ele>216</ele>
        <time>2022-05-01T10:00:56Z</time>
      </trkpt>
      <trkpt lat="49.00653" lon="7.80513">
        <ele>216.2</ele>
        <time>2022-05-01T10:00:57Z</time>
      </trkpt>
      <trkpt lat="49.00657" lon="7.80515">
        <ele>216.6</ele>
        <time>2022-05-01T10:00:58Z</time>
      </trkpt>
      <trkpt lat="49.0066" lon="7.80517">
        <ele>216.8</ele>
        <time>2022-05-01T10:00:59Z</time>
      </trkpt>
      <trkpt lat="49.00662" lon="7.8052">
        <ele>217</ele>
        <time>2022-05-01T10:01:00Z</time>
      </trkpt>
      <trkpt lat="49.00666" lon="7.80522">
        <ele>217.2</ele>
        <time>2022-05-01T10:01:01Z</time>
      </trkpt>
      <trkpt lat="49.00668" lon="7.80525">
        <ele>217.2</ele>
        <time>2022-05-01T10:01:02Z</time>
      </trkpt>
      <trkpt lat="49.0067" lon="7.80528">
        <ele>217.4</ele>
        <time>2022-05-01T10:01:03Z</time>
      </trkpt>
      <trkpt lat="49.00671" lon="7.80531">
        <ele>217.8</ele>
        <time>2022-05-01T10:01:04Z</time>
      </trkpt>
      <trkpt lat="49.00673" lon="7.80533">
        <ele>218</ele>
        <time>2022-05-01T10:01:05Z</time>
      </trkpt>
      <trkpt lat="49.00674" lon="7.80534">
        <ele>218.2</ele>
        <time>2022-05-01T10:01:06Z</time>
      </trkpt>
      <trkpt lat="49.00675" lon="7.80535">
        <ele>218.4</ele>
        <time>2022-05-01T10:01:07Z</time>
      </trkpt>
      <trkpt lat="49.00678" lon="7.80537">
        <ele>218.8</ele>
        <time>2022-05-01T10:01:08Z</time>
      </trkpt>
      <trkpt lat="49.00679" lon="7.80539">
        <ele>218.8</ele>
        <time>2022-05-01T10:01:09Z</time>
      </trkpt>
      <trkpt lat="49.00681" lon="7.8054">
        <ele>219.2</ele>
        <time>2022-05-01T10:01:10Z</time>
      </trkpt>
      <trkpt lat="49.00682" lon="7.80542">
        <ele>219.4</ele>
        <time>2022-05-01T10:01:11Z</time>
      </trkpt>
      <trkpt lat="49.00684" lon="7.80543">
        <ele>219.6</ele>
        <time>2022-05-01T10:01:12Z</time>
      </trkpt>
      <trkpt lat="49.00686" lon="7.80544">
        <ele>219.8</ele>
        <time>2022-05-01T10:01:13Z</time>
      </trkpt>
      <trkpt lat="49.00688" lon="7.80546">
        <ele>220</ele>
        <time>2022-05-01T10:01:14Z</time>
      </trkpt>
      <trkpt lat="49.00689" lon="7.80548">
        <ele>220</ele>
        <time>2022-05-01T10:01:15Z</time>
      </trkpt>
      <trkpt lat="49.00691" lon="7.80549">
        <ele>220.2</ele>
        <time>2022-05-01T10:01:16Z</time>
      </trkpt>
      <trkpt lat="49.00693" lon="7.80551">
        <ele>220.4</ele>
        <time>2022-05-01T10:01:17Z</time>
      </trkpt>
      <trkpt lat="49.00694" lon="7.80552">
        <ele>220.4</ele>
        <time>2022-05-01T10:01:18Z</time>
      </trkpt>
      <trkpt lat="49.00696" lon="7.80552">
        <ele>220.6</ele>
        <time>2022-05-01T10:01:19Z</time>
      </trkpt>
      <trkpt lat="49.00697" lon="7.80553">
        <ele>221</ele>
        <time>2022-05-01T10:01:20Z</time>
      </trkpt>
      <trkpt lat="49.00698" lon="7.80554">
        <ele>221</ele>
        <time>2022-05-01T10:01:21Z</time>
      </trkpt>
      <trkpt lat="49.00699" lon="7.80555">
        <ele>221.2</ele>
        <time>2022-05-01T10:01:22Z</time>
      </trkpt>
      <trkpt lat="49.00699" lon="7.80556">
        <ele>221.4</ele>
        <time>2022-05-01T10:01:23Z</time>
      </trkpt>
      <trkpt lat="49.007" lon="7.80557">
        <ele>221.4</ele>
        <time>2022-05-01T10:01:24Z</time>
      </trkpt>
      <trkpt lat="49.00702" lon="7.80558">
        <ele>221.8</ele>
        <time>2022-05-01T10:01:25Z</time>
      </trkpt>
      <trkpt lat="49.00704" lon="7.80559">
        <ele>222</ele>
        <time>2022-05-01T10:01:26Z</time>
      </trkpt>
      <trkpt lat="49.00705" lon="7.8056">
        <ele>222.2</ele>
        <time>2022-05-01T10:01:27Z</time>
      </trkpt>
      <trkpt lat="49.00707" lon="7.8056">
        <ele>222.4</ele>
        <time>2022-05-01T10:01:28Z</time>
      </trkpt>
      <trkpt lat="49.00708" lon="7.80561">
        <ele>222.4</ele>
        <time>2022-05-01T10:01:29Z</time>
      </trkpt>
      <trkpt lat="49.00709" lon="7.80562">
        <ele>222.6</ele>
        <time>2022-05-01T10:01:30Z</time>
      </trkpt>
      <trkpt lat="49.00711" lon="7.80564">
        <ele>222.8</ele>
        <time>2022-05-01T10:01:31Z</time>
      </trkpt>
      <trkpt lat="49.00713" lon="7.80565">
        <ele>223</ele>
        <time>2022-05-01T10:01:32Z</time>
      </trkpt>
      <trkpt lat="49.00715" lon="7.80566">
        <ele>223</ele>
        <time>2022-05-01T10:01:33Z</time>
      </trkpt>
      <trkpt lat="49.00716" lon="7.80568">
        <ele>223.2</ele>
        <time>2022-05-01T10:01:34Z</time>
      </trkpt>
      <trkpt lat="49.00717" lon="7.80569">
        <ele>223.4</ele>
        <time>2022-05-01T10:01:35Z</time>
      </trkpt>
      <trkpt lat="49.00718" lon="7.8057">
        <ele>223.4</ele>
        <time>2022-05-01T10:01:36Z</time>
      </trkpt>
      <trkpt lat="49.00719" lon="7.80571">
        <ele>223.6</ele>
        <time>2022-05-01T10:01:37Z</time>
      </trkpt>
      <trkpt lat="49.00721" lon="7.80573">
        <ele>223.6</ele>
        <time>2022-05-01T10:01:38Z</time>
      </trkpt>
      <trkpt lat="49.00725" lon="7.80575">
        <ele>223.8</ele>
        <time>2022-05-01T10:01:39Z</time>
      </trkpt>
      <trkpt lat="49.00728" lon="7.80577">
        <ele>224</ele>
        <time>2022-05-01T10:01:40Z</time>
      </trkpt>
      <trkpt lat="49.0073" lon="7.80579">
        <ele>224.2</ele>
        <time>2022-05-01T10:01:41Z</time>
      </trkpt>
      <trkpt lat="49.00731" lon="7.80582">
        <ele>224.2</ele>
        <time>2022-05-01T10:01:42Z</time>
      </trkpt>
      <trkpt lat="49.00734" lon="7.80584">
        <ele>224.4</ele>
        <time>2022-05-01T10:01:43Z</time>
      </trkpt>
      <trkpt lat="49.00737" lon="7.80585">
        <ele>224.6</ele>
        <time>2022-05-01T10:01:44Z</time>
      </trkpt>
      <trkpt lat="49.00741" lon="7.80586">
        <ele>224.8</ele>
        <time>2022-05-01T10:01:45Z</time>
      </trkpt>
      <trkpt lat="49.00745" lon="7.80588">
        <ele>224.8</ele>
        <time>2022-05-01T10:01:46Z</time>
      </trkpt>
      <trkpt lat="49.00746" lon="7.80589">
        <ele>225</ele>
        <time>2022-05-01T10:01:47Z</time>
      </trkpt>
      <trkpt lat="49.00747" lon="7.8059">
        <ele>225.2</ele>
        <time>2022-05-01T10:01:48Z</time>
      </trkpt>
      <trkpt lat="49.00749" lon="7.80593">
        <ele>225.4</ele>
        <time>2022-05-01T10:01:49Z</time>
      </trkpt>
      <trkpt lat="49.00752" lon="7.80595">
        <ele>225.4</ele>
        <time>2022-05-01T10:01:50Z</time>
      </trkpt>
      <trkpt lat="49.00755" lon="7.80596">
        <ele>225.6</ele>
        <time>2022-05-01T10:01:51Z</time>
      </trkpt>
      <trkpt lat="49.00756" lon="7.80598">
        <ele>225.8</ele>
        <time>2022-05-01T10:01:52Z</time>
      </trkpt>
      <trkpt lat="49.00758" lon="7.80599">
        <ele>226</ele>
        <time>2022-05-01T10:01:53Z</time>
      </trkpt>
      <trkpt lat="49.00761" lon="7.80601">
        <ele>226.2</ele>
        <time>2022-05-01T10:01:54Z</time>
      </trkpt>
      <trkpt lat="49.00764" lon="7.80604">
        <ele>226.4</ele>
        <time>2022-05-01T10:01:55Z</time>
      </trkpt>
      <trkpt lat="49.00766" lon="7.80606">
        <ele>226.6</ele>
        <time>2022-05-01T10:01:56Z</time>
      </trkpt>
      <trkpt lat="49.0077" lon="7.80609">
        <ele>226.8</ele>
        <time>2022-05-01T10:01:57Z</time>
      </trkpt>
      <trkpt lat="49.00773" lon="7.80611">
        <ele>227</ele>
        <time>2022-05-01T10:01:58Z</time>
      </trkpt>
      <trkpt lat="49.00775" lon="7.80614">
        <ele>227</ele>
        <time>2022-05-01T10:01:59Z</time>
      </trkpt>
      <trkpt lat="49.00777" lon="7.80616">
        <ele>227</ele>
        <time>2022-05-01T10:02:00Z</time>
      </trkpt>
      <trkpt lat="49.0078" lon="7.80619">
        <ele>227.2</ele>
        <time>2022-05-01T10:02:01Z</time>
      </trkpt>
      <trkpt lat="49.00783" lon="7.80621">
        <ele>227.2</ele>
        <time>2022-05-01T10:02:02Z</time>
      </trkpt>
      <trkpt lat="49.00785" lon="7.80623">
        <ele>227.4</ele>
        <time>2022-05-01T10:02:03Z</time>
      </trkpt>
      <trkpt lat="49.00787" lon="7.80625">
        <ele>227.6</ele>
        <time>2022-05-01T10:02:04Z</time>
      </trkpt>
      <trkpt lat="49.0079" lon="7.80627">
        <ele>227.8</ele>
        <time>2022-05-01T10:02:05Z</time>
      </trkpt>
      <trkpt lat="49.00795" lon="7.8063">
        <ele>227.8</ele>
        <time>2022-05-01T10:02:06Z</time>
      </trkpt>
      <trkpt lat="49.00799" lon="7.80631">
        <ele>228</ele>
        <time>2022-05-01T10:02:07Z</time>
      </trkpt>
      <trkpt lat="49.00801" lon="7.80633">
        <ele>228</ele>
        <time>2022-05-01T10:02:08Z</time>
      </trkpt>
      <trkpt lat="49.00805" lon="7.80635">
        <ele>228.2</ele>
        <time>2022-05-01T10:02:09Z</time>
      </trkpt>
      <trkpt lat="49.00806" lon="7.80639">
        <ele>228.2</ele>
        <time>2022-05-01T10:02:10Z</time>
      </trkpt>
      <trkpt lat="49.00808" lon="7.80641">
        <ele>228.6</ele>
        <time>2022-05-01T10:02:11Z</time>
      </trkpt>
      <trkpt lat="49.0081" lon="7.80642">
        <ele>228.6</ele>
        <time>2022-05-01T10:02:12Z</time>
      </trkpt>
      <trkpt lat="49.00812" lon="7.80643">
        <ele>228.8</ele>
        <time>2022-05-01T10:02:13Z</time>
      </trkpt>
      <trkpt lat="49.00814" lon="7.80646">
        <ele>228.8</ele>
        <time>2022-05-01T10:02:14Z</time>
      </trkpt>
      <trkpt lat="49.00816" lon="7.80648">
        <ele>229</ele>
        <time>2022-05-01T10:02:15Z</time>
      </trkpt>
      <trkpt lat="49.00817" lon="7.80649">
        <ele>229</ele>
        <time>2022-05-01T10:02:16Z</time>
      </trkpt>
      <trkpt lat="49.0082" lon="7.80651">
        <ele>229</ele>
        <time>2022-05-01T10:02:17Z</time>
      </trkpt>
      <trkpt lat="49.00822" lon="7.80652">
        <ele>229</ele>
        <time>2022-05-01T10:02:18Z</time>
      </trkpt>
      <trkpt lat="49.00827" lon="7.80655">
        <ele>229.2</ele>
        <time>2022-05-01T10:02:19Z</time>
      </trkpt>
      <trkpt lat="49.0083" lon="7.80657">
        <ele>229.2</ele>
        <time>2022-05-01T10:02:20Z</time>
      </trkpt>
      <trkpt lat="49.00833" lon="7.80659">
        <ele>229.2</ele>
        <time>2022-05-01T10:02:21Z</time>
      </trkpt>
      <trkpt lat="49.00835" lon="7.80661">
        <ele>229.4</ele>
        <time>2022-05-01T10:02:22Z</time>
      </trkpt>
      <trkpt lat="49.00837" lon="7.80664">
        <ele>229.4</ele>
        <time>2022-05-01T10:02:23Z</time>
      </trkpt>
      <trkpt lat="49.00839" lon="7.80666">
        <ele>229.4</ele>
        <time>2022-05-01T10:02:24Z</time>
      </trkpt>
      <trkpt lat="49.00842" lon="7.80669">
        <ele>229.4</ele>
        <time>2022-05-01T10:02:25Z</time>
      </trkpt>
      <trkpt lat="49.00845" lon="7.80672">
        <ele>229.6</ele>
        <time>2022-05-01T10:02:26Z</time>
      </trkpt>
      <trkpt lat="49.00848" lon="7.80675">
        <ele>229.6</ele>
        <time>2022-05-01T10:02:27Z</time>
      </trkpt>
      <trkpt lat="49.00853" lon="7.80679">
        <ele>229.6</ele>
        <time>2022-05-01T10:02:28Z</time>
      </trkpt>
      <trkpt lat="49.00856" lon="7.80682">
        <ele>229.6</ele>
        <time>2022-05-01T10:02:29Z</time>
      </trkpt>
      <trkpt lat="49.00869" lon="7.80691">
        <ele>229.6</ele>
        <time>2022-05-01T10:02:32Z</time>
      </trkpt>
      <trkpt lat="49.00877" lon="7.80697">
        <ele>229.6</ele>
        <time>2022-05-01T10:02:34Z</time>
      </trkpt>
      <trkpt lat="49.00882" lon="7.807">
        <ele>229.6</ele>
        <time>2022-05-01T10:02:35Z</time>
      </trkpt>
      <trkpt lat="49.00894" lon="7.8071">
        <ele>229.8</ele>
        <time>2022-05-01T10:02:38Z</time>
      </trkpt>
      <trkpt lat="49.00902" lon="7.80712">
        <ele>229.8</ele>
        <time>2022-05-01T10:02:40Z</time>
      </trkpt>
      <trkpt lat="49.00906" lon="7.80712">
        <ele>229.8</ele>
        <time>2022-05-01T10:02:41Z</time>
      </trkpt>
      <trkpt lat="49.00911" lon="7.80712">
        <ele>229.8</ele>
        <time>2022-05-01T10:02:42Z</time>
      </trkpt>
      <trkpt lat="49.00915" lon="7.80711">
        <ele>229.8</ele>
        <time>2022-05-01T10:02:43Z</time>
      </trkpt>
      <trkpt lat="49.00943" lon="7.80705">
        <ele>229.6</ele>
        <time>2022-05-01T10:02:49Z</time>
      </trkpt>
      <trkpt lat="49.00968" lon="7.80703">
        <ele>229</ele>
        <time>2022-05-01T10:02:54Z</time>
      </trkpt>
      <trkpt lat="49.00972" lon="7.80703">
        <ele>229</ele>
        <time>2022-05-01T10:02:55Z</time>
      </trkpt>
      <trkpt lat="49.00976" lon="7.80704">
        <ele>228.8</ele>
        <time>2022-05-01T10:02:56Z</time>
      </trkpt>
      <trkpt lat="49.00992" lon="7.80711">
        <ele>228.2</ele>
        <time>2022-05-01T10:02:59Z</time>
      </trkpt>
      <trkpt lat="49.00995" lon="7.80714">
        <ele>228.2</ele>
        <time>2022-05-01T10:03:00Z</time>
      </trkpt>
      <trkpt lat="49.01" lon="7.80718">
        <ele>228.2</ele>
        <time>2022-05-01T10:03:01Z</time>
      </trkpt>
      <trkpt lat="49.01006" lon="7.80724">
        <ele>228</ele>
        <time>2022-05-01T10:03:02Z</time>
      </trkpt>
      <trkpt lat="49.0101" lon="7.80729">
        <ele>227.8</ele>
        <time>2022-05-01T10:03:03Z</time>
      </trkpt>
      <trkpt lat="49.01015" lon="7.80732">
        <ele>227.8</ele>
        <time>2022-05-01T10:03:04Z</time>
      </trkpt>
      <trkpt lat="49.01021" lon="7.80734">
        <ele>227.6</ele>
        <time>2022-05-01T10:03:05Z</time>
      </trkpt>
      <trkpt lat="49.01033" lon="7.80733">
        <ele>227.4</ele>
        <time>2022-05-01T10:03:07Z</time>
      </trkpt>
      <trkpt lat="49.01039" lon="7.80731">
        <ele>227.2</ele>
        <time>2022-05-01T10:03:08Z</time>
      </trkpt>
      <trkpt lat="49.01044" lon="7.80728">
        <ele>227</ele>
        <time>2022-05-01T10:03:09Z</time>
      </trkpt>
      <trkpt lat="49.01049" lon="7.80725">
        <ele>226.6</ele>
        <time>2022-05-01T10:03:10Z</time>
      </trkpt>
      <trkpt lat="49.01054" lon="7.80723">
        <ele>226.4</ele>
        <time>2022-05-01T10:03:11Z</time>
      </trkpt>
      <trkpt lat="49.01069" lon="7.80713">
        <ele>225.6</ele>
        <time>2022-05-01T10:03:14Z</time>
      </trkpt>
      <trkpt lat="49.01073" lon="7.8071">
        <ele>225</ele>
        <time>2022-05-01T10:03:15Z</time>
      </trkpt>
      <trkpt lat="49.01078" lon="7.80709">
        <ele>224.8</ele>
        <time>2022-05-01T10:03:16Z</time>
      </trkpt>
      <trkpt lat="49.01086" lon="7.80713">
        <ele>224.8</ele>
        <time>2022-05-01T10:03:17Z</time>
      </trkpt>
      <trkpt lat="49.01089" lon="7.80718">
        <ele>224.6</ele>
        <time>2022-05-01T10:03:18Z</time>
      </trkpt>
      <trkpt lat="49.01092" lon="7.80721">
        <ele>224.6</ele>
        <time>2022-05-01T10:03:19Z</time>
      </trkpt>
      <trkpt lat="49.01095" lon="7.80724">
        <ele>224.6</ele>
        <time>2022-05-01T10:03:20Z</time>
      </trkpt>
      <trkpt lat="49.01098" lon="7.80727">
        <ele>224.6</ele>
        <time>2022-05-01T10:03:21Z</time>
      </trkpt>
      <trkpt lat="49.011" lon="7.80729">
        <ele>224.6</ele>
        <time>2022-05-01T10:03:22Z</time>
      </trkpt>
      <trkpt lat="49.01103" lon="7.80731">
        <ele>224.6</ele>
        <time>2022-05-01T10:03:23Z</time>
      </trkpt>
      <trkpt lat="49.01106" lon="7.80733">
        <ele>224.6</ele>
        <time>2022-05-01T10:03:24Z</time>
      </trkpt>
      <trkpt lat="49.01109" lon="7.80737">
        <ele>224.6</ele>
        <time>2022-05-01T10:03:25Z</time>
      </trkpt>
      <trkpt lat="49.01118" lon="7.80749">
        <ele>226</ele>
        <time>2022-05-01T10:03:28Z</time>
      </trkpt>
      <trkpt lat="49.01122" lon="7.80753">
        <ele>226.4</ele>
        <time>2022-05-01T10:03:29Z</time>
      </trkpt>
      <trkpt lat="49.01126" lon="7.80756">
        <ele>226.8</ele>
        <time>2022-05-01T10:03:30Z</time>
      </trkpt>
      <trkpt lat="49.01129" lon="7.8076">
        <ele>227.2</ele>
        <time>2022-05-01T10:03:31Z</time>
      </trkpt>
      <trkpt lat="49.01131" lon="7.80765">
        <ele>227.6</ele>
        <time>2022-05-01T10:03:32Z</time>
      </trkpt>
      <trkpt lat="49.01137" lon="7.80773">
        <ele>228</ele>
        <time>2022-05-01T10:03:34Z</time>
      </trkpt>
      <trkpt lat="49.0114" lon="7.80777">
        <ele>228.2</ele>
        <time>2022-05-01T10:03:35Z</time>
      </trkpt>
      <trkpt lat="49.01144" lon="7.80782">
        <ele>228.2</ele>
        <time>2022-05-01T10:03:36Z</time>
      </trkpt>
      <trkpt lat="49.01152" lon="7.80797">
        <ele>228.8</ele>
        <time>2022-05-01T10:03:40Z</time>
      </trkpt>
      <trkpt lat="49.01154" lon="7.80799">
        <ele>229</ele>
        <time>2022-05-01T10:03:41Z</time>
      </trkpt>
      <trkpt lat="49.01155" lon="7.80801">
        <ele>229</ele>
        <time>2022-05-01T10:03:42Z</time>
      </trkpt>
      <trkpt lat="49.01156" lon="7.80804">
        <ele>229</ele>
        <time>2022-05-01T10:03:43Z</time>
      </trkpt>
      <trkpt lat="49.01159" lon="7.80806">
        <ele>229.2</ele>
        <time>2022-05-01T10:03:44Z</time>
      </trkpt>
      <trkpt lat="49.01161" lon="7.80808">
        <ele>229.2</ele>
        <time>2022-05-01T10:03:45Z</time>
      </trkpt>
      <trkpt lat="49.01162" lon="7.80812">
        <ele>229.2</ele>
        <time>2022-05-01T10:03:46Z</time>
      </trkpt>
      <trkpt lat="49.01164" lon="7.80814">
        <ele>229.2</ele>
        <time>2022-05-01T10:03:47Z</time>
      </trkpt>
      <trkpt lat="49.01167" lon="7.80818">
        <ele>229.4</ele>
        <time>2022-05-01T10:03:48Z</time>
      </trkpt>
      <trkpt lat="49.01168" lon="7.80822">
        <ele>229.6</ele>
        <time>2022-05-01T10:03:49Z</time>
      </trkpt>
      <trkpt lat="49.01172" lon="7.80826">
        <ele>229.8</ele>
        <time>2022-05-01T10:03:50Z</time>
      </trkpt>
      <trkpt lat="49.01177" lon="7.8083">
        <ele>229.8</ele>
        <time>2022-05-01T10:03:51Z</time>
      </trkpt>
      <trkpt lat="49.01187" lon="7.80836">
        <ele>229.8</ele>
        <time>2022-05-01T10:03:52Z</time>
      </trkpt>
      <trkpt lat="49.0119" lon="7.8084">
        <ele>230</ele>
        <time>2022-05-01T10:03:53Z</time>
      </trkpt>
      <trkpt lat="49.01193" lon="7.80841">
        <ele>230.2</ele>
        <time>2022-05-01T10:03:54Z</time>
      </trkpt>
      <trkpt lat="49.01193" lon="7.80843">
        <ele>230.2</ele>
        <time>2022-05-01T10:03:55Z</time>
      </trkpt>
      <trkpt lat="49.01193" lon="7.80845">
        <ele>230.4</ele>
        <time>2022-05-01T10:03:56Z</time>
      </trkpt>
      <trkpt lat="49.01194" lon="7.80847">
        <ele>230.4</ele>
        <time>2022-05-01T10:03:57Z</time>
      </trkpt>
      <trkpt lat="49.01196" lon="7.80849">
        <ele>230.6</ele>
        <time>2022-05-01T10:03:58Z</time>
      </trkpt>
      <trkpt lat="49.01204" lon="7.80854">
        <ele>230.6</ele>
        <time>2022-05-01T10:03:59Z</time>
      </trkpt>
      <trkpt lat="49.01209" lon="7.80858">
        <ele>230.6</ele>
        <time>2022-05-01T10:04:00Z</time>
      </trkpt>
      <trkpt lat="49.01212" lon="7.8086">
        <ele>230.8</ele>
        <time>2022-05-01T10:04:01Z</time>
      </trkpt>
      <trkpt lat="49.01215" lon="7.80862">
        <ele>231</ele>
        <time>2022-05-01T10:04:02Z</time>
      </trkpt>
      <trkpt lat="49.01215" lon="7.80866">
        <ele>231</ele>
        <time>2022-05-01T10:04:03Z</time>
      </trkpt>
      <trkpt lat="49.01217" lon="7.80867">
        <ele>231.2</ele>
        <time>2022-05-01T10:04:04Z</time>
      </trkpt>
      <trkpt lat="49.01218" lon="7.8087">
        <ele>231.4</ele>
        <time>2022-05-01T10:04:05Z</time>
      </trkpt>
      <trkpt lat="49.01222" lon="7.80872">
        <ele>231.4</ele>
        <time>2022-05-01T10:04:06Z</time>
      </trkpt>
      <trkpt lat="49.01228" lon="7.80875">
        <ele>231.4</ele>
        <time>2022-05-01T10:04:07Z</time>
      </trkpt>
      <trkpt lat="49.01231" lon="7.80879">
        <ele>231.6</ele>
        <time>2022-05-01T10:04:08Z</time>
      </trkpt>
      <trkpt lat="49.01233" lon="7.80882">
        <ele>231.8</ele>
        <time>2022-05-01T10:04:09Z</time>
      </trkpt>
      <trkpt lat="49.01236" lon="7.80884">
        <ele>231.8</ele>
        <time>2022-05-01T10:04:10Z</time>
      </trkpt>
      <trkpt lat="49.0124" lon="7.80886">
        <ele>231.8</ele>
        <time>2022-05-01T10:04:11Z</time>
      </trkpt>
      <trkpt lat="49.01243" lon="7.80888">
        <ele>232</ele>
        <time>2022-05-01T10:04:12Z</time>
      </trkpt>
      <trkpt lat="49.01245" lon="7.8089">
        <ele>232</ele>
        <time>2022-05-01T10:04:13Z</time>
      </trkpt>
      <trkpt lat="49.01247" lon="7.80891">
        <ele>232</ele>
        <time>2022-05-01T10:04:14Z</time>
      </trkpt>
      <trkpt lat="49.01249" lon="7.80893">
        <ele>232.2</ele>
        <time>2022-05-01T10:04:15Z</time>
      </trkpt>
      <trkpt lat="49.0125" lon="7.80894">
        <ele>232.4</ele>
        <time>2022-05-01T10:04:16Z</time>
      </trkpt>
      <trkpt lat="49.01251" lon="7.80895">
        <ele>232.6</ele>
        <time>2022-05-01T10:04:17Z</time>
      </trkpt>
      <trkpt lat="49.01252" lon="7.80898">
        <ele>232.6</ele>
        <time>2022-05-01T10:04:18Z</time>
      </trkpt>
      <trkpt lat="49.01254" lon="7.80901">
        <ele>232.6</ele>
        <time>2022-05-01T10:04:19Z</time>
      </trkpt>
      <trkpt lat="49.01255" lon="7.80904">
        <ele>232.8</ele>
        <time>2022-05-01T10:04:20Z</time>
      </trkpt>
      <trkpt lat="49.01257" lon="7.80906">
        <ele>232.8</ele>
        <time>2022-05-01T10:04:21Z</time>
      </trkpt>
      <trkpt lat="49.0126" lon="7.80909">
        <ele>232.8</ele>
        <time>2022-05-01T10:04:22Z</time>
      </trkpt>
      <trkpt lat="49.01263" lon="7.80911">
        <ele>232.8</ele>
        <time>2022-05-01T10:04:23Z</time>
      </trkpt>
      <trkpt lat="49.01265" lon="7.80913">
        <ele>233</ele>
        <time>2022-05-01T10:04:24Z</time>
      </trkpt>
      <trkpt lat="49.01267" lon="7.80914">
        <ele>233</ele>
        <time>2022-05-01T10:04:25Z</time>
      </trkpt>
      <trkpt lat="49.01269" lon="7.80915">
        <ele>233.2</ele>
        <time>2022-05-01T10:04:26Z</time>
      </trkpt>
      <trkpt lat="49.0127" lon="7.80918">
        <ele>233.2</ele>
        <time>2022-05-01T10:04:27Z</time>
      </trkpt>
      <trkpt lat="49.01272" lon="7.80922">
        <ele>233.4</ele>
        <time>2022-05-01T10:04:28Z</time>
      </trkpt>
      <trkpt lat="49.01275" lon="7.80924">
        <ele>233.4</ele>
        <time>2022-05-01T10:04:29Z</time>
      </trkpt>
      <trkpt lat="49.01277" lon="7.80925">
        <ele>233.4</ele>
        <time>2022-05-01T10:04:30Z</time>
      </trkpt>
      <trkpt lat="49.0128" lon="7.80928">
        <ele>233.6</ele>
        <time>2022-05-01T10:04:31Z</time>
      </trkpt>
      <trkpt lat="49.01282" lon="7.80929">
        <ele>233.8</ele>
        <time>2022-05-01T10:04:32Z</time>
      </trkpt>
      <trkpt lat="49.01286" lon="7.80931">
        <ele>233.8</ele>
        <time>2022-05-01T10:04:33Z</time>
      </trkpt>
      <trkpt lat="49.0129" lon="7.80934">
        <ele>233.8</ele>
        <time>2022-05-01T10:04:34Z</time>
      </trkpt>
      <trkpt lat="49.01293" lon="7.80937">
        <ele>234</ele>
        <time>2022-05-01T10:04:35Z</time>
      </trkpt>
      <trkpt lat="49.01297" lon="7.8094">
        <ele>234.2</ele>
        <time>2022-05-01T10:04:36Z</time>
      </trkpt>
      <trkpt lat="49.01301" lon="7.80943">
        <ele>234.2</ele>
        <time>2022-05-01T10:04:37Z</time>
      </trkpt>
      <trkpt lat="49.01306" lon="7.80946">
        <ele>234.4</ele>
        <time>2022-05-01T10:04:38Z</time>
      </trkpt>
      <trkpt lat="49.0132" lon="7.80955">
        <ele>235</ele>
        <time>2022-05-01T10:04:41Z</time>
      </trkpt>
      <trkpt lat="49.01327" lon="7.80961">
        <ele>235.2</ele>
        <time>2022-05-01T10:04:43Z</time>
      </trkpt>
      <trkpt lat="49.01329" lon="7.80964">
        <ele>235.4</ele>
        <time>2022-05-01T10:04:44Z</time>
      </trkpt>
      <trkpt lat="49.01332" lon="7.80967">
        <ele>235.6</ele>
        <time>2022-05-01T10:04:45Z</time>
      </trkpt>
      <trkpt lat="49.01335" lon="7.8097">
        <ele>235.6</ele>
        <time>2022-05-01T10:04:46Z</time>
      </trkpt>
      <trkpt lat="49.0134" lon="7.80975">
        <ele>235.6</ele>
        <time>2022-05-01T10:04:47Z</time>
      </trkpt>
      <trkpt lat="49.01345" lon="7.80978">
        <ele>235.8</ele>
        <time>2022-05-01T10:04:48Z</time>
      </trkpt>
      <trkpt lat="49.01347" lon="7.80982">
        <ele>235.8</ele>
        <time>2022-05-01T10:04:49Z</time>
      </trkpt>
      <trkpt lat="49.01348" lon="7.80984">
        <ele>235.8</ele>
        <time>2022-05-01T10:04:50Z</time>
      </trkpt>
      <trkpt lat="49.0135" lon="7.80986">
        <ele>235.8</ele>
        <time>2022-05-01T10:04:51Z</time>
      </trkpt>
      <trkpt lat="49.01351" lon="7.80987">
        <ele>236</ele>
        <time>2022-05-01T10:04:52Z</time>
      </trkpt>
      <trkpt lat="49.01353" lon="7.80989">
        <ele>236</ele>
        <time>2022-05-01T10:04:53Z</time>
      </trkpt>
      <trkpt lat="49.01357" lon="7.80993">
        <ele>236.2</ele>
        <time>2022-05-01T10:04:54Z</time>
      </trkpt>
      <trkpt lat="49.0136" lon="7.80997">
        <ele>236.2</ele>
        <time>2022-05-01T10:04:55Z</time>
      </trkpt>
      <trkpt lat="49.01363" lon="7.81001">
        <ele>236.4</ele>
        <time>2022-05-01T10:04:56Z</time>
      </trkpt>
      <trkpt lat="49.01366" lon="7.81004">
        <ele>236.4</ele>
        <time>2022-05-01T10:04:57Z</time>
      </trkpt>
      <trkpt lat="49.0137" lon="7.81008">
        <ele>236.6</ele>
        <time>2022-05-01T10:04:58Z</time>
      </trkpt>
      <trkpt lat="49.01372" lon="7.81011">
        <ele>236.8</ele>
        <time>2022-05-01T10:04:59Z</time>
      </trkpt>
      <trkpt lat="49.01374" lon="7.81016">
        <ele>236.8</ele>
        <time>2022-05-01T10:05:00Z</time>
      </trkpt>
      <trkpt lat="49.01377" lon="7.81021">
        <ele>237</ele>
        <time>2022-05-01T10:05:01Z</time>
      </trkpt>
      <trkpt lat="49.01379" lon="7.81027">
        <ele>237</ele>
        <time>2022-05-01T10:05:02Z</time>
      </trkpt>
      <trkpt lat="49.01383" lon="7.81031">
        <ele>237.2</ele>
        <time>2022-05-01T10:05:03Z</time>
      </trkpt>
      <trkpt lat="49.01384" lon="7.81037">
        <ele>237.2</ele>
        <time>2022-05-01T10:05:04Z</time>
      </trkpt>
      <trkpt lat="49.01383" lon="7.81043">
        <ele>237.2</ele>
        <time>2022-05-01T10:05:05Z</time>
      </trkpt>
      <trkpt lat="49.01382" lon="7.81047">
        <ele>237.4</ele>
        <time>2022-05-01T10:05:06Z</time>
      </trkpt>
      <trkpt lat="49.01379" lon="7.81052">
        <ele>237.4</ele>
        <time>2022-05-01T10:05:07Z</time>
      </trkpt>
      <trkpt lat="49.01379" lon="7.81058">
        <ele>237.4</ele>
        <time>2022-05-01T10:05:08Z</time>
      </trkpt>
      <trkpt lat="49.01383" lon="7.81071">
        <ele>237.6</ele>
        <time>2022-05-01T10:05:11Z</time>
      </trkpt>
      <trkpt lat="49.01381" lon="7.8108">
        <ele>237.8</ele>
        <time>2022-05-01T10:05:13Z</time>
      </trkpt>
      <trkpt lat="49.01379" lon="7.81086">
        <ele>237.8</ele>
        <time>2022-05-01T10:05:14Z</time>
      </trkpt>
      <trkpt lat="49.01378" lon="7.81093">
        <ele>238</ele>
        <time>2022-05-01T10:05:15Z</time>
      </trkpt>
      <trkpt lat="49.01381" lon="7.81098">
        <ele>238</ele>
        <time>2022-05-01T10:05:16Z</time>
      </trkpt>
      <trkpt lat="49.01387" lon="7.81102">
        <ele>238.2</ele>
        <time>2022-05-01T10:05:17Z</time>
      </trkpt>
      <trkpt lat="49.01388" lon="7.81107">
        <ele>238.2</ele>
        <time>2022-05-01T10:05:18Z</time>
      </trkpt>
      <trkpt lat="49.01389" lon="7.81113">
        <ele>238.4</ele>
        <time>2022-05-01T10:05:19Z</time>
      </trkpt>
      <trkpt lat="49.01391" lon="7.81119">
        <ele>238.4</ele>
        <time>2022-05-01T10:05:20Z</time>
      </trkpt>
      <trkpt lat="49.01392" lon="7.81127">
        <ele>238.6</ele>
        <time>2022-05-01T10:05:22Z</time>
      </trkpt>
      <trkpt lat="49.01392" lon="7.81131">
        <ele>238.6</ele>
        <time>2022-05-01T10:05:23Z</time>
      </trkpt>
      <trkpt lat="49.01391" lon="7.81135">
        <ele>238.8</ele>
        <time>2022-05-01T10:05:24Z</time>
      </trkpt>
      <trkpt lat="49.01398" lon="7.81142">
        <ele>238.8</ele>
        <time>2022-05-01T10:05:25Z</time>
      </trkpt>
      <trkpt lat="49.01397" lon="7.81149">
        <ele>238.8</ele>
        <time>2022-05-01T10:05:26Z</time>
      </trkpt>
      <trkpt lat="49.01396" lon="7.81157">
        <ele>238.8</ele>
        <time>2022-05-01T10:05:27Z</time>
      </trkpt>
      <trkpt lat="49.01396" lon="7.81163">
        <ele>239</ele>
        <time>2022-05-01T10:05:28Z</time>
      </trkpt>
      <trkpt lat="49.01397" lon="7.81173">
        <ele>239.2</ele>
        <time>2022-05-01T10:05:30Z</time>
      </trkpt>
      <trkpt lat="49.01396" lon="7.81178">
        <ele>239.6</ele>
        <time>2022-05-01T10:05:31Z</time>
      </trkpt>
      <trkpt lat="49.01396" lon="7.81184">
        <ele>239.6</ele>
        <time>2022-05-01T10:05:32Z</time>
      </trkpt>
      <trkpt lat="49.01397" lon="7.8119">
        <ele>239.8</ele>
        <time>2022-05-01T10:05:33Z</time>
      </trkpt>
      <trkpt lat="49.01395" lon="7.812">
        <ele>240</ele>
        <time>2022-05-01T10:05:35Z</time>
      </trkpt>
      <trkpt lat="49.01402" lon="7.81205">
        <ele>240.2</ele>
        <time>2022-05-01T10:05:36Z</time>
      </trkpt>
      <trkpt lat="49.01403" lon="7.81215">
        <ele>240.4</ele>
        <time>2022-05-01T10:05:38Z</time>
      </trkpt>
      <trkpt lat="49.01406" lon="7.81224">
        <ele>240.4</ele>
        <time>2022-05-01T10:05:39Z</time>
      </trkpt>
      <trkpt lat="49.01408" lon="7.81229">
        <ele>240.6</ele>
        <time>2022-05-01T10:05:40Z</time>
      </trkpt>
      <trkpt lat="49.01408" lon="7.81234">
        <ele>240.8</ele>
        <time>2022-05-01T10:05:41Z</time>
      </trkpt>
      <trkpt lat="49.01407" lon="7.81239">
        <ele>240.8</ele>
        <time>2022-05-01T10:05:42Z</time>
      </trkpt>
      <trkpt lat="49.01407" lon="7.81244">
        <ele>241</ele>
        <time>2022-05-01T10:05:43Z</time>
      </trkpt>
      <trkpt lat="49.01405" lon="7.81249">
        <ele>241.2</ele>
        <time>2022-05-01T10:05:44Z</time>
      </trkpt>
      <trkpt lat="49.01402" lon="7.81255">
        <ele>241.2</ele>
        <time>2022-05-01T10:05:45Z</time>
      </trkpt>
      <trkpt lat="49.01401" lon="7.8126">
        <ele>241.4</ele>
        <time>2022-05-01T10:05:46Z</time>
      </trkpt>
      <trkpt lat="49.01403" lon="7.81264">
        <ele>241.4</ele>
        <time>2022-05-01T10:05:47Z</time>
      </trkpt>
      <trkpt lat="49.01408" lon="7.81269">
        <ele>241.4</ele>
        <time>2022-05-01T10:05:48Z</time>
      </trkpt>
      <trkpt lat="49.01411" lon="7.81274">
        <ele>241.4</ele>
        <time>2022-05-01T10:05:49Z</time>
      </trkpt>
      <trkpt lat="49.01412" lon="7.81279">
        <ele>241.6</ele>
        <time>2022-05-01T10:05:50Z</time>
      </trkpt>
      <trkpt lat="49.01414" lon="7.81284">
        <ele>241.6</ele>
        <time>2022-05-01T10:05:51Z</time>
      </trkpt>
      <trkpt lat="49.01415" lon="7.8129">
        <ele>241.8</ele>
        <time>2022-05-01T10:05:52Z</time>
      </trkpt>
      <trkpt lat="49.01414" lon="7.81294">
        <ele>241.8</ele>
        <time>2022-05-01T10:05:53Z</time>
      </trkpt>
      <trkpt lat="49.01412" lon="7.81299">
        <ele>242</ele>
        <time>2022-05-01T10:05:54Z</time>
      </trkpt>
      <trkpt lat="49.01412" lon="7.81304">
        <ele>242.2</ele>
        <time>2022-05-01T10:05:55Z</time>
      </trkpt>
      <trkpt lat="49.01415" lon="7.81309">
        <ele>242.2</ele>
        <time>2022-05-01T10:05:56Z</time>
      </trkpt>
      <trkpt lat="49.01418" lon="7.81314">
        <ele>242.4</ele>
        <time>2022-05-01T10:05:57Z</time>
      </trkpt>
      <trkpt lat="49.01419" lon="7.81319">
        <ele>242.4</ele>
        <time>2022-05-01T10:05:58Z</time>
      </trkpt>
      <trkpt lat="49.01421" lon="7.81323">
        <ele>242.4</ele>
        <time>2022-05-01T10:05:59Z</time>
      </trkpt>
      <trkpt lat="49.01423" lon="7.81327">
        <ele>242.6</ele>
        <time>2022-05-01T10:06:00Z</time>
      </trkpt>
      <trkpt lat="49.01425" lon="7.81331">
        <ele>242.6</ele>
        <time>2022-05-01T10:06:01Z</time>
      </trkpt>
      <trkpt lat="49.01427" lon="7.81335">
        <ele>242.8</ele>
        <time>2022-05-01T10:06:02Z</time>
      </trkpt>
      <trkpt lat="49.0143" lon="7.81339">
        <ele>242.8</ele>
        <time>2022-05-01T10:06:03Z</time>
      </trkpt>
      <trkpt lat="49.01432" lon="7.81343">
        <ele>243</ele>
        <time>2022-05-01T10:06:04Z</time>
      </trkpt>
      <trkpt lat="49.01434" lon="7.81347">
        <ele>243.2</ele>
        <time>2022-05-01T10:06:05Z</time>
      </trkpt>
      <trkpt lat="49.01436" lon="7.81351">
        <ele>243.2</ele>
        <time>2022-05-01T10:06:06Z</time>
      </trkpt>
      <trkpt lat="49.01439" lon="7.81356">
        <ele>243.4</ele>
        <time>2022-05-01T10:06:07Z</time>
      </trkpt>
      <trkpt lat="49.01441" lon="7.81361">
        <ele>243.6</ele>
        <time>2022-05-01T10:06:08Z</time>
      </trkpt>
      <trkpt lat="49.01442" lon="7.81366">
        <ele>243.6</ele>
        <time>2022-05-01T10:06:09Z</time>
      </trkpt>
      <trkpt lat="49.01444" lon="7.8137">
        <ele>243.8</ele>
        <time>2022-05-01T10:06:10Z</time>
      </trkpt>
      <trkpt lat="49.01444" lon="7.81375">
        <ele>243.8</ele>
        <time>2022-05-01T10:06:11Z</time>
      </trkpt>
      <trkpt lat="49.01445" lon="7.8138">
        <ele>243.8</ele>
        <time>2022-05-01T10:06:12Z</time>
      </trkpt>
      <trkpt lat="49.01447" lon="7.81385">
        <ele>244</ele>
        <time>2022-05-01T10:06:13Z</time>
      </trkpt>
      <trkpt lat="49.01448" lon="7.8139">
        <ele>244.2</ele>
        <time>2022-05-01T10:06:14Z</time>
      </trkpt>
      <trkpt lat="49.01449" lon="7.81396">
        <ele>244.2</ele>
        <time>2022-05-01T10:06:15Z</time>
      </trkpt>
      <trkpt lat="49.01449" lon="7.814">
        <ele>244.4</ele>
        <time>2022-05-01T10:06:16Z</time>
      </trkpt>
      <trkpt lat="49.01451" lon="7.81404">
        <ele>244.4</ele>
        <time>2022-05-01T10:06:17Z</time>
      </trkpt>
      <trkpt lat="49.01454" lon="7.8141">
        <ele>244.4</ele>
        <time>2022-05-01T10:06:18Z</time>
      </trkpt>
      <trkpt lat="49.01457" lon="7.81415">
        <ele>244.6</ele>
        <time>2022-05-01T10:06:19Z</time>
      </trkpt>
      <trkpt lat="49.0146" lon="7.8142">
        <ele>244.8</ele>
        <time>2022-05-01T10:06:20Z</time>
      </trkpt>
      <trkpt lat="49.01461" lon="7.81425">
        <ele>244.8</ele>
        <time>2022-05-01T10:06:21Z</time>
      </trkpt>
      <trkpt lat="49.01461" lon="7.81428">
        <ele>245</ele>
        <time>2022-05-01T10:06:22Z</time>
      </trkpt>
      <trkpt lat="49.01462" lon="7.81434">
        <ele>245</ele>
        <time>2022-05-01T10:06:23Z</time>
      </trkpt>
      <trkpt lat="49.01461" lon="7.81438">
        <ele>245.2</ele>
        <time>2022-05-01T10:06:24Z</time>
      </trkpt>
      <trkpt lat="49.01461" lon="7.81444">
        <ele>245.4</ele>
        <time>2022-05-01T10:06:25Z</time>
      </trkpt>
      <trkpt lat="49.01465" lon="7.81449">
        <ele>245.4</ele>
        <time>2022-05-01T10:06:26Z</time>
      </trkpt>
      <trkpt lat="49.0147" lon="7.81454">
        <ele>245.6</ele>
        <time>2022-05-01T10:06:27Z</time>
      </trkpt>
      <trkpt lat="49.01477" lon="7.81461">
        <ele>245.6</ele>
        <time>2022-05-01T10:06:28Z</time>
      </trkpt>
      <trkpt lat="49.01479" lon="7.81468">
        <ele>245.8</ele>
        <time>2022-05-01T10:06:29Z</time>
      </trkpt>
      <trkpt lat="49.0148" lon="7.81474">
        <ele>245.8</ele>
        <time>2022-05-01T10:06:30Z</time>
      </trkpt>
      <trkpt lat="49.0148" lon="7.81478">
        <ele>245.8</ele>
        <time>2022-05-01T10:06:31Z</time>
      </trkpt>
      <trkpt lat="49.01481" lon="7.81485">
        <ele>246</ele>
        <time>2022-05-01T10:06:32Z</time>
      </trkpt>
      <trkpt lat="49.01482" lon="7.81488">
        <ele>246.2</ele>
        <time>2022-05-01T10:06:33Z</time>
      </trkpt>
      <trkpt lat="49.01483" lon="7.81493">
        <ele>246.2</ele>
        <time>2022-05-01T10:06:34Z</time>
      </trkpt>
      <trkpt lat="49.01485" lon="7.81498">
        <ele>246.4</ele>
        <time>2022-05-01T10:06:35Z</time>
      </trkpt>
      <trkpt lat="49.01485" lon="7.81502">
        <ele>246.4</ele>
        <time>2022-05-01T10:06:36Z</time>
      </trkpt>
      <trkpt lat="49.01485" lon="7.81507">
        <ele>246.4</ele>
        <time>2022-05-01T10:06:37Z</time>
      </trkpt>
      <trkpt lat="49.01485" lon="7.81511">
        <ele>246.6</ele>
        <time>2022-05-01T10:06:38Z</time>
      </trkpt>
      <trkpt lat="49.01487" lon="7.81517">
        <ele>246.6</ele>
        <time>2022-05-01T10:06:39Z</time>
      </trkpt>
      <trkpt lat="49.01489" lon="7.8152">
        <ele>246.6</ele>
        <time>2022-05-01T10:06:40Z</time>
      </trkpt>
      <trkpt lat="49.01494" lon="7.81527">
        <ele>246.8</ele>
        <time>2022-05-01T10:06:41Z</time>
      </trkpt>
      <trkpt lat="49.01497" lon="7.81531">
        <ele>247</ele>
        <time>2022-05-01T10:06:42Z</time>
      </trkpt>
      <trkpt lat="49.015" lon="7.81536">
        <ele>247.2</ele>
        <time>2022-05-01T10:06:43Z</time>
      </trkpt>
      <trkpt lat="49.01501" lon="7.8154">
        <ele>247.2</ele>
        <time>2022-05-01T10:06:44Z</time>
      </trkpt>
      <trkpt lat="49.01502" lon="7.81545">
        <ele>247.4</ele>
        <time>2022-05-01T10:06:45Z</time>
      </trkpt>
      <trkpt lat="49.01503" lon="7.81548">
        <ele>247.4</ele>
        <time>2022-05-01T10:06:46Z</time>
      </trkpt>
      <trkpt lat="49.01505" lon="7.81553">
        <ele>247.4</ele>
        <time>2022-05-01T10:06:47Z</time>
      </trkpt>
      <trkpt lat="49.01508" lon="7.81559">
        <ele>247.6</ele>
        <time>2022-05-01T10:06:48Z</time>
      </trkpt>
      <trkpt lat="49.0151" lon="7.81564">
        <ele>247.8</ele>
        <time>2022-05-01T10:06:49Z</time>
      </trkpt>
      <trkpt lat="49.01512" lon="7.81568">
        <ele>247.8</ele>
        <time>2022-05-01T10:06:50Z</time>
      </trkpt>
      <trkpt lat="49.01514" lon="7.81572">
        <ele>248</ele>
        <time>2022-05-01T10:06:51Z</time>
      </trkpt>
      <trkpt lat="49.01517" lon="7.81576">
        <ele>248</ele>
        <time>2022-05-01T10:06:52Z</time>
      </trkpt>
      <trkpt lat="49.01519" lon="7.81581">
        <ele>248</ele>
        <time>2022-05-01T10:06:53Z</time>
      </trkpt>
      <trkpt lat="49.01521" lon="7.81587">
        <ele>248</ele>
        <time>2022-05-01T10:06:54Z</time>
      </trkpt>
      <trkpt lat="49.01524" lon="7.81593">
        <ele>248.2</ele>
        <time>2022-05-01T10:06:55Z</time>
      </trkpt>
      <trkpt lat="49.01526" lon="7.81598">
        <ele>248.2</ele>
        <time>2022-05-01T10:06:56Z</time>
      </trkpt>
      <trkpt lat="49.01527" lon="7.81602">
        <ele>248.2</ele>
        <time>2022-05-01T10:06:57Z</time>
      </trkpt>
      <trkpt lat="49.01529" lon="7.81607">
        <ele>248.4</ele>
        <time>2022-05-01T10:06:58Z</time>
      </trkpt>
      <trkpt lat="49.01532" lon="7.81613">
        <ele>248.4</ele>
        <time>2022-05-01T10:06:59Z</time>
      </trkpt>
      <trkpt lat="49.01533" lon="7.81618">
        <ele>248.4</ele>
        <time>2022-05-01T10:07:00Z</time>
      </trkpt>
      <trkpt lat="49.01535" lon="7.81623">
        <ele>248.6</ele>
        <time>2022-05-01T10:07:01Z</time>
      </trkpt>
      <trkpt lat="49.01535" lon="7.81627">
        <ele>248.6</ele>
        <time>2022-05-01T10:07:02Z</time>
      </trkpt>
      <trkpt lat="49.01539" lon="7.81635">
        <ele>249</ele>
        <time>2022-05-01T10:07:04Z</time>
      </trkpt>
      <trkpt lat="49.01541" lon="7.81639">
        <ele>249</ele>
        <time>2022-05-01T10:07:05Z</time>
      </trkpt>
      <trkpt lat="49.01545" lon="7.81647">
        <ele>249.2</ele>
        <time>2022-05-01T10:07:07Z</time>
      </trkpt>
      <trkpt lat="49.01547" lon="7.81651">
        <ele>249.4</ele>
        <time>2022-05-01T10:07:08Z</time>
      </trkpt>
      <trkpt lat="49.01549" lon="7.81654">
        <ele>249.6</ele>
        <time>2022-05-01T10:07:09Z</time>
      </trkpt>
      <trkpt lat="49.01553" lon="7.81657">
        <ele>249.8</ele>
        <time>2022-05-01T10:07:10Z</time>
      </trkpt>
      <trkpt lat="49.01557" lon="7.81661">
        <ele>250</ele>
        <time>2022-05-01T10:07:11Z</time>
      </trkpt>
      <trkpt lat="49.01561" lon="7.81666">
        <ele>250.2</ele>
        <time>2022-05-01T10:07:12Z</time>
      </trkpt>
      <trkpt lat="49.01562" lon="7.81669">
        <ele>250.4</ele>
        <time>2022-05-01T10:07:13Z</time>
      </trkpt>
      <trkpt lat="49.01566" lon="7.81672">
        <ele>250.6</ele>
        <time>2022-05-01T10:07:14Z</time>
      </trkpt>
      <trkpt lat="49.01567" lon="7.81676">
        <ele>250.8</ele>
        <time>2022-05-01T10:07:15Z</time>
      </trkpt>
      <trkpt lat="49.01568" lon="7.8168">
        <ele>250.8</ele>
        <time>2022-05-01T10:07:16Z</time>
      </trkpt>
      <trkpt lat="49.01573" lon="7.81685">
        <ele>251</ele>
        <time>2022-05-01T10:07:17Z</time>
      </trkpt>
      <trkpt lat="49.01576" lon="7.81689">
        <ele>251</ele>
        <time>2022-05-01T10:07:18Z</time>
      </trkpt>
      <trkpt lat="49.01577" lon="7.81693">
        <ele>251.2</ele>
        <time>2022-05-01T10:07:19Z</time>
      </trkpt>
      <trkpt lat="49.01581" lon="7.81697">
        <ele>251.4</ele>
        <time>2022-05-01T10:07:20Z</time>
      </trkpt>
      <trkpt lat="49.0158" lon="7.817">
        <ele>251.6</ele>
        <time>2022-05-01T10:07:21Z</time>
      </trkpt>
      <trkpt lat="49.01579" lon="7.81704">
        <ele>252</ele>
        <time>2022-05-01T10:07:22Z</time>
      </trkpt>
      <trkpt lat="49.0158" lon="7.81708">
        <ele>252.2</ele>
        <time>2022-05-01T10:07:23Z</time>
      </trkpt>
      <trkpt lat="49.0158" lon="7.81712">
        <ele>252.2</ele>
        <time>2022-05-01T10:07:24Z</time>
      </trkpt>
      <trkpt lat="49.0158" lon="7.81716">
        <ele>252.4</ele>
        <time>2022-05-01T10:07:25Z</time>
      </trkpt>
      <trkpt lat="49.01583" lon="7.8172">
        <ele>252.4</ele>
        <time>2022-05-01T10:07:26Z</time>
      </trkpt>
      <trkpt lat="49.01585" lon="7.81723">
        <ele>252.6</ele>
        <time>2022-05-01T10:07:27Z</time>
      </trkpt>
      <trkpt lat="49.01589" lon="7.81727">
        <ele>252.6</ele>
        <time>2022-05-01T10:07:28Z</time>
      </trkpt>
      <trkpt lat="49.0159" lon="7.81731">
        <ele>253</ele>
        <time>2022-05-01T10:07:29Z</time>
      </trkpt>
      <trkpt lat="49.01591" lon="7.81736">
        <ele>253</ele>
        <time>2022-05-01T10:07:30Z</time>
      </trkpt>
      <trkpt lat="49.01591" lon="7.8174">
        <ele>253.2</ele>
        <time>2022-05-01T10:07:31Z</time>
      </trkpt>
      <trkpt lat="49.01591" lon="7.81744">
        <ele>253.4</ele>
        <time>2022-05-01T10:07:32Z</time>
      </trkpt>
      <trkpt lat="49.0159" lon="7.81749">
        <ele>253.4</ele>
        <time>2022-05-01T10:07:33Z</time>
      </trkpt>
      <trkpt lat="49.01592" lon="7.81753">
        <ele>253.6</ele>
        <time>2022-05-01T10:07:34Z</time>
      </trkpt>
      <trkpt lat="49.01593" lon="7.81756">
        <ele>253.8</ele>
        <time>2022-05-01T10:07:35Z</time>
      </trkpt>
      <trkpt lat="49.01595" lon="7.81761">
        <ele>253.8</ele>
        <time>2022-05-01T10:07:36Z</time>
      </trkpt>
      <trkpt lat="49.01597" lon="7.81765">
        <ele>254</ele>
        <time>2022-05-01T10:07:37Z</time>
      </trkpt>
      <trkpt lat="49.01598" lon="7.81768">
        <ele>254</ele>
        <time>2022-05-01T10:07:38Z</time>
      </trkpt>
      <trkpt lat="49.01599" lon="7.81772">
        <ele>254.2</ele>
        <time>2022-05-01T10:07:39Z</time>
      </trkpt>
      <trkpt lat="49.01599" lon="7.81775">
        <ele>254.4</ele>
        <time>2022-05-01T10:07:40Z</time>
      </trkpt>
      <trkpt lat="49.01601" lon="7.81779">
        <ele>254.4</ele>
        <time>2022-05-01T10:07:41Z</time>
      </trkpt>
      <trkpt lat="49.01602" lon="7.81784">
        <ele>254.6</ele>
        <time>2022-05-01T10:07:42Z</time>
      </trkpt>
      <trkpt lat="49.01602" lon="7.81789">
        <ele>254.6</ele>
        <time>2022-05-01T10:07:43Z</time>
      </trkpt>
      <trkpt lat="49.01603" lon="7.81793">
        <ele>254.8</ele>
        <time>2022-05-01T10:07:44Z</time>
      </trkpt>
      <trkpt lat="49.01604" lon="7.81796">
        <ele>254.8</ele>
        <time>2022-05-01T10:07:45Z</time>
      </trkpt>
      <trkpt lat="49.01605" lon="7.81799">
        <ele>255</ele>
        <time>2022-05-01T10:07:46Z</time>
      </trkpt>
      <trkpt lat="49.01608" lon="7.81802">
        <ele>255.2</ele>
        <time>2022-05-01T10:07:47Z</time>
      </trkpt>
      <trkpt lat="49.01609" lon="7.81805">
        <ele>255.4</ele>
        <time>2022-05-01T10:07:48Z</time>
      </trkpt>
      <trkpt lat="49.01611" lon="7.81809">
        <ele>255.4</ele>
        <time>2022-05-01T10:07:49Z</time>
      </trkpt>
      <trkpt lat="49.01613" lon="7.81813">
        <ele>255.6</ele>
        <time>2022-05-01T10:07:50Z</time>
      </trkpt>
      <trkpt lat="49.01615" lon="7.81817">
        <ele>255.6</ele>
        <time>2022-05-01T10:07:51Z</time>
      </trkpt>
      <trkpt lat="49.01618" lon="7.81821">
        <ele>255.8</ele>
        <time>2022-05-01T10:07:52Z</time>
      </trkpt>
      <trkpt lat="49.01619" lon="7.81826">
        <ele>255.8</ele>
        <time>2022-05-01T10:07:53Z</time>
      </trkpt>
      <trkpt lat="49.01618" lon="7.8183">
        <ele>256.2</ele>
        <time>2022-05-01T10:07:54Z</time>
      </trkpt>
      <trkpt lat="49.01619" lon="7.81834">
        <ele>256.2</ele>
        <time>2022-05-01T10:07:55Z</time>
      </trkpt>
      <trkpt lat="49.0162" lon="7.81837">
        <ele>256.4</ele>
        <time>2022-05-01T10:07:56Z</time>
      </trkpt>
      <trkpt lat="49.01622" lon="7.8184">
        <ele>256.6</ele>
        <time>2022-05-01T10:07:57Z</time>
      </trkpt>
      <trkpt lat="49.01627" lon="7.81844">
        <ele>256.6</ele>
        <time>2022-05-01T10:07:58Z</time>
      </trkpt>
      <trkpt lat="49.0163" lon="7.81849">
        <ele>256.6</ele>
        <time>2022-05-01T10:07:59Z</time>
      </trkpt>
      <trkpt lat="49.01632" lon="7.81855">
        <ele>256.8</ele>
        <time>2022-05-01T10:08:00Z</time>
      </trkpt>
      <trkpt lat="49.01633" lon="7.81859">
        <ele>257</ele>
        <time>2022-05-01T10:08:01Z</time>
      </trkpt>
      <trkpt lat="49.01633" lon="7.81863">
        <ele>257</ele>
        <time>2022-05-01T10:08:02Z</time>
      </trkpt>
      <trkpt lat="49.01642" lon="7.81866">
        <ele>257</ele>
        <time>2022-05-01T10:08:03Z</time>
      </trkpt>
      <trkpt lat="49.01647" lon="7.81871">
        <ele>257.2</ele>
        <time>2022-05-01T10:08:04Z</time>
      </trkpt>
      <trkpt lat="49.01648" lon="7.81876">
        <ele>257.4</ele>
        <time>2022-05-01T10:08:05Z</time>
      </trkpt>
      <trkpt lat="49.01649" lon="7.8188">
        <ele>257.4</ele>
        <time>2022-05-01T10:08:06Z</time>
      </trkpt>
      <trkpt lat="49.01649" lon="7.81884">
        <ele>257.6</ele>
        <time>2022-05-01T10:08:07Z</time>
      </trkpt>
      <trkpt lat="49.01651" lon="7.81889">
        <ele>257.8</ele>
        <time>2022-05-01T10:08:08Z</time>
      </trkpt>
      <trkpt lat="49.01654" lon="7.81893">
        <ele>258</ele>
        <time>2022-05-01T10:08:09Z</time>
      </trkpt>
      <trkpt lat="49.01657" lon="7.81897">
        <ele>258.2</ele>
        <time>2022-05-01T10:08:10Z</time>
      </trkpt>
      <trkpt lat="49.01657" lon="7.819">
        <ele>258.4</ele>
        <time>2022-05-01T10:08:11Z</time>
      </trkpt>
      <trkpt lat="49.0166" lon="7.81904">
        <ele>258.6</ele>
        <time>2022-05-01T10:08:12Z</time>
      </trkpt>
      <trkpt lat="49.01663" lon="7.81909">
        <ele>258.8</ele>
        <time>2022-05-01T10:08:13Z</time>
      </trkpt>
      <trkpt lat="49.01666" lon="7.81913">
        <ele>258.8</ele>
        <time>2022-05-01T10:08:14Z</time>
      </trkpt>
      <trkpt lat="49.01666" lon="7.81916">
        <ele>258.8</ele>
        <time>2022-05-01T10:08:15Z</time>
      </trkpt>
      <trkpt lat="49.01664" lon="7.81921">
        <ele>259</ele>
        <time>2022-05-01T10:08:16Z</time>
      </trkpt>
      <trkpt lat="49.01663" lon="7.81925">
        <ele>259</ele>
        <time>2022-05-01T10:08:17Z</time>
      </trkpt>
      <trkpt lat="49.01661" lon="7.81929">
        <ele>259.2</ele>
        <time>2022-05-01T10:08:18Z</time>
      </trkpt>
      <trkpt lat="49.01663" lon="7.81933">
        <ele>259.4</ele>
        <time>2022-05-01T10:08:19Z</time>
      </trkpt>
      <trkpt lat="49.01663" lon="7.81938">
        <ele>259.4</ele>
        <time>2022-05-01T10:08:20Z</time>
      </trkpt>
      <trkpt lat="49.01667" lon="7.81942">
        <ele>259.6</ele>
        <time>2022-05-01T10:08:21Z</time>
      </trkpt>
      <trkpt lat="49.01668" lon="7.81945">
        <ele>259.6</ele>
        <time>2022-05-01T10:08:22Z</time>
      </trkpt>
      <trkpt lat="49.0167" lon="7.81949">
        <ele>259.8</ele>
        <time>2022-05-01T10:08:23Z</time>
      </trkpt>
      <trkpt lat="49.0167" lon="7.81952">
        <ele>260</ele>
        <time>2022-05-01T10:08:24Z</time>
      </trkpt>
      <trkpt lat="49.01671" lon="7.81956">
        <ele>260</ele>
        <time>2022-05-01T10:08:25Z</time>
      </trkpt>
      <trkpt lat="49.01677" lon="7.81961">
        <ele>260.2</ele>
        <time>2022-05-01T10:08:26Z</time>
      </trkpt>
      <trkpt lat="49.01679" lon="7.81966">
        <ele>260.2</ele>
        <time>2022-05-01T10:08:27Z</time>
      </trkpt>
      <trkpt lat="49.01681" lon="7.81971">
        <ele>260.2</ele>
        <time>2022-05-01T10:08:28Z</time>
      </trkpt>
      <trkpt lat="49.01683" lon="7.81975">
        <ele>260.4</ele>
        <time>2022-05-01T10:08:29Z</time>
      </trkpt>
      <trkpt lat="49.01683" lon="7.81978">
        <ele>260.6</ele>
        <time>2022-05-01T10:08:30Z</time>
      </trkpt>
      <trkpt lat="49.01684" lon="7.81981">
        <ele>260.6</ele>
        <time>2022-05-01T10:08:31Z</time>
      </trkpt>
      <trkpt lat="49.01685" lon="7.81985">
        <ele>260.8</ele>
        <time>2022-05-01T10:08:32Z</time>
      </trkpt>
      <trkpt lat="49.01686" lon="7.81988">
        <ele>260.8</ele>
        <time>2022-05-01T10:08:33Z</time>
      </trkpt>
      <trkpt lat="49.01687" lon="7.81994">
        <ele>260.8</ele>
        <time>2022-05-01T10:08:34Z</time>
      </trkpt>
      <trkpt lat="49.01687" lon="7.81999">
        <ele>260.8</ele>
        <time>2022-05-01T10:08:35Z</time>
      </trkpt>
      <trkpt lat="49.01688" lon="7.82005">
        <ele>261</ele>
        <time>2022-05-01T10:08:36Z</time>
      </trkpt>
      <trkpt lat="49.01688" lon="7.82008">
        <ele>261.2</ele>
        <time>2022-05-01T10:08:37Z</time>
      </trkpt>
      <trkpt lat="49.01688" lon="7.82011">
        <ele>261.2</ele>
        <time>2022-05-01T10:08:38Z</time>
      </trkpt>
      <trkpt lat="49.01687" lon="7.82013">
        <ele>261.2</ele>
        <time>2022-05-01T10:08:39Z</time>
      </trkpt>
      <trkpt lat="49.01687" lon="7.82016">
        <ele>261.4</ele>
        <time>2022-05-01T10:08:40Z</time>
      </trkpt>
      <trkpt lat="49.01688" lon="7.82019">
        <ele>261.6</ele>
        <time>2022-05-01T10:08:41Z</time>
      </trkpt>
      <trkpt lat="49.01689" lon="7.82021">
        <ele>261.8</ele>
        <time>2022-05-01T10:08:42Z</time>
      </trkpt>
      <trkpt lat="49.0169" lon="7.82025">
        <ele>261.8</ele>
        <time>2022-05-01T10:08:43Z</time>
      </trkpt>
      <trkpt lat="49.0169" lon="7.82028">
        <ele>262</ele>
        <time>2022-05-01T10:08:44Z</time>
      </trkpt>
      <trkpt lat="49.01691" lon="7.82032">
        <ele>262.2</ele>
        <time>2022-05-01T10:08:45Z</time>
      </trkpt>
      <trkpt lat="49.01691" lon="7.82035">
        <ele>262.4</ele>
        <time>2022-05-01T10:08:46Z</time>
      </trkpt>
      <trkpt lat="49.01693" lon="7.82039">
        <ele>262.6</ele>
        <time>2022-05-01T10:08:47Z</time>
      </trkpt>
      <trkpt lat="49.01695" lon="7.82043">
        <ele>262.8</ele>
        <time>2022-05-01T10:08:48Z</time>
      </trkpt>
      <trkpt lat="49.01696" lon="7.82047">
        <ele>263</ele>
        <time>2022-05-01T10:08:49Z</time>
      </trkpt>
      <trkpt lat="49.01698" lon="7.82053">
        <ele>263</ele>
        <time>2022-05-01T10:08:50Z</time>
      </trkpt>
      <trkpt lat="49.01698" lon="7.82057">
        <ele>263.2</ele>
        <time>2022-05-01T10:08:51Z</time>
      </trkpt>
      <trkpt lat="49.01699" lon="7.82062">
        <ele>263.2</ele>
        <time>2022-05-01T10:08:52Z</time>
      </trkpt>
      <trkpt lat="49.01701" lon="7.82066">
        <ele>263.4</ele>
        <time>2022-05-01T10:08:53Z</time>
      </trkpt>
      <trkpt lat="49.01702" lon="7.82071">
        <ele>263.4</ele>
        <time>2022-05-01T10:08:54Z</time>
      </trkpt>
      <trkpt lat="49.01703" lon="7.82076">
        <ele>263.6</ele>
        <time>2022-05-01T10:08:55Z</time>
      </trkpt>
      <trkpt lat="49.01703" lon="7.8208">
        <ele>263.6</ele>
        <time>2022-05-01T10:08:56Z</time>
      </trkpt>
      <trkpt lat="49.01705" lon="7.82084">
        <ele>263.8</ele>
        <time>2022-05-01T10:08:57Z</time>
      </trkpt>
      <trkpt lat="49.01706" lon="7.82087">
        <ele>263.8</ele>
        <time>2022-05-01T10:08:58Z</time>
      </trkpt>
      <trkpt lat="49.01706" lon="7.8209">
        <ele>264</ele>
        <time>2022-05-01T10:08:59Z</time>
      </trkpt>
      <trkpt lat="49.01708" lon="7.82093">
        <ele>264</ele>
        <time>2022-05-01T10:09:00Z</time>
      </trkpt>
      <trkpt lat="49.0171" lon="7.82096">
        <ele>264.2</ele>
        <time>2022-05-01T10:09:01Z</time>
      </trkpt>
      <trkpt lat="49.01711" lon="7.821">
        <ele>264.2</ele>
        <time>2022-05-01T10:09:02Z</time>
      </trkpt>
      <trkpt lat="49.01712" lon="7.82104">
        <ele>264.4</ele>
        <time>2022-05-01T10:09:03Z</time>
      </trkpt>
      <trkpt lat="49.01713" lon="7.82109">
        <ele>264.4</ele>
        <time>2022-05-01T10:09:04Z</time>
      </trkpt>
      <trkpt lat="49.01715" lon="7.82113">
        <ele>264.4</ele>
        <time>2022-05-01T10:09:05Z</time>
      </trkpt>
      <trkpt lat="49.0172" lon="7.82118">
        <ele>264.6</ele>
        <time>2022-05-01T10:09:06Z</time>
      </trkpt>
      <trkpt lat="49.01724" lon="7.82124">
        <ele>264.6</ele>
        <time>2022-05-01T10:09:07Z</time>
      </trkpt>
      <trkpt lat="49.01723" lon="7.8213">
        <ele>264.8</ele>
        <time>2022-05-01T10:09:08Z</time>
      </trkpt>
      <trkpt lat="49.01724" lon="7.82136">
        <ele>264.8</ele>
        <time>2022-05-01T10:09:09Z</time>
      </trkpt>
      <trkpt lat="49.01723" lon="7.8214">
        <ele>264.8</ele>
        <time>2022-05-01T10:09:10Z</time>
      </trkpt>
      <trkpt lat="49.01722" lon="7.82144">
        <ele>265</ele>
        <time>2022-05-01T10:09:11Z</time>
      </trkpt>
      <trkpt lat="49.01722" lon="7.82148">
        <ele>265.2</ele>
        <time>2022-05-01T10:09:12Z</time>
      </trkpt>
      <trkpt lat="49.01725" lon="7.82153">
        <ele>265.4</ele>
        <time>2022-05-01T10:09:13Z</time>
      </trkpt>
      <trkpt lat="49.0173" lon="7.82158">
        <ele>265.6</ele>
        <time>2022-05-01T10:09:14Z</time>
      </trkpt>
      <trkpt lat="49.01734" lon="7.82164">
        <ele>265.6</ele>
        <time>2022-05-01T10:09:15Z</time>
      </trkpt>
      <trkpt lat="49.01736" lon="7.82169">
        <ele>265.8</ele>
        <time>2022-05-01T10:09:16Z</time>
      </trkpt>
      <trkpt lat="49.01736" lon="7.82174">
        <ele>265.8</ele>
        <time>2022-05-01T10:09:17Z</time>
      </trkpt>
      <trkpt lat="49.01736" lon="7.82179">
        <ele>265.8</ele>
        <time>2022-05-01T10:09:18Z</time>
      </trkpt>
      <trkpt lat="49.01738" lon="7.82185">
        <ele>266</ele>
        <time>2022-05-01T10:09:19Z</time>
      </trkpt>
      <trkpt lat="49.01742" lon="7.8219">
        <ele>266</ele>
        <time>2022-05-01T10:09:20Z</time>
      </trkpt>
      <trkpt lat="49.01746" lon="7.82195">
        <ele>266.2</ele>
        <time>2022-05-01T10:09:21Z</time>
      </trkpt>
      <trkpt lat="49.01746" lon="7.82198">
        <ele>266.4</ele>
        <time>2022-05-01T10:09:22Z</time>
      </trkpt>
      <trkpt lat="49.01745" lon="7.82203">
        <ele>266.6</ele>
        <time>2022-05-01T10:09:23Z</time>
      </trkpt>
      <trkpt lat="49.01745" lon="7.82207">
        <ele>266.8</ele>
        <time>2022-05-01T10:09:24Z</time>
      </trkpt>
      <trkpt lat="49.01746" lon="7.8221">
        <ele>267</ele>
        <time>2022-05-01T10:09:25Z</time>
      </trkpt>
      <trkpt lat="49.01749" lon="7.82215">
        <ele>267</ele>
        <time>2022-05-01T10:09:26Z</time>
      </trkpt>
      <trkpt lat="49.01749" lon="7.82218">
        <ele>267.2</ele>
        <time>2022-05-01T10:09:27Z</time>
      </trkpt>
      <trkpt lat="49.01749" lon="7.8222">
        <ele>267.4</ele>
        <time>2022-05-01T10:09:28Z</time>
      </trkpt>
      <trkpt lat="49.01748" lon="7.82222">
        <ele>267.6</ele>
        <time>2022-05-01T10:09:29Z</time>
      </trkpt>
      <trkpt lat="49.01748" lon="7.82225">
        <ele>267.8</ele>
        <time>2022-05-01T10:09:30Z</time>
      </trkpt>
      <trkpt lat="49.01748" lon="7.82228">
        <ele>267.8</ele>
        <time>2022-05-01T10:09:31Z</time>
      </trkpt>
      <trkpt lat="49.01749" lon="7.82231">
        <ele>268</ele>
        <time>2022-05-01T10:09:32Z</time>
      </trkpt>
      <trkpt lat="49.0175" lon="7.82234">
        <ele>268.2</ele>
        <time>2022-05-01T10:09:33Z</time>
      </trkpt>
      <trkpt lat="49.01751" lon="7.82237">
        <ele>268.4</ele>
        <time>2022-05-01T10:09:34Z</time>
      </trkpt>
      <trkpt lat="49.01753" lon="7.82241">
        <ele>268.6</ele>
        <time>2022-05-01T10:09:35Z</time>
      </trkpt>
      <trkpt lat="49.01756" lon="7.82245">
        <ele>268.8</ele>
        <time>2022-05-01T10:09:36Z</time>
      </trkpt>
      <trkpt lat="49.01757" lon="7.82249">
        <ele>269</ele>
        <time>2022-05-01T10:09:37Z</time>
      </trkpt>
      <trkpt lat="49.01759" lon="7.82252">
        <ele>269.2</ele>
        <time>2022-05-01T10:09:38Z</time>
      </trkpt>
      <trkpt lat="49.01763" lon="7.82254">
        <ele>269.4</ele>
        <time>2022-05-01T10:09:39Z</time>
      </trkpt>
      <trkpt lat="49.01766" lon="7.82256">
        <ele>269.4</ele>
        <time>2022-05-01T10:09:40Z</time>
      </trkpt>
      <trkpt lat="49.01769" lon="7.8226">
        <ele>269.6</ele>
        <time>2022-05-01T10:09:41Z</time>
      </trkpt>
      <trkpt lat="49.01772" lon="7.82263">
        <ele>269.6</ele>
        <time>2022-05-01T10:09:42Z</time>
      </trkpt>
      <trkpt lat="49.01776" lon="7.82267">
        <ele>269.6</ele>
        <time>2022-05-01T10:09:43Z</time>
      </trkpt>
      <trkpt lat="49.01778" lon="7.82271">
        <ele>269.6</ele>
        <time>2022-05-01T10:09:44Z</time>
      </trkpt>
      <trkpt lat="49.01779" lon="7.82274">
        <ele>269.8</ele>
        <time>2022-05-01T10:09:45Z</time>
      </trkpt>
      <trkpt lat="49.01781" lon="7.82278">
        <ele>269.8</ele>
        <time>2022-05-01T10:09:46Z</time>
      </trkpt>
      <trkpt lat="49.01783" lon="7.82281">
        <ele>270</ele>
        <time>2022-05-01T10:09:47Z</time>
      </trkpt>
      <trkpt lat="49.01784" lon="7.82284">
        <ele>270</ele>
        <time>2022-05-01T10:09:48Z</time>
      </trkpt>
      <trkpt lat="49.01786" lon="7.82288">
        <ele>270</ele>
        <time>2022-05-01T10:09:49Z</time>
      </trkpt>
      <trkpt lat="49.01789" lon="7.82291">
        <ele>270</ele>
        <time>2022-05-01T10:09:50Z</time>
      </trkpt>
      <trkpt lat="49.01792" lon="7.82295">
        <ele>270</ele>
        <time>2022-05-01T10:09:51Z</time>
      </trkpt>
      <trkpt lat="49.01795" lon="7.82298">
        <ele>270</ele>
        <time>2022-05-01T10:09:52Z</time>
      </trkpt>
      <trkpt lat="49.01797" lon="7.82302">
        <ele>270.2</ele>
        <time>2022-05-01T10:09:53Z</time>
      </trkpt>
      <trkpt lat="49.01797" lon="7.82306">
        <ele>270.2</ele>
        <time>2022-05-01T10:09:54Z</time>
      </trkpt>
      <trkpt lat="49.01796" lon="7.8231">
        <ele>270.4</ele>
        <time>2022-05-01T10:09:55Z</time>
      </trkpt>
      <trkpt lat="49.01797" lon="7.82313">
        <ele>270.4</ele>
        <time>2022-05-01T10:09:56Z</time>
      </trkpt>
      <trkpt lat="49.01797" lon="7.82318">
        <ele>270.6</ele>
        <time>2022-05-01T10:09:57Z</time>
      </trkpt>
      <trkpt lat="49.018" lon="7.82323">
        <ele>270.6</ele>
        <time>2022-05-01T10:09:58Z</time>
      </trkpt>
      <trkpt lat="49.01802" lon="7.82328">
        <ele>270.8</ele>
        <time>2022-05-01T10:09:59Z</time>
      </trkpt>
      <trkpt lat="49.01804" lon="7.82331">
        <ele>271</ele>
        <time>2022-05-01T10:10:00Z</time>
      </trkpt>
      <trkpt lat="49.01806" lon="7.82335">
        <ele>271</ele>
        <time>2022-05-01T10:10:01Z</time>
      </trkpt>
      <trkpt lat="49.01807" lon="7.82338">
        <ele>271.2</ele>
        <time>2022-05-01T10:10:02Z</time>
      </trkpt>
      <trkpt lat="49.01809" lon="7.8234">
        <ele>271.2</ele>
        <time>2022-05-01T10:10:03Z</time>
      </trkpt>
      <trkpt lat="49.01813" lon="7.82343">
        <ele>271.4</ele>
        <time>2022-05-01T10:10:04Z</time>
      </trkpt>
      <trkpt lat="49.01817" lon="7.82347">
        <ele>271.6</ele>
        <time>2022-05-01T10:10:05Z</time>
      </trkpt>
      <trkpt lat="49.0182" lon="7.82349">
        <ele>271.6</ele>
        <time>2022-05-01T10:10:06Z</time>
      </trkpt>
      <trkpt lat="49.01822" lon="7.82352">
        <ele>271.6</ele>
        <time>2022-05-01T10:10:07Z</time>
      </trkpt>
      <trkpt lat="49.01824" lon="7.82355">
        <ele>271.8</ele>
        <time>2022-05-01T10:10:08Z</time>
      </trkpt>
      <trkpt lat="49.01826" lon="7.82357">
        <ele>271.8</ele>
        <time>2022-05-01T10:10:09Z</time>
      </trkpt>
      <trkpt lat="49.01827" lon="7.82359">
        <ele>272</ele>
        <time>2022-05-01T10:10:10Z</time>
      </trkpt>
      <trkpt lat="49.01828" lon="7.82361">
        <ele>272.2</ele>
        <time>2022-05-01T10:10:11Z</time>
      </trkpt>
      <trkpt lat="49.01829" lon="7.82364">
        <ele>272.4</ele>
        <time>2022-05-01T10:10:12Z</time>
      </trkpt>
      <trkpt lat="49.0183" lon="7.82366">
        <ele>272.4</ele>
        <time>2022-05-01T10:10:13Z</time>
      </trkpt>
      <trkpt lat="49.01831" lon="7.82369">
        <ele>272.6</ele>
        <time>2022-05-01T10:10:14Z</time>
      </trkpt>
      <trkpt lat="49.01833" lon="7.82375">
        <ele>273</ele>
        <time>2022-05-01T10:10:16Z</time>
      </trkpt>
      <trkpt lat="49.01835" lon="7.82377">
        <ele>273</ele>
        <time>2022-05-01T10:10:17Z</time>
      </trkpt>
      <trkpt lat="49.01838" lon="7.82378">
        <ele>273.2</ele>
        <time>2022-05-01T10:10:18Z</time>
      </trkpt>
      <trkpt lat="49.01841" lon="7.8238">
        <ele>273.2</ele>
        <time>2022-05-01T10:10:19Z</time>
      </trkpt>
      <trkpt lat="49.01844" lon="7.82382">
        <ele>273.4</ele>
        <time>2022-05-01T10:10:20Z</time>
      </trkpt>
      <trkpt lat="49.01847" lon="7.82384">
        <ele>273.6</ele>
        <time>2022-05-01T10:10:21Z</time>
      </trkpt>
      <trkpt lat="49.01848" lon="7.82387">
        <ele>273.8</ele>
        <time>2022-05-01T10:10:22Z</time>
      </trkpt>
      <trkpt lat="49.01851" lon="7.82389">
        <ele>273.8</ele>
        <time>2022-05-01T10:10:23Z</time>
      </trkpt>
      <trkpt lat="49.01853" lon="7.82391">
        <ele>274</ele>
        <time>2022-05-01T10:10:24Z</time>
      </trkpt>
      <trkpt lat="49.01855" lon="7.82393">
        <ele>274</ele>
        <time>2022-05-01T10:10:25Z</time>
      </trkpt>
      <trkpt lat="49.01857" lon="7.82395">
        <ele>274.2</ele>
        <time>2022-05-01T10:10:26Z</time>
      </trkpt>
      <trkpt lat="49.01858" lon="7.82397">
        <ele>274.2</ele>
        <time>2022-05-01T10:10:27Z</time>
      </trkpt>
      <trkpt lat="49.0186" lon="7.824">
        <ele>274.4</ele>
        <time>2022-05-01T10:10:28Z</time>
      </trkpt>
      <trkpt lat="49.01861" lon="7.82403">
        <ele>274.4</ele>
        <time>2022-05-01T10:10:29Z</time>
      </trkpt>
      <trkpt lat="49.01863" lon="7.82406">
        <ele>274.6</ele>
        <time>2022-05-01T10:10:30Z</time>
      </trkpt>
      <trkpt lat="49.01865" lon="7.82409">
        <ele>274.8</ele>
        <time>2022-05-01T10:10:31Z</time>
      </trkpt>
      <trkpt lat="49.0187" lon="7.82412">
        <ele>275</ele>
        <time>2022-05-01T10:10:32Z</time>
      </trkpt>
      <trkpt lat="49.01872" lon="7.82415">
        <ele>275.2</ele>
        <time>2022-05-01T10:10:33Z</time>
      </trkpt>
      <trkpt lat="49.01874" lon="7.82417">
        <ele>275.2</ele>
        <time>2022-05-01T10:10:34Z</time>
      </trkpt>
      <trkpt lat="49.01874" lon="7.82418">
        <ele>275.4</ele>
        <time>2022-05-01T10:10:35Z</time>
      </trkpt>
      <trkpt lat="49.01874" lon="7.8242">
        <ele>275.4</ele>
        <time>2022-05-01T10:10:36Z</time>
      </trkpt>
      <trkpt lat="49.01876" lon="7.82422">
        <ele>275.6</ele>
        <time>2022-05-01T10:10:37Z</time>
      </trkpt>
      <trkpt lat="49.01878" lon="7.82425">
        <ele>275.6</ele>
        <time>2022-05-01T10:10:38Z</time>
      </trkpt>
      <trkpt lat="49.01881" lon="7.82427">
        <ele>275.6</ele>
        <time>2022-05-01T10:10:39Z</time>
      </trkpt>
      <trkpt lat="49.01883" lon="7.8243">
        <ele>275.8</ele>
        <time>2022-05-01T10:10:40Z</time>
      </trkpt>
      <trkpt lat="49.01887" lon="7.82433">
        <ele>275.8</ele>
        <time>2022-05-01T10:10:41Z</time>
      </trkpt>
      <trkpt lat="49.0189" lon="7.82435">
        <ele>275.8</ele>
        <time>2022-05-01T10:10:42Z</time>
      </trkpt>
      <trkpt lat="49.01894" lon="7.82438">
        <ele>276</ele>
        <time>2022-05-01T10:10:43Z</time>
      </trkpt>
      <trkpt lat="49.01899" lon="7.8244">
        <ele>276</ele>
        <time>2022-05-01T10:10:44Z</time>
      </trkpt>
      <trkpt lat="49.01903" lon="7.82444">
        <ele>276</ele>
        <time>2022-05-01T10:10:45Z</time>
      </trkpt>
      <trkpt lat="49.01906" lon="7.82447">
        <ele>276</ele>
        <time>2022-05-01T10:10:46Z</time>
      </trkpt>
      <trkpt lat="49.01911" lon="7.8245">
        <ele>276.2</ele>
        <time>2022-05-01T10:10:47Z</time>
      </trkpt>
      <trkpt lat="49.01912" lon="7.82454">
        <ele>276.2</ele>
        <time>2022-05-01T10:10:48Z</time>
      </trkpt>
      <trkpt lat="49.01914" lon="7.82456">
        <ele>276.2</ele>
        <time>2022-05-01T10:10:49Z</time>
      </trkpt>
      <trkpt lat="49.01915" lon="7.82457">
        <ele>276.2</ele>
        <time>2022-05-01T10:10:50Z</time>
      </trkpt>
      <trkpt lat="49.01918" lon="7.82459">
        <ele>276.2</ele>
        <time>2022-05-01T10:10:51Z</time>
      </trkpt>
      <trkpt lat="49.01921" lon="7.82461">
        <ele>276.2</ele>
        <time>2022-05-01T10:10:52Z</time>
      </trkpt>
      <trkpt lat="49.01924" lon="7.82463">
        <ele>276.4</ele>
        <time>2022-05-01T10:10:53Z</time>
      </trkpt>
      <trkpt lat="49.01924" lon="7.82464">
        <ele>276.4</ele>
        <time>2022-05-01T10:10:54Z</time>
      </trkpt>
      <trkpt lat="49.01929" lon="7.82466">
        <ele>276.6</ele>
        <time>2022-05-01T10:10:55Z</time>
      </trkpt>
      <trkpt lat="49.0193" lon="7.82466">
        <ele>276.8</ele>
        <time>2022-05-01T10:10:56Z</time>
      </trkpt>
      <trkpt lat="49.01931" lon="7.82468">
        <ele>276.8</ele>
        <time>2022-05-01T10:10:57Z</time>
      </trkpt>
      <trkpt lat="49.01933" lon="7.8247">
        <ele>277.2</ele>
        <time>2022-05-01T10:10:58Z</time>
      </trkpt>
      <trkpt lat="49.01933" lon="7.82473">
        <ele>277.4</ele>
        <time>2022-05-01T10:10:59Z</time>
      </trkpt>
      <trkpt lat="49.01934" lon="7.82479">
        <ele>277.8</ele>
        <time>2022-05-01T10:11:01Z</time>
      </trkpt>
      <trkpt lat="49.01935" lon="7.82482">
        <ele>278</ele>
        <time>2022-05-01T10:11:02Z</time>
      </trkpt>
      <trkpt lat="49.01938" lon="7.82484">
        <ele>278.2</ele>
        <time>2022-05-01T10:11:03Z</time>
      </trkpt>
      <trkpt lat="49.01947" lon="7.8249">
        <ele>278.8</ele>
        <time>2022-05-01T10:11:05Z</time>
      </trkpt>
      <trkpt lat="49.01952" lon="7.82494">
        <ele>279</ele>
        <time>2022-05-01T10:11:06Z</time>
      </trkpt>
      <trkpt lat="49.01955" lon="7.82496">
        <ele>279.2</ele>
        <time>2022-05-01T10:11:07Z</time>
      </trkpt>
      <trkpt lat="49.01956" lon="7.82499">
        <ele>279.4</ele>
        <time>2022-05-01T10:11:08Z</time>
      </trkpt>
      <trkpt lat="49.01956" lon="7.825">
        <ele>279.6</ele>
        <time>2022-05-01T10:11:09Z</time>
      </trkpt>
      <trkpt lat="49.01955" lon="7.82502">
        <ele>279.8</ele>
        <time>2022-05-01T10:11:10Z</time>
      </trkpt>
      <trkpt lat="49.01955" lon="7.82502">
        <ele>280</ele>
        <time>2022-05-01T10:11:11Z</time>
      </trkpt>
      <trkpt lat="49.01954" lon="7.82504">
        <ele>280.2</ele>
        <time>2022-05-01T10:11:12Z</time>
      </trkpt>
      <trkpt lat="49.01954" lon="7.82505">
        <ele>280.2</ele>
        <time>2022-05-01T10:11:13Z</time>
      </trkpt>
      <trkpt lat="49.01956" lon="7.82504">
        <ele>280.4</ele>
        <time>2022-05-01T10:11:14Z</time>
      </trkpt>
      <trkpt lat="49.01959" lon="7.82501">
        <ele>280.6</ele>
        <time>2022-05-01T10:11:15Z</time>
      </trkpt>
      <trkpt lat="49.01961" lon="7.82501">
        <ele>280.8</ele>
        <time>2022-05-01T10:11:16Z</time>
      </trkpt>
      <trkpt lat="49.01962" lon="7.82502">
        <ele>281</ele>
        <time>2022-05-01T10:11:17Z</time>
      </trkpt>
      <trkpt lat="49.01964" lon="7.82501">
        <ele>281.2</ele>
        <time>2022-05-01T10:11:18Z</time>
      </trkpt>
      <trkpt lat="49.01967" lon="7.82499">
        <ele>281.4</ele>
        <time>2022-05-01T10:11:19Z</time>
      </trkpt>
      <trkpt lat="49.0197" lon="7.82499">
        <ele>281.4</ele>
        <time>2022-05-01T10:11:20Z</time>
      </trkpt>
      <trkpt lat="49.01971" lon="7.82498">
        <ele>281.6</ele>
        <time>2022-05-01T10:11:21Z</time>
      </trkpt>
      <trkpt lat="49.01973" lon="7.82497">
        <ele>281.8</ele>
        <time>2022-05-01T10:11:22Z</time>
      </trkpt>
      <trkpt lat="49.01976" lon="7.82498">
        <ele>281.8</ele>
        <time>2022-05-01T10:11:23Z</time>
      </trkpt>
      <trkpt lat="49.01979" lon="7.82498">
        <ele>282</ele>
        <time>2022-05-01T10:11:24Z</time>
      </trkpt>
      <trkpt lat="49.01982" lon="7.82498">
        <ele>282.2</ele>
        <time>2022-05-01T10:11:25Z</time>
      </trkpt>
      <trkpt lat="49.01984" lon="7.82499">
        <ele>282.2</ele>
        <time>2022-05-01T10:11:26Z</time>
      </trkpt>
      <trkpt lat="49.01987" lon="7.82499">
        <ele>282.2</ele>
        <time>2022-05-01T10:11:27Z</time>
      </trkpt>
      <trkpt lat="49.01989" lon="7.82499">
        <ele>282.4</ele>
        <time>2022-05-01T10:11:28Z</time>
      </trkpt>
      <trkpt lat="49.0199" lon="7.82498">
        <ele>282.4</ele>
        <time>2022-05-01T10:11:29Z</time>
      </trkpt>
      <trkpt lat="49.01992" lon="7.82498">
        <ele>282.6</ele>
        <time>2022-05-01T10:11:30Z</time>
      </trkpt>
      <trkpt lat="49.01994" lon="7.82498">
        <ele>282.8</ele>
        <time>2022-05-01T10:11:31Z</time>
      </trkpt>
      <trkpt lat="49.01997" lon="7.82499">
        <ele>283</ele>
        <time>2022-05-01T10:11:32Z</time>
      </trkpt>
      <trkpt lat="49.01999" lon="7.82499">
        <ele>283</ele>
        <time>2022-05-01T10:11:33Z</time>
      </trkpt>
      <trkpt lat="49.02001" lon="7.82499">
        <ele>283.2</ele>
        <time>2022-05-01T10:11:34Z</time>
      </trkpt>
      <trkpt lat="49.02003" lon="7.825">
        <ele>283.2</ele>
        <time>2022-05-01T10:11:35Z</time>
      </trkpt>
      <trkpt lat="49.02006" lon="7.825">
        <ele>283.4</ele>
        <time>2022-05-01T10:11:36Z</time>
      </trkpt>
      <trkpt lat="49.0201" lon="7.82501">
        <ele>283.6</ele>
        <time>2022-05-01T10:11:37Z</time>
      </trkpt>
      <trkpt lat="49.02013" lon="7.82501">
        <ele>283.6</ele>
        <time>2022-05-01T10:11:38Z</time>
      </trkpt>
      <trkpt lat="49.02015" lon="7.82501">
        <ele>283.6</ele>
        <time>2022-05-01T10:11:39Z</time>
      </trkpt>
      <trkpt lat="49.02018" lon="7.82501">
        <ele>283.8</ele>
        <time>2022-05-01T10:11:40Z</time>
      </trkpt>
      <trkpt lat="49.0202" lon="7.82501">
        <ele>284</ele>
        <time>2022-05-01T10:11:41Z</time>
      </trkpt>
      <trkpt lat="49.02022" lon="7.82501">
        <ele>284</ele>
        <time>2022-05-01T10:11:42Z</time>
      </trkpt>
      <trkpt lat="49.02024" lon="7.82501">
        <ele>284.2</ele>
        <time>2022-05-01T10:11:43Z</time>
      </trkpt>
      <trkpt lat="49.02027" lon="7.82501">
        <ele>284.4</ele>
        <time>2022-05-01T10:11:44Z</time>
      </trkpt>
      <trkpt lat="49.0203" lon="7.82502">
        <ele>284.6</ele>
        <time>2022-05-01T10:11:45Z</time>
      </trkpt>
      <trkpt lat="49.02032" lon="7.82502">
        <ele>284.6</ele>
        <time>2022-05-01T10:11:46Z</time>
      </trkpt>
      <trkpt lat="49.02036" lon="7.82503">
        <ele>284.8</ele>
        <time>2022-05-01T10:11:47Z</time>
      </trkpt>
      <trkpt lat="49.02038" lon="7.82503">
        <ele>284.8</ele>
        <time>2022-05-01T10:11:48Z</time>
      </trkpt>
      <trkpt lat="49.02042" lon="7.82503">
        <ele>285</ele>
        <time>2022-05-01T10:11:49Z</time>
      </trkpt>
      <trkpt lat="49.02045" lon="7.82503">
        <ele>285.2</ele>
        <time>2022-05-01T10:11:50Z</time>
      </trkpt>
      <trkpt lat="49.02049" lon="7.82503">
        <ele>285.2</ele>
        <time>2022-05-01T10:11:51Z</time>
      </trkpt>
      <trkpt lat="49.02052" lon="7.82503">
        <ele>285.4</ele>
        <time>2022-05-01T10:11:52Z</time>
      </trkpt>
      <trkpt lat="49.02054" lon="7.82502">
        <ele>285.6</ele>
        <time>2022-05-01T10:11:53Z</time>
      </trkpt>
      <trkpt lat="49.02056" lon="7.82503">
        <ele>285.8</ele>
        <time>2022-05-01T10:11:54Z</time>
      </trkpt>
      <trkpt lat="49.02057" lon="7.82502">
        <ele>286</ele>
        <time>2022-05-01T10:11:55Z</time>
      </trkpt>
      <trkpt lat="49.02058" lon="7.82501">
        <ele>286</ele>
        <time>2022-05-01T10:11:56Z</time>
      </trkpt>
      <trkpt lat="49.02062" lon="7.82501">
        <ele>286.2</ele>
        <time>2022-05-01T10:11:57Z</time>
      </trkpt>
      <trkpt lat="49.02066" lon="7.82501">
        <ele>286.2</ele>
        <time>2022-05-01T10:11:58Z</time>
      </trkpt>
      <trkpt lat="49.02069" lon="7.82501">
        <ele>286.4</ele>
        <time>2022-05-01T10:11:59Z</time>
      </trkpt>
      <trkpt lat="49.02073" lon="7.82499">
        <ele>286.6</ele>
        <time>2022-05-01T10:12:00Z</time>
      </trkpt>
      <trkpt lat="49.02076" lon="7.82499">
        <ele>286.6</ele>
        <time>2022-05-01T10:12:01Z</time>
      </trkpt>
      <trkpt lat="49.02078" lon="7.82499">
        <ele>286.8</ele>
        <time>2022-05-01T10:12:02Z</time>
      </trkpt>
      <trkpt lat="49.02081" lon="7.82498">
        <ele>287</ele>
        <time>2022-05-01T10:12:03Z</time>
      </trkpt>
      <trkpt lat="49.02084" lon="7.82496">
        <ele>287.2</ele>
        <time>2022-05-01T10:12:04Z</time>
      </trkpt>
      <trkpt lat="49.02085" lon="7.82496">
        <ele>287.4</ele>
        <time>2022-05-01T10:12:05Z</time>
      </trkpt>
      <trkpt lat="49.02086" lon="7.82497">
        <ele>287.4</ele>
        <time>2022-05-01T10:12:06Z</time>
      </trkpt>
      <trkpt lat="49.02086" lon="7.82497">
        <ele>287.4</ele>
        <time>2022-05-01T10:12:07Z</time>
      </trkpt>
      <trkpt lat="49.02088" lon="7.82498">
        <ele>287.6</ele>
        <time>2022-05-01T10:12:08Z</time>
      </trkpt>
      <trkpt lat="49.02091" lon="7.82498">
        <ele>287.8</ele>
        <time>2022-05-01T10:12:09Z</time>
      </trkpt>
      <trkpt lat="49.02094" lon="7.82498">
        <ele>287.8</ele>
        <time>2022-05-01T10:12:10Z</time>
      </trkpt>
      <trkpt lat="49.02098" lon="7.82497">
        <ele>288</ele>
        <time>2022-05-01T10:12:11Z</time>
      </trkpt>
      <trkpt lat="49.02102" lon="7.82496">
        <ele>288.2</ele>
        <time>2022-05-01T10:12:12Z</time>
      </trkpt>
      <trkpt lat="49.02107" lon="7.82495">
        <ele>288.2</ele>
        <time>2022-05-01T10:12:13Z</time>
      </trkpt>
      <trkpt lat="49.0211" lon="7.82495">
        <ele>288.2</ele>
        <time>2022-05-01T10:12:14Z</time>
      </trkpt>
      <trkpt lat="49.02112" lon="7.82495">
        <ele>288.4</ele>
        <time>2022-05-01T10:12:15Z</time>
      </trkpt>
      <trkpt lat="49.02115" lon="7.82495">
        <ele>288.6</ele>
        <time>2022-05-01T10:12:16Z</time>
      </trkpt>
      <trkpt lat="49.02117" lon="7.82493">
        <ele>288.8</ele>
        <time>2022-05-01T10:12:17Z</time>
      </trkpt>
      <trkpt lat="49.0212" lon="7.82492">
        <ele>289</ele>
        <time>2022-05-01T10:12:18Z</time>
      </trkpt>
      <trkpt lat="49.02122" lon="7.82491">
        <ele>289</ele>
        <time>2022-05-01T10:12:19Z</time>
      </trkpt>
      <trkpt lat="49.02123" lon="7.82491">
        <ele>289.2</ele>
        <time>2022-05-01T10:12:20Z</time>
      </trkpt>
      <trkpt lat="49.02125" lon="7.8249">
        <ele>289.4</ele>
        <time>2022-05-01T10:12:21Z</time>
      </trkpt>
      <trkpt lat="49.02127" lon="7.8249">
        <ele>289.6</ele>
        <time>2022-05-01T10:12:22Z</time>
      </trkpt>
      <trkpt lat="49.02129" lon="7.82489">
        <ele>289.6</ele>
        <time>2022-05-01T10:12:23Z</time>
      </trkpt>
      <trkpt lat="49.02132" lon="7.82488">
        <ele>289.8</ele>
        <time>2022-05-01T10:12:24Z</time>
      </trkpt>
      <trkpt lat="49.02134" lon="7.82486">
        <ele>290</ele>
        <time>2022-05-01T10:12:25Z</time>
      </trkpt>
      <trkpt lat="49.02137" lon="7.82485">
        <ele>290</ele>
        <time>2022-05-01T10:12:26Z</time>
      </trkpt>
      <trkpt lat="49.0214" lon="7.82484">
        <ele>290.2</ele>
        <time>2022-05-01T10:12:27Z</time>
      </trkpt>
      <trkpt lat="49.02142" lon="7.82483">
        <ele>290.4</ele>
        <time>2022-05-01T10:12:28Z</time>
      </trkpt>
      <trkpt lat="49.02145" lon="7.82483">
        <ele>290.4</ele>
        <time>2022-05-01T10:12:29Z</time>
      </trkpt>
      <trkpt lat="49.02145" lon="7.82482">
        <ele>290.6</ele>
        <time>2022-05-01T10:12:30Z</time>
      </trkpt>
      <trkpt lat="49.02146" lon="7.82481">
        <ele>290.6</ele>
        <time>2022-05-01T10:12:31Z</time>
      </trkpt>
      <trkpt lat="49.02148" lon="7.8248">
        <ele>290.6</ele>
        <time>2022-05-01T10:12:32Z</time>
      </trkpt>
      <trkpt lat="49.02151" lon="7.8248">
        <ele>290.8</ele>
        <time>2022-05-01T10:12:33Z</time>
      </trkpt>
      <trkpt lat="49.02154" lon="7.8248">
        <ele>290.8</ele>
        <time>2022-05-01T10:12:34Z</time>
      </trkpt>
      <trkpt lat="49.02158" lon="7.82481">
        <ele>291</ele>
        <time>2022-05-01T10:12:35Z</time>
      </trkpt>
      <trkpt lat="49.02162" lon="7.82482">
        <ele>291</ele>
        <time>2022-05-01T10:12:36Z</time>
      </trkpt>
      <trkpt lat="49.02166" lon="7.82483">
        <ele>291.2</ele>
        <time>2022-05-01T10:12:37Z</time>
      </trkpt>
      <trkpt lat="49.0217" lon="7.82484">
        <ele>291.2</ele>
        <time>2022-05-01T10:12:38Z</time>
      </trkpt>
      <trkpt lat="49.02174" lon="7.82485">
        <ele>291.4</ele>
        <time>2022-05-01T10:12:39Z</time>
      </trkpt>
      <trkpt lat="49.02176" lon="7.82487">
        <ele>291.6</ele>
        <time>2022-05-01T10:12:40Z</time>
      </trkpt>
      <trkpt lat="49.02178" lon="7.82489">
        <ele>291.6</ele>
        <time>2022-05-01T10:12:41Z</time>
      </trkpt>
      <trkpt lat="49.02181" lon="7.82492">
        <ele>291.6</ele>
        <time>2022-05-01T10:12:42Z</time>
      </trkpt>
      <trkpt lat="49.02183" lon="7.82493">
        <ele>291.6</ele>
        <time>2022-05-01T10:12:43Z</time>
      </trkpt>
      <trkpt lat="49.02185" lon="7.82493">
        <ele>291.6</ele>
        <time>2022-05-01T10:12:44Z</time>
      </trkpt>
      <trkpt lat="49.02187" lon="7.82495">
        <ele>291.6</ele>
        <time>2022-05-01T10:12:45Z</time>
      </trkpt>
      <trkpt lat="49.02189" lon="7.82498">
        <ele>291.6</ele>
        <time>2022-05-01T10:12:46Z</time>
      </trkpt>
      <trkpt lat="49.0219" lon="7.82498">
        <ele>291.6</ele>
        <time>2022-05-01T10:12:47Z</time>
      </trkpt>
      <trkpt lat="49.0219" lon="7.82498">
        <ele>291.8</ele>
        <time>2022-05-01T10:12:48Z</time>
      </trkpt>
      <trkpt lat="49.02189" lon="7.82499">
        <ele>291.8</ele>
        <time>2022-05-01T10:12:49Z</time>
      </trkpt>
      <trkpt lat="49.02188" lon="7.82499">
        <ele>291.8</ele>
        <time>2022-05-01T10:12:50Z</time>
      </trkpt>
      <trkpt lat="49.02186" lon="7.825">
        <ele>292</ele>
        <time>2022-05-01T10:12:51Z</time>
      </trkpt>
      <trkpt lat="49.02185" lon="7.82499">
        <ele>292</ele>
        <time>2022-05-01T10:12:52Z</time>
      </trkpt>
      <trkpt lat="49.02182" lon="7.82499">
        <ele>292</ele>
        <time>2022-05-01T10:12:54Z</time>
      </trkpt>
      <trkpt lat="49.02181" lon="7.82499">
        <ele>292.2</ele>
        <time>2022-05-01T10:12:55Z</time>
      </trkpt>
      <trkpt lat="49.0218" lon="7.825">
        <ele>292.8</ele>
        <time>2022-05-01T10:12:56Z</time>
      </trkpt>
      <trkpt lat="49.02179" lon="7.82502">
        <ele>292.8</ele>
        <time>2022-05-01T10:12:57Z</time>
      </trkpt>
      <trkpt lat="49.02178" lon="7.82504">
        <ele>293.4</ele>
        <time>2022-05-01T10:12:58Z</time>
      </trkpt>
      <trkpt lat="49.02178" lon="7.82505">
        <ele>293.8</ele>
        <time>2022-05-01T10:13:00Z</time>
      </trkpt>
      <trkpt lat="49.02174" lon="7.8251">
        <ele>294.4</ele>
        <time>2022-05-01T10:13:02Z</time>
      </trkpt>
      <trkpt lat="49.02174" lon="7.82511">
        <ele>294.6</ele>
        <time>2022-05-01T10:13:03Z</time>
      </trkpt>
      <trkpt lat="49.02174" lon="7.82511">
        <ele>295</ele>
        <time>2022-05-01T10:13:04Z</time>
      </trkpt>
      <trkpt lat="49.02174" lon="7.82511">
        <ele>295.2</ele>
        <time>2022-05-01T10:13:05Z</time>
      </trkpt>
      <trkpt lat="49.02171" lon="7.82513">
        <ele>295.8</ele>
        <time>2022-05-01T10:13:07Z</time>
      </trkpt>
      <trkpt lat="49.02171" lon="7.82514">
        <ele>296</ele>
        <time>2022-05-01T10:13:08Z</time>
      </trkpt>
      <trkpt lat="49.02169" lon="7.82516">
        <ele>296.2</ele>
        <time>2022-05-01T10:13:09Z</time>
      </trkpt>
      <trkpt lat="49.02167" lon="7.82518">
        <ele>296.6</ele>
        <time>2022-05-01T10:13:10Z</time>
      </trkpt>
      <trkpt lat="49.02165" lon="7.8252">
        <ele>296.8</ele>
        <time>2022-05-01T10:13:11Z</time>
      </trkpt>
      <trkpt lat="49.02164" lon="7.82522">
        <ele>297.2</ele>
        <time>2022-05-01T10:13:12Z</time>
      </trkpt>
      <trkpt lat="49.02163" lon="7.82524">
        <ele>297.6</ele>
        <time>2022-05-01T10:13:13Z</time>
      </trkpt>
      <trkpt lat="49.02163" lon="7.82524">
        <ele>298</ele>
        <time>2022-05-01T10:13:14Z</time>
      </trkpt>
      <trkpt lat="49.02163" lon="7.82525">
        <ele>298.6</ele>
        <time>2022-05-01T10:13:15Z</time>
      </trkpt>
      <trkpt lat="49.02162" lon="7.82526">
        <ele>299</ele>
        <time>2022-05-01T10:13:16Z</time>
      </trkpt>
      <trkpt lat="49.02162" lon="7.82526">
        <ele>299.4</ele>
        <time>2022-05-01T10:13:17Z</time>
      </trkpt>
      <trkpt lat="49.02162" lon="7.82526">
        <ele>299.6</ele>
        <time>2022-05-01T10:13:18Z</time>
      </trkpt>
      <trkpt lat="49.0216" lon="7.82528">
        <ele>300</ele>
        <time>2022-05-01T10:13:19Z</time>
      </trkpt>
      <trkpt lat="49.02156" lon="7.82529">
        <ele>300.4</ele>
        <time>2022-05-01T10:13:21Z</time>
      </trkpt>
      <trkpt lat="49.02154" lon="7.8253">
        <ele>300.8</ele>
        <time>2022-05-01T10:13:22Z</time>
      </trkpt>
      <trkpt lat="49.02152" lon="7.82531">
        <ele>301</ele>
        <time>2022-05-01T10:13:23Z</time>
      </trkpt>
      <trkpt lat="49.0215" lon="7.82533">
        <ele>301.2</ele>
        <time>2022-05-01T10:13:24Z</time>
      </trkpt>
      <trkpt lat="49.02149" lon="7.82533">
        <ele>301.4</ele>
        <time>2022-05-01T10:13:25Z</time>
      </trkpt>
      <trkpt lat="49.02147" lon="7.82535">
        <ele>301.6</ele>
        <time>2022-05-01T10:13:26Z</time>
      </trkpt>
      <trkpt lat="49.02146" lon="7.82536">
        <ele>301.8</ele>
        <time>2022-05-01T10:13:27Z</time>
      </trkpt>
      <trkpt lat="49.02145" lon="7.82538">
        <ele>302</ele>
        <time>2022-05-01T10:13:28Z</time>
      </trkpt>
      <trkpt lat="49.02144" lon="7.82541">
        <ele>302.2</ele>
        <time>2022-05-01T10:13:29Z</time>
      </trkpt>
      <trkpt lat="49.02145" lon="7.82544">
        <ele>302.4</ele>
        <time>2022-05-01T10:13:30Z</time>
      </trkpt>
      <trkpt lat="49.02149" lon="7.82548">
        <ele>302.6</ele>
        <time>2022-05-01T10:13:31Z</time>
      </trkpt>
      <trkpt lat="49.02149" lon="7.82551">
        <ele>302.8</ele>
        <time>2022-05-01T10:13:32Z</time>
      </trkpt>
      <trkpt lat="49.02148" lon="7.82554">
        <ele>302.8</ele>
        <time>2022-05-01T10:13:33Z</time>
      </trkpt>
      <trkpt lat="49.02147" lon="7.82555">
        <ele>303</ele>
        <time>2022-05-01T10:13:34Z</time>
      </trkpt>
      <trkpt lat="49.02146" lon="7.82557">
        <ele>303.2</ele>
        <time>2022-05-01T10:13:35Z</time>
      </trkpt>
      <trkpt lat="49.02145" lon="7.82559">
        <ele>303.2</ele>
        <time>2022-05-01T10:13:36Z</time>
      </trkpt>
      <trkpt lat="49.02145" lon="7.82561">
        <ele>303.4</ele>
        <time>2022-05-01T10:13:37Z</time>
      </trkpt>
      <trkpt lat="49.02144" lon="7.82563">
        <ele>303.6</ele>
        <time>2022-05-01T10:13:38Z</time>
      </trkpt>
      <trkpt lat="49.02142" lon="7.82564">
        <ele>303.8</ele>
        <time>2022-05-01T10:13:39Z</time>
      </trkpt>
      <trkpt lat="49.02139" lon="7.82565">
        <ele>304</ele>
        <time>2022-05-01T10:13:40Z</time>
      </trkpt>
      <trkpt lat="49.02138" lon="7.82567">
        <ele>304.2</ele>
        <time>2022-05-01T10:13:41Z</time>
      </trkpt>
      <trkpt lat="49.02136" lon="7.82568">
        <ele>304.4</ele>
        <time>2022-05-01T10:13:42Z</time>
      </trkpt>
      <trkpt lat="49.02135" lon="7.8257">
        <ele>304.6</ele>
        <time>2022-05-01T10:13:43Z</time>
      </trkpt>
      <trkpt lat="49.02134" lon="7.82572">
        <ele>304.8</ele>
        <time>2022-05-01T10:13:44Z</time>
      </trkpt>
      <trkpt lat="49.02133" lon="7.82575">
        <ele>305</ele>
        <time>2022-05-01T10:13:45Z</time>
      </trkpt>
      <trkpt lat="49.02133" lon="7.82578">
        <ele>305.2</ele>
        <time>2022-05-01T10:13:46Z</time>
      </trkpt>
      <trkpt lat="49.02134" lon="7.8258">
        <ele>305.2</ele>
        <time>2022-05-01T10:13:47Z</time>
      </trkpt>
      <trkpt lat="49.02134" lon="7.8258">
        <ele>305.4</ele>
        <time>2022-05-01T10:13:48Z</time>
      </trkpt>
      <trkpt lat="49.02134" lon="7.82581">
        <ele>305.8</ele>
        <time>2022-05-01T10:13:49Z</time>
      </trkpt>
      <trkpt lat="49.02133" lon="7.82582">
        <ele>306</ele>
        <time>2022-05-01T10:13:50Z</time>
      </trkpt>
      <trkpt lat="49.02132" lon="7.82583">
        <ele>306.2</ele>
        <time>2022-05-01T10:13:51Z</time>
      </trkpt>
      <trkpt lat="49.02131" lon="7.82584">
        <ele>306.4</ele>
        <time>2022-05-01T10:13:52Z</time>
      </trkpt>
      <trkpt lat="49.02131" lon="7.82586">
        <ele>306.6</ele>
        <time>2022-05-01T10:13:53Z</time>
      </trkpt>
      <trkpt lat="49.0213" lon="7.82587">
        <ele>306.8</ele>
        <time>2022-05-01T10:13:54Z</time>
      </trkpt>
      <trkpt lat="49.02129" lon="7.82588">
        <ele>307.2</ele>
        <time>2022-05-01T10:13:55Z</time>
      </trkpt>
      <trkpt lat="49.02128" lon="7.82588">
        <ele>307.4</ele>
        <time>2022-05-01T10:13:56Z</time>
      </trkpt>
      <trkpt lat="49.02127" lon="7.82589">
        <ele>307.6</ele>
        <time>2022-05-01T10:13:57Z</time>
      </trkpt>
      <trkpt lat="49.02127" lon="7.82591">
        <ele>307.8</ele>
        <time>2022-05-01T10:13:58Z</time>
      </trkpt>
      <trkpt lat="49.02126" lon="7.82591">
        <ele>308</ele>
        <time>2022-05-01T10:13:59Z</time>
      </trkpt>
      <trkpt lat="49.02125" lon="7.82592">
        <ele>308.2</ele>
        <time>2022-05-01T10:14:00Z</time>
      </trkpt>
      <trkpt lat="49.02124" lon="7.82593">
        <ele>308.6</ele>
        <time>2022-05-01T10:14:01Z</time>
      </trkpt>
      <trkpt lat="49.02123" lon="7.82595">
        <ele>308.8</ele>
        <time>2022-05-01T10:14:02Z</time>
      </trkpt>
      <trkpt lat="49.02121" lon="7.82596">
        <ele>309</ele>
        <time>2022-05-01T10:14:03Z</time>
      </trkpt>
      <trkpt lat="49.0212" lon="7.82597">
        <ele>309.2</ele>
        <time>2022-05-01T10:14:04Z</time>
      </trkpt>
      <trkpt lat="49.02119" lon="7.82599">
        <ele>309.4</ele>
        <time>2022-05-01T10:14:05Z</time>
      </trkpt>
      <trkpt lat="49.02119" lon="7.826">
        <ele>309.6</ele>
        <time>2022-05-01T10:14:06Z</time>
      </trkpt>
      <trkpt lat="49.02118" lon="7.82601">
        <ele>309.8</ele>
        <time>2022-05-01T10:14:07Z</time>
      </trkpt>
      <trkpt lat="49.02116" lon="7.82602">
        <ele>310</ele>
        <time>2022-05-01T10:14:08Z</time>
      </trkpt>
      <trkpt lat="49.02115" lon="7.82603">
        <ele>310.2</ele>
        <time>2022-05-01T10:14:09Z</time>
      </trkpt>
      <trkpt lat="49.02114" lon="7.82604">
        <ele>310.4</ele>
        <time>2022-05-01T10:14:10Z</time>
      </trkpt>
      <trkpt lat="49.02113" lon="7.82606">
        <ele>310.6</ele>
        <time>2022-05-01T10:14:11Z</time>
      </trkpt>
      <trkpt lat="49.02112" lon="7.82608">
        <ele>310.6</ele>
        <time>2022-05-01T10:14:12Z</time>
      </trkpt>
      <trkpt lat="49.02111" lon="7.8261">
        <ele>310.8</ele>
        <time>2022-05-01T10:14:13Z</time>
      </trkpt>
      <trkpt lat="49.0211" lon="7.82611">
        <ele>311</ele>
        <time>2022-05-01T10:14:14Z</time>
      </trkpt>
      <trkpt lat="49.02108" lon="7.82613">
        <ele>311.2</ele>
        <time>2022-05-01T10:14:15Z</time>
      </trkpt>
      <trkpt lat="49.02107" lon="7.82615">
        <ele>311.4</ele>
        <time>2022-05-01T10:14:16Z</time>
      </trkpt>
      <trkpt lat="49.02106" lon="7.82616">
        <ele>311.6</ele>
        <time>2022-05-01T10:14:17Z</time>
      </trkpt>
      <trkpt lat="49.02104" lon="7.82617">
        <ele>312</ele>
        <time>2022-05-01T10:14:18Z</time>
      </trkpt>
      <trkpt lat="49.02103" lon="7.82619">
        <ele>312.4</ele>
        <time>2022-05-01T10:14:19Z</time>
      </trkpt>
      <trkpt lat="49.02102" lon="7.8262">
        <ele>312.6</ele>
        <time>2022-05-01T10:14:20Z</time>
      </trkpt>
      <trkpt lat="49.02102" lon="7.82621">
        <ele>312.8</ele>
        <time>2022-05-01T10:14:21Z</time>
      </trkpt>
      <trkpt lat="49.02101" lon="7.82622">
        <ele>313</ele>
        <time>2022-05-01T10:14:22Z</time>
      </trkpt>
      <trkpt lat="49.021" lon="7.82624">
        <ele>313</ele>
        <time>2022-05-01T10:14:23Z</time>
      </trkpt>
      <trkpt lat="49.021" lon="7.82624">
        <ele>313.4</ele>
        <time>2022-05-01T10:14:24Z</time>
      </trkpt>
      <trkpt lat="49.02099" lon="7.82625">
        <ele>313.6</ele>
        <time>2022-05-01T10:14:25Z</time>
      </trkpt>
      <trkpt lat="49.02098" lon="7.82627">
        <ele>313.8</ele>
        <time>2022-05-01T10:14:26Z</time>
      </trkpt>
      <trkpt lat="49.02098" lon="7.82629">
        <ele>314</ele>
        <time>2022-05-01T10:14:27Z</time>
      </trkpt>
      <trkpt lat="49.02097" lon="7.82631">
        <ele>314.2</ele>
        <time>2022-05-01T10:14:28Z</time>
      </trkpt>
      <trkpt lat="49.02097" lon="7.82633">
        <ele>314.4</ele>
        <time>2022-05-01T10:14:29Z</time>
      </trkpt>
      <trkpt lat="49.02095" lon="7.82635">
        <ele>314.6</ele>
        <time>2022-05-01T10:14:30Z</time>
      </trkpt>
      <trkpt lat="49.02095" lon="7.82635">
        <ele>314.8</ele>
        <time>2022-05-01T10:14:31Z</time>
      </trkpt>
      <trkpt lat="49.02093" lon="7.82636">
        <ele>315</ele>
        <time>2022-05-01T10:14:32Z</time>
      </trkpt>
      <trkpt lat="49.02092" lon="7.82637">
        <ele>315.2</ele>
        <time>2022-05-01T10:14:33Z</time>
      </trkpt>
      <trkpt lat="49.02092" lon="7.82637">
        <ele>315.2</ele>
        <time>2022-05-01T10:14:34Z</time>
      </trkpt>
      <trkpt lat="49.02091" lon="7.82639">
        <ele>315.4</ele>
        <time>2022-05-01T10:14:35Z</time>
      </trkpt>
      <trkpt lat="49.02091" lon="7.8264">
        <ele>315.6</ele>
        <time>2022-05-01T10:14:36Z</time>
      </trkpt>
      <trkpt lat="49.02088" lon="7.82643">
        <ele>315.8</ele>
        <time>2022-05-01T10:14:37Z</time>
      </trkpt>
      <trkpt lat="49.02088" lon="7.82644">
        <ele>316</ele>
        <time>2022-05-01T10:14:38Z</time>
      </trkpt>
      <trkpt lat="49.02086" lon="7.82645">
        <ele>316.4</ele>
        <time>2022-05-01T10:14:39Z</time>
      </trkpt>
      <trkpt lat="49.02086" lon="7.82646">
        <ele>316.6</ele>
        <time>2022-05-01T10:14:40Z</time>
      </trkpt>
      <trkpt lat="49.02085" lon="7.82648">
        <ele>316.8</ele>
        <time>2022-05-01T10:14:41Z</time>
      </trkpt>
      <trkpt lat="49.02085" lon="7.82649">
        <ele>317</ele>
        <time>2022-05-01T10:14:42Z</time>
      </trkpt>
      <trkpt lat="49.02083" lon="7.82652">
        <ele>317.2</ele>
        <time>2022-05-01T10:14:43Z</time>
      </trkpt>
      <trkpt lat="49.02083" lon="7.82653">
        <ele>317.4</ele>
        <time>2022-05-01T10:14:44Z</time>
      </trkpt>
      <trkpt lat="49.02083" lon="7.82654">
        <ele>317.8</ele>
        <time>2022-05-01T10:14:45Z</time>
      </trkpt>
      <trkpt lat="49.02083" lon="7.82655">
        <ele>318</ele>
        <time>2022-05-01T10:14:46Z</time>
      </trkpt>
      <trkpt lat="49.02084" lon="7.82656">
        <ele>318.2</ele>
        <time>2022-05-01T10:14:47Z</time>
      </trkpt>
      <trkpt lat="49.02084" lon="7.82657">
        <ele>318.4</ele>
        <time>2022-05-01T10:14:48Z</time>
      </trkpt>
      <trkpt lat="49.02085" lon="7.82658">
        <ele>318.6</ele>
        <time>2022-05-01T10:14:49Z</time>
      </trkpt>
      <trkpt lat="49.02087" lon="7.82659">
        <ele>318.8</ele>
        <time>2022-05-01T10:14:50Z</time>
      </trkpt>
      <trkpt lat="49.02088" lon="7.8266">
        <ele>319</ele>
        <time>2022-05-01T10:14:51Z</time>
      </trkpt>
      <trkpt lat="49.02089" lon="7.8266">
        <ele>319.2</ele>
        <time>2022-05-01T10:14:52Z</time>
      </trkpt>
      <trkpt lat="49.0209" lon="7.8266">
        <ele>319.4</ele>
        <time>2022-05-01T10:14:53Z</time>
      </trkpt>
      <trkpt lat="49.0209" lon="7.8266">
        <ele>319.8</ele>
        <time>2022-05-01T10:14:54Z</time>
      </trkpt>
      <trkpt lat="49.0209" lon="7.8266">
        <ele>320</ele>
        <time>2022-05-01T10:14:55Z</time>
      </trkpt>
      <trkpt lat="49.02091" lon="7.8266">
        <ele>320.2</ele>
        <time>2022-05-01T10:14:56Z</time>
      </trkpt>
      <trkpt lat="49.02094" lon="7.8266">
        <ele>320.4</ele>
        <time>2022-05-01T10:14:57Z</time>
      </trkpt>
      <trkpt lat="49.02096" lon="7.8266">
        <ele>320.4</ele>
        <time>2022-05-01T10:14:58Z</time>
      </trkpt>
      <trkpt lat="49.021" lon="7.82661">
        <ele>320.6</ele>
        <time>2022-05-01T10:14:59Z</time>
      </trkpt>
      <trkpt lat="49.02103" lon="7.82661">
        <ele>320.6</ele>
        <time>2022-05-01T10:15:00Z</time>
      </trkpt>
      <trkpt lat="49.02105" lon="7.82662">
        <ele>320.6</ele>
        <time>2022-05-01T10:15:01Z</time>
      </trkpt>
      <trkpt lat="49.02107" lon="7.82662">
        <ele>320.6</ele>
        <time>2022-05-01T10:15:02Z</time>
      </trkpt>
      <trkpt lat="49.02109" lon="7.82663">
        <ele>320.8</ele>
        <time>2022-05-01T10:15:03Z</time>
      </trkpt>
      <trkpt lat="49.02111" lon="7.82665">
        <ele>320.8</ele>
        <time>2022-05-01T10:15:04Z</time>
      </trkpt>
      <trkpt lat="49.02112" lon="7.82666">
        <ele>320.8</ele>
        <time>2022-05-01T10:15:05Z</time>
      </trkpt>
      <trkpt lat="49.02115" lon="7.82666">
        <ele>320.8</ele>
        <time>2022-05-01T10:15:06Z</time>
      </trkpt>
      <trkpt lat="49.02117" lon="7.82667">
        <ele>320.8</ele>
        <time>2022-05-01T10:15:07Z</time>
      </trkpt>
      <trkpt lat="49.02121" lon="7.82669">
        <ele>321</ele>
        <time>2022-05-01T10:15:08Z</time>
      </trkpt>
      <trkpt lat="49.02124" lon="7.8267">
        <ele>321</ele>
        <time>2022-05-01T10:15:09Z</time>
      </trkpt>
      <trkpt lat="49.02126" lon="7.8267">
        <ele>321</ele>
        <time>2022-05-01T10:15:10Z</time>
      </trkpt>
      <trkpt lat="49.0213" lon="7.82673">
        <ele>321</ele>
        <time>2022-05-01T10:15:11Z</time>
      </trkpt>
      <trkpt lat="49.02133" lon="7.82676">
        <ele>321</ele>
        <time>2022-05-01T10:15:12Z</time>
      </trkpt>
      <trkpt lat="49.02136" lon="7.82678">
        <ele>321.2</ele>
        <time>2022-05-01T10:15:13Z</time>
      </trkpt>
      <trkpt lat="49.02137" lon="7.82678">
        <ele>321.2</ele>
        <time>2022-05-01T10:15:14Z</time>
      </trkpt>
      <trkpt lat="49.0214" lon="7.82679">
        <ele>321.2</ele>
        <time>2022-05-01T10:15:15Z</time>
      </trkpt>
      <trkpt lat="49.02142" lon="7.82679">
        <ele>321.4</ele>
        <time>2022-05-01T10:15:16Z</time>
      </trkpt>
      <trkpt lat="49.02144" lon="7.8268">
        <ele>321.4</ele>
        <time>2022-05-01T10:15:17Z</time>
      </trkpt>
      <trkpt lat="49.02146" lon="7.8268">
        <ele>321.4</ele>
        <time>2022-05-01T10:15:18Z</time>
      </trkpt>
      <trkpt lat="49.02147" lon="7.82681">
        <ele>321.6</ele>
        <time>2022-05-01T10:15:19Z</time>
      </trkpt>
      <trkpt lat="49.02155" lon="7.82684">
        <ele>321.8</ele>
        <time>2022-05-01T10:15:22Z</time>
      </trkpt>
      <trkpt lat="49.02158" lon="7.82686">
        <ele>321.8</ele>
        <time>2022-05-01T10:15:23Z</time>
      </trkpt>
      <trkpt lat="49.02159" lon="7.82688">
        <ele>321.8</ele>
        <time>2022-05-01T10:15:24Z</time>
      </trkpt>
      <trkpt lat="49.0216" lon="7.82691">
        <ele>321.8</ele>
        <time>2022-05-01T10:15:25Z</time>
      </trkpt>
      <trkpt lat="49.02163" lon="7.82694">
        <ele>321.8</ele>
        <time>2022-05-01T10:15:26Z</time>
      </trkpt>
      <trkpt lat="49.02164" lon="7.82698">
        <ele>322</ele>
        <time>2022-05-01T10:15:27Z</time>
      </trkpt>
      <trkpt lat="49.02162" lon="7.82701">
        <ele>322</ele>
        <time>2022-05-01T10:15:29Z</time>
      </trkpt>
      <trkpt lat="49.02156" lon="7.82705">
        <ele>322.2</ele>
        <time>2022-05-01T10:15:33Z</time>
      </trkpt>
      <trkpt lat="49.02155" lon="7.82704">
        <ele>322.2</ele>
        <time>2022-05-01T10:15:34Z</time>
      </trkpt>
      <trkpt lat="49.02152" lon="7.82706">
        <ele>322.4</ele>
        <time>2022-05-01T10:15:35Z</time>
      </trkpt>
      <trkpt lat="49.0215" lon="7.82707">
        <ele>322.4</ele>
        <time>2022-05-01T10:15:36Z</time>
      </trkpt>
      <trkpt lat="49.02144" lon="7.82717">
        <ele>323.2</ele>
        <time>2022-05-01T10:15:39Z</time>
      </trkpt>
      <trkpt lat="49.02143" lon="7.82721">
        <ele>323.6</ele>
        <time>2022-05-01T10:15:40Z</time>
      </trkpt>
      <trkpt lat="49.02142" lon="7.82723">
        <ele>323.8</ele>
        <time>2022-05-01T10:15:41Z</time>
      </trkpt>
      <trkpt lat="49.0214" lon="7.82725">
        <ele>324</ele>
        <time>2022-05-01T10:15:42Z</time>
      </trkpt>
      <trkpt lat="49.0214" lon="7.82725">
        <ele>324.4</ele>
        <time>2022-05-01T10:15:43Z</time>
      </trkpt>
      <trkpt lat="49.02139" lon="7.8273">
        <ele>325</ele>
        <time>2022-05-01T10:15:45Z</time>
      </trkpt>
      <trkpt lat="49.02137" lon="7.82731">
        <ele>325.2</ele>
        <time>2022-05-01T10:15:46Z</time>
      </trkpt>
      <trkpt lat="49.02136" lon="7.82732">
        <ele>325.4</ele>
        <time>2022-05-01T10:15:47Z</time>
      </trkpt>
      <trkpt lat="49.02133" lon="7.82734">
        <ele>325.6</ele>
        <time>2022-05-01T10:15:48Z</time>
      </trkpt>
      <trkpt lat="49.0213" lon="7.82736">
        <ele>325.8</ele>
        <time>2022-05-01T10:15:49Z</time>
      </trkpt>
      <trkpt lat="49.02128" lon="7.82738">
        <ele>326</ele>
        <time>2022-05-01T10:15:50Z</time>
      </trkpt>
      <trkpt lat="49.02125" lon="7.8274">
        <ele>326.4</ele>
        <time>2022-05-01T10:15:51Z</time>
      </trkpt>
      <trkpt lat="49.02123" lon="7.82742">
        <ele>326.6</ele>
        <time>2022-05-01T10:15:52Z</time>
      </trkpt>
      <trkpt lat="49.02121" lon="7.82745">
        <ele>326.8</ele>
        <time>2022-05-01T10:15:53Z</time>
      </trkpt>
      <trkpt lat="49.02119" lon="7.82749">
        <ele>327</ele>
        <time>2022-05-01T10:15:54Z</time>
      </trkpt>
      <trkpt lat="49.02118" lon="7.82754">
        <ele>327.2</ele>
        <time>2022-05-01T10:15:55Z</time>
      </trkpt>
      <trkpt lat="49.02117" lon="7.82758">
        <ele>327.4</ele>
        <time>2022-05-01T10:15:56Z</time>
      </trkpt>
      <trkpt lat="49.02116" lon="7.82761">
        <ele>327.6</ele>
        <time>2022-05-01T10:15:57Z</time>
      </trkpt>
      <trkpt lat="49.02115" lon="7.82763">
        <ele>327.6</ele>
        <time>2022-05-01T10:15:58Z</time>
      </trkpt>
      <trkpt lat="49.02114" lon="7.82767">
        <ele>327.8</ele>
        <time>2022-05-01T10:15:59Z</time>
      </trkpt>
      <trkpt lat="49.02113" lon="7.8277">
        <ele>328</ele>
        <time>2022-05-01T10:16:00Z</time>
      </trkpt>
      <trkpt lat="49.02113" lon="7.82773">
        <ele>328.2</ele>
        <time>2022-05-01T10:16:01Z</time>
      </trkpt>
      <trkpt lat="49.02116" lon="7.82776">
        <ele>328.2</ele>
        <time>2022-05-01T10:16:02Z</time>
      </trkpt>
      <trkpt lat="49.02118" lon="7.82779">
        <ele>328.4</ele>
        <time>2022-05-01T10:16:03Z</time>
      </trkpt>
      <trkpt lat="49.02117" lon="7.82783">
        <ele>328.6</ele>
        <time>2022-05-01T10:16:04Z</time>
      </trkpt>
      <trkpt lat="49.02116" lon="7.82787">
        <ele>328.8</ele>
        <time>2022-05-01T10:16:05Z</time>
      </trkpt>
      <trkpt lat="49.02116" lon="7.8279">
        <ele>329</ele>
        <time>2022-05-01T10:16:06Z</time>
      </trkpt>
      <trkpt lat="49.02115" lon="7.82792">
        <ele>329.2</ele>
        <time>2022-05-01T10:16:07Z</time>
      </trkpt>
      <trkpt lat="49.02114" lon="7.82794">
        <ele>329.4</ele>
        <time>2022-05-01T10:16:08Z</time>
      </trkpt>
      <trkpt lat="49.02113" lon="7.82795">
        <ele>329.8</ele>
        <time>2022-05-01T10:16:09Z</time>
      </trkpt>
      <trkpt lat="49.02113" lon="7.82797">
        <ele>329.8</ele>
        <time>2022-05-01T10:16:10Z</time>
      </trkpt>
      <trkpt lat="49.02112" lon="7.82799">
        <ele>329.8</ele>
        <time>2022-05-01T10:16:11Z</time>
      </trkpt>
      <trkpt lat="49.02111" lon="7.82801">
        <ele>330.2</ele>
        <time>2022-05-01T10:16:12Z</time>
      </trkpt>
      <trkpt lat="49.0211" lon="7.82802">
        <ele>330.4</ele>
        <time>2022-05-01T10:16:13Z</time>
      </trkpt>
      <trkpt lat="49.02109" lon="7.82805">
        <ele>330.6</ele>
        <time>2022-05-01T10:16:14Z</time>
      </trkpt>
      <trkpt lat="49.02108" lon="7.82807">
        <ele>331</ele>
        <time>2022-05-01T10:16:15Z</time>
      </trkpt>
      <trkpt lat="49.02107" lon="7.82809">
        <ele>331.2</ele>
        <time>2022-05-01T10:16:16Z</time>
      </trkpt>
      <trkpt lat="49.02107" lon="7.82812">
        <ele>331.4</ele>
        <time>2022-05-01T10:16:17Z</time>
      </trkpt>
      <trkpt lat="49.02106" lon="7.82814">
        <ele>331.6</ele>
        <time>2022-05-01T10:16:18Z</time>
      </trkpt>
      <trkpt lat="49.02104" lon="7.82817">
        <ele>331.8</ele>
        <time>2022-05-01T10:16:19Z</time>
      </trkpt>
      <trkpt lat="49.02103" lon="7.8282">
        <ele>332</ele>
        <time>2022-05-01T10:16:20Z</time>
      </trkpt>
      <trkpt lat="49.02102" lon="7.82823">
        <ele>332.4</ele>
        <time>2022-05-01T10:16:21Z</time>
      </trkpt>
      <trkpt lat="49.02101" lon="7.82825">
        <ele>332.4</ele>
        <time>2022-05-01T10:16:22Z</time>
      </trkpt>
      <trkpt lat="49.02099" lon="7.82827">
        <ele>332.6</ele>
        <time>2022-05-01T10:16:23Z</time>
      </trkpt>
      <trkpt lat="49.02097" lon="7.82829">
        <ele>332.8</ele>
        <time>2022-05-01T10:16:24Z</time>
      </trkpt>
      <trkpt lat="49.02095" lon="7.82831">
        <ele>333</ele>
        <time>2022-05-01T10:16:25Z</time>
      </trkpt>
      <trkpt lat="49.02093" lon="7.82834">
        <ele>333.2</ele>
        <time>2022-05-01T10:16:26Z</time>
      </trkpt>
      <trkpt lat="49.0209" lon="7.82837">
        <ele>333.4</ele>
        <time>2022-05-01T10:16:27Z</time>
      </trkpt>
      <trkpt lat="49.02089" lon="7.8284">
        <ele>333.6</ele>
        <time>2022-05-01T10:16:28Z</time>
      </trkpt>
      <trkpt lat="49.02089" lon="7.82842">
        <ele>333.8</ele>
        <time>2022-05-01T10:16:29Z</time>
      </trkpt>
      <trkpt lat="49.02088" lon="7.82844">
        <ele>334</ele>
        <time>2022-05-01T10:16:30Z</time>
      </trkpt>
      <trkpt lat="49.02087" lon="7.82846">
        <ele>334.2</ele>
        <time>2022-05-01T10:16:31Z</time>
      </trkpt>
      <trkpt lat="49.02085" lon="7.82849">
        <ele>334.4</ele>
        <time>2022-05-01T10:16:32Z</time>
      </trkpt>
      <trkpt lat="49.02084" lon="7.82851">
        <ele>334.4</ele>
        <time>2022-05-01T10:16:33Z</time>
      </trkpt>
      <trkpt lat="49.02082" lon="7.82853">
        <ele>334.6</ele>
        <time>2022-05-01T10:16:34Z</time>
      </trkpt>
      <trkpt lat="49.02081" lon="7.82855">
        <ele>334.8</ele>
        <time>2022-05-01T10:16:35Z</time>
      </trkpt>
      <trkpt lat="49.0208" lon="7.82857">
        <ele>335</ele>
        <time>2022-05-01T10:16:36Z</time>
      </trkpt>
      <trkpt lat="49.02078" lon="7.82859">
        <ele>335</ele>
        <time>2022-05-01T10:16:37Z</time>
      </trkpt>
      <trkpt lat="49.02077" lon="7.82862">
        <ele>335.4</ele>
        <time>2022-05-01T10:16:38Z</time>
      </trkpt>
      <trkpt lat="49.02075" lon="7.82864">
        <ele>335.8</ele>
        <time>2022-05-01T10:16:39Z</time>
      </trkpt>
      <trkpt lat="49.02074" lon="7.82867">
        <ele>336</ele>
        <time>2022-05-01T10:16:40Z</time>
      </trkpt>
      <trkpt lat="49.02073" lon="7.82869">
        <ele>336.2</ele>
        <time>2022-05-01T10:16:41Z</time>
      </trkpt>
      <trkpt lat="49.02072" lon="7.82872">
        <ele>336.4</ele>
        <time>2022-05-01T10:16:42Z</time>
      </trkpt>
      <trkpt lat="49.0207" lon="7.82875">
        <ele>336.6</ele>
        <time>2022-05-01T10:16:43Z</time>
      </trkpt>
      <trkpt lat="49.02069" lon="7.82877">
        <ele>336.8</ele>
        <time>2022-05-01T10:16:44Z</time>
      </trkpt>
      <trkpt lat="49.02067" lon="7.82879">
        <ele>337</ele>
        <time>2022-05-01T10:16:45Z</time>
      </trkpt>
      <trkpt lat="49.02067" lon="7.82882">
        <ele>337.2</ele>
        <time>2022-05-01T10:16:46Z</time>
      </trkpt>
      <trkpt lat="49.02066" lon="7.82885">
        <ele>337.4</ele>
        <time>2022-05-01T10:16:47Z</time>
      </trkpt>
      <trkpt lat="49.02064" lon="7.82888">
        <ele>337.6</ele>
        <time>2022-05-01T10:16:48Z</time>
      </trkpt>
      <trkpt lat="49.02062" lon="7.82891">
        <ele>337.8</ele>
        <time>2022-05-01T10:16:49Z</time>
      </trkpt>
      <trkpt lat="49.02061" lon="7.82893">
        <ele>338</ele>
        <time>2022-05-01T10:16:50Z</time>
      </trkpt>
      <trkpt lat="49.0206" lon="7.82896">
        <ele>338.2</ele>
        <time>2022-05-01T10:16:51Z</time>
      </trkpt>
      <trkpt lat="49.02059" lon="7.82898">
        <ele>338.4</ele>
        <time>2022-05-01T10:16:52Z</time>
      </trkpt>
      <trkpt lat="49.02058" lon="7.82901">
        <ele>338.4</ele>
        <time>2022-05-01T10:16:53Z</time>
      </trkpt>
      <trkpt lat="49.02058" lon="7.82903">
        <ele>338.6</ele>
        <time>2022-05-01T10:16:54Z</time>
      </trkpt>
      <trkpt lat="49.02057" lon="7.82905">
        <ele>338.8</ele>
        <time>2022-05-01T10:16:55Z</time>
      </trkpt>
      <trkpt lat="49.02056" lon="7.82908">
        <ele>339</ele>
        <time>2022-05-01T10:16:56Z</time>
      </trkpt>
      <trkpt lat="49.02055" lon="7.82911">
        <ele>339</ele>
        <time>2022-05-01T10:16:57Z</time>
      </trkpt>
      <trkpt lat="49.02054" lon="7.82914">
        <ele>339.2</ele>
        <time>2022-05-01T10:16:58Z</time>
      </trkpt>
      <trkpt lat="49.02053" lon="7.82917">
        <ele>339.4</ele>
        <time>2022-05-01T10:16:59Z</time>
      </trkpt>
      <trkpt lat="49.02051" lon="7.82919">
        <ele>339.4</ele>
        <time>2022-05-01T10:17:00Z</time>
      </trkpt>
      <trkpt lat="49.0205" lon="7.82922">
        <ele>339.6</ele>
        <time>2022-05-01T10:17:01Z</time>
      </trkpt>
      <trkpt lat="49.02049" lon="7.82924">
        <ele>339.8</ele>
        <time>2022-05-01T10:17:02Z</time>
      </trkpt>
      <trkpt lat="49.02049" lon="7.82927">
        <ele>340</ele>
        <time>2022-05-01T10:17:03Z</time>
      </trkpt>
      <trkpt lat="49.02049" lon="7.82931">
        <ele>340</ele>
        <time>2022-05-01T10:17:04Z</time>
      </trkpt>
      <trkpt lat="49.02049" lon="7.82935">
        <ele>340.4</ele>
        <time>2022-05-01T10:17:05Z</time>
      </trkpt>
      <trkpt lat="49.0205" lon="7.82938">
        <ele>340.6</ele>
        <time>2022-05-01T10:17:06Z</time>
      </trkpt>
      <trkpt lat="49.02049" lon="7.82941">
        <ele>340.8</ele>
        <time>2022-05-01T10:17:07Z</time>
      </trkpt>
      <trkpt lat="49.02048" lon="7.82944">
        <ele>340.8</ele>
        <time>2022-05-01T10:17:08Z</time>
      </trkpt>
      <trkpt lat="49.02047" lon="7.82947">
        <ele>340.8</ele>
        <time>2022-05-01T10:17:09Z</time>
      </trkpt>
      <trkpt lat="49.02046" lon="7.82951">
        <ele>341</ele>
        <time>2022-05-01T10:17:10Z</time>
      </trkpt>
      <trkpt lat="49.02046" lon="7.82954">
        <ele>341.2</ele>
        <time>2022-05-01T10:17:11Z</time>
      </trkpt>
      <trkpt lat="49.02046" lon="7.82958">
        <ele>341.6</ele>
        <time>2022-05-01T10:17:12Z</time>
      </trkpt>
      <trkpt lat="49.02045" lon="7.82961">
        <ele>341.8</ele>
        <time>2022-05-01T10:17:13Z</time>
      </trkpt>
      <trkpt lat="49.02046" lon="7.82965">
        <ele>342</ele>
        <time>2022-05-01T10:17:14Z</time>
      </trkpt>
      <trkpt lat="49.02046" lon="7.82968">
        <ele>342.2</ele>
        <time>2022-05-01T10:17:15Z</time>
      </trkpt>
      <trkpt lat="49.02047" lon="7.82972">
        <ele>342.4</ele>
        <time>2022-05-01T10:17:16Z</time>
      </trkpt>
      <trkpt lat="49.02047" lon="7.82975">
        <ele>342.4</ele>
        <time>2022-05-01T10:17:17Z</time>
      </trkpt>
      <trkpt lat="49.02047" lon="7.82978">
        <ele>342.6</ele>
        <time>2022-05-01T10:17:18Z</time>
      </trkpt>
      <trkpt lat="49.02047" lon="7.82982">
        <ele>342.8</ele>
        <time>2022-05-01T10:17:19Z</time>
      </trkpt>
      <trkpt lat="49.02049" lon="7.82985">
        <ele>343</ele>
        <time>2022-05-01T10:17:20Z</time>
      </trkpt>
      <trkpt lat="49.02051" lon="7.82989">
        <ele>343.2</ele>
        <time>2022-05-01T10:17:21Z</time>
      </trkpt>
      <trkpt lat="49.02051" lon="7.82992">
        <ele>343.4</ele>
        <time>2022-05-01T10:17:22Z</time>
      </trkpt>
      <trkpt lat="49.02051" lon="7.82995">
        <ele>343.4</ele>
        <time>2022-05-01T10:17:23Z</time>
      </trkpt>
      <trkpt lat="49.02051" lon="7.82999">
        <ele>343.6</ele>
        <time>2022-05-01T10:17:24Z</time>
      </trkpt>
      <trkpt lat="49.02052" lon="7.83003">
        <ele>343.8</ele>
        <time>2022-05-01T10:17:25Z</time>
      </trkpt>
      <trkpt lat="49.02053" lon="7.83007">
        <ele>343.8</ele>
        <time>2022-05-01T10:17:26Z</time>
      </trkpt>
      <trkpt lat="49.02053" lon="7.83011">
        <ele>344</ele>
        <time>2022-05-01T10:17:27Z</time>
      </trkpt>
      <trkpt lat="49.02053" lon="7.83015">
        <ele>344.2</ele>
        <time>2022-05-01T10:17:28Z</time>
      </trkpt>
      <trkpt lat="49.02054" lon="7.83019">
        <ele>344.4</ele>
        <time>2022-05-01T10:17:29Z</time>
      </trkpt>
      <trkpt lat="49.02054" lon="7.83023">
        <ele>344.6</ele>
        <time>2022-05-01T10:17:30Z</time>
      </trkpt>
      <trkpt lat="49.02053" lon="7.83027">
        <ele>344.8</ele>
        <time>2022-05-01T10:17:31Z</time>
      </trkpt>
      <trkpt lat="49.02052" lon="7.8303">
        <ele>345</ele>
        <time>2022-05-01T10:17:32Z</time>
      </trkpt>
      <trkpt lat="49.02051" lon="7.83034">
        <ele>345</ele>
        <time>2022-05-01T10:17:33Z</time>
      </trkpt>
      <trkpt lat="49.02048" lon="7.83036">
        <ele>345.2</ele>
        <time>2022-05-01T10:17:34Z</time>
      </trkpt>
      <trkpt lat="49.02047" lon="7.83039">
        <ele>345.4</ele>
        <time>2022-05-01T10:17:35Z</time>
      </trkpt>
      <trkpt lat="49.02045" lon="7.83042">
        <ele>345.6</ele>
        <time>2022-05-01T10:17:36Z</time>
      </trkpt>
      <trkpt lat="49.02043" lon="7.83045">
        <ele>345.8</ele>
        <time>2022-05-01T10:17:37Z</time>
      </trkpt>
      <trkpt lat="49.02042" lon="7.83049">
        <ele>346</ele>
        <time>2022-05-01T10:17:38Z</time>
      </trkpt>
      <trkpt lat="49.0204" lon="7.83053">
        <ele>346.2</ele>
        <time>2022-05-01T10:17:39Z</time>
      </trkpt>
      <trkpt lat="49.02039" lon="7.83056">
        <ele>346.2</ele>
        <time>2022-05-01T10:17:40Z</time>
      </trkpt>
      <trkpt lat="49.02037" lon="7.8306">
        <ele>346.4</ele>
        <time>2022-05-01T10:17:41Z</time>
      </trkpt>
      <trkpt lat="49.02035" lon="7.83063">
        <ele>346.6</ele>
        <time>2022-05-01T10:17:42Z</time>
      </trkpt>
      <trkpt lat="49.02034" lon="7.83067">
        <ele>346.6</ele>
        <time>2022-05-01T10:17:43Z</time>
      </trkpt>
      <trkpt lat="49.02032" lon="7.83071">
        <ele>346.8</ele>
        <time>2022-05-01T10:17:44Z</time>
      </trkpt>
      <trkpt lat="49.0203" lon="7.83075">
        <ele>346.8</ele>
        <time>2022-05-01T10:17:45Z</time>
      </trkpt>
      <trkpt lat="49.02028" lon="7.83079">
        <ele>347</ele>
        <time>2022-05-01T10:17:46Z</time>
      </trkpt>
      <trkpt lat="49.02025" lon="7.83082">
        <ele>347</ele>
        <time>2022-05-01T10:17:47Z</time>
      </trkpt>
      <trkpt lat="49.02023" lon="7.83086">
        <ele>347.2</ele>
        <time>2022-05-01T10:17:48Z</time>
      </trkpt>
      <trkpt lat="49.02022" lon="7.8309">
        <ele>347.2</ele>
        <time>2022-05-01T10:17:49Z</time>
      </trkpt>
      <trkpt lat="49.0202" lon="7.83094">
        <ele>347.2</ele>
        <time>2022-05-01T10:17:50Z</time>
      </trkpt>
      <trkpt lat="49.02019" lon="7.83098">
        <ele>347.4</ele>
        <time>2022-05-01T10:17:51Z</time>
      </trkpt>
      <trkpt lat="49.02018" lon="7.83102">
        <ele>347.4</ele>
        <time>2022-05-01T10:17:52Z</time>
      </trkpt>
      <trkpt lat="49.02017" lon="7.83106">
        <ele>347.6</ele>
        <time>2022-05-01T10:17:53Z</time>
      </trkpt>
      <trkpt lat="49.02015" lon="7.8311">
        <ele>347.6</ele>
        <time>2022-05-01T10:17:54Z</time>
      </trkpt>
      <trkpt lat="49.02013" lon="7.83113">
        <ele>347.6</ele>
        <time>2022-05-01T10:17:55Z</time>
      </trkpt>
      <trkpt lat="49.02011" lon="7.83116">
        <ele>347.8</ele>
        <time>2022-05-01T10:17:56Z</time>
      </trkpt>
      <trkpt lat="49.02009" lon="7.83119">
        <ele>348</ele>
        <time>2022-05-01T10:17:57Z</time>
      </trkpt>
      <trkpt lat="49.02007" lon="7.83123">
        <ele>348.2</ele>
        <time>2022-05-01T10:17:58Z</time>
      </trkpt>
      <trkpt lat="49.02006" lon="7.83127">
        <ele>348.4</ele>
        <time>2022-05-01T10:17:59Z</time>
      </trkpt>
      <trkpt lat="49.02006" lon="7.83131">
        <ele>348.4</ele>
        <time>2022-05-01T10:18:00Z</time>
      </trkpt>
      <trkpt lat="49.02006" lon="7.83135">
        <ele>348.6</ele>
        <time>2022-05-01T10:18:01Z</time>
      </trkpt>
      <trkpt lat="49.02005" lon="7.83139">
        <ele>348.8</ele>
        <time>2022-05-01T10:18:02Z</time>
      </trkpt>
      <trkpt lat="49.02003" lon="7.83142">
        <ele>349</ele>
        <time>2022-05-01T10:18:03Z</time>
      </trkpt>
      <trkpt lat="49.02001" lon="7.83146">
        <ele>349.4</ele>
        <time>2022-05-01T10:18:04Z</time>
      </trkpt>
      <trkpt lat="49.02" lon="7.83151">
        <ele>349.6</ele>
        <time>2022-05-01T10:18:05Z</time>
      </trkpt>
      <trkpt lat="49.01999" lon="7.83155">
        <ele>349.8</ele>
        <time>2022-05-01T10:18:06Z</time>
      </trkpt>
      <trkpt lat="49.01999" lon="7.83159">
        <ele>349.8</ele>
        <time>2022-05-01T10:18:07Z</time>
      </trkpt>
      <trkpt lat="49.02" lon="7.83163">
        <ele>350</ele>
        <time>2022-05-01T10:18:08Z</time>
      </trkpt>
      <trkpt lat="49.01999" lon="7.83168">
        <ele>350.2</ele>
        <time>2022-05-01T10:18:09Z</time>
      </trkpt>
      <trkpt lat="49.01997" lon="7.83172">
        <ele>350.2</ele>
        <time>2022-05-01T10:18:10Z</time>
      </trkpt>
      <trkpt lat="49.01997" lon="7.83176">
        <ele>350.4</ele>
        <time>2022-05-01T10:18:11Z</time>
      </trkpt>
      <trkpt lat="49.01998" lon="7.83181">
        <ele>350.6</ele>
        <time>2022-05-01T10:18:12Z</time>
      </trkpt>
      <trkpt lat="49.01997" lon="7.83185">
        <ele>350.6</ele>
        <time>2022-05-01T10:18:13Z</time>
      </trkpt>
      <trkpt lat="49.01998" lon="7.8319">
        <ele>351</ele>
        <time>2022-05-01T10:18:14Z</time>
      </trkpt>
      <trkpt lat="49.01997" lon="7.83195">
        <ele>351.2</ele>
        <time>2022-05-01T10:18:15Z</time>
      </trkpt>
      <trkpt lat="49.01996" lon="7.83199">
        <ele>351.4</ele>
        <time>2022-05-01T10:18:16Z</time>
      </trkpt>
      <trkpt lat="49.01997" lon="7.83204">
        <ele>351.6</ele>
        <time>2022-05-01T10:18:17Z</time>
      </trkpt>
      <trkpt lat="49.01999" lon="7.83209">
        <ele>351.6</ele>
        <time>2022-05-01T10:18:18Z</time>
      </trkpt>
      <trkpt lat="49.02003" lon="7.83214">
        <ele>351.8</ele>
        <time>2022-05-01T10:18:19Z</time>
      </trkpt>
      <trkpt lat="49.02004" lon="7.83219">
        <ele>351.8</ele>
        <time>2022-05-01T10:18:20Z</time>
      </trkpt>
      <trkpt lat="49.02005" lon="7.83224">
        <ele>352</ele>
        <time>2022-05-01T10:18:21Z</time>
      </trkpt>
      <trkpt lat="49.02005" lon="7.83229">
        <ele>352.2</ele>
        <time>2022-05-01T10:18:22Z</time>
      </trkpt>
      <trkpt lat="49.02004" lon="7.83234">
        <ele>352.4</ele>
        <time>2022-05-01T10:18:23Z</time>
      </trkpt>
      <trkpt lat="49.02004" lon="7.83239">
        <ele>352.4</ele>
        <time>2022-05-01T10:18:24Z</time>
      </trkpt>
      <trkpt lat="49.02003" lon="7.83244">
        <ele>352.6</ele>
        <time>2022-05-01T10:18:25Z</time>
      </trkpt>
      <trkpt lat="49.02003" lon="7.83248">
        <ele>353</ele>
        <time>2022-05-01T10:18:26Z</time>
      </trkpt>
      <trkpt lat="49.02003" lon="7.83253">
        <ele>353</ele>
        <time>2022-05-01T10:18:27Z</time>
      </trkpt>
      <trkpt lat="49.02003" lon="7.83257">
        <ele>353.4</ele>
        <time>2022-05-01T10:18:28Z</time>
      </trkpt>
      <trkpt lat="49.02003" lon="7.83262">
        <ele>353.6</ele>
        <time>2022-05-01T10:18:29Z</time>
      </trkpt>
      <trkpt lat="49.02003" lon="7.83267">
        <ele>353.8</ele>
        <time>2022-05-01T10:18:30Z</time>
      </trkpt>
      <trkpt lat="49.02003" lon="7.83271">
        <ele>353.8</ele>
        <time>2022-05-01T10:18:31Z</time>
      </trkpt>
      <trkpt lat="49.02001" lon="7.83275">
        <ele>354</ele>
        <time>2022-05-01T10:18:32Z</time>
      </trkpt>
      <trkpt lat="49.02" lon="7.83279">
        <ele>354.2</ele>
        <time>2022-05-01T10:18:33Z</time>
      </trkpt>
      <trkpt lat="49.01999" lon="7.83284">
        <ele>354.4</ele>
        <time>2022-05-01T10:18:34Z</time>
      </trkpt>
      <trkpt lat="49.01999" lon="7.83288">
        <ele>354.4</ele>
        <time>2022-05-01T10:18:35Z</time>
      </trkpt>
      <trkpt lat="49.01998" lon="7.83293">
        <ele>354.8</ele>
        <time>2022-05-01T10:18:36Z</time>
      </trkpt>
      <trkpt lat="49.01998" lon="7.83297">
        <ele>354.8</ele>
        <time>2022-05-01T10:18:37Z</time>
      </trkpt>
      <trkpt lat="49.01997" lon="7.83301">
        <ele>355</ele>
        <time>2022-05-01T10:18:38Z</time>
      </trkpt>
      <trkpt lat="49.01996" lon="7.83305">
        <ele>355.2</ele>
        <time>2022-05-01T10:18:39Z</time>
      </trkpt>
      <trkpt lat="49.01996" lon="7.83309">
        <ele>355.4</ele>
        <time>2022-05-01T10:18:40Z</time>
      </trkpt>
      <trkpt lat="49.01996" lon="7.83313">
        <ele>355.6</ele>
        <time>2022-05-01T10:18:41Z</time>
      </trkpt>
      <trkpt lat="49.01995" lon="7.83318">
        <ele>355.6</ele>
        <time>2022-05-01T10:18:42Z</time>
      </trkpt>
      <trkpt lat="49.01994" lon="7.83322">
        <ele>356</ele>
        <time>2022-05-01T10:18:43Z</time>
      </trkpt>
      <trkpt lat="49.01993" lon="7.83326">
        <ele>356.2</ele>
        <time>2022-05-01T10:18:44Z</time>
      </trkpt>
      <trkpt lat="49.01993" lon="7.83331">
        <ele>356.4</ele>
        <time>2022-05-01T10:18:45Z</time>
      </trkpt>
      <trkpt lat="49.01994" lon="7.83335">
        <ele>356.4</ele>
        <time>2022-05-01T10:18:46Z</time>
      </trkpt>
      <trkpt lat="49.01994" lon="7.83339">
        <ele>356.6</ele>
        <time>2022-05-01T10:18:47Z</time>
      </trkpt>
      <trkpt lat="49.01994" lon="7.83344">
        <ele>356.8</ele>
        <time>2022-05-01T10:18:48Z</time>
      </trkpt>
      <trkpt lat="49.01994" lon="7.83348">
        <ele>357</ele>
        <time>2022-05-01T10:18:49Z</time>
      </trkpt>
      <trkpt lat="49.01995" lon="7.83353">
        <ele>357.2</ele>
        <time>2022-05-01T10:18:50Z</time>
      </trkpt>
      <trkpt lat="49.01995" lon="7.83358">
        <ele>357.2</ele>
        <time>2022-05-01T10:18:51Z</time>
      </trkpt>
      <trkpt lat="49.01995" lon="7.83362">
        <ele>357.4</ele>
        <time>2022-05-01T10:18:52Z</time>
      </trkpt>
      <trkpt lat="49.01994" lon="7.83366">
        <ele>357.4</ele>
        <time>2022-05-01T10:18:53Z</time>
      </trkpt>
      <trkpt lat="49.01994" lon="7.83371">
        <ele>357.4</ele>
        <time>2022-05-01T10:18:54Z</time>
      </trkpt>
      <trkpt lat="49.01994" lon="7.83375">
        <ele>357.6</ele>
        <time>2022-05-01T10:18:55Z</time>
      </trkpt>
      <trkpt lat="49.01994" lon="7.8338">
        <ele>357.6</ele>
        <time>2022-05-01T10:18:56Z</time>
      </trkpt>
      <trkpt lat="49.01995" lon="7.83385">
        <ele>357.6</ele>
        <time>2022-05-01T10:18:57Z</time>
      </trkpt>
      <trkpt lat="49.01996" lon="7.8339">
        <ele>357.6</ele>
        <time>2022-05-01T10:18:58Z</time>
      </trkpt>
      <trkpt lat="49.01996" lon="7.83394">
        <ele>357.8</ele>
        <time>2022-05-01T10:18:59Z</time>
      </trkpt>
      <trkpt lat="49.01995" lon="7.83399">
        <ele>357.8</ele>
        <time>2022-05-01T10:19:00Z</time>
      </trkpt>
      <trkpt lat="49.01994" lon="7.83404">
        <ele>357.8</ele>
        <time>2022-05-01T10:19:01Z</time>
      </trkpt>
      <trkpt lat="49.01993" lon="7.83409">
        <ele>358</ele>
        <time>2022-05-01T10:19:02Z</time>
      </trkpt>
      <trkpt lat="49.01993" lon="7.83413">
        <ele>358.2</ele>
        <time>2022-05-01T10:19:03Z</time>
      </trkpt>
      <trkpt lat="49.01993" lon="7.83417">
        <ele>358.4</ele>
        <time>2022-05-01T10:19:04Z</time>
      </trkpt>
      <trkpt lat="49.01994" lon="7.8342">
        <ele>358.4</ele>
        <time>2022-05-01T10:19:05Z</time>
      </trkpt>
      <trkpt lat="49.01996" lon="7.8342">
        <ele>358.6</ele>
        <time>2022-05-01T10:19:06Z</time>
      </trkpt>
      <trkpt lat="49.01998" lon="7.83419">
        <ele>358.6</ele>
        <time>2022-05-01T10:19:07Z</time>
      </trkpt>
      <trkpt lat="49.02001" lon="7.83418">
        <ele>358.8</ele>
        <time>2022-05-01T10:19:08Z</time>
      </trkpt>
      <trkpt lat="49.02004" lon="7.83416">
        <ele>358.8</ele>
        <time>2022-05-01T10:19:09Z</time>
      </trkpt>
      <trkpt lat="49.02007" lon="7.83414">
        <ele>358.8</ele>
        <time>2022-05-01T10:19:10Z</time>
      </trkpt>
      <trkpt lat="49.02011" lon="7.83412">
        <ele>358.8</ele>
        <time>2022-05-01T10:19:11Z</time>
      </trkpt>
      <trkpt lat="49.02013" lon="7.8341">
        <ele>359</ele>
        <time>2022-05-01T10:19:12Z</time>
      </trkpt>
      <trkpt lat="49.02015" lon="7.83408">
        <ele>359.2</ele>
        <time>2022-05-01T10:19:13Z</time>
      </trkpt>
      <trkpt lat="49.02018" lon="7.83406">
        <ele>359.6</ele>
        <time>2022-05-01T10:19:14Z</time>
      </trkpt>
      <trkpt lat="49.0202" lon="7.83404">
        <ele>359.6</ele>
        <time>2022-05-01T10:19:15Z</time>
      </trkpt>
      <trkpt lat="49.02022" lon="7.83402">
        <ele>359.8</ele>
        <time>2022-05-01T10:19:16Z</time>
      </trkpt>
      <trkpt lat="49.02024" lon="7.83401">
        <ele>360</ele>
        <time>2022-05-01T10:19:17Z</time>
      </trkpt>
      <trkpt lat="49.02026" lon="7.83399">
        <ele>360</ele>
        <time>2022-05-01T10:19:18Z</time>
      </trkpt>
      <trkpt lat="49.02029" lon="7.83398">
        <ele>360.2</ele>
        <time>2022-05-01T10:19:19Z</time>
      </trkpt>
      <trkpt lat="49.02031" lon="7.83396">
        <ele>360.2</ele>
        <time>2022-05-01T10:19:20Z</time>
      </trkpt>
      <trkpt lat="49.02032" lon="7.83394">
        <ele>360.4</ele>
        <time>2022-05-01T10:19:21Z</time>
      </trkpt>
      <trkpt lat="49.02034" lon="7.83393">
        <ele>360.4</ele>
        <time>2022-05-01T10:19:22Z</time>
      </trkpt>
      <trkpt lat="49.02036" lon="7.83393">
        <ele>360.6</ele>
        <time>2022-05-01T10:19:23Z</time>
      </trkpt>
      <trkpt lat="49.02039" lon="7.83393">
        <ele>360.6</ele>
        <time>2022-05-01T10:19:24Z</time>
      </trkpt>
      <trkpt lat="49.02043" lon="7.83394">
        <ele>360.8</ele>
        <time>2022-05-01T10:19:25Z</time>
      </trkpt>
      <trkpt lat="49.02046" lon="7.83394">
        <ele>361</ele>
        <time>2022-05-01T10:19:26Z</time>
      </trkpt>
      <trkpt lat="49.0205" lon="7.83395">
        <ele>361</ele>
        <time>2022-05-01T10:19:27Z</time>
      </trkpt>
      <trkpt lat="49.02054" lon="7.83396">
        <ele>361.2</ele>
        <time>2022-05-01T10:19:28Z</time>
      </trkpt>
      <trkpt lat="49.02057" lon="7.83398">
        <ele>361.4</ele>
        <time>2022-05-01T10:19:29Z</time>
      </trkpt>
      <trkpt lat="49.0206" lon="7.834">
        <ele>361.4</ele>
        <time>2022-05-01T10:19:30Z</time>
      </trkpt>
      <trkpt lat="49.02064" lon="7.83402">
        <ele>361.8</ele>
        <time>2022-05-01T10:19:31Z</time>
      </trkpt>
      <trkpt lat="49.02068" lon="7.83404">
        <ele>361.8</ele>
        <time>2022-05-01T10:19:32Z</time>
      </trkpt>
      <trkpt lat="49.0207" lon="7.83405">
        <ele>362</ele>
        <time>2022-05-01T10:19:33Z</time>
      </trkpt>
      <trkpt lat="49.02072" lon="7.83406">
        <ele>362</ele>
        <time>2022-05-01T10:19:34Z</time>
      </trkpt>
      <trkpt lat="49.02074" lon="7.83407">
        <ele>362.2</ele>
        <time>2022-05-01T10:19:35Z</time>
      </trkpt>
      <trkpt lat="49.02076" lon="7.83407">
        <ele>362.2</ele>
        <time>2022-05-01T10:19:36Z</time>
      </trkpt>
      <trkpt lat="49.02078" lon="7.83407">
        <ele>362.2</ele>
        <time>2022-05-01T10:19:37Z</time>
      </trkpt>
      <trkpt lat="49.0208" lon="7.83408">
        <ele>362.4</ele>
        <time>2022-05-01T10:19:38Z</time>
      </trkpt>
      <trkpt lat="49.02082" lon="7.8341">
        <ele>362.6</ele>
        <time>2022-05-01T10:19:39Z</time>
      </trkpt>
      <trkpt lat="49.02085" lon="7.83411">
        <ele>362.6</ele>
        <time>2022-05-01T10:19:40Z</time>
      </trkpt>
      <trkpt lat="49.02088" lon="7.83413">
        <ele>362.8</ele>
        <time>2022-05-01T10:19:41Z</time>
      </trkpt>
      <trkpt lat="49.02093" lon="7.83416">
        <ele>362.8</ele>
        <time>2022-05-01T10:19:42Z</time>
      </trkpt>
      <trkpt lat="49.02097" lon="7.83418">
        <ele>363</ele>
        <time>2022-05-01T10:19:43Z</time>
      </trkpt>
      <trkpt lat="49.021" lon="7.8342">
        <ele>363</ele>
        <time>2022-05-01T10:19:44Z</time>
      </trkpt>
      <trkpt lat="49.02103" lon="7.83423">
        <ele>363</ele>
        <time>2022-05-01T10:19:45Z</time>
      </trkpt>
      <trkpt lat="49.02105" lon="7.83425">
        <ele>363</ele>
        <time>2022-05-01T10:19:46Z</time>
      </trkpt>
      <trkpt lat="49.02107" lon="7.83427">
        <ele>363</ele>
        <time>2022-05-01T10:19:47Z</time>
      </trkpt>
      <trkpt lat="49.0211" lon="7.83428">
        <ele>363</ele>
        <time>2022-05-01T10:19:48Z</time>
      </trkpt>
      <trkpt lat="49.02112" lon="7.83429">
        <ele>363</ele>
        <time>2022-05-01T10:19:49Z</time>
      </trkpt>
      <trkpt lat="49.02114" lon="7.83428">
        <ele>363</ele>
        <time>2022-05-01T10:19:50Z</time>
      </trkpt>
      <trkpt lat="49.02115" lon="7.83429">
        <ele>363.2</ele>
        <time>2022-05-01T10:19:51Z</time>
      </trkpt>
      <trkpt lat="49.02117" lon="7.83431">
        <ele>363.4</ele>
        <time>2022-05-01T10:19:52Z</time>
      </trkpt>
      <trkpt lat="49.02118" lon="7.83434">
        <ele>363.4</ele>
        <time>2022-05-01T10:19:53Z</time>
      </trkpt>
      <trkpt lat="49.02122" lon="7.83435">
        <ele>363.6</ele>
        <time>2022-05-01T10:19:54Z</time>
      </trkpt>
      <trkpt lat="49.02127" lon="7.83436">
        <ele>363.8</ele>
        <time>2022-05-01T10:19:55Z</time>
      </trkpt>
      <trkpt lat="49.02137" lon="7.8344">
        <ele>364</ele>
        <time>2022-05-01T10:19:57Z</time>
      </trkpt>
      <trkpt lat="49.0214" lon="7.83442">
        <ele>364</ele>
        <time>2022-05-01T10:19:58Z</time>
      </trkpt>
      <trkpt lat="49.02143" lon="7.83447">
        <ele>364.4</ele>
        <time>2022-05-01T10:20:00Z</time>
      </trkpt>
      <trkpt lat="49.02147" lon="7.8345">
        <ele>364.6</ele>
        <time>2022-05-01T10:20:01Z</time>
      </trkpt>
      <trkpt lat="49.02147" lon="7.83451">
        <ele>364.8</ele>
        <time>2022-05-01T10:20:02Z</time>
      </trkpt>
      <trkpt lat="49.02148" lon="7.83453">
        <ele>365</ele>
        <time>2022-05-01T10:20:03Z</time>
      </trkpt>
      <trkpt lat="49.02151" lon="7.83457">
        <ele>365.2</ele>
        <time>2022-05-01T10:20:06Z</time>
      </trkpt>
      <trkpt lat="49.02152" lon="7.83459">
        <ele>365.4</ele>
        <time>2022-05-01T10:20:07Z</time>
      </trkpt>
      <trkpt lat="49.02154" lon="7.83462">
        <ele>365.6</ele>
        <time>2022-05-01T10:20:08Z</time>
      </trkpt>
      <trkpt lat="49.02156" lon="7.83465">
        <ele>365.6</ele>
        <time>2022-05-01T10:20:09Z</time>
      </trkpt>
      <trkpt lat="49.02158" lon="7.83468">
        <ele>365.8</ele>
        <time>2022-05-01T10:20:10Z</time>
      </trkpt>
      <trkpt lat="49.02165" lon="7.83472">
        <ele>366</ele>
        <time>2022-05-01T10:20:11Z</time>
      </trkpt>
      <trkpt lat="49.02172" lon="7.83475">
        <ele>366.2</ele>
        <time>2022-05-01T10:20:12Z</time>
      </trkpt>
      <trkpt lat="49.02176" lon="7.83479">
        <ele>366.4</ele>
        <time>2022-05-01T10:20:13Z</time>
      </trkpt>
      <trkpt lat="49.02178" lon="7.83482">
        <ele>366.6</ele>
        <time>2022-05-01T10:20:14Z</time>
      </trkpt>
      <trkpt lat="49.0218" lon="7.83485">
        <ele>366.8</ele>
        <time>2022-05-01T10:20:15Z</time>
      </trkpt>
      <trkpt lat="49.02182" lon="7.83488">
        <ele>367</ele>
        <time>2022-05-01T10:20:16Z</time>
      </trkpt>
      <trkpt lat="49.02184" lon="7.8349">
        <ele>367.2</ele>
        <time>2022-05-01T10:20:17Z</time>
      </trkpt>
      <trkpt lat="49.02185" lon="7.83492">
        <ele>367.2</ele>
        <time>2022-05-01T10:20:18Z</time>
      </trkpt>
      <trkpt lat="49.02186" lon="7.83494">
        <ele>367.4</ele>
        <time>2022-05-01T10:20:19Z</time>
      </trkpt>
      <trkpt lat="49.02188" lon="7.83496">
        <ele>367.6</ele>
        <time>2022-05-01T10:20:20Z</time>
      </trkpt>
      <trkpt lat="49.0219" lon="7.83498">
        <ele>367.8</ele>
        <time>2022-05-01T10:20:21Z</time>
      </trkpt>
      <trkpt lat="49.02191" lon="7.83501">
        <ele>367.8</ele>
        <time>2022-05-01T10:20:22Z</time>
      </trkpt>
      <trkpt lat="49.02193" lon="7.83503">
        <ele>368</ele>
        <time>2022-05-01T10:20:23Z</time>
      </trkpt>
      <trkpt lat="49.02195" lon="7.83504">
        <ele>368.2</ele>
        <time>2022-05-01T10:20:24Z</time>
      </trkpt>
      <trkpt lat="49.02197" lon="7.83505">
        <ele>368.2</ele>
        <time>2022-05-01T10:20:25Z</time>
      </trkpt>
      <trkpt lat="49.022" lon="7.83507">
        <ele>368.4</ele>
        <time>2022-05-01T10:20:26Z</time>
      </trkpt>
      <trkpt lat="49.02203" lon="7.83509">
        <ele>368.6</ele>
        <time>2022-05-01T10:20:27Z</time>
      </trkpt>
      <trkpt lat="49.02205" lon="7.8351">
        <ele>368.8</ele>
        <time>2022-05-01T10:20:28Z</time>
      </trkpt>
      <trkpt lat="49.02207" lon="7.83511">
        <ele>369</ele>
        <time>2022-05-01T10:20:29Z</time>
      </trkpt>
      <trkpt lat="49.0221" lon="7.83513">
        <ele>369</ele>
        <time>2022-05-01T10:20:30Z</time>
      </trkpt>
      <trkpt lat="49.02214" lon="7.83515">
        <ele>369.2</ele>
        <time>2022-05-01T10:20:31Z</time>
      </trkpt>
      <trkpt lat="49.02216" lon="7.83518">
        <ele>369.4</ele>
        <time>2022-05-01T10:20:32Z</time>
      </trkpt>
      <trkpt lat="49.02218" lon="7.8352">
        <ele>369.4</ele>
        <time>2022-05-01T10:20:33Z</time>
      </trkpt>
      <trkpt lat="49.0222" lon="7.83523">
        <ele>369.6</ele>
        <time>2022-05-01T10:20:34Z</time>
      </trkpt>
      <trkpt lat="49.02222" lon="7.83526">
        <ele>369.8</ele>
        <time>2022-05-01T10:20:35Z</time>
      </trkpt>
      <trkpt lat="49.02224" lon="7.83528">
        <ele>370</ele>
        <time>2022-05-01T10:20:36Z</time>
      </trkpt>
      <trkpt lat="49.02226" lon="7.83531">
        <ele>370.2</ele>
        <time>2022-05-01T10:20:37Z</time>
      </trkpt>
      <trkpt lat="49.02228" lon="7.83533">
        <ele>370.4</ele>
        <time>2022-05-01T10:20:38Z</time>
      </trkpt>
      <trkpt lat="49.0223" lon="7.83536">
        <ele>370.6</ele>
        <time>2022-05-01T10:20:39Z</time>
      </trkpt>
      <trkpt lat="49.02233" lon="7.83538">
        <ele>370.8</ele>
        <time>2022-05-01T10:20:40Z</time>
      </trkpt>
      <trkpt lat="49.02236" lon="7.8354">
        <ele>370.8</ele>
        <time>2022-05-01T10:20:41Z</time>
      </trkpt>
      <trkpt lat="49.02237" lon="7.83541">
        <ele>371</ele>
        <time>2022-05-01T10:20:42Z</time>
      </trkpt>
      <trkpt lat="49.02241" lon="7.83545">
        <ele>371.2</ele>
        <time>2022-05-01T10:20:43Z</time>
      </trkpt>
      <trkpt lat="49.02244" lon="7.83548">
        <ele>371.2</ele>
        <time>2022-05-01T10:20:44Z</time>
      </trkpt>
      <trkpt lat="49.0225" lon="7.83552">
        <ele>371.2</ele>
        <time>2022-05-01T10:20:45Z</time>
      </trkpt>
      <trkpt lat="49.02253" lon="7.83555">
        <ele>371.2</ele>
        <time>2022-05-01T10:20:46Z</time>
      </trkpt>
      <trkpt lat="49.02255" lon="7.83558">
        <ele>371.4</ele>
        <time>2022-05-01T10:20:47Z</time>
      </trkpt>
      <trkpt lat="49.02257" lon="7.8356">
        <ele>371.6</ele>
        <time>2022-05-01T10:20:48Z</time>
      </trkpt>
      <trkpt lat="49.0226" lon="7.83562">
        <ele>371.6</ele>
        <time>2022-05-01T10:20:49Z</time>
      </trkpt>
      <trkpt lat="49.02263" lon="7.83564">
        <ele>371.8</ele>
        <time>2022-05-01T10:20:50Z</time>
      </trkpt>
      <trkpt lat="49.02265" lon="7.83567">
        <ele>371.8</ele>
        <time>2022-05-01T10:20:51Z</time>
      </trkpt>
      <trkpt lat="49.02267" lon="7.83569">
        <ele>371.8</ele>
        <time>2022-05-01T10:20:52Z</time>
      </trkpt>
      <trkpt lat="49.02268" lon="7.83572">
        <ele>371.8</ele>
        <time>2022-05-01T10:20:53Z</time>
      </trkpt>
      <trkpt lat="49.0227" lon="7.83575">
        <ele>371.8</ele>
        <time>2022-05-01T10:20:54Z</time>
      </trkpt>
      <trkpt lat="49.02274" lon="7.83577">
        <ele>372</ele>
        <time>2022-05-01T10:20:55Z</time>
      </trkpt>
      <trkpt lat="49.02277" lon="7.8358">
        <ele>372</ele>
        <time>2022-05-01T10:20:56Z</time>
      </trkpt>
      <trkpt lat="49.02282" lon="7.83583">
        <ele>372.2</ele>
        <time>2022-05-01T10:20:57Z</time>
      </trkpt>
      <trkpt lat="49.02285" lon="7.83586">
        <ele>372.2</ele>
        <time>2022-05-01T10:20:58Z</time>
      </trkpt>
      <trkpt lat="49.02289" lon="7.83588">
        <ele>372.4</ele>
        <time>2022-05-01T10:20:59Z</time>
      </trkpt>
      <trkpt lat="49.02291" lon="7.83591">
        <ele>372.4</ele>
        <time>2022-05-01T10:21:00Z</time>
      </trkpt>
      <trkpt lat="49.02291" lon="7.83595">
        <ele>372.4</ele>
        <time>2022-05-01T10:21:01Z</time>
      </trkpt>
      <trkpt lat="49.02292" lon="7.836">
        <ele>372.6</ele>
        <time>2022-05-01T10:21:02Z</time>
      </trkpt>
      <trkpt lat="49.02295" lon="7.83603">
        <ele>372.6</ele>
        <time>2022-05-01T10:21:03Z</time>
      </trkpt>
      <trkpt lat="49.02299" lon="7.83607">
        <ele>372.6</ele>
        <time>2022-05-01T10:21:04Z</time>
      </trkpt>
      <trkpt lat="49.02301" lon="7.83611">
        <ele>372.6</ele>
        <time>2022-05-01T10:21:05Z</time>
      </trkpt>
      <trkpt lat="49.02304" lon="7.83616">
        <ele>372.8</ele>
        <time>2022-05-01T10:21:06Z</time>
      </trkpt>
      <trkpt lat="49.02307" lon="7.8362">
        <ele>373</ele>
        <time>2022-05-01T10:21:07Z</time>
      </trkpt>
      <trkpt lat="49.0231" lon="7.83624">
        <ele>373</ele>
        <time>2022-05-01T10:21:08Z</time>
      </trkpt>
      <trkpt lat="49.02314" lon="7.83628">
        <ele>373.2</ele>
        <time>2022-05-01T10:21:09Z</time>
      </trkpt>
      <trkpt lat="49.02322" lon="7.83638">
        <ele>373.4</ele>
        <time>2022-05-01T10:21:12Z</time>
      </trkpt>
      <trkpt lat="49.02323" lon="7.83643">
        <ele>373.4</ele>
        <time>2022-05-01T10:21:13Z</time>
      </trkpt>
      <trkpt lat="49.02323" lon="7.83648">
        <ele>373.6</ele>
        <time>2022-05-01T10:21:14Z</time>
      </trkpt>
      <trkpt lat="49.02324" lon="7.83652">
        <ele>373.6</ele>
        <time>2022-05-01T10:21:15Z</time>
      </trkpt>
      <trkpt lat="49.02325" lon="7.83656">
        <ele>373.6</ele>
        <time>2022-05-01T10:21:16Z</time>
      </trkpt>
      <trkpt lat="49.02324" lon="7.83662">
        <ele>373.6</ele>
        <time>2022-05-01T10:21:17Z</time>
      </trkpt>
      <trkpt lat="49.02323" lon="7.83672">
        <ele>373.8</ele>
        <time>2022-05-01T10:21:19Z</time>
      </trkpt>
      <trkpt lat="49.02322" lon="7.83695">
        <ele>374</ele>
        <time>2022-05-01T10:21:24Z</time>
      </trkpt>
      <trkpt lat="49.02321" lon="7.83699">
        <ele>374</ele>
        <time>2022-05-01T10:21:25Z</time>
      </trkpt>
      <trkpt lat="49.02322" lon="7.83714">
        <ele>374.4</ele>
        <time>2022-05-01T10:21:28Z</time>
      </trkpt>
      <trkpt lat="49.02323" lon="7.83717">
        <ele>374.6</ele>
        <time>2022-05-01T10:21:29Z</time>
      </trkpt>
      <trkpt lat="49.02323" lon="7.83721">
        <ele>374.8</ele>
        <time>2022-05-01T10:21:30Z</time>
      </trkpt>
      <trkpt lat="49.02323" lon="7.83726">
        <ele>375</ele>
        <time>2022-05-01T10:21:31Z</time>
      </trkpt>
      <trkpt lat="49.02323" lon="7.83732">
        <ele>375</ele>
        <time>2022-05-01T10:21:32Z</time>
      </trkpt>
      <trkpt lat="49.02321" lon="7.83748">
        <ele>375.6</ele>
        <time>2022-05-01T10:21:35Z</time>
      </trkpt>
      <trkpt lat="49.02321" lon="7.8376">
        <ele>375.6</ele>
        <time>2022-05-01T10:21:37Z</time>
      </trkpt>
      <trkpt lat="49.0232" lon="7.83765">
        <ele>375.8</ele>
        <time>2022-05-01T10:21:38Z</time>
      </trkpt>
      <trkpt lat="49.02321" lon="7.83771">
        <ele>375.8</ele>
        <time>2022-05-01T10:21:39Z</time>
      </trkpt>
      <trkpt lat="49.02323" lon="7.83778">
        <ele>375.8</ele>
        <time>2022-05-01T10:21:40Z</time>
      </trkpt>
      <trkpt lat="49.02325" lon="7.83784">
        <ele>375.8</ele>
        <time>2022-05-01T10:21:41Z</time>
      </trkpt>
      <trkpt lat="49.02325" lon="7.83802">
        <ele>376.4</ele>
        <time>2022-05-01T10:21:44Z</time>
      </trkpt>
      <trkpt lat="49.02325" lon="7.83808">
        <ele>376.4</ele>
        <time>2022-05-01T10:21:45Z</time>
      </trkpt>
      <trkpt lat="49.02326" lon="7.83813">
        <ele>376.4</ele>
        <time>2022-05-01T10:21:46Z</time>
      </trkpt>
      <trkpt lat="49.02328" lon="7.83819">
        <ele>376.4</ele>
        <time>2022-05-01T10:21:47Z</time>
      </trkpt>
      <trkpt lat="49.02329" lon="7.83826">
        <ele>376.4</ele>
        <time>2022-05-01T10:21:48Z</time>
      </trkpt>
      <trkpt lat="49.02329" lon="7.83832">
        <ele>376.4</ele>
        <time>2022-05-01T10:21:49Z</time>
      </trkpt>
      <trkpt lat="49.02328" lon="7.83839">
        <ele>376.6</ele>
        <time>2022-05-01T10:21:50Z</time>
      </trkpt>
      <trkpt lat="49.02332" lon="7.83852">
        <ele>376.6</ele>
        <time>2022-05-01T10:21:52Z</time>
      </trkpt>
      <trkpt lat="49.02332" lon="7.83866">
        <ele>376.4</ele>
        <time>2022-05-01T10:21:54Z</time>
      </trkpt>
      <trkpt lat="49.02332" lon="7.83881">
        <ele>376.4</ele>
        <time>2022-05-01T10:21:56Z</time>
      </trkpt>
      <trkpt lat="49.02331" lon="7.83888">
        <ele>376.4</ele>
        <time>2022-05-01T10:21:57Z</time>
      </trkpt>
      <trkpt lat="49.02331" lon="7.83897">
        <ele>376.2</ele>
        <time>2022-05-01T10:21:59Z</time>
      </trkpt>
      <trkpt lat="49.02331" lon="7.83902">
        <ele>376.2</ele>
        <time>2022-05-01T10:22:00Z</time>
      </trkpt>
      <trkpt lat="49.0233" lon="7.83908">
        <ele>376</ele>
        <time>2022-05-01T10:22:01Z</time>
      </trkpt>
      <trkpt lat="49.02331" lon="7.83913">
        <ele>376.2</ele>
        <time>2022-05-01T10:22:02Z</time>
      </trkpt>
      <trkpt lat="49.02332" lon="7.83917">
        <ele>376.2</ele>
        <time>2022-05-01T10:22:03Z</time>
      </trkpt>
      <trkpt lat="49.02335" lon="7.83925">
        <ele>376</ele>
        <time>2022-05-01T10:22:05Z</time>
      </trkpt>
      <trkpt lat="49.02336" lon="7.83929">
        <ele>375.8</ele>
        <time>2022-05-01T10:22:06Z</time>
      </trkpt>
      <trkpt lat="49.02334" lon="7.83954">
        <ele>376</ele>
        <time>2022-05-01T10:22:09Z</time>
      </trkpt>
      <trkpt lat="49.02334" lon="7.83962">
        <ele>376</ele>
        <time>2022-05-01T10:22:10Z</time>
      </trkpt>
      <trkpt lat="49.02334" lon="7.84">
        <ele>375.4</ele>
        <time>2022-05-01T10:22:15Z</time>
      </trkpt>
      <trkpt lat="49.02333" lon="7.84007">
        <ele>375.2</ele>
        <time>2022-05-01T10:22:16Z</time>
      </trkpt>
      <trkpt lat="49.02329" lon="7.84022">
        <ele>374.6</ele>
        <time>2022-05-01T10:22:18Z</time>
      </trkpt>
      <trkpt lat="49.02321" lon="7.8405">
        <ele>373.4</ele>
        <time>2022-05-01T10:22:22Z</time>
      </trkpt>
      <trkpt lat="49.0232" lon="7.84057">
        <ele>373</ele>
        <time>2022-05-01T10:22:23Z</time>
      </trkpt>
      <trkpt lat="49.02318" lon="7.84063">
        <ele>372.8</ele>
        <time>2022-05-01T10:22:24Z</time>
      </trkpt>
      <trkpt lat="49.02316" lon="7.84069">
        <ele>372.6</ele>
        <time>2022-05-01T10:22:25Z</time>
      </trkpt>
      <trkpt lat="49.02314" lon="7.84078">
        <ele>372.4</ele>
        <time>2022-05-01T10:22:26Z</time>
      </trkpt>
      <trkpt lat="49.02311" lon="7.84087">
        <ele>372.2</ele>
        <time>2022-05-01T10:22:27Z</time>
      </trkpt>
      <trkpt lat="49.02309" lon="7.84095">
        <ele>372.2</ele>
        <time>2022-05-01T10:22:28Z</time>
      </trkpt>
      <trkpt lat="49.02304" lon="7.84105">
        <ele>371.8</ele>
        <time>2022-05-01T10:22:30Z</time>
      </trkpt>
      <trkpt lat="49.02303" lon="7.84106">
        <ele>371.6</ele>
        <time>2022-05-01T10:22:31Z</time>
      </trkpt>
      <trkpt lat="49.02303" lon="7.84106">
        <ele>371.4</ele>
        <time>2022-05-01T10:22:32Z</time>
      </trkpt>
      <trkpt lat="49.02303" lon="7.84106">
        <ele>371.2</ele>
        <time>2022-05-01T10:22:33Z</time>
      </trkpt>
      <trkpt lat="49.02303" lon="7.84106">
        <ele>370.8</ele>
        <time>2022-05-01T10:22:34Z</time>
      </trkpt>
      <trkpt lat="49.02304" lon="7.84109">
        <ele>369</ele>
        <time>2022-05-01T10:22:38Z</time>
      </trkpt>
      <trkpt lat="49.02304" lon="7.84109">
        <ele>368.8</ele>
        <time>2022-05-01T10:22:40Z</time>
      </trkpt>
      <trkpt lat="49.02304" lon="7.84109">
        <ele>368.8</ele>
        <time>2022-05-01T10:22:41Z</time>
      </trkpt>
      <trkpt lat="49.02302" lon="7.84115">
        <ele>368.6</ele>
        <time>2022-05-01T10:22:52Z</time>
      </trkpt>
      <trkpt lat="49.023" lon="7.84126">
        <ele>368.4</ele>
        <time>2022-05-01T10:22:54Z</time>
      </trkpt>
      <trkpt lat="49.02297" lon="7.84141">
        <ele>368.2</ele>
        <time>2022-05-01T10:22:56Z</time>
      </trkpt>
      <trkpt lat="49.02296" lon="7.84157">
        <ele>368</ele>
        <time>2022-05-01T10:22:58Z</time>
      </trkpt>
      <trkpt lat="49.02295" lon="7.84164">
        <ele>368</ele>
        <time>2022-05-01T10:22:59Z</time>
      </trkpt>
      <trkpt lat="49.02294" lon="7.84171">
        <ele>367.8</ele>
        <time>2022-05-01T10:23:00Z</time>
      </trkpt>
      <trkpt lat="49.02294" lon="7.84179">
        <ele>367.4</ele>
        <time>2022-05-01T10:23:01Z</time>
      </trkpt>
      <trkpt lat="49.02292" lon="7.84194">
        <ele>366.8</ele>
        <time>2022-05-01T10:23:03Z</time>
      </trkpt>
      <trkpt lat="49.02291" lon="7.84201">
        <ele>366.2</ele>
        <time>2022-05-01T10:23:04Z</time>
      </trkpt>
      <trkpt lat="49.02291" lon="7.84208">
        <ele>365.8</ele>
        <time>2022-05-01T10:23:05Z</time>
      </trkpt>
      <trkpt lat="49.02289" lon="7.8422">
        <ele>364.8</ele>
        <time>2022-05-01T10:23:07Z</time>
      </trkpt>
      <trkpt lat="49.02288" lon="7.84227">
        <ele>364.6</ele>
        <time>2022-05-01T10:23:08Z</time>
      </trkpt>
      <trkpt lat="49.02286" lon="7.84234">
        <ele>364.4</ele>
        <time>2022-05-01T10:23:09Z</time>
      </trkpt>
      <trkpt lat="49.02283" lon="7.84242">
        <ele>364.2</ele>
        <time>2022-05-01T10:23:10Z</time>
      </trkpt>
      <trkpt lat="49.02281" lon="7.84259">
        <ele>363.4</ele>
        <time>2022-05-01T10:23:12Z</time>
      </trkpt>
      <trkpt lat="49.02283" lon="7.84275">
        <ele>363.2</ele>
        <time>2022-05-01T10:23:14Z</time>
      </trkpt>
      <trkpt lat="49.02284" lon="7.84283">
        <ele>363</ele>
        <time>2022-05-01T10:23:15Z</time>
      </trkpt>
      <trkpt lat="49.02284" lon="7.84291">
        <ele>363</ele>
        <time>2022-05-01T10:23:16Z</time>
      </trkpt>
      <trkpt lat="49.02284" lon="7.84299">
        <ele>363</ele>
        <time>2022-05-01T10:23:17Z</time>
      </trkpt>
      <trkpt lat="49.02285" lon="7.84306">
        <ele>363</ele>
        <time>2022-05-01T10:23:18Z</time>
      </trkpt>
      <trkpt lat="49.02285" lon="7.84313">
        <ele>363</ele>
        <time>2022-05-01T10:23:19Z</time>
      </trkpt>
      <trkpt lat="49.02286" lon="7.84321">
        <ele>363</ele>
        <time>2022-05-01T10:23:20Z</time>
      </trkpt>
      <trkpt lat="49.02286" lon="7.84336">
        <ele>362.8</ele>
        <time>2022-05-01T10:23:22Z</time>
      </trkpt>
      <trkpt lat="49.02285" lon="7.84341">
        <ele>362.8</ele>
        <time>2022-05-01T10:23:23Z</time>
      </trkpt>
      <trkpt lat="49.02284" lon="7.84346">
        <ele>362.8</ele>
        <time>2022-05-01T10:23:24Z</time>
      </trkpt>
      <trkpt lat="49.02281" lon="7.8435">
        <ele>362.8</ele>
        <time>2022-05-01T10:23:25Z</time>
      </trkpt>
      <trkpt lat="49.02277" lon="7.84354">
        <ele>362.8</ele>
        <time>2022-05-01T10:23:26Z</time>
      </trkpt>
      <trkpt lat="49.02274" lon="7.84357">
        <ele>362.8</ele>
        <time>2022-05-01T10:23:27Z</time>
      </trkpt>
      <trkpt lat="49.02273" lon="7.84361">
        <ele>362.8</ele>
        <time>2022-05-01T10:23:28Z</time>
      </trkpt>
      <trkpt lat="49.02271" lon="7.84365">
        <ele>362.8</ele>
        <time>2022-05-01T10:23:29Z</time>
      </trkpt>
      <trkpt lat="49.02267" lon="7.84375">
        <ele>362.6</ele>
        <time>2022-05-01T10:23:31Z</time>
      </trkpt>
      <trkpt lat="49.02264" lon="7.8438">
        <ele>362.6</ele>
        <time>2022-05-01T10:23:32Z</time>
      </trkpt>
      <trkpt lat="49.02262" lon="7.84386">
        <ele>362.4</ele>
        <time>2022-05-01T10:23:33Z</time>
      </trkpt>
      <trkpt lat="49.02255" lon="7.84398">
        <ele>362.4</ele>
        <time>2022-05-01T10:23:35Z</time>
      </trkpt>
      <trkpt lat="49.02249" lon="7.8441">
        <ele>362.2</ele>
        <time>2022-05-01T10:23:37Z</time>
      </trkpt>
      <trkpt lat="49.02243" lon="7.84421">
        <ele>362</ele>
        <time>2022-05-01T10:23:39Z</time>
      </trkpt>
      <trkpt lat="49.0224" lon="7.84428">
        <ele>361.8</ele>
        <time>2022-05-01T10:23:40Z</time>
      </trkpt>
      <trkpt lat="49.02236" lon="7.84435">
        <ele>361.4</ele>
        <time>2022-05-01T10:23:41Z</time>
      </trkpt>
      <trkpt lat="49.02224" lon="7.84457">
        <ele>360.6</ele>
        <time>2022-05-01T10:23:44Z</time>
      </trkpt>
      <trkpt lat="49.0222" lon="7.84464">
        <ele>360.4</ele>
        <time>2022-05-01T10:23:45Z</time>
      </trkpt>
      <trkpt lat="49.02216" lon="7.84468">
        <ele>360.2</ele>
        <time>2022-05-01T10:23:46Z</time>
      </trkpt>
      <trkpt lat="49.0221" lon="7.84471">
        <ele>359.8</ele>
        <time>2022-05-01T10:23:47Z</time>
      </trkpt>
      <trkpt lat="49.02204" lon="7.84474">
        <ele>359.6</ele>
        <time>2022-05-01T10:23:48Z</time>
      </trkpt>
      <trkpt lat="49.02199" lon="7.84479">
        <ele>359.4</ele>
        <time>2022-05-01T10:23:49Z</time>
      </trkpt>
      <trkpt lat="49.02195" lon="7.84485">
        <ele>359</ele>
        <time>2022-05-01T10:23:50Z</time>
      </trkpt>
      <trkpt lat="49.02186" lon="7.84498">
        <ele>358</ele>
        <time>2022-05-01T10:23:52Z</time>
      </trkpt>
      <trkpt lat="49.02181" lon="7.84505">
        <ele>357.2</ele>
        <time>2022-05-01T10:23:53Z</time>
      </trkpt>
      <trkpt lat="49.02168" lon="7.84526">
        <ele>355.8</ele>
        <time>2022-05-01T10:23:56Z</time>
      </trkpt>
      <trkpt lat="49.02159" lon="7.84539">
        <ele>354.8</ele>
        <time>2022-05-01T10:23:58Z</time>
      </trkpt>
      <trkpt lat="49.02151" lon="7.84551">
        <ele>354</ele>
        <time>2022-05-01T10:24:00Z</time>
      </trkpt>
      <trkpt lat="49.02142" lon="7.84562">
        <ele>353.8</ele>
        <time>2022-05-01T10:24:02Z</time>
      </trkpt>
      <trkpt lat="49.02138" lon="7.84569">
        <ele>353.8</ele>
        <time>2022-05-01T10:24:03Z</time>
      </trkpt>
      <trkpt lat="49.02135" lon="7.84575">
        <ele>353.6</ele>
        <time>2022-05-01T10:24:04Z</time>
      </trkpt>
      <trkpt lat="49.02132" lon="7.8458">
        <ele>353.6</ele>
        <time>2022-05-01T10:24:05Z</time>
      </trkpt>
      <trkpt lat="49.02129" lon="7.84584">
        <ele>353.6</ele>
        <time>2022-05-01T10:24:06Z</time>
      </trkpt>
      <trkpt lat="49.02127" lon="7.84585">
        <ele>353.6</ele>
        <time>2022-05-01T10:24:07Z</time>
      </trkpt>
      <trkpt lat="49.02124" lon="7.84581">
        <ele>353.6</ele>
        <time>2022-05-01T10:24:08Z</time>
      </trkpt>
      <trkpt lat="49.02122" lon="7.84576">
        <ele>353.6</ele>
        <time>2022-05-01T10:24:09Z</time>
      </trkpt>
      <trkpt lat="49.02119" lon="7.8457">
        <ele>353.4</ele>
        <time>2022-05-01T10:24:10Z</time>
      </trkpt>
      <trkpt lat="49.02104" lon="7.84542">
        <ele>353.2</ele>
        <time>2022-05-01T10:24:14Z</time>
      </trkpt>
      <trkpt lat="49.021" lon="7.84535">
        <ele>353.2</ele>
        <time>2022-05-01T10:24:15Z</time>
      </trkpt>
      <trkpt lat="49.02089" lon="7.84523">
        <ele>353.2</ele>
        <time>2022-05-01T10:24:17Z</time>
      </trkpt>
      <trkpt lat="49.02083" lon="7.84522">
        <ele>353.2</ele>
        <time>2022-05-01T10:24:18Z</time>
      </trkpt>
      <trkpt lat="49.02078" lon="7.84523">
        <ele>353.2</ele>
        <time>2022-05-01T10:24:19Z</time>
      </trkpt>
      <trkpt lat="49.02073" lon="7.84528">
        <ele>352.4</ele>
        <time>2022-05-01T10:24:20Z</time>
      </trkpt>
      <trkpt lat="49.02068" lon="7.84534">
        <ele>352</ele>
        <time>2022-05-01T10:24:21Z</time>
      </trkpt>
      <trkpt lat="49.02064" lon="7.84541">
        <ele>351.6</ele>
        <time>2022-05-01T10:24:22Z</time>
      </trkpt>
      <trkpt lat="49.02059" lon="7.84546">
        <ele>350.8</ele>
        <time>2022-05-01T10:24:23Z</time>
      </trkpt>
      <trkpt lat="49.02054" lon="7.84551">
        <ele>350.2</ele>
        <time>2022-05-01T10:24:24Z</time>
      </trkpt>
      <trkpt lat="49.0205" lon="7.84554">
        <ele>349.8</ele>
        <time>2022-05-01T10:24:25Z</time>
      </trkpt>
      <trkpt lat="49.02047" lon="7.84557">
        <ele>349.2</ele>
        <time>2022-05-01T10:24:26Z</time>
      </trkpt>
      <trkpt lat="49.02045" lon="7.84561">
        <ele>349</ele>
        <time>2022-05-01T10:24:27Z</time>
      </trkpt>
      <trkpt lat="49.02044" lon="7.84566">
        <ele>348.6</ele>
        <time>2022-05-01T10:24:28Z</time>
      </trkpt>
      <trkpt lat="49.02045" lon="7.84571">
        <ele>348.4</ele>
        <time>2022-05-01T10:24:29Z</time>
      </trkpt>
      <trkpt lat="49.02046" lon="7.84576">
        <ele>348.2</ele>
        <time>2022-05-01T10:24:30Z</time>
      </trkpt>
      <trkpt lat="49.02047" lon="7.8458">
        <ele>348.2</ele>
        <time>2022-05-01T10:24:31Z</time>
      </trkpt>
      <trkpt lat="49.02048" lon="7.84583">
        <ele>348.2</ele>
        <time>2022-05-01T10:24:32Z</time>
      </trkpt>
      <trkpt lat="49.02049" lon="7.84586">
        <ele>348.2</ele>
        <time>2022-05-01T10:24:33Z</time>
      </trkpt>
      <trkpt lat="49.02049" lon="7.84587">
        <ele>348.2</ele>
        <time>2022-05-01T10:24:34Z</time>
      </trkpt>
      <trkpt lat="49.02048" lon="7.84587">
        <ele>348.2</ele>
        <time>2022-05-01T10:24:35Z</time>
      </trkpt>
      <trkpt lat="49.02047" lon="7.84589">
        <ele>348.2</ele>
        <time>2022-05-01T10:24:36Z</time>
      </trkpt>
      <trkpt lat="49.02046" lon="7.8459">
        <ele>348.2</ele>
        <time>2022-05-01T10:24:37Z</time>
      </trkpt>
    </trkseg>
  </trk>
</gpx>